<?xml version='1.0' encoding='UTF-8'?>
<gpx version="1.1" creator="https://www.komoot.de" xmlns="http://www.topografix.com/GPX/1/1" xmlns:xsi="http://www.w3.org/2001/XMLSchema-instance" xsi:schemaLocation="http://www.topografix.com/GPX/1/1 http://www.topografix.com/GPX/1/1/gpx.xsd">
  <metadata>
    <name>Day 2: Inter hotel rey to Lac du Bourget</name>
    <author>
      <link href="https://www.komoot.de">
        <text>komoot</text>
        <type>text/html</type>
      </link>
    </author>
  </metadata>
  <trk>
    <name>Day 2: Inter hotel rey to Lac du Bourget</name>
    <trkseg>
      <trkpt lat="46.073450" lon="6.084599">
        <ele>841.619012</ele>
        <time>2017-06-02T06:55:43.000Z</time>
      </trkpt>
      <trkpt lat="46.073486" lon="6.084720">
        <ele>841.619012</ele>
        <time>2017-06-02T06:57:11.000Z</time>
      </trkpt>
      <trkpt lat="46.073547" lon="6.084821">
        <ele>841.619012</ele>
        <time>2017-06-02T06:57:18.000Z</time>
      </trkpt>
      <trkpt lat="46.073640" lon="6.084850">
        <ele>841.619012</ele>
        <time>2017-06-02T06:57:25.000Z</time>
      </trkpt>
      <trkpt lat="46.073784" lon="6.084742">
        <ele>841.619012</ele>
        <time>2017-06-02T06:59:43.000Z</time>
      </trkpt>
      <trkpt lat="46.073870" lon="6.084696">
        <ele>841.619012</ele>
        <time>2017-06-02T06:59:47.000Z</time>
      </trkpt>
      <trkpt lat="46.073967" lon="6.084686">
        <ele>841.619012</ele>
        <time>2017-06-02T06:59:51.000Z</time>
      </trkpt>
      <trkpt lat="46.074060" lon="6.084751">
        <ele>841.619012</ele>
        <time>2017-06-02T06:59:55.000Z</time>
      </trkpt>
      <trkpt lat="46.074130" lon="6.084872">
        <ele>841.619012</ele>
        <time>2017-06-02T06:59:59.000Z</time>
      </trkpt>
      <trkpt lat="46.074203" lon="6.085005">
        <ele>841.650808</ele>
        <time>2017-06-02T07:00:03.000Z</time>
      </trkpt>
      <trkpt lat="46.074260" lon="6.085119">
        <ele>841.701106</ele>
        <time>2017-06-02T07:00:06.000Z</time>
      </trkpt>
      <trkpt lat="46.074295" lon="6.085240">
        <ele>841.748030</ele>
        <time>2017-06-02T07:00:09.000Z</time>
      </trkpt>
      <trkpt lat="46.074368" lon="6.085370">
        <ele>841.807616</ele>
        <time>2017-06-02T07:00:13.000Z</time>
      </trkpt>
      <trkpt lat="46.074430" lon="6.085493">
        <ele>841.862036</ele>
        <time>2017-06-02T07:00:18.000Z</time>
      </trkpt>
      <trkpt lat="46.074436" lon="6.085653">
        <ele>841.919388</ele>
        <time>2017-06-02T07:00:22.000Z</time>
      </trkpt>
      <trkpt lat="46.074425" lon="6.085792">
        <ele>841.969463</ele>
        <time>2017-06-02T07:00:26.000Z</time>
      </trkpt>
      <trkpt lat="46.074413" lon="6.085951">
        <ele>842.026709</ele>
        <time>2017-06-02T07:00:32.000Z</time>
      </trkpt>
      <trkpt lat="46.074425" lon="6.086098">
        <ele>842.079688</ele>
        <time>2017-06-02T07:00:36.000Z</time>
      </trkpt>
      <trkpt lat="46.074448" lon="6.086263">
        <ele>842.139926</ele>
        <time>2017-06-02T07:00:40.000Z</time>
      </trkpt>
      <trkpt lat="46.074440" lon="6.086433">
        <ele>842.200914</ele>
        <time>2017-06-02T07:00:44.000Z</time>
      </trkpt>
      <trkpt lat="46.074436" lon="6.086588">
        <ele>842.256431</ele>
        <time>2017-06-02T07:00:48.000Z</time>
      </trkpt>
      <trkpt lat="46.074440" lon="6.086722">
        <ele>842.304438</ele>
        <time>2017-06-02T07:00:54.000Z</time>
      </trkpt>
      <trkpt lat="46.074383" lon="6.086822">
        <ele>842.350763</ele>
        <time>2017-06-02T07:01:29.000Z</time>
      </trkpt>
      <trkpt lat="46.074300" lon="6.086880">
        <ele>842.398354</ele>
        <time>2017-06-02T07:01:35.000Z</time>
      </trkpt>
      <trkpt lat="46.074220" lon="6.086956">
        <ele>842.447788</ele>
        <time>2017-06-02T07:01:40.000Z</time>
      </trkpt>
      <trkpt lat="46.074146" lon="6.087064">
        <ele>842.502121</ele>
        <time>2017-06-02T07:01:45.000Z</time>
      </trkpt>
      <trkpt lat="46.074070" lon="6.087174">
        <ele>842.739462</ele>
        <time>2017-06-02T07:01:50.000Z</time>
      </trkpt>
      <trkpt lat="46.073990" lon="6.087245">
        <ele>843.614303</ele>
        <time>2017-06-02T07:01:54.000Z</time>
      </trkpt>
      <trkpt lat="46.073887" lon="6.087259">
        <ele>844.577702</ele>
        <time>2017-06-02T07:01:59.000Z</time>
      </trkpt>
      <trkpt lat="46.073788" lon="6.087251">
        <ele>845.501045</ele>
        <time>2017-06-02T07:02:04.000Z</time>
      </trkpt>
      <trkpt lat="46.073692" lon="6.087223">
        <ele>846.413121</ele>
        <time>2017-06-02T07:02:09.000Z</time>
      </trkpt>
      <trkpt lat="46.073586" lon="6.087203">
        <ele>847.408621</ele>
        <time>2017-06-02T07:02:15.000Z</time>
      </trkpt>
      <trkpt lat="46.073494" lon="6.087166">
        <ele>848.298051</ele>
        <time>2017-06-02T07:02:20.000Z</time>
      </trkpt>
      <trkpt lat="46.073402" lon="6.087139">
        <ele>849.172338</ele>
        <time>2017-06-02T07:02:25.000Z</time>
      </trkpt>
      <trkpt lat="46.073310" lon="6.087113">
        <ele>850.045360</ele>
        <time>2017-06-02T07:02:30.000Z</time>
      </trkpt>
      <trkpt lat="46.073210" lon="6.087127">
        <ele>850.980949</ele>
        <time>2017-06-02T07:02:36.000Z</time>
      </trkpt>
      <trkpt lat="46.073116" lon="6.087103">
        <ele>851.869910</ele>
        <time>2017-06-02T07:02:42.000Z</time>
      </trkpt>
      <trkpt lat="46.073013" lon="6.087091">
        <ele>852.832181</ele>
        <time>2017-06-02T07:02:48.000Z</time>
      </trkpt>
      <trkpt lat="46.072920" lon="6.087070">
        <ele>853.708766</ele>
        <time>2017-06-02T07:02:53.000Z</time>
      </trkpt>
      <trkpt lat="46.072815" lon="6.087052">
        <ele>854.693425</ele>
        <time>2017-06-02T07:02:59.000Z</time>
      </trkpt>
      <trkpt lat="46.072727" lon="6.087029">
        <ele>855.526250</ele>
        <time>2017-06-02T07:03:04.000Z</time>
      </trkpt>
      <trkpt lat="46.072630" lon="6.087011">
        <ele>856.436976</ele>
        <time>2017-06-02T07:03:09.000Z</time>
      </trkpt>
      <trkpt lat="46.072525" lon="6.087009">
        <ele>857.414829</ele>
        <time>2017-06-02T07:03:15.000Z</time>
      </trkpt>
      <trkpt lat="46.072433" lon="6.086999">
        <ele>858.273973</ele>
        <time>2017-06-02T07:03:20.000Z</time>
      </trkpt>
      <trkpt lat="46.072330" lon="6.086986">
        <ele>859.236787</ele>
        <time>2017-06-02T07:03:26.000Z</time>
      </trkpt>
      <trkpt lat="46.072227" lon="6.086963">
        <ele>860.114434</ele>
        <time>2017-06-02T07:03:32.000Z</time>
      </trkpt>
      <trkpt lat="46.072136" lon="6.086937">
        <ele>860.890212</ele>
        <time>2017-06-02T07:03:37.000Z</time>
      </trkpt>
      <trkpt lat="46.072044" lon="6.086950">
        <ele>861.663234</ele>
        <time>2017-06-02T07:03:42.000Z</time>
      </trkpt>
      <trkpt lat="46.071953" lon="6.086937">
        <ele>862.427935</ele>
        <time>2017-06-02T07:03:47.000Z</time>
      </trkpt>
      <trkpt lat="46.071860" lon="6.086913">
        <ele>863.217998</ele>
        <time>2017-06-02T07:03:52.000Z</time>
      </trkpt>
      <trkpt lat="46.071762" lon="6.086886">
        <ele>864.052342</ele>
        <time>2017-06-02T07:03:57.000Z</time>
      </trkpt>
      <trkpt lat="46.071663" lon="6.086870">
        <ele>864.885401</ele>
        <time>2017-06-02T07:04:02.000Z</time>
      </trkpt>
      <trkpt lat="46.071560" lon="6.086836">
        <ele>865.769019</ele>
        <time>2017-06-02T07:04:07.000Z</time>
      </trkpt>
      <trkpt lat="46.071460" lon="6.086815">
        <ele>866.614080</ele>
        <time>2017-06-02T07:04:12.000Z</time>
      </trkpt>
      <trkpt lat="46.071358" lon="6.086791">
        <ele>867.478328</ele>
        <time>2017-06-02T07:04:18.000Z</time>
      </trkpt>
      <trkpt lat="46.071250" lon="6.086752">
        <ele>868.409371</ele>
        <time>2017-06-02T07:04:24.000Z</time>
      </trkpt>
      <trkpt lat="46.071163" lon="6.086716">
        <ele>869.166279</ele>
        <time>2017-06-02T07:04:29.000Z</time>
      </trkpt>
      <trkpt lat="46.071075" lon="6.086681">
        <ele>869.929664</ele>
        <time>2017-06-02T07:04:34.000Z</time>
      </trkpt>
      <trkpt lat="46.070990" lon="6.086626">
        <ele>870.708797</ele>
        <time>2017-06-02T07:04:39.000Z</time>
      </trkpt>
      <trkpt lat="46.070920" lon="6.086545">
        <ele>871.459449</ele>
        <time>2017-06-02T07:04:44.000Z</time>
      </trkpt>
      <trkpt lat="46.070843" lon="6.086462">
        <ele>872.263485</ele>
        <time>2017-06-02T07:04:49.000Z</time>
      </trkpt>
      <trkpt lat="46.070793" lon="6.086336">
        <ele>873.105608</ele>
        <time>2017-06-02T07:04:54.000Z</time>
      </trkpt>
      <trkpt lat="46.070744" lon="6.086199">
        <ele>873.999824</ele>
        <time>2017-06-02T07:04:59.000Z</time>
      </trkpt>
      <trkpt lat="46.070694" lon="6.086078">
        <ele>874.829742</ele>
        <time>2017-06-02T07:05:04.000Z</time>
      </trkpt>
      <trkpt lat="46.070650" lon="6.085953">
        <ele>875.664705</ele>
        <time>2017-06-02T07:05:09.000Z</time>
      </trkpt>
      <trkpt lat="46.070595" lon="6.085822">
        <ele>876.576819</ele>
        <time>2017-06-02T07:05:14.000Z</time>
      </trkpt>
      <trkpt lat="46.070550" lon="6.085699">
        <ele>877.405147</ele>
        <time>2017-06-02T07:05:19.000Z</time>
      </trkpt>
      <trkpt lat="46.070496" lon="6.085583">
        <ele>878.237283</ele>
        <time>2017-06-02T07:05:24.000Z</time>
      </trkpt>
      <trkpt lat="46.070435" lon="6.085467">
        <ele>879.104345</ele>
        <time>2017-06-02T07:05:29.000Z</time>
      </trkpt>
      <trkpt lat="46.070385" lon="6.085350">
        <ele>879.922912</ele>
        <time>2017-06-02T07:05:35.000Z</time>
      </trkpt>
      <trkpt lat="46.070310" lon="6.085248">
        <ele>880.808275</ele>
        <time>2017-06-02T07:05:40.000Z</time>
      </trkpt>
      <trkpt lat="46.070232" lon="6.085146">
        <ele>881.712548</ele>
        <time>2017-06-02T07:05:45.000Z</time>
      </trkpt>
      <trkpt lat="46.070152" lon="6.085066">
        <ele>882.548565</ele>
        <time>2017-06-02T07:05:50.000Z</time>
      </trkpt>
      <trkpt lat="46.070090" lon="6.084961">
        <ele>883.369911</ele>
        <time>2017-06-02T07:05:55.000Z</time>
      </trkpt>
      <trkpt lat="46.070015" lon="6.084879">
        <ele>884.178173</ele>
        <time>2017-06-02T07:06:00.000Z</time>
      </trkpt>
      <trkpt lat="46.069930" lon="6.084836">
        <ele>884.951644</ele>
        <time>2017-06-02T07:06:05.000Z</time>
      </trkpt>
      <trkpt lat="46.069847" lon="6.084739">
        <ele>885.869115</ele>
        <time>2017-06-02T07:06:11.000Z</time>
      </trkpt>
      <trkpt lat="46.069750" lon="6.084672">
        <ele>886.792667</ele>
        <time>2017-06-02T07:06:17.000Z</time>
      </trkpt>
      <trkpt lat="46.069687" lon="6.084575">
        <ele>887.584175</ele>
        <time>2017-06-02T07:06:23.000Z</time>
      </trkpt>
      <trkpt lat="46.069595" lon="6.084526">
        <ele>888.426308</ele>
        <time>2017-06-02T07:06:29.000Z</time>
      </trkpt>
      <trkpt lat="46.069510" lon="6.084437">
        <ele>889.328375</ele>
        <time>2017-06-02T07:06:36.000Z</time>
      </trkpt>
      <trkpt lat="46.069424" lon="6.084355">
        <ele>890.253564</ele>
        <time>2017-06-02T07:06:42.000Z</time>
      </trkpt>
      <trkpt lat="46.069340" lon="6.084304">
        <ele>891.108129</ele>
        <time>2017-06-02T07:06:47.000Z</time>
      </trkpt>
      <trkpt lat="46.069260" lon="6.084245">
        <ele>891.950656</ele>
        <time>2017-06-02T07:06:52.000Z</time>
      </trkpt>
      <trkpt lat="46.069157" lon="6.084224">
        <ele>892.925952</ele>
        <time>2017-06-02T07:06:58.000Z</time>
      </trkpt>
      <trkpt lat="46.069060" lon="6.084163">
        <ele>893.918173</ele>
        <time>2017-06-02T07:07:05.000Z</time>
      </trkpt>
      <trkpt lat="46.068977" lon="6.084106">
        <ele>894.780159</ele>
        <time>2017-06-02T07:07:10.000Z</time>
      </trkpt>
      <trkpt lat="46.068880" lon="6.084088">
        <ele>895.697096</ele>
        <time>2017-06-02T07:07:16.000Z</time>
      </trkpt>
      <trkpt lat="46.068800" lon="6.083948">
        <ele>896.876871</ele>
        <time>2017-06-02T07:09:30.000Z</time>
      </trkpt>
      <trkpt lat="46.068710" lon="6.083867">
        <ele>897.871660</ele>
        <time>2017-06-02T07:09:36.000Z</time>
      </trkpt>
      <trkpt lat="46.068638" lon="6.083779">
        <ele>898.756725</ele>
        <time>2017-06-02T07:09:41.000Z</time>
      </trkpt>
      <trkpt lat="46.068560" lon="6.083709">
        <ele>899.618188</ele>
        <time>2017-06-02T07:09:46.000Z</time>
      </trkpt>
      <trkpt lat="46.068460" lon="6.083649">
        <ele>900.633735</ele>
        <time>2017-06-02T07:09:52.000Z</time>
      </trkpt>
      <trkpt lat="46.068398" lon="6.083550">
        <ele>901.501255</ele>
        <time>2017-06-02T07:09:57.000Z</time>
      </trkpt>
      <trkpt lat="46.068306" lon="6.083485">
        <ele>902.461862</ele>
        <time>2017-06-02T07:10:03.000Z</time>
      </trkpt>
      <trkpt lat="46.068210" lon="6.083439">
        <ele>903.410350</ele>
        <time>2017-06-02T07:10:09.000Z</time>
      </trkpt>
      <trkpt lat="46.068110" lon="6.083375">
        <ele>904.436179</ele>
        <time>2017-06-02T07:10:16.000Z</time>
      </trkpt>
      <trkpt lat="46.068030" lon="6.083290">
        <ele>905.367992</ele>
        <time>2017-06-02T07:10:22.000Z</time>
      </trkpt>
      <trkpt lat="46.067944" lon="6.083245">
        <ele>906.225780</ele>
        <time>2017-06-02T07:10:27.000Z</time>
      </trkpt>
      <trkpt lat="46.067840" lon="6.083216">
        <ele>907.097347</ele>
        <time>2017-06-02T07:10:33.000Z</time>
      </trkpt>
      <trkpt lat="46.067740" lon="6.083172">
        <ele>907.870410</ele>
        <time>2017-06-02T07:10:38.000Z</time>
      </trkpt>
      <trkpt lat="46.067665" lon="6.083099">
        <ele>908.539545</ele>
        <time>2017-06-02T07:10:44.000Z</time>
      </trkpt>
      <trkpt lat="46.067570" lon="6.083065">
        <ele>909.263285</ele>
        <time>2017-06-02T07:10:50.000Z</time>
      </trkpt>
      <trkpt lat="46.067480" lon="6.083087">
        <ele>909.938227</ele>
        <time>2017-06-02T07:10:56.000Z</time>
      </trkpt>
      <trkpt lat="46.067375" lon="6.083084">
        <ele>910.714726</ele>
        <time>2017-06-02T07:11:02.000Z</time>
      </trkpt>
      <trkpt lat="46.067287" lon="6.083114">
        <ele>911.383331</ele>
        <time>2017-06-02T07:11:07.000Z</time>
      </trkpt>
      <trkpt lat="46.067207" lon="6.083216">
        <ele>912.173056</ele>
        <time>2017-06-02T07:11:13.000Z</time>
      </trkpt>
      <trkpt lat="46.067127" lon="6.083291">
        <ele>912.878678</ele>
        <time>2017-06-02T07:11:18.000Z</time>
      </trkpt>
      <trkpt lat="46.067070" lon="6.083399">
        <ele>913.574786</ele>
        <time>2017-06-02T07:11:24.000Z</time>
      </trkpt>
      <trkpt lat="46.066998" lon="6.083506">
        <ele>914.339437</ele>
        <time>2017-06-02T07:11:29.000Z</time>
      </trkpt>
      <trkpt lat="46.066940" lon="6.083606">
        <ele>915.008066</ele>
        <time>2017-06-02T07:11:33.000Z</time>
      </trkpt>
      <trkpt lat="46.066887" lon="6.083748">
        <ele>915.835231</ele>
        <time>2017-06-02T07:11:38.000Z</time>
      </trkpt>
      <trkpt lat="46.066807" lon="6.083863">
        <ele>916.670640</ele>
        <time>2017-06-02T07:11:43.000Z</time>
      </trkpt>
      <trkpt lat="46.066757" lon="6.083974">
        <ele>917.349546</ele>
        <time>2017-06-02T07:11:47.000Z</time>
      </trkpt>
      <trkpt lat="46.066723" lon="6.084098">
        <ele>918.033532</ele>
        <time>2017-06-02T07:11:51.000Z</time>
      </trkpt>
      <trkpt lat="46.066673" lon="6.084214">
        <ele>918.734091</ele>
        <time>2017-06-02T07:11:55.000Z</time>
      </trkpt>
      <trkpt lat="46.066650" lon="6.084373">
        <ele>919.567294</ele>
        <time>2017-06-02T07:12:00.000Z</time>
      </trkpt>
      <trkpt lat="46.066616" lon="6.084498">
        <ele>920.043490</ele>
        <time>2017-06-02T07:12:04.000Z</time>
      </trkpt>
      <trkpt lat="46.066600" lon="6.084633">
        <ele>920.269710</ele>
        <time>2017-06-02T07:12:08.000Z</time>
      </trkpt>
      <trkpt lat="46.066610" lon="6.084763">
        <ele>920.485757</ele>
        <time>2017-06-02T07:12:12.000Z</time>
      </trkpt>
      <trkpt lat="46.066590" lon="6.084894">
        <ele>920.707317</ele>
        <time>2017-06-02T07:12:16.000Z</time>
      </trkpt>
      <trkpt lat="46.066593" lon="6.085039">
        <ele>920.946931</ele>
        <time>2017-06-02T07:12:21.000Z</time>
      </trkpt>
      <trkpt lat="46.066600" lon="6.085173">
        <ele>921.168896</ele>
        <time>2017-06-02T07:12:25.000Z</time>
      </trkpt>
      <trkpt lat="46.066610" lon="6.085319">
        <ele>921.411228</ele>
        <time>2017-06-02T07:12:29.000Z</time>
      </trkpt>
      <trkpt lat="46.066612" lon="6.085474">
        <ele>921.667298</ele>
        <time>2017-06-02T07:12:33.000Z</time>
      </trkpt>
      <trkpt lat="46.066635" lon="6.085625">
        <ele>921.922656</ele>
        <time>2017-06-02T07:12:37.000Z</time>
      </trkpt>
      <trkpt lat="46.066650" lon="6.085782">
        <ele>922.184432</ele>
        <time>2017-06-02T07:12:41.000Z</time>
      </trkpt>
      <trkpt lat="46.066685" lon="6.085937">
        <ele>922.453676</ele>
        <time>2017-06-02T07:12:45.000Z</time>
      </trkpt>
      <trkpt lat="46.066708" lon="6.086067">
        <ele>922.675278</ele>
        <time>2017-06-02T07:12:48.000Z</time>
      </trkpt>
      <trkpt lat="46.066740" lon="6.086209">
        <ele>922.921892</ele>
        <time>2017-06-02T07:12:51.000Z</time>
      </trkpt>
      <trkpt lat="46.066790" lon="6.086342">
        <ele>923.171754</ele>
        <time>2017-06-02T07:12:54.000Z</time>
      </trkpt>
      <trkpt lat="46.066845" lon="6.086458">
        <ele>923.403827</ele>
        <time>2017-06-02T07:12:57.000Z</time>
      </trkpt>
      <trkpt lat="46.066895" lon="6.086578">
        <ele>923.635036</ele>
        <time>2017-06-02T07:13:00.000Z</time>
      </trkpt>
      <trkpt lat="46.066944" lon="6.086694">
        <ele>923.859359</ele>
        <time>2017-06-02T07:13:03.000Z</time>
      </trkpt>
      <trkpt lat="46.066998" lon="6.086809">
        <ele>924.088726</ele>
        <time>2017-06-02T07:13:06.000Z</time>
      </trkpt>
      <trkpt lat="46.067040" lon="6.086935">
        <ele>924.029975</ele>
        <time>2017-06-02T07:13:09.000Z</time>
      </trkpt>
      <trkpt lat="46.067055" lon="6.087062">
        <ele>923.594352</ele>
        <time>2017-06-02T07:13:12.000Z</time>
      </trkpt>
      <trkpt lat="46.067050" lon="6.087216">
        <ele>923.073037</ele>
        <time>2017-06-02T07:13:16.000Z</time>
      </trkpt>
      <trkpt lat="46.067062" lon="6.087346">
        <ele>922.629574</ele>
        <time>2017-06-02T07:13:22.000Z</time>
      </trkpt>
      <trkpt lat="46.067005" lon="6.087469">
        <ele>922.129412</ele>
        <time>2017-06-02T07:13:28.000Z</time>
      </trkpt>
      <trkpt lat="46.066944" lon="6.087597">
        <ele>921.604317</ele>
        <time>2017-06-02T07:13:56.000Z</time>
      </trkpt>
      <trkpt lat="46.066890" lon="6.087720">
        <ele>921.112124</ele>
        <time>2017-06-02T07:13:59.000Z</time>
      </trkpt>
      <trkpt lat="46.066810" lon="6.087861">
        <ele>920.496214</ele>
        <time>2017-06-02T07:14:02.000Z</time>
      </trkpt>
      <trkpt lat="46.066750" lon="6.087980">
        <ele>919.998788</ele>
        <time>2017-06-02T07:14:04.000Z</time>
      </trkpt>
      <trkpt lat="46.066696" lon="6.088100">
        <ele>919.515136</ele>
        <time>2017-06-02T07:14:06.000Z</time>
      </trkpt>
      <trkpt lat="46.066620" lon="6.088230">
        <ele>918.940297</ele>
        <time>2017-06-02T07:14:08.000Z</time>
      </trkpt>
      <trkpt lat="46.066536" lon="6.088355">
        <ele>918.351855</ele>
        <time>2017-06-02T07:14:10.000Z</time>
      </trkpt>
      <trkpt lat="46.066420" lon="6.088449">
        <ele>917.703274</ele>
        <time>2017-06-02T07:14:12.000Z</time>
      </trkpt>
      <trkpt lat="46.066288" lon="6.088494">
        <ele>917.042194</ele>
        <time>2017-06-02T07:14:14.000Z</time>
      </trkpt>
      <trkpt lat="46.066162" lon="6.088526">
        <ele>916.418645</ele>
        <time>2017-06-02T07:14:16.000Z</time>
      </trkpt>
      <trkpt lat="46.066032" lon="6.088543">
        <ele>915.782461</ele>
        <time>2017-06-02T07:14:18.000Z</time>
      </trkpt>
      <trkpt lat="46.065900" lon="6.088555">
        <ele>915.287675</ele>
        <time>2017-06-02T07:14:20.000Z</time>
      </trkpt>
      <trkpt lat="46.065777" lon="6.088564">
        <ele>914.967896</ele>
        <time>2017-06-02T07:14:22.000Z</time>
      </trkpt>
      <trkpt lat="46.065660" lon="6.088572">
        <ele>914.663765</ele>
        <time>2017-06-02T07:14:24.000Z</time>
      </trkpt>
      <trkpt lat="46.065536" lon="6.088573">
        <ele>914.341796</ele>
        <time>2017-06-02T07:14:26.000Z</time>
      </trkpt>
      <trkpt lat="46.065426" lon="6.088582">
        <ele>914.055722</ele>
        <time>2017-06-02T07:14:28.000Z</time>
      </trkpt>
      <trkpt lat="46.065327" lon="6.088600">
        <ele>913.796632</ele>
        <time>2017-06-02T07:14:30.000Z</time>
      </trkpt>
      <trkpt lat="46.065200" lon="6.088617">
        <ele>913.465459</ele>
        <time>2017-06-02T07:14:33.000Z</time>
      </trkpt>
      <trkpt lat="46.065094" lon="6.088637">
        <ele>913.187883</ele>
        <time>2017-06-02T07:14:36.000Z</time>
      </trkpt>
      <trkpt lat="46.064987" lon="6.088645">
        <ele>912.909685</ele>
        <time>2017-06-02T07:14:39.000Z</time>
      </trkpt>
      <trkpt lat="46.064890" lon="6.088646">
        <ele>912.657820</ele>
        <time>2017-06-02T07:14:41.000Z</time>
      </trkpt>
      <trkpt lat="46.064790" lon="6.088667">
        <ele>912.395429</ele>
        <time>2017-06-02T07:14:43.000Z</time>
      </trkpt>
      <trkpt lat="46.064690" lon="6.088693">
        <ele>912.131589</ele>
        <time>2017-06-02T07:14:45.000Z</time>
      </trkpt>
      <trkpt lat="46.064587" lon="6.088704">
        <ele>911.863417</ele>
        <time>2017-06-02T07:14:47.000Z</time>
      </trkpt>
      <trkpt lat="46.064487" lon="6.088716">
        <ele>911.602870</ele>
        <time>2017-06-02T07:14:49.000Z</time>
      </trkpt>
      <trkpt lat="46.064380" lon="6.088693">
        <ele>911.321973</ele>
        <time>2017-06-02T07:14:51.000Z</time>
      </trkpt>
      <trkpt lat="46.064274" lon="6.088675">
        <ele>911.044841</ele>
        <time>2017-06-02T07:14:53.000Z</time>
      </trkpt>
      <trkpt lat="46.064175" lon="6.088666">
        <ele>910.787786</ele>
        <time>2017-06-02T07:14:55.000Z</time>
      </trkpt>
      <trkpt lat="46.064060" lon="6.088658">
        <ele>910.630816</ele>
        <time>2017-06-02T07:14:57.000Z</time>
      </trkpt>
      <trkpt lat="46.063940" lon="6.088629">
        <ele>910.464927</ele>
        <time>2017-06-02T07:14:59.000Z</time>
      </trkpt>
      <trkpt lat="46.063805" lon="6.088608">
        <ele>910.279803</ele>
        <time>2017-06-02T07:15:01.000Z</time>
      </trkpt>
      <trkpt lat="46.063680" lon="6.088586">
        <ele>910.108116</ele>
        <time>2017-06-02T07:15:04.000Z</time>
      </trkpt>
      <trkpt lat="46.063570" lon="6.088568">
        <ele>909.957182</ele>
        <time>2017-06-02T07:15:07.000Z</time>
      </trkpt>
      <trkpt lat="46.063473" lon="6.088553">
        <ele>909.824176</ele>
        <time>2017-06-02T07:15:10.000Z</time>
      </trkpt>
      <trkpt lat="46.063380" lon="6.088536">
        <ele>909.696367</ele>
        <time>2017-06-02T07:15:14.000Z</time>
      </trkpt>
      <trkpt lat="46.063293" lon="6.088497">
        <ele>909.572148</ele>
        <time>2017-06-02T07:15:19.000Z</time>
      </trkpt>
      <trkpt lat="46.063168" lon="6.088437">
        <ele>909.392523</ele>
        <time>2017-06-02T07:17:57.000Z</time>
      </trkpt>
      <trkpt lat="46.063076" lon="6.088429">
        <ele>909.266865</ele>
        <time>2017-06-02T07:18:01.000Z</time>
      </trkpt>
      <trkpt lat="46.062943" lon="6.088413">
        <ele>909.084906</ele>
        <time>2017-06-02T07:19:34.000Z</time>
      </trkpt>
      <trkpt lat="46.063040" lon="6.088426">
        <ele>908.952089</ele>
        <time>2017-06-02T07:20:09.000Z</time>
      </trkpt>
      <trkpt lat="46.063133" lon="6.088454">
        <ele>908.822558</ele>
        <time>2017-06-02T07:20:15.000Z</time>
      </trkpt>
      <trkpt lat="46.063232" lon="6.088471">
        <ele>908.686630</ele>
        <time>2017-06-02T07:20:21.000Z</time>
      </trkpt>
      <trkpt lat="46.063324" lon="6.088490">
        <ele>908.559918</ele>
        <time>2017-06-02T07:20:26.000Z</time>
      </trkpt>
      <trkpt lat="46.063420" lon="6.088504">
        <ele>908.428366</ele>
        <time>2017-06-02T07:20:31.000Z</time>
      </trkpt>
      <trkpt lat="46.063507" lon="6.088536">
        <ele>908.296507</ele>
        <time>2017-06-02T07:20:36.000Z</time>
      </trkpt>
      <trkpt lat="46.063614" lon="6.088557">
        <ele>908.103210</ele>
        <time>2017-06-02T07:20:43.000Z</time>
      </trkpt>
      <trkpt lat="46.063713" lon="6.088576">
        <ele>907.924436</ele>
        <time>2017-06-02T07:20:49.000Z</time>
      </trkpt>
      <trkpt lat="46.063812" lon="6.088588">
        <ele>907.746600</ele>
        <time>2017-06-02T07:20:55.000Z</time>
      </trkpt>
      <trkpt lat="46.063908" lon="6.088605">
        <ele>907.573468</ele>
        <time>2017-06-02T07:21:01.000Z</time>
      </trkpt>
      <trkpt lat="46.063990" lon="6.088659">
        <ele>907.412092</ele>
        <time>2017-06-02T07:21:10.000Z</time>
      </trkpt>
      <trkpt lat="46.063896" lon="6.088620">
        <ele>907.236999</ele>
        <time>2017-06-02T07:21:42.000Z</time>
      </trkpt>
      <trkpt lat="46.063800" lon="6.088594">
        <ele>907.062151</ele>
        <time>2017-06-02T07:21:47.000Z</time>
      </trkpt>
      <trkpt lat="46.063690" lon="6.088575">
        <ele>906.863842</ele>
        <time>2017-06-02T07:21:53.000Z</time>
      </trkpt>
      <trkpt lat="46.063583" lon="6.088547">
        <ele>906.669181</ele>
        <time>2017-06-02T07:21:59.000Z</time>
      </trkpt>
      <trkpt lat="46.063480" lon="6.088515">
        <ele>906.480576</ele>
        <time>2017-06-02T07:22:04.000Z</time>
      </trkpt>
      <trkpt lat="46.063374" lon="6.088491">
        <ele>906.288509</ele>
        <time>2017-06-02T07:22:09.000Z</time>
      </trkpt>
      <trkpt lat="46.063280" lon="6.088485">
        <ele>906.120084</ele>
        <time>2017-06-02T07:22:15.000Z</time>
      </trkpt>
      <trkpt lat="46.063183" lon="6.088482">
        <ele>905.946415</ele>
        <time>2017-06-02T07:22:22.000Z</time>
      </trkpt>
      <trkpt lat="46.063087" lon="6.088429">
        <ele>905.762398</ele>
        <time>2017-06-02T07:22:27.000Z</time>
      </trkpt>
      <trkpt lat="46.062996" lon="6.088401">
        <ele>905.595837</ele>
        <time>2017-06-02T07:22:30.000Z</time>
      </trkpt>
      <trkpt lat="46.062860" lon="6.088373">
        <ele>905.349926</ele>
        <time>2017-06-02T07:22:33.000Z</time>
      </trkpt>
      <trkpt lat="46.062767" lon="6.088367">
        <ele>905.183290</ele>
        <time>2017-06-02T07:22:35.000Z</time>
      </trkpt>
      <trkpt lat="46.062675" lon="6.088398">
        <ele>904.853011</ele>
        <time>2017-06-02T07:22:37.000Z</time>
      </trkpt>
      <trkpt lat="46.062595" lon="6.088471">
        <ele>904.416765</ele>
        <time>2017-06-02T07:22:39.000Z</time>
      </trkpt>
      <trkpt lat="46.062510" lon="6.088571">
        <ele>903.911235</ele>
        <time>2017-06-02T07:22:42.000Z</time>
      </trkpt>
      <trkpt lat="46.062454" lon="6.088676">
        <ele>903.487868</ele>
        <time>2017-06-02T07:22:45.000Z</time>
      </trkpt>
      <trkpt lat="46.062393" lon="6.088799">
        <ele>903.004547</ele>
        <time>2017-06-02T07:22:48.000Z</time>
      </trkpt>
      <trkpt lat="46.062313" lon="6.088924">
        <ele>902.460915</ele>
        <time>2017-06-02T07:22:51.000Z</time>
      </trkpt>
      <trkpt lat="46.062240" lon="6.089003">
        <ele>902.040322</ele>
        <time>2017-06-02T07:22:53.000Z</time>
      </trkpt>
      <trkpt lat="46.062164" lon="6.089075">
        <ele>901.621294</ele>
        <time>2017-06-02T07:22:55.000Z</time>
      </trkpt>
      <trkpt lat="46.062070" lon="6.089115">
        <ele>901.169729</ele>
        <time>2017-06-02T07:22:57.000Z</time>
      </trkpt>
      <trkpt lat="46.061970" lon="6.089119">
        <ele>900.708828</ele>
        <time>2017-06-02T07:22:59.000Z</time>
      </trkpt>
      <trkpt lat="46.061867" lon="6.089100">
        <ele>900.230411</ele>
        <time>2017-06-02T07:23:01.000Z</time>
      </trkpt>
      <trkpt lat="46.061756" lon="6.089059">
        <ele>899.702479</ele>
        <time>2017-06-02T07:23:03.000Z</time>
      </trkpt>
      <trkpt lat="46.061660" lon="6.088960">
        <ele>899.158612</ele>
        <time>2017-06-02T07:23:05.000Z</time>
      </trkpt>
      <trkpt lat="46.061592" lon="6.088825">
        <ele>898.625308</ele>
        <time>2017-06-02T07:23:07.000Z</time>
      </trkpt>
      <trkpt lat="46.061535" lon="6.088679">
        <ele>898.089754</ele>
        <time>2017-06-02T07:23:09.000Z</time>
      </trkpt>
      <trkpt lat="46.061490" lon="6.088520">
        <ele>897.540792</ele>
        <time>2017-06-02T07:23:11.000Z</time>
      </trkpt>
      <trkpt lat="46.061447" lon="6.088360">
        <ele>896.992263</ele>
        <time>2017-06-02T07:23:13.000Z</time>
      </trkpt>
      <trkpt lat="46.061398" lon="6.088206">
        <ele>896.506534</ele>
        <time>2017-06-02T07:23:15.000Z</time>
      </trkpt>
      <trkpt lat="46.061310" lon="6.088070">
        <ele>895.999677</ele>
        <time>2017-06-02T07:23:17.000Z</time>
      </trkpt>
      <trkpt lat="46.061184" lon="6.087980">
        <ele>895.447275</ele>
        <time>2017-06-02T07:23:19.000Z</time>
      </trkpt>
      <trkpt lat="46.061030" lon="6.087958">
        <ele>894.839378</ele>
        <time>2017-06-02T07:23:21.000Z</time>
      </trkpt>
      <trkpt lat="46.060886" lon="6.088019">
        <ele>894.249797</ele>
        <time>2017-06-02T07:23:23.000Z</time>
      </trkpt>
      <trkpt lat="46.060753" lon="6.088069">
        <ele>893.709873</ele>
        <time>2017-06-02T07:23:25.000Z</time>
      </trkpt>
      <trkpt lat="46.060635" lon="6.088119">
        <ele>893.226733</ele>
        <time>2017-06-02T07:23:27.000Z</time>
      </trkpt>
      <trkpt lat="46.060516" lon="6.088157">
        <ele>892.747948</ele>
        <time>2017-06-02T07:23:29.000Z</time>
      </trkpt>
      <trkpt lat="46.060402" lon="6.088176">
        <ele>892.297156</ele>
        <time>2017-06-02T07:23:31.000Z</time>
      </trkpt>
      <trkpt lat="46.060290" lon="6.088188">
        <ele>891.855992</ele>
        <time>2017-06-02T07:23:33.000Z</time>
      </trkpt>
      <trkpt lat="46.060184" lon="6.088190">
        <ele>891.439574</ele>
        <time>2017-06-02T07:23:35.000Z</time>
      </trkpt>
      <trkpt lat="46.060080" lon="6.088192">
        <ele>891.031013</ele>
        <time>2017-06-02T07:23:37.000Z</time>
      </trkpt>
      <trkpt lat="46.059982" lon="6.088198">
        <ele>890.645709</ele>
        <time>2017-06-02T07:23:39.000Z</time>
      </trkpt>
      <trkpt lat="46.059890" lon="6.088201">
        <ele>890.284228</ele>
        <time>2017-06-02T07:23:41.000Z</time>
      </trkpt>
      <trkpt lat="46.059795" lon="6.088217">
        <ele>889.908516</ele>
        <time>2017-06-02T07:23:44.000Z</time>
      </trkpt>
      <trkpt lat="46.059692" lon="6.088222">
        <ele>889.377374</ele>
        <time>2017-06-02T07:23:48.000Z</time>
      </trkpt>
      <trkpt lat="46.059593" lon="6.088237">
        <ele>888.796955</ele>
        <time>2017-06-02T07:23:51.000Z</time>
      </trkpt>
      <trkpt lat="46.059480" lon="6.088257">
        <ele>888.133137</ele>
        <time>2017-06-02T07:23:54.000Z</time>
      </trkpt>
      <trkpt lat="46.059360" lon="6.088292">
        <ele>887.419268</ele>
        <time>2017-06-02T07:23:57.000Z</time>
      </trkpt>
      <trkpt lat="46.059270" lon="6.088330">
        <ele>886.872447</ele>
        <time>2017-06-02T07:23:59.000Z</time>
      </trkpt>
      <trkpt lat="46.059166" lon="6.088375">
        <ele>886.239313</ele>
        <time>2017-06-02T07:24:01.000Z</time>
      </trkpt>
      <trkpt lat="46.059060" lon="6.088414">
        <ele>885.601435</ele>
        <time>2017-06-02T07:24:03.000Z</time>
      </trkpt>
      <trkpt lat="46.058952" lon="6.088452">
        <ele>884.953223</ele>
        <time>2017-06-02T07:24:05.000Z</time>
      </trkpt>
      <trkpt lat="46.058853" lon="6.088494">
        <ele>884.351492</ele>
        <time>2017-06-02T07:24:07.000Z</time>
      </trkpt>
      <trkpt lat="46.058760" lon="6.088532">
        <ele>883.787863</ele>
        <time>2017-06-02T07:24:09.000Z</time>
      </trkpt>
      <trkpt lat="46.058662" lon="6.088568">
        <ele>883.198183</ele>
        <time>2017-06-02T07:24:11.000Z</time>
      </trkpt>
      <trkpt lat="46.058560" lon="6.088605">
        <ele>882.584901</ele>
        <time>2017-06-02T07:24:13.000Z</time>
      </trkpt>
      <trkpt lat="46.058456" lon="6.088636">
        <ele>881.965674</ele>
        <time>2017-06-02T07:24:15.000Z</time>
      </trkpt>
      <trkpt lat="46.058350" lon="6.088696">
        <ele>881.301654</ele>
        <time>2017-06-02T07:24:17.000Z</time>
      </trkpt>
      <trkpt lat="46.058258" lon="6.088783">
        <ele>880.660047</ele>
        <time>2017-06-02T07:24:19.000Z</time>
      </trkpt>
      <trkpt lat="46.058174" lon="6.088884">
        <ele>880.022176</ele>
        <time>2017-06-02T07:24:21.000Z</time>
      </trkpt>
      <trkpt lat="46.058110" lon="6.089001">
        <ele>879.419391</ele>
        <time>2017-06-02T07:24:23.000Z</time>
      </trkpt>
      <trkpt lat="46.058050" lon="6.089106">
        <ele>878.835604</ele>
        <time>2017-06-02T07:24:25.000Z</time>
      </trkpt>
      <trkpt lat="46.057972" lon="6.089215">
        <ele>878.150176</ele>
        <time>2017-06-02T07:24:28.000Z</time>
      </trkpt>
      <trkpt lat="46.057785" lon="6.089247">
        <ele>876.962198</ele>
        <time>2017-06-02T07:24:51.000Z</time>
      </trkpt>
      <trkpt lat="46.057686" lon="6.089210">
        <ele>876.316995</ele>
        <time>2017-06-02T07:24:53.000Z</time>
      </trkpt>
      <trkpt lat="46.057570" lon="6.089142">
        <ele>875.526979</ele>
        <time>2017-06-02T07:24:55.000Z</time>
      </trkpt>
      <trkpt lat="46.057450" lon="6.089051">
        <ele>874.671538</ele>
        <time>2017-06-02T07:24:57.000Z</time>
      </trkpt>
      <trkpt lat="46.057323" lon="6.088950">
        <ele>873.756452</ele>
        <time>2017-06-02T07:24:59.000Z</time>
      </trkpt>
      <trkpt lat="46.057205" lon="6.088853">
        <ele>872.899449</ele>
        <time>2017-06-02T07:25:01.000Z</time>
      </trkpt>
      <trkpt lat="46.057083" lon="6.088772">
        <ele>872.052053</ele>
        <time>2017-06-02T07:25:03.000Z</time>
      </trkpt>
      <trkpt lat="46.056960" lon="6.088764">
        <ele>871.275318</ele>
        <time>2017-06-02T07:25:05.000Z</time>
      </trkpt>
      <trkpt lat="46.056824" lon="6.088843">
        <ele>870.350280</ele>
        <time>2017-06-02T07:25:07.000Z</time>
      </trkpt>
      <trkpt lat="46.056694" lon="6.088962">
        <ele>869.378702</ele>
        <time>2017-06-02T07:25:09.000Z</time>
      </trkpt>
      <trkpt lat="46.056572" lon="6.089087">
        <ele>868.434355</ele>
        <time>2017-06-02T07:25:11.000Z</time>
      </trkpt>
      <trkpt lat="46.056430" lon="6.089229">
        <ele>867.223563</ele>
        <time>2017-06-02T07:25:13.000Z</time>
      </trkpt>
      <trkpt lat="46.056305" lon="6.089366">
        <ele>866.029400</ele>
        <time>2017-06-02T07:25:15.000Z</time>
      </trkpt>
      <trkpt lat="46.056183" lon="6.089494">
        <ele>864.881893</ele>
        <time>2017-06-02T07:25:17.000Z</time>
      </trkpt>
      <trkpt lat="46.056030" lon="6.089572">
        <ele>863.647838</ele>
        <time>2017-06-02T07:25:19.000Z</time>
      </trkpt>
      <trkpt lat="46.055866" lon="6.089569">
        <ele>862.400700</ele>
        <time>2017-06-02T07:25:21.000Z</time>
      </trkpt>
      <trkpt lat="46.055702" lon="6.089508">
        <ele>861.112791</ele>
        <time>2017-06-02T07:25:23.000Z</time>
      </trkpt>
      <trkpt lat="46.055570" lon="6.089446">
        <ele>860.057104</ele>
        <time>2017-06-02T07:25:25.000Z</time>
      </trkpt>
      <trkpt lat="46.055454" lon="6.089400">
        <ele>859.142264</ele>
        <time>2017-06-02T07:25:27.000Z</time>
      </trkpt>
      <trkpt lat="46.055355" lon="6.089357">
        <ele>858.356026</ele>
        <time>2017-06-02T07:25:29.000Z</time>
      </trkpt>
      <trkpt lat="46.055260" lon="6.089322">
        <ele>857.610421</ele>
        <time>2017-06-02T07:25:31.000Z</time>
      </trkpt>
      <trkpt lat="46.055157" lon="6.089318">
        <ele>856.826936</ele>
        <time>2017-06-02T07:25:34.000Z</time>
      </trkpt>
      <trkpt lat="46.055042" lon="6.089337">
        <ele>855.946760</ele>
        <time>2017-06-02T07:25:37.000Z</time>
      </trkpt>
      <trkpt lat="46.054943" lon="6.089366">
        <ele>855.178579</ele>
        <time>2017-06-02T07:25:39.000Z</time>
      </trkpt>
      <trkpt lat="46.054840" lon="6.089412">
        <ele>854.358625</ele>
        <time>2017-06-02T07:25:41.000Z</time>
      </trkpt>
      <trkpt lat="46.054740" lon="6.089456">
        <ele>853.513391</ele>
        <time>2017-06-02T07:25:43.000Z</time>
      </trkpt>
      <trkpt lat="46.054640" lon="6.089532">
        <ele>852.591210</ele>
        <time>2017-06-02T07:25:45.000Z</time>
      </trkpt>
      <trkpt lat="46.054550" lon="6.089602">
        <ele>851.756984</ele>
        <time>2017-06-02T07:25:47.000Z</time>
      </trkpt>
      <trkpt lat="46.054450" lon="6.089685">
        <ele>850.815666</ele>
        <time>2017-06-02T07:25:50.000Z</time>
      </trkpt>
      <trkpt lat="46.054348" lon="6.089763">
        <ele>849.873770</ele>
        <time>2017-06-02T07:25:53.000Z</time>
      </trkpt>
      <trkpt lat="46.054253" lon="6.089820">
        <ele>849.034380</ele>
        <time>2017-06-02T07:25:55.000Z</time>
      </trkpt>
      <trkpt lat="46.054146" lon="6.089871">
        <ele>848.115092</ele>
        <time>2017-06-02T07:25:57.000Z</time>
      </trkpt>
      <trkpt lat="46.054012" lon="6.089866">
        <ele>847.021711</ele>
        <time>2017-06-02T07:25:59.000Z</time>
      </trkpt>
      <trkpt lat="46.053867" lon="6.089796">
        <ele>845.774359</ele>
        <time>2017-06-02T07:26:01.000Z</time>
      </trkpt>
      <trkpt lat="46.053720" lon="6.089706">
        <ele>844.471561</ele>
        <time>2017-06-02T07:26:03.000Z</time>
      </trkpt>
      <trkpt lat="46.053560" lon="6.089620">
        <ele>843.078628</ele>
        <time>2017-06-02T07:26:05.000Z</time>
      </trkpt>
      <trkpt lat="46.053402" lon="6.089562">
        <ele>841.748685</ele>
        <time>2017-06-02T07:26:07.000Z</time>
      </trkpt>
      <trkpt lat="46.053240" lon="6.089537">
        <ele>840.419722</ele>
        <time>2017-06-02T07:26:09.000Z</time>
      </trkpt>
      <trkpt lat="46.053093" lon="6.089514">
        <ele>839.132760</ele>
        <time>2017-06-02T07:26:11.000Z</time>
      </trkpt>
      <trkpt lat="46.052914" lon="6.089483">
        <ele>837.339837</ele>
        <time>2017-06-02T07:26:13.000Z</time>
      </trkpt>
      <trkpt lat="46.052757" lon="6.089453">
        <ele>835.764841</ele>
        <time>2017-06-02T07:26:15.000Z</time>
      </trkpt>
      <trkpt lat="46.052612" lon="6.089426">
        <ele>834.310861</ele>
        <time>2017-06-02T07:26:17.000Z</time>
      </trkpt>
      <trkpt lat="46.052456" lon="6.089374">
        <ele>832.718508</ele>
        <time>2017-06-02T07:26:19.000Z</time>
      </trkpt>
      <trkpt lat="46.052296" lon="6.089329">
        <ele>831.097320</ele>
        <time>2017-06-02T07:26:21.000Z</time>
      </trkpt>
      <trkpt lat="46.052128" lon="6.089262">
        <ele>829.363789</ele>
        <time>2017-06-02T07:26:23.000Z</time>
      </trkpt>
      <trkpt lat="46.051956" lon="6.089240">
        <ele>827.646565</ele>
        <time>2017-06-02T07:26:25.000Z</time>
      </trkpt>
      <trkpt lat="46.051777" lon="6.089226">
        <ele>825.863833</ele>
        <time>2017-06-02T07:26:27.000Z</time>
      </trkpt>
      <trkpt lat="46.051680" lon="6.089227">
        <ele>824.899167</ele>
        <time>2017-06-02T07:26:28.000Z</time>
      </trkpt>
      <trkpt lat="46.051502" lon="6.089234">
        <ele>823.128341</ele>
        <time>2017-06-02T07:26:30.000Z</time>
      </trkpt>
      <trkpt lat="46.051327" lon="6.089230">
        <ele>821.452272</ele>
        <time>2017-06-02T07:26:32.000Z</time>
      </trkpt>
      <trkpt lat="46.051150" lon="6.089215">
        <ele>820.058575</ele>
        <time>2017-06-02T07:26:34.000Z</time>
      </trkpt>
      <trkpt lat="46.050995" lon="6.089199">
        <ele>818.837089</ele>
        <time>2017-06-02T07:26:36.000Z</time>
      </trkpt>
      <trkpt lat="46.050865" lon="6.089157">
        <ele>817.789864</ele>
        <time>2017-06-02T07:26:38.000Z</time>
      </trkpt>
      <trkpt lat="46.050760" lon="6.089088">
        <ele>816.882738</ele>
        <time>2017-06-02T07:26:40.000Z</time>
      </trkpt>
      <trkpt lat="46.050667" lon="6.088998">
        <ele>816.002144</ele>
        <time>2017-06-02T07:26:43.000Z</time>
      </trkpt>
      <trkpt lat="46.050570" lon="6.089074">
        <ele>815.134250</ele>
        <time>2017-06-02T07:26:48.000Z</time>
      </trkpt>
      <trkpt lat="46.050490" lon="6.089159">
        <ele>814.352937</ele>
        <time>2017-06-02T07:26:51.000Z</time>
      </trkpt>
      <trkpt lat="46.050404" lon="6.089184">
        <ele>813.663322</ele>
        <time>2017-06-02T07:26:53.000Z</time>
      </trkpt>
      <trkpt lat="46.050304" lon="6.089198">
        <ele>812.873579</ele>
        <time>2017-06-02T07:26:55.000Z</time>
      </trkpt>
      <trkpt lat="46.050213" lon="6.089218">
        <ele>812.150008</ele>
        <time>2017-06-02T07:26:57.000Z</time>
      </trkpt>
      <trkpt lat="46.050100" lon="6.089250">
        <ele>811.244790</ele>
        <time>2017-06-02T07:27:00.000Z</time>
      </trkpt>
      <trkpt lat="46.050000" lon="6.089263">
        <ele>810.455556</ele>
        <time>2017-06-02T07:27:04.000Z</time>
      </trkpt>
      <trkpt lat="46.049904" lon="6.089263">
        <ele>809.700957</ele>
        <time>2017-06-02T07:27:08.000Z</time>
      </trkpt>
      <trkpt lat="46.049810" lon="6.089267">
        <ele>808.961756</ele>
        <time>2017-06-02T07:27:12.000Z</time>
      </trkpt>
      <trkpt lat="46.049680" lon="6.089230">
        <ele>807.920158</ele>
        <time>2017-06-02T07:27:15.000Z</time>
      </trkpt>
      <trkpt lat="46.049572" lon="6.089203">
        <ele>807.068782</ele>
        <time>2017-06-02T07:27:17.000Z</time>
      </trkpt>
      <trkpt lat="46.049477" lon="6.089178">
        <ele>806.325260</ele>
        <time>2017-06-02T07:27:19.000Z</time>
      </trkpt>
      <trkpt lat="46.049385" lon="6.089155">
        <ele>805.606353</ele>
        <time>2017-06-02T07:27:21.000Z</time>
      </trkpt>
      <trkpt lat="46.049286" lon="6.089142">
        <ele>804.840975</ele>
        <time>2017-06-02T07:27:23.000Z</time>
      </trkpt>
      <trkpt lat="46.049183" lon="6.089131">
        <ele>804.045785</ele>
        <time>2017-06-02T07:27:25.000Z</time>
      </trkpt>
      <trkpt lat="46.049076" lon="6.089122">
        <ele>803.220570</ele>
        <time>2017-06-02T07:27:27.000Z</time>
      </trkpt>
      <trkpt lat="46.048965" lon="6.089133">
        <ele>802.363942</ele>
        <time>2017-06-02T07:27:29.000Z</time>
      </trkpt>
      <trkpt lat="46.048862" lon="6.089147">
        <ele>801.567406</ele>
        <time>2017-06-02T07:27:31.000Z</time>
      </trkpt>
      <trkpt lat="46.048756" lon="6.089171">
        <ele>800.741278</ele>
        <time>2017-06-02T07:27:33.000Z</time>
      </trkpt>
      <trkpt lat="46.048650" lon="6.089193">
        <ele>799.916741</ele>
        <time>2017-06-02T07:27:35.000Z</time>
      </trkpt>
      <trkpt lat="46.048534" lon="6.089219">
        <ele>799.012895</ele>
        <time>2017-06-02T07:27:37.000Z</time>
      </trkpt>
      <trkpt lat="46.048428" lon="6.089253">
        <ele>798.176803</ele>
        <time>2017-06-02T07:27:39.000Z</time>
      </trkpt>
      <trkpt lat="46.048317" lon="6.089293">
        <ele>797.295870</ele>
        <time>2017-06-02T07:27:41.000Z</time>
      </trkpt>
      <trkpt lat="46.048206" lon="6.089345">
        <ele>796.397223</ele>
        <time>2017-06-02T07:27:43.000Z</time>
      </trkpt>
      <trkpt lat="46.048103" lon="6.089424">
        <ele>795.498845</ele>
        <time>2017-06-02T07:27:45.000Z</time>
      </trkpt>
      <trkpt lat="46.048004" lon="6.089544">
        <ele>794.502771</ele>
        <time>2017-06-02T07:27:47.000Z</time>
      </trkpt>
      <trkpt lat="46.047920" lon="6.089705">
        <ele>793.608552</ele>
        <time>2017-06-02T07:27:49.000Z</time>
      </trkpt>
      <trkpt lat="46.047867" lon="6.089893">
        <ele>793.222303</ele>
        <time>2017-06-02T07:27:51.000Z</time>
      </trkpt>
      <trkpt lat="46.047817" lon="6.090087">
        <ele>792.828389</ele>
        <time>2017-06-02T07:27:53.000Z</time>
      </trkpt>
      <trkpt lat="46.047768" lon="6.090262">
        <ele>792.469193</ele>
        <time>2017-06-02T07:27:55.000Z</time>
      </trkpt>
      <trkpt lat="46.047707" lon="6.090385">
        <ele>792.181436</ele>
        <time>2017-06-02T07:27:57.000Z</time>
      </trkpt>
      <trkpt lat="46.047623" lon="6.090431">
        <ele>791.934983</ele>
        <time>2017-06-02T07:28:00.000Z</time>
      </trkpt>
      <trkpt lat="46.047527" lon="6.090364">
        <ele>791.642436</ele>
        <time>2017-06-02T07:28:03.000Z</time>
      </trkpt>
      <trkpt lat="46.047478" lon="6.090235">
        <ele>791.362517</ele>
        <time>2017-06-02T07:28:06.000Z</time>
      </trkpt>
      <trkpt lat="46.047405" lon="6.090094">
        <ele>791.027678</ele>
        <time>2017-06-02T07:28:09.000Z</time>
      </trkpt>
      <trkpt lat="46.047287" lon="6.090036">
        <ele>790.685743</ele>
        <time>2017-06-02T07:28:12.000Z</time>
      </trkpt>
      <trkpt lat="46.047188" lon="6.090037">
        <ele>790.414224</ele>
        <time>2017-06-02T07:28:15.000Z</time>
      </trkpt>
      <trkpt lat="46.047110" lon="6.090198">
        <ele>790.040484</ele>
        <time>2017-06-02T07:28:48.000Z</time>
      </trkpt>
      <trkpt lat="46.047104" lon="6.090342">
        <ele>789.765885</ele>
        <time>2017-06-02T07:28:54.000Z</time>
      </trkpt>
      <trkpt lat="46.047120" lon="6.090529">
        <ele>789.407234</ele>
        <time>2017-06-02T07:29:15.000Z</time>
      </trkpt>
      <trkpt lat="46.047030" lon="6.090660">
        <ele>789.056371</ele>
        <time>2017-06-02T07:29:18.000Z</time>
      </trkpt>
      <trkpt lat="46.046974" lon="6.090767">
        <ele>788.801279</ele>
        <time>2017-06-02T07:29:20.000Z</time>
      </trkpt>
      <trkpt lat="46.046913" lon="6.090883">
        <ele>788.743782</ele>
        <time>2017-06-02T07:29:22.000Z</time>
      </trkpt>
      <trkpt lat="46.046844" lon="6.090992">
        <ele>788.707420</ele>
        <time>2017-06-02T07:29:24.000Z</time>
      </trkpt>
      <trkpt lat="46.046776" lon="6.091107">
        <ele>788.670182</ele>
        <time>2017-06-02T07:29:26.000Z</time>
      </trkpt>
      <trkpt lat="46.046720" lon="6.091222">
        <ele>788.635556</ele>
        <time>2017-06-02T07:29:28.000Z</time>
      </trkpt>
      <trkpt lat="46.046650" lon="6.091332">
        <ele>788.598771</ele>
        <time>2017-06-02T07:29:30.000Z</time>
      </trkpt>
      <trkpt lat="46.046585" lon="6.091436">
        <ele>788.564276</ele>
        <time>2017-06-02T07:29:32.000Z</time>
      </trkpt>
      <trkpt lat="46.046520" lon="6.091538">
        <ele>788.530145</ele>
        <time>2017-06-02T07:29:34.000Z</time>
      </trkpt>
      <trkpt lat="46.046450" lon="6.091648">
        <ele>788.493360</ele>
        <time>2017-06-02T07:29:36.000Z</time>
      </trkpt>
      <trkpt lat="46.046383" lon="6.091770">
        <ele>788.455014</ele>
        <time>2017-06-02T07:29:38.000Z</time>
      </trkpt>
      <trkpt lat="46.046307" lon="6.091898">
        <ele>788.413495</ele>
        <time>2017-06-02T07:29:40.000Z</time>
      </trkpt>
      <trkpt lat="46.046230" lon="6.092032">
        <ele>788.370615</ele>
        <time>2017-06-02T07:29:42.000Z</time>
      </trkpt>
      <trkpt lat="46.046158" lon="6.092168">
        <ele>788.328455</ele>
        <time>2017-06-02T07:29:44.000Z</time>
      </trkpt>
      <trkpt lat="46.046080" lon="6.092291">
        <ele>788.287388</ele>
        <time>2017-06-02T07:29:46.000Z</time>
      </trkpt>
      <trkpt lat="46.045998" lon="6.092419">
        <ele>788.244453</ele>
        <time>2017-06-02T07:29:48.000Z</time>
      </trkpt>
      <trkpt lat="46.045910" lon="6.092531">
        <ele>788.202754</ele>
        <time>2017-06-02T07:29:50.000Z</time>
      </trkpt>
      <trkpt lat="46.045834" lon="6.092650">
        <ele>788.162894</ele>
        <time>2017-06-02T07:29:52.000Z</time>
      </trkpt>
      <trkpt lat="46.045757" lon="6.092763">
        <ele>788.272236</ele>
        <time>2017-06-02T07:29:54.000Z</time>
      </trkpt>
      <trkpt lat="46.045680" lon="6.092880">
        <ele>788.658940</ele>
        <time>2017-06-02T07:29:56.000Z</time>
      </trkpt>
      <trkpt lat="46.045610" lon="6.093002">
        <ele>789.038580</ele>
        <time>2017-06-02T07:29:58.000Z</time>
      </trkpt>
      <trkpt lat="46.045536" lon="6.093116">
        <ele>789.412939</ele>
        <time>2017-06-02T07:30:00.000Z</time>
      </trkpt>
      <trkpt lat="46.045464" lon="6.093225">
        <ele>789.773832</ele>
        <time>2017-06-02T07:30:02.000Z</time>
      </trkpt>
      <trkpt lat="46.045390" lon="6.093339">
        <ele>790.148191</ele>
        <time>2017-06-02T07:30:04.000Z</time>
      </trkpt>
      <trkpt lat="46.045320" lon="6.093451">
        <ele>790.509670</ele>
        <time>2017-06-02T07:30:06.000Z</time>
      </trkpt>
      <trkpt lat="46.045250" lon="6.093565">
        <ele>790.874728</ele>
        <time>2017-06-02T07:30:08.000Z</time>
      </trkpt>
      <trkpt lat="46.045180" lon="6.093681">
        <ele>791.243393</ele>
        <time>2017-06-02T07:30:10.000Z</time>
      </trkpt>
      <trkpt lat="46.045116" lon="6.093791">
        <ele>791.587651</ele>
        <time>2017-06-02T07:30:12.000Z</time>
      </trkpt>
      <trkpt lat="46.045048" lon="6.093903">
        <ele>791.944543</ele>
        <time>2017-06-02T07:30:14.000Z</time>
      </trkpt>
      <trkpt lat="46.044980" lon="6.094011">
        <ele>792.294272</ele>
        <time>2017-06-02T07:30:16.000Z</time>
      </trkpt>
      <trkpt lat="46.044910" lon="6.094120">
        <ele>792.650438</ele>
        <time>2017-06-02T07:30:18.000Z</time>
      </trkpt>
      <trkpt lat="46.044838" lon="6.094228">
        <ele>793.009600</ele>
        <time>2017-06-02T07:30:20.000Z</time>
      </trkpt>
      <trkpt lat="46.044773" lon="6.094338">
        <ele>793.356089</ele>
        <time>2017-06-02T07:30:22.000Z</time>
      </trkpt>
      <trkpt lat="46.044712" lon="6.094451">
        <ele>793.699433</ele>
        <time>2017-06-02T07:30:24.000Z</time>
      </trkpt>
      <trkpt lat="46.044647" lon="6.094555">
        <ele>794.035094</ele>
        <time>2017-06-02T07:30:26.000Z</time>
      </trkpt>
      <trkpt lat="46.044586" lon="6.094661">
        <ele>794.362379</ele>
        <time>2017-06-02T07:30:28.000Z</time>
      </trkpt>
      <trkpt lat="46.044520" lon="6.094760">
        <ele>794.613082</ele>
        <time>2017-06-02T07:30:30.000Z</time>
      </trkpt>
      <trkpt lat="46.044437" lon="6.094907">
        <ele>794.959171</ele>
        <time>2017-06-02T07:30:33.000Z</time>
      </trkpt>
      <trkpt lat="46.044360" lon="6.095055">
        <ele>795.296980</ele>
        <time>2017-06-02T07:30:36.000Z</time>
      </trkpt>
      <trkpt lat="46.044270" lon="6.095200">
        <ele>795.652246</ele>
        <time>2017-06-02T07:30:39.000Z</time>
      </trkpt>
      <trkpt lat="46.044180" lon="6.095336">
        <ele>795.995435</ele>
        <time>2017-06-02T07:30:42.000Z</time>
      </trkpt>
      <trkpt lat="46.044120" lon="6.095428">
        <ele>796.225996</ele>
        <time>2017-06-02T07:30:44.000Z</time>
      </trkpt>
      <trkpt lat="46.044050" lon="6.095524">
        <ele>796.480295</ele>
        <time>2017-06-02T07:30:46.000Z</time>
      </trkpt>
      <trkpt lat="46.043983" lon="6.095614">
        <ele>796.721333</ele>
        <time>2017-06-02T07:30:48.000Z</time>
      </trkpt>
      <trkpt lat="46.043888" lon="6.095753">
        <ele>797.077613</ele>
        <time>2017-06-02T07:30:51.000Z</time>
      </trkpt>
      <trkpt lat="46.043830" lon="6.095860">
        <ele>797.325569</ele>
        <time>2017-06-02T07:30:53.000Z</time>
      </trkpt>
      <trkpt lat="46.043762" lon="6.095955">
        <ele>797.574808</ele>
        <time>2017-06-02T07:30:55.000Z</time>
      </trkpt>
      <trkpt lat="46.043697" lon="6.096054">
        <ele>797.823698</ele>
        <time>2017-06-02T07:30:57.000Z</time>
      </trkpt>
      <trkpt lat="46.043633" lon="6.096156">
        <ele>798.074824</ele>
        <time>2017-06-02T07:30:59.000Z</time>
      </trkpt>
      <trkpt lat="46.043568" lon="6.096253">
        <ele>798.321073</ele>
        <time>2017-06-02T07:31:01.000Z</time>
      </trkpt>
      <trkpt lat="46.043500" lon="6.096345">
        <ele>798.566530</ele>
        <time>2017-06-02T07:31:03.000Z</time>
      </trkpt>
      <trkpt lat="46.043400" lon="6.096469">
        <ele>798.913701</ele>
        <time>2017-06-02T07:31:06.000Z</time>
      </trkpt>
      <trkpt lat="46.043316" lon="6.096596">
        <ele>798.962965</ele>
        <time>2017-06-02T07:31:09.000Z</time>
      </trkpt>
      <trkpt lat="46.043247" lon="6.096723">
        <ele>798.719517</ele>
        <time>2017-06-02T07:31:12.000Z</time>
      </trkpt>
      <trkpt lat="46.043182" lon="6.096829">
        <ele>798.506015</ele>
        <time>2017-06-02T07:31:15.000Z</time>
      </trkpt>
      <trkpt lat="46.043100" lon="6.096934">
        <ele>798.267433</ele>
        <time>2017-06-02T07:31:19.000Z</time>
      </trkpt>
      <trkpt lat="46.043003" lon="6.096909">
        <ele>798.053139</ele>
        <time>2017-06-02T07:31:22.000Z</time>
      </trkpt>
      <trkpt lat="46.042930" lon="6.096778">
        <ele>797.799555</ele>
        <time>2017-06-02T07:31:25.000Z</time>
      </trkpt>
      <trkpt lat="46.042904" lon="6.096612">
        <ele>797.542678</ele>
        <time>2017-06-02T07:31:28.000Z</time>
      </trkpt>
      <trkpt lat="46.042816" lon="6.096503">
        <ele>797.290298</ele>
        <time>2017-06-02T07:31:31.000Z</time>
      </trkpt>
      <trkpt lat="46.042717" lon="6.096561">
        <ele>797.057883</ele>
        <time>2017-06-02T07:31:35.000Z</time>
      </trkpt>
      <trkpt lat="46.042637" lon="6.096652">
        <ele>796.836215</ele>
        <time>2017-06-02T07:31:40.000Z</time>
      </trkpt>
      <trkpt lat="46.042587" lon="6.096762">
        <ele>796.637735</ele>
        <time>2017-06-02T07:31:46.000Z</time>
      </trkpt>
      <trkpt lat="46.042576" lon="6.096941">
        <ele>796.366476</ele>
        <time>2017-06-02T07:31:51.000Z</time>
      </trkpt>
      <trkpt lat="46.042538" lon="6.097135">
        <ele>796.062195</ele>
        <time>2017-06-02T07:31:54.000Z</time>
      </trkpt>
      <trkpt lat="46.042473" lon="6.097276">
        <ele>795.806691</ele>
        <time>2017-06-02T07:31:56.000Z</time>
      </trkpt>
      <trkpt lat="46.042374" lon="6.097401">
        <ele>795.520412</ele>
        <time>2017-06-02T07:31:58.000Z</time>
      </trkpt>
      <trkpt lat="46.042274" lon="6.097488">
        <ele>795.266365</ele>
        <time>2017-06-02T07:32:00.000Z</time>
      </trkpt>
      <trkpt lat="46.042180" lon="6.097547">
        <ele>795.470882</ele>
        <time>2017-06-02T07:32:02.000Z</time>
      </trkpt>
      <trkpt lat="46.042084" lon="6.097594">
        <ele>795.971212</ele>
        <time>2017-06-02T07:32:04.000Z</time>
      </trkpt>
      <trkpt lat="46.041992" lon="6.097646">
        <ele>796.458887</ele>
        <time>2017-06-02T07:32:07.000Z</time>
      </trkpt>
      <trkpt lat="46.041897" lon="6.097720">
        <ele>796.991813</ele>
        <time>2017-06-02T07:32:11.000Z</time>
      </trkpt>
      <trkpt lat="46.041800" lon="6.097773">
        <ele>797.503741</ele>
        <time>2017-06-02T07:32:15.000Z</time>
      </trkpt>
      <trkpt lat="46.041706" lon="6.097824">
        <ele>797.999399</ele>
        <time>2017-06-02T07:32:19.000Z</time>
      </trkpt>
      <trkpt lat="46.041607" lon="6.097870">
        <ele>798.512706</ele>
        <time>2017-06-02T07:32:23.000Z</time>
      </trkpt>
      <trkpt lat="46.041508" lon="6.097890">
        <ele>799.006013</ele>
        <time>2017-06-02T07:32:27.000Z</time>
      </trkpt>
      <trkpt lat="46.041420" lon="6.097941">
        <ele>799.474080</ele>
        <time>2017-06-02T07:32:31.000Z</time>
      </trkpt>
      <trkpt lat="46.041313" lon="6.097961">
        <ele>800.006510</ele>
        <time>2017-06-02T07:32:35.000Z</time>
      </trkpt>
      <trkpt lat="46.041210" lon="6.097998">
        <ele>800.530338</ele>
        <time>2017-06-02T07:32:39.000Z</time>
      </trkpt>
      <trkpt lat="46.041120" lon="6.098048">
        <ele>801.006332</ele>
        <time>2017-06-02T07:32:43.000Z</time>
      </trkpt>
      <trkpt lat="46.041035" lon="6.098137">
        <ele>801.524857</ele>
        <time>2017-06-02T07:32:47.000Z</time>
      </trkpt>
      <trkpt lat="46.040955" lon="6.098239">
        <ele>802.052030</ele>
        <time>2017-06-02T07:32:51.000Z</time>
      </trkpt>
      <trkpt lat="46.040886" lon="6.098339">
        <ele>802.535002</ele>
        <time>2017-06-02T07:32:55.000Z</time>
      </trkpt>
      <trkpt lat="46.040836" lon="6.098450">
        <ele>802.988255</ele>
        <time>2017-06-02T07:32:59.000Z</time>
      </trkpt>
      <trkpt lat="46.040802" lon="6.098578">
        <ele>803.457703</ele>
        <time>2017-06-02T07:33:03.000Z</time>
      </trkpt>
      <trkpt lat="46.040764" lon="6.098706">
        <ele>803.934563</ele>
        <time>2017-06-02T07:33:07.000Z</time>
      </trkpt>
      <trkpt lat="46.040718" lon="6.098836">
        <ele>803.939170</ele>
        <time>2017-06-02T07:33:11.000Z</time>
      </trkpt>
      <trkpt lat="46.040660" lon="6.098976">
        <ele>803.778579</ele>
        <time>2017-06-02T07:33:15.000Z</time>
      </trkpt>
      <trkpt lat="46.040600" lon="6.099108">
        <ele>803.623165</ele>
        <time>2017-06-02T07:33:18.000Z</time>
      </trkpt>
      <trkpt lat="46.040535" lon="6.099227">
        <ele>803.474013</ele>
        <time>2017-06-02T07:33:20.000Z</time>
      </trkpt>
      <trkpt lat="46.040462" lon="6.099372">
        <ele>803.297579</ele>
        <time>2017-06-02T07:33:22.000Z</time>
      </trkpt>
      <trkpt lat="46.040367" lon="6.099519">
        <ele>803.099747</ele>
        <time>2017-06-02T07:33:24.000Z</time>
      </trkpt>
      <trkpt lat="46.040264" lon="6.099684">
        <ele>802.881170</ele>
        <time>2017-06-02T07:33:26.000Z</time>
      </trkpt>
      <trkpt lat="46.040160" lon="6.099851">
        <ele>802.660179</ele>
        <time>2017-06-02T07:33:28.000Z</time>
      </trkpt>
      <trkpt lat="46.040060" lon="6.100005">
        <ele>802.452464</ele>
        <time>2017-06-02T07:33:30.000Z</time>
      </trkpt>
      <trkpt lat="46.039960" lon="6.100165">
        <ele>802.240395</ele>
        <time>2017-06-02T07:33:32.000Z</time>
      </trkpt>
      <trkpt lat="46.039864" lon="6.100318">
        <ele>802.037248</ele>
        <time>2017-06-02T07:33:34.000Z</time>
      </trkpt>
      <trkpt lat="46.039772" lon="6.100444">
        <ele>801.857120</ele>
        <time>2017-06-02T07:33:36.000Z</time>
      </trkpt>
      <trkpt lat="46.039696" lon="6.100564">
        <ele>801.697115</ele>
        <time>2017-06-02T07:33:38.000Z</time>
      </trkpt>
      <trkpt lat="46.039620" lon="6.100678">
        <ele>801.541424</ele>
        <time>2017-06-02T07:33:40.000Z</time>
      </trkpt>
      <trkpt lat="46.039543" lon="6.100781">
        <ele>801.539476</ele>
        <time>2017-06-02T07:33:42.000Z</time>
      </trkpt>
      <trkpt lat="46.039474" lon="6.100885">
        <ele>801.596019</ele>
        <time>2017-06-02T07:33:44.000Z</time>
      </trkpt>
      <trkpt lat="46.039394" lon="6.100991">
        <ele>801.657561</ele>
        <time>2017-06-02T07:33:46.000Z</time>
      </trkpt>
      <trkpt lat="46.039318" lon="6.101090">
        <ele>801.715576</ele>
        <time>2017-06-02T07:33:48.000Z</time>
      </trkpt>
      <trkpt lat="46.039220" lon="6.101225">
        <ele>801.792350</ele>
        <time>2017-06-02T07:33:51.000Z</time>
      </trkpt>
      <trkpt lat="46.039130" lon="6.101358">
        <ele>801.865351</ele>
        <time>2017-06-02T07:33:55.000Z</time>
      </trkpt>
      <trkpt lat="46.039060" lon="6.101450">
        <ele>801.919002</ele>
        <time>2017-06-02T07:34:02.000Z</time>
      </trkpt>
      <trkpt lat="46.038982" lon="6.101559">
        <ele>801.980530</ele>
        <time>2017-06-02T07:34:07.000Z</time>
      </trkpt>
      <trkpt lat="46.038906" lon="6.101687">
        <ele>802.046732</ele>
        <time>2017-06-02T07:34:11.000Z</time>
      </trkpt>
      <trkpt lat="46.038840" lon="6.101795">
        <ele>802.103285</ele>
        <time>2017-06-02T07:34:14.000Z</time>
      </trkpt>
      <trkpt lat="46.038776" lon="6.101916">
        <ele>802.163075</ele>
        <time>2017-06-02T07:34:17.000Z</time>
      </trkpt>
      <trkpt lat="46.038708" lon="6.102059">
        <ele>802.231203</ele>
        <time>2017-06-02T07:34:20.000Z</time>
      </trkpt>
      <trkpt lat="46.038635" lon="6.102188">
        <ele>802.296617</ele>
        <time>2017-06-02T07:34:23.000Z</time>
      </trkpt>
      <trkpt lat="46.038550" lon="6.102299">
        <ele>802.361575</ele>
        <time>2017-06-02T07:34:26.000Z</time>
      </trkpt>
      <trkpt lat="46.038467" lon="6.102402">
        <ele>802.423603</ele>
        <time>2017-06-02T07:34:29.000Z</time>
      </trkpt>
      <trkpt lat="46.038383" lon="6.102525">
        <ele>802.491420</ele>
        <time>2017-06-02T07:34:32.000Z</time>
      </trkpt>
      <trkpt lat="46.038307" lon="6.102644">
        <ele>802.566110</ele>
        <time>2017-06-02T07:34:35.000Z</time>
      </trkpt>
      <trkpt lat="46.038220" lon="6.102756">
        <ele>802.650997</ele>
        <time>2017-06-02T07:34:38.000Z</time>
      </trkpt>
      <trkpt lat="46.038143" lon="6.102859">
        <ele>802.727445</ele>
        <time>2017-06-02T07:34:41.000Z</time>
      </trkpt>
      <trkpt lat="46.038074" lon="6.102964">
        <ele>802.800466</ele>
        <time>2017-06-02T07:34:44.000Z</time>
      </trkpt>
      <trkpt lat="46.038002" lon="6.103080">
        <ele>802.879053</ele>
        <time>2017-06-02T07:34:47.000Z</time>
      </trkpt>
      <trkpt lat="46.037940" lon="6.103215">
        <ele>802.960804</ele>
        <time>2017-06-02T07:34:50.000Z</time>
      </trkpt>
      <trkpt lat="46.037900" lon="6.103389">
        <ele>803.053374</ele>
        <time>2017-06-02T07:34:53.000Z</time>
      </trkpt>
      <trkpt lat="46.037890" lon="6.103527">
        <ele>803.123448</ele>
        <time>2017-06-02T07:34:55.000Z</time>
      </trkpt>
      <trkpt lat="46.037884" lon="6.103682">
        <ele>803.201851</ele>
        <time>2017-06-02T07:34:57.000Z</time>
      </trkpt>
      <trkpt lat="46.037876" lon="6.103841">
        <ele>803.282363</ele>
        <time>2017-06-02T07:34:59.000Z</time>
      </trkpt>
      <trkpt lat="46.037857" lon="6.104010">
        <ele>803.368827</ele>
        <time>2017-06-02T07:35:01.000Z</time>
      </trkpt>
      <trkpt lat="46.037820" lon="6.104166">
        <ele>803.452085</ele>
        <time>2017-06-02T07:35:03.000Z</time>
      </trkpt>
      <trkpt lat="46.037792" lon="6.104327">
        <ele>803.535909</ele>
        <time>2017-06-02T07:35:05.000Z</time>
      </trkpt>
      <trkpt lat="46.037780" lon="6.104489">
        <ele>803.618190</ele>
        <time>2017-06-02T07:35:07.000Z</time>
      </trkpt>
      <trkpt lat="46.037770" lon="6.104640">
        <ele>803.694797</ele>
        <time>2017-06-02T07:35:09.000Z</time>
      </trkpt>
      <trkpt lat="46.037727" lon="6.104823">
        <ele>803.792371</ele>
        <time>2017-06-02T07:35:12.000Z</time>
      </trkpt>
      <trkpt lat="46.037680" lon="6.105008">
        <ele>804.335202</ele>
        <time>2017-06-02T07:35:15.000Z</time>
      </trkpt>
      <trkpt lat="46.037655" lon="6.105166">
        <ele>804.955394</ele>
        <time>2017-06-02T07:35:18.000Z</time>
      </trkpt>
      <trkpt lat="46.037600" lon="6.105304">
        <ele>805.564390</ele>
        <time>2017-06-02T07:35:21.000Z</time>
      </trkpt>
      <trkpt lat="46.037540" lon="6.105433">
        <ele>806.158659</ele>
        <time>2017-06-02T07:35:24.000Z</time>
      </trkpt>
      <trkpt lat="46.037483" lon="6.105547">
        <ele>806.696341</ele>
        <time>2017-06-02T07:35:27.000Z</time>
      </trkpt>
      <trkpt lat="46.037395" lon="6.105650">
        <ele>807.321450</ele>
        <time>2017-06-02T07:35:31.000Z</time>
      </trkpt>
      <trkpt lat="46.037327" lon="6.105759">
        <ele>807.882309</ele>
        <time>2017-06-02T07:35:35.000Z</time>
      </trkpt>
      <trkpt lat="46.037254" lon="6.105846">
        <ele>808.404643</ele>
        <time>2017-06-02T07:35:39.000Z</time>
      </trkpt>
      <trkpt lat="46.037212" lon="6.105963">
        <ele>808.908744</ele>
        <time>2017-06-02T07:35:43.000Z</time>
      </trkpt>
      <trkpt lat="46.037140" lon="6.106068">
        <ele>809.473587</ele>
        <time>2017-06-02T07:35:47.000Z</time>
      </trkpt>
      <trkpt lat="46.037075" lon="6.106168">
        <ele>809.997882</ele>
        <time>2017-06-02T07:35:51.000Z</time>
      </trkpt>
      <trkpt lat="46.036995" lon="6.106244">
        <ele>810.526204</ele>
        <time>2017-06-02T07:35:56.000Z</time>
      </trkpt>
      <trkpt lat="46.036934" lon="6.106357">
        <ele>811.074042</ele>
        <time>2017-06-02T07:36:13.000Z</time>
      </trkpt>
      <trkpt lat="46.036858" lon="6.106468">
        <ele>811.670720</ele>
        <time>2017-06-02T07:36:18.000Z</time>
      </trkpt>
      <trkpt lat="46.036774" lon="6.106557">
        <ele>812.245595</ele>
        <time>2017-06-02T07:36:23.000Z</time>
      </trkpt>
      <trkpt lat="46.036697" lon="6.106641">
        <ele>812.778097</ele>
        <time>2017-06-02T07:36:28.000Z</time>
      </trkpt>
      <trkpt lat="46.036633" lon="6.106731">
        <ele>813.271187</ele>
        <time>2017-06-02T07:36:32.000Z</time>
      </trkpt>
      <trkpt lat="46.036552" lon="6.106834">
        <ele>813.888390</ele>
        <time>2017-06-02T07:36:37.000Z</time>
      </trkpt>
      <trkpt lat="46.036488" lon="6.106947">
        <ele>814.541746</ele>
        <time>2017-06-02T07:36:42.000Z</time>
      </trkpt>
      <trkpt lat="46.036415" lon="6.107024">
        <ele>815.125649</ele>
        <time>2017-06-02T07:36:48.000Z</time>
      </trkpt>
      <trkpt lat="46.036330" lon="6.107119">
        <ele>815.819946</ele>
        <time>2017-06-02T07:36:53.000Z</time>
      </trkpt>
      <trkpt lat="46.036263" lon="6.107211">
        <ele>816.417306</ele>
        <time>2017-06-02T07:36:57.000Z</time>
      </trkpt>
      <trkpt lat="46.036180" lon="6.107310">
        <ele>817.112741</ele>
        <time>2017-06-02T07:37:02.000Z</time>
      </trkpt>
      <trkpt lat="46.036090" lon="6.107404">
        <ele>817.830165</ele>
        <time>2017-06-02T07:37:07.000Z</time>
      </trkpt>
      <trkpt lat="46.036010" lon="6.107499">
        <ele>818.499261</ele>
        <time>2017-06-02T07:37:12.000Z</time>
      </trkpt>
      <trkpt lat="46.035950" lon="6.107625">
        <ele>819.183792</ele>
        <time>2017-06-02T07:37:17.000Z</time>
      </trkpt>
      <trkpt lat="46.035940" lon="6.107763">
        <ele>819.805404</ele>
        <time>2017-06-02T07:37:21.000Z</time>
      </trkpt>
      <trkpt lat="46.035946" lon="6.107898">
        <ele>820.411454</ele>
        <time>2017-06-02T07:37:25.000Z</time>
      </trkpt>
      <trkpt lat="46.035915" lon="6.108028">
        <ele>821.027268</ele>
        <time>2017-06-02T07:37:29.000Z</time>
      </trkpt>
      <trkpt lat="46.035850" lon="6.108126">
        <ele>821.634498</ele>
        <time>2017-06-02T07:37:33.000Z</time>
      </trkpt>
      <trkpt lat="46.035767" lon="6.108209">
        <ele>822.286560</ele>
        <time>2017-06-02T07:37:37.000Z</time>
      </trkpt>
      <trkpt lat="46.035683" lon="6.108288">
        <ele>822.933966</ele>
        <time>2017-06-02T07:37:41.000Z</time>
      </trkpt>
      <trkpt lat="46.035603" lon="6.108365">
        <ele>823.554894</ele>
        <time>2017-06-02T07:37:45.000Z</time>
      </trkpt>
      <trkpt lat="46.035530" lon="6.108466">
        <ele>824.208110</ele>
        <time>2017-06-02T07:37:50.000Z</time>
      </trkpt>
      <trkpt lat="46.035610" lon="6.108543">
        <ele>824.829039</ele>
        <time>2017-06-02T07:37:56.000Z</time>
      </trkpt>
      <trkpt lat="46.035526" lon="6.108610">
        <ele>825.389413</ele>
        <time>2017-06-02T07:38:32.000Z</time>
      </trkpt>
      <trkpt lat="46.035427" lon="6.108665">
        <ele>825.670415</ele>
        <time>2017-06-02T07:38:41.000Z</time>
      </trkpt>
      <trkpt lat="46.035340" lon="6.108711">
        <ele>825.915845</ele>
        <time>2017-06-02T07:38:46.000Z</time>
      </trkpt>
      <trkpt lat="46.035233" lon="6.108691">
        <ele>826.201585</ele>
        <time>2017-06-02T07:38:52.000Z</time>
      </trkpt>
      <trkpt lat="46.035137" lon="6.108723">
        <ele>826.462537</ele>
        <time>2017-06-02T07:38:56.000Z</time>
      </trkpt>
      <trkpt lat="46.035030" lon="6.108748">
        <ele>826.749605</ele>
        <time>2017-06-02T07:39:00.000Z</time>
      </trkpt>
      <trkpt lat="46.034916" lon="6.108752">
        <ele>827.051597</ele>
        <time>2017-06-02T07:39:04.000Z</time>
      </trkpt>
      <trkpt lat="46.034820" lon="6.108767">
        <ele>827.307322</ele>
        <time>2017-06-02T07:39:08.000Z</time>
      </trkpt>
      <trkpt lat="46.034720" lon="6.108762">
        <ele>827.572308</ele>
        <time>2017-06-02T07:39:13.000Z</time>
      </trkpt>
      <trkpt lat="46.034670" lon="6.108644">
        <ele>827.826467</ele>
        <time>2017-06-02T07:42:31.000Z</time>
      </trkpt>
      <trkpt lat="46.034607" lon="6.108546">
        <ele>828.072023</ele>
        <time>2017-06-02T07:42:35.000Z</time>
      </trkpt>
      <trkpt lat="46.034527" lon="6.108476">
        <ele>828.319909</ele>
        <time>2017-06-02T07:42:41.000Z</time>
      </trkpt>
      <trkpt lat="46.034477" lon="6.108336">
        <ele>828.609361</ele>
        <time>2017-06-02T07:42:48.000Z</time>
      </trkpt>
      <trkpt lat="46.034410" lon="6.108247">
        <ele>828.850725</ele>
        <time>2017-06-02T07:42:54.000Z</time>
      </trkpt>
      <trkpt lat="46.034330" lon="6.108153">
        <ele>829.124132</ele>
        <time>2017-06-02T07:42:59.000Z</time>
      </trkpt>
      <trkpt lat="46.034252" lon="6.108077">
        <ele>829.373516</ele>
        <time>2017-06-02T07:43:03.000Z</time>
      </trkpt>
      <trkpt lat="46.034172" lon="6.107985">
        <ele>829.644615</ele>
        <time>2017-06-02T07:43:09.000Z</time>
      </trkpt>
      <trkpt lat="46.034080" lon="6.107932">
        <ele>829.907018</ele>
        <time>2017-06-02T07:44:50.000Z</time>
      </trkpt>
      <trkpt lat="46.034016" lon="6.107834">
        <ele>830.162130</ele>
        <time>2017-06-02T07:44:54.000Z</time>
      </trkpt>
      <trkpt lat="46.033947" lon="6.107739">
        <ele>830.460518</ele>
        <time>2017-06-02T07:44:58.000Z</time>
      </trkpt>
      <trkpt lat="46.033860" lon="6.107659">
        <ele>830.783184</ele>
        <time>2017-06-02T07:45:02.000Z</time>
      </trkpt>
      <trkpt lat="46.033780" lon="6.107571">
        <ele>831.097858</ele>
        <time>2017-06-02T07:45:06.000Z</time>
      </trkpt>
      <trkpt lat="46.033688" lon="6.107483">
        <ele>831.443098</ele>
        <time>2017-06-02T07:45:10.000Z</time>
      </trkpt>
      <trkpt lat="46.033607" lon="6.107385">
        <ele>831.773785</ele>
        <time>2017-06-02T07:45:14.000Z</time>
      </trkpt>
      <trkpt lat="46.033524" lon="6.107276">
        <ele>832.124904</ele>
        <time>2017-06-02T07:45:18.000Z</time>
      </trkpt>
      <trkpt lat="46.033436" lon="6.107192">
        <ele>832.454926</ele>
        <time>2017-06-02T07:45:22.000Z</time>
      </trkpt>
      <trkpt lat="46.033340" lon="6.107121">
        <ele>832.792281</ele>
        <time>2017-06-02T07:45:26.000Z</time>
      </trkpt>
      <trkpt lat="46.033253" lon="6.107038">
        <ele>833.118498</ele>
        <time>2017-06-02T07:45:30.000Z</time>
      </trkpt>
      <trkpt lat="46.033150" lon="6.106962">
        <ele>833.480277</ele>
        <time>2017-06-02T07:45:34.000Z</time>
      </trkpt>
      <trkpt lat="46.033062" lon="6.106896">
        <ele>833.790433</ele>
        <time>2017-06-02T07:45:37.000Z</time>
      </trkpt>
      <trkpt lat="46.032963" lon="6.106827">
        <ele>834.134246</ele>
        <time>2017-06-02T07:45:40.000Z</time>
      </trkpt>
      <trkpt lat="46.032867" lon="6.106761">
        <ele>834.466786</ele>
        <time>2017-06-02T07:45:43.000Z</time>
      </trkpt>
      <trkpt lat="46.032784" lon="6.106649">
        <ele>834.822326</ele>
        <time>2017-06-02T07:45:47.000Z</time>
      </trkpt>
      <trkpt lat="46.032684" lon="6.106612">
        <ele>835.145087</ele>
        <time>2017-06-02T07:45:52.000Z</time>
      </trkpt>
      <trkpt lat="46.032574" lon="6.106541">
        <ele>835.521908</ele>
        <time>2017-06-02T07:45:56.000Z</time>
      </trkpt>
      <trkpt lat="46.032475" lon="6.106450">
        <ele>835.597003</ele>
        <time>2017-06-02T07:46:00.000Z</time>
      </trkpt>
      <trkpt lat="46.032375" lon="6.106360">
        <ele>835.270233</ele>
        <time>2017-06-02T07:46:04.000Z</time>
      </trkpt>
      <trkpt lat="46.032288" lon="6.106286">
        <ele>834.990238</ele>
        <time>2017-06-02T07:46:07.000Z</time>
      </trkpt>
      <trkpt lat="46.032185" lon="6.106218">
        <ele>834.676249</ele>
        <time>2017-06-02T07:46:10.000Z</time>
      </trkpt>
      <trkpt lat="46.032078" lon="6.106132">
        <ele>834.336688</ele>
        <time>2017-06-02T07:46:13.000Z</time>
      </trkpt>
      <trkpt lat="46.031967" lon="6.106064">
        <ele>834.002417</ele>
        <time>2017-06-02T07:46:16.000Z</time>
      </trkpt>
      <trkpt lat="46.031857" lon="6.105980">
        <ele>833.657392</ele>
        <time>2017-06-02T07:46:19.000Z</time>
      </trkpt>
      <trkpt lat="46.031740" lon="6.105902">
        <ele>833.300114</ele>
        <time>2017-06-02T07:46:22.000Z</time>
      </trkpt>
      <trkpt lat="46.031650" lon="6.105848">
        <ele>833.029930</ele>
        <time>2017-06-02T07:46:24.000Z</time>
      </trkpt>
      <trkpt lat="46.031563" lon="6.105784">
        <ele>832.759211</ele>
        <time>2017-06-02T07:46:26.000Z</time>
      </trkpt>
      <trkpt lat="46.031475" lon="6.105722">
        <ele>832.487732</ele>
        <time>2017-06-02T07:46:28.000Z</time>
      </trkpt>
      <trkpt lat="46.031380" lon="6.105660">
        <ele>832.198703</ele>
        <time>2017-06-02T07:46:31.000Z</time>
      </trkpt>
      <trkpt lat="46.031290" lon="6.105596">
        <ele>831.920553</ele>
        <time>2017-06-02T07:46:35.000Z</time>
      </trkpt>
      <trkpt lat="46.031204" lon="6.105537">
        <ele>831.656575</ele>
        <time>2017-06-02T07:46:43.000Z</time>
      </trkpt>
      <trkpt lat="46.031120" lon="6.105479">
        <ele>831.398427</ele>
        <time>2017-06-02T07:46:50.000Z</time>
      </trkpt>
      <trkpt lat="46.031020" lon="6.105436">
        <ele>831.109219</ele>
        <time>2017-06-02T07:46:55.000Z</time>
      </trkpt>
      <trkpt lat="46.030975" lon="6.105317">
        <ele>830.848507</ele>
        <time>2017-06-02T07:46:59.000Z</time>
      </trkpt>
      <trkpt lat="46.030876" lon="6.105308">
        <ele>830.426720</ele>
        <time>2017-06-02T07:47:06.000Z</time>
      </trkpt>
      <trkpt lat="46.030785" lon="6.105373">
        <ele>829.910546</ele>
        <time>2017-06-02T07:47:16.000Z</time>
      </trkpt>
      <trkpt lat="46.030674" lon="6.105386">
        <ele>829.344615</ele>
        <time>2017-06-02T07:47:21.000Z</time>
      </trkpt>
      <trkpt lat="46.030570" lon="6.105392">
        <ele>828.815695</ele>
        <time>2017-06-02T07:47:25.000Z</time>
      </trkpt>
      <trkpt lat="46.030460" lon="6.105400">
        <ele>828.255996</ele>
        <time>2017-06-02T07:47:29.000Z</time>
      </trkpt>
      <trkpt lat="46.030357" lon="6.105411">
        <ele>827.731144</ele>
        <time>2017-06-02T07:47:33.000Z</time>
      </trkpt>
      <trkpt lat="46.030174" lon="6.105443">
        <ele>826.794364</ele>
        <time>2017-06-02T07:47:49.000Z</time>
      </trkpt>
      <trkpt lat="46.030037" lon="6.105458">
        <ele>826.096163</ele>
        <time>2017-06-02T07:47:52.000Z</time>
      </trkpt>
      <trkpt lat="46.029920" lon="6.105459">
        <ele>825.501593</ele>
        <time>2017-06-02T07:47:54.000Z</time>
      </trkpt>
      <trkpt lat="46.029785" lon="6.105465">
        <ele>824.815237</ele>
        <time>2017-06-02T07:47:56.000Z</time>
      </trkpt>
      <trkpt lat="46.029648" lon="6.105467">
        <ele>824.119008</ele>
        <time>2017-06-02T07:47:58.000Z</time>
      </trkpt>
      <trkpt lat="46.029507" lon="6.105472">
        <ele>823.402271</ele>
        <time>2017-06-02T07:48:00.000Z</time>
      </trkpt>
      <trkpt lat="46.029360" lon="6.105487">
        <ele>822.653389</ele>
        <time>2017-06-02T07:48:02.000Z</time>
      </trkpt>
      <trkpt lat="46.029205" lon="6.105492">
        <ele>821.865528</ele>
        <time>2017-06-02T07:48:04.000Z</time>
      </trkpt>
      <trkpt lat="46.029040" lon="6.105496">
        <ele>821.180277</ele>
        <time>2017-06-02T07:48:06.000Z</time>
      </trkpt>
      <trkpt lat="46.028880" lon="6.105504">
        <ele>820.580820</ele>
        <time>2017-06-02T07:48:08.000Z</time>
      </trkpt>
      <trkpt lat="46.028720" lon="6.105513">
        <ele>819.981267</ele>
        <time>2017-06-02T07:48:10.000Z</time>
      </trkpt>
      <trkpt lat="46.028557" lon="6.105516">
        <ele>819.370888</ele>
        <time>2017-06-02T07:48:12.000Z</time>
      </trkpt>
      <trkpt lat="46.028397" lon="6.105476">
        <ele>818.762834</ele>
        <time>2017-06-02T07:48:14.000Z</time>
      </trkpt>
      <trkpt lat="46.028233" lon="6.105394">
        <ele>818.112811</ele>
        <time>2017-06-02T07:48:16.000Z</time>
      </trkpt>
      <trkpt lat="46.028070" lon="6.105282">
        <ele>817.436585</ele>
        <time>2017-06-02T07:48:18.000Z</time>
      </trkpt>
      <trkpt lat="46.027924" lon="6.105135">
        <ele>816.769577</ele>
        <time>2017-06-02T07:48:20.000Z</time>
      </trkpt>
      <trkpt lat="46.027817" lon="6.104987">
        <ele>816.214098</ele>
        <time>2017-06-02T07:48:22.000Z</time>
      </trkpt>
      <trkpt lat="46.027750" lon="6.104859">
        <ele>815.797360</ele>
        <time>2017-06-02T07:48:24.000Z</time>
      </trkpt>
      <trkpt lat="46.027706" lon="6.104738">
        <ele>815.442260</ele>
        <time>2017-06-02T07:48:26.000Z</time>
      </trkpt>
      <trkpt lat="46.027668" lon="6.104609">
        <ele>815.077958</ele>
        <time>2017-06-02T07:48:28.000Z</time>
      </trkpt>
      <trkpt lat="46.027634" lon="6.104470">
        <ele>814.958549</ele>
        <time>2017-06-02T07:48:30.000Z</time>
      </trkpt>
      <trkpt lat="46.027620" lon="6.104328">
        <ele>815.131827</ele>
        <time>2017-06-02T07:48:32.000Z</time>
      </trkpt>
      <trkpt lat="46.027596" lon="6.104087">
        <ele>815.425970</ele>
        <time>2017-06-02T07:49:16.000Z</time>
      </trkpt>
      <trkpt lat="46.027580" lon="6.103942">
        <ele>815.603349</ele>
        <time>2017-06-02T07:49:20.000Z</time>
      </trkpt>
      <trkpt lat="46.027510" lon="6.103844">
        <ele>815.773216</ele>
        <time>2017-06-02T07:49:24.000Z</time>
      </trkpt>
      <trkpt lat="46.027480" lon="6.103971">
        <ele>815.935288</ele>
        <time>2017-06-02T07:49:28.000Z</time>
      </trkpt>
      <trkpt lat="46.027473" lon="6.104105">
        <ele>816.097637</ele>
        <time>2017-06-02T07:49:31.000Z</time>
      </trkpt>
      <trkpt lat="46.027485" lon="6.104234">
        <ele>816.254881</ele>
        <time>2017-06-02T07:49:34.000Z</time>
      </trkpt>
      <trkpt lat="46.027510" lon="6.104391">
        <ele>816.449485</ele>
        <time>2017-06-02T07:49:37.000Z</time>
      </trkpt>
      <trkpt lat="46.027534" lon="6.104549">
        <ele>816.644887</ele>
        <time>2017-06-02T07:49:40.000Z</time>
      </trkpt>
      <trkpt lat="46.027565" lon="6.104704">
        <ele>816.839764</ele>
        <time>2017-06-02T07:49:43.000Z</time>
      </trkpt>
      <trkpt lat="46.027554" lon="6.104861">
        <ele>817.030407</ele>
        <time>2017-06-02T07:49:46.000Z</time>
      </trkpt>
      <trkpt lat="46.027470" lon="6.104969">
        <ele>817.226339</ele>
        <time>2017-06-02T07:49:49.000Z</time>
      </trkpt>
      <trkpt lat="46.027360" lon="6.104965">
        <ele>817.417807</ele>
        <time>2017-06-02T07:49:53.000Z</time>
      </trkpt>
      <trkpt lat="46.027298" lon="6.104845">
        <ele>817.598521</ele>
        <time>2017-06-02T07:49:58.000Z</time>
      </trkpt>
      <trkpt lat="46.027270" lon="6.104709">
        <ele>817.769902</ele>
        <time>2017-06-02T07:50:02.000Z</time>
      </trkpt>
      <trkpt lat="46.027250" lon="6.104567">
        <ele>817.944954</ele>
        <time>2017-06-02T07:50:05.000Z</time>
      </trkpt>
      <trkpt lat="46.027233" lon="6.104397">
        <ele>817.958130</ele>
        <time>2017-06-02T07:50:08.000Z</time>
      </trkpt>
      <trkpt lat="46.027220" lon="6.104228">
        <ele>817.893513</ele>
        <time>2017-06-02T07:50:11.000Z</time>
      </trkpt>
      <trkpt lat="46.027218" lon="6.104049">
        <ele>817.825480</ele>
        <time>2017-06-02T07:50:14.000Z</time>
      </trkpt>
      <trkpt lat="46.027206" lon="6.103869">
        <ele>817.756761</ele>
        <time>2017-06-02T07:50:17.000Z</time>
      </trkpt>
      <trkpt lat="46.027187" lon="6.103700">
        <ele>817.691700</ele>
        <time>2017-06-02T07:50:20.000Z</time>
      </trkpt>
      <trkpt lat="46.027150" lon="6.103547">
        <ele>817.630131</ele>
        <time>2017-06-02T07:50:23.000Z</time>
      </trkpt>
      <trkpt lat="46.027115" lon="6.103399">
        <ele>817.570714</ele>
        <time>2017-06-02T07:50:26.000Z</time>
      </trkpt>
      <trkpt lat="46.027073" lon="6.103269">
        <ele>817.516224</ele>
        <time>2017-06-02T07:50:29.000Z</time>
      </trkpt>
      <trkpt lat="46.027008" lon="6.103129">
        <ele>817.452222</ele>
        <time>2017-06-02T07:50:32.000Z</time>
      </trkpt>
      <trkpt lat="46.026920" lon="6.103005">
        <ele>817.384838</ele>
        <time>2017-06-02T07:50:35.000Z</time>
      </trkpt>
      <trkpt lat="46.026814" lon="6.102898">
        <ele>817.313990</ele>
        <time>2017-06-02T07:50:38.000Z</time>
      </trkpt>
      <trkpt lat="46.026730" lon="6.102827">
        <ele>817.260681</ele>
        <time>2017-06-02T07:50:40.000Z</time>
      </trkpt>
      <trkpt lat="46.026638" lon="6.102757">
        <ele>817.203731</ele>
        <time>2017-06-02T07:50:42.000Z</time>
      </trkpt>
      <trkpt lat="46.026543" lon="6.102674">
        <ele>817.142915</ele>
        <time>2017-06-02T07:50:44.000Z</time>
      </trkpt>
      <trkpt lat="46.026440" lon="6.102579">
        <ele>817.075970</ele>
        <time>2017-06-02T07:50:46.000Z</time>
      </trkpt>
      <trkpt lat="46.026330" lon="6.102483">
        <ele>816.880125</ele>
        <time>2017-06-02T07:50:48.000Z</time>
      </trkpt>
      <trkpt lat="46.026226" lon="6.102385">
        <ele>816.227453</ele>
        <time>2017-06-02T07:50:50.000Z</time>
      </trkpt>
      <trkpt lat="46.026123" lon="6.102292">
        <ele>815.589037</ele>
        <time>2017-06-02T07:50:52.000Z</time>
      </trkpt>
      <trkpt lat="46.026000" lon="6.102245">
        <ele>814.920751</ele>
        <time>2017-06-02T07:50:54.000Z</time>
      </trkpt>
      <trkpt lat="46.025860" lon="6.102283">
        <ele>814.172593</ele>
        <time>2017-06-02T07:50:56.000Z</time>
      </trkpt>
      <trkpt lat="46.025726" lon="6.102395">
        <ele>813.358969</ele>
        <time>2017-06-02T07:50:58.000Z</time>
      </trkpt>
      <trkpt lat="46.025600" lon="6.102542">
        <ele>812.507414</ele>
        <time>2017-06-02T07:51:00.000Z</time>
      </trkpt>
      <trkpt lat="46.025470" lon="6.102688">
        <ele>811.641682</ele>
        <time>2017-06-02T07:51:02.000Z</time>
      </trkpt>
      <trkpt lat="46.025340" lon="6.102829">
        <ele>810.787039</ele>
        <time>2017-06-02T07:51:04.000Z</time>
      </trkpt>
      <trkpt lat="46.025204" lon="6.102967">
        <ele>809.913367</ele>
        <time>2017-06-02T07:51:06.000Z</time>
      </trkpt>
      <trkpt lat="46.025050" lon="6.103087">
        <ele>808.993847</ele>
        <time>2017-06-02T07:51:08.000Z</time>
      </trkpt>
      <trkpt lat="46.024967" lon="6.103139">
        <ele>808.518513</ele>
        <time>2017-06-02T07:51:09.000Z</time>
      </trkpt>
      <trkpt lat="46.024880" lon="6.103185">
        <ele>808.031813</ele>
        <time>2017-06-02T07:51:10.000Z</time>
      </trkpt>
      <trkpt lat="46.024790" lon="6.103219">
        <ele>807.544425</ele>
        <time>2017-06-02T07:51:11.000Z</time>
      </trkpt>
      <trkpt lat="46.024630" lon="6.103278">
        <ele>806.711395</ele>
        <time>2017-06-02T07:51:13.000Z</time>
      </trkpt>
      <trkpt lat="46.024475" lon="6.103306">
        <ele>805.923491</ele>
        <time>2017-06-02T07:51:15.000Z</time>
      </trkpt>
      <trkpt lat="46.024320" lon="6.103268">
        <ele>805.130466</ele>
        <time>2017-06-02T07:51:17.000Z</time>
      </trkpt>
      <trkpt lat="46.024166" lon="6.103150">
        <ele>804.250640</ele>
        <time>2017-06-02T07:51:19.000Z</time>
      </trkpt>
      <trkpt lat="46.024090" lon="6.103078">
        <ele>803.791817</ele>
        <time>2017-06-02T07:51:20.000Z</time>
      </trkpt>
      <trkpt lat="46.023964" lon="6.102924">
        <ele>802.958299</ele>
        <time>2017-06-02T07:51:22.000Z</time>
      </trkpt>
      <trkpt lat="46.023853" lon="6.102773">
        <ele>802.188173</ele>
        <time>2017-06-02T07:51:24.000Z</time>
      </trkpt>
      <trkpt lat="46.023754" lon="6.102638">
        <ele>801.500523</ele>
        <time>2017-06-02T07:51:26.000Z</time>
      </trkpt>
      <trkpt lat="46.023630" lon="6.102548">
        <ele>800.800165</ele>
        <time>2017-06-02T07:51:28.000Z</time>
      </trkpt>
      <trkpt lat="46.023495" lon="6.102525">
        <ele>800.114513</ele>
        <time>2017-06-02T07:51:30.000Z</time>
      </trkpt>
      <trkpt lat="46.023350" lon="6.102570">
        <ele>799.366384</ele>
        <time>2017-06-02T07:51:32.000Z</time>
      </trkpt>
      <trkpt lat="46.023200" lon="6.102628">
        <ele>798.583030</ele>
        <time>2017-06-02T07:51:34.000Z</time>
      </trkpt>
      <trkpt lat="46.023050" lon="6.102713">
        <ele>797.745904</ele>
        <time>2017-06-02T07:51:36.000Z</time>
      </trkpt>
      <trkpt lat="46.022900" lon="6.102833">
        <ele>796.851975</ele>
        <time>2017-06-02T07:51:38.000Z</time>
      </trkpt>
      <trkpt lat="46.022774" lon="6.103001">
        <ele>795.957420</ele>
        <time>2017-06-02T07:51:40.000Z</time>
      </trkpt>
      <trkpt lat="46.022717" lon="6.103101">
        <ele>795.489402</ele>
        <time>2017-06-02T07:51:41.000Z</time>
      </trkpt>
      <trkpt lat="46.022655" lon="6.103200">
        <ele>795.007129</ele>
        <time>2017-06-02T07:51:42.000Z</time>
      </trkpt>
      <trkpt lat="46.022552" lon="6.103397">
        <ele>794.115055</ele>
        <time>2017-06-02T07:51:44.000Z</time>
      </trkpt>
      <trkpt lat="46.022465" lon="6.103584">
        <ele>793.300782</ele>
        <time>2017-06-02T07:51:46.000Z</time>
      </trkpt>
      <trkpt lat="46.022377" lon="6.103750">
        <ele>792.545280</ele>
        <time>2017-06-02T07:51:48.000Z</time>
      </trkpt>
      <trkpt lat="46.022280" lon="6.103876">
        <ele>791.864746</ele>
        <time>2017-06-02T07:51:50.000Z</time>
      </trkpt>
      <trkpt lat="46.022140" lon="6.103933">
        <ele>791.106802</ele>
        <time>2017-06-02T07:51:52.000Z</time>
      </trkpt>
      <trkpt lat="46.021984" lon="6.103966">
        <ele>790.285370</ele>
        <time>2017-06-02T07:51:54.000Z</time>
      </trkpt>
      <trkpt lat="46.021816" lon="6.103976">
        <ele>789.409394</ele>
        <time>2017-06-02T07:51:56.000Z</time>
      </trkpt>
      <trkpt lat="46.021637" lon="6.103990">
        <ele>788.476837</ele>
        <time>2017-06-02T07:51:58.000Z</time>
      </trkpt>
      <trkpt lat="46.021458" lon="6.104009">
        <ele>787.543698</ele>
        <time>2017-06-02T07:52:00.000Z</time>
      </trkpt>
      <trkpt lat="46.021366" lon="6.104017">
        <ele>787.064522</ele>
        <time>2017-06-02T07:52:01.000Z</time>
      </trkpt>
      <trkpt lat="46.021190" lon="6.104029">
        <ele>786.148479</ele>
        <time>2017-06-02T07:52:03.000Z</time>
      </trkpt>
      <trkpt lat="46.021030" lon="6.104045">
        <ele>785.314641</ele>
        <time>2017-06-02T07:52:05.000Z</time>
      </trkpt>
      <trkpt lat="46.020885" lon="6.104048">
        <ele>784.560713</ele>
        <time>2017-06-02T07:52:07.000Z</time>
      </trkpt>
      <trkpt lat="46.020750" lon="6.104050">
        <ele>783.858815</ele>
        <time>2017-06-02T07:52:09.000Z</time>
      </trkpt>
      <trkpt lat="46.020603" lon="6.104036">
        <ele>783.092898</ele>
        <time>2017-06-02T07:52:11.000Z</time>
      </trkpt>
      <trkpt lat="46.020454" lon="6.104018">
        <ele>782.315531</ele>
        <time>2017-06-02T07:52:13.000Z</time>
      </trkpt>
      <trkpt lat="46.020310" lon="6.104022">
        <ele>781.566741</ele>
        <time>2017-06-02T07:52:15.000Z</time>
      </trkpt>
      <trkpt lat="46.020157" lon="6.104086">
        <ele>780.738421</ele>
        <time>2017-06-02T07:52:17.000Z</time>
      </trkpt>
      <trkpt lat="46.020004" lon="6.104178">
        <ele>779.876422</ele>
        <time>2017-06-02T07:52:19.000Z</time>
      </trkpt>
      <trkpt lat="46.019870" lon="6.104287">
        <ele>779.155670</ele>
        <time>2017-06-02T07:52:21.000Z</time>
      </trkpt>
      <trkpt lat="46.019756" lon="6.104377">
        <ele>778.555870</ele>
        <time>2017-06-02T07:52:23.000Z</time>
      </trkpt>
      <trkpt lat="46.019638" lon="6.104449">
        <ele>777.964615</ele>
        <time>2017-06-02T07:52:25.000Z</time>
      </trkpt>
      <trkpt lat="46.019535" lon="6.104506">
        <ele>777.455535</ele>
        <time>2017-06-02T07:52:27.000Z</time>
      </trkpt>
      <trkpt lat="46.019432" lon="6.104542">
        <ele>776.966540</ele>
        <time>2017-06-02T07:52:29.000Z</time>
      </trkpt>
      <trkpt lat="46.019325" lon="6.104564">
        <ele>776.467880</ele>
        <time>2017-06-02T07:52:31.000Z</time>
      </trkpt>
      <trkpt lat="46.019220" lon="6.104583">
        <ele>775.979643</ele>
        <time>2017-06-02T07:52:34.000Z</time>
      </trkpt>
      <trkpt lat="46.019115" lon="6.104676">
        <ele>775.410923</ele>
        <time>2017-06-02T07:53:57.000Z</time>
      </trkpt>
      <trkpt lat="46.019016" lon="6.104709">
        <ele>774.942101</ele>
        <time>2017-06-02T07:54:02.000Z</time>
      </trkpt>
      <trkpt lat="46.018898" lon="6.104763">
        <ele>774.370870</ele>
        <time>2017-06-02T07:54:06.000Z</time>
      </trkpt>
      <trkpt lat="46.018806" lon="6.104811">
        <ele>773.919420</ele>
        <time>2017-06-02T07:54:08.000Z</time>
      </trkpt>
      <trkpt lat="46.018715" lon="6.104852">
        <ele>773.479515</ele>
        <time>2017-06-02T07:54:10.000Z</time>
      </trkpt>
      <trkpt lat="46.018612" lon="6.104869">
        <ele>773.001204</ele>
        <time>2017-06-02T07:54:13.000Z</time>
      </trkpt>
      <trkpt lat="46.018494" lon="6.104876">
        <ele>772.456339</ele>
        <time>2017-06-02T07:54:18.000Z</time>
      </trkpt>
      <trkpt lat="46.018406" lon="6.104950">
        <ele>771.986190</ele>
        <time>2017-06-02T07:54:21.000Z</time>
      </trkpt>
      <trkpt lat="46.018295" lon="6.105001">
        <ele>771.436980</ele>
        <time>2017-06-02T07:54:24.000Z</time>
      </trkpt>
      <trkpt lat="46.018177" lon="6.105070">
        <ele>770.649776</ele>
        <time>2017-06-02T07:54:27.000Z</time>
      </trkpt>
      <trkpt lat="46.018100" lon="6.105143">
        <ele>770.079950</ele>
        <time>2017-06-02T07:54:29.000Z</time>
      </trkpt>
      <trkpt lat="46.018024" lon="6.105228">
        <ele>769.485149</ele>
        <time>2017-06-02T07:54:31.000Z</time>
      </trkpt>
      <trkpt lat="46.017950" lon="6.105330">
        <ele>768.851984</ele>
        <time>2017-06-02T07:54:33.000Z</time>
      </trkpt>
      <trkpt lat="46.017860" lon="6.105429">
        <ele>768.151956</ele>
        <time>2017-06-02T07:54:35.000Z</time>
      </trkpt>
      <trkpt lat="46.017776" lon="6.105542">
        <ele>767.441438</ele>
        <time>2017-06-02T07:54:38.000Z</time>
      </trkpt>
      <trkpt lat="46.017700" lon="6.105641">
        <ele>766.807994</ele>
        <time>2017-06-02T07:54:39.000Z</time>
      </trkpt>
      <trkpt lat="46.017628" lon="6.105743">
        <ele>766.183699</ele>
        <time>2017-06-02T07:54:41.000Z</time>
      </trkpt>
      <trkpt lat="46.017563" lon="6.105837">
        <ele>765.614300</ele>
        <time>2017-06-02T07:54:43.000Z</time>
      </trkpt>
      <trkpt lat="46.017460" lon="6.105967">
        <ele>764.767722</ele>
        <time>2017-06-02T07:54:46.000Z</time>
      </trkpt>
      <trkpt lat="46.017387" lon="6.106047">
        <ele>764.200700</ele>
        <time>2017-06-02T07:54:48.000Z</time>
      </trkpt>
      <trkpt lat="46.017303" lon="6.106119">
        <ele>763.596473</ele>
        <time>2017-06-02T07:54:50.000Z</time>
      </trkpt>
      <trkpt lat="46.017216" lon="6.106165">
        <ele>763.023617</ele>
        <time>2017-06-02T07:54:52.000Z</time>
      </trkpt>
      <trkpt lat="46.017120" lon="6.106183">
        <ele>762.425227</ele>
        <time>2017-06-02T07:54:54.000Z</time>
      </trkpt>
      <trkpt lat="46.016994" lon="6.106154">
        <ele>761.636528</ele>
        <time>2017-06-02T07:54:57.000Z</time>
      </trkpt>
      <trkpt lat="46.016890" lon="6.106118">
        <ele>760.975386</ele>
        <time>2017-06-02T07:55:00.000Z</time>
      </trkpt>
      <trkpt lat="46.016766" lon="6.106091">
        <ele>760.201861</ele>
        <time>2017-06-02T07:55:03.000Z</time>
      </trkpt>
      <trkpt lat="46.016655" lon="6.106069">
        <ele>759.516167</ele>
        <time>2017-06-02T07:55:05.000Z</time>
      </trkpt>
      <trkpt lat="46.016530" lon="6.106042">
        <ele>758.742642</ele>
        <time>2017-06-02T07:55:07.000Z</time>
      </trkpt>
      <trkpt lat="46.016403" lon="6.106012">
        <ele>757.955047</ele>
        <time>2017-06-02T07:55:09.000Z</time>
      </trkpt>
      <trkpt lat="46.016273" lon="6.106007">
        <ele>757.159198</ele>
        <time>2017-06-02T07:55:11.000Z</time>
      </trkpt>
      <trkpt lat="46.016144" lon="6.106052">
        <ele>756.346918</ele>
        <time>2017-06-02T07:55:13.000Z</time>
      </trkpt>
      <trkpt lat="46.016030" lon="6.106177">
        <ele>755.470033</ele>
        <time>2017-06-02T07:55:15.000Z</time>
      </trkpt>
      <trkpt lat="46.015950" lon="6.106364">
        <ele>754.536607</ele>
        <time>2017-06-02T07:55:17.000Z</time>
      </trkpt>
      <trkpt lat="46.015890" lon="6.106579">
        <ele>753.551861</ele>
        <time>2017-06-02T07:55:19.000Z</time>
      </trkpt>
      <trkpt lat="46.015835" lon="6.106790">
        <ele>752.594044</ele>
        <time>2017-06-02T07:55:21.000Z</time>
      </trkpt>
      <trkpt lat="46.015774" lon="6.107000">
        <ele>751.626636</ele>
        <time>2017-06-02T07:55:23.000Z</time>
      </trkpt>
      <trkpt lat="46.015717" lon="6.107200">
        <ele>750.707859</ele>
        <time>2017-06-02T07:55:25.000Z</time>
      </trkpt>
      <trkpt lat="46.015667" lon="6.107403">
        <ele>749.792470</ele>
        <time>2017-06-02T07:55:27.000Z</time>
      </trkpt>
      <trkpt lat="46.015614" lon="6.107592">
        <ele>748.989084</ele>
        <time>2017-06-02T07:55:29.000Z</time>
      </trkpt>
      <trkpt lat="46.015568" lon="6.107766">
        <ele>748.312959</ele>
        <time>2017-06-02T07:55:31.000Z</time>
      </trkpt>
      <trkpt lat="46.015526" lon="6.107936">
        <ele>747.657693</ele>
        <time>2017-06-02T07:55:33.000Z</time>
      </trkpt>
      <trkpt lat="46.015480" lon="6.108118">
        <ele>746.954339</ele>
        <time>2017-06-02T07:55:35.000Z</time>
      </trkpt>
      <trkpt lat="46.015438" lon="6.108313">
        <ele>746.212910</ele>
        <time>2017-06-02T07:55:37.000Z</time>
      </trkpt>
      <trkpt lat="46.015404" lon="6.108513">
        <ele>745.465155</ele>
        <time>2017-06-02T07:55:39.000Z</time>
      </trkpt>
      <trkpt lat="46.015377" lon="6.108712">
        <ele>744.728813</ele>
        <time>2017-06-02T07:55:41.000Z</time>
      </trkpt>
      <trkpt lat="46.015370" lon="6.108923">
        <ele>743.961681</ele>
        <time>2017-06-02T07:55:43.000Z</time>
      </trkpt>
      <trkpt lat="46.015340" lon="6.109127">
        <ele>743.204416</ele>
        <time>2017-06-02T07:55:45.000Z</time>
      </trkpt>
      <trkpt lat="46.015320" lon="6.109317">
        <ele>742.506539</ele>
        <time>2017-06-02T07:55:47.000Z</time>
      </trkpt>
      <trkpt lat="46.015300" lon="6.109509">
        <ele>741.801480</ele>
        <time>2017-06-02T07:55:49.000Z</time>
      </trkpt>
      <trkpt lat="46.015280" lon="6.109697">
        <ele>741.110782</ele>
        <time>2017-06-02T07:55:51.000Z</time>
      </trkpt>
      <trkpt lat="46.015260" lon="6.109890">
        <ele>740.402131</ele>
        <time>2017-06-02T07:55:53.000Z</time>
      </trkpt>
      <trkpt lat="46.015232" lon="6.110077">
        <ele>739.558126</ele>
        <time>2017-06-02T07:55:55.000Z</time>
      </trkpt>
      <trkpt lat="46.015217" lon="6.110267">
        <ele>738.440880</ele>
        <time>2017-06-02T07:55:57.000Z</time>
      </trkpt>
      <trkpt lat="46.015205" lon="6.110444">
        <ele>737.401821</ele>
        <time>2017-06-02T07:55:59.000Z</time>
      </trkpt>
      <trkpt lat="46.015190" lon="6.110605">
        <ele>736.452733</ele>
        <time>2017-06-02T07:56:01.000Z</time>
      </trkpt>
      <trkpt lat="46.015175" lon="6.110751">
        <ele>735.590427</ele>
        <time>2017-06-02T07:56:03.000Z</time>
      </trkpt>
      <trkpt lat="46.015150" lon="6.110930">
        <ele>734.523659</ele>
        <time>2017-06-02T07:56:06.000Z</time>
      </trkpt>
      <trkpt lat="46.015070" lon="6.111056">
        <ele>733.526193</ele>
        <time>2017-06-02T07:56:09.000Z</time>
      </trkpt>
      <trkpt lat="46.014990" lon="6.111153">
        <ele>732.646318</ele>
        <time>2017-06-02T07:56:12.000Z</time>
      </trkpt>
      <trkpt lat="46.014910" lon="6.111208">
        <ele>731.900493</ele>
        <time>2017-06-02T07:56:15.000Z</time>
      </trkpt>
      <trkpt lat="46.014824" lon="6.111246">
        <ele>731.143669</ele>
        <time>2017-06-02T07:56:18.000Z</time>
      </trkpt>
      <trkpt lat="46.014744" lon="6.111307">
        <ele>730.382083</ele>
        <time>2017-06-02T07:56:21.000Z</time>
      </trkpt>
      <trkpt lat="46.014755" lon="6.111446">
        <ele>729.564697</ele>
        <time>2017-06-02T07:56:24.000Z</time>
      </trkpt>
      <trkpt lat="46.014800" lon="6.111617">
        <ele>728.496278</ele>
        <time>2017-06-02T07:56:27.000Z</time>
      </trkpt>
      <trkpt lat="46.014843" lon="6.111748">
        <ele>727.649703</ele>
        <time>2017-06-02T07:56:29.000Z</time>
      </trkpt>
      <trkpt lat="46.014904" lon="6.111847">
        <ele>726.876434</ele>
        <time>2017-06-02T07:56:31.000Z</time>
      </trkpt>
      <trkpt lat="46.015010" lon="6.111947">
        <ele>725.810297</ele>
        <time>2017-06-02T07:56:34.000Z</time>
      </trkpt>
      <trkpt lat="46.015118" lon="6.112003">
        <ele>724.844570</ele>
        <time>2017-06-02T07:56:37.000Z</time>
      </trkpt>
      <trkpt lat="46.015144" lon="6.112142">
        <ele>724.440885</ele>
        <time>2017-06-02T07:56:41.000Z</time>
      </trkpt>
      <trkpt lat="46.015045" lon="6.112158">
        <ele>724.051451</ele>
        <time>2017-06-02T07:56:44.000Z</time>
      </trkpt>
      <trkpt lat="46.014954" lon="6.112086">
        <ele>723.645555</ele>
        <time>2017-06-02T07:56:47.000Z</time>
      </trkpt>
      <trkpt lat="46.014870" lon="6.112031">
        <ele>723.284834</ele>
        <time>2017-06-02T07:56:49.000Z</time>
      </trkpt>
      <trkpt lat="46.014782" lon="6.111998">
        <ele>722.929356</ele>
        <time>2017-06-02T07:56:51.000Z</time>
      </trkpt>
      <trkpt lat="46.014694" lon="6.111955">
        <ele>722.566084</ele>
        <time>2017-06-02T07:56:53.000Z</time>
      </trkpt>
      <trkpt lat="46.014580" lon="6.111907">
        <ele>722.101781</ele>
        <time>2017-06-02T07:56:56.000Z</time>
      </trkpt>
      <trkpt lat="46.014473" lon="6.111881">
        <ele>721.677589</ele>
        <time>2017-06-02T07:56:59.000Z</time>
      </trkpt>
      <trkpt lat="46.014355" lon="6.111860">
        <ele>721.212801</ele>
        <time>2017-06-02T07:57:02.000Z</time>
      </trkpt>
      <trkpt lat="46.014230" lon="6.111870">
        <ele>720.723405</ele>
        <time>2017-06-02T07:57:05.000Z</time>
      </trkpt>
      <trkpt lat="46.014114" lon="6.111865">
        <ele>720.269742</ele>
        <time>2017-06-02T07:57:08.000Z</time>
      </trkpt>
      <trkpt lat="46.014010" lon="6.111777">
        <ele>719.798193</ele>
        <time>2017-06-02T07:57:11.000Z</time>
      </trkpt>
      <trkpt lat="46.013950" lon="6.111669">
        <ele>719.422720</ele>
        <time>2017-06-02T07:57:15.000Z</time>
      </trkpt>
      <trkpt lat="46.013844" lon="6.111602">
        <ele>718.970186</ele>
        <time>2017-06-02T07:57:21.000Z</time>
      </trkpt>
      <trkpt lat="46.013706" lon="6.111659">
        <ele>718.408969</ele>
        <time>2017-06-02T07:57:24.000Z</time>
      </trkpt>
      <trkpt lat="46.013600" lon="6.111739">
        <ele>717.941132</ele>
        <time>2017-06-02T07:57:26.000Z</time>
      </trkpt>
      <trkpt lat="46.013485" lon="6.111819">
        <ele>717.656419</ele>
        <time>2017-06-02T07:57:28.000Z</time>
      </trkpt>
      <trkpt lat="46.013367" lon="6.111875">
        <ele>717.470609</ele>
        <time>2017-06-02T07:57:30.000Z</time>
      </trkpt>
      <trkpt lat="46.013280" lon="6.111924">
        <ele>717.330899</ele>
        <time>2017-06-02T07:57:32.000Z</time>
      </trkpt>
      <trkpt lat="46.013180" lon="6.111862">
        <ele>717.168073</ele>
        <time>2017-06-02T07:57:35.000Z</time>
      </trkpt>
      <trkpt lat="46.013107" lon="6.111764">
        <ele>717.018811</ele>
        <time>2017-06-02T07:57:38.000Z</time>
      </trkpt>
      <trkpt lat="46.013016" lon="6.111671">
        <ele>716.851924</ele>
        <time>2017-06-02T07:57:42.000Z</time>
      </trkpt>
      <trkpt lat="46.012905" lon="6.111612">
        <ele>716.674971</ele>
        <time>2017-06-02T07:57:46.000Z</time>
      </trkpt>
      <trkpt lat="46.012806" lon="6.111589">
        <ele>716.525000</ele>
        <time>2017-06-02T07:57:49.000Z</time>
      </trkpt>
      <trkpt lat="46.012688" lon="6.111557">
        <ele>716.345425</ele>
        <time>2017-06-02T07:57:52.000Z</time>
      </trkpt>
      <trkpt lat="46.012730" lon="6.111682">
        <ele>716.201199</ele>
        <time>2017-06-02T07:58:02.000Z</time>
      </trkpt>
      <trkpt lat="46.012833" lon="6.111735">
        <ele>716.037620</ele>
        <time>2017-06-02T07:58:07.000Z</time>
      </trkpt>
      <trkpt lat="46.012928" lon="6.111757">
        <ele>715.893720</ele>
        <time>2017-06-02T07:58:11.000Z</time>
      </trkpt>
      <trkpt lat="46.013027" lon="6.111738">
        <ele>715.744354</ele>
        <time>2017-06-02T07:58:16.000Z</time>
      </trkpt>
      <trkpt lat="46.012960" lon="6.111624">
        <ele>715.589242</ele>
        <time>2017-06-02T07:58:28.000Z</time>
      </trkpt>
      <trkpt lat="46.012867" lon="6.111596">
        <ele>715.447151</ele>
        <time>2017-06-02T07:58:32.000Z</time>
      </trkpt>
      <trkpt lat="46.012760" lon="6.111571">
        <ele>715.285037</ele>
        <time>2017-06-02T07:58:36.000Z</time>
      </trkpt>
      <trkpt lat="46.012660" lon="6.111539">
        <ele>715.131836</ele>
        <time>2017-06-02T07:58:40.000Z</time>
      </trkpt>
      <trkpt lat="46.012560" lon="6.111511">
        <ele>715.226877</ele>
        <time>2017-06-02T07:58:44.000Z</time>
      </trkpt>
      <trkpt lat="46.012460" lon="6.111485">
        <ele>715.388300</ele>
        <time>2017-06-02T07:58:48.000Z</time>
      </trkpt>
      <trkpt lat="46.012360" lon="6.111455">
        <ele>715.550566</ele>
        <time>2017-06-02T07:58:52.000Z</time>
      </trkpt>
      <trkpt lat="46.012253" lon="6.111430">
        <ele>715.722763</ele>
        <time>2017-06-02T07:58:56.000Z</time>
      </trkpt>
      <trkpt lat="46.012135" lon="6.111404">
        <ele>715.912393</ele>
        <time>2017-06-02T07:59:00.000Z</time>
      </trkpt>
      <trkpt lat="46.012040" lon="6.111376">
        <ele>716.066434</ele>
        <time>2017-06-02T07:59:03.000Z</time>
      </trkpt>
      <trkpt lat="46.011936" lon="6.111356">
        <ele>716.233109</ele>
        <time>2017-06-02T07:59:06.000Z</time>
      </trkpt>
      <trkpt lat="46.011840" lon="6.111328">
        <ele>716.388706</ele>
        <time>2017-06-02T07:59:09.000Z</time>
      </trkpt>
      <trkpt lat="46.011753" lon="6.111301">
        <ele>716.530083</ele>
        <time>2017-06-02T07:59:12.000Z</time>
      </trkpt>
      <trkpt lat="46.011658" lon="6.111255">
        <ele>716.689300</ele>
        <time>2017-06-02T07:59:16.000Z</time>
      </trkpt>
      <trkpt lat="46.011765" lon="6.111292">
        <ele>716.864106</ele>
        <time>2017-06-02T07:59:54.000Z</time>
      </trkpt>
      <trkpt lat="46.011864" lon="6.111330">
        <ele>717.026864</ele>
        <time>2017-06-02T07:59:58.000Z</time>
      </trkpt>
      <trkpt lat="46.011960" lon="6.111352">
        <ele>717.181284</ele>
        <time>2017-06-02T08:00:02.000Z</time>
      </trkpt>
      <trkpt lat="46.011868" lon="6.111302">
        <ele>717.337494</ele>
        <time>2017-06-02T08:02:42.000Z</time>
      </trkpt>
      <trkpt lat="46.011757" lon="6.111270">
        <ele>717.517321</ele>
        <time>2017-06-02T08:02:46.000Z</time>
      </trkpt>
      <trkpt lat="46.011654" lon="6.111241">
        <ele>717.684040</ele>
        <time>2017-06-02T08:02:49.000Z</time>
      </trkpt>
      <trkpt lat="46.011550" lon="6.111238">
        <ele>717.849282</ele>
        <time>2017-06-02T08:03:11.000Z</time>
      </trkpt>
      <trkpt lat="46.011456" lon="6.111219">
        <ele>717.932291</ele>
        <time>2017-06-02T08:03:14.000Z</time>
      </trkpt>
      <trkpt lat="46.011340" lon="6.111184">
        <ele>717.826537</ele>
        <time>2017-06-02T08:03:17.000Z</time>
      </trkpt>
      <trkpt lat="46.011215" lon="6.111150">
        <ele>717.713028</ele>
        <time>2017-06-02T08:03:20.000Z</time>
      </trkpt>
      <trkpt lat="46.011093" lon="6.111122">
        <ele>717.602794</ele>
        <time>2017-06-02T08:03:23.000Z</time>
      </trkpt>
      <trkpt lat="46.010983" lon="6.111082">
        <ele>717.501560</ele>
        <time>2017-06-02T08:03:26.000Z</time>
      </trkpt>
      <trkpt lat="46.010890" lon="6.111063">
        <ele>717.417745</ele>
        <time>2017-06-02T08:03:29.000Z</time>
      </trkpt>
      <trkpt lat="46.010803" lon="6.111112">
        <ele>717.334388</ele>
        <time>2017-06-02T08:03:34.000Z</time>
      </trkpt>
      <trkpt lat="46.010727" lon="6.111225">
        <ele>717.236906</ele>
        <time>2017-06-02T08:03:40.000Z</time>
      </trkpt>
      <trkpt lat="46.010666" lon="6.111351">
        <ele>717.141724</ele>
        <time>2017-06-02T08:03:44.000Z</time>
      </trkpt>
      <trkpt lat="46.010612" lon="6.111464">
        <ele>717.056720</ele>
        <time>2017-06-02T08:03:47.000Z</time>
      </trkpt>
      <trkpt lat="46.010555" lon="6.111591">
        <ele>716.963012</ele>
        <time>2017-06-02T08:03:50.000Z</time>
      </trkpt>
      <trkpt lat="46.010498" lon="6.111720">
        <ele>716.868260</ele>
        <time>2017-06-02T08:03:53.000Z</time>
      </trkpt>
      <trkpt lat="46.010437" lon="6.111846">
        <ele>716.773077</ele>
        <time>2017-06-02T08:03:56.000Z</time>
      </trkpt>
      <trkpt lat="46.010370" lon="6.111959">
        <ele>716.681001</ele>
        <time>2017-06-02T08:03:59.000Z</time>
      </trkpt>
      <trkpt lat="46.010290" lon="6.112054">
        <ele>716.588471</ele>
        <time>2017-06-02T08:04:02.000Z</time>
      </trkpt>
      <trkpt lat="46.010230" lon="6.112175">
        <ele>716.496334</ele>
        <time>2017-06-02T08:04:05.000Z</time>
      </trkpt>
      <trkpt lat="46.010178" lon="6.112299">
        <ele>716.406567</ele>
        <time>2017-06-02T08:04:09.000Z</time>
      </trkpt>
      <trkpt lat="46.007885" lon="6.117141">
        <ele>707.068824</ele>
        <time>2017-06-02T08:08:58.000Z</time>
      </trkpt>
      <trkpt lat="46.007810" lon="6.117319">
        <ele>706.927922</ele>
        <time>2017-06-02T08:09:00.000Z</time>
      </trkpt>
      <trkpt lat="46.007706" lon="6.117455">
        <ele>706.791022</ele>
        <time>2017-06-02T08:09:02.000Z</time>
      </trkpt>
      <trkpt lat="46.007607" lon="6.117592">
        <ele>706.657220</ele>
        <time>2017-06-02T08:09:04.000Z</time>
      </trkpt>
      <trkpt lat="46.007496" lon="6.117710">
        <ele>706.522771</ele>
        <time>2017-06-02T08:09:06.000Z</time>
      </trkpt>
      <trkpt lat="46.007378" lon="6.117807">
        <ele>706.390369</ele>
        <time>2017-06-02T08:09:08.000Z</time>
      </trkpt>
      <trkpt lat="46.007260" lon="6.117888">
        <ele>706.262988</ele>
        <time>2017-06-02T08:09:10.000Z</time>
      </trkpt>
      <trkpt lat="46.007140" lon="6.117958">
        <ele>706.136825</ele>
        <time>2017-06-02T08:09:12.000Z</time>
      </trkpt>
      <trkpt lat="46.007027" lon="6.118029">
        <ele>706.016688</ele>
        <time>2017-06-02T08:09:14.000Z</time>
      </trkpt>
      <trkpt lat="46.006893" lon="6.118106">
        <ele>705.876101</ele>
        <time>2017-06-02T08:09:16.000Z</time>
      </trkpt>
      <trkpt lat="46.006767" lon="6.118182">
        <ele>705.742985</ele>
        <time>2017-06-02T08:09:18.000Z</time>
      </trkpt>
      <trkpt lat="46.006640" lon="6.118261">
        <ele>705.539017</ele>
        <time>2017-06-02T08:09:20.000Z</time>
      </trkpt>
      <trkpt lat="46.006520" lon="6.118334">
        <ele>705.331607</ele>
        <time>2017-06-02T08:09:22.000Z</time>
      </trkpt>
      <trkpt lat="46.006397" lon="6.118415">
        <ele>705.116262</ele>
        <time>2017-06-02T08:09:24.000Z</time>
      </trkpt>
      <trkpt lat="46.006268" lon="6.118485">
        <ele>704.896773</ele>
        <time>2017-06-02T08:09:26.000Z</time>
      </trkpt>
      <trkpt lat="46.006134" lon="6.118563">
        <ele>704.666651</ele>
        <time>2017-06-02T08:09:28.000Z</time>
      </trkpt>
      <trkpt lat="46.006004" lon="6.118644">
        <ele>704.441122</ele>
        <time>2017-06-02T08:09:30.000Z</time>
      </trkpt>
      <trkpt lat="46.005867" lon="6.118726">
        <ele>704.204902</ele>
        <time>2017-06-02T08:09:32.000Z</time>
      </trkpt>
      <trkpt lat="46.005737" lon="6.118811">
        <ele>703.977581</ele>
        <time>2017-06-02T08:09:34.000Z</time>
      </trkpt>
      <trkpt lat="46.005615" lon="6.118887">
        <ele>703.765938</ele>
        <time>2017-06-02T08:09:36.000Z</time>
      </trkpt>
      <trkpt lat="46.005500" lon="6.118953">
        <ele>703.568831</ele>
        <time>2017-06-02T08:09:38.000Z</time>
      </trkpt>
      <trkpt lat="46.005386" lon="6.119007">
        <ele>703.377757</ele>
        <time>2017-06-02T08:09:40.000Z</time>
      </trkpt>
      <trkpt lat="46.005280" lon="6.119048">
        <ele>703.203007</ele>
        <time>2017-06-02T08:09:42.000Z</time>
      </trkpt>
      <trkpt lat="46.005177" lon="6.119038">
        <ele>703.038646</ele>
        <time>2017-06-02T08:09:44.000Z</time>
      </trkpt>
      <trkpt lat="46.005047" lon="6.119143">
        <ele>702.797972</ele>
        <time>2017-06-02T08:09:47.000Z</time>
      </trkpt>
      <trkpt lat="46.004982" lon="6.119243">
        <ele>702.636811</ele>
        <time>2017-06-02T08:09:49.000Z</time>
      </trkpt>
      <trkpt lat="46.004898" lon="6.119302">
        <ele>702.478472</ele>
        <time>2017-06-02T08:09:51.000Z</time>
      </trkpt>
      <trkpt lat="46.004784" lon="6.119371">
        <ele>702.268968</ele>
        <time>2017-06-02T08:09:54.000Z</time>
      </trkpt>
      <trkpt lat="46.004658" lon="6.119444">
        <ele>702.038871</ele>
        <time>2017-06-02T08:09:57.000Z</time>
      </trkpt>
      <trkpt lat="46.004494" lon="6.119546">
        <ele>701.736217</ele>
        <time>2017-06-02T08:10:01.000Z</time>
      </trkpt>
      <trkpt lat="46.004410" lon="6.119597">
        <ele>701.581773</ele>
        <time>2017-06-02T08:10:03.000Z</time>
      </trkpt>
      <trkpt lat="46.004322" lon="6.119649">
        <ele>701.420621</ele>
        <time>2017-06-02T08:10:05.000Z</time>
      </trkpt>
      <trkpt lat="46.004192" lon="6.119713">
        <ele>701.187864</ele>
        <time>2017-06-02T08:10:08.000Z</time>
      </trkpt>
      <trkpt lat="46.004105" lon="6.119764">
        <ele>701.028725</ele>
        <time>2017-06-02T08:10:10.000Z</time>
      </trkpt>
      <trkpt lat="46.004010" lon="6.119823">
        <ele>700.853446</ele>
        <time>2017-06-02T08:10:12.000Z</time>
      </trkpt>
      <trkpt lat="46.003853" lon="6.119910">
        <ele>700.568445</ele>
        <time>2017-06-02T08:10:15.000Z</time>
      </trkpt>
      <trkpt lat="46.003746" lon="6.119983">
        <ele>700.367850</ele>
        <time>2017-06-02T08:10:17.000Z</time>
      </trkpt>
      <trkpt lat="46.003635" lon="6.120060">
        <ele>700.159110</ele>
        <time>2017-06-02T08:10:19.000Z</time>
      </trkpt>
      <trkpt lat="46.003460" lon="6.120171">
        <ele>699.835138</ele>
        <time>2017-06-02T08:10:22.000Z</time>
      </trkpt>
      <trkpt lat="46.003340" lon="6.120245">
        <ele>699.484871</ele>
        <time>2017-06-02T08:10:24.000Z</time>
      </trkpt>
      <trkpt lat="46.003220" lon="6.120306">
        <ele>699.124678</ele>
        <time>2017-06-02T08:10:26.000Z</time>
      </trkpt>
      <trkpt lat="46.003050" lon="6.120407">
        <ele>698.604157</ele>
        <time>2017-06-02T08:10:29.000Z</time>
      </trkpt>
      <trkpt lat="46.002940" lon="6.120479">
        <ele>698.262150</ele>
        <time>2017-06-02T08:10:31.000Z</time>
      </trkpt>
      <trkpt lat="46.002830" lon="6.120545">
        <ele>697.924854</ele>
        <time>2017-06-02T08:10:33.000Z</time>
      </trkpt>
      <trkpt lat="46.002670" lon="6.120635">
        <ele>697.438658</ele>
        <time>2017-06-02T08:10:36.000Z</time>
      </trkpt>
      <trkpt lat="46.002563" lon="6.120700">
        <ele>697.109953</ele>
        <time>2017-06-02T08:10:38.000Z</time>
      </trkpt>
      <trkpt lat="46.002460" lon="6.120765">
        <ele>696.791648</ele>
        <time>2017-06-02T08:10:40.000Z</time>
      </trkpt>
      <trkpt lat="46.002310" lon="6.120876">
        <ele>696.314292</ele>
        <time>2017-06-02T08:10:43.000Z</time>
      </trkpt>
      <trkpt lat="46.002205" lon="6.120937">
        <ele>695.993820</ele>
        <time>2017-06-02T08:10:45.000Z</time>
      </trkpt>
      <trkpt lat="46.002094" lon="6.121008">
        <ele>695.650037</ele>
        <time>2017-06-02T08:10:47.000Z</time>
      </trkpt>
      <trkpt lat="46.001976" lon="6.121067">
        <ele>695.296485</ele>
        <time>2017-06-02T08:10:49.000Z</time>
      </trkpt>
      <trkpt lat="46.001854" lon="6.121135">
        <ele>694.926206</ele>
        <time>2017-06-02T08:10:51.000Z</time>
      </trkpt>
      <trkpt lat="46.001740" lon="6.121203">
        <ele>694.705549</ele>
        <time>2017-06-02T08:10:53.000Z</time>
      </trkpt>
      <trkpt lat="46.001614" lon="6.121277">
        <ele>694.677380</ele>
        <time>2017-06-02T08:10:55.000Z</time>
      </trkpt>
      <trkpt lat="46.001500" lon="6.121354">
        <ele>694.651313</ele>
        <time>2017-06-02T08:10:57.000Z</time>
      </trkpt>
      <trkpt lat="46.001373" lon="6.121434">
        <ele>694.622617</ele>
        <time>2017-06-02T08:10:59.000Z</time>
      </trkpt>
      <trkpt lat="46.001260" lon="6.121509">
        <ele>694.596859</ele>
        <time>2017-06-02T08:11:01.000Z</time>
      </trkpt>
      <trkpt lat="46.001156" lon="6.121576">
        <ele>694.573273</ele>
        <time>2017-06-02T08:11:03.000Z</time>
      </trkpt>
      <trkpt lat="46.001045" lon="6.121643">
        <ele>694.548357</ele>
        <time>2017-06-02T08:11:05.000Z</time>
      </trkpt>
      <trkpt lat="46.000923" lon="6.121704">
        <ele>694.521623</ele>
        <time>2017-06-02T08:11:07.000Z</time>
      </trkpt>
      <trkpt lat="46.000805" lon="6.121766">
        <ele>694.495620</ele>
        <time>2017-06-02T08:11:09.000Z</time>
      </trkpt>
      <trkpt lat="46.000690" lon="6.121836">
        <ele>694.469774</ele>
        <time>2017-06-02T08:11:11.000Z</time>
      </trkpt>
      <trkpt lat="46.000576" lon="6.121894">
        <ele>694.444745</ele>
        <time>2017-06-02T08:11:13.000Z</time>
      </trkpt>
      <trkpt lat="46.000458" lon="6.121953">
        <ele>694.418887</ele>
        <time>2017-06-02T08:11:15.000Z</time>
      </trkpt>
      <trkpt lat="46.000343" lon="6.122017">
        <ele>694.393364</ele>
        <time>2017-06-02T08:11:17.000Z</time>
      </trkpt>
      <trkpt lat="46.000225" lon="6.122086">
        <ele>694.366999</ele>
        <time>2017-06-02T08:11:19.000Z</time>
      </trkpt>
      <trkpt lat="46.000107" lon="6.122152">
        <ele>694.335283</ele>
        <time>2017-06-02T08:11:21.000Z</time>
      </trkpt>
      <trkpt lat="45.999992" lon="6.122222">
        <ele>694.254130</ele>
        <time>2017-06-02T08:11:23.000Z</time>
      </trkpt>
      <trkpt lat="45.999874" lon="6.122302">
        <ele>694.169355</ele>
        <time>2017-06-02T08:11:25.000Z</time>
      </trkpt>
      <trkpt lat="45.999756" lon="6.122378">
        <ele>694.085334</ele>
        <time>2017-06-02T08:11:27.000Z</time>
      </trkpt>
      <trkpt lat="45.999634" lon="6.122458">
        <ele>693.998200</ele>
        <time>2017-06-02T08:11:29.000Z</time>
      </trkpt>
      <trkpt lat="45.999516" lon="6.122540">
        <ele>693.913036</ele>
        <time>2017-06-02T08:11:31.000Z</time>
      </trkpt>
      <trkpt lat="45.999400" lon="6.122644">
        <ele>693.824214</ele>
        <time>2017-06-02T08:11:33.000Z</time>
      </trkpt>
      <trkpt lat="45.999283" lon="6.122708">
        <ele>693.742864</ele>
        <time>2017-06-02T08:11:35.000Z</time>
      </trkpt>
      <trkpt lat="45.999165" lon="6.122742">
        <ele>693.664648</ele>
        <time>2017-06-02T08:11:37.000Z</time>
      </trkpt>
      <trkpt lat="45.999054" lon="6.122804">
        <ele>693.587262</ele>
        <time>2017-06-02T08:11:39.000Z</time>
      </trkpt>
      <trkpt lat="45.998943" lon="6.122873">
        <ele>693.508677</ele>
        <time>2017-06-02T08:11:41.000Z</time>
      </trkpt>
      <trkpt lat="45.998837" lon="6.122938">
        <ele>693.433791</ele>
        <time>2017-06-02T08:11:43.000Z</time>
      </trkpt>
      <trkpt lat="45.998745" lon="6.122946">
        <ele>693.373886</ele>
        <time>2017-06-02T08:11:45.000Z</time>
      </trkpt>
      <trkpt lat="45.998640" lon="6.122956">
        <ele>693.305491</ele>
        <time>2017-06-02T08:11:48.000Z</time>
      </trkpt>
      <trkpt lat="45.998554" lon="6.123067">
        <ele>693.230417</ele>
        <time>2017-06-02T08:11:51.000Z</time>
      </trkpt>
      <trkpt lat="45.998505" lon="6.123185">
        <ele>693.159480</ele>
        <time>2017-06-02T08:11:53.000Z</time>
      </trkpt>
      <trkpt lat="45.998410" lon="6.123258">
        <ele>692.985734</ele>
        <time>2017-06-02T08:11:55.000Z</time>
      </trkpt>
      <trkpt lat="45.998306" lon="6.123319">
        <ele>692.804545</ele>
        <time>2017-06-02T08:11:57.000Z</time>
      </trkpt>
      <trkpt lat="45.998196" lon="6.123395">
        <ele>692.607685</ele>
        <time>2017-06-02T08:11:59.000Z</time>
      </trkpt>
      <trkpt lat="45.998077" lon="6.123452">
        <ele>692.405339</ele>
        <time>2017-06-02T08:12:01.000Z</time>
      </trkpt>
      <trkpt lat="45.997955" lon="6.123516">
        <ele>692.195839</ele>
        <time>2017-06-02T08:12:03.000Z</time>
      </trkpt>
      <trkpt lat="45.997833" lon="6.123583">
        <ele>691.985164</ele>
        <time>2017-06-02T08:12:05.000Z</time>
      </trkpt>
      <trkpt lat="45.997710" lon="6.123656">
        <ele>691.770508</ele>
        <time>2017-06-02T08:12:07.000Z</time>
      </trkpt>
      <trkpt lat="45.997578" lon="6.123732">
        <ele>691.541133</ele>
        <time>2017-06-02T08:12:09.000Z</time>
      </trkpt>
      <trkpt lat="45.997444" lon="6.123809">
        <ele>691.308346</ele>
        <time>2017-06-02T08:12:11.000Z</time>
      </trkpt>
      <trkpt lat="45.997310" lon="6.123894">
        <ele>691.072088</ele>
        <time>2017-06-02T08:12:13.000Z</time>
      </trkpt>
      <trkpt lat="45.997177" lon="6.123974">
        <ele>690.839523</ele>
        <time>2017-06-02T08:12:15.000Z</time>
      </trkpt>
      <trkpt lat="45.997044" lon="6.124056">
        <ele>690.606084</ele>
        <time>2017-06-02T08:12:17.000Z</time>
      </trkpt>
      <trkpt lat="45.996925" lon="6.124135">
        <ele>690.394653</ele>
        <time>2017-06-02T08:12:19.000Z</time>
      </trkpt>
      <trkpt lat="45.996807" lon="6.124207">
        <ele>690.309918</ele>
        <time>2017-06-02T08:12:21.000Z</time>
      </trkpt>
      <trkpt lat="45.996693" lon="6.124274">
        <ele>690.398220</ele>
        <time>2017-06-02T08:12:23.000Z</time>
      </trkpt>
      <trkpt lat="45.996582" lon="6.124327">
        <ele>690.482084</ele>
        <time>2017-06-02T08:12:25.000Z</time>
      </trkpt>
      <trkpt lat="45.996464" lon="6.124371">
        <ele>690.569497</ele>
        <time>2017-06-02T08:12:27.000Z</time>
      </trkpt>
      <trkpt lat="45.996353" lon="6.124408">
        <ele>690.651202</ele>
        <time>2017-06-02T08:12:29.000Z</time>
      </trkpt>
      <trkpt lat="45.996243" lon="6.124433">
        <ele>690.731062</ele>
        <time>2017-06-02T08:12:31.000Z</time>
      </trkpt>
      <trkpt lat="45.996140" lon="6.124457">
        <ele>690.805886</ele>
        <time>2017-06-02T08:12:33.000Z</time>
      </trkpt>
      <trkpt lat="45.996037" lon="6.124459">
        <ele>690.879756</ele>
        <time>2017-06-02T08:12:35.000Z</time>
      </trkpt>
      <trkpt lat="45.995922" lon="6.124377">
        <ele>690.971787</ele>
        <time>2017-06-02T08:12:38.000Z</time>
      </trkpt>
      <trkpt lat="45.995880" lon="6.124249">
        <ele>691.042310</ele>
        <time>2017-06-02T08:12:42.000Z</time>
      </trkpt>
      <trkpt lat="45.995914" lon="6.124092">
        <ele>691.124237</ele>
        <time>2017-06-02T08:12:46.000Z</time>
      </trkpt>
      <trkpt lat="45.995968" lon="6.123966">
        <ele>691.197992</ele>
        <time>2017-06-02T08:12:49.000Z</time>
      </trkpt>
      <trkpt lat="45.996000" lon="6.123820">
        <ele>691.274261</ele>
        <time>2017-06-02T08:12:52.000Z</time>
      </trkpt>
      <trkpt lat="45.995968" lon="6.123660">
        <ele>691.357208</ele>
        <time>2017-06-02T08:12:55.000Z</time>
      </trkpt>
      <trkpt lat="45.995953" lon="6.123488">
        <ele>691.443569</ele>
        <time>2017-06-02T08:12:58.000Z</time>
      </trkpt>
      <trkpt lat="45.995903" lon="6.123327">
        <ele>691.531426</ele>
        <time>2017-06-02T08:13:01.000Z</time>
      </trkpt>
      <trkpt lat="45.995808" lon="6.123198">
        <ele>691.844090</ele>
        <time>2017-06-02T08:13:04.000Z</time>
      </trkpt>
      <trkpt lat="45.995728" lon="6.123147">
        <ele>692.125344</ele>
        <time>2017-06-02T08:13:06.000Z</time>
      </trkpt>
      <trkpt lat="45.995630" lon="6.123121">
        <ele>692.445675</ele>
        <time>2017-06-02T08:13:08.000Z</time>
      </trkpt>
      <trkpt lat="45.995525" lon="6.123129">
        <ele>692.783674</ele>
        <time>2017-06-02T08:13:10.000Z</time>
      </trkpt>
      <trkpt lat="45.995430" lon="6.123156">
        <ele>693.094951</ele>
        <time>2017-06-02T08:13:12.000Z</time>
      </trkpt>
      <trkpt lat="45.995330" lon="6.123193">
        <ele>693.426855</ele>
        <time>2017-06-02T08:13:14.000Z</time>
      </trkpt>
      <trkpt lat="45.995235" lon="6.123227">
        <ele>693.741534</ele>
        <time>2017-06-02T08:13:16.000Z</time>
      </trkpt>
      <trkpt lat="45.995136" lon="6.123260">
        <ele>694.068195</ele>
        <time>2017-06-02T08:13:18.000Z</time>
      </trkpt>
      <trkpt lat="45.995040" lon="6.123292">
        <ele>694.384957</ele>
        <time>2017-06-02T08:13:20.000Z</time>
      </trkpt>
      <trkpt lat="45.994938" lon="6.123323">
        <ele>694.720068</ele>
        <time>2017-06-02T08:13:22.000Z</time>
      </trkpt>
      <trkpt lat="45.994843" lon="6.123363">
        <ele>695.038246</ele>
        <time>2017-06-02T08:13:24.000Z</time>
      </trkpt>
      <trkpt lat="45.994750" lon="6.123398">
        <ele>695.347248</ele>
        <time>2017-06-02T08:13:26.000Z</time>
      </trkpt>
      <trkpt lat="45.994650" lon="6.123431">
        <ele>695.677041</ele>
        <time>2017-06-02T08:13:28.000Z</time>
      </trkpt>
      <trkpt lat="45.994553" lon="6.123461">
        <ele>695.995968</ele>
        <time>2017-06-02T08:13:30.000Z</time>
      </trkpt>
      <trkpt lat="45.994460" lon="6.123494">
        <ele>696.303870</ele>
        <time>2017-06-02T08:13:32.000Z</time>
      </trkpt>
      <trkpt lat="45.994366" lon="6.123523">
        <ele>696.612899</ele>
        <time>2017-06-02T08:13:34.000Z</time>
      </trkpt>
      <trkpt lat="45.994267" lon="6.123558">
        <ele>696.940596</ele>
        <time>2017-06-02T08:13:36.000Z</time>
      </trkpt>
      <trkpt lat="45.994160" lon="6.123592">
        <ele>697.292833</ele>
        <time>2017-06-02T08:13:38.000Z</time>
      </trkpt>
      <trkpt lat="45.994070" lon="6.123629">
        <ele>697.353298</ele>
        <time>2017-06-02T08:13:40.000Z</time>
      </trkpt>
      <trkpt lat="45.993973" lon="6.123628">
        <ele>697.364906</ele>
        <time>2017-06-02T08:13:42.000Z</time>
      </trkpt>
      <trkpt lat="45.993880" lon="6.123593">
        <ele>697.376410</ele>
        <time>2017-06-02T08:13:44.000Z</time>
      </trkpt>
      <trkpt lat="45.993760" lon="6.123618">
        <ele>697.390920</ele>
        <time>2017-06-02T08:13:47.000Z</time>
      </trkpt>
      <trkpt lat="45.993680" lon="6.123718">
        <ele>697.403599</ele>
        <time>2017-06-02T08:13:49.000Z</time>
      </trkpt>
      <trkpt lat="45.993600" lon="6.123817">
        <ele>697.416224</ele>
        <time>2017-06-02T08:13:51.000Z</time>
      </trkpt>
      <trkpt lat="45.993500" lon="6.123889">
        <ele>697.429605</ele>
        <time>2017-06-02T08:13:53.000Z</time>
      </trkpt>
      <trkpt lat="45.993397" lon="6.123947">
        <ele>697.442840</ele>
        <time>2017-06-02T08:13:55.000Z</time>
      </trkpt>
      <trkpt lat="45.993290" lon="6.123986">
        <ele>697.456049</ele>
        <time>2017-06-02T08:13:57.000Z</time>
      </trkpt>
      <trkpt lat="45.993183" lon="6.124030">
        <ele>697.469366</ele>
        <time>2017-06-02T08:13:59.000Z</time>
      </trkpt>
      <trkpt lat="45.993080" lon="6.124081">
        <ele>697.482400</ele>
        <time>2017-06-02T08:14:01.000Z</time>
      </trkpt>
      <trkpt lat="45.992977" lon="6.124139">
        <ele>697.495636</ele>
        <time>2017-06-02T08:14:03.000Z</time>
      </trkpt>
      <trkpt lat="45.992878" lon="6.124190">
        <ele>697.508219</ele>
        <time>2017-06-02T08:14:05.000Z</time>
      </trkpt>
      <trkpt lat="45.992775" lon="6.124248">
        <ele>697.521455</ele>
        <time>2017-06-02T08:14:07.000Z</time>
      </trkpt>
      <trkpt lat="45.992672" lon="6.124308">
        <ele>697.534752</ele>
        <time>2017-06-02T08:14:09.000Z</time>
      </trkpt>
      <trkpt lat="45.992565" lon="6.124359">
        <ele>697.548240</ele>
        <time>2017-06-02T08:14:11.000Z</time>
      </trkpt>
      <trkpt lat="45.992466" lon="6.124418">
        <ele>697.584928</ele>
        <time>2017-06-02T08:14:13.000Z</time>
      </trkpt>
      <trkpt lat="45.992350" lon="6.124457">
        <ele>697.786185</ele>
        <time>2017-06-02T08:14:15.000Z</time>
      </trkpt>
      <trkpt lat="45.992252" lon="6.124518">
        <ele>697.966574</ele>
        <time>2017-06-02T08:14:17.000Z</time>
      </trkpt>
      <trkpt lat="45.992153" lon="6.124580">
        <ele>698.148980</ele>
        <time>2017-06-02T08:14:19.000Z</time>
      </trkpt>
      <trkpt lat="45.992046" lon="6.124641">
        <ele>698.343420</ele>
        <time>2017-06-02T08:14:21.000Z</time>
      </trkpt>
      <trkpt lat="45.991936" lon="6.124693">
        <ele>698.539031</ele>
        <time>2017-06-02T08:14:23.000Z</time>
      </trkpt>
      <trkpt lat="45.991833" lon="6.124754">
        <ele>698.727203</ele>
        <time>2017-06-02T08:14:25.000Z</time>
      </trkpt>
      <trkpt lat="45.991722" lon="6.124809">
        <ele>698.925538</ele>
        <time>2017-06-02T08:14:27.000Z</time>
      </trkpt>
      <trkpt lat="45.991610" lon="6.124867">
        <ele>699.126636</ele>
        <time>2017-06-02T08:14:29.000Z</time>
      </trkpt>
      <trkpt lat="45.991505" lon="6.124927">
        <ele>699.317502</ele>
        <time>2017-06-02T08:14:31.000Z</time>
      </trkpt>
      <trkpt lat="45.991394" lon="6.124978">
        <ele>699.514359</ele>
        <time>2017-06-02T08:14:33.000Z</time>
      </trkpt>
      <trkpt lat="45.991287" lon="6.125039">
        <ele>699.708798</ele>
        <time>2017-06-02T08:14:35.000Z</time>
      </trkpt>
      <trkpt lat="45.991180" lon="6.125101">
        <ele>699.903673</ele>
        <time>2017-06-02T08:14:37.000Z</time>
      </trkpt>
      <trkpt lat="45.991074" lon="6.125156">
        <ele>700.094041</ele>
        <time>2017-06-02T08:14:39.000Z</time>
      </trkpt>
      <trkpt lat="45.990960" lon="6.125209">
        <ele>700.296441</ele>
        <time>2017-06-02T08:14:41.000Z</time>
      </trkpt>
      <trkpt lat="45.990845" lon="6.125261">
        <ele>700.500095</ele>
        <time>2017-06-02T08:14:43.000Z</time>
      </trkpt>
      <trkpt lat="45.990730" lon="6.125306">
        <ele>700.220274</ele>
        <time>2017-06-02T08:14:45.000Z</time>
      </trkpt>
      <trkpt lat="45.990610" lon="6.125341">
        <ele>699.464526</ele>
        <time>2017-06-02T08:14:47.000Z</time>
      </trkpt>
      <trkpt lat="45.990500" lon="6.125380">
        <ele>698.765261</ele>
        <time>2017-06-02T08:14:49.000Z</time>
      </trkpt>
      <trkpt lat="45.990400" lon="6.125441">
        <ele>698.094870</ele>
        <time>2017-06-02T08:14:51.000Z</time>
      </trkpt>
      <trkpt lat="45.990310" lon="6.125547">
        <ele>697.377064</ele>
        <time>2017-06-02T08:14:53.000Z</time>
      </trkpt>
      <trkpt lat="45.990242" lon="6.125655">
        <ele>696.752016</ele>
        <time>2017-06-02T08:14:55.000Z</time>
      </trkpt>
      <trkpt lat="45.990180" lon="6.125801">
        <ele>696.018204</ele>
        <time>2017-06-02T08:14:58.000Z</time>
      </trkpt>
      <trkpt lat="45.990112" lon="6.125924">
        <ele>695.344104</ele>
        <time>2017-06-02T08:15:01.000Z</time>
      </trkpt>
      <trkpt lat="45.990036" lon="6.125998">
        <ele>694.777737</ele>
        <time>2017-06-02T08:15:05.000Z</time>
      </trkpt>
      <trkpt lat="45.990143" lon="6.125994">
        <ele>694.117063</ele>
        <time>2017-06-02T08:16:21.000Z</time>
      </trkpt>
      <trkpt lat="45.990215" lon="6.125911">
        <ele>693.547675</ele>
        <time>2017-06-02T08:16:24.000Z</time>
      </trkpt>
      <trkpt lat="45.990284" lon="6.125806">
        <ele>692.927874</ele>
        <time>2017-06-02T08:16:27.000Z</time>
      </trkpt>
      <trkpt lat="45.990345" lon="6.125698">
        <ele>692.330982</ele>
        <time>2017-06-02T08:16:30.000Z</time>
      </trkpt>
      <trkpt lat="45.990414" lon="6.125578">
        <ele>691.662983</ele>
        <time>2017-06-02T08:16:33.000Z</time>
      </trkpt>
      <trkpt lat="45.990500" lon="6.125489">
        <ele>691.009182</ele>
        <time>2017-06-02T08:16:36.000Z</time>
      </trkpt>
      <trkpt lat="45.990593" lon="6.125433">
        <ele>690.386934</ele>
        <time>2017-06-02T08:16:39.000Z</time>
      </trkpt>
      <trkpt lat="45.990685" lon="6.125381">
        <ele>689.776852</ele>
        <time>2017-06-02T08:16:42.000Z</time>
      </trkpt>
      <trkpt lat="45.990795" lon="6.125326">
        <ele>689.824533</ele>
        <time>2017-06-02T08:16:45.000Z</time>
      </trkpt>
      <trkpt lat="45.990910" lon="6.125272">
        <ele>690.384640</ele>
        <time>2017-06-02T08:16:48.000Z</time>
      </trkpt>
      <trkpt lat="45.991024" lon="6.125222">
        <ele>690.936460</ele>
        <time>2017-06-02T08:16:51.000Z</time>
      </trkpt>
      <trkpt lat="45.991110" lon="6.125178">
        <ele>691.359076</ele>
        <time>2017-06-02T08:16:54.000Z</time>
      </trkpt>
      <trkpt lat="45.991215" lon="6.125122">
        <ele>691.877563</ele>
        <time>2017-06-02T08:16:58.000Z</time>
      </trkpt>
      <trkpt lat="45.991300" lon="6.125076">
        <ele>692.298041</ele>
        <time>2017-06-02T08:17:02.000Z</time>
      </trkpt>
      <trkpt lat="45.991386" lon="6.125022">
        <ele>692.732490</ele>
        <time>2017-06-02T08:17:07.000Z</time>
      </trkpt>
      <trkpt lat="45.991490" lon="6.124970">
        <ele>693.242271</ele>
        <time>2017-06-02T08:17:12.000Z</time>
      </trkpt>
      <trkpt lat="45.991580" lon="6.124927">
        <ele>693.681359</ele>
        <time>2017-06-02T08:17:17.000Z</time>
      </trkpt>
      <trkpt lat="45.991450" lon="6.124923">
        <ele>694.283437</ele>
        <time>2017-06-02T08:19:32.000Z</time>
      </trkpt>
      <trkpt lat="45.991340" lon="6.124974">
        <ele>694.818544</ele>
        <time>2017-06-02T08:19:36.000Z</time>
      </trkpt>
      <trkpt lat="45.991238" lon="6.125028">
        <ele>695.321771</ele>
        <time>2017-06-02T08:19:39.000Z</time>
      </trkpt>
      <trkpt lat="45.991120" lon="6.125098">
        <ele>695.912735</ele>
        <time>2017-06-02T08:19:42.000Z</time>
      </trkpt>
      <trkpt lat="45.990997" lon="6.125166">
        <ele>696.522832</ele>
        <time>2017-06-02T08:19:45.000Z</time>
      </trkpt>
      <trkpt lat="45.990875" lon="6.125221">
        <ele>697.114791</ele>
        <time>2017-06-02T08:19:48.000Z</time>
      </trkpt>
      <trkpt lat="45.990765" lon="6.125265">
        <ele>697.643429</ele>
        <time>2017-06-02T08:19:51.000Z</time>
      </trkpt>
      <trkpt lat="45.990670" lon="6.125275">
        <ele>697.764260</ele>
        <time>2017-06-02T08:19:53.000Z</time>
      </trkpt>
      <trkpt lat="45.990578" lon="6.125296">
        <ele>697.664735</ele>
        <time>2017-06-02T08:19:55.000Z</time>
      </trkpt>
      <trkpt lat="45.990444" lon="6.125352">
        <ele>697.515650</ele>
        <time>2017-06-02T08:19:58.000Z</time>
      </trkpt>
      <trkpt lat="45.990364" lon="6.125421">
        <ele>697.416002</ele>
        <time>2017-06-02T08:20:00.000Z</time>
      </trkpt>
      <trkpt lat="45.990288" lon="6.125513">
        <ele>697.309899</ele>
        <time>2017-06-02T08:20:02.000Z</time>
      </trkpt>
      <trkpt lat="45.990234" lon="6.125629">
        <ele>697.206246</ele>
        <time>2017-06-02T08:20:04.000Z</time>
      </trkpt>
      <trkpt lat="45.990192" lon="6.125759">
        <ele>697.099819</ele>
        <time>2017-06-02T08:20:06.000Z</time>
      </trkpt>
      <trkpt lat="45.990140" lon="6.125885">
        <ele>696.991028</ele>
        <time>2017-06-02T08:20:08.000Z</time>
      </trkpt>
      <trkpt lat="45.990067" lon="6.125989">
        <ele>696.881284</ele>
        <time>2017-06-02T08:20:10.000Z</time>
      </trkpt>
      <trkpt lat="45.989980" lon="6.126059">
        <ele>696.774790</ele>
        <time>2017-06-02T08:20:12.000Z</time>
      </trkpt>
      <trkpt lat="45.989880" lon="6.126116">
        <ele>696.659872</ele>
        <time>2017-06-02T08:20:14.000Z</time>
      </trkpt>
      <trkpt lat="45.989773" lon="6.126147">
        <ele>696.543255</ele>
        <time>2017-06-02T08:20:16.000Z</time>
      </trkpt>
      <trkpt lat="45.989660" lon="6.126144">
        <ele>696.422500</ele>
        <time>2017-06-02T08:20:18.000Z</time>
      </trkpt>
      <trkpt lat="45.989550" lon="6.126124">
        <ele>696.304037</ele>
        <time>2017-06-02T08:20:20.000Z</time>
      </trkpt>
      <trkpt lat="45.989450" lon="6.126093">
        <ele>696.194742</ele>
        <time>2017-06-02T08:20:22.000Z</time>
      </trkpt>
      <trkpt lat="45.989346" lon="6.126059">
        <ele>696.080794</ele>
        <time>2017-06-02T08:20:24.000Z</time>
      </trkpt>
      <trkpt lat="45.989246" lon="6.126018">
        <ele>695.969699</ele>
        <time>2017-06-02T08:20:26.000Z</time>
      </trkpt>
      <trkpt lat="45.989150" lon="6.125984">
        <ele>695.887498</ele>
        <time>2017-06-02T08:20:28.000Z</time>
      </trkpt>
      <trkpt lat="45.989063" lon="6.125959">
        <ele>695.850429</ele>
        <time>2017-06-02T08:20:30.000Z</time>
      </trkpt>
      <trkpt lat="45.988950" lon="6.125892">
        <ele>695.799364</ele>
        <time>2017-06-02T08:20:33.000Z</time>
      </trkpt>
      <trkpt lat="45.988865" lon="6.125773">
        <ele>695.749818</ele>
        <time>2017-06-02T08:20:36.000Z</time>
      </trkpt>
      <trkpt lat="45.988796" lon="6.125625">
        <ele>695.698075</ele>
        <time>2017-06-02T08:20:39.000Z</time>
      </trkpt>
      <trkpt lat="45.988754" lon="6.125471">
        <ele>695.650047</ele>
        <time>2017-06-02T08:20:42.000Z</time>
      </trkpt>
      <trkpt lat="45.988730" lon="6.125314">
        <ele>695.603378</ele>
        <time>2017-06-02T08:20:45.000Z</time>
      </trkpt>
      <trkpt lat="45.988700" lon="6.125165">
        <ele>695.558342</ele>
        <time>2017-06-02T08:20:48.000Z</time>
      </trkpt>
      <trkpt lat="45.988647" lon="6.125039">
        <ele>695.515582</ele>
        <time>2017-06-02T08:20:51.000Z</time>
      </trkpt>
      <trkpt lat="45.988564" lon="6.124989">
        <ele>695.477986</ele>
        <time>2017-06-02T08:20:54.000Z</time>
      </trkpt>
      <trkpt lat="45.988457" lon="6.124988">
        <ele>695.433277</ele>
        <time>2017-06-02T08:20:57.000Z</time>
      </trkpt>
      <trkpt lat="45.988340" lon="6.125033">
        <ele>695.382675</ele>
        <time>2017-06-02T08:21:00.000Z</time>
      </trkpt>
      <trkpt lat="45.988220" lon="6.125102">
        <ele>695.328681</ele>
        <time>2017-06-02T08:21:03.000Z</time>
      </trkpt>
      <trkpt lat="45.988136" lon="6.125153">
        <ele>695.290588</ele>
        <time>2017-06-02T08:21:05.000Z</time>
      </trkpt>
      <trkpt lat="45.988037" lon="6.125274">
        <ele>695.236320</ele>
        <time>2017-06-02T08:21:08.000Z</time>
      </trkpt>
      <trkpt lat="45.987980" lon="6.125375">
        <ele>695.198544</ele>
        <time>2017-06-02T08:21:10.000Z</time>
      </trkpt>
      <trkpt lat="45.987920" lon="6.125540">
        <ele>695.143532</ele>
        <time>2017-06-02T08:21:13.000Z</time>
      </trkpt>
      <trkpt lat="45.987885" lon="6.125663">
        <ele>695.099356</ele>
        <time>2017-06-02T08:21:15.000Z</time>
      </trkpt>
      <trkpt lat="45.987812" lon="6.125814">
        <ele>695.038216</ele>
        <time>2017-06-02T08:21:18.000Z</time>
      </trkpt>
      <trkpt lat="45.987724" lon="6.125863">
        <ele>694.993081</ele>
        <time>2017-06-02T08:21:20.000Z</time>
      </trkpt>
      <trkpt lat="45.987620" lon="6.125895">
        <ele>694.942209</ele>
        <time>2017-06-02T08:21:22.000Z</time>
      </trkpt>
      <trkpt lat="45.987514" lon="6.125918">
        <ele>694.890931</ele>
        <time>2017-06-02T08:21:24.000Z</time>
      </trkpt>
      <trkpt lat="45.987396" lon="6.125974">
        <ele>694.831496</ele>
        <time>2017-06-02T08:21:26.000Z</time>
      </trkpt>
      <trkpt lat="45.987270" lon="6.126031">
        <ele>694.768317</ele>
        <time>2017-06-02T08:21:28.000Z</time>
      </trkpt>
      <trkpt lat="45.987140" lon="6.126096">
        <ele>694.702486</ele>
        <time>2017-06-02T08:21:30.000Z</time>
      </trkpt>
      <trkpt lat="45.987007" lon="6.126153">
        <ele>694.636105</ele>
        <time>2017-06-02T08:21:32.000Z</time>
      </trkpt>
      <trkpt lat="45.986870" lon="6.126188">
        <ele>694.569546</ele>
        <time>2017-06-02T08:21:34.000Z</time>
      </trkpt>
      <trkpt lat="45.986730" lon="6.126192">
        <ele>694.502564</ele>
        <time>2017-06-02T08:21:36.000Z</time>
      </trkpt>
      <trkpt lat="45.986580" lon="6.126195">
        <ele>694.430805</ele>
        <time>2017-06-02T08:21:38.000Z</time>
      </trkpt>
      <trkpt lat="45.986440" lon="6.126201">
        <ele>694.363807</ele>
        <time>2017-06-02T08:21:40.000Z</time>
      </trkpt>
      <trkpt lat="45.986310" lon="6.126208">
        <ele>694.301578</ele>
        <time>2017-06-02T08:21:42.000Z</time>
      </trkpt>
      <trkpt lat="45.986190" lon="6.126237">
        <ele>694.223795</ele>
        <time>2017-06-02T08:21:44.000Z</time>
      </trkpt>
      <trkpt lat="45.986090" lon="6.126292">
        <ele>694.151373</ele>
        <time>2017-06-02T08:21:46.000Z</time>
      </trkpt>
      <trkpt lat="45.985990" lon="6.126308">
        <ele>694.083306</ele>
        <time>2017-06-02T08:21:48.000Z</time>
      </trkpt>
      <trkpt lat="45.985878" lon="6.126315">
        <ele>694.007466</ele>
        <time>2017-06-02T08:21:50.000Z</time>
      </trkpt>
      <trkpt lat="45.985760" lon="6.126331">
        <ele>693.927286</ele>
        <time>2017-06-02T08:21:52.000Z</time>
      </trkpt>
      <trkpt lat="45.985645" lon="6.126358">
        <ele>693.848460</ele>
        <time>2017-06-02T08:21:54.000Z</time>
      </trkpt>
      <trkpt lat="45.985527" lon="6.126375">
        <ele>693.768234</ele>
        <time>2017-06-02T08:21:56.000Z</time>
      </trkpt>
      <trkpt lat="45.985413" lon="6.126394">
        <ele>693.690597</ele>
        <time>2017-06-02T08:21:58.000Z</time>
      </trkpt>
      <trkpt lat="45.985287" lon="6.126421">
        <ele>693.604418</ele>
        <time>2017-06-02T08:22:00.000Z</time>
      </trkpt>
      <trkpt lat="45.985160" lon="6.126452">
        <ele>693.517275</ele>
        <time>2017-06-02T08:22:02.000Z</time>
      </trkpt>
      <trkpt lat="45.985030" lon="6.126475">
        <ele>693.428668</ele>
        <time>2017-06-02T08:22:04.000Z</time>
      </trkpt>
      <trkpt lat="45.984898" lon="6.126493">
        <ele>693.338970</ele>
        <time>2017-06-02T08:22:06.000Z</time>
      </trkpt>
      <trkpt lat="45.984768" lon="6.126515">
        <ele>693.250419</ele>
        <time>2017-06-02T08:22:08.000Z</time>
      </trkpt>
      <trkpt lat="45.984642" lon="6.126533">
        <ele>693.164761</ele>
        <time>2017-06-02T08:22:10.000Z</time>
      </trkpt>
      <trkpt lat="45.984520" lon="6.126530">
        <ele>693.082215</ele>
        <time>2017-06-02T08:22:12.000Z</time>
      </trkpt>
      <trkpt lat="45.984406" lon="6.126553">
        <ele>692.836184</ele>
        <time>2017-06-02T08:22:14.000Z</time>
      </trkpt>
      <trkpt lat="45.984283" lon="6.126591">
        <ele>692.545187</ele>
        <time>2017-06-02T08:22:16.000Z</time>
      </trkpt>
      <trkpt lat="45.984173" lon="6.126636">
        <ele>692.280662</ele>
        <time>2017-06-02T08:22:18.000Z</time>
      </trkpt>
      <trkpt lat="45.984066" lon="6.126707">
        <ele>692.008115</ele>
        <time>2017-06-02T08:22:20.000Z</time>
      </trkpt>
      <trkpt lat="45.983963" lon="6.126781">
        <ele>691.741824</ele>
        <time>2017-06-02T08:22:22.000Z</time>
      </trkpt>
      <trkpt lat="45.983880" lon="6.126858">
        <ele>691.513401</ele>
        <time>2017-06-02T08:22:24.000Z</time>
      </trkpt>
      <trkpt lat="45.983810" lon="6.126939">
        <ele>691.305633</ele>
        <time>2017-06-02T08:22:26.000Z</time>
      </trkpt>
      <trkpt lat="45.983707" lon="6.127003">
        <ele>691.046122</ele>
        <time>2017-06-02T08:22:29.000Z</time>
      </trkpt>
      <trkpt lat="45.983585" lon="6.126935">
        <ele>690.743494</ele>
        <time>2017-06-02T08:22:32.000Z</time>
      </trkpt>
      <trkpt lat="45.983490" lon="6.126865">
        <ele>690.496617</ele>
        <time>2017-06-02T08:22:34.000Z</time>
      </trkpt>
      <trkpt lat="45.983383" lon="6.126783">
        <ele>690.216207</ele>
        <time>2017-06-02T08:22:36.000Z</time>
      </trkpt>
      <trkpt lat="45.983280" lon="6.126707">
        <ele>689.948464</ele>
        <time>2017-06-02T08:22:38.000Z</time>
      </trkpt>
      <trkpt lat="45.983177" lon="6.126633">
        <ele>689.682172</ele>
        <time>2017-06-02T08:22:40.000Z</time>
      </trkpt>
      <trkpt lat="45.983070" lon="6.126560">
        <ele>689.408263</ele>
        <time>2017-06-02T08:22:42.000Z</time>
      </trkpt>
      <trkpt lat="45.982970" lon="6.126481">
        <ele>689.144389</ele>
        <time>2017-06-02T08:22:44.000Z</time>
      </trkpt>
      <trkpt lat="45.982870" lon="6.126398">
        <ele>688.954816</ele>
        <time>2017-06-02T08:22:46.000Z</time>
      </trkpt>
      <trkpt lat="45.982770" lon="6.126316">
        <ele>689.261550</ele>
        <time>2017-06-02T08:22:48.000Z</time>
      </trkpt>
      <trkpt lat="45.982674" lon="6.126228">
        <ele>689.564891</ele>
        <time>2017-06-02T08:22:50.000Z</time>
      </trkpt>
      <trkpt lat="45.982582" lon="6.126148">
        <ele>689.851361</ele>
        <time>2017-06-02T08:22:52.000Z</time>
      </trkpt>
      <trkpt lat="45.982510" lon="6.126069">
        <ele>690.092656</ele>
        <time>2017-06-02T08:22:54.000Z</time>
      </trkpt>
      <trkpt lat="45.982407" lon="6.125957">
        <ele>690.436707</ele>
        <time>2017-06-02T08:22:57.000Z</time>
      </trkpt>
      <trkpt lat="45.982307" lon="6.125851">
        <ele>690.767706</ele>
        <time>2017-06-02T08:23:00.000Z</time>
      </trkpt>
      <trkpt lat="45.982216" lon="6.125759">
        <ele>691.064091</ele>
        <time>2017-06-02T08:23:03.000Z</time>
      </trkpt>
      <trkpt lat="45.982132" lon="6.125664">
        <ele>691.348815</ele>
        <time>2017-06-02T08:23:06.000Z</time>
      </trkpt>
      <trkpt lat="45.982044" lon="6.125576">
        <ele>691.634404</ele>
        <time>2017-06-02T08:23:09.000Z</time>
      </trkpt>
      <trkpt lat="45.981964" lon="6.125487">
        <ele>691.903889</ele>
        <time>2017-06-02T08:23:12.000Z</time>
      </trkpt>
      <trkpt lat="45.981888" lon="6.125394">
        <ele>692.169759</ele>
        <time>2017-06-02T08:23:15.000Z</time>
      </trkpt>
      <trkpt lat="45.981815" lon="6.125310">
        <ele>692.418856</ele>
        <time>2017-06-02T08:23:18.000Z</time>
      </trkpt>
      <trkpt lat="45.981724" lon="6.125201">
        <ele>692.734393</ele>
        <time>2017-06-02T08:23:22.000Z</time>
      </trkpt>
      <trkpt lat="45.981636" lon="6.125108">
        <ele>693.025366</ele>
        <time>2017-06-02T08:23:26.000Z</time>
      </trkpt>
      <trkpt lat="45.981552" lon="6.125021">
        <ele>693.301182</ele>
        <time>2017-06-02T08:23:30.000Z</time>
      </trkpt>
      <trkpt lat="45.981470" lon="6.124927">
        <ele>693.580578</ele>
        <time>2017-06-02T08:23:34.000Z</time>
      </trkpt>
      <trkpt lat="45.981380" lon="6.124834">
        <ele>694.126441</ele>
        <time>2017-06-02T08:23:38.000Z</time>
      </trkpt>
      <trkpt lat="45.981304" lon="6.124742">
        <ele>694.783532</ele>
        <time>2017-06-02T08:23:42.000Z</time>
      </trkpt>
      <trkpt lat="45.981228" lon="6.124647">
        <ele>695.449586</ele>
        <time>2017-06-02T08:23:46.000Z</time>
      </trkpt>
      <trkpt lat="45.981148" lon="6.124561">
        <ele>696.110276</ele>
        <time>2017-06-02T08:23:50.000Z</time>
      </trkpt>
      <trkpt lat="45.981064" lon="6.124471">
        <ele>696.803175</ele>
        <time>2017-06-02T08:23:54.000Z</time>
      </trkpt>
      <trkpt lat="45.980984" lon="6.124389">
        <ele>697.453026</ele>
        <time>2017-06-02T08:23:58.000Z</time>
      </trkpt>
      <trkpt lat="45.980904" lon="6.124306">
        <ele>698.105555</ele>
        <time>2017-06-02T08:24:02.000Z</time>
      </trkpt>
      <trkpt lat="45.980824" lon="6.124225">
        <ele>698.752750</ele>
        <time>2017-06-02T08:24:06.000Z</time>
      </trkpt>
      <trkpt lat="45.980747" lon="6.124136">
        <ele>699.406196</ele>
        <time>2017-06-02T08:24:10.000Z</time>
      </trkpt>
      <trkpt lat="45.980667" lon="6.124049">
        <ele>700.069649</ele>
        <time>2017-06-02T08:24:14.000Z</time>
      </trkpt>
      <trkpt lat="45.980590" lon="6.123961">
        <ele>700.720227</ele>
        <time>2017-06-02T08:24:18.000Z</time>
      </trkpt>
      <trkpt lat="45.980495" lon="6.123860">
        <ele>701.501714</ele>
        <time>2017-06-02T08:24:23.000Z</time>
      </trkpt>
      <trkpt lat="45.980423" lon="6.123776">
        <ele>702.114980</ele>
        <time>2017-06-02T08:24:27.000Z</time>
      </trkpt>
      <trkpt lat="45.980350" lon="6.123698">
        <ele>702.716558</ele>
        <time>2017-06-02T08:24:31.000Z</time>
      </trkpt>
      <trkpt lat="45.980274" lon="6.123622">
        <ele>703.328892</ele>
        <time>2017-06-02T08:24:35.000Z</time>
      </trkpt>
      <trkpt lat="45.980206" lon="6.123534">
        <ele>703.933975</ele>
        <time>2017-06-02T08:24:39.000Z</time>
      </trkpt>
      <trkpt lat="45.980130" lon="6.123456">
        <ele>704.551603</ele>
        <time>2017-06-02T08:24:43.000Z</time>
      </trkpt>
      <trkpt lat="45.980053" lon="6.123368">
        <ele>705.202183</ele>
        <time>2017-06-02T08:24:47.000Z</time>
      </trkpt>
      <trkpt lat="45.979977" lon="6.123290">
        <ele>705.829830</ele>
        <time>2017-06-02T08:24:51.000Z</time>
      </trkpt>
      <trkpt lat="45.979904" lon="6.123200">
        <ele>706.495834</ele>
        <time>2017-06-02T08:24:55.000Z</time>
      </trkpt>
      <trkpt lat="45.979828" lon="6.123116">
        <ele>707.159776</ele>
        <time>2017-06-02T08:24:59.000Z</time>
      </trkpt>
      <trkpt lat="45.979750" lon="6.123032">
        <ele>707.834761</ele>
        <time>2017-06-02T08:25:03.000Z</time>
      </trkpt>
      <trkpt lat="45.979680" lon="6.122948">
        <ele>708.466243</ele>
        <time>2017-06-02T08:25:07.000Z</time>
      </trkpt>
      <trkpt lat="45.979607" lon="6.122866">
        <ele>709.107857</ele>
        <time>2017-06-02T08:25:11.000Z</time>
      </trkpt>
      <trkpt lat="45.979534" lon="6.122782">
        <ele>709.755440</ele>
        <time>2017-06-02T08:25:15.000Z</time>
      </trkpt>
      <trkpt lat="45.979460" lon="6.122699">
        <ele>710.405478</ele>
        <time>2017-06-02T08:25:19.000Z</time>
      </trkpt>
      <trkpt lat="45.979385" lon="6.122624">
        <ele>711.038251</ele>
        <time>2017-06-02T08:25:23.000Z</time>
      </trkpt>
      <trkpt lat="45.979298" lon="6.122531">
        <ele>711.789128</ele>
        <time>2017-06-02T08:25:28.000Z</time>
      </trkpt>
      <trkpt lat="45.979230" lon="6.122447">
        <ele>712.410034</ele>
        <time>2017-06-02T08:25:32.000Z</time>
      </trkpt>
      <trkpt lat="45.979153" lon="6.122357">
        <ele>713.097325</ele>
        <time>2017-06-02T08:25:37.000Z</time>
      </trkpt>
      <trkpt lat="45.979070" lon="6.122262">
        <ele>713.832099</ele>
        <time>2017-06-02T08:25:42.000Z</time>
      </trkpt>
      <trkpt lat="45.978996" lon="6.122184">
        <ele>714.467623</ele>
        <time>2017-06-02T08:25:46.000Z</time>
      </trkpt>
      <trkpt lat="45.978905" lon="6.122089">
        <ele>715.246541</ele>
        <time>2017-06-02T08:25:51.000Z</time>
      </trkpt>
      <trkpt lat="45.978810" lon="6.122029">
        <ele>715.965338</ele>
        <time>2017-06-02T08:25:56.000Z</time>
      </trkpt>
      <trkpt lat="45.978740" lon="6.121923">
        <ele>716.669379</ele>
        <time>2017-06-02T08:26:01.000Z</time>
      </trkpt>
      <trkpt lat="45.978657" lon="6.121851">
        <ele>717.340837</ele>
        <time>2017-06-02T08:26:06.000Z</time>
      </trkpt>
      <trkpt lat="45.978577" lon="6.121755">
        <ele>718.062538</ele>
        <time>2017-06-02T08:26:11.000Z</time>
      </trkpt>
      <trkpt lat="45.978480" lon="6.121692">
        <ele>718.698160</ele>
        <time>2017-06-02T08:26:16.000Z</time>
      </trkpt>
      <trkpt lat="45.978400" lon="6.121604">
        <ele>719.298737</ele>
        <time>2017-06-02T08:26:21.000Z</time>
      </trkpt>
      <trkpt lat="45.978302" lon="6.121554">
        <ele>719.918883</ele>
        <time>2017-06-02T08:26:26.000Z</time>
      </trkpt>
      <trkpt lat="45.978210" lon="6.121478">
        <ele>720.551580</ele>
        <time>2017-06-02T08:26:31.000Z</time>
      </trkpt>
      <trkpt lat="45.978153" lon="6.121365">
        <ele>721.130311</ele>
        <time>2017-06-02T08:26:36.000Z</time>
      </trkpt>
      <trkpt lat="45.978054" lon="6.121333">
        <ele>721.735483</ele>
        <time>2017-06-02T08:26:41.000Z</time>
      </trkpt>
      <trkpt lat="45.977955" lon="6.121275">
        <ele>722.373002</ele>
        <time>2017-06-02T08:26:46.000Z</time>
      </trkpt>
      <trkpt lat="45.977863" lon="6.121243">
        <ele>722.937514</ele>
        <time>2017-06-02T08:26:50.000Z</time>
      </trkpt>
      <trkpt lat="45.977770" lon="6.121204">
        <ele>723.515261</ele>
        <time>2017-06-02T08:26:54.000Z</time>
      </trkpt>
      <trkpt lat="45.977680" lon="6.121177">
        <ele>724.063583</ele>
        <time>2017-06-02T08:26:58.000Z</time>
      </trkpt>
      <trkpt lat="45.977570" lon="6.121137">
        <ele>724.740272</ele>
        <time>2017-06-02T08:27:03.000Z</time>
      </trkpt>
      <trkpt lat="45.977474" lon="6.121112">
        <ele>725.322138</ele>
        <time>2017-06-02T08:27:07.000Z</time>
      </trkpt>
      <trkpt lat="45.977375" lon="6.121078">
        <ele>725.929181</ele>
        <time>2017-06-02T08:27:11.000Z</time>
      </trkpt>
      <trkpt lat="45.977270" lon="6.121062">
        <ele>726.558926</ele>
        <time>2017-06-02T08:27:15.000Z</time>
      </trkpt>
      <trkpt lat="45.977160" lon="6.121033">
        <ele>727.225912</ele>
        <time>2017-06-02T08:27:19.000Z</time>
      </trkpt>
      <trkpt lat="45.977062" lon="6.121005">
        <ele>727.821816</ele>
        <time>2017-06-02T08:27:23.000Z</time>
      </trkpt>
      <trkpt lat="45.976960" lon="6.120983">
        <ele>728.436963</ele>
        <time>2017-06-02T08:27:27.000Z</time>
      </trkpt>
      <trkpt lat="45.976852" lon="6.120968">
        <ele>728.728895</ele>
        <time>2017-06-02T08:27:31.000Z</time>
      </trkpt>
      <trkpt lat="45.976753" lon="6.120938">
        <ele>728.587080</ele>
        <time>2017-06-02T08:27:35.000Z</time>
      </trkpt>
      <trkpt lat="45.976650" lon="6.120921">
        <ele>728.441755</ele>
        <time>2017-06-02T08:27:39.000Z</time>
      </trkpt>
      <trkpt lat="45.976543" lon="6.120890">
        <ele>728.288760</ele>
        <time>2017-06-02T08:27:43.000Z</time>
      </trkpt>
      <trkpt lat="45.976450" lon="6.120871">
        <ele>728.157092</ele>
        <time>2017-06-02T08:27:46.000Z</time>
      </trkpt>
      <trkpt lat="45.976353" lon="6.120832">
        <ele>728.015917</ele>
        <time>2017-06-02T08:27:50.000Z</time>
      </trkpt>
      <trkpt lat="45.976257" lon="6.120797">
        <ele>727.877099</ele>
        <time>2017-06-02T08:27:54.000Z</time>
      </trkpt>
      <trkpt lat="45.976150" lon="6.120763">
        <ele>727.723500</ele>
        <time>2017-06-02T08:27:58.000Z</time>
      </trkpt>
      <trkpt lat="45.976036" lon="6.120716">
        <ele>727.557273</ele>
        <time>2017-06-02T08:28:02.000Z</time>
      </trkpt>
      <trkpt lat="45.975950" lon="6.120678">
        <ele>727.431169</ele>
        <time>2017-06-02T08:28:05.000Z</time>
      </trkpt>
      <trkpt lat="45.975840" lon="6.120617">
        <ele>727.265925</ele>
        <time>2017-06-02T08:28:09.000Z</time>
      </trkpt>
      <trkpt lat="45.975750" lon="6.120580">
        <ele>727.134721</ele>
        <time>2017-06-02T08:28:13.000Z</time>
      </trkpt>
      <trkpt lat="45.975650" lon="6.120623">
        <ele>726.988423</ele>
        <time>2017-06-02T08:28:19.000Z</time>
      </trkpt>
      <trkpt lat="45.975605" lon="6.120748">
        <ele>726.851287</ele>
        <time>2017-06-02T08:28:23.000Z</time>
      </trkpt>
      <trkpt lat="45.975550" lon="6.120855">
        <ele>726.721639</ele>
        <time>2017-06-02T08:28:26.000Z</time>
      </trkpt>
      <trkpt lat="45.975510" lon="6.120980">
        <ele>726.587582</ele>
        <time>2017-06-02T08:28:29.000Z</time>
      </trkpt>
      <trkpt lat="45.975460" lon="6.121098">
        <ele>726.452950</ele>
        <time>2017-06-02T08:28:32.000Z</time>
      </trkpt>
      <trkpt lat="45.975414" lon="6.121219">
        <ele>726.318594</ele>
        <time>2017-06-02T08:28:35.000Z</time>
      </trkpt>
      <trkpt lat="45.975372" lon="6.121348">
        <ele>725.716384</ele>
        <time>2017-06-02T08:28:38.000Z</time>
      </trkpt>
      <trkpt lat="45.975330" lon="6.121480">
        <ele>724.888357</ele>
        <time>2017-06-02T08:28:41.000Z</time>
      </trkpt>
      <trkpt lat="45.975292" lon="6.121616">
        <ele>724.052326</ele>
        <time>2017-06-02T08:28:44.000Z</time>
      </trkpt>
      <trkpt lat="45.975250" lon="6.121759">
        <ele>723.166868</ele>
        <time>2017-06-02T08:28:47.000Z</time>
      </trkpt>
      <trkpt lat="45.975200" lon="6.121906">
        <ele>722.233409</ele>
        <time>2017-06-02T08:28:50.000Z</time>
      </trkpt>
      <trkpt lat="45.975147" lon="6.122024">
        <ele>721.432061</ele>
        <time>2017-06-02T08:28:52.000Z</time>
      </trkpt>
      <trkpt lat="45.975080" lon="6.122157">
        <ele>720.495155</ele>
        <time>2017-06-02T08:28:54.000Z</time>
      </trkpt>
      <trkpt lat="45.975018" lon="6.122319">
        <ele>719.440330</ele>
        <time>2017-06-02T08:28:56.000Z</time>
      </trkpt>
      <trkpt lat="45.974960" lon="6.122493">
        <ele>718.339652</ele>
        <time>2017-06-02T08:28:58.000Z</time>
      </trkpt>
      <trkpt lat="45.974903" lon="6.122662">
        <ele>717.268224</ele>
        <time>2017-06-02T08:29:00.000Z</time>
      </trkpt>
      <trkpt lat="45.974850" lon="6.122830">
        <ele>716.215912</ele>
        <time>2017-06-02T08:29:02.000Z</time>
      </trkpt>
      <trkpt lat="45.974780" lon="6.123000">
        <ele>715.088884</ele>
        <time>2017-06-02T08:29:04.000Z</time>
      </trkpt>
      <trkpt lat="45.974680" lon="6.123154">
        <ele>713.886778</ele>
        <time>2017-06-02T08:29:06.000Z</time>
      </trkpt>
      <trkpt lat="45.974570" lon="6.123289">
        <ele>712.700240</ele>
        <time>2017-06-02T08:29:08.000Z</time>
      </trkpt>
      <trkpt lat="45.974464" lon="6.123415">
        <ele>711.571850</ele>
        <time>2017-06-02T08:29:10.000Z</time>
      </trkpt>
      <trkpt lat="45.974380" lon="6.123570">
        <ele>710.441225</ele>
        <time>2017-06-02T08:29:12.000Z</time>
      </trkpt>
      <trkpt lat="45.974320" lon="6.123724">
        <ele>709.425211</ele>
        <time>2017-06-02T08:29:14.000Z</time>
      </trkpt>
      <trkpt lat="45.974255" lon="6.123872">
        <ele>708.417674</ele>
        <time>2017-06-02T08:29:16.000Z</time>
      </trkpt>
      <trkpt lat="45.974200" lon="6.124029">
        <ele>707.405863</ele>
        <time>2017-06-02T08:29:18.000Z</time>
      </trkpt>
      <trkpt lat="45.974148" lon="6.124184">
        <ele>706.415366</ele>
        <time>2017-06-02T08:29:20.000Z</time>
      </trkpt>
      <trkpt lat="45.974094" lon="6.124336">
        <ele>705.432960</ele>
        <time>2017-06-02T08:29:22.000Z</time>
      </trkpt>
      <trkpt lat="45.974045" lon="6.124488">
        <ele>704.468693</ele>
        <time>2017-06-02T08:29:24.000Z</time>
      </trkpt>
      <trkpt lat="45.974003" lon="6.124638">
        <ele>703.538032</ele>
        <time>2017-06-02T08:29:26.000Z</time>
      </trkpt>
      <trkpt lat="45.973950" lon="6.124784">
        <ele>702.590102</ele>
        <time>2017-06-02T08:29:28.000Z</time>
      </trkpt>
      <trkpt lat="45.973900" lon="6.124941">
        <ele>701.596235</ele>
        <time>2017-06-02T08:29:30.000Z</time>
      </trkpt>
      <trkpt lat="45.973866" lon="6.125096">
        <ele>700.660848</ele>
        <time>2017-06-02T08:29:32.000Z</time>
      </trkpt>
      <trkpt lat="45.973873" lon="6.125255">
        <ele>699.743982</ele>
        <time>2017-06-02T08:29:34.000Z</time>
      </trkpt>
      <trkpt lat="45.973920" lon="6.125382">
        <ele>698.915946</ele>
        <time>2017-06-02T08:29:36.000Z</time>
      </trkpt>
      <trkpt lat="45.973892" lon="6.125539">
        <ele>697.983150</ele>
        <time>2017-06-02T08:29:39.000Z</time>
      </trkpt>
      <trkpt lat="45.973778" lon="6.125571">
        <ele>697.021365</ele>
        <time>2017-06-02T08:29:42.000Z</time>
      </trkpt>
      <trkpt lat="45.973686" lon="6.125501">
        <ele>696.525364</ele>
        <time>2017-06-02T08:29:47.000Z</time>
      </trkpt>
      <trkpt lat="45.973583" lon="6.125511">
        <ele>696.349628</ele>
        <time>2017-06-02T08:29:53.000Z</time>
      </trkpt>
      <trkpt lat="45.973500" lon="6.125463">
        <ele>696.197351</ele>
        <time>2017-06-02T08:29:58.000Z</time>
      </trkpt>
      <trkpt lat="45.973360" lon="6.125378">
        <ele>695.938680</ele>
        <time>2017-06-02T08:30:19.000Z</time>
      </trkpt>
      <trkpt lat="45.973270" lon="6.125317">
        <ele>695.769326</ele>
        <time>2017-06-02T08:30:22.000Z</time>
      </trkpt>
      <trkpt lat="45.973167" lon="6.125261">
        <ele>695.581888</ele>
        <time>2017-06-02T08:30:25.000Z</time>
      </trkpt>
      <trkpt lat="45.973050" lon="6.125175">
        <ele>695.358235</ele>
        <time>2017-06-02T08:30:28.000Z</time>
      </trkpt>
      <trkpt lat="45.972927" lon="6.125105">
        <ele>695.133068</ele>
        <time>2017-06-02T08:30:31.000Z</time>
      </trkpt>
      <trkpt lat="45.972810" lon="6.125055">
        <ele>694.925299</ele>
        <time>2017-06-02T08:30:34.000Z</time>
      </trkpt>
      <trkpt lat="45.972694" lon="6.124988">
        <ele>694.712515</ele>
        <time>2017-06-02T08:30:37.000Z</time>
      </trkpt>
      <trkpt lat="45.972588" lon="6.124937">
        <ele>694.522249</ele>
        <time>2017-06-02T08:30:40.000Z</time>
      </trkpt>
      <trkpt lat="45.972473" lon="6.124896">
        <ele>694.320564</ele>
        <time>2017-06-02T08:30:43.000Z</time>
      </trkpt>
      <trkpt lat="45.972347" lon="6.124834">
        <ele>694.093877</ele>
        <time>2017-06-02T08:30:46.000Z</time>
      </trkpt>
      <trkpt lat="45.972250" lon="6.124804">
        <ele>693.924981</ele>
        <time>2017-06-02T08:30:48.000Z</time>
      </trkpt>
      <trkpt lat="45.972150" lon="6.124772">
        <ele>693.750591</ele>
        <time>2017-06-02T08:30:50.000Z</time>
      </trkpt>
      <trkpt lat="45.972046" lon="6.124770">
        <ele>693.573536</ele>
        <time>2017-06-02T08:30:52.000Z</time>
      </trkpt>
      <trkpt lat="45.971950" lon="6.124770">
        <ele>693.343921</ele>
        <time>2017-06-02T08:30:54.000Z</time>
      </trkpt>
      <trkpt lat="45.971848" lon="6.124768">
        <ele>693.092636</ele>
        <time>2017-06-02T08:30:56.000Z</time>
      </trkpt>
      <trkpt lat="45.971750" lon="6.124764">
        <ele>692.851129</ele>
        <time>2017-06-02T08:30:58.000Z</time>
      </trkpt>
      <trkpt lat="45.971645" lon="6.124753">
        <ele>692.591792</ele>
        <time>2017-06-02T08:31:00.000Z</time>
      </trkpt>
      <trkpt lat="45.971535" lon="6.124749">
        <ele>692.320736</ele>
        <time>2017-06-02T08:31:02.000Z</time>
      </trkpt>
      <trkpt lat="45.971436" lon="6.124735">
        <ele>692.075688</ele>
        <time>2017-06-02T08:31:04.000Z</time>
      </trkpt>
      <trkpt lat="45.971340" lon="6.124712">
        <ele>691.835950</ele>
        <time>2017-06-02T08:31:06.000Z</time>
      </trkpt>
      <trkpt lat="45.971214" lon="6.124696">
        <ele>691.524360</ele>
        <time>2017-06-02T08:31:09.000Z</time>
      </trkpt>
      <trkpt lat="45.971085" lon="6.124675">
        <ele>691.204560</ele>
        <time>2017-06-02T08:31:12.000Z</time>
      </trkpt>
      <trkpt lat="45.970993" lon="6.124651">
        <ele>690.974236</ele>
        <time>2017-06-02T08:31:14.000Z</time>
      </trkpt>
      <trkpt lat="45.970900" lon="6.124607">
        <ele>690.733076</ele>
        <time>2017-06-02T08:31:16.000Z</time>
      </trkpt>
      <trkpt lat="45.970820" lon="6.124554">
        <ele>690.516119</ele>
        <time>2017-06-02T08:31:18.000Z</time>
      </trkpt>
      <trkpt lat="45.970734" lon="6.124497">
        <ele>690.282873</ele>
        <time>2017-06-02T08:31:20.000Z</time>
      </trkpt>
      <trkpt lat="45.970646" lon="6.124437">
        <ele>690.042990</ele>
        <time>2017-06-02T08:31:22.000Z</time>
      </trkpt>
      <trkpt lat="45.970554" lon="6.124364">
        <ele>689.784182</ele>
        <time>2017-06-02T08:31:24.000Z</time>
      </trkpt>
      <trkpt lat="45.970455" lon="6.124287">
        <ele>689.506957</ele>
        <time>2017-06-02T08:31:26.000Z</time>
      </trkpt>
      <trkpt lat="45.970350" lon="6.124191">
        <ele>689.200500</ele>
        <time>2017-06-02T08:31:28.000Z</time>
      </trkpt>
      <trkpt lat="45.970234" lon="6.124094">
        <ele>688.987362</ele>
        <time>2017-06-02T08:31:30.000Z</time>
      </trkpt>
      <trkpt lat="45.970120" lon="6.123990">
        <ele>688.806420</ele>
        <time>2017-06-02T08:31:32.000Z</time>
      </trkpt>
      <trkpt lat="45.970013" lon="6.123880">
        <ele>688.630139</ele>
        <time>2017-06-02T08:31:34.000Z</time>
      </trkpt>
      <trkpt lat="45.969920" lon="6.123768">
        <ele>688.467569</ele>
        <time>2017-06-02T08:31:36.000Z</time>
      </trkpt>
      <trkpt lat="45.969833" lon="6.123660">
        <ele>688.313541</ele>
        <time>2017-06-02T08:31:38.000Z</time>
      </trkpt>
      <trkpt lat="45.969746" lon="6.123566">
        <ele>688.167698</ele>
        <time>2017-06-02T08:31:40.000Z</time>
      </trkpt>
      <trkpt lat="45.969660" lon="6.123492">
        <ele>688.033375</ele>
        <time>2017-06-02T08:31:42.000Z</time>
      </trkpt>
      <trkpt lat="45.969578" lon="6.123431">
        <ele>687.909634</ele>
        <time>2017-06-02T08:31:44.000Z</time>
      </trkpt>
      <trkpt lat="45.969482" lon="6.123363">
        <ele>687.766200</ele>
        <time>2017-06-02T08:31:46.000Z</time>
      </trkpt>
      <trkpt lat="45.969387" lon="6.123303">
        <ele>687.627127</ele>
        <time>2017-06-02T08:31:48.000Z</time>
      </trkpt>
      <trkpt lat="45.969288" lon="6.123256">
        <ele>687.487383</ele>
        <time>2017-06-02T08:31:50.000Z</time>
      </trkpt>
      <trkpt lat="45.969190" lon="6.123211">
        <ele>687.349490</ele>
        <time>2017-06-02T08:31:52.000Z</time>
      </trkpt>
      <trkpt lat="45.969086" lon="6.123190">
        <ele>687.208715</ele>
        <time>2017-06-02T08:31:54.000Z</time>
      </trkpt>
      <trkpt lat="45.968970" lon="6.123194">
        <ele>687.053177</ele>
        <time>2017-06-02T08:31:56.000Z</time>
      </trkpt>
      <trkpt lat="45.968864" lon="6.123199">
        <ele>686.911012</ele>
        <time>2017-06-02T08:31:58.000Z</time>
      </trkpt>
      <trkpt lat="45.968746" lon="6.123190">
        <ele>686.752615</ele>
        <time>2017-06-02T08:32:00.000Z</time>
      </trkpt>
      <trkpt lat="45.968620" lon="6.123168">
        <ele>685.951843</ele>
        <time>2017-06-02T08:32:02.000Z</time>
      </trkpt>
      <trkpt lat="45.968483" lon="6.123119">
        <ele>684.871900</ele>
        <time>2017-06-02T08:32:04.000Z</time>
      </trkpt>
      <trkpt lat="45.968353" lon="6.123076">
        <ele>683.851461</ele>
        <time>2017-06-02T08:32:06.000Z</time>
      </trkpt>
      <trkpt lat="45.968230" lon="6.123070">
        <ele>682.909976</ele>
        <time>2017-06-02T08:32:08.000Z</time>
      </trkpt>
      <trkpt lat="45.968113" lon="6.123130">
        <ele>681.959772</ele>
        <time>2017-06-02T08:32:10.000Z</time>
      </trkpt>
      <trkpt lat="45.968020" lon="6.123253">
        <ele>680.993394</ele>
        <time>2017-06-02T08:32:12.000Z</time>
      </trkpt>
      <trkpt lat="45.967940" lon="6.123398">
        <ele>680.009032</ele>
        <time>2017-06-02T08:32:14.000Z</time>
      </trkpt>
      <trkpt lat="45.967876" lon="6.123544">
        <ele>679.091229</ele>
        <time>2017-06-02T08:32:16.000Z</time>
      </trkpt>
      <trkpt lat="45.967804" lon="6.123689">
        <ele>678.143701</ele>
        <time>2017-06-02T08:32:18.000Z</time>
      </trkpt>
      <trkpt lat="45.967724" lon="6.123811">
        <ele>677.251877</ele>
        <time>2017-06-02T08:32:20.000Z</time>
      </trkpt>
      <trkpt lat="45.967640" lon="6.123882">
        <ele>676.506590</ele>
        <time>2017-06-02T08:32:22.000Z</time>
      </trkpt>
      <trkpt lat="45.967550" lon="6.123900">
        <ele>675.811473</ele>
        <time>2017-06-02T08:32:24.000Z</time>
      </trkpt>
      <trkpt lat="45.967450" lon="6.123849">
        <ele>674.999834</ele>
        <time>2017-06-02T08:32:26.000Z</time>
      </trkpt>
      <trkpt lat="45.967380" lon="6.123705">
        <ele>674.065476</ele>
        <time>2017-06-02T08:32:28.000Z</time>
      </trkpt>
      <trkpt lat="45.967335" lon="6.123518">
        <ele>673.013246</ele>
        <time>2017-06-02T08:32:30.000Z</time>
      </trkpt>
      <trkpt lat="45.967300" lon="6.123336">
        <ele>672.533218</ele>
        <time>2017-06-02T08:32:32.000Z</time>
      </trkpt>
      <trkpt lat="45.967270" lon="6.123150">
        <ele>672.079338</ele>
        <time>2017-06-02T08:32:34.000Z</time>
      </trkpt>
      <trkpt lat="45.967240" lon="6.122959">
        <ele>671.613873</ele>
        <time>2017-06-02T08:32:36.000Z</time>
      </trkpt>
      <trkpt lat="45.967186" lon="6.122773">
        <ele>671.134722</ele>
        <time>2017-06-02T08:32:38.000Z</time>
      </trkpt>
      <trkpt lat="45.967070" lon="6.122628">
        <ele>670.609198</ele>
        <time>2017-06-02T08:32:40.000Z</time>
      </trkpt>
      <trkpt lat="45.966920" lon="6.122563">
        <ele>670.073452</ele>
        <time>2017-06-02T08:32:42.000Z</time>
      </trkpt>
      <trkpt lat="45.966778" lon="6.122566">
        <ele>669.587777</ele>
        <time>2017-06-02T08:32:44.000Z</time>
      </trkpt>
      <trkpt lat="45.966650" lon="6.122584">
        <ele>669.147946</ele>
        <time>2017-06-02T08:32:46.000Z</time>
      </trkpt>
      <trkpt lat="45.966530" lon="6.122614">
        <ele>668.731411</ele>
        <time>2017-06-02T08:32:48.000Z</time>
      </trkpt>
      <trkpt lat="45.966410" lon="6.122644">
        <ele>668.314875</ele>
        <time>2017-06-02T08:32:50.000Z</time>
      </trkpt>
      <trkpt lat="45.966310" lon="6.122674">
        <ele>667.965531</ele>
        <time>2017-06-02T08:32:52.000Z</time>
      </trkpt>
      <trkpt lat="45.966213" lon="6.122713">
        <ele>667.621092</ele>
        <time>2017-06-02T08:32:54.000Z</time>
      </trkpt>
      <trkpt lat="45.966087" lon="6.122731">
        <ele>667.188068</ele>
        <time>2017-06-02T08:32:57.000Z</time>
      </trkpt>
      <trkpt lat="45.965960" lon="6.122710">
        <ele>666.751938</ele>
        <time>2017-06-02T08:33:00.000Z</time>
      </trkpt>
      <trkpt lat="45.965874" lon="6.122673">
        <ele>666.450853</ele>
        <time>2017-06-02T08:33:02.000Z</time>
      </trkpt>
      <trkpt lat="45.965770" lon="6.122609">
        <ele>666.071441</ele>
        <time>2017-06-02T08:33:04.000Z</time>
      </trkpt>
      <trkpt lat="45.965660" lon="6.122548">
        <ele>665.676016</ele>
        <time>2017-06-02T08:33:06.000Z</time>
      </trkpt>
      <trkpt lat="45.965530" lon="6.122475">
        <ele>665.207929</ele>
        <time>2017-06-02T08:33:08.000Z</time>
      </trkpt>
      <trkpt lat="45.965397" lon="6.122398">
        <ele>664.727051</ele>
        <time>2017-06-02T08:33:10.000Z</time>
      </trkpt>
      <trkpt lat="45.965260" lon="6.122313">
        <ele>664.226612</ele>
        <time>2017-06-02T08:33:12.000Z</time>
      </trkpt>
      <trkpt lat="45.965110" lon="6.122226">
        <ele>663.684130</ele>
        <time>2017-06-02T08:33:14.000Z</time>
      </trkpt>
      <trkpt lat="45.964962" lon="6.122143">
        <ele>663.151322</ele>
        <time>2017-06-02T08:33:16.000Z</time>
      </trkpt>
      <trkpt lat="45.964813" lon="6.122064">
        <ele>662.618683</ele>
        <time>2017-06-02T08:33:18.000Z</time>
      </trkpt>
      <trkpt lat="45.964650" lon="6.121974">
        <ele>662.033061</ele>
        <time>2017-06-02T08:33:20.000Z</time>
      </trkpt>
      <trkpt lat="45.964485" lon="6.121883">
        <ele>661.440340</ele>
        <time>2017-06-02T08:33:22.000Z</time>
      </trkpt>
      <trkpt lat="45.964333" lon="6.121785">
        <ele>660.881641</ele>
        <time>2017-06-02T08:33:24.000Z</time>
      </trkpt>
      <trkpt lat="45.964176" lon="6.121695">
        <ele>659.961242</ele>
        <time>2017-06-02T08:33:26.000Z</time>
      </trkpt>
      <trkpt lat="45.964030" lon="6.121604">
        <ele>659.015559</ele>
        <time>2017-06-02T08:33:28.000Z</time>
      </trkpt>
      <trkpt lat="45.963886" lon="6.121517">
        <ele>658.087293</ele>
        <time>2017-06-02T08:33:30.000Z</time>
      </trkpt>
      <trkpt lat="45.963737" lon="6.121442">
        <ele>657.149078</ele>
        <time>2017-06-02T08:33:32.000Z</time>
      </trkpt>
      <trkpt lat="45.963580" lon="6.121400">
        <ele>656.199961</ele>
        <time>2017-06-02T08:33:34.000Z</time>
      </trkpt>
      <trkpt lat="45.963420" lon="6.121374">
        <ele>655.242963</ele>
        <time>2017-06-02T08:33:36.000Z</time>
      </trkpt>
      <trkpt lat="45.963264" lon="6.121347">
        <ele>654.309099</ele>
        <time>2017-06-02T08:33:38.000Z</time>
      </trkpt>
      <trkpt lat="45.963120" lon="6.121294">
        <ele>653.425677</ele>
        <time>2017-06-02T08:33:40.000Z</time>
      </trkpt>
      <trkpt lat="45.962980" lon="6.121182">
        <ele>652.473590</ele>
        <time>2017-06-02T08:33:42.000Z</time>
      </trkpt>
      <trkpt lat="45.962826" lon="6.121076">
        <ele>651.458928</ele>
        <time>2017-06-02T08:33:44.000Z</time>
      </trkpt>
      <trkpt lat="45.962650" lon="6.121021">
        <ele>650.388486</ele>
        <time>2017-06-02T08:33:46.000Z</time>
      </trkpt>
      <trkpt lat="45.962550" lon="6.121014">
        <ele>649.751980</ele>
        <time>2017-06-02T08:33:47.000Z</time>
      </trkpt>
      <trkpt lat="45.962456" lon="6.121013">
        <ele>649.113175</ele>
        <time>2017-06-02T08:33:48.000Z</time>
      </trkpt>
      <trkpt lat="45.962280" lon="6.120992">
        <ele>647.913042</ele>
        <time>2017-06-02T08:33:50.000Z</time>
      </trkpt>
      <trkpt lat="45.962190" lon="6.120976">
        <ele>647.296785</ele>
        <time>2017-06-02T08:33:51.000Z</time>
      </trkpt>
      <trkpt lat="45.962017" lon="6.120950">
        <ele>646.114747</ele>
        <time>2017-06-02T08:33:53.000Z</time>
      </trkpt>
      <trkpt lat="45.961857" lon="6.120909">
        <ele>645.010335</ele>
        <time>2017-06-02T08:33:55.000Z</time>
      </trkpt>
      <trkpt lat="45.961708" lon="6.120861">
        <ele>643.972711</ele>
        <time>2017-06-02T08:33:57.000Z</time>
      </trkpt>
      <trkpt lat="45.961563" lon="6.120820">
        <ele>642.968494</ele>
        <time>2017-06-02T08:33:59.000Z</time>
      </trkpt>
      <trkpt lat="45.961422" lon="6.120781">
        <ele>641.992763</ele>
        <time>2017-06-02T08:34:01.000Z</time>
      </trkpt>
      <trkpt lat="45.961285" lon="6.120744">
        <ele>641.045500</ele>
        <time>2017-06-02T08:34:03.000Z</time>
      </trkpt>
      <trkpt lat="45.961147" lon="6.120717">
        <ele>640.099073</ele>
        <time>2017-06-02T08:34:05.000Z</time>
      </trkpt>
      <trkpt lat="45.961010" lon="6.120684">
        <ele>639.155113</ele>
        <time>2017-06-02T08:34:07.000Z</time>
      </trkpt>
      <trkpt lat="45.960890" lon="6.120607">
        <ele>638.262193</ele>
        <time>2017-06-02T08:34:09.000Z</time>
      </trkpt>
      <trkpt lat="45.960800" lon="6.120471">
        <ele>637.449471</ele>
        <time>2017-06-02T08:34:11.000Z</time>
      </trkpt>
      <trkpt lat="45.960754" lon="6.120284">
        <ele>636.656101</ele>
        <time>2017-06-02T08:34:13.000Z</time>
      </trkpt>
      <trkpt lat="45.960712" lon="6.120106">
        <ele>635.904281</ele>
        <time>2017-06-02T08:34:15.000Z</time>
      </trkpt>
      <trkpt lat="45.960667" lon="6.119934">
        <ele>635.169242</ele>
        <time>2017-06-02T08:34:17.000Z</time>
      </trkpt>
      <trkpt lat="45.960625" lon="6.119761">
        <ele>634.436329</ele>
        <time>2017-06-02T08:34:19.000Z</time>
      </trkpt>
      <trkpt lat="45.960580" lon="6.119594">
        <ele>633.719971</ele>
        <time>2017-06-02T08:34:21.000Z</time>
      </trkpt>
      <trkpt lat="45.960518" lon="6.119432">
        <ele>632.980330</ele>
        <time>2017-06-02T08:34:23.000Z</time>
      </trkpt>
      <trkpt lat="45.960445" lon="6.119276">
        <ele>632.228194</ele>
        <time>2017-06-02T08:34:25.000Z</time>
      </trkpt>
      <trkpt lat="45.960354" lon="6.119135">
        <ele>631.458673</ele>
        <time>2017-06-02T08:34:27.000Z</time>
      </trkpt>
      <trkpt lat="45.960260" lon="6.119012">
        <ele>630.727565</ele>
        <time>2017-06-02T08:34:29.000Z</time>
      </trkpt>
      <trkpt lat="45.960148" lon="6.118913">
        <ele>629.971234</ele>
        <time>2017-06-02T08:34:31.000Z</time>
      </trkpt>
      <trkpt lat="45.960040" lon="6.118806">
        <ele>629.216736</ele>
        <time>2017-06-02T08:34:33.000Z</time>
      </trkpt>
      <trkpt lat="45.959934" lon="6.118696">
        <ele>628.464729</ele>
        <time>2017-06-02T08:34:35.000Z</time>
      </trkpt>
      <trkpt lat="45.959824" lon="6.118602">
        <ele>627.728589</ele>
        <time>2017-06-02T08:34:37.000Z</time>
      </trkpt>
      <trkpt lat="45.959710" lon="6.118508">
        <ele>627.115000</ele>
        <time>2017-06-02T08:34:39.000Z</time>
      </trkpt>
      <trkpt lat="45.959590" lon="6.118434">
        <ele>626.562469</ele>
        <time>2017-06-02T08:34:41.000Z</time>
      </trkpt>
      <trkpt lat="45.959470" lon="6.118385">
        <ele>626.034570</ele>
        <time>2017-06-02T08:34:43.000Z</time>
      </trkpt>
      <trkpt lat="45.959343" lon="6.118343">
        <ele>625.483091</ele>
        <time>2017-06-02T08:34:45.000Z</time>
      </trkpt>
      <trkpt lat="45.959206" lon="6.118313">
        <ele>624.896633</ele>
        <time>2017-06-02T08:34:47.000Z</time>
      </trkpt>
      <trkpt lat="45.959060" lon="6.118299">
        <ele>624.277395</ele>
        <time>2017-06-02T08:34:49.000Z</time>
      </trkpt>
      <trkpt lat="45.958920" lon="6.118257">
        <ele>623.672173</ele>
        <time>2017-06-02T08:34:51.000Z</time>
      </trkpt>
      <trkpt lat="45.958780" lon="6.118221">
        <ele>623.070307</ele>
        <time>2017-06-02T08:34:53.000Z</time>
      </trkpt>
      <trkpt lat="45.958640" lon="6.118153">
        <ele>622.444969</ele>
        <time>2017-06-02T08:34:55.000Z</time>
      </trkpt>
      <trkpt lat="45.958508" lon="6.118052">
        <ele>621.812240</ele>
        <time>2017-06-02T08:34:57.000Z</time>
      </trkpt>
      <trkpt lat="45.958380" lon="6.117928">
        <ele>621.159161</ele>
        <time>2017-06-02T08:34:59.000Z</time>
      </trkpt>
      <trkpt lat="45.958256" lon="6.117776">
        <ele>620.469707</ele>
        <time>2017-06-02T08:35:01.000Z</time>
      </trkpt>
      <trkpt lat="45.958138" lon="6.117627">
        <ele>619.714354</ele>
        <time>2017-06-02T08:35:03.000Z</time>
      </trkpt>
      <trkpt lat="45.958030" lon="6.117446">
        <ele>618.334994</ele>
        <time>2017-06-02T08:35:05.000Z</time>
      </trkpt>
      <trkpt lat="45.957947" lon="6.117234">
        <ele>616.927997</ele>
        <time>2017-06-02T08:35:07.000Z</time>
      </trkpt>
      <trkpt lat="45.957897" lon="6.117010">
        <ele>615.567516</ele>
        <time>2017-06-02T08:35:09.000Z</time>
      </trkpt>
      <trkpt lat="45.957860" lon="6.116784">
        <ele>614.224851</ele>
        <time>2017-06-02T08:35:11.000Z</time>
      </trkpt>
      <trkpt lat="45.957810" lon="6.116568">
        <ele>612.908339</ele>
        <time>2017-06-02T08:35:13.000Z</time>
      </trkpt>
      <trkpt lat="45.957770" lon="6.116349">
        <ele>611.598923</ele>
        <time>2017-06-02T08:35:15.000Z</time>
      </trkpt>
      <trkpt lat="45.957740" lon="6.116135">
        <ele>610.336490</ele>
        <time>2017-06-02T08:35:17.000Z</time>
      </trkpt>
      <trkpt lat="45.957726" lon="6.115925">
        <ele>609.116527</ele>
        <time>2017-06-02T08:35:19.000Z</time>
      </trkpt>
      <trkpt lat="45.957718" lon="6.115702">
        <ele>607.825243</ele>
        <time>2017-06-02T08:35:21.000Z</time>
      </trkpt>
      <trkpt lat="45.957703" lon="6.115472">
        <ele>606.489354</ele>
        <time>2017-06-02T08:35:23.000Z</time>
      </trkpt>
      <trkpt lat="45.957670" lon="6.115254">
        <ele>605.199159</ele>
        <time>2017-06-02T08:35:25.000Z</time>
      </trkpt>
      <trkpt lat="45.957610" lon="6.115047">
        <ele>604.152193</ele>
        <time>2017-06-02T08:35:27.000Z</time>
      </trkpt>
      <trkpt lat="45.957530" lon="6.114856">
        <ele>603.174000</ele>
        <time>2017-06-02T08:35:29.000Z</time>
      </trkpt>
      <trkpt lat="45.957436" lon="6.114669">
        <ele>602.161694</ele>
        <time>2017-06-02T08:35:31.000Z</time>
      </trkpt>
      <trkpt lat="45.957344" lon="6.114492">
        <ele>601.192206</ele>
        <time>2017-06-02T08:35:33.000Z</time>
      </trkpt>
      <trkpt lat="45.957250" lon="6.114328">
        <ele>600.259783</ele>
        <time>2017-06-02T08:35:35.000Z</time>
      </trkpt>
      <trkpt lat="45.957170" lon="6.114189">
        <ele>599.468174</ele>
        <time>2017-06-02T08:35:37.000Z</time>
      </trkpt>
      <trkpt lat="45.957108" lon="6.114025">
        <ele>598.649244</ele>
        <time>2017-06-02T08:35:39.000Z</time>
      </trkpt>
      <trkpt lat="45.957085" lon="6.113846">
        <ele>597.850709</ele>
        <time>2017-06-02T08:35:41.000Z</time>
      </trkpt>
      <trkpt lat="45.957080" lon="6.113671">
        <ele>597.082372</ele>
        <time>2017-06-02T08:35:43.000Z</time>
      </trkpt>
      <trkpt lat="45.957096" lon="6.113495">
        <ele>596.303723</ele>
        <time>2017-06-02T08:35:45.000Z</time>
      </trkpt>
      <trkpt lat="45.957123" lon="6.113332">
        <ele>595.568658</ele>
        <time>2017-06-02T08:35:47.000Z</time>
      </trkpt>
      <trkpt lat="45.957140" lon="6.113202">
        <ele>594.988374</ele>
        <time>2017-06-02T08:35:49.000Z</time>
      </trkpt>
      <trkpt lat="45.957085" lon="6.113046">
        <ele>594.221060</ele>
        <time>2017-06-02T08:35:52.000Z</time>
      </trkpt>
      <trkpt lat="45.956993" lon="6.113042">
        <ele>593.640262</ele>
        <time>2017-06-02T08:35:54.000Z</time>
      </trkpt>
      <trkpt lat="45.956930" lon="6.113140">
        <ele>593.037013</ele>
        <time>2017-06-02T08:35:56.000Z</time>
      </trkpt>
      <trkpt lat="45.956867" lon="6.113281">
        <ele>592.277318</ele>
        <time>2017-06-02T08:35:58.000Z</time>
      </trkpt>
      <trkpt lat="45.956820" lon="6.113437">
        <ele>591.506703</ele>
        <time>2017-06-02T08:36:00.000Z</time>
      </trkpt>
      <trkpt lat="45.956776" lon="6.113590">
        <ele>590.756237</ele>
        <time>2017-06-02T08:36:02.000Z</time>
      </trkpt>
      <trkpt lat="45.956707" lon="6.113723">
        <ele>590.004058</ele>
        <time>2017-06-02T08:36:04.000Z</time>
      </trkpt>
      <trkpt lat="45.956608" lon="6.113762">
        <ele>589.334838</ele>
        <time>2017-06-02T08:36:06.000Z</time>
      </trkpt>
      <trkpt lat="45.956500" lon="6.113709">
        <ele>588.590858</ele>
        <time>2017-06-02T08:36:08.000Z</time>
      </trkpt>
      <trkpt lat="45.956398" lon="6.113625">
        <ele>587.824569</ele>
        <time>2017-06-02T08:36:10.000Z</time>
      </trkpt>
      <trkpt lat="45.956295" lon="6.113531">
        <ele>587.029283</ele>
        <time>2017-06-02T08:36:12.000Z</time>
      </trkpt>
      <trkpt lat="45.956196" lon="6.113436">
        <ele>586.253384</ele>
        <time>2017-06-02T08:36:14.000Z</time>
      </trkpt>
      <trkpt lat="45.956090" lon="6.113353">
        <ele>585.466533</ele>
        <time>2017-06-02T08:36:16.000Z</time>
      </trkpt>
      <trkpt lat="45.955997" lon="6.113258">
        <ele>584.722858</ele>
        <time>2017-06-02T08:36:18.000Z</time>
      </trkpt>
      <trkpt lat="45.955894" lon="6.113126">
        <ele>583.823459</ele>
        <time>2017-06-02T08:36:20.000Z</time>
      </trkpt>
      <trkpt lat="45.955800" lon="6.112972">
        <ele>582.894578</ele>
        <time>2017-06-02T08:36:22.000Z</time>
      </trkpt>
      <trkpt lat="45.955704" lon="6.112816">
        <ele>581.950273</ele>
        <time>2017-06-02T08:36:24.000Z</time>
      </trkpt>
      <trkpt lat="45.955610" lon="6.112666">
        <ele>581.161465</ele>
        <time>2017-06-02T08:36:26.000Z</time>
      </trkpt>
      <trkpt lat="45.955517" lon="6.112551">
        <ele>580.484310</ele>
        <time>2017-06-02T08:36:28.000Z</time>
      </trkpt>
      <trkpt lat="45.955425" lon="6.112485">
        <ele>579.916667</ele>
        <time>2017-06-02T08:36:30.000Z</time>
      </trkpt>
      <trkpt lat="45.955334" lon="6.112459">
        <ele>579.404402</ele>
        <time>2017-06-02T08:36:32.000Z</time>
      </trkpt>
      <trkpt lat="45.955220" lon="6.112441">
        <ele>578.771179</ele>
        <time>2017-06-02T08:36:35.000Z</time>
      </trkpt>
      <trkpt lat="45.955105" lon="6.112441">
        <ele>578.136217</ele>
        <time>2017-06-02T08:36:38.000Z</time>
      </trkpt>
      <trkpt lat="45.954967" lon="6.112477">
        <ele>577.361831</ele>
        <time>2017-06-02T08:36:41.000Z</time>
      </trkpt>
      <trkpt lat="45.954857" lon="6.112485">
        <ele>576.753700</ele>
        <time>2017-06-02T08:36:43.000Z</time>
      </trkpt>
      <trkpt lat="45.954742" lon="6.112477">
        <ele>576.117995</ele>
        <time>2017-06-02T08:36:45.000Z</time>
      </trkpt>
      <trkpt lat="45.954640" lon="6.112464">
        <ele>575.552604</ele>
        <time>2017-06-02T08:36:47.000Z</time>
      </trkpt>
      <trkpt lat="45.954544" lon="6.112443">
        <ele>575.016453</ele>
        <time>2017-06-02T08:36:49.000Z</time>
      </trkpt>
      <trkpt lat="45.954445" lon="6.112418">
        <ele>574.461473</ele>
        <time>2017-06-02T08:36:51.000Z</time>
      </trkpt>
      <trkpt lat="45.954327" lon="6.112404">
        <ele>573.807733</ele>
        <time>2017-06-02T08:36:54.000Z</time>
      </trkpt>
      <trkpt lat="45.954224" lon="6.112278">
        <ele>573.061164</ele>
        <time>2017-06-02T08:36:57.000Z</time>
      </trkpt>
      <trkpt lat="45.954174" lon="6.112160">
        <ele>572.530702</ele>
        <time>2017-06-02T08:36:59.000Z</time>
      </trkpt>
      <trkpt lat="45.954100" lon="6.112027">
        <ele>571.872513</ele>
        <time>2017-06-02T08:37:02.000Z</time>
      </trkpt>
      <trkpt lat="45.954006" lon="6.111966">
        <ele>571.257500</ele>
        <time>2017-06-02T08:37:08.000Z</time>
      </trkpt>
      <trkpt lat="45.954010" lon="6.112103">
        <ele>570.688963</ele>
        <time>2017-06-02T08:37:15.000Z</time>
      </trkpt>
      <trkpt lat="45.953990" lon="6.112230">
        <ele>570.149048</ele>
        <time>2017-06-02T08:37:19.000Z</time>
      </trkpt>
      <trkpt lat="45.954000" lon="6.112386">
        <ele>569.499488</ele>
        <time>2017-06-02T08:37:22.000Z</time>
      </trkpt>
      <trkpt lat="45.953995" lon="6.112550">
        <ele>568.818849</ele>
        <time>2017-06-02T08:37:26.000Z</time>
      </trkpt>
      <trkpt lat="45.953922" lon="6.112669">
        <ele>568.160832</ele>
        <time>2017-06-02T08:37:30.000Z</time>
      </trkpt>
      <trkpt lat="45.953842" lon="6.112790">
        <ele>567.468495</ele>
        <time>2017-06-02T08:37:33.000Z</time>
      </trkpt>
      <trkpt lat="45.953762" lon="6.112887">
        <ele>566.844488</ele>
        <time>2017-06-02T08:37:35.000Z</time>
      </trkpt>
      <trkpt lat="45.953682" lon="6.113042">
        <ele>566.044077</ele>
        <time>2017-06-02T08:37:37.000Z</time>
      </trkpt>
      <trkpt lat="45.953594" lon="6.113228">
        <ele>565.111234</ele>
        <time>2017-06-02T08:37:39.000Z</time>
      </trkpt>
      <trkpt lat="45.953495" lon="6.113429">
        <ele>564.089884</ele>
        <time>2017-06-02T08:37:41.000Z</time>
      </trkpt>
      <trkpt lat="45.953450" lon="6.113542">
        <ele>563.549935</ele>
        <time>2017-06-02T08:37:42.000Z</time>
      </trkpt>
      <trkpt lat="45.953396" lon="6.113655">
        <ele>562.981397</ele>
        <time>2017-06-02T08:37:43.000Z</time>
      </trkpt>
      <trkpt lat="45.953342" lon="6.113768">
        <ele>562.412858</ele>
        <time>2017-06-02T08:37:44.000Z</time>
      </trkpt>
      <trkpt lat="45.953290" lon="6.113881">
        <ele>561.850989</ele>
        <time>2017-06-02T08:37:45.000Z</time>
      </trkpt>
      <trkpt lat="45.953197" lon="6.114093">
        <ele>560.902999</ele>
        <time>2017-06-02T08:37:47.000Z</time>
      </trkpt>
      <trkpt lat="45.953100" lon="6.114292">
        <ele>560.130313</ele>
        <time>2017-06-02T08:37:49.000Z</time>
      </trkpt>
      <trkpt lat="45.953000" lon="6.114492">
        <ele>559.347092</ele>
        <time>2017-06-02T08:37:51.000Z</time>
      </trkpt>
      <trkpt lat="45.952900" lon="6.114681">
        <ele>558.591986</ele>
        <time>2017-06-02T08:37:53.000Z</time>
      </trkpt>
      <trkpt lat="45.952827" lon="6.114826">
        <ele>558.022812</ele>
        <time>2017-06-02T08:37:55.000Z</time>
      </trkpt>
      <trkpt lat="45.952763" lon="6.114945">
        <ele>557.544487</ele>
        <time>2017-06-02T08:37:57.000Z</time>
      </trkpt>
      <trkpt lat="45.952698" lon="6.115078">
        <ele>557.027618</ele>
        <time>2017-06-02T08:37:59.000Z</time>
      </trkpt>
      <trkpt lat="45.952644" lon="6.115207">
        <ele>556.548882</ele>
        <time>2017-06-02T08:38:01.000Z</time>
      </trkpt>
      <trkpt lat="45.952580" lon="6.115340">
        <ele>556.034628</ele>
        <time>2017-06-02T08:38:03.000Z</time>
      </trkpt>
      <trkpt lat="45.952522" lon="6.115464">
        <ele>555.559476</ele>
        <time>2017-06-02T08:38:05.000Z</time>
      </trkpt>
      <trkpt lat="45.952465" lon="6.115574">
        <ele>555.123298</ele>
        <time>2017-06-02T08:38:07.000Z</time>
      </trkpt>
      <trkpt lat="45.952404" lon="6.115667">
        <ele>554.716803</ele>
        <time>2017-06-02T08:38:09.000Z</time>
      </trkpt>
      <trkpt lat="45.952320" lon="6.115753">
        <ele>554.245303</ele>
        <time>2017-06-02T08:38:11.000Z</time>
      </trkpt>
      <trkpt lat="45.952217" lon="6.115833">
        <ele>553.710005</ele>
        <time>2017-06-02T08:38:13.000Z</time>
      </trkpt>
      <trkpt lat="45.952110" lon="6.115923">
        <ele>553.143177</ele>
        <time>2017-06-02T08:38:15.000Z</time>
      </trkpt>
      <trkpt lat="45.951984" lon="6.115975">
        <ele>552.969084</ele>
        <time>2017-06-02T08:38:17.000Z</time>
      </trkpt>
      <trkpt lat="45.951855" lon="6.116005">
        <ele>552.956287</ele>
        <time>2017-06-02T08:38:19.000Z</time>
      </trkpt>
      <trkpt lat="45.951730" lon="6.116005">
        <ele>552.944046</ele>
        <time>2017-06-02T08:38:21.000Z</time>
      </trkpt>
      <trkpt lat="45.951595" lon="6.115949">
        <ele>552.930287</ele>
        <time>2017-06-02T08:38:23.000Z</time>
      </trkpt>
      <trkpt lat="45.951460" lon="6.115898">
        <ele>552.916618</ele>
        <time>2017-06-02T08:38:25.000Z</time>
      </trkpt>
      <trkpt lat="45.951347" lon="6.115844">
        <ele>552.904957</ele>
        <time>2017-06-02T08:38:27.000Z</time>
      </trkpt>
      <trkpt lat="45.951220" lon="6.115788">
        <ele>552.891948</ele>
        <time>2017-06-02T08:38:29.000Z</time>
      </trkpt>
      <trkpt lat="45.951110" lon="6.115740">
        <ele>552.880691</ele>
        <time>2017-06-02T08:38:31.000Z</time>
      </trkpt>
      <trkpt lat="45.950980" lon="6.115710">
        <ele>552.867797</ele>
        <time>2017-06-02T08:38:33.000Z</time>
      </trkpt>
      <trkpt lat="45.950836" lon="6.115727">
        <ele>552.853648</ele>
        <time>2017-06-02T08:38:35.000Z</time>
      </trkpt>
      <trkpt lat="45.950790" lon="6.115573">
        <ele>552.842236</ele>
        <time>2017-06-02T08:38:37.000Z</time>
      </trkpt>
      <trkpt lat="45.950676" lon="6.115527">
        <ele>552.830640</ele>
        <time>2017-06-02T08:38:39.000Z</time>
      </trkpt>
      <trkpt lat="45.950560" lon="6.115483">
        <ele>552.818892</ele>
        <time>2017-06-02T08:38:41.000Z</time>
      </trkpt>
      <trkpt lat="45.950462" lon="6.115455">
        <ele>552.809107</ele>
        <time>2017-06-02T08:38:43.000Z</time>
      </trkpt>
      <trkpt lat="45.950375" lon="6.115408">
        <ele>552.870511</ele>
        <time>2017-06-02T08:38:45.000Z</time>
      </trkpt>
      <trkpt lat="45.950287" lon="6.115375">
        <ele>553.141330</ele>
        <time>2017-06-02T08:38:47.000Z</time>
      </trkpt>
      <trkpt lat="45.950160" lon="6.115326">
        <ele>553.532898</ele>
        <time>2017-06-02T08:38:50.000Z</time>
      </trkpt>
      <trkpt lat="45.950043" lon="6.115329">
        <ele>553.881372</ele>
        <time>2017-06-02T08:38:53.000Z</time>
      </trkpt>
      <trkpt lat="45.949913" lon="6.115362">
        <ele>554.274486</ele>
        <time>2017-06-02T08:38:56.000Z</time>
      </trkpt>
      <trkpt lat="45.949800" lon="6.115412">
        <ele>554.626557</ele>
        <time>2017-06-02T08:38:59.000Z</time>
      </trkpt>
      <trkpt lat="45.949690" lon="6.115485">
        <ele>554.987320</ele>
        <time>2017-06-02T08:39:02.000Z</time>
      </trkpt>
      <trkpt lat="45.949608" lon="6.115552">
        <ele>555.268164</ele>
        <time>2017-06-02T08:39:04.000Z</time>
      </trkpt>
      <trkpt lat="45.949500" lon="6.115645">
        <ele>555.643019</ele>
        <time>2017-06-02T08:39:07.000Z</time>
      </trkpt>
      <trkpt lat="45.949390" lon="6.115744">
        <ele>556.029441</ele>
        <time>2017-06-02T08:39:10.000Z</time>
      </trkpt>
      <trkpt lat="45.949287" lon="6.115833">
        <ele>556.387267</ele>
        <time>2017-06-02T08:39:13.000Z</time>
      </trkpt>
      <trkpt lat="45.949196" lon="6.115921">
        <ele>556.713819</ele>
        <time>2017-06-02T08:39:16.000Z</time>
      </trkpt>
      <trkpt lat="45.949093" lon="6.116009">
        <ele>557.070584</ele>
        <time>2017-06-02T08:39:19.000Z</time>
      </trkpt>
      <trkpt lat="45.949000" lon="6.116106">
        <ele>557.412692</ele>
        <time>2017-06-02T08:39:22.000Z</time>
      </trkpt>
      <trkpt lat="45.948902" lon="6.116198">
        <ele>557.761197</ele>
        <time>2017-06-02T08:39:25.000Z</time>
      </trkpt>
      <trkpt lat="45.948800" lon="6.116286">
        <ele>558.115405</ele>
        <time>2017-06-02T08:39:28.000Z</time>
      </trkpt>
      <trkpt lat="45.948710" lon="6.116380">
        <ele>557.982000</ele>
        <time>2017-06-02T08:39:31.000Z</time>
      </trkpt>
      <trkpt lat="45.948624" lon="6.116468">
        <ele>557.789492</ele>
        <time>2017-06-02T08:39:34.000Z</time>
      </trkpt>
      <trkpt lat="45.948532" lon="6.116556">
        <ele>557.587967</ele>
        <time>2017-06-02T08:39:37.000Z</time>
      </trkpt>
      <trkpt lat="45.948425" lon="6.116664">
        <ele>557.349541</ele>
        <time>2017-06-02T08:39:40.000Z</time>
      </trkpt>
      <trkpt lat="45.948315" lon="6.116771">
        <ele>557.107328</ele>
        <time>2017-06-02T08:39:43.000Z</time>
      </trkpt>
      <trkpt lat="45.948240" lon="6.116849">
        <ele>556.938515</ele>
        <time>2017-06-02T08:39:45.000Z</time>
      </trkpt>
      <trkpt lat="45.948160" lon="6.116931">
        <ele>556.759335</ele>
        <time>2017-06-02T08:39:47.000Z</time>
      </trkpt>
      <trkpt lat="45.948074" lon="6.117023">
        <ele>556.563842</ele>
        <time>2017-06-02T08:39:49.000Z</time>
      </trkpt>
      <trkpt lat="45.947987" lon="6.117134">
        <ele>556.351719</ele>
        <time>2017-06-02T08:39:51.000Z</time>
      </trkpt>
      <trkpt lat="45.947900" lon="6.117254">
        <ele>556.131855</ele>
        <time>2017-06-02T08:39:53.000Z</time>
      </trkpt>
      <trkpt lat="45.947796" lon="6.117394">
        <ele>555.872037</ele>
        <time>2017-06-02T08:39:55.000Z</time>
      </trkpt>
      <trkpt lat="45.947680" lon="6.117540">
        <ele>555.590882</ele>
        <time>2017-06-02T08:39:57.000Z</time>
      </trkpt>
      <trkpt lat="45.947563" lon="6.117690">
        <ele>555.305001</ele>
        <time>2017-06-02T08:39:59.000Z</time>
      </trkpt>
      <trkpt lat="45.947433" lon="6.117852">
        <ele>554.991263</ele>
        <time>2017-06-02T08:40:01.000Z</time>
      </trkpt>
      <trkpt lat="45.947304" lon="6.118015">
        <ele>554.668776</ele>
        <time>2017-06-02T08:40:03.000Z</time>
      </trkpt>
      <trkpt lat="45.947178" lon="6.118172">
        <ele>554.350569</ele>
        <time>2017-06-02T08:40:05.000Z</time>
      </trkpt>
      <trkpt lat="45.947063" lon="6.118334">
        <ele>554.043311</ele>
        <time>2017-06-02T08:40:07.000Z</time>
      </trkpt>
      <trkpt lat="45.946953" lon="6.118486">
        <ele>553.752144</ele>
        <time>2017-06-02T08:40:09.000Z</time>
      </trkpt>
      <trkpt lat="45.946842" lon="6.118621">
        <ele>553.474674</ele>
        <time>2017-06-02T08:40:11.000Z</time>
      </trkpt>
      <trkpt lat="45.946735" lon="6.118722">
        <ele>553.230381</ele>
        <time>2017-06-02T08:40:13.000Z</time>
      </trkpt>
      <trkpt lat="45.946644" lon="6.118839">
        <ele>552.997397</ele>
        <time>2017-06-02T08:40:15.000Z</time>
      </trkpt>
      <trkpt lat="45.946560" lon="6.118931">
        <ele>552.795865</ele>
        <time>2017-06-02T08:40:17.000Z</time>
      </trkpt>
      <trkpt lat="45.946470" lon="6.119004">
        <ele>552.598643</ele>
        <time>2017-06-02T08:40:19.000Z</time>
      </trkpt>
      <trkpt lat="45.946384" lon="6.119081">
        <ele>552.405281</ele>
        <time>2017-06-02T08:40:21.000Z</time>
      </trkpt>
      <trkpt lat="45.946304" lon="6.119167">
        <ele>552.214640</ele>
        <time>2017-06-02T08:40:23.000Z</time>
      </trkpt>
      <trkpt lat="45.946224" lon="6.119244">
        <ele>552.030900</ele>
        <time>2017-06-02T08:40:25.000Z</time>
      </trkpt>
      <trkpt lat="45.946144" lon="6.119313">
        <ele>551.852847</ele>
        <time>2017-06-02T08:40:27.000Z</time>
      </trkpt>
      <trkpt lat="45.946064" lon="6.119376">
        <ele>551.678756</ele>
        <time>2017-06-02T08:40:29.000Z</time>
      </trkpt>
      <trkpt lat="45.945950" lon="6.119471">
        <ele>551.435486</ele>
        <time>2017-06-02T08:40:32.000Z</time>
      </trkpt>
      <trkpt lat="45.945870" lon="6.119546">
        <ele>551.338754</ele>
        <time>2017-06-02T08:40:34.000Z</time>
      </trkpt>
      <trkpt lat="45.945793" lon="6.119629">
        <ele>551.241281</ele>
        <time>2017-06-02T08:40:36.000Z</time>
      </trkpt>
      <trkpt lat="45.945720" lon="6.119708">
        <ele>551.148740</ele>
        <time>2017-06-02T08:40:38.000Z</time>
      </trkpt>
      <trkpt lat="45.945614" lon="6.119824">
        <ele>551.013818</ele>
        <time>2017-06-02T08:40:41.000Z</time>
      </trkpt>
      <trkpt lat="45.945545" lon="6.119925">
        <ele>550.914090</ele>
        <time>2017-06-02T08:40:43.000Z</time>
      </trkpt>
      <trkpt lat="45.945473" lon="6.120019">
        <ele>550.815589</ele>
        <time>2017-06-02T08:40:45.000Z</time>
      </trkpt>
      <trkpt lat="45.945400" lon="6.120123">
        <ele>550.711505</ele>
        <time>2017-06-02T08:40:47.000Z</time>
      </trkpt>
      <trkpt lat="45.945330" lon="6.120222">
        <ele>550.612057</ele>
        <time>2017-06-02T08:40:49.000Z</time>
      </trkpt>
      <trkpt lat="45.945263" lon="6.120329">
        <ele>550.510639</ele>
        <time>2017-06-02T08:40:51.000Z</time>
      </trkpt>
      <trkpt lat="45.945187" lon="6.120431">
        <ele>550.405340</ele>
        <time>2017-06-02T08:40:53.000Z</time>
      </trkpt>
      <trkpt lat="45.945103" lon="6.120531">
        <ele>550.294883</ele>
        <time>2017-06-02T08:40:55.000Z</time>
      </trkpt>
      <trkpt lat="45.945020" lon="6.120629">
        <ele>550.186103</ele>
        <time>2017-06-02T08:40:57.000Z</time>
      </trkpt>
      <trkpt lat="45.944927" lon="6.120707">
        <ele>550.077051</ele>
        <time>2017-06-02T08:40:59.000Z</time>
      </trkpt>
      <trkpt lat="45.944824" lon="6.120794">
        <ele>549.956054</ele>
        <time>2017-06-02T08:41:01.000Z</time>
      </trkpt>
      <trkpt lat="45.944714" lon="6.120889">
        <ele>549.826083</ele>
        <time>2017-06-02T08:41:03.000Z</time>
      </trkpt>
      <trkpt lat="45.944603" lon="6.120990">
        <ele>549.693031</ele>
        <time>2017-06-02T08:41:05.000Z</time>
      </trkpt>
      <trkpt lat="45.944500" lon="6.121117">
        <ele>549.342763</ele>
        <time>2017-06-02T08:41:07.000Z</time>
      </trkpt>
      <trkpt lat="45.944400" lon="6.121262">
        <ele>548.743741</ele>
        <time>2017-06-02T08:41:09.000Z</time>
      </trkpt>
      <trkpt lat="45.944310" lon="6.121418">
        <ele>548.149177</ele>
        <time>2017-06-02T08:41:11.000Z</time>
      </trkpt>
      <trkpt lat="45.944233" lon="6.121597">
        <ele>547.531789</ele>
        <time>2017-06-02T08:41:13.000Z</time>
      </trkpt>
      <trkpt lat="45.944164" lon="6.121800">
        <ele>546.869019</ele>
        <time>2017-06-02T08:41:15.000Z</time>
      </trkpt>
      <trkpt lat="45.944107" lon="6.122019">
        <ele>546.183123</ele>
        <time>2017-06-02T08:41:17.000Z</time>
      </trkpt>
      <trkpt lat="45.944060" lon="6.122237">
        <ele>545.513654</ele>
        <time>2017-06-02T08:41:19.000Z</time>
      </trkpt>
      <trkpt lat="45.944010" lon="6.122458">
        <ele>544.831967</ele>
        <time>2017-06-02T08:41:21.000Z</time>
      </trkpt>
      <trkpt lat="45.943947" lon="6.122666">
        <ele>544.166493</ele>
        <time>2017-06-02T08:41:23.000Z</time>
      </trkpt>
      <trkpt lat="45.943860" lon="6.122850">
        <ele>543.513830</ele>
        <time>2017-06-02T08:41:25.000Z</time>
      </trkpt>
      <trkpt lat="45.943740" lon="6.123021">
        <ele>542.801220</ele>
        <time>2017-06-02T08:41:27.000Z</time>
      </trkpt>
      <trkpt lat="45.943600" lon="6.123153">
        <ele>542.095055</ele>
        <time>2017-06-02T08:41:29.000Z</time>
      </trkpt>
      <trkpt lat="45.943436" lon="6.123240">
        <ele>541.751872</ele>
        <time>2017-06-02T08:41:31.000Z</time>
      </trkpt>
      <trkpt lat="45.943268" lon="6.123288">
        <ele>541.449396</ele>
        <time>2017-06-02T08:41:33.000Z</time>
      </trkpt>
      <trkpt lat="45.943104" lon="6.123291">
        <ele>541.159759</ele>
        <time>2017-06-02T08:41:35.000Z</time>
      </trkpt>
      <trkpt lat="45.942947" lon="6.123263">
        <ele>540.880383</ele>
        <time>2017-06-02T08:41:37.000Z</time>
      </trkpt>
      <trkpt lat="45.942800" lon="6.123228">
        <ele>540.617256</ele>
        <time>2017-06-02T08:41:39.000Z</time>
      </trkpt>
      <trkpt lat="45.942657" lon="6.123183">
        <ele>540.358751</ele>
        <time>2017-06-02T08:41:41.000Z</time>
      </trkpt>
      <trkpt lat="45.942520" lon="6.123142">
        <ele>540.111635</ele>
        <time>2017-06-02T08:41:43.000Z</time>
      </trkpt>
      <trkpt lat="45.942383" lon="6.123102">
        <ele>539.864765</ele>
        <time>2017-06-02T08:41:45.000Z</time>
      </trkpt>
      <trkpt lat="45.942257" lon="6.123066">
        <ele>539.637908</ele>
        <time>2017-06-02T08:41:47.000Z</time>
      </trkpt>
      <trkpt lat="45.942142" lon="6.123021">
        <ele>539.427441</ele>
        <time>2017-06-02T08:41:49.000Z</time>
      </trkpt>
      <trkpt lat="45.942024" lon="6.122986">
        <ele>539.214674</ele>
        <time>2017-06-02T08:41:51.000Z</time>
      </trkpt>
      <trkpt lat="45.941914" lon="6.122953">
        <ele>539.016239</ele>
        <time>2017-06-02T08:41:53.000Z</time>
      </trkpt>
      <trkpt lat="45.941810" lon="6.122920">
        <ele>538.831391</ele>
        <time>2017-06-02T08:41:55.000Z</time>
      </trkpt>
      <trkpt lat="45.941715" lon="6.122897">
        <ele>538.678829</ele>
        <time>2017-06-02T08:41:57.000Z</time>
      </trkpt>
      <trkpt lat="45.941580" lon="6.122875">
        <ele>538.463670</ele>
        <time>2017-06-02T08:42:00.000Z</time>
      </trkpt>
      <trkpt lat="45.941475" lon="6.122850">
        <ele>538.295125</ele>
        <time>2017-06-02T08:42:02.000Z</time>
      </trkpt>
      <trkpt lat="45.941364" lon="6.122827">
        <ele>538.117526</ele>
        <time>2017-06-02T08:42:04.000Z</time>
      </trkpt>
      <trkpt lat="45.941257" lon="6.122798">
        <ele>537.945094</ele>
        <time>2017-06-02T08:42:06.000Z</time>
      </trkpt>
      <trkpt lat="45.941154" lon="6.122772">
        <ele>537.779486</ele>
        <time>2017-06-02T08:42:08.000Z</time>
      </trkpt>
      <trkpt lat="45.941050" lon="6.122742">
        <ele>537.611507</ele>
        <time>2017-06-02T08:42:10.000Z</time>
      </trkpt>
      <trkpt lat="45.940950" lon="6.122716">
        <ele>537.450576</ele>
        <time>2017-06-02T08:42:12.000Z</time>
      </trkpt>
      <trkpt lat="45.940850" lon="6.122696">
        <ele>537.290688</ele>
        <time>2017-06-02T08:42:14.000Z</time>
      </trkpt>
      <trkpt lat="45.940754" lon="6.122661">
        <ele>537.133850</ele>
        <time>2017-06-02T08:42:16.000Z</time>
      </trkpt>
      <trkpt lat="45.940662" lon="6.122644">
        <ele>536.986957</ele>
        <time>2017-06-02T08:42:18.000Z</time>
      </trkpt>
      <trkpt lat="45.940567" lon="6.122629">
        <ele>536.835608</ele>
        <time>2017-06-02T08:42:20.000Z</time>
      </trkpt>
      <trkpt lat="45.940475" lon="6.122607">
        <ele>536.687913</ele>
        <time>2017-06-02T08:42:22.000Z</time>
      </trkpt>
      <trkpt lat="45.940384" lon="6.122586">
        <ele>536.541958</ele>
        <time>2017-06-02T08:42:24.000Z</time>
      </trkpt>
      <trkpt lat="45.940292" lon="6.122547">
        <ele>536.390065</ele>
        <time>2017-06-02T08:42:26.000Z</time>
      </trkpt>
      <trkpt lat="45.940224" lon="6.122458">
        <ele>536.244453</ele>
        <time>2017-06-02T08:42:28.000Z</time>
      </trkpt>
      <trkpt lat="45.940180" lon="6.122332">
        <ele>536.089180</ele>
        <time>2017-06-02T08:42:30.000Z</time>
      </trkpt>
      <trkpt lat="45.940150" lon="6.122196">
        <ele>535.820540</ele>
        <time>2017-06-02T08:42:32.000Z</time>
      </trkpt>
      <trkpt lat="45.940094" lon="6.122085">
        <ele>535.456313</ele>
        <time>2017-06-02T08:42:34.000Z</time>
      </trkpt>
      <trkpt lat="45.940010" lon="6.121970">
        <ele>535.013345</ele>
        <time>2017-06-02T08:42:36.000Z</time>
      </trkpt>
      <trkpt lat="45.939922" lon="6.121845">
        <ele>534.540918</ele>
        <time>2017-06-02T08:42:38.000Z</time>
      </trkpt>
      <trkpt lat="45.939830" lon="6.121721">
        <ele>534.059323</ele>
        <time>2017-06-02T08:42:40.000Z</time>
      </trkpt>
      <trkpt lat="45.939743" lon="6.121601">
        <ele>533.598895</ele>
        <time>2017-06-02T08:42:42.000Z</time>
      </trkpt>
      <trkpt lat="45.939680" lon="6.121495">
        <ele>533.228544</ele>
        <time>2017-06-02T08:42:44.000Z</time>
      </trkpt>
      <trkpt lat="45.939625" lon="6.121376">
        <ele>532.849039</ele>
        <time>2017-06-02T08:42:48.000Z</time>
      </trkpt>
      <trkpt lat="45.939552" lon="6.121263">
        <ele>532.439388</ele>
        <time>2017-06-02T08:42:53.000Z</time>
      </trkpt>
      <trkpt lat="45.939457" lon="6.121162">
        <ele>531.988155</ele>
        <time>2017-06-02T08:42:56.000Z</time>
      </trkpt>
      <trkpt lat="45.939377" lon="6.121090">
        <ele>531.627698</ele>
        <time>2017-06-02T08:42:58.000Z</time>
      </trkpt>
      <trkpt lat="45.939300" lon="6.121008">
        <ele>531.261745</ele>
        <time>2017-06-02T08:43:00.000Z</time>
      </trkpt>
      <trkpt lat="45.939224" lon="6.120902">
        <ele>530.857368</ele>
        <time>2017-06-02T08:43:02.000Z</time>
      </trkpt>
      <trkpt lat="45.939148" lon="6.120794">
        <ele>530.449275</ele>
        <time>2017-06-02T08:43:04.000Z</time>
      </trkpt>
      <trkpt lat="45.939064" lon="6.120709">
        <ele>530.056979</ele>
        <time>2017-06-02T08:43:06.000Z</time>
      </trkpt>
      <trkpt lat="45.938988" lon="6.120585">
        <ele>529.617972</ele>
        <time>2017-06-02T08:43:09.000Z</time>
      </trkpt>
      <trkpt lat="45.938976" lon="6.120411">
        <ele>529.153553</ele>
        <time>2017-06-02T08:43:12.000Z</time>
      </trkpt>
      <trkpt lat="45.938923" lon="6.120241">
        <ele>528.700495</ele>
        <time>2017-06-02T08:43:15.000Z</time>
      </trkpt>
      <trkpt lat="45.938800" lon="6.120151">
        <ele>528.219006</ele>
        <time>2017-06-02T08:43:18.000Z</time>
      </trkpt>
      <trkpt lat="45.938700" lon="6.120105">
        <ele>527.852705</ele>
        <time>2017-06-02T08:43:20.000Z</time>
      </trkpt>
      <trkpt lat="45.938618" lon="6.120023">
        <ele>527.504242</ele>
        <time>2017-06-02T08:43:22.000Z</time>
      </trkpt>
      <trkpt lat="45.938538" lon="6.119916">
        <ele>527.123064</ele>
        <time>2017-06-02T08:43:24.000Z</time>
      </trkpt>
      <trkpt lat="45.938454" lon="6.119818">
        <ele>526.745676</ele>
        <time>2017-06-02T08:43:26.000Z</time>
      </trkpt>
      <trkpt lat="45.938380" lon="6.119702">
        <ele>526.363753</ele>
        <time>2017-06-02T08:43:28.000Z</time>
      </trkpt>
      <trkpt lat="45.938324" lon="6.119596">
        <ele>526.040776</ele>
        <time>2017-06-02T08:43:30.000Z</time>
      </trkpt>
      <trkpt lat="45.938230" lon="6.119452">
        <ele>525.561590</ele>
        <time>2017-06-02T08:45:30.000Z</time>
      </trkpt>
      <trkpt lat="45.938140" lon="6.119340">
        <ele>525.146336</ele>
        <time>2017-06-02T08:45:34.000Z</time>
      </trkpt>
      <trkpt lat="45.938023" lon="6.119162">
        <ele>524.552081</ele>
        <time>2017-06-02T08:46:19.000Z</time>
      </trkpt>
      <trkpt lat="45.937946" lon="6.119055">
        <ele>524.178496</ele>
        <time>2017-06-02T08:46:22.000Z</time>
      </trkpt>
      <trkpt lat="45.937866" lon="6.118922">
        <ele>523.751844</ele>
        <time>2017-06-02T08:46:25.000Z</time>
      </trkpt>
      <trkpt lat="45.937760" lon="6.118791">
        <ele>523.264208</ele>
        <time>2017-06-02T08:46:28.000Z</time>
      </trkpt>
      <trkpt lat="45.937695" lon="6.118689">
        <ele>522.928540</ele>
        <time>2017-06-02T08:46:30.000Z</time>
      </trkpt>
      <trkpt lat="45.937630" lon="6.118586">
        <ele>522.686700</ele>
        <time>2017-06-02T08:46:32.000Z</time>
      </trkpt>
      <trkpt lat="45.937570" lon="6.118479">
        <ele>522.469088</ele>
        <time>2017-06-02T08:46:34.000Z</time>
      </trkpt>
      <trkpt lat="45.937510" lon="6.118380">
        <ele>522.261185</ele>
        <time>2017-06-02T08:46:36.000Z</time>
      </trkpt>
      <trkpt lat="45.937458" lon="6.118226">
        <ele>521.990152</ele>
        <time>2017-06-02T08:46:39.000Z</time>
      </trkpt>
      <trkpt lat="45.937477" lon="6.118076">
        <ele>521.748765</ele>
        <time>2017-06-02T08:46:42.000Z</time>
      </trkpt>
      <trkpt lat="45.937500" lon="6.117937">
        <ele>521.522557</ele>
        <time>2017-06-02T08:46:45.000Z</time>
      </trkpt>
      <trkpt lat="45.937500" lon="6.117772">
        <ele>521.261328</ele>
        <time>2017-06-02T08:46:49.000Z</time>
      </trkpt>
      <trkpt lat="45.937477" lon="6.117640">
        <ele>521.045886</ele>
        <time>2017-06-02T08:46:53.000Z</time>
      </trkpt>
      <trkpt lat="45.937410" lon="6.117515">
        <ele>520.796027</ele>
        <time>2017-06-02T08:47:01.000Z</time>
      </trkpt>
      <trkpt lat="45.937310" lon="6.117413">
        <ele>520.516914</ele>
        <time>2017-06-02T08:47:06.000Z</time>
      </trkpt>
      <trkpt lat="45.937230" lon="6.117295">
        <ele>520.256012</ele>
        <time>2017-06-02T08:47:09.000Z</time>
      </trkpt>
      <trkpt lat="45.937187" lon="6.117142">
        <ele>519.994748</ele>
        <time>2017-06-02T08:47:12.000Z</time>
      </trkpt>
      <trkpt lat="45.937210" lon="6.116986">
        <ele>519.742278</ele>
        <time>2017-06-02T08:47:15.000Z</time>
      </trkpt>
      <trkpt lat="45.937240" lon="6.116822">
        <ele>519.473800</ele>
        <time>2017-06-02T08:47:18.000Z</time>
      </trkpt>
      <trkpt lat="45.937267" lon="6.116629">
        <ele>519.162120</ele>
        <time>2017-06-02T08:47:21.000Z</time>
      </trkpt>
      <trkpt lat="45.937298" lon="6.116452">
        <ele>518.873142</ele>
        <time>2017-06-02T08:47:24.000Z</time>
      </trkpt>
      <trkpt lat="45.937347" lon="6.116278">
        <ele>518.665550</ele>
        <time>2017-06-02T08:47:27.000Z</time>
      </trkpt>
      <trkpt lat="45.937374" lon="6.116139">
        <ele>518.541719</ele>
        <time>2017-06-02T08:47:29.000Z</time>
      </trkpt>
      <trkpt lat="45.937405" lon="6.116002">
        <ele>518.418102</ele>
        <time>2017-06-02T08:47:31.000Z</time>
      </trkpt>
      <trkpt lat="45.937430" lon="6.115875">
        <ele>518.304851</ele>
        <time>2017-06-02T08:47:33.000Z</time>
      </trkpt>
      <trkpt lat="45.937450" lon="6.115741">
        <ele>518.187256</ele>
        <time>2017-06-02T08:47:35.000Z</time>
      </trkpt>
      <trkpt lat="45.937410" lon="6.115564">
        <ele>518.027567</ele>
        <time>2017-06-02T08:47:38.000Z</time>
      </trkpt>
      <trkpt lat="45.937330" lon="6.115499">
        <ele>517.914197</ele>
        <time>2017-06-02T08:47:40.000Z</time>
      </trkpt>
      <trkpt lat="45.937237" lon="6.115476">
        <ele>517.797769</ele>
        <time>2017-06-02T08:47:42.000Z</time>
      </trkpt>
      <trkpt lat="45.937145" lon="6.115474">
        <ele>517.684247</ele>
        <time>2017-06-02T08:47:44.000Z</time>
      </trkpt>
      <trkpt lat="45.937040" lon="6.115513">
        <ele>517.550447</ele>
        <time>2017-06-02T08:47:47.000Z</time>
      </trkpt>
      <trkpt lat="45.936905" lon="6.115555">
        <ele>517.380031</ele>
        <time>2017-06-02T08:47:50.000Z</time>
      </trkpt>
      <trkpt lat="45.936810" lon="6.115593">
        <ele>517.258370</ele>
        <time>2017-06-02T08:47:52.000Z</time>
      </trkpt>
      <trkpt lat="45.936745" lon="6.115696">
        <ele>517.139029</ele>
        <time>2017-06-02T08:47:54.000Z</time>
      </trkpt>
      <trkpt lat="45.936700" lon="6.115820">
        <ele>517.019017</ele>
        <time>2017-06-02T08:47:56.000Z</time>
      </trkpt>
      <trkpt lat="45.936653" lon="6.115943">
        <ele>516.898596</ele>
        <time>2017-06-02T08:47:58.000Z</time>
      </trkpt>
      <trkpt lat="45.936615" lon="6.116064">
        <ele>516.784677</ele>
        <time>2017-06-02T08:48:00.000Z</time>
      </trkpt>
      <trkpt lat="45.936577" lon="6.116197">
        <ele>516.661302</ele>
        <time>2017-06-02T08:48:02.000Z</time>
      </trkpt>
      <trkpt lat="45.936535" lon="6.116323">
        <ele>516.567986</ele>
        <time>2017-06-02T08:48:04.000Z</time>
      </trkpt>
      <trkpt lat="45.936493" lon="6.116439">
        <ele>516.726366</ele>
        <time>2017-06-02T08:48:06.000Z</time>
      </trkpt>
      <trkpt lat="45.936440" lon="6.116585">
        <ele>516.925817</ele>
        <time>2017-06-02T08:48:09.000Z</time>
      </trkpt>
      <trkpt lat="45.936375" lon="6.116726">
        <ele>517.130682</ele>
        <time>2017-06-02T08:48:12.000Z</time>
      </trkpt>
      <trkpt lat="45.936300" lon="6.116870">
        <ele>517.348557</ele>
        <time>2017-06-02T08:48:15.000Z</time>
      </trkpt>
      <trkpt lat="45.936190" lon="6.116968">
        <ele>517.573895</ele>
        <time>2017-06-02T08:48:18.000Z</time>
      </trkpt>
      <trkpt lat="45.936077" lon="6.116963">
        <ele>517.770763</ele>
        <time>2017-06-02T08:48:21.000Z</time>
      </trkpt>
      <trkpt lat="45.935980" lon="6.116951">
        <ele>517.940300</ele>
        <time>2017-06-02T08:48:25.000Z</time>
      </trkpt>
      <trkpt lat="45.935894" lon="6.116915">
        <ele>518.096275</ele>
        <time>2017-06-02T08:48:32.000Z</time>
      </trkpt>
      <trkpt lat="45.935810" lon="6.117023">
        <ele>518.292498</ele>
        <time>2017-06-02T08:48:36.000Z</time>
      </trkpt>
      <trkpt lat="45.935722" lon="6.117143">
        <ele>518.503691</ele>
        <time>2017-06-02T08:48:39.000Z</time>
      </trkpt>
      <trkpt lat="45.935677" lon="6.117253">
        <ele>518.658247</ele>
        <time>2017-06-02T08:48:41.000Z</time>
      </trkpt>
      <trkpt lat="45.935566" lon="6.117338">
        <ele>518.877241</ele>
        <time>2017-06-02T08:48:44.000Z</time>
      </trkpt>
      <trkpt lat="45.935467" lon="6.117340">
        <ele>519.049654</ele>
        <time>2017-06-02T08:48:46.000Z</time>
      </trkpt>
      <trkpt lat="45.935368" lon="6.117344">
        <ele>519.222117</ele>
        <time>2017-06-02T08:48:48.000Z</time>
      </trkpt>
      <trkpt lat="45.935276" lon="6.117345">
        <ele>519.382328</ele>
        <time>2017-06-02T08:48:50.000Z</time>
      </trkpt>
      <trkpt lat="45.935180" lon="6.117357">
        <ele>519.550130</ele>
        <time>2017-06-02T08:48:52.000Z</time>
      </trkpt>
      <trkpt lat="45.935090" lon="6.117378">
        <ele>519.677842</ele>
        <time>2017-06-02T08:48:54.000Z</time>
      </trkpt>
      <trkpt lat="45.934960" lon="6.117415">
        <ele>519.614455</ele>
        <time>2017-06-02T08:48:57.000Z</time>
      </trkpt>
      <trkpt lat="45.934826" lon="6.117427">
        <ele>519.550238</ele>
        <time>2017-06-02T08:49:00.000Z</time>
      </trkpt>
      <trkpt lat="45.934730" lon="6.117411">
        <ele>519.504013</ele>
        <time>2017-06-02T08:49:02.000Z</time>
      </trkpt>
      <trkpt lat="45.934620" lon="6.117332">
        <ele>519.445202</ele>
        <time>2017-06-02T08:49:05.000Z</time>
      </trkpt>
      <trkpt lat="45.934532" lon="6.117268">
        <ele>519.398033</ele>
        <time>2017-06-02T08:49:08.000Z</time>
      </trkpt>
      <trkpt lat="45.934425" lon="6.117220">
        <ele>519.344421</ele>
        <time>2017-06-02T08:49:11.000Z</time>
      </trkpt>
      <trkpt lat="45.934320" lon="6.117245">
        <ele>519.293515</ele>
        <time>2017-06-02T08:49:14.000Z</time>
      </trkpt>
      <trkpt lat="45.934246" lon="6.117365">
        <ele>519.240165</ele>
        <time>2017-06-02T08:49:17.000Z</time>
      </trkpt>
      <trkpt lat="45.934190" lon="6.117528">
        <ele>519.179687</ele>
        <time>2017-06-02T08:49:20.000Z</time>
      </trkpt>
      <trkpt lat="45.934177" lon="6.117676">
        <ele>519.130063</ele>
        <time>2017-06-02T08:49:23.000Z</time>
      </trkpt>
      <trkpt lat="45.934177" lon="6.117806">
        <ele>519.086818</ele>
        <time>2017-06-02T08:49:27.000Z</time>
      </trkpt>
      <trkpt lat="45.934160" lon="6.117944">
        <ele>519.040197</ele>
        <time>2017-06-02T08:49:31.000Z</time>
      </trkpt>
      <trkpt lat="45.934113" lon="6.118078">
        <ele>518.990274</ele>
        <time>2017-06-02T08:49:34.000Z</time>
      </trkpt>
      <trkpt lat="45.934086" lon="6.118230">
        <ele>518.938087</ele>
        <time>2017-06-02T08:49:37.000Z</time>
      </trkpt>
      <trkpt lat="45.934063" lon="6.118390">
        <ele>518.883737</ele>
        <time>2017-06-02T08:49:40.000Z</time>
      </trkpt>
      <trkpt lat="45.934020" lon="6.118558">
        <ele>518.824054</ele>
        <time>2017-06-02T08:49:43.000Z</time>
      </trkpt>
      <trkpt lat="45.933964" lon="6.118677">
        <ele>518.639717</ele>
        <time>2017-06-02T08:49:45.000Z</time>
      </trkpt>
      <trkpt lat="45.933884" lon="6.118761">
        <ele>518.456980</ele>
        <time>2017-06-02T08:49:47.000Z</time>
      </trkpt>
      <trkpt lat="45.933784" lon="6.118835">
        <ele>518.249513</ele>
        <time>2017-06-02T08:49:50.000Z</time>
      </trkpt>
      <trkpt lat="45.933700" lon="6.118951">
        <ele>518.034665</ele>
        <time>2017-06-02T08:49:53.000Z</time>
      </trkpt>
      <trkpt lat="45.933598" lon="6.119019">
        <ele>517.827265</ele>
        <time>2017-06-02T08:49:56.000Z</time>
      </trkpt>
      <trkpt lat="45.933480" lon="6.118993">
        <ele>517.607049</ele>
        <time>2017-06-02T08:50:00.000Z</time>
      </trkpt>
      <trkpt lat="45.933388" lon="6.119077">
        <ele>517.406011</ele>
        <time>2017-06-02T08:50:04.000Z</time>
      </trkpt>
      <trkpt lat="45.933296" lon="6.119041">
        <ele>517.230126</ele>
        <time>2017-06-02T08:50:07.000Z</time>
      </trkpt>
      <trkpt lat="45.933205" lon="6.118979">
        <ele>517.044366</ele>
        <time>2017-06-02T08:50:10.000Z</time>
      </trkpt>
      <trkpt lat="45.933070" lon="6.119028">
        <ele>516.787520</ele>
        <time>2017-06-02T08:50:13.000Z</time>
      </trkpt>
      <trkpt lat="45.932976" lon="6.119017">
        <ele>516.613545</ele>
        <time>2017-06-02T08:50:15.000Z</time>
      </trkpt>
      <trkpt lat="45.932870" lon="6.118986">
        <ele>516.414003</ele>
        <time>2017-06-02T08:50:17.000Z</time>
      </trkpt>
      <trkpt lat="45.932760" lon="6.118946">
        <ele>516.204697</ele>
        <time>2017-06-02T08:50:19.000Z</time>
      </trkpt>
      <trkpt lat="45.932648" lon="6.118897">
        <ele>515.988738</ele>
        <time>2017-06-02T08:50:21.000Z</time>
      </trkpt>
      <trkpt lat="45.932533" lon="6.118856">
        <ele>515.770174</ele>
        <time>2017-06-02T08:50:23.000Z</time>
      </trkpt>
      <trkpt lat="45.932430" lon="6.118811">
        <ele>515.571592</ele>
        <time>2017-06-02T08:50:25.000Z</time>
      </trkpt>
      <trkpt lat="45.932320" lon="6.118779">
        <ele>515.213765</ele>
        <time>2017-06-02T08:50:27.000Z</time>
      </trkpt>
      <trkpt lat="45.932213" lon="6.118753">
        <ele>514.800576</ele>
        <time>2017-06-02T08:50:29.000Z</time>
      </trkpt>
      <trkpt lat="45.932102" lon="6.118732">
        <ele>514.374290</ele>
        <time>2017-06-02T08:50:31.000Z</time>
      </trkpt>
      <trkpt lat="45.931990" lon="6.118705">
        <ele>513.941888</ele>
        <time>2017-06-02T08:50:33.000Z</time>
      </trkpt>
      <trkpt lat="45.931880" lon="6.118696">
        <ele>513.522375</ele>
        <time>2017-06-02T08:50:35.000Z</time>
      </trkpt>
      <trkpt lat="45.931760" lon="6.118690">
        <ele>513.065188</ele>
        <time>2017-06-02T08:50:37.000Z</time>
      </trkpt>
      <trkpt lat="45.931625" lon="6.118693">
        <ele>512.551102</ele>
        <time>2017-06-02T08:50:39.000Z</time>
      </trkpt>
      <trkpt lat="45.931480" lon="6.118709">
        <ele>511.997379</ele>
        <time>2017-06-02T08:50:41.000Z</time>
      </trkpt>
      <trkpt lat="45.931328" lon="6.118736">
        <ele>511.414225</ele>
        <time>2017-06-02T08:50:43.000Z</time>
      </trkpt>
      <trkpt lat="45.931187" lon="6.118769">
        <ele>510.870288</ele>
        <time>2017-06-02T08:50:45.000Z</time>
      </trkpt>
      <trkpt lat="45.931050" lon="6.118813">
        <ele>510.335793</ele>
        <time>2017-06-02T08:50:47.000Z</time>
      </trkpt>
      <trkpt lat="45.930923" lon="6.118863">
        <ele>509.834427</ele>
        <time>2017-06-02T08:50:49.000Z</time>
      </trkpt>
      <trkpt lat="45.930798" lon="6.118892">
        <ele>509.352322</ele>
        <time>2017-06-02T08:50:51.000Z</time>
      </trkpt>
      <trkpt lat="45.930676" lon="6.118974">
        <ele>508.839543</ele>
        <time>2017-06-02T08:50:53.000Z</time>
      </trkpt>
      <trkpt lat="45.930557" lon="6.119093">
        <ele>508.403146</ele>
        <time>2017-06-02T08:50:55.000Z</time>
      </trkpt>
      <trkpt lat="45.930428" lon="6.119187">
        <ele>508.024340</ele>
        <time>2017-06-02T08:50:57.000Z</time>
      </trkpt>
      <trkpt lat="45.930300" lon="6.119294">
        <ele>507.636522</ele>
        <time>2017-06-02T08:50:59.000Z</time>
      </trkpt>
      <trkpt lat="45.930176" lon="6.119408">
        <ele>507.251007</ele>
        <time>2017-06-02T08:51:01.000Z</time>
      </trkpt>
      <trkpt lat="45.930060" lon="6.119532">
        <ele>506.872393</ele>
        <time>2017-06-02T08:51:03.000Z</time>
      </trkpt>
      <trkpt lat="45.929950" lon="6.119666">
        <ele>506.494757</ele>
        <time>2017-06-02T08:51:05.000Z</time>
      </trkpt>
      <trkpt lat="45.929855" lon="6.119806">
        <ele>506.138430</ele>
        <time>2017-06-02T08:51:07.000Z</time>
      </trkpt>
      <trkpt lat="45.929780" lon="6.119948">
        <ele>505.813599</ele>
        <time>2017-06-02T08:51:09.000Z</time>
      </trkpt>
      <trkpt lat="45.929710" lon="6.120073">
        <ele>505.521236</ele>
        <time>2017-06-02T08:51:11.000Z</time>
      </trkpt>
      <trkpt lat="45.929650" lon="6.120175">
        <ele>505.277865</ele>
        <time>2017-06-02T08:51:13.000Z</time>
      </trkpt>
      <trkpt lat="45.929592" lon="6.120280">
        <ele>505.033588</ele>
        <time>2017-06-02T08:51:15.000Z</time>
      </trkpt>
      <trkpt lat="45.929520" lon="6.120410">
        <ele>504.730839</ele>
        <time>2017-06-02T08:51:18.000Z</time>
      </trkpt>
      <trkpt lat="45.929447" lon="6.120556">
        <ele>504.403259</ele>
        <time>2017-06-02T08:51:21.000Z</time>
      </trkpt>
      <trkpt lat="45.929367" lon="6.120708">
        <ele>504.055997</ele>
        <time>2017-06-02T08:51:24.000Z</time>
      </trkpt>
      <trkpt lat="45.929310" lon="6.120815">
        <ele>504.024755</ele>
        <time>2017-06-02T08:51:26.000Z</time>
      </trkpt>
      <trkpt lat="45.929240" lon="6.120931">
        <ele>504.185233</ele>
        <time>2017-06-02T08:51:28.000Z</time>
      </trkpt>
      <trkpt lat="45.929188" lon="6.121038">
        <ele>504.321634</ele>
        <time>2017-06-02T08:51:30.000Z</time>
      </trkpt>
      <trkpt lat="45.929096" lon="6.121175">
        <ele>504.520630</ele>
        <time>2017-06-02T08:51:33.000Z</time>
      </trkpt>
      <trkpt lat="45.928990" lon="6.121262">
        <ele>504.704004</ele>
        <time>2017-06-02T08:51:36.000Z</time>
      </trkpt>
      <trkpt lat="45.928898" lon="6.121320">
        <ele>504.854927</ele>
        <time>2017-06-02T08:51:39.000Z</time>
      </trkpt>
      <trkpt lat="45.928802" lon="6.121358">
        <ele>505.004522</ele>
        <time>2017-06-02T08:51:42.000Z</time>
      </trkpt>
      <trkpt lat="45.928757" lon="6.121504">
        <ele>505.171397</ele>
        <time>2017-06-02T08:51:45.000Z</time>
      </trkpt>
      <trkpt lat="45.928710" lon="6.121654">
        <ele>505.343314</ele>
        <time>2017-06-02T08:51:48.000Z</time>
      </trkpt>
      <trkpt lat="45.928630" lon="6.121776">
        <ele>505.518525</ele>
        <time>2017-06-02T08:51:51.000Z</time>
      </trkpt>
      <trkpt lat="45.928528" lon="6.121857">
        <ele>505.693589</ele>
        <time>2017-06-02T08:51:54.000Z</time>
      </trkpt>
      <trkpt lat="45.928425" lon="6.121922">
        <ele>505.862585</ele>
        <time>2017-06-02T08:51:57.000Z</time>
      </trkpt>
      <trkpt lat="45.928318" lon="6.121991">
        <ele>506.038769</ele>
        <time>2017-06-02T08:52:00.000Z</time>
      </trkpt>
      <trkpt lat="45.928226" lon="6.122071">
        <ele>506.200302</ele>
        <time>2017-06-02T08:52:03.000Z</time>
      </trkpt>
      <trkpt lat="45.928150" lon="6.122163">
        <ele>506.349567</ele>
        <time>2017-06-02T08:52:06.000Z</time>
      </trkpt>
      <trkpt lat="45.928070" lon="6.122256">
        <ele>506.504132</ele>
        <time>2017-06-02T08:52:09.000Z</time>
      </trkpt>
      <trkpt lat="45.928005" lon="6.122359">
        <ele>506.650266</ele>
        <time>2017-06-02T08:52:12.000Z</time>
      </trkpt>
      <trkpt lat="45.927944" lon="6.122462">
        <ele>506.983743</ele>
        <time>2017-06-02T08:52:15.000Z</time>
      </trkpt>
      <trkpt lat="45.927890" lon="6.122575">
        <ele>507.321710</ele>
        <time>2017-06-02T08:52:18.000Z</time>
      </trkpt>
      <trkpt lat="45.927850" lon="6.122715">
        <ele>507.694810</ele>
        <time>2017-06-02T08:52:22.000Z</time>
      </trkpt>
      <trkpt lat="45.927800" lon="6.122856">
        <ele>508.084958</ele>
        <time>2017-06-02T08:52:27.000Z</time>
      </trkpt>
      <trkpt lat="45.927723" lon="6.122978">
        <ele>508.491061</ele>
        <time>2017-06-02T08:52:31.000Z</time>
      </trkpt>
      <trkpt lat="45.927654" lon="6.123070">
        <ele>508.824581</ele>
        <time>2017-06-02T08:52:34.000Z</time>
      </trkpt>
      <trkpt lat="45.927578" lon="6.123177">
        <ele>509.201575</ele>
        <time>2017-06-02T08:52:37.000Z</time>
      </trkpt>
      <trkpt lat="45.927513" lon="6.123289">
        <ele>509.561154</ele>
        <time>2017-06-02T08:52:40.000Z</time>
      </trkpt>
      <trkpt lat="45.927437" lon="6.123391">
        <ele>509.929630</ele>
        <time>2017-06-02T08:52:43.000Z</time>
      </trkpt>
      <trkpt lat="45.927353" lon="6.123500">
        <ele>510.330663</ele>
        <time>2017-06-02T08:52:46.000Z</time>
      </trkpt>
      <trkpt lat="45.927277" lon="6.123606">
        <ele>510.705937</ele>
        <time>2017-06-02T08:52:49.000Z</time>
      </trkpt>
      <trkpt lat="45.927197" lon="6.123684">
        <ele>511.048515</ele>
        <time>2017-06-02T08:52:52.000Z</time>
      </trkpt>
      <trkpt lat="45.927100" lon="6.123764">
        <ele>511.444841</ele>
        <time>2017-06-02T08:52:56.000Z</time>
      </trkpt>
      <trkpt lat="45.927063" lon="6.123895">
        <ele>511.793386</ele>
        <time>2017-06-02T08:53:06.000Z</time>
      </trkpt>
      <trkpt lat="45.927025" lon="6.124045">
        <ele>512.186923</ele>
        <time>2017-06-02T08:53:10.000Z</time>
      </trkpt>
      <trkpt lat="45.926910" lon="6.124046">
        <ele>512.594499</ele>
        <time>2017-06-02T08:53:14.000Z</time>
      </trkpt>
      <trkpt lat="45.926800" lon="6.124033">
        <ele>512.985663</ele>
        <time>2017-06-02T08:53:17.000Z</time>
      </trkpt>
      <trkpt lat="45.926666" lon="6.124008">
        <ele>513.627433</ele>
        <time>2017-06-02T08:53:20.000Z</time>
      </trkpt>
      <trkpt lat="45.926575" lon="6.124008">
        <ele>514.069024</ele>
        <time>2017-06-02T08:53:22.000Z</time>
      </trkpt>
      <trkpt lat="45.926445" lon="6.123983">
        <ele>514.705487</ele>
        <time>2017-06-02T08:53:25.000Z</time>
      </trkpt>
      <trkpt lat="45.926323" lon="6.123974">
        <ele>515.298289</ele>
        <time>2017-06-02T08:53:28.000Z</time>
      </trkpt>
      <trkpt lat="45.926224" lon="6.124001">
        <ele>515.787269</ele>
        <time>2017-06-02T08:53:32.000Z</time>
      </trkpt>
      <trkpt lat="45.926113" lon="6.124005">
        <ele>516.326082</ele>
        <time>2017-06-02T08:53:36.000Z</time>
      </trkpt>
      <trkpt lat="45.925990" lon="6.124010">
        <ele>516.923196</ele>
        <time>2017-06-02T08:53:39.000Z</time>
      </trkpt>
      <trkpt lat="45.925888" lon="6.124006">
        <ele>517.418350</ele>
        <time>2017-06-02T08:53:42.000Z</time>
      </trkpt>
      <trkpt lat="45.925797" lon="6.124022">
        <ele>517.863231</ele>
        <time>2017-06-02T08:53:44.000Z</time>
      </trkpt>
      <trkpt lat="45.925705" lon="6.124008">
        <ele>518.312168</ele>
        <time>2017-06-02T08:53:47.000Z</time>
      </trkpt>
      <trkpt lat="45.925606" lon="6.124003">
        <ele>518.792877</ele>
        <time>2017-06-02T08:53:50.000Z</time>
      </trkpt>
      <trkpt lat="45.925503" lon="6.123994">
        <ele>519.293622</ele>
        <time>2017-06-02T08:53:53.000Z</time>
      </trkpt>
      <trkpt lat="45.925385" lon="6.124003">
        <ele>519.867039</ele>
        <time>2017-06-02T08:53:56.000Z</time>
      </trkpt>
      <trkpt lat="45.925262" lon="6.123983">
        <ele>520.467720</ele>
        <time>2017-06-02T08:53:59.000Z</time>
      </trkpt>
      <trkpt lat="45.925148" lon="6.123965">
        <ele>521.024248</ele>
        <time>2017-06-02T08:54:02.000Z</time>
      </trkpt>
      <trkpt lat="45.925022" lon="6.123955">
        <ele>521.636613</ele>
        <time>2017-06-02T08:54:05.000Z</time>
      </trkpt>
      <trkpt lat="45.924908" lon="6.123977">
        <ele>521.639605</ele>
        <time>2017-06-02T08:54:08.000Z</time>
      </trkpt>
      <trkpt lat="45.924786" lon="6.123960">
        <ele>521.489316</ele>
        <time>2017-06-02T08:54:11.000Z</time>
      </trkpt>
      <trkpt lat="45.924650" lon="6.123949">
        <ele>521.322299</ele>
        <time>2017-06-02T08:54:14.000Z</time>
      </trkpt>
      <trkpt lat="45.924553" lon="6.123945">
        <ele>521.203315</ele>
        <time>2017-06-02T08:54:16.000Z</time>
      </trkpt>
      <trkpt lat="45.924423" lon="6.123954">
        <ele>521.043734</ele>
        <time>2017-06-02T08:54:19.000Z</time>
      </trkpt>
      <trkpt lat="45.924297" lon="6.123951">
        <ele>520.889220</ele>
        <time>2017-06-02T08:54:22.000Z</time>
      </trkpt>
      <trkpt lat="45.924164" lon="6.123951">
        <ele>520.726145</ele>
        <time>2017-06-02T08:54:25.000Z</time>
      </trkpt>
      <trkpt lat="45.924034" lon="6.123944">
        <ele>520.566636</ele>
        <time>2017-06-02T08:54:28.000Z</time>
      </trkpt>
      <trkpt lat="45.923943" lon="6.123949">
        <ele>520.454977</ele>
        <time>2017-06-02T08:54:30.000Z</time>
      </trkpt>
      <trkpt lat="45.923832" lon="6.123961">
        <ele>520.318492</ele>
        <time>2017-06-02T08:54:33.000Z</time>
      </trkpt>
      <trkpt lat="45.923730" lon="6.123987">
        <ele>520.191476</ele>
        <time>2017-06-02T08:54:37.000Z</time>
      </trkpt>
      <trkpt lat="45.923610" lon="6.123971">
        <ele>520.043709</ele>
        <time>2017-06-02T08:54:41.000Z</time>
      </trkpt>
      <trkpt lat="45.923508" lon="6.123975">
        <ele>519.918597</ele>
        <time>2017-06-02T08:54:44.000Z</time>
      </trkpt>
      <trkpt lat="45.923400" lon="6.123964">
        <ele>519.785843</ele>
        <time>2017-06-02T08:54:47.000Z</time>
      </trkpt>
      <trkpt lat="45.923275" lon="6.123965">
        <ele>519.632575</ele>
        <time>2017-06-02T08:54:50.000Z</time>
      </trkpt>
      <trkpt lat="45.923170" lon="6.123968">
        <ele>519.478781</ele>
        <time>2017-06-02T08:54:53.000Z</time>
      </trkpt>
      <trkpt lat="45.923080" lon="6.123964">
        <ele>519.303234</ele>
        <time>2017-06-02T08:54:55.000Z</time>
      </trkpt>
      <trkpt lat="45.922950" lon="6.123953">
        <ele>519.049348</ele>
        <time>2017-06-02T08:54:58.000Z</time>
      </trkpt>
      <trkpt lat="45.922830" lon="6.123931">
        <ele>518.813502</ele>
        <time>2017-06-02T08:55:01.000Z</time>
      </trkpt>
      <trkpt lat="45.922730" lon="6.123944">
        <ele>518.617747</ele>
        <time>2017-06-02T08:55:03.000Z</time>
      </trkpt>
      <trkpt lat="45.922638" lon="6.123941">
        <ele>518.438338</ele>
        <time>2017-06-02T08:55:05.000Z</time>
      </trkpt>
      <trkpt lat="45.922543" lon="6.123940">
        <ele>518.253122</ele>
        <time>2017-06-02T08:55:07.000Z</time>
      </trkpt>
      <trkpt lat="45.922417" lon="6.123932">
        <ele>518.007233</ele>
        <time>2017-06-02T08:55:10.000Z</time>
      </trkpt>
      <trkpt lat="45.922287" lon="6.123934">
        <ele>517.753772</ele>
        <time>2017-06-02T08:55:13.000Z</time>
      </trkpt>
      <trkpt lat="45.922157" lon="6.123939">
        <ele>517.500234</ele>
        <time>2017-06-02T08:55:16.000Z</time>
      </trkpt>
      <trkpt lat="45.922043" lon="6.123932">
        <ele>517.277777</ele>
        <time>2017-06-02T08:55:19.000Z</time>
      </trkpt>
      <trkpt lat="45.921947" lon="6.123930">
        <ele>517.090596</ele>
        <time>2017-06-02T08:55:22.000Z</time>
      </trkpt>
      <trkpt lat="45.921852" lon="6.123906">
        <ele>516.902547</ele>
        <time>2017-06-02T08:55:27.000Z</time>
      </trkpt>
      <trkpt lat="45.921745" lon="6.123888">
        <ele>516.692516</ele>
        <time>2017-06-02T08:55:31.000Z</time>
      </trkpt>
      <trkpt lat="45.921630" lon="6.123895">
        <ele>516.468112</ele>
        <time>2017-06-02T08:55:34.000Z</time>
      </trkpt>
      <trkpt lat="45.921543" lon="6.123939">
        <ele>516.288306</ele>
        <time>2017-06-02T08:55:38.000Z</time>
      </trkpt>
      <trkpt lat="45.921444" lon="6.123933">
        <ele>516.095125</ele>
        <time>2017-06-02T08:55:42.000Z</time>
      </trkpt>
      <trkpt lat="45.921350" lon="6.123936">
        <ele>516.058459</ele>
        <time>2017-06-02T08:55:45.000Z</time>
      </trkpt>
      <trkpt lat="45.921253" lon="6.123911">
        <ele>516.086829</ele>
        <time>2017-06-02T08:55:48.000Z</time>
      </trkpt>
      <trkpt lat="45.921160" lon="6.123916">
        <ele>516.113620</ele>
        <time>2017-06-02T08:55:51.000Z</time>
      </trkpt>
      <trkpt lat="45.921050" lon="6.123931">
        <ele>516.145429</ele>
        <time>2017-06-02T08:55:54.000Z</time>
      </trkpt>
      <trkpt lat="45.920960" lon="6.123932">
        <ele>516.171338</ele>
        <time>2017-06-02T08:55:56.000Z</time>
      </trkpt>
      <trkpt lat="45.920845" lon="6.123922">
        <ele>516.204505</ele>
        <time>2017-06-02T08:55:59.000Z</time>
      </trkpt>
      <trkpt lat="45.920723" lon="6.123944">
        <ele>516.239901</ele>
        <time>2017-06-02T08:56:02.000Z</time>
      </trkpt>
      <trkpt lat="45.920590" lon="6.123939">
        <ele>516.278202</ele>
        <time>2017-06-02T08:56:05.000Z</time>
      </trkpt>
      <trkpt lat="45.920498" lon="6.123948">
        <ele>516.304748</ele>
        <time>2017-06-02T08:56:07.000Z</time>
      </trkpt>
      <trkpt lat="45.920410" lon="6.123953">
        <ele>516.330101</ele>
        <time>2017-06-02T08:56:09.000Z</time>
      </trkpt>
      <trkpt lat="45.920280" lon="6.123937">
        <ele>516.367662</ele>
        <time>2017-06-02T08:56:12.000Z</time>
      </trkpt>
      <trkpt lat="45.920170" lon="6.123930">
        <ele>516.399360</ele>
        <time>2017-06-02T08:56:15.000Z</time>
      </trkpt>
      <trkpt lat="45.920040" lon="6.123893">
        <ele>516.437510</ele>
        <time>2017-06-02T08:56:18.000Z</time>
      </trkpt>
      <trkpt lat="45.919952" lon="6.123904">
        <ele>516.462939</ele>
        <time>2017-06-02T08:56:20.000Z</time>
      </trkpt>
      <trkpt lat="45.919846" lon="6.123899">
        <ele>516.493471</ele>
        <time>2017-06-02T08:56:23.000Z</time>
      </trkpt>
      <trkpt lat="45.919743" lon="6.123898">
        <ele>516.523123</ele>
        <time>2017-06-02T08:56:26.000Z</time>
      </trkpt>
      <trkpt lat="45.919650" lon="6.123919">
        <ele>516.550224</ele>
        <time>2017-06-02T08:56:29.000Z</time>
      </trkpt>
      <trkpt lat="45.919550" lon="6.123944">
        <ele>516.356019</ele>
        <time>2017-06-02T08:56:32.000Z</time>
      </trkpt>
      <trkpt lat="45.919437" lon="6.123969">
        <ele>516.055617</ele>
        <time>2017-06-02T08:56:36.000Z</time>
      </trkpt>
      <trkpt lat="45.919407" lon="6.124091">
        <ele>515.819097</ele>
        <time>2017-06-02T08:56:40.000Z</time>
      </trkpt>
      <trkpt lat="45.919420" lon="6.124221">
        <ele>515.579033</ele>
        <time>2017-06-02T08:56:43.000Z</time>
      </trkpt>
      <trkpt lat="45.919440" lon="6.124374">
        <ele>515.294476</ele>
        <time>2017-06-02T08:56:46.000Z</time>
      </trkpt>
      <trkpt lat="45.919453" lon="6.124525">
        <ele>515.016363</ele>
        <time>2017-06-02T08:56:49.000Z</time>
      </trkpt>
      <trkpt lat="45.919453" lon="6.124668">
        <ele>514.754979</ele>
        <time>2017-06-02T08:56:52.000Z</time>
      </trkpt>
      <trkpt lat="45.919453" lon="6.124798">
        <ele>514.517358</ele>
        <time>2017-06-02T08:56:57.000Z</time>
      </trkpt>
      <trkpt lat="45.919460" lon="6.124959">
        <ele>514.222498</ele>
        <time>2017-06-02T08:57:05.000Z</time>
      </trkpt>
      <trkpt lat="45.919456" lon="6.125106">
        <ele>513.953597</ele>
        <time>2017-06-02T08:57:09.000Z</time>
      </trkpt>
      <trkpt lat="45.919453" lon="6.125238">
        <ele>513.712191</ele>
        <time>2017-06-02T08:57:13.000Z</time>
      </trkpt>
      <trkpt lat="45.919464" lon="6.125384">
        <ele>513.443763</ele>
        <time>2017-06-02T08:57:19.000Z</time>
      </trkpt>
      <trkpt lat="45.919360" lon="6.125389">
        <ele>513.170352</ele>
        <time>2017-06-02T08:57:36.000Z</time>
      </trkpt>
      <trkpt lat="45.919340" lon="6.125568">
        <ele>512.838972</ele>
        <time>2017-06-02T08:57:42.000Z</time>
      </trkpt>
      <trkpt lat="45.919415" lon="6.125740">
        <ele>512.467925</ele>
        <time>2017-06-02T08:57:45.000Z</time>
      </trkpt>
      <trkpt lat="45.919370" lon="6.125892">
        <ele>512.165978</ele>
        <time>2017-06-02T08:57:48.000Z</time>
      </trkpt>
      <trkpt lat="45.919342" lon="6.126016">
        <ele>511.927682</ele>
        <time>2017-06-02T08:57:52.000Z</time>
      </trkpt>
      <trkpt lat="45.919308" lon="6.126155">
        <ele>511.882581</ele>
        <time>2017-06-02T08:57:58.000Z</time>
      </trkpt>
      <trkpt lat="45.919277" lon="6.126283">
        <ele>511.955719</ele>
        <time>2017-06-02T08:58:04.000Z</time>
      </trkpt>
      <trkpt lat="45.919216" lon="6.126397">
        <ele>512.033328</ele>
        <time>2017-06-02T08:58:08.000Z</time>
      </trkpt>
      <trkpt lat="45.919174" lon="6.126514">
        <ele>512.104374</ele>
        <time>2017-06-02T08:58:14.000Z</time>
      </trkpt>
      <trkpt lat="45.919235" lon="6.126402">
        <ele>512.181130</ele>
        <time>2017-06-02T08:58:21.000Z</time>
      </trkpt>
      <trkpt lat="45.919266" lon="6.126263">
        <ele>512.259898</ele>
        <time>2017-06-02T08:58:24.000Z</time>
      </trkpt>
      <trkpt lat="45.919304" lon="6.126143">
        <ele>512.331046</ele>
        <time>2017-06-02T08:58:27.000Z</time>
      </trkpt>
      <trkpt lat="45.919300" lon="6.125994">
        <ele>512.411509</ele>
        <time>2017-06-02T08:58:33.000Z</time>
      </trkpt>
      <trkpt lat="45.919310" lon="6.125835">
        <ele>512.497659</ele>
        <time>2017-06-02T08:58:37.000Z</time>
      </trkpt>
      <trkpt lat="45.919243" lon="6.125739">
        <ele>512.571039</ele>
        <time>2017-06-02T08:58:40.000Z</time>
      </trkpt>
      <trkpt lat="45.919136" lon="6.125704">
        <ele>512.656159</ele>
        <time>2017-06-02T08:58:44.000Z</time>
      </trkpt>
      <trkpt lat="45.919020" lon="6.125727">
        <ele>512.746990</ele>
        <time>2017-06-02T08:58:47.000Z</time>
      </trkpt>
      <trkpt lat="45.918920" lon="6.125738">
        <ele>512.824785</ele>
        <time>2017-06-02T08:58:49.000Z</time>
      </trkpt>
      <trkpt lat="45.918808" lon="6.125741">
        <ele>512.911677</ele>
        <time>2017-06-02T08:58:51.000Z</time>
      </trkpt>
      <trkpt lat="45.918710" lon="6.125751">
        <ele>512.987885</ele>
        <time>2017-06-02T08:58:53.000Z</time>
      </trkpt>
      <trkpt lat="45.918580" lon="6.125764">
        <ele>513.088968</ele>
        <time>2017-06-02T08:58:56.000Z</time>
      </trkpt>
      <trkpt lat="45.918460" lon="6.125763">
        <ele>513.182052</ele>
        <time>2017-06-02T08:58:59.000Z</time>
      </trkpt>
      <trkpt lat="45.918350" lon="6.125765">
        <ele>513.276112</ele>
        <time>2017-06-02T08:59:02.000Z</time>
      </trkpt>
      <trkpt lat="45.918255" lon="6.125784">
        <ele>513.366455</ele>
        <time>2017-06-02T08:59:04.000Z</time>
      </trkpt>
      <trkpt lat="45.918167" lon="6.125794">
        <ele>513.449602</ele>
        <time>2017-06-02T08:59:06.000Z</time>
      </trkpt>
      <trkpt lat="45.918064" lon="6.125791">
        <ele>513.546638</ele>
        <time>2017-06-02T08:59:08.000Z</time>
      </trkpt>
      <trkpt lat="45.917934" lon="6.125788">
        <ele>513.669102</ele>
        <time>2017-06-02T08:59:11.000Z</time>
      </trkpt>
      <trkpt lat="45.917840" lon="6.125783">
        <ele>513.757702</ele>
        <time>2017-06-02T08:59:13.000Z</time>
      </trkpt>
      <trkpt lat="45.917736" lon="6.125785">
        <ele>513.855669</ele>
        <time>2017-06-02T08:59:15.000Z</time>
      </trkpt>
      <trkpt lat="45.917633" lon="6.125791">
        <ele>513.952766</ele>
        <time>2017-06-02T08:59:17.000Z</time>
      </trkpt>
      <trkpt lat="45.917530" lon="6.125794">
        <ele>514.049802</ele>
        <time>2017-06-02T08:59:19.000Z</time>
      </trkpt>
      <trkpt lat="45.917430" lon="6.125810">
        <ele>514.144575</ele>
        <time>2017-06-02T08:59:21.000Z</time>
      </trkpt>
      <trkpt lat="45.917336" lon="6.125813">
        <ele>514.233136</ele>
        <time>2017-06-02T08:59:23.000Z</time>
      </trkpt>
      <trkpt lat="45.917240" lon="6.125817">
        <ele>514.323597</ele>
        <time>2017-06-02T08:59:25.000Z</time>
      </trkpt>
      <trkpt lat="45.917137" lon="6.125824">
        <ele>514.420722</ele>
        <time>2017-06-02T08:59:27.000Z</time>
      </trkpt>
      <trkpt lat="45.917034" lon="6.125824">
        <ele>514.517739</ele>
        <time>2017-06-02T08:59:29.000Z</time>
      </trkpt>
      <trkpt lat="45.916920" lon="6.125835">
        <ele>514.625358</ele>
        <time>2017-06-02T08:59:31.000Z</time>
      </trkpt>
      <trkpt lat="45.916810" lon="6.125839">
        <ele>514.729001</ele>
        <time>2017-06-02T08:59:33.000Z</time>
      </trkpt>
      <trkpt lat="45.916690" lon="6.125817">
        <ele>514.842946</ele>
        <time>2017-06-02T08:59:35.000Z</time>
      </trkpt>
      <trkpt lat="45.916590" lon="6.125836">
        <ele>514.905641</ele>
        <time>2017-06-02T08:59:37.000Z</time>
      </trkpt>
      <trkpt lat="45.916500" lon="6.125838">
        <ele>514.830618</ele>
        <time>2017-06-02T08:59:39.000Z</time>
      </trkpt>
      <trkpt lat="45.916405" lon="6.125837">
        <ele>514.751434</ele>
        <time>2017-06-02T08:59:41.000Z</time>
      </trkpt>
      <trkpt lat="45.916306" lon="6.125846">
        <ele>514.668753</ele>
        <time>2017-06-02T08:59:43.000Z</time>
      </trkpt>
      <trkpt lat="45.916210" lon="6.125832">
        <ele>514.588327</ele>
        <time>2017-06-02T08:59:45.000Z</time>
      </trkpt>
      <trkpt lat="45.916103" lon="6.125858">
        <ele>514.497878</ele>
        <time>2017-06-02T08:59:47.000Z</time>
      </trkpt>
      <trkpt lat="45.915997" lon="6.125865">
        <ele>514.409434</ele>
        <time>2017-06-02T08:59:49.000Z</time>
      </trkpt>
      <trkpt lat="45.915894" lon="6.125861">
        <ele>514.323553</ele>
        <time>2017-06-02T08:59:51.000Z</time>
      </trkpt>
      <trkpt lat="45.915800" lon="6.125865">
        <ele>514.245170</ele>
        <time>2017-06-02T08:59:53.000Z</time>
      </trkpt>
      <trkpt lat="45.915670" lon="6.125863">
        <ele>514.136810</ele>
        <time>2017-06-02T08:59:56.000Z</time>
      </trkpt>
      <trkpt lat="45.915550" lon="6.125876">
        <ele>514.036507</ele>
        <time>2017-06-02T08:59:59.000Z</time>
      </trkpt>
      <trkpt lat="45.915450" lon="6.125872">
        <ele>513.953125</ele>
        <time>2017-06-02T09:00:02.000Z</time>
      </trkpt>
      <trkpt lat="45.915348" lon="6.125868">
        <ele>513.868077</ele>
        <time>2017-06-02T09:00:05.000Z</time>
      </trkpt>
      <trkpt lat="45.915264" lon="6.125919">
        <ele>513.792074</ele>
        <time>2017-06-02T09:00:09.000Z</time>
      </trkpt>
      <trkpt lat="45.915157" lon="6.125953">
        <ele>513.700737</ele>
        <time>2017-06-02T09:00:16.000Z</time>
      </trkpt>
      <trkpt lat="45.915047" lon="6.125880">
        <ele>513.599752</ele>
        <time>2017-06-02T09:00:20.000Z</time>
      </trkpt>
      <trkpt lat="45.914940" lon="6.125875">
        <ele>513.510521</ele>
        <time>2017-06-02T09:00:23.000Z</time>
      </trkpt>
      <trkpt lat="45.914814" lon="6.125872">
        <ele>513.401332</ele>
        <time>2017-06-02T09:00:26.000Z</time>
      </trkpt>
      <trkpt lat="45.914696" lon="6.125842">
        <ele>513.275792</ele>
        <time>2017-06-02T09:00:29.000Z</time>
      </trkpt>
      <trkpt lat="45.914562" lon="6.125851">
        <ele>513.135256</ele>
        <time>2017-06-02T09:00:32.000Z</time>
      </trkpt>
      <trkpt lat="45.914470" lon="6.125854">
        <ele>513.038849</ele>
        <time>2017-06-02T09:00:34.000Z</time>
      </trkpt>
      <trkpt lat="45.914375" lon="6.125849">
        <ele>512.939257</ele>
        <time>2017-06-02T09:00:36.000Z</time>
      </trkpt>
      <trkpt lat="45.914270" lon="6.125845">
        <ele>512.829217</ele>
        <time>2017-06-02T09:00:38.000Z</time>
      </trkpt>
      <trkpt lat="45.914170" lon="6.125849">
        <ele>512.724413</ele>
        <time>2017-06-02T09:00:40.000Z</time>
      </trkpt>
      <trkpt lat="45.914063" lon="6.125847">
        <ele>512.612307</ele>
        <time>2017-06-02T09:00:42.000Z</time>
      </trkpt>
      <trkpt lat="45.913940" lon="6.125843">
        <ele>512.483415</ele>
        <time>2017-06-02T09:00:44.000Z</time>
      </trkpt>
      <trkpt lat="45.913830" lon="6.125844">
        <ele>512.368173</ele>
        <time>2017-06-02T09:00:46.000Z</time>
      </trkpt>
      <trkpt lat="45.913730" lon="6.125851">
        <ele>512.263285</ele>
        <time>2017-06-02T09:00:48.000Z</time>
      </trkpt>
      <trkpt lat="45.913630" lon="6.125861">
        <ele>512.158268</ele>
        <time>2017-06-02T09:00:50.000Z</time>
      </trkpt>
      <trkpt lat="45.913540" lon="6.125876">
        <ele>512.063349</ele>
        <time>2017-06-02T09:00:52.000Z</time>
      </trkpt>
      <trkpt lat="45.913450" lon="6.125878">
        <ele>511.969051</ele>
        <time>2017-06-02T09:00:54.000Z</time>
      </trkpt>
      <trkpt lat="45.913357" lon="6.125871">
        <ele>511.871488</ele>
        <time>2017-06-02T09:00:56.000Z</time>
      </trkpt>
      <trkpt lat="45.913260" lon="6.125879">
        <ele>511.769700</ele>
        <time>2017-06-02T09:00:58.000Z</time>
      </trkpt>
      <trkpt lat="45.913160" lon="6.125881">
        <ele>511.664926</ele>
        <time>2017-06-02T09:01:00.000Z</time>
      </trkpt>
      <trkpt lat="45.913055" lon="6.125866">
        <ele>511.554383</ele>
        <time>2017-06-02T09:01:02.000Z</time>
      </trkpt>
      <trkpt lat="45.912952" lon="6.125864">
        <ele>511.386624</ele>
        <time>2017-06-02T09:01:04.000Z</time>
      </trkpt>
      <trkpt lat="45.912846" lon="6.125870">
        <ele>511.202299</ele>
        <time>2017-06-02T09:01:06.000Z</time>
      </trkpt>
      <trkpt lat="45.912730" lon="6.125883">
        <ele>511.000128</ele>
        <time>2017-06-02T09:01:08.000Z</time>
      </trkpt>
      <trkpt lat="45.912624" lon="6.125892">
        <ele>510.815624</ele>
        <time>2017-06-02T09:01:10.000Z</time>
      </trkpt>
      <trkpt lat="45.912514" lon="6.125897">
        <ele>510.624395</ele>
        <time>2017-06-02T09:01:12.000Z</time>
      </trkpt>
      <trkpt lat="45.912410" lon="6.125896">
        <ele>510.443683</ele>
        <time>2017-06-02T09:01:14.000Z</time>
      </trkpt>
      <trkpt lat="45.912310" lon="6.125897">
        <ele>510.269922</ele>
        <time>2017-06-02T09:01:16.000Z</time>
      </trkpt>
      <trkpt lat="45.912224" lon="6.125921">
        <ele>510.117699</ele>
        <time>2017-06-02T09:01:18.000Z</time>
      </trkpt>
      <trkpt lat="45.912113" lon="6.125948">
        <ele>509.922086</ele>
        <time>2017-06-02T09:01:21.000Z</time>
      </trkpt>
      <trkpt lat="45.911987" lon="6.125935">
        <ele>509.702588</ele>
        <time>2017-06-02T09:01:24.000Z</time>
      </trkpt>
      <trkpt lat="45.911896" lon="6.125936">
        <ele>509.544464</ele>
        <time>2017-06-02T09:01:26.000Z</time>
      </trkpt>
      <trkpt lat="45.911800" lon="6.125935">
        <ele>509.377653</ele>
        <time>2017-06-02T09:01:28.000Z</time>
      </trkpt>
      <trkpt lat="45.911697" lon="6.125935">
        <ele>509.198682</ele>
        <time>2017-06-02T09:01:30.000Z</time>
      </trkpt>
      <trkpt lat="45.911587" lon="6.125927">
        <ele>509.007305</ele>
        <time>2017-06-02T09:01:33.000Z</time>
      </trkpt>
      <trkpt lat="45.911490" lon="6.125933">
        <ele>508.838604</ele>
        <time>2017-06-02T09:01:37.000Z</time>
      </trkpt>
      <trkpt lat="45.911427" lon="6.125829">
        <ele>508.671896</ele>
        <time>2017-06-02T09:01:44.000Z</time>
      </trkpt>
      <trkpt lat="45.911335" lon="6.125795">
        <ele>508.506840</ele>
        <time>2017-06-02T09:01:47.000Z</time>
      </trkpt>
      <trkpt lat="45.911198" lon="6.125795">
        <ele>508.447069</ele>
        <time>2017-06-02T09:01:50.000Z</time>
      </trkpt>
      <trkpt lat="45.911090" lon="6.125802">
        <ele>508.492978</ele>
        <time>2017-06-02T09:01:52.000Z</time>
      </trkpt>
      <trkpt lat="45.910973" lon="6.125804">
        <ele>508.542665</ele>
        <time>2017-06-02T09:01:54.000Z</time>
      </trkpt>
      <trkpt lat="45.910860" lon="6.125809">
        <ele>508.590674</ele>
        <time>2017-06-02T09:01:56.000Z</time>
      </trkpt>
      <trkpt lat="45.910744" lon="6.125823">
        <ele>508.640107</ele>
        <time>2017-06-02T09:01:58.000Z</time>
      </trkpt>
      <trkpt lat="45.910618" lon="6.125834">
        <ele>508.693711</ele>
        <time>2017-06-02T09:02:00.000Z</time>
      </trkpt>
      <trkpt lat="45.910492" lon="6.125838">
        <ele>508.747230</ele>
        <time>2017-06-02T09:02:02.000Z</time>
      </trkpt>
      <trkpt lat="45.910366" lon="6.125854">
        <ele>508.800945</ele>
        <time>2017-06-02T09:02:04.000Z</time>
      </trkpt>
      <trkpt lat="45.910244" lon="6.125854">
        <ele>508.852752</ele>
        <time>2017-06-02T09:02:06.000Z</time>
      </trkpt>
      <trkpt lat="45.910114" lon="6.125855">
        <ele>508.907958</ele>
        <time>2017-06-02T09:02:08.000Z</time>
      </trkpt>
      <trkpt lat="45.909992" lon="6.125849">
        <ele>508.959796</ele>
        <time>2017-06-02T09:02:10.000Z</time>
      </trkpt>
      <trkpt lat="45.909860" lon="6.125853">
        <ele>509.015862</ele>
        <time>2017-06-02T09:02:12.000Z</time>
      </trkpt>
      <trkpt lat="45.909720" lon="6.125857">
        <ele>509.075325</ele>
        <time>2017-06-02T09:02:14.000Z</time>
      </trkpt>
      <trkpt lat="45.909550" lon="6.125814">
        <ele>509.148625</ele>
        <time>2017-06-02T09:02:16.000Z</time>
      </trkpt>
      <trkpt lat="45.909386" lon="6.125791">
        <ele>509.222611</ele>
        <time>2017-06-02T09:02:18.000Z</time>
      </trkpt>
      <trkpt lat="45.909233" lon="6.125806">
        <ele>509.293845</ele>
        <time>2017-06-02T09:02:20.000Z</time>
      </trkpt>
      <trkpt lat="45.909092" lon="6.125816">
        <ele>509.359419</ele>
        <time>2017-06-02T09:02:22.000Z</time>
      </trkpt>
      <trkpt lat="45.908955" lon="6.125835">
        <ele>509.423352</ele>
        <time>2017-06-02T09:02:24.000Z</time>
      </trkpt>
      <trkpt lat="45.908810" lon="6.125837">
        <ele>509.490708</ele>
        <time>2017-06-02T09:02:26.000Z</time>
      </trkpt>
      <trkpt lat="45.908672" lon="6.125854">
        <ele>509.555044</ele>
        <time>2017-06-02T09:02:28.000Z</time>
      </trkpt>
      <trkpt lat="45.908512" lon="6.125863">
        <ele>509.629421</ele>
        <time>2017-06-02T09:02:30.000Z</time>
      </trkpt>
      <trkpt lat="45.908356" lon="6.125862">
        <ele>509.701884</ele>
        <time>2017-06-02T09:02:32.000Z</time>
      </trkpt>
      <trkpt lat="45.908195" lon="6.125854">
        <ele>509.776714</ele>
        <time>2017-06-02T09:02:34.000Z</time>
      </trkpt>
      <trkpt lat="45.908054" lon="6.125882">
        <ele>509.842831</ele>
        <time>2017-06-02T09:02:36.000Z</time>
      </trkpt>
      <trkpt lat="45.907917" lon="6.125900">
        <ele>509.906733</ele>
        <time>2017-06-02T09:02:38.000Z</time>
      </trkpt>
      <trkpt lat="45.907780" lon="6.125915">
        <ele>509.970555</ele>
        <time>2017-06-02T09:02:40.000Z</time>
      </trkpt>
      <trkpt lat="45.907658" lon="6.125933">
        <ele>509.982402</ele>
        <time>2017-06-02T09:02:42.000Z</time>
      </trkpt>
      <trkpt lat="45.907530" lon="6.125952">
        <ele>509.875648</ele>
        <time>2017-06-02T09:02:44.000Z</time>
      </trkpt>
      <trkpt lat="45.907400" lon="6.125964">
        <ele>509.767577</ele>
        <time>2017-06-02T09:02:46.000Z</time>
      </trkpt>
      <trkpt lat="45.907272" lon="6.125978">
        <ele>509.661081</ele>
        <time>2017-06-02T09:02:48.000Z</time>
      </trkpt>
      <trkpt lat="45.907146" lon="6.125976">
        <ele>509.556544</ele>
        <time>2017-06-02T09:02:50.000Z</time>
      </trkpt>
      <trkpt lat="45.907017" lon="6.125980">
        <ele>509.449500</ele>
        <time>2017-06-02T09:02:52.000Z</time>
      </trkpt>
      <trkpt lat="45.906890" lon="6.125970">
        <ele>509.343983</ele>
        <time>2017-06-02T09:02:54.000Z</time>
      </trkpt>
      <trkpt lat="45.906776" lon="6.125986">
        <ele>509.248958</ele>
        <time>2017-06-02T09:02:56.000Z</time>
      </trkpt>
      <trkpt lat="45.906666" lon="6.125997">
        <ele>509.157481</ele>
        <time>2017-06-02T09:02:58.000Z</time>
      </trkpt>
      <trkpt lat="45.906555" lon="6.126000">
        <ele>509.065378</ele>
        <time>2017-06-02T09:03:00.000Z</time>
      </trkpt>
      <trkpt lat="45.906445" lon="6.126002">
        <ele>508.974114</ele>
        <time>2017-06-02T09:03:02.000Z</time>
      </trkpt>
      <trkpt lat="45.906334" lon="6.126004">
        <ele>508.882021</ele>
        <time>2017-06-02T09:03:04.000Z</time>
      </trkpt>
      <trkpt lat="45.906235" lon="6.125997">
        <ele>508.799791</ele>
        <time>2017-06-02T09:03:06.000Z</time>
      </trkpt>
      <trkpt lat="45.906136" lon="6.125978">
        <ele>508.716931</ele>
        <time>2017-06-02T09:03:08.000Z</time>
      </trkpt>
      <trkpt lat="45.906036" lon="6.125955">
        <ele>508.632915</ele>
        <time>2017-06-02T09:03:10.000Z</time>
      </trkpt>
      <trkpt lat="45.905920" lon="6.125878">
        <ele>508.526911</ele>
        <time>2017-06-02T09:03:13.000Z</time>
      </trkpt>
      <trkpt lat="45.905857" lon="6.125735">
        <ele>508.368439</ele>
        <time>2017-06-02T09:03:16.000Z</time>
      </trkpt>
      <trkpt lat="45.905804" lon="6.125629">
        <ele>508.242189</ele>
        <time>2017-06-02T09:03:18.000Z</time>
      </trkpt>
      <trkpt lat="45.905710" lon="6.125598">
        <ele>508.108132</ele>
        <time>2017-06-02T09:03:21.000Z</time>
      </trkpt>
      <trkpt lat="45.905605" lon="6.125640">
        <ele>507.956632</ele>
        <time>2017-06-02T09:03:24.000Z</time>
      </trkpt>
      <trkpt lat="45.905533" lon="6.125748">
        <ele>507.811966</ele>
        <time>2017-06-02T09:03:27.000Z</time>
      </trkpt>
      <trkpt lat="45.905510" lon="6.125884">
        <ele>507.676593</ele>
        <time>2017-06-02T09:03:30.000Z</time>
      </trkpt>
      <trkpt lat="45.905430" lon="6.125949">
        <ele>507.548850</ele>
        <time>2017-06-02T09:03:34.000Z</time>
      </trkpt>
      <trkpt lat="45.905342" lon="6.125861">
        <ele>507.399828</ele>
        <time>2017-06-02T09:03:38.000Z</time>
      </trkpt>
      <trkpt lat="45.905262" lon="6.125773">
        <ele>507.259790</ele>
        <time>2017-06-02T09:03:42.000Z</time>
      </trkpt>
      <trkpt lat="45.905150" lon="6.125704">
        <ele>507.090406</ele>
        <time>2017-06-02T09:04:50.000Z</time>
      </trkpt>
      <trkpt lat="45.905060" lon="6.125650">
        <ele>506.954839</ele>
        <time>2017-06-02T09:04:54.000Z</time>
      </trkpt>
      <trkpt lat="45.904953" lon="6.125576">
        <ele>506.789781</ele>
        <time>2017-06-02T09:04:58.000Z</time>
      </trkpt>
      <trkpt lat="45.904870" lon="6.125506">
        <ele>506.656010</ele>
        <time>2017-06-02T09:05:01.000Z</time>
      </trkpt>
      <trkpt lat="45.904780" lon="6.125434">
        <ele>506.512831</ele>
        <time>2017-06-02T09:05:04.000Z</time>
      </trkpt>
      <trkpt lat="45.904680" lon="6.125348">
        <ele>506.350840</ele>
        <time>2017-06-02T09:05:08.000Z</time>
      </trkpt>
      <trkpt lat="45.904583" lon="6.125265">
        <ele>506.193918</ele>
        <time>2017-06-02T09:05:12.000Z</time>
      </trkpt>
      <trkpt lat="45.904480" lon="6.125206">
        <ele>506.039792</ele>
        <time>2017-06-02T09:05:16.000Z</time>
      </trkpt>
      <trkpt lat="45.904373" lon="6.125233">
        <ele>505.941725</ele>
        <time>2017-06-02T09:05:19.000Z</time>
      </trkpt>
      <trkpt lat="45.904290" lon="6.125310">
        <ele>505.860221</ele>
        <time>2017-06-02T09:05:21.000Z</time>
      </trkpt>
      <trkpt lat="45.904198" lon="6.125376">
        <ele>505.775390</ele>
        <time>2017-06-02T09:05:24.000Z</time>
      </trkpt>
      <trkpt lat="45.904090" lon="6.125446">
        <ele>505.677647</ele>
        <time>2017-06-02T09:05:28.000Z</time>
      </trkpt>
      <trkpt lat="45.904015" lon="6.125507">
        <ele>505.606550</ele>
        <time>2017-06-02T09:05:31.000Z</time>
      </trkpt>
      <trkpt lat="45.903927" lon="6.125563">
        <ele>505.527150</ele>
        <time>2017-06-02T09:05:35.000Z</time>
      </trkpt>
      <trkpt lat="45.903830" lon="6.125495">
        <ele>505.438112</ele>
        <time>2017-06-02T09:07:08.000Z</time>
      </trkpt>
      <trkpt lat="45.903717" lon="6.125564">
        <ele>505.336820</ele>
        <time>2017-06-02T09:11:02.000Z</time>
      </trkpt>
      <trkpt lat="45.903633" lon="6.125618">
        <ele>505.260903</ele>
        <time>2017-06-02T09:11:10.000Z</time>
      </trkpt>
      <trkpt lat="45.903557" lon="6.125689">
        <ele>505.186119</ele>
        <time>2017-06-02T09:14:55.000Z</time>
      </trkpt>
      <trkpt lat="45.903480" lon="6.125760">
        <ele>505.110642</ele>
        <time>2017-06-02T09:15:01.000Z</time>
      </trkpt>
      <trkpt lat="45.903390" lon="6.125843">
        <ele>505.022417</ele>
        <time>2017-06-02T09:15:05.000Z</time>
      </trkpt>
      <trkpt lat="45.903305" lon="6.125939">
        <ele>504.933227</ele>
        <time>2017-06-02T09:15:09.000Z</time>
      </trkpt>
      <trkpt lat="45.903225" lon="6.126007">
        <ele>504.856546</ele>
        <time>2017-06-02T09:15:12.000Z</time>
      </trkpt>
      <trkpt lat="45.903095" lon="6.126056">
        <ele>504.745669</ele>
        <time>2017-06-02T09:15:15.000Z</time>
      </trkpt>
      <trkpt lat="45.903000" lon="6.126087">
        <ele>504.665299</ele>
        <time>2017-06-02T09:15:17.000Z</time>
      </trkpt>
      <trkpt lat="45.902910" lon="6.126125">
        <ele>504.587911</ele>
        <time>2017-06-02T09:15:19.000Z</time>
      </trkpt>
      <trkpt lat="45.902817" lon="6.126165">
        <ele>504.467896</ele>
        <time>2017-06-02T09:15:21.000Z</time>
      </trkpt>
      <trkpt lat="45.902730" lon="6.126202">
        <ele>504.283673</ele>
        <time>2017-06-02T09:15:23.000Z</time>
      </trkpt>
      <trkpt lat="45.902607" lon="6.126264">
        <ele>504.019009</ele>
        <time>2017-06-02T09:15:26.000Z</time>
      </trkpt>
      <trkpt lat="45.902500" lon="6.126345">
        <ele>503.773448</ele>
        <time>2017-06-02T09:15:29.000Z</time>
      </trkpt>
      <trkpt lat="45.902405" lon="6.126449">
        <ele>503.530958</ele>
        <time>2017-06-02T09:15:32.000Z</time>
      </trkpt>
      <trkpt lat="45.902300" lon="6.126511">
        <ele>503.300464</ele>
        <time>2017-06-02T09:15:37.000Z</time>
      </trkpt>
      <trkpt lat="45.902225" lon="6.126591">
        <ele>503.110812</ele>
        <time>2017-06-02T09:15:40.000Z</time>
      </trkpt>
      <trkpt lat="45.902107" lon="6.126685">
        <ele>502.836867</ele>
        <time>2017-06-02T09:15:43.000Z</time>
      </trkpt>
      <trkpt lat="45.902023" lon="6.126725">
        <ele>502.657189</ele>
        <time>2017-06-02T09:15:45.000Z</time>
      </trkpt>
      <trkpt lat="45.901910" lon="6.126805">
        <ele>502.401414</ele>
        <time>2017-06-02T09:15:48.000Z</time>
      </trkpt>
      <trkpt lat="45.901794" lon="6.126886">
        <ele>502.139546</ele>
        <time>2017-06-02T09:15:51.000Z</time>
      </trkpt>
      <trkpt lat="45.901714" lon="6.126959">
        <ele>501.947128</ele>
        <time>2017-06-02T09:15:53.000Z</time>
      </trkpt>
      <trkpt lat="45.901627" lon="6.127018">
        <ele>501.751795</ele>
        <time>2017-06-02T09:15:55.000Z</time>
      </trkpt>
      <trkpt lat="45.901543" lon="6.127074">
        <ele>501.563776</ele>
        <time>2017-06-02T09:15:57.000Z</time>
      </trkpt>
      <trkpt lat="45.901463" lon="6.127184">
        <ele>501.338958</ele>
        <time>2017-06-02T09:16:00.000Z</time>
      </trkpt>
      <trkpt lat="45.901410" lon="6.127290">
        <ele>501.154530</ele>
        <time>2017-06-02T09:16:04.000Z</time>
      </trkpt>
      <trkpt lat="45.901337" lon="6.127392">
        <ele>500.947788</ele>
        <time>2017-06-02T09:16:13.000Z</time>
      </trkpt>
      <trkpt lat="45.901337" lon="6.127626">
        <ele>500.877024</ele>
        <time>2017-06-02T09:16:45.000Z</time>
      </trkpt>
      <trkpt lat="45.901375" lon="6.127790">
        <ele>500.871456</ele>
        <time>2017-06-02T09:16:49.000Z</time>
      </trkpt>
      <trkpt lat="45.901430" lon="6.127909">
        <ele>500.866855</ele>
        <time>2017-06-02T09:16:52.000Z</time>
      </trkpt>
      <trkpt lat="45.901478" lon="6.128027">
        <ele>500.862452</ele>
        <time>2017-06-02T09:16:56.000Z</time>
      </trkpt>
      <trkpt lat="45.901386" lon="6.128124">
        <ele>500.857170</ele>
        <time>2017-06-02T09:17:15.000Z</time>
      </trkpt>
      <trkpt lat="45.901302" lon="6.128201">
        <ele>500.852558</ele>
        <time>2017-06-02T09:17:19.000Z</time>
      </trkpt>
      <trkpt lat="45.901287" lon="6.128330">
        <ele>500.848345</ele>
        <time>2017-06-02T09:17:23.000Z</time>
      </trkpt>
      <trkpt lat="45.901325" lon="6.128457">
        <ele>500.843892</ele>
        <time>2017-06-02T09:17:26.000Z</time>
      </trkpt>
      <trkpt lat="45.901363" lon="6.128594">
        <ele>500.839141</ele>
        <time>2017-06-02T09:17:29.000Z</time>
      </trkpt>
      <trkpt lat="45.901405" lon="6.128748">
        <ele>500.833813</ele>
        <time>2017-06-02T09:17:32.000Z</time>
      </trkpt>
      <trkpt lat="45.901440" lon="6.128887">
        <ele>500.829052</ele>
        <time>2017-06-02T09:17:34.000Z</time>
      </trkpt>
      <trkpt lat="45.901450" lon="6.129036">
        <ele>500.824230</ele>
        <time>2017-06-02T09:17:37.000Z</time>
      </trkpt>
      <trkpt lat="45.901375" lon="6.129154">
        <ele>500.819082</ele>
        <time>2017-06-02T09:17:40.000Z</time>
      </trkpt>
      <trkpt lat="45.901300" lon="6.129241">
        <ele>500.814621</ele>
        <time>2017-06-02T09:17:43.000Z</time>
      </trkpt>
      <trkpt lat="45.901253" lon="6.129367">
        <ele>500.810016</ele>
        <time>2017-06-02T09:17:46.000Z</time>
      </trkpt>
      <trkpt lat="45.901220" lon="6.129545">
        <ele>500.804082</ele>
        <time>2017-06-02T09:17:49.000Z</time>
      </trkpt>
      <trkpt lat="45.901176" lon="6.129661">
        <ele>500.799825</ele>
        <time>2017-06-02T09:17:51.000Z</time>
      </trkpt>
      <trkpt lat="45.901140" lon="6.129781">
        <ele>500.794163</ele>
        <time>2017-06-02T09:17:53.000Z</time>
      </trkpt>
      <trkpt lat="45.901100" lon="6.129914">
        <ele>500.787886</ele>
        <time>2017-06-02T09:17:55.000Z</time>
      </trkpt>
      <trkpt lat="45.901062" lon="6.130054">
        <ele>500.781375</ele>
        <time>2017-06-02T09:17:57.000Z</time>
      </trkpt>
      <trkpt lat="45.901020" lon="6.130199">
        <ele>500.774570</ele>
        <time>2017-06-02T09:17:59.000Z</time>
      </trkpt>
      <trkpt lat="45.900986" lon="6.130344">
        <ele>500.767941</ele>
        <time>2017-06-02T09:18:01.000Z</time>
      </trkpt>
      <trkpt lat="45.900955" lon="6.130479">
        <ele>500.761782</ele>
        <time>2017-06-02T09:18:03.000Z</time>
      </trkpt>
      <trkpt lat="45.900917" lon="6.130608">
        <ele>500.755712</ele>
        <time>2017-06-02T09:18:05.000Z</time>
      </trkpt>
      <trkpt lat="45.900880" lon="6.130734">
        <ele>500.749787</ele>
        <time>2017-06-02T09:18:07.000Z</time>
      </trkpt>
      <trkpt lat="45.900830" lon="6.130905">
        <ele>500.741751</ele>
        <time>2017-06-02T09:18:10.000Z</time>
      </trkpt>
      <trkpt lat="45.900770" lon="6.131058">
        <ele>500.734142</ele>
        <time>2017-06-02T09:18:13.000Z</time>
      </trkpt>
      <trkpt lat="45.900703" lon="6.131191">
        <ele>500.727028</ele>
        <time>2017-06-02T09:18:16.000Z</time>
      </trkpt>
      <trkpt lat="45.900640" lon="6.131302">
        <ele>500.720822</ele>
        <time>2017-06-02T09:18:19.000Z</time>
      </trkpt>
      <trkpt lat="45.900524" lon="6.131351">
        <ele>500.713295</ele>
        <time>2017-06-02T09:18:23.000Z</time>
      </trkpt>
      <trkpt lat="45.900420" lon="6.131363">
        <ele>500.706799</ele>
        <time>2017-06-02T09:18:27.000Z</time>
      </trkpt>
      <trkpt lat="45.900356" lon="6.131468">
        <ele>500.700751</ele>
        <time>2017-06-02T09:18:32.000Z</time>
      </trkpt>
      <trkpt lat="45.900368" lon="6.131604">
        <ele>500.694812</ele>
        <time>2017-06-02T09:18:35.000Z</time>
      </trkpt>
      <trkpt lat="45.900400" lon="6.131748">
        <ele>500.688262</ele>
        <time>2017-06-02T09:18:38.000Z</time>
      </trkpt>
      <trkpt lat="45.900450" lon="6.131883">
        <ele>500.685052</ele>
        <time>2017-06-02T09:18:41.000Z</time>
      </trkpt>
      <trkpt lat="45.900510" lon="6.132006">
        <ele>500.682122</ele>
        <time>2017-06-02T09:18:44.000Z</time>
      </trkpt>
      <trkpt lat="45.900597" lon="6.132172">
        <ele>500.678069</ele>
        <time>2017-06-02T09:19:03.000Z</time>
      </trkpt>
      <trkpt lat="45.900696" lon="6.132259">
        <ele>500.674817</ele>
        <time>2017-06-02T09:19:07.000Z</time>
      </trkpt>
      <trkpt lat="45.900776" lon="6.132324">
        <ele>500.672241</ele>
        <time>2017-06-02T09:19:10.000Z</time>
      </trkpt>
      <trkpt lat="45.900883" lon="6.132399">
        <ele>500.668905</ele>
        <time>2017-06-02T09:19:14.000Z</time>
      </trkpt>
      <trkpt lat="45.900974" lon="6.132435">
        <ele>500.666259</ele>
        <time>2017-06-02T09:19:17.000Z</time>
      </trkpt>
      <trkpt lat="45.901077" lon="6.132448">
        <ele>500.663361</ele>
        <time>2017-06-02T09:19:20.000Z</time>
      </trkpt>
      <trkpt lat="45.901173" lon="6.132485">
        <ele>500.660576</ele>
        <time>2017-06-02T09:19:23.000Z</time>
      </trkpt>
      <trkpt lat="45.901276" lon="6.132554">
        <ele>500.657391</ele>
        <time>2017-06-02T09:19:27.000Z</time>
      </trkpt>
      <trkpt lat="45.901380" lon="6.132482">
        <ele>500.654155</ele>
        <time>2017-06-02T09:19:31.000Z</time>
      </trkpt>
      <trkpt lat="45.901463" lon="6.132420">
        <ele>500.651534</ele>
        <time>2017-06-02T09:19:34.000Z</time>
      </trkpt>
      <trkpt lat="45.901560" lon="6.132346">
        <ele>500.648456</ele>
        <time>2017-06-02T09:19:38.000Z</time>
      </trkpt>
      <trkpt lat="45.901665" lon="6.132330">
        <ele>500.645496</ele>
        <time>2017-06-02T09:19:43.000Z</time>
      </trkpt>
      <trkpt lat="45.901558" lon="6.132331">
        <ele>500.642497</ele>
        <time>2017-06-02T09:20:59.000Z</time>
      </trkpt>
      <trkpt lat="45.901463" lon="6.132356">
        <ele>500.639791</ele>
        <time>2017-06-02T09:21:02.000Z</time>
      </trkpt>
      <trkpt lat="45.901370" lon="6.132388">
        <ele>500.641315</ele>
        <time>2017-06-02T09:21:05.000Z</time>
      </trkpt>
      <trkpt lat="45.901310" lon="6.132511">
        <ele>500.675949</ele>
        <time>2017-06-02T09:21:09.000Z</time>
      </trkpt>
      <trkpt lat="45.901253" lon="6.132651">
        <ele>500.713347</ele>
        <time>2017-06-02T09:21:13.000Z</time>
      </trkpt>
      <trkpt lat="45.901264" lon="6.132806">
        <ele>500.749270</ele>
        <time>2017-06-02T09:21:16.000Z</time>
      </trkpt>
      <trkpt lat="45.901302" lon="6.132947">
        <ele>500.784133</ele>
        <time>2017-06-02T09:21:19.000Z</time>
      </trkpt>
      <trkpt lat="45.901350" lon="6.133089">
        <ele>500.820531</ele>
        <time>2017-06-02T09:21:22.000Z</time>
      </trkpt>
      <trkpt lat="45.901394" lon="6.133242">
        <ele>500.858701</ele>
        <time>2017-06-02T09:21:25.000Z</time>
      </trkpt>
      <trkpt lat="45.901420" lon="6.133388">
        <ele>500.893449</ele>
        <time>2017-06-02T09:21:28.000Z</time>
      </trkpt>
      <trkpt lat="45.901447" lon="6.133517">
        <ele>500.924508</ele>
        <time>2017-06-02T09:21:31.000Z</time>
      </trkpt>
      <trkpt lat="45.901485" lon="6.133669">
        <ele>500.961747</ele>
        <time>2017-06-02T09:21:35.000Z</time>
      </trkpt>
      <trkpt lat="45.901527" lon="6.133819">
        <ele>500.999026</ele>
        <time>2017-06-02T09:21:39.000Z</time>
      </trkpt>
      <trkpt lat="45.901558" lon="6.133946">
        <ele>501.030057</ele>
        <time>2017-06-02T09:21:42.000Z</time>
      </trkpt>
      <trkpt lat="45.901608" lon="6.134083">
        <ele>501.065725</ele>
        <time>2017-06-02T09:21:45.000Z</time>
      </trkpt>
      <trkpt lat="45.901665" lon="6.134214">
        <ele>501.101347</ele>
        <time>2017-06-02T09:21:48.000Z</time>
      </trkpt>
      <trkpt lat="45.901726" lon="6.134345">
        <ele>501.137689</ele>
        <time>2017-06-02T09:21:51.000Z</time>
      </trkpt>
      <trkpt lat="45.901790" lon="6.134454">
        <ele>501.170571</ele>
        <time>2017-06-02T09:21:54.000Z</time>
      </trkpt>
      <trkpt lat="45.901855" lon="6.134554">
        <ele>501.202121</ele>
        <time>2017-06-02T09:21:57.000Z</time>
      </trkpt>
      <trkpt lat="45.901940" lon="6.134623">
        <ele>501.238475</ele>
        <time>2017-06-02T09:22:00.000Z</time>
      </trkpt>
      <trkpt lat="45.902040" lon="6.134568">
        <ele>501.403611</ele>
        <time>2017-06-02T09:22:03.000Z</time>
      </trkpt>
      <trkpt lat="45.902122" lon="6.134457">
        <ele>501.577350</ele>
        <time>2017-06-02T09:22:06.000Z</time>
      </trkpt>
      <trkpt lat="45.902190" lon="6.134317">
        <ele>501.760584</ele>
        <time>2017-06-02T09:22:09.000Z</time>
      </trkpt>
      <trkpt lat="45.902267" lon="6.134173">
        <ele>501.955486</ele>
        <time>2017-06-02T09:22:12.000Z</time>
      </trkpt>
      <trkpt lat="45.902348" lon="6.134035">
        <ele>502.149242</ele>
        <time>2017-06-02T09:22:15.000Z</time>
      </trkpt>
      <trkpt lat="45.902435" lon="6.133928">
        <ele>502.325851</ele>
        <time>2017-06-02T09:22:18.000Z</time>
      </trkpt>
      <trkpt lat="45.902534" lon="6.133848">
        <ele>502.501019</ele>
        <time>2017-06-02T09:22:21.000Z</time>
      </trkpt>
      <trkpt lat="45.902650" lon="6.133759">
        <ele>502.703823</ele>
        <time>2017-06-02T09:22:24.000Z</time>
      </trkpt>
      <trkpt lat="45.902710" lon="6.133621">
        <ele>502.878460</ele>
        <time>2017-06-02T09:22:28.000Z</time>
      </trkpt>
      <trkpt lat="45.902657" lon="6.133476">
        <ele>503.054239</ele>
        <time>2017-06-02T09:22:31.000Z</time>
      </trkpt>
      <trkpt lat="45.902607" lon="6.133353">
        <ele>503.207119</ele>
        <time>2017-06-02T09:22:33.000Z</time>
      </trkpt>
      <trkpt lat="45.902560" lon="6.133186">
        <ele>503.400451</ele>
        <time>2017-06-02T09:22:36.000Z</time>
      </trkpt>
      <trkpt lat="45.902542" lon="6.133027">
        <ele>503.573338</ele>
        <time>2017-06-02T09:22:39.000Z</time>
      </trkpt>
      <trkpt lat="45.902500" lon="6.132884">
        <ele>503.739920</ele>
        <time>2017-06-02T09:22:42.000Z</time>
      </trkpt>
      <trkpt lat="45.902462" lon="6.132742">
        <ele>503.903198</ele>
        <time>2017-06-02T09:22:45.000Z</time>
      </trkpt>
      <trkpt lat="45.902430" lon="6.132620">
        <ele>503.967701</ele>
        <time>2017-06-02T09:22:48.000Z</time>
      </trkpt>
      <trkpt lat="45.902370" lon="6.132488">
        <ele>503.780216</ele>
        <time>2017-06-02T09:22:54.000Z</time>
      </trkpt>
      <trkpt lat="45.902332" lon="6.132327">
        <ele>503.578053</ele>
        <time>2017-06-02T09:22:58.000Z</time>
      </trkpt>
      <trkpt lat="45.902300" lon="6.132166">
        <ele>503.378946</ele>
        <time>2017-06-02T09:23:01.000Z</time>
      </trkpt>
      <trkpt lat="45.902252" lon="6.132009">
        <ele>503.175027</ele>
        <time>2017-06-02T09:23:04.000Z</time>
      </trkpt>
      <trkpt lat="45.902214" lon="6.131848">
        <ele>502.972863</ele>
        <time>2017-06-02T09:23:07.000Z</time>
      </trkpt>
      <trkpt lat="45.902170" lon="6.131662">
        <ele>502.739253</ele>
        <time>2017-06-02T09:23:10.000Z</time>
      </trkpt>
      <trkpt lat="45.902130" lon="6.131534">
        <ele>502.572400</ele>
        <time>2017-06-02T09:23:12.000Z</time>
      </trkpt>
      <trkpt lat="45.902092" lon="6.131407">
        <ele>502.408010</ele>
        <time>2017-06-02T09:23:14.000Z</time>
      </trkpt>
      <trkpt lat="45.902060" lon="6.131273">
        <ele>502.239543</ele>
        <time>2017-06-02T09:23:16.000Z</time>
      </trkpt>
      <trkpt lat="45.902030" lon="6.131134">
        <ele>502.066485</ele>
        <time>2017-06-02T09:23:18.000Z</time>
      </trkpt>
      <trkpt lat="45.901993" lon="6.130985">
        <ele>501.878360</ele>
        <time>2017-06-02T09:23:20.000Z</time>
      </trkpt>
      <trkpt lat="45.901960" lon="6.130848">
        <ele>501.705963</ele>
        <time>2017-06-02T09:23:22.000Z</time>
      </trkpt>
      <trkpt lat="45.901924" lon="6.130720">
        <ele>501.541791</ele>
        <time>2017-06-02T09:23:24.000Z</time>
      </trkpt>
      <trkpt lat="45.901882" lon="6.130575">
        <ele>501.355024</ele>
        <time>2017-06-02T09:23:26.000Z</time>
      </trkpt>
      <trkpt lat="45.901836" lon="6.130430">
        <ele>501.165526</ele>
        <time>2017-06-02T09:23:28.000Z</time>
      </trkpt>
      <trkpt lat="45.901802" lon="6.130268">
        <ele>500.964313</ele>
        <time>2017-06-02T09:23:30.000Z</time>
      </trkpt>
      <trkpt lat="45.901760" lon="6.130120">
        <ele>501.025672</ele>
        <time>2017-06-02T09:23:32.000Z</time>
      </trkpt>
      <trkpt lat="45.901722" lon="6.129953">
        <ele>501.145992</ele>
        <time>2017-06-02T09:23:34.000Z</time>
      </trkpt>
      <trkpt lat="45.901684" lon="6.129803">
        <ele>501.255306</ele>
        <time>2017-06-02T09:23:36.000Z</time>
      </trkpt>
      <trkpt lat="45.901638" lon="6.129638">
        <ele>501.377029</ele>
        <time>2017-06-02T09:23:38.000Z</time>
      </trkpt>
      <trkpt lat="45.901592" lon="6.129492">
        <ele>501.486779</ele>
        <time>2017-06-02T09:23:40.000Z</time>
      </trkpt>
      <trkpt lat="45.901554" lon="6.129355">
        <ele>501.587775</ele>
        <time>2017-06-02T09:23:42.000Z</time>
      </trkpt>
      <trkpt lat="45.901512" lon="6.129210">
        <ele>501.695330</ele>
        <time>2017-06-02T09:23:44.000Z</time>
      </trkpt>
      <trkpt lat="45.901478" lon="6.129076">
        <ele>501.793002</ele>
        <time>2017-06-02T09:23:46.000Z</time>
      </trkpt>
      <trkpt lat="45.901443" lon="6.128946">
        <ele>501.888457</ele>
        <time>2017-06-02T09:23:48.000Z</time>
      </trkpt>
      <trkpt lat="45.901400" lon="6.128815">
        <ele>501.987645</ele>
        <time>2017-06-02T09:23:50.000Z</time>
      </trkpt>
      <trkpt lat="45.901363" lon="6.128621">
        <ele>502.125396</ele>
        <time>2017-06-02T09:23:53.000Z</time>
      </trkpt>
      <trkpt lat="45.901337" lon="6.128498">
        <ele>502.213427</ele>
        <time>2017-06-02T09:23:55.000Z</time>
      </trkpt>
      <trkpt lat="45.901283" lon="6.128340">
        <ele>502.333971</ele>
        <time>2017-06-02T09:23:58.000Z</time>
      </trkpt>
      <trkpt lat="45.901240" lon="6.128212">
        <ele>502.431305</ele>
        <time>2017-06-02T09:24:01.000Z</time>
      </trkpt>
      <trkpt lat="45.901356" lon="6.128098">
        <ele>502.569599</ele>
        <time>2017-06-02T09:24:26.000Z</time>
      </trkpt>
      <trkpt lat="45.901440" lon="6.128049">
        <ele>502.658811</ele>
        <time>2017-06-02T09:24:31.000Z</time>
      </trkpt>
      <trkpt lat="45.901430" lon="6.127921">
        <ele>502.816185</ele>
        <time>2017-06-02T09:24:37.000Z</time>
      </trkpt>
      <trkpt lat="45.901386" lon="6.127780">
        <ele>503.091252</ele>
        <time>2017-06-02T09:25:04.000Z</time>
      </trkpt>
      <trkpt lat="45.901363" lon="6.127651">
        <ele>503.328296</ele>
        <time>2017-06-02T09:25:08.000Z</time>
      </trkpt>
      <trkpt lat="45.901340" lon="6.127525">
        <ele>503.560171</ele>
        <time>2017-06-02T09:25:13.000Z</time>
      </trkpt>
      <trkpt lat="45.901310" lon="6.127393">
        <ele>503.807351</ele>
        <time>2017-06-02T09:29:10.000Z</time>
      </trkpt>
      <trkpt lat="45.901200" lon="6.127345">
        <ele>504.101411</ele>
        <time>2017-06-02T09:31:31.000Z</time>
      </trkpt>
      <trkpt lat="45.901150" lon="6.127222">
        <ele>504.354976</ele>
        <time>2017-06-02T09:31:38.000Z</time>
      </trkpt>
      <trkpt lat="45.901120" lon="6.127098">
        <ele>504.588663</ele>
        <time>2017-06-02T09:31:44.000Z</time>
      </trkpt>
      <trkpt lat="45.901100" lon="6.126951">
        <ele>504.855286</ele>
        <time>2017-06-02T09:31:51.000Z</time>
      </trkpt>
      <trkpt lat="45.901120" lon="6.126821">
        <ele>505.092281</ele>
        <time>2017-06-02T09:32:20.000Z</time>
      </trkpt>
      <trkpt lat="45.901110" lon="6.126670">
        <ele>505.362285</ele>
        <time>2017-06-02T09:33:56.000Z</time>
      </trkpt>
      <trkpt lat="45.901073" lon="6.126540">
        <ele>505.612299</ele>
        <time>2017-06-02T09:34:01.000Z</time>
      </trkpt>
      <trkpt lat="45.901030" lon="6.126405">
        <ele>505.876583</ele>
        <time>2017-06-02T09:34:06.000Z</time>
      </trkpt>
      <trkpt lat="45.900986" lon="6.126238">
        <ele>506.194447</ele>
        <time>2017-06-02T09:34:39.000Z</time>
      </trkpt>
      <trkpt lat="45.900932" lon="6.126103">
        <ele>506.471625</ele>
        <time>2017-06-02T09:34:42.000Z</time>
      </trkpt>
      <trkpt lat="45.900887" lon="6.125986">
        <ele>506.709585</ele>
        <time>2017-06-02T09:34:45.000Z</time>
      </trkpt>
      <trkpt lat="45.900820" lon="6.125881">
        <ele>506.963172</ele>
        <time>2017-06-02T09:34:49.000Z</time>
      </trkpt>
      <trkpt lat="45.900764" lon="6.125774">
        <ele>507.201492</ele>
        <time>2017-06-02T09:34:54.000Z</time>
      </trkpt>
      <trkpt lat="45.900830" lon="6.125905">
        <ele>507.398883</ele>
        <time>2017-06-02T09:35:19.000Z</time>
      </trkpt>
      <trkpt lat="45.900875" lon="6.126039">
        <ele>507.534042</ele>
        <time>2017-06-02T09:35:23.000Z</time>
      </trkpt>
      <trkpt lat="45.900906" lon="6.126180">
        <ele>507.668367</ele>
        <time>2017-06-02T09:35:28.000Z</time>
      </trkpt>
      <trkpt lat="45.900950" lon="6.126330">
        <ele>507.816237</ele>
        <time>2017-06-02T09:35:33.000Z</time>
      </trkpt>
      <trkpt lat="45.900974" lon="6.126458">
        <ele>507.936659</ele>
        <time>2017-06-02T09:35:37.000Z</time>
      </trkpt>
      <trkpt lat="45.901054" lon="6.126525">
        <ele>508.057530</ele>
        <time>2017-06-02T09:36:04.000Z</time>
      </trkpt>
      <trkpt lat="45.901050" lon="6.126673">
        <ele>508.192074</ele>
        <time>2017-06-02T09:36:12.000Z</time>
      </trkpt>
      <trkpt lat="45.901096" lon="6.126786">
        <ele>508.310996</ele>
        <time>2017-06-02T09:36:17.000Z</time>
      </trkpt>
      <trkpt lat="45.901120" lon="6.126911">
        <ele>508.428789</ele>
        <time>2017-06-02T09:36:24.000Z</time>
      </trkpt>
      <trkpt lat="45.901047" lon="6.126795">
        <ele>508.570860</ele>
        <time>2017-06-02T09:36:38.000Z</time>
      </trkpt>
      <trkpt lat="45.901016" lon="6.126667">
        <ele>508.693975</ele>
        <time>2017-06-02T09:36:41.000Z</time>
      </trkpt>
      <trkpt lat="45.901012" lon="6.126533">
        <ele>508.815813</ele>
        <time>2017-06-02T09:36:45.000Z</time>
      </trkpt>
      <trkpt lat="45.900684" lon="6.125965">
        <ele>509.486296</ele>
        <time>2017-06-02T10:02:36.000Z</time>
      </trkpt>
      <trkpt lat="45.900696" lon="6.125824">
        <ele>509.615335</ele>
        <time>2017-06-02T10:05:05.000Z</time>
      </trkpt>
      <trkpt lat="45.900665" lon="6.125697">
        <ele>509.720294</ele>
        <time>2017-06-02T10:05:09.000Z</time>
      </trkpt>
      <trkpt lat="45.900635" lon="6.125563">
        <ele>509.822183</ele>
        <time>2017-06-02T10:05:15.000Z</time>
      </trkpt>
      <trkpt lat="45.900604" lon="6.125428">
        <ele>509.925082</ele>
        <time>2017-06-02T10:05:39.000Z</time>
      </trkpt>
      <trkpt lat="45.900574" lon="6.125276">
        <ele>510.039443</ele>
        <time>2017-06-02T10:05:44.000Z</time>
      </trkpt>
      <trkpt lat="45.900530" lon="6.125133">
        <ele>510.152617</ele>
        <time>2017-06-02T10:05:49.000Z</time>
      </trkpt>
      <trkpt lat="45.900497" lon="6.125013">
        <ele>510.246012</ele>
        <time>2017-06-02T10:05:54.000Z</time>
      </trkpt>
      <trkpt lat="45.900505" lon="6.124878">
        <ele>510.344083</ele>
        <time>2017-06-02T10:09:33.000Z</time>
      </trkpt>
      <trkpt lat="45.900467" lon="6.125001">
        <ele>510.441493</ele>
        <time>2017-06-02T10:09:46.000Z</time>
      </trkpt>
      <trkpt lat="45.900450" lon="6.124867">
        <ele>510.540085</ele>
        <time>2017-06-02T10:10:52.000Z</time>
      </trkpt>
      <trkpt lat="45.900420" lon="6.124707">
        <ele>510.660027</ele>
        <time>2017-06-02T10:10:57.000Z</time>
      </trkpt>
      <trkpt lat="45.900370" lon="6.124579">
        <ele>510.766276</ele>
        <time>2017-06-02T10:11:02.000Z</time>
      </trkpt>
      <trkpt lat="45.900356" lon="6.124442">
        <ele>510.866504</ele>
        <time>2017-06-02T10:11:09.000Z</time>
      </trkpt>
      <trkpt lat="45.900314" lon="6.124316">
        <ele>510.967629</ele>
        <time>2017-06-02T10:11:17.000Z</time>
      </trkpt>
      <trkpt lat="45.900272" lon="6.124191">
        <ele>511.068103</ele>
        <time>2017-06-02T10:11:39.000Z</time>
      </trkpt>
      <trkpt lat="45.900234" lon="6.124041">
        <ele>511.183648</ele>
        <time>2017-06-02T10:11:43.000Z</time>
      </trkpt>
      <trkpt lat="45.900215" lon="6.123887">
        <ele>511.296856</ele>
        <time>2017-06-02T10:11:46.000Z</time>
      </trkpt>
      <trkpt lat="45.900200" lon="6.123757">
        <ele>511.392239</ele>
        <time>2017-06-02T10:11:49.000Z</time>
      </trkpt>
      <trkpt lat="45.900158" lon="6.123601">
        <ele>511.513313</ele>
        <time>2017-06-02T10:11:52.000Z</time>
      </trkpt>
      <trkpt lat="45.900112" lon="6.123446">
        <ele>511.652322</ele>
        <time>2017-06-02T10:11:55.000Z</time>
      </trkpt>
      <trkpt lat="45.900060" lon="6.123322">
        <ele>511.773054</ele>
        <time>2017-06-02T10:11:59.000Z</time>
      </trkpt>
      <trkpt lat="45.900017" lon="6.123195">
        <ele>511.890834</ele>
        <time>2017-06-02T10:12:02.000Z</time>
      </trkpt>
      <trkpt lat="45.899982" lon="6.123059">
        <ele>512.011756</ele>
        <time>2017-06-02T10:12:05.000Z</time>
      </trkpt>
      <trkpt lat="45.899952" lon="6.122929">
        <ele>512.125973</ele>
        <time>2017-06-02T10:12:08.000Z</time>
      </trkpt>
      <trkpt lat="45.899920" lon="6.122803">
        <ele>512.237827</ele>
        <time>2017-06-02T10:12:11.000Z</time>
      </trkpt>
      <trkpt lat="45.899887" lon="6.122657">
        <ele>512.365843</ele>
        <time>2017-06-02T10:12:14.000Z</time>
      </trkpt>
      <trkpt lat="45.899845" lon="6.122507">
        <ele>512.500679</ele>
        <time>2017-06-02T10:12:17.000Z</time>
      </trkpt>
      <trkpt lat="45.899810" lon="6.122373">
        <ele>512.620039</ele>
        <time>2017-06-02T10:12:20.000Z</time>
      </trkpt>
      <trkpt lat="45.899780" lon="6.122243">
        <ele>512.734256</ele>
        <time>2017-06-02T10:12:23.000Z</time>
      </trkpt>
      <trkpt lat="45.899734" lon="6.122114">
        <ele>512.855134</ele>
        <time>2017-06-02T10:12:26.000Z</time>
      </trkpt>
      <trkpt lat="45.899690" lon="6.121999">
        <ele>512.964576</ele>
        <time>2017-06-02T10:12:29.000Z</time>
      </trkpt>
      <trkpt lat="45.899662" lon="6.121847">
        <ele>513.095701</ele>
        <time>2017-06-02T10:12:33.000Z</time>
      </trkpt>
      <trkpt lat="45.899662" lon="6.121717">
        <ele>513.204113</ele>
        <time>2017-06-02T10:12:36.000Z</time>
      </trkpt>
      <trkpt lat="45.899574" lon="6.121663">
        <ele>513.318780</ele>
        <time>2017-06-02T10:12:42.000Z</time>
      </trkpt>
      <trkpt lat="45.899500" lon="6.121759">
        <ele>513.438249</ele>
        <time>2017-06-02T10:12:46.000Z</time>
      </trkpt>
      <trkpt lat="45.899400" lon="6.121833">
        <ele>513.573039</ele>
        <time>2017-06-02T10:12:49.000Z</time>
      </trkpt>
      <trkpt lat="45.899307" lon="6.121876">
        <ele>513.650723</ele>
        <time>2017-06-02T10:12:51.000Z</time>
      </trkpt>
      <trkpt lat="45.899180" lon="6.121946">
        <ele>513.254090</ele>
        <time>2017-06-02T10:12:54.000Z</time>
      </trkpt>
      <trkpt lat="45.899094" lon="6.122024">
        <ele>512.957544</ele>
        <time>2017-06-02T10:12:56.000Z</time>
      </trkpt>
      <trkpt lat="45.899014" lon="6.122110">
        <ele>512.666214</ele>
        <time>2017-06-02T10:12:58.000Z</time>
      </trkpt>
      <trkpt lat="45.898914" lon="6.122154">
        <ele>512.361256</ele>
        <time>2017-06-02T10:13:00.000Z</time>
      </trkpt>
      <trkpt lat="45.898820" lon="6.122204">
        <ele>512.068981</ele>
        <time>2017-06-02T10:13:02.000Z</time>
      </trkpt>
      <trkpt lat="45.898727" lon="6.122217">
        <ele>511.796519</ele>
        <time>2017-06-02T10:13:04.000Z</time>
      </trkpt>
      <trkpt lat="45.898636" lon="6.122220">
        <ele>511.531099</ele>
        <time>2017-06-02T10:13:06.000Z</time>
      </trkpt>
      <trkpt lat="45.898537" lon="6.122236">
        <ele>511.240601</ele>
        <time>2017-06-02T10:13:09.000Z</time>
      </trkpt>
      <trkpt lat="45.898440" lon="6.122244">
        <ele>510.957290</ele>
        <time>2017-06-02T10:13:12.000Z</time>
      </trkpt>
      <trkpt lat="45.898323" lon="6.122281">
        <ele>510.607961</ele>
        <time>2017-06-02T10:13:16.000Z</time>
      </trkpt>
      <trkpt lat="45.898220" lon="6.122330">
        <ele>510.291587</ele>
        <time>2017-06-02T10:13:19.000Z</time>
      </trkpt>
      <trkpt lat="45.898090" lon="6.122366">
        <ele>509.905540</ele>
        <time>2017-06-02T10:13:22.000Z</time>
      </trkpt>
      <trkpt lat="45.897980" lon="6.122406">
        <ele>509.574675</ele>
        <time>2017-06-02T10:13:25.000Z</time>
      </trkpt>
      <trkpt lat="45.897877" lon="6.122457">
        <ele>509.257002</ele>
        <time>2017-06-02T10:13:28.000Z</time>
      </trkpt>
      <trkpt lat="45.897774" lon="6.122488">
        <ele>508.950143</ele>
        <time>2017-06-02T10:13:31.000Z</time>
      </trkpt>
      <trkpt lat="45.897675" lon="6.122509">
        <ele>508.658337</ele>
        <time>2017-06-02T10:13:34.000Z</time>
      </trkpt>
      <trkpt lat="45.897580" lon="6.122526">
        <ele>508.403980</ele>
        <time>2017-06-02T10:13:37.000Z</time>
      </trkpt>
      <trkpt lat="45.897470" lon="6.122542">
        <ele>508.227660</ele>
        <time>2017-06-02T10:13:41.000Z</time>
      </trkpt>
      <trkpt lat="45.897380" lon="6.122477">
        <ele>508.067021</ele>
        <time>2017-06-02T10:13:45.000Z</time>
      </trkpt>
      <trkpt lat="45.897354" lon="6.122317">
        <ele>507.884666</ele>
        <time>2017-06-02T10:13:49.000Z</time>
      </trkpt>
      <trkpt lat="45.897340" lon="6.122160">
        <ele>507.708993</ele>
        <time>2017-06-02T10:13:52.000Z</time>
      </trkpt>
      <trkpt lat="45.897324" lon="6.121999">
        <ele>507.528492</ele>
        <time>2017-06-02T10:13:55.000Z</time>
      </trkpt>
      <trkpt lat="45.897305" lon="6.121872">
        <ele>507.384319</ele>
        <time>2017-06-02T10:13:57.000Z</time>
      </trkpt>
      <trkpt lat="45.897280" lon="6.121707">
        <ele>507.196901</ele>
        <time>2017-06-02T10:14:00.000Z</time>
      </trkpt>
      <trkpt lat="45.897230" lon="6.121544">
        <ele>506.999199</ele>
        <time>2017-06-02T10:14:03.000Z</time>
      </trkpt>
      <trkpt lat="45.897175" lon="6.121378">
        <ele>506.795148</ele>
        <time>2017-06-02T10:14:06.000Z</time>
      </trkpt>
      <trkpt lat="45.897130" lon="6.121246">
        <ele>506.632012</ele>
        <time>2017-06-02T10:14:09.000Z</time>
      </trkpt>
      <trkpt lat="45.897080" lon="6.121139">
        <ele>506.488970</ele>
        <time>2017-06-02T10:14:12.000Z</time>
      </trkpt>
      <trkpt lat="45.897010" lon="6.121051">
        <ele>506.340642</ele>
        <time>2017-06-02T10:14:15.000Z</time>
      </trkpt>
      <trkpt lat="45.896940" lon="6.120946">
        <ele>506.179265</ele>
        <time>2017-06-02T10:14:18.000Z</time>
      </trkpt>
      <trkpt lat="45.896870" lon="6.120826">
        <ele>506.005483</ele>
        <time>2017-06-02T10:14:22.000Z</time>
      </trkpt>
      <trkpt lat="45.896862" lon="6.120691">
        <ele>505.855107</ele>
        <time>2017-06-02T10:14:26.000Z</time>
      </trkpt>
      <trkpt lat="45.896774" lon="6.120638">
        <ele>505.702939</ele>
        <time>2017-06-02T10:14:46.000Z</time>
      </trkpt>
      <trkpt lat="45.896683" lon="6.120575">
        <ele>505.526338</ele>
        <time>2017-06-02T10:14:50.000Z</time>
      </trkpt>
      <trkpt lat="45.896606" lon="6.120507">
        <ele>505.287705</ele>
        <time>2017-06-02T10:14:53.000Z</time>
      </trkpt>
      <trkpt lat="45.896523" lon="6.120450">
        <ele>505.044815</ele>
        <time>2017-06-02T10:14:56.000Z</time>
      </trkpt>
      <trkpt lat="45.896435" lon="6.120378">
        <ele>504.777440</ele>
        <time>2017-06-02T10:14:59.000Z</time>
      </trkpt>
      <trkpt lat="45.896324" lon="6.120294">
        <ele>504.446203</ele>
        <time>2017-06-02T10:15:02.000Z</time>
      </trkpt>
      <trkpt lat="45.896230" lon="6.120239">
        <ele>504.178225</ele>
        <time>2017-06-02T10:15:04.000Z</time>
      </trkpt>
      <trkpt lat="45.896145" lon="6.120164">
        <ele>503.914861</ele>
        <time>2017-06-02T10:15:06.000Z</time>
      </trkpt>
      <trkpt lat="45.896070" lon="6.120075">
        <ele>503.658036</ele>
        <time>2017-06-02T10:15:08.000Z</time>
      </trkpt>
      <trkpt lat="45.895996" lon="6.119992">
        <ele>503.410173</ele>
        <time>2017-06-02T10:15:10.000Z</time>
      </trkpt>
      <trkpt lat="45.895916" lon="6.119920">
        <ele>503.160933</ele>
        <time>2017-06-02T10:15:12.000Z</time>
      </trkpt>
      <trkpt lat="45.895836" lon="6.119848">
        <ele>502.911693</ele>
        <time>2017-06-02T10:15:14.000Z</time>
      </trkpt>
      <trkpt lat="45.895730" lon="6.119755">
        <ele>502.583770</ele>
        <time>2017-06-02T10:15:17.000Z</time>
      </trkpt>
      <trkpt lat="45.895650" lon="6.119680">
        <ele>502.331561</ele>
        <time>2017-06-02T10:15:19.000Z</time>
      </trkpt>
      <trkpt lat="45.895535" lon="6.119587">
        <ele>501.983136</ele>
        <time>2017-06-02T10:15:22.000Z</time>
      </trkpt>
      <trkpt lat="45.895450" lon="6.119492">
        <ele>501.698809</ele>
        <time>2017-06-02T10:15:25.000Z</time>
      </trkpt>
      <trkpt lat="45.895344" lon="6.119403">
        <ele>501.374655</ele>
        <time>2017-06-02T10:15:29.000Z</time>
      </trkpt>
      <trkpt lat="45.895240" lon="6.119290">
        <ele>501.030391</ele>
        <time>2017-06-02T10:15:32.000Z</time>
      </trkpt>
      <trkpt lat="45.895134" lon="6.119190">
        <ele>500.928497</ele>
        <time>2017-06-02T10:15:35.000Z</time>
      </trkpt>
      <trkpt lat="45.895046" lon="6.119149">
        <ele>501.154614</ele>
        <time>2017-06-02T10:15:37.000Z</time>
      </trkpt>
      <trkpt lat="45.894930" lon="6.119065">
        <ele>501.472116</ele>
        <time>2017-06-02T10:15:40.000Z</time>
      </trkpt>
      <trkpt lat="45.894836" lon="6.118974">
        <ele>501.749157</ele>
        <time>2017-06-02T10:15:43.000Z</time>
      </trkpt>
      <trkpt lat="45.894800" lon="6.118833">
        <ele>502.004646</ele>
        <time>2017-06-02T10:15:48.000Z</time>
      </trkpt>
      <trkpt lat="45.894690" lon="6.118856">
        <ele>502.276342</ele>
        <time>2017-06-02T10:16:01.000Z</time>
      </trkpt>
      <trkpt lat="45.894585" lon="6.118809">
        <ele>502.545151</ele>
        <time>2017-06-02T10:16:04.000Z</time>
      </trkpt>
      <trkpt lat="45.894497" lon="6.118761">
        <ele>502.775220</ele>
        <time>2017-06-02T10:16:06.000Z</time>
      </trkpt>
      <trkpt lat="45.894398" lon="6.118714">
        <ele>503.030065</ele>
        <time>2017-06-02T10:16:08.000Z</time>
      </trkpt>
      <trkpt lat="45.894310" lon="6.118630">
        <ele>503.288296</ele>
        <time>2017-06-02T10:16:10.000Z</time>
      </trkpt>
      <trkpt lat="45.894210" lon="6.118581">
        <ele>503.546541</ele>
        <time>2017-06-02T10:16:12.000Z</time>
      </trkpt>
      <trkpt lat="45.894123" lon="6.118545">
        <ele>503.767831</ele>
        <time>2017-06-02T10:16:14.000Z</time>
      </trkpt>
      <trkpt lat="45.894030" lon="6.118460">
        <ele>504.037237</ele>
        <time>2017-06-02T10:16:16.000Z</time>
      </trkpt>
      <trkpt lat="45.893944" lon="6.118345">
        <ele>504.324390</ele>
        <time>2017-06-02T10:16:18.000Z</time>
      </trkpt>
      <trkpt lat="45.893867" lon="6.118256">
        <ele>504.565935</ele>
        <time>2017-06-02T10:16:20.000Z</time>
      </trkpt>
      <trkpt lat="45.893784" lon="6.118181">
        <ele>504.805591</ele>
        <time>2017-06-02T10:16:22.000Z</time>
      </trkpt>
      <trkpt lat="45.893696" lon="6.118079">
        <ele>505.081947</ele>
        <time>2017-06-02T10:16:24.000Z</time>
      </trkpt>
      <trkpt lat="45.893610" lon="6.117974">
        <ele>505.058675</ele>
        <time>2017-06-02T10:16:26.000Z</time>
      </trkpt>
      <trkpt lat="45.893517" lon="6.117908">
        <ele>504.789133</ele>
        <time>2017-06-02T10:16:28.000Z</time>
      </trkpt>
      <trkpt lat="45.893414" lon="6.117818">
        <ele>504.475867</ele>
        <time>2017-06-02T10:16:30.000Z</time>
      </trkpt>
      <trkpt lat="45.893333" lon="6.117723">
        <ele>504.204157</ele>
        <time>2017-06-02T10:16:32.000Z</time>
      </trkpt>
      <trkpt lat="45.893257" lon="6.117621">
        <ele>503.933905</ele>
        <time>2017-06-02T10:16:34.000Z</time>
      </trkpt>
      <trkpt lat="45.893177" lon="6.117536">
        <ele>503.675350</ele>
        <time>2017-06-02T10:16:36.000Z</time>
      </trkpt>
      <trkpt lat="45.893097" lon="6.117462">
        <ele>503.428105</ele>
        <time>2017-06-02T10:16:38.000Z</time>
      </trkpt>
      <trkpt lat="45.893020" lon="6.117398">
        <ele>503.196944</ele>
        <time>2017-06-02T10:16:40.000Z</time>
      </trkpt>
      <trkpt lat="45.892906" lon="6.117289">
        <ele>502.841103</ele>
        <time>2017-06-02T10:16:43.000Z</time>
      </trkpt>
      <trkpt lat="45.892790" lon="6.117190">
        <ele>502.490496</ele>
        <time>2017-06-02T10:16:46.000Z</time>
      </trkpt>
      <trkpt lat="45.892677" lon="6.117086">
        <ele>502.141775</ele>
        <time>2017-06-02T10:16:49.000Z</time>
      </trkpt>
      <trkpt lat="45.892586" lon="6.117028">
        <ele>501.883080</ele>
        <time>2017-06-02T10:16:51.000Z</time>
      </trkpt>
      <trkpt lat="45.892500" lon="6.116958">
        <ele>501.626230</ele>
        <time>2017-06-02T10:16:53.000Z</time>
      </trkpt>
      <trkpt lat="45.892426" lon="6.116874">
        <ele>501.381159</ele>
        <time>2017-06-02T10:16:55.000Z</time>
      </trkpt>
      <trkpt lat="45.892345" lon="6.116796">
        <ele>501.127769</ele>
        <time>2017-06-02T10:16:57.000Z</time>
      </trkpt>
      <trkpt lat="45.892270" lon="6.116720">
        <ele>500.889277</ele>
        <time>2017-06-02T10:16:59.000Z</time>
      </trkpt>
      <trkpt lat="45.892185" lon="6.116643">
        <ele>500.628157</ele>
        <time>2017-06-02T10:17:01.000Z</time>
      </trkpt>
      <trkpt lat="45.892094" lon="6.116572">
        <ele>500.843763</ele>
        <time>2017-06-02T10:17:03.000Z</time>
      </trkpt>
      <trkpt lat="45.892006" lon="6.116498">
        <ele>501.293107</ele>
        <time>2017-06-02T10:17:05.000Z</time>
      </trkpt>
      <trkpt lat="45.891920" lon="6.116419">
        <ele>501.742939</ele>
        <time>2017-06-02T10:17:07.000Z</time>
      </trkpt>
      <trkpt lat="45.891830" lon="6.116341">
        <ele>502.206129</ele>
        <time>2017-06-02T10:17:09.000Z</time>
      </trkpt>
      <trkpt lat="45.891750" lon="6.116257">
        <ele>502.642791</ele>
        <time>2017-06-02T10:17:11.000Z</time>
      </trkpt>
      <trkpt lat="45.891666" lon="6.116188">
        <ele>503.069198</ele>
        <time>2017-06-02T10:17:13.000Z</time>
      </trkpt>
      <trkpt lat="45.891586" lon="6.116117">
        <ele>503.483586</ele>
        <time>2017-06-02T10:17:15.000Z</time>
      </trkpt>
      <trkpt lat="45.891502" lon="6.116048">
        <ele>503.909993</ele>
        <time>2017-06-02T10:17:17.000Z</time>
      </trkpt>
      <trkpt lat="45.891415" lon="6.115982">
        <ele>504.343554</ele>
        <time>2017-06-02T10:17:19.000Z</time>
      </trkpt>
      <trkpt lat="45.891342" lon="6.115905">
        <ele>504.742644</ele>
        <time>2017-06-02T10:17:21.000Z</time>
      </trkpt>
      <trkpt lat="45.891247" lon="6.115828">
        <ele>505.223322</ele>
        <time>2017-06-02T10:17:23.000Z</time>
      </trkpt>
      <trkpt lat="45.891163" lon="6.115742">
        <ele>505.677871</ele>
        <time>2017-06-02T10:17:25.000Z</time>
      </trkpt>
      <trkpt lat="45.891083" lon="6.115678">
        <ele>506.081389</ele>
        <time>2017-06-02T10:17:27.000Z</time>
      </trkpt>
      <trkpt lat="45.891006" lon="6.115596">
        <ele>506.503770</ele>
        <time>2017-06-02T10:17:29.000Z</time>
      </trkpt>
      <trkpt lat="45.890930" lon="6.115518">
        <ele>506.915368</ele>
        <time>2017-06-02T10:17:31.000Z</time>
      </trkpt>
      <trkpt lat="45.890827" lon="6.115416">
        <ele>507.466654</ele>
        <time>2017-06-02T10:17:34.000Z</time>
      </trkpt>
      <trkpt lat="45.890724" lon="6.115318">
        <ele>508.011071</ele>
        <time>2017-06-02T10:17:37.000Z</time>
      </trkpt>
      <trkpt lat="45.890648" lon="6.115238">
        <ele>508.426266</ele>
        <time>2017-06-02T10:17:39.000Z</time>
      </trkpt>
      <trkpt lat="45.890533" lon="6.115136">
        <ele>508.396166</ele>
        <time>2017-06-02T10:17:42.000Z</time>
      </trkpt>
      <trkpt lat="45.890410" lon="6.115047">
        <ele>508.320845</ele>
        <time>2017-06-02T10:17:45.000Z</time>
      </trkpt>
      <trkpt lat="45.890343" lon="6.114963">
        <ele>508.272210</ele>
        <time>2017-06-02T10:17:47.000Z</time>
      </trkpt>
      <trkpt lat="45.890266" lon="6.114894">
        <ele>508.222577</ele>
        <time>2017-06-02T10:17:49.000Z</time>
      </trkpt>
      <trkpt lat="45.890156" lon="6.114811">
        <ele>508.154623</ele>
        <time>2017-06-02T10:17:52.000Z</time>
      </trkpt>
      <trkpt lat="45.890083" lon="6.114722">
        <ele>508.102259</ele>
        <time>2017-06-02T10:17:55.000Z</time>
      </trkpt>
      <trkpt lat="45.890080" lon="6.114584">
        <ele>508.049700</ele>
        <time>2017-06-02T10:18:01.000Z</time>
      </trkpt>
      <trkpt lat="45.890110" lon="6.114444">
        <ele>507.993936</ele>
        <time>2017-06-02T10:18:07.000Z</time>
      </trkpt>
      <trkpt lat="45.890060" lon="6.114327">
        <ele>507.941672</ele>
        <time>2017-06-02T10:18:11.000Z</time>
      </trkpt>
      <trkpt lat="45.889973" lon="6.114266">
        <ele>507.888725</ele>
        <time>2017-06-02T10:18:14.000Z</time>
      </trkpt>
      <trkpt lat="45.889870" lon="6.114268">
        <ele>507.832387</ele>
        <time>2017-06-02T10:18:17.000Z</time>
      </trkpt>
      <trkpt lat="45.889740" lon="6.114290">
        <ele>507.760795</ele>
        <time>2017-06-02T10:18:20.000Z</time>
      </trkpt>
      <trkpt lat="45.889630" lon="6.114265">
        <ele>507.699886</ele>
        <time>2017-06-02T10:18:23.000Z</time>
      </trkpt>
      <trkpt lat="45.889500" lon="6.114124">
        <ele>507.610799</ele>
        <time>2017-06-02T10:18:27.000Z</time>
      </trkpt>
      <trkpt lat="45.889378" lon="6.114009">
        <ele>507.530995</ele>
        <time>2017-06-02T10:18:31.000Z</time>
      </trkpt>
      <trkpt lat="45.889290" lon="6.113912">
        <ele>507.521583</ele>
        <time>2017-06-02T10:18:34.000Z</time>
      </trkpt>
      <trkpt lat="45.889210" lon="6.113848">
        <ele>507.700844</ele>
        <time>2017-06-02T10:18:37.000Z</time>
      </trkpt>
      <trkpt lat="45.889090" lon="6.113711">
        <ele>508.000911</ele>
        <time>2017-06-02T10:18:41.000Z</time>
      </trkpt>
      <trkpt lat="45.888990" lon="6.113606">
        <ele>508.243393</ele>
        <time>2017-06-02T10:18:44.000Z</time>
      </trkpt>
      <trkpt lat="45.888855" lon="6.113480">
        <ele>508.558557</ele>
        <time>2017-06-02T10:18:48.000Z</time>
      </trkpt>
      <trkpt lat="45.888760" lon="6.113380">
        <ele>508.789117</ele>
        <time>2017-06-02T10:18:51.000Z</time>
      </trkpt>
      <trkpt lat="45.888630" lon="6.113250">
        <ele>509.099201</ele>
        <time>2017-06-02T10:18:55.000Z</time>
      </trkpt>
      <trkpt lat="45.888542" lon="6.113156">
        <ele>509.313880</ele>
        <time>2017-06-02T10:18:58.000Z</time>
      </trkpt>
      <trkpt lat="45.888454" lon="6.113062">
        <ele>509.528559</ele>
        <time>2017-06-02T10:19:01.000Z</time>
      </trkpt>
      <trkpt lat="45.888370" lon="6.112967">
        <ele>509.737846</ele>
        <time>2017-06-02T10:19:04.000Z</time>
      </trkpt>
      <trkpt lat="45.888283" lon="6.112882">
        <ele>509.943819</ele>
        <time>2017-06-02T10:19:07.000Z</time>
      </trkpt>
      <trkpt lat="45.888206" lon="6.112801">
        <ele>510.130652</ele>
        <time>2017-06-02T10:19:10.000Z</time>
      </trkpt>
      <trkpt lat="45.888134" lon="6.112724">
        <ele>510.306373</ele>
        <time>2017-06-02T10:19:13.000Z</time>
      </trkpt>
      <trkpt lat="45.888054" lon="6.112651">
        <ele>510.491910</ele>
        <time>2017-06-02T10:19:16.000Z</time>
      </trkpt>
      <trkpt lat="45.887974" lon="6.112590">
        <ele>510.669219</ele>
        <time>2017-06-02T10:19:19.000Z</time>
      </trkpt>
      <trkpt lat="45.887890" lon="6.112483">
        <ele>510.888997</ele>
        <time>2017-06-02T10:19:23.000Z</time>
      </trkpt>
      <trkpt lat="45.887806" lon="6.112377">
        <ele>511.375192</ele>
        <time>2017-06-02T10:19:27.000Z</time>
      </trkpt>
      <trkpt lat="45.887726" lon="6.112281">
        <ele>512.098079</ele>
        <time>2017-06-02T10:19:31.000Z</time>
      </trkpt>
      <trkpt lat="45.887585" lon="6.112116">
        <ele>513.359267</ele>
        <time>2017-06-02T10:20:49.000Z</time>
      </trkpt>
      <trkpt lat="45.887510" lon="6.112038">
        <ele>514.001380</ele>
        <time>2017-06-02T10:20:52.000Z</time>
      </trkpt>
      <trkpt lat="45.887450" lon="6.111926">
        <ele>514.683620</ele>
        <time>2017-06-02T10:20:55.000Z</time>
      </trkpt>
      <trkpt lat="45.887417" lon="6.111802">
        <ele>515.324463</ele>
        <time>2017-06-02T10:20:58.000Z</time>
      </trkpt>
      <trkpt lat="45.887380" lon="6.111662">
        <ele>516.047358</ele>
        <time>2017-06-02T10:21:02.000Z</time>
      </trkpt>
      <trkpt lat="45.887330" lon="6.111549">
        <ele>516.693727</ele>
        <time>2017-06-02T10:21:05.000Z</time>
      </trkpt>
      <trkpt lat="45.887276" lon="6.111440">
        <ele>517.339565</ele>
        <time>2017-06-02T10:21:08.000Z</time>
      </trkpt>
      <trkpt lat="45.887215" lon="6.111340">
        <ele>517.981431</ele>
        <time>2017-06-02T10:21:11.000Z</time>
      </trkpt>
      <trkpt lat="45.887173" lon="6.111221">
        <ele>518.625507</ele>
        <time>2017-06-02T10:21:14.000Z</time>
      </trkpt>
      <trkpt lat="45.887120" lon="6.111119">
        <ele>519.239953</ele>
        <time>2017-06-02T10:21:17.000Z</time>
      </trkpt>
      <trkpt lat="45.887054" lon="6.111023">
        <ele>519.891309</ele>
        <time>2017-06-02T10:21:20.000Z</time>
      </trkpt>
      <trkpt lat="45.886980" lon="6.110899">
        <ele>520.679774</ele>
        <time>2017-06-02T10:21:24.000Z</time>
      </trkpt>
      <trkpt lat="45.886910" lon="6.110780">
        <ele>521.431880</ele>
        <time>2017-06-02T10:21:28.000Z</time>
      </trkpt>
      <trkpt lat="45.886833" lon="6.110680">
        <ele>522.151734</ele>
        <time>2017-06-02T10:21:32.000Z</time>
      </trkpt>
      <trkpt lat="45.886765" lon="6.110593">
        <ele>522.783220</ele>
        <time>2017-06-02T10:21:35.000Z</time>
      </trkpt>
      <trkpt lat="45.886677" lon="6.110486">
        <ele>523.553958</ele>
        <time>2017-06-02T10:21:39.000Z</time>
      </trkpt>
      <trkpt lat="45.886600" lon="6.110415">
        <ele>524.016617</ele>
        <time>2017-06-02T10:21:42.000Z</time>
      </trkpt>
      <trkpt lat="45.886505" lon="6.110319">
        <ele>524.603934</ele>
        <time>2017-06-02T10:21:46.000Z</time>
      </trkpt>
      <trkpt lat="45.886414" lon="6.110216">
        <ele>525.189745</ele>
        <time>2017-06-02T10:21:50.000Z</time>
      </trkpt>
      <trkpt lat="45.886307" lon="6.110134">
        <ele>525.802973</ele>
        <time>2017-06-02T10:21:54.000Z</time>
      </trkpt>
      <trkpt lat="45.886204" lon="6.110051">
        <ele>526.400144</ele>
        <time>2017-06-02T10:21:58.000Z</time>
      </trkpt>
      <trkpt lat="45.886097" lon="6.109983">
        <ele>526.991778</ele>
        <time>2017-06-02T10:22:02.000Z</time>
      </trkpt>
      <trkpt lat="45.885998" lon="6.109904">
        <ele>527.564427</ele>
        <time>2017-06-02T10:22:06.000Z</time>
      </trkpt>
      <trkpt lat="45.885910" lon="6.109821">
        <ele>528.096741</ele>
        <time>2017-06-02T10:22:10.000Z</time>
      </trkpt>
      <trkpt lat="45.885810" lon="6.109734">
        <ele>528.687900</ele>
        <time>2017-06-02T10:22:14.000Z</time>
      </trkpt>
      <trkpt lat="45.885715" lon="6.109645">
        <ele>529.261398</ele>
        <time>2017-06-02T10:22:18.000Z</time>
      </trkpt>
      <trkpt lat="45.885624" lon="6.109552">
        <ele>529.826106</ele>
        <time>2017-06-02T10:22:22.000Z</time>
      </trkpt>
      <trkpt lat="45.885540" lon="6.109471">
        <ele>530.337677</ele>
        <time>2017-06-02T10:22:26.000Z</time>
      </trkpt>
      <trkpt lat="45.885450" lon="6.109395">
        <ele>530.865572</ele>
        <time>2017-06-02T10:22:30.000Z</time>
      </trkpt>
      <trkpt lat="45.885360" lon="6.109317">
        <ele>531.397070</ele>
        <time>2017-06-02T10:22:34.000Z</time>
      </trkpt>
      <trkpt lat="45.885270" lon="6.109244">
        <ele>531.919693</ele>
        <time>2017-06-02T10:22:38.000Z</time>
      </trkpt>
      <trkpt lat="45.885190" lon="6.109162">
        <ele>532.416636</ele>
        <time>2017-06-02T10:22:42.000Z</time>
      </trkpt>
      <trkpt lat="45.885105" lon="6.109092">
        <ele>533.048467</ele>
        <time>2017-06-02T10:22:47.000Z</time>
      </trkpt>
      <trkpt lat="45.885017" lon="6.109040">
        <ele>533.722330</ele>
        <time>2017-06-02T10:22:51.000Z</time>
      </trkpt>
      <trkpt lat="45.884930" lon="6.108971">
        <ele>534.426109</ele>
        <time>2017-06-02T10:22:55.000Z</time>
      </trkpt>
      <trkpt lat="45.884834" lon="6.108908">
        <ele>535.173543</ele>
        <time>2017-06-02T10:23:00.000Z</time>
      </trkpt>
      <trkpt lat="45.884740" lon="6.108847">
        <ele>535.904005</ele>
        <time>2017-06-02T10:23:04.000Z</time>
      </trkpt>
      <trkpt lat="45.884650" lon="6.108793">
        <ele>536.594729</ele>
        <time>2017-06-02T10:23:08.000Z</time>
      </trkpt>
      <trkpt lat="45.884556" lon="6.108744">
        <ele>537.302892</ele>
        <time>2017-06-02T10:23:12.000Z</time>
      </trkpt>
      <trkpt lat="45.884464" lon="6.108689">
        <ele>538.008586</ele>
        <time>2017-06-02T10:23:16.000Z</time>
      </trkpt>
      <trkpt lat="45.884357" lon="6.108662">
        <ele>538.777944</ele>
        <time>2017-06-02T10:23:21.000Z</time>
      </trkpt>
      <trkpt lat="45.884247" lon="6.108627">
        <ele>539.575826</ele>
        <time>2017-06-02T10:23:26.000Z</time>
      </trkpt>
      <trkpt lat="45.884148" lon="6.108614">
        <ele>540.279850</ele>
        <time>2017-06-02T10:23:30.000Z</time>
      </trkpt>
      <trkpt lat="45.884050" lon="6.108577">
        <ele>540.997440</ele>
        <time>2017-06-02T10:23:34.000Z</time>
      </trkpt>
      <trkpt lat="45.883953" lon="6.108558">
        <ele>541.690734</ele>
        <time>2017-06-02T10:23:38.000Z</time>
      </trkpt>
      <trkpt lat="45.883865" lon="6.108529">
        <ele>542.330124</ele>
        <time>2017-06-02T10:23:42.000Z</time>
      </trkpt>
      <trkpt lat="45.883766" lon="6.108514">
        <ele>543.035114</ele>
        <time>2017-06-02T10:23:46.000Z</time>
      </trkpt>
      <trkpt lat="45.883675" lon="6.108483">
        <ele>543.697434</ele>
        <time>2017-06-02T10:23:50.000Z</time>
      </trkpt>
      <trkpt lat="45.883583" lon="6.108461">
        <ele>544.357928</ele>
        <time>2017-06-02T10:23:54.000Z</time>
      </trkpt>
      <trkpt lat="45.883472" lon="6.108446">
        <ele>545.147483</ele>
        <time>2017-06-02T10:23:59.000Z</time>
      </trkpt>
      <trkpt lat="45.883360" lon="6.108413">
        <ele>545.903379</ele>
        <time>2017-06-02T10:24:04.000Z</time>
      </trkpt>
      <trkpt lat="45.883263" lon="6.108404">
        <ele>546.534615</ele>
        <time>2017-06-02T10:24:08.000Z</time>
      </trkpt>
      <trkpt lat="45.883175" lon="6.108372">
        <ele>547.124116</ele>
        <time>2017-06-02T10:24:12.000Z</time>
      </trkpt>
      <trkpt lat="45.883080" lon="6.108350">
        <ele>547.749016</ele>
        <time>2017-06-02T10:24:16.000Z</time>
      </trkpt>
      <trkpt lat="45.882988" lon="6.108339">
        <ele>548.348534</ele>
        <time>2017-06-02T10:24:20.000Z</time>
      </trkpt>
      <trkpt lat="45.882880" lon="6.108286">
        <ele>549.089688</ele>
        <time>2017-06-02T10:24:25.000Z</time>
      </trkpt>
      <trkpt lat="45.882790" lon="6.108241">
        <ele>549.708544</ele>
        <time>2017-06-02T10:24:29.000Z</time>
      </trkpt>
      <trkpt lat="45.882713" lon="6.108138">
        <ele>550.391811</ele>
        <time>2017-06-02T10:24:34.000Z</time>
      </trkpt>
      <trkpt lat="45.882675" lon="6.107993">
        <ele>551.092225</ele>
        <time>2017-06-02T10:24:39.000Z</time>
      </trkpt>
      <trkpt lat="45.882607" lon="6.107903">
        <ele>551.692679</ele>
        <time>2017-06-02T10:24:45.000Z</time>
      </trkpt>
      <trkpt lat="45.882500" lon="6.107924">
        <ele>552.393997</ele>
        <time>2017-06-02T10:24:50.000Z</time>
      </trkpt>
      <trkpt lat="45.882420" lon="6.107997">
        <ele>553.009476</ele>
        <time>2017-06-02T10:24:54.000Z</time>
      </trkpt>
      <trkpt lat="45.882355" lon="6.108116">
        <ele>553.693279</ele>
        <time>2017-06-02T10:24:58.000Z</time>
      </trkpt>
      <trkpt lat="45.882267" lon="6.108169">
        <ele>554.312951</ele>
        <time>2017-06-02T10:25:01.000Z</time>
      </trkpt>
      <trkpt lat="45.882175" lon="6.108178">
        <ele>554.911787</ele>
        <time>2017-06-02T10:25:04.000Z</time>
      </trkpt>
      <trkpt lat="45.882070" lon="6.108160">
        <ele>555.598501</ele>
        <time>2017-06-02T10:25:08.000Z</time>
      </trkpt>
      <trkpt lat="45.881950" lon="6.108133">
        <ele>556.387288</ele>
        <time>2017-06-02T10:25:12.000Z</time>
      </trkpt>
      <trkpt lat="45.881832" lon="6.108110">
        <ele>556.973202</ele>
        <time>2017-06-02T10:25:16.000Z</time>
      </trkpt>
      <trkpt lat="45.881730" lon="6.108074">
        <ele>556.907514</ele>
        <time>2017-06-02T10:25:20.000Z</time>
      </trkpt>
      <trkpt lat="45.881620" lon="6.108028">
        <ele>556.835863</ele>
        <time>2017-06-02T10:25:24.000Z</time>
      </trkpt>
      <trkpt lat="45.881530" lon="6.107976">
        <ele>556.775195</ele>
        <time>2017-06-02T10:25:27.000Z</time>
      </trkpt>
      <trkpt lat="45.881443" lon="6.107922">
        <ele>556.715922</ele>
        <time>2017-06-02T10:25:30.000Z</time>
      </trkpt>
      <trkpt lat="45.881370" lon="6.107841">
        <ele>556.658234</ele>
        <time>2017-06-02T10:25:33.000Z</time>
      </trkpt>
      <trkpt lat="45.881260" lon="6.107755">
        <ele>556.579910</ele>
        <time>2017-06-02T10:25:37.000Z</time>
      </trkpt>
      <trkpt lat="45.881165" lon="6.107679">
        <ele>556.511904</ele>
        <time>2017-06-02T10:25:40.000Z</time>
      </trkpt>
      <trkpt lat="45.881077" lon="6.107606">
        <ele>556.448351</ele>
        <time>2017-06-02T10:25:43.000Z</time>
      </trkpt>
      <trkpt lat="45.880993" lon="6.107540">
        <ele>556.388472</ele>
        <time>2017-06-02T10:25:46.000Z</time>
      </trkpt>
      <trkpt lat="45.880898" lon="6.107450">
        <ele>556.317300</ele>
        <time>2017-06-02T10:25:49.000Z</time>
      </trkpt>
      <trkpt lat="45.880802" lon="6.107354">
        <ele>556.244146</ele>
        <time>2017-06-02T10:25:52.000Z</time>
      </trkpt>
      <trkpt lat="45.880710" lon="6.107263">
        <ele>556.174287</ele>
        <time>2017-06-02T10:25:55.000Z</time>
      </trkpt>
      <trkpt lat="45.880627" lon="6.107177">
        <ele>556.110284</ele>
        <time>2017-06-02T10:25:58.000Z</time>
      </trkpt>
      <trkpt lat="45.880540" lon="6.107101">
        <ele>556.046602</ele>
        <time>2017-06-02T10:26:01.000Z</time>
      </trkpt>
      <trkpt lat="45.880440" lon="6.107005">
        <ele>555.971381</ele>
        <time>2017-06-02T10:26:04.000Z</time>
      </trkpt>
      <trkpt lat="45.880337" lon="6.106899">
        <ele>555.892138</ele>
        <time>2017-06-02T10:26:07.000Z</time>
      </trkpt>
      <trkpt lat="45.880230" lon="6.106786">
        <ele>555.794607</ele>
        <time>2017-06-02T10:26:10.000Z</time>
      </trkpt>
      <trkpt lat="45.880130" lon="6.106681">
        <ele>555.697012</ele>
        <time>2017-06-02T10:26:13.000Z</time>
      </trkpt>
      <trkpt lat="45.880050" lon="6.106607">
        <ele>555.622041</ele>
        <time>2017-06-02T10:26:16.000Z</time>
      </trkpt>
      <trkpt lat="45.879955" lon="6.106569">
        <ele>555.544342</ele>
        <time>2017-06-02T10:26:37.000Z</time>
      </trkpt>
      <trkpt lat="45.879870" lon="6.106496">
        <ele>555.466313</ele>
        <time>2017-06-02T10:26:42.000Z</time>
      </trkpt>
      <trkpt lat="45.879790" lon="6.106430">
        <ele>555.393625</ele>
        <time>2017-06-02T10:26:45.000Z</time>
      </trkpt>
      <trkpt lat="45.879704" lon="6.106343">
        <ele>555.310748</ele>
        <time>2017-06-02T10:26:48.000Z</time>
      </trkpt>
      <trkpt lat="45.879604" lon="6.106248">
        <ele>555.216285</ele>
        <time>2017-06-02T10:26:51.000Z</time>
      </trkpt>
      <trkpt lat="45.879517" lon="6.106149">
        <ele>555.128834</ele>
        <time>2017-06-02T10:26:54.000Z</time>
      </trkpt>
      <trkpt lat="45.879406" lon="6.106053">
        <ele>555.026748</ele>
        <time>2017-06-02T10:26:57.000Z</time>
      </trkpt>
      <trkpt lat="45.879295" lon="6.105954">
        <ele>554.923804</ele>
        <time>2017-06-02T10:27:00.000Z</time>
      </trkpt>
      <trkpt lat="45.879196" lon="6.105850">
        <ele>554.827167</ele>
        <time>2017-06-02T10:27:03.000Z</time>
      </trkpt>
      <trkpt lat="45.879112" lon="6.105746">
        <ele>554.739791</ele>
        <time>2017-06-02T10:27:06.000Z</time>
      </trkpt>
      <trkpt lat="45.879000" lon="6.105658">
        <ele>554.639207</ele>
        <time>2017-06-02T10:27:09.000Z</time>
      </trkpt>
      <trkpt lat="45.878890" lon="6.105578">
        <ele>554.542062</ele>
        <time>2017-06-02T10:27:12.000Z</time>
      </trkpt>
      <trkpt lat="45.878780" lon="6.105514">
        <ele>554.448553</ele>
        <time>2017-06-02T10:27:15.000Z</time>
      </trkpt>
      <trkpt lat="45.878674" lon="6.105458">
        <ele>554.775226</ele>
        <time>2017-06-02T10:27:18.000Z</time>
      </trkpt>
      <trkpt lat="45.878555" lon="6.105415">
        <ele>555.134890</ele>
        <time>2017-06-02T10:27:21.000Z</time>
      </trkpt>
      <trkpt lat="45.878440" lon="6.105373">
        <ele>555.482688</ele>
        <time>2017-06-02T10:27:24.000Z</time>
      </trkpt>
      <trkpt lat="45.878323" lon="6.105322">
        <ele>555.841066</ele>
        <time>2017-06-02T10:27:27.000Z</time>
      </trkpt>
      <trkpt lat="45.878204" lon="6.105284">
        <ele>556.198378</ele>
        <time>2017-06-02T10:27:30.000Z</time>
      </trkpt>
      <trkpt lat="45.878098" lon="6.105245">
        <ele>556.519101</ele>
        <time>2017-06-02T10:27:33.000Z</time>
      </trkpt>
      <trkpt lat="45.877980" lon="6.105198">
        <ele>556.878019</ele>
        <time>2017-06-02T10:27:36.000Z</time>
      </trkpt>
      <trkpt lat="45.877860" lon="6.105144">
        <ele>557.246603</ele>
        <time>2017-06-02T10:27:39.000Z</time>
      </trkpt>
      <trkpt lat="45.877743" lon="6.105094">
        <ele>557.604394</ele>
        <time>2017-06-02T10:27:42.000Z</time>
      </trkpt>
      <trkpt lat="45.877620" lon="6.105050">
        <ele>557.975928</ele>
        <time>2017-06-02T10:27:45.000Z</time>
      </trkpt>
      <trkpt lat="45.877530" lon="6.105032">
        <ele>558.242269</ele>
        <time>2017-06-02T10:27:47.000Z</time>
      </trkpt>
      <trkpt lat="45.877400" lon="6.104977">
        <ele>558.639493</ele>
        <time>2017-06-02T10:27:50.000Z</time>
      </trkpt>
      <trkpt lat="45.877277" lon="6.104921">
        <ele>559.017691</ele>
        <time>2017-06-02T10:27:53.000Z</time>
      </trkpt>
      <trkpt lat="45.877150" lon="6.104875">
        <ele>559.401590</ele>
        <time>2017-06-02T10:27:56.000Z</time>
      </trkpt>
      <trkpt lat="45.877037" lon="6.104834">
        <ele>559.735121</ele>
        <time>2017-06-02T10:27:59.000Z</time>
      </trkpt>
      <trkpt lat="45.876920" lon="6.104779">
        <ele>559.972519</ele>
        <time>2017-06-02T10:28:02.000Z</time>
      </trkpt>
      <trkpt lat="45.876800" lon="6.104720">
        <ele>560.217108</ele>
        <time>2017-06-02T10:28:05.000Z</time>
      </trkpt>
      <trkpt lat="45.876690" lon="6.104654">
        <ele>560.446995</ele>
        <time>2017-06-02T10:28:08.000Z</time>
      </trkpt>
      <trkpt lat="45.876583" lon="6.104555">
        <ele>560.692436</ele>
        <time>2017-06-02T10:28:11.000Z</time>
      </trkpt>
      <trkpt lat="45.876472" lon="6.104477">
        <ele>560.930731</ele>
        <time>2017-06-02T10:28:14.000Z</time>
      </trkpt>
      <trkpt lat="45.876373" lon="6.104363">
        <ele>561.175419</ele>
        <time>2017-06-02T10:28:17.000Z</time>
      </trkpt>
      <trkpt lat="45.876270" lon="6.104269">
        <ele>561.410746</ele>
        <time>2017-06-02T10:28:20.000Z</time>
      </trkpt>
      <trkpt lat="45.876160" lon="6.104176">
        <ele>561.656889</ele>
        <time>2017-06-02T10:28:23.000Z</time>
      </trkpt>
      <trkpt lat="45.876070" lon="6.104074">
        <ele>561.877965</ele>
        <time>2017-06-02T10:28:26.000Z</time>
      </trkpt>
      <trkpt lat="45.875970" lon="6.103993">
        <ele>562.099355</ele>
        <time>2017-06-02T10:28:29.000Z</time>
      </trkpt>
      <trkpt lat="45.875862" lon="6.103900">
        <ele>562.342182</ele>
        <time>2017-06-02T10:28:32.000Z</time>
      </trkpt>
      <trkpt lat="45.875755" lon="6.103816">
        <ele>562.577329</ele>
        <time>2017-06-02T10:28:35.000Z</time>
      </trkpt>
      <trkpt lat="45.875652" lon="6.103726">
        <ele>562.809821</ele>
        <time>2017-06-02T10:28:38.000Z</time>
      </trkpt>
      <trkpt lat="45.875560" lon="6.103621">
        <ele>563.036422</ele>
        <time>2017-06-02T10:28:41.000Z</time>
      </trkpt>
      <trkpt lat="45.875465" lon="6.103526">
        <ele>563.278899</ele>
        <time>2017-06-02T10:28:44.000Z</time>
      </trkpt>
      <trkpt lat="45.875380" lon="6.103427">
        <ele>563.546693</ele>
        <time>2017-06-02T10:28:47.000Z</time>
      </trkpt>
      <trkpt lat="45.875300" lon="6.103297">
        <ele>563.842294</ele>
        <time>2017-06-02T10:28:50.000Z</time>
      </trkpt>
      <trkpt lat="45.875206" lon="6.103199">
        <ele>564.126529</ele>
        <time>2017-06-02T10:28:53.000Z</time>
      </trkpt>
      <trkpt lat="45.875145" lon="6.103077">
        <ele>564.382430</ele>
        <time>2017-06-02T10:28:56.000Z</time>
      </trkpt>
      <trkpt lat="45.875072" lon="6.102949">
        <ele>564.664332</ele>
        <time>2017-06-02T10:28:59.000Z</time>
      </trkpt>
      <trkpt lat="45.875015" lon="6.102823">
        <ele>564.920338</ele>
        <time>2017-06-02T10:29:02.000Z</time>
      </trkpt>
      <trkpt lat="45.874954" lon="6.102717">
        <ele>565.154639</ele>
        <time>2017-06-02T10:29:05.000Z</time>
      </trkpt>
      <trkpt lat="45.874878" lon="6.102593">
        <ele>565.436099</ele>
        <time>2017-06-02T10:29:09.000Z</time>
      </trkpt>
      <trkpt lat="45.874813" lon="6.102499">
        <ele>565.661817</ele>
        <time>2017-06-02T10:29:12.000Z</time>
      </trkpt>
      <trkpt lat="45.874740" lon="6.102406">
        <ele>565.900600</ele>
        <time>2017-06-02T10:29:15.000Z</time>
      </trkpt>
      <trkpt lat="45.874650" lon="6.102305">
        <ele>566.180091</ele>
        <time>2017-06-02T10:29:19.000Z</time>
      </trkpt>
      <trkpt lat="45.874550" lon="6.102211">
        <ele>566.472548</ele>
        <time>2017-06-02T10:29:23.000Z</time>
      </trkpt>
      <trkpt lat="45.874477" lon="6.102136">
        <ele>566.692182</ele>
        <time>2017-06-02T10:29:26.000Z</time>
      </trkpt>
      <trkpt lat="45.874386" lon="6.102048">
        <ele>566.960637</ele>
        <time>2017-06-02T10:29:30.000Z</time>
      </trkpt>
      <trkpt lat="45.874317" lon="6.101920">
        <ele>567.236442</ele>
        <time>2017-06-02T10:29:34.000Z</time>
      </trkpt>
      <trkpt lat="45.874218" lon="6.101832">
        <ele>567.521346</ele>
        <time>2017-06-02T10:29:38.000Z</time>
      </trkpt>
      <trkpt lat="45.874140" lon="6.101764">
        <ele>567.796290</ele>
        <time>2017-06-02T10:29:41.000Z</time>
      </trkpt>
      <trkpt lat="45.874065" lon="6.101677">
        <ele>568.110777</ele>
        <time>2017-06-02T10:29:44.000Z</time>
      </trkpt>
      <trkpt lat="45.873962" lon="6.101586">
        <ele>568.505254</ele>
        <time>2017-06-02T10:29:48.000Z</time>
      </trkpt>
      <trkpt lat="45.873890" lon="6.101506">
        <ele>568.802203</ele>
        <time>2017-06-02T10:29:51.000Z</time>
      </trkpt>
      <trkpt lat="45.873817" lon="6.101427">
        <ele>569.100368</ele>
        <time>2017-06-02T10:29:54.000Z</time>
      </trkpt>
      <trkpt lat="45.873740" lon="6.101350">
        <ele>569.406436</ele>
        <time>2017-06-02T10:29:57.000Z</time>
      </trkpt>
      <trkpt lat="45.873665" lon="6.101281">
        <ele>569.696983</ele>
        <time>2017-06-02T10:30:00.000Z</time>
      </trkpt>
      <trkpt lat="45.873585" lon="6.101215">
        <ele>569.997941</ele>
        <time>2017-06-02T10:30:03.000Z</time>
      </trkpt>
      <trkpt lat="45.873493" lon="6.101126">
        <ele>570.359783</ele>
        <time>2017-06-02T10:30:07.000Z</time>
      </trkpt>
      <trkpt lat="45.873394" lon="6.101036">
        <ele>570.741988</ele>
        <time>2017-06-02T10:30:11.000Z</time>
      </trkpt>
      <trkpt lat="45.873318" lon="6.100955">
        <ele>571.050711</ele>
        <time>2017-06-02T10:30:14.000Z</time>
      </trkpt>
      <trkpt lat="45.873238" lon="6.100886">
        <ele>571.355120</ele>
        <time>2017-06-02T10:30:17.000Z</time>
      </trkpt>
      <trkpt lat="45.873158" lon="6.100820">
        <ele>571.656078</ele>
        <time>2017-06-02T10:30:20.000Z</time>
      </trkpt>
      <trkpt lat="45.873085" lon="6.100743">
        <ele>571.951533</ele>
        <time>2017-06-02T10:30:23.000Z</time>
      </trkpt>
      <trkpt lat="45.873010" lon="6.100656">
        <ele>572.266022</ele>
        <time>2017-06-02T10:30:26.000Z</time>
      </trkpt>
      <trkpt lat="45.872930" lon="6.100575">
        <ele>572.585320</ele>
        <time>2017-06-02T10:30:29.000Z</time>
      </trkpt>
      <trkpt lat="45.872850" lon="6.100491">
        <ele>572.908591</ele>
        <time>2017-06-02T10:30:32.000Z</time>
      </trkpt>
      <trkpt lat="45.872760" lon="6.100410">
        <ele>573.255061</ele>
        <time>2017-06-02T10:30:35.000Z</time>
      </trkpt>
      <trkpt lat="45.872673" lon="6.100325">
        <ele>573.702458</ele>
        <time>2017-06-02T10:30:38.000Z</time>
      </trkpt>
      <trkpt lat="45.872590" lon="6.100239">
        <ele>574.282236</ele>
        <time>2017-06-02T10:30:41.000Z</time>
      </trkpt>
      <trkpt lat="45.872517" lon="6.100146">
        <ele>574.835023</ele>
        <time>2017-06-02T10:30:44.000Z</time>
      </trkpt>
      <trkpt lat="45.872420" lon="6.100047">
        <ele>575.509137</ele>
        <time>2017-06-02T10:30:48.000Z</time>
      </trkpt>
      <trkpt lat="45.872340" lon="6.099953">
        <ele>576.094674</ele>
        <time>2017-06-02T10:30:52.000Z</time>
      </trkpt>
      <trkpt lat="45.872250" lon="6.099875">
        <ele>576.690153</ele>
        <time>2017-06-02T10:30:56.000Z</time>
      </trkpt>
      <trkpt lat="45.872166" lon="6.099799">
        <ele>577.252559</ele>
        <time>2017-06-02T10:31:00.000Z</time>
      </trkpt>
      <trkpt lat="45.872078" lon="6.099718">
        <ele>577.844668</ele>
        <time>2017-06-02T10:31:04.000Z</time>
      </trkpt>
      <trkpt lat="45.871998" lon="6.099615">
        <ele>578.453304</ele>
        <time>2017-06-02T10:31:08.000Z</time>
      </trkpt>
      <trkpt lat="45.871902" lon="6.099531">
        <ele>579.090120</ele>
        <time>2017-06-02T10:31:12.000Z</time>
      </trkpt>
      <trkpt lat="45.871807" lon="6.099453">
        <ele>579.710025</ele>
        <time>2017-06-02T10:31:16.000Z</time>
      </trkpt>
      <trkpt lat="45.871723" lon="6.099368">
        <ele>580.292129</ele>
        <time>2017-06-02T10:31:20.000Z</time>
      </trkpt>
      <trkpt lat="45.871635" lon="6.099282">
        <ele>580.895109</ele>
        <time>2017-06-02T10:31:24.000Z</time>
      </trkpt>
      <trkpt lat="45.871550" lon="6.099196">
        <ele>581.484116</ele>
        <time>2017-06-02T10:31:28.000Z</time>
      </trkpt>
      <trkpt lat="45.871468" lon="6.099114">
        <ele>582.050153</ele>
        <time>2017-06-02T10:31:32.000Z</time>
      </trkpt>
      <trkpt lat="45.871380" lon="6.099027">
        <ele>582.655361</ele>
        <time>2017-06-02T10:31:36.000Z</time>
      </trkpt>
      <trkpt lat="45.871304" lon="6.098943">
        <ele>583.198629</ele>
        <time>2017-06-02T10:31:40.000Z</time>
      </trkpt>
      <trkpt lat="45.871223" lon="6.098877">
        <ele>583.705140</ele>
        <time>2017-06-02T10:31:44.000Z</time>
      </trkpt>
      <trkpt lat="45.871147" lon="6.098795">
        <ele>584.101963</ele>
        <time>2017-06-02T10:31:48.000Z</time>
      </trkpt>
      <trkpt lat="45.871063" lon="6.098700">
        <ele>584.548298</ele>
        <time>2017-06-02T10:31:53.000Z</time>
      </trkpt>
      <trkpt lat="45.870964" lon="6.098620">
        <ele>585.022508</ele>
        <time>2017-06-02T10:31:58.000Z</time>
      </trkpt>
      <trkpt lat="45.870890" lon="6.098533">
        <ele>585.421732</ele>
        <time>2017-06-02T10:32:02.000Z</time>
      </trkpt>
      <trkpt lat="45.870815" lon="6.098441">
        <ele>585.833482</ele>
        <time>2017-06-02T10:32:06.000Z</time>
      </trkpt>
      <trkpt lat="45.870730" lon="6.098367">
        <ele>586.248423</ele>
        <time>2017-06-02T10:32:10.000Z</time>
      </trkpt>
      <trkpt lat="45.870625" lon="6.098255">
        <ele>586.794424</ele>
        <time>2017-06-02T10:32:15.000Z</time>
      </trkpt>
      <trkpt lat="45.870544" lon="6.098166">
        <ele>587.220173</ele>
        <time>2017-06-02T10:32:19.000Z</time>
      </trkpt>
      <trkpt lat="45.870472" lon="6.098086">
        <ele>587.600193</ele>
        <time>2017-06-02T10:32:31.000Z</time>
      </trkpt>
      <trkpt lat="45.870390" lon="6.098003">
        <ele>588.018982</ele>
        <time>2017-06-02T10:32:40.000Z</time>
      </trkpt>
      <trkpt lat="45.870327" lon="6.097915">
        <ele>588.385856</ele>
        <time>2017-06-02T10:33:02.000Z</time>
      </trkpt>
      <trkpt lat="45.870224" lon="6.097883">
        <ele>588.825784</ele>
        <time>2017-06-02T10:33:38.000Z</time>
      </trkpt>
      <trkpt lat="45.870136" lon="6.097802">
        <ele>589.262121</ele>
        <time>2017-06-02T10:33:42.000Z</time>
      </trkpt>
      <trkpt lat="45.870045" lon="6.097730">
        <ele>589.695842</ele>
        <time>2017-06-02T10:33:46.000Z</time>
      </trkpt>
      <trkpt lat="45.869960" lon="6.097643">
        <ele>590.131573</ele>
        <time>2017-06-02T10:33:50.000Z</time>
      </trkpt>
      <trkpt lat="45.869884" lon="6.097554">
        <ele>590.540943</ele>
        <time>2017-06-02T10:33:54.000Z</time>
      </trkpt>
      <trkpt lat="45.869793" lon="6.097469">
        <ele>590.994108</ele>
        <time>2017-06-02T10:33:58.000Z</time>
      </trkpt>
      <trkpt lat="45.869717" lon="6.097388">
        <ele>591.540716</ele>
        <time>2017-06-02T10:34:02.000Z</time>
      </trkpt>
      <trkpt lat="45.869637" lon="6.097304">
        <ele>592.221802</ele>
        <time>2017-06-02T10:34:06.000Z</time>
      </trkpt>
      <trkpt lat="45.869553" lon="6.097222">
        <ele>592.919842</ele>
        <time>2017-06-02T10:34:11.000Z</time>
      </trkpt>
      <trkpt lat="45.869476" lon="6.097140">
        <ele>593.578650</ele>
        <time>2017-06-02T10:34:16.000Z</time>
      </trkpt>
      <trkpt lat="45.869400" lon="6.097065">
        <ele>594.212397</ele>
        <time>2017-06-02T10:34:21.000Z</time>
      </trkpt>
      <trkpt lat="45.869320" lon="6.096984">
        <ele>594.885111</ele>
        <time>2017-06-02T10:34:26.000Z</time>
      </trkpt>
      <trkpt lat="45.869230" lon="6.096917">
        <ele>595.581811</ele>
        <time>2017-06-02T10:34:32.000Z</time>
      </trkpt>
      <trkpt lat="45.869150" lon="6.096828">
        <ele>596.277289</ele>
        <time>2017-06-02T10:34:38.000Z</time>
      </trkpt>
      <trkpt lat="45.869076" lon="6.096745">
        <ele>596.922589</ele>
        <time>2017-06-02T10:34:45.000Z</time>
      </trkpt>
      <trkpt lat="45.868996" lon="6.096658">
        <ele>597.612248</ele>
        <time>2017-06-02T10:34:51.000Z</time>
      </trkpt>
      <trkpt lat="45.868910" lon="6.096596">
        <ele>598.273587</ele>
        <time>2017-06-02T10:34:57.000Z</time>
      </trkpt>
      <trkpt lat="45.868830" lon="6.096511">
        <ele>598.957511</ele>
        <time>2017-06-02T10:35:04.000Z</time>
      </trkpt>
      <trkpt lat="45.868744" lon="6.096460">
        <ele>599.596968</ele>
        <time>2017-06-02T10:35:10.000Z</time>
      </trkpt>
      <trkpt lat="45.868664" lon="6.096374">
        <ele>600.283750</ele>
        <time>2017-06-02T10:35:16.000Z</time>
      </trkpt>
      <trkpt lat="45.868584" lon="6.096294">
        <ele>600.953720</ele>
        <time>2017-06-02T10:35:22.000Z</time>
      </trkpt>
      <trkpt lat="45.868507" lon="6.096196">
        <ele>601.660819</ele>
        <time>2017-06-02T10:35:28.000Z</time>
      </trkpt>
      <trkpt lat="45.868423" lon="6.096111">
        <ele>602.367034</ele>
        <time>2017-06-02T10:35:33.000Z</time>
      </trkpt>
      <trkpt lat="45.868347" lon="6.096036">
        <ele>603.000785</ele>
        <time>2017-06-02T10:35:38.000Z</time>
      </trkpt>
      <trkpt lat="45.868275" lon="6.095961">
        <ele>603.652146</ele>
        <time>2017-06-02T10:35:43.000Z</time>
      </trkpt>
      <trkpt lat="45.868187" lon="6.095887">
        <ele>604.646016</ele>
        <time>2017-06-02T10:35:48.000Z</time>
      </trkpt>
      <trkpt lat="45.868100" lon="6.095810">
        <ele>605.642018</ele>
        <time>2017-06-02T10:35:53.000Z</time>
      </trkpt>
      <trkpt lat="45.868008" lon="6.095724">
        <ele>606.711876</ele>
        <time>2017-06-02T10:35:58.000Z</time>
      </trkpt>
      <trkpt lat="45.867928" lon="6.095633">
        <ele>607.706513</ele>
        <time>2017-06-02T10:36:03.000Z</time>
      </trkpt>
      <trkpt lat="45.867850" lon="6.095550">
        <ele>608.652651</ele>
        <time>2017-06-02T10:36:08.000Z</time>
      </trkpt>
      <trkpt lat="45.867767" lon="6.095462">
        <ele>609.658147</ele>
        <time>2017-06-02T10:36:13.000Z</time>
      </trkpt>
      <trkpt lat="45.867687" lon="6.095379">
        <ele>610.620018</ele>
        <time>2017-06-02T10:36:18.000Z</time>
      </trkpt>
      <trkpt lat="45.867610" lon="6.095299">
        <ele>611.546267</ele>
        <time>2017-06-02T10:36:23.000Z</time>
      </trkpt>
      <trkpt lat="45.867516" lon="6.095277">
        <ele>612.474491</ele>
        <time>2017-06-02T10:36:28.000Z</time>
      </trkpt>
      <trkpt lat="45.867455" lon="6.095176">
        <ele>613.381830</ele>
        <time>2017-06-02T10:36:33.000Z</time>
      </trkpt>
      <trkpt lat="45.867355" lon="6.095092">
        <ele>614.510921</ele>
        <time>2017-06-02T10:36:38.000Z</time>
      </trkpt>
      <trkpt lat="45.867280" lon="6.094991">
        <ele>615.512981</ele>
        <time>2017-06-02T10:36:43.000Z</time>
      </trkpt>
      <trkpt lat="45.867165" lon="6.094840">
        <ele>617.031644</ele>
        <time>2017-06-02T10:37:40.000Z</time>
      </trkpt>
      <trkpt lat="45.867085" lon="6.094765">
        <ele>617.962766</ele>
        <time>2017-06-02T10:37:45.000Z</time>
      </trkpt>
      <trkpt lat="45.867012" lon="6.094653">
        <ele>619.003882</ele>
        <time>2017-06-02T10:37:50.000Z</time>
      </trkpt>
      <trkpt lat="45.866943" lon="6.094565">
        <ele>619.903270</ele>
        <time>2017-06-02T10:37:54.000Z</time>
      </trkpt>
      <trkpt lat="45.866880" lon="6.094447">
        <ele>620.912378</ele>
        <time>2017-06-02T10:37:59.000Z</time>
      </trkpt>
      <trkpt lat="45.866806" lon="6.094323">
        <ele>621.782194</ele>
        <time>2017-06-02T10:38:04.000Z</time>
      </trkpt>
      <trkpt lat="45.866750" lon="6.094212">
        <ele>622.484804</ele>
        <time>2017-06-02T10:38:08.000Z</time>
      </trkpt>
      <trkpt lat="45.866695" lon="6.094103">
        <ele>623.174793</ele>
        <time>2017-06-02T10:38:12.000Z</time>
      </trkpt>
      <trkpt lat="45.866646" lon="6.093996">
        <ele>623.831240</ele>
        <time>2017-06-02T10:38:16.000Z</time>
      </trkpt>
      <trkpt lat="45.866585" lon="6.093866">
        <ele>624.634778</ele>
        <time>2017-06-02T10:38:21.000Z</time>
      </trkpt>
      <trkpt lat="45.866528" lon="6.093753">
        <ele>625.350010</ele>
        <time>2017-06-02T10:38:26.000Z</time>
      </trkpt>
      <trkpt lat="45.866470" lon="6.093622">
        <ele>626.145741</ele>
        <time>2017-06-02T10:38:32.000Z</time>
      </trkpt>
      <trkpt lat="45.866417" lon="6.093510">
        <ele>626.839862</ele>
        <time>2017-06-02T10:38:37.000Z</time>
      </trkpt>
      <trkpt lat="45.866356" lon="6.093387">
        <ele>627.613906</ele>
        <time>2017-06-02T10:38:42.000Z</time>
      </trkpt>
      <trkpt lat="45.866302" lon="6.093270">
        <ele>628.333411</ele>
        <time>2017-06-02T10:38:47.000Z</time>
      </trkpt>
      <trkpt lat="45.866250" lon="6.093164">
        <ele>628.998053</ele>
        <time>2017-06-02T10:38:51.000Z</time>
      </trkpt>
      <trkpt lat="45.866196" lon="6.093053">
        <ele>629.692132</ele>
        <time>2017-06-02T10:38:55.000Z</time>
      </trkpt>
      <trkpt lat="45.866130" lon="6.092924">
        <ele>630.512671</ele>
        <time>2017-06-02T10:39:00.000Z</time>
      </trkpt>
      <trkpt lat="45.866077" lon="6.092813">
        <ele>631.202561</ele>
        <time>2017-06-02T10:39:04.000Z</time>
      </trkpt>
      <trkpt lat="45.866024" lon="6.092705">
        <ele>631.879825</ele>
        <time>2017-06-02T10:39:08.000Z</time>
      </trkpt>
      <trkpt lat="45.865974" lon="6.092595">
        <ele>632.553174</ele>
        <time>2017-06-02T10:39:12.000Z</time>
      </trkpt>
      <trkpt lat="45.865917" lon="6.092486">
        <ele>633.251910</ele>
        <time>2017-06-02T10:39:16.000Z</time>
      </trkpt>
      <trkpt lat="45.865860" lon="6.092377">
        <ele>633.950647</ele>
        <time>2017-06-02T10:39:20.000Z</time>
      </trkpt>
      <trkpt lat="45.865803" lon="6.092259">
        <ele>634.447658</ele>
        <time>2017-06-02T10:39:24.000Z</time>
      </trkpt>
      <trkpt lat="45.865740" lon="6.092145">
        <ele>634.748157</ele>
        <time>2017-06-02T10:39:28.000Z</time>
      </trkpt>
      <trkpt lat="45.865677" lon="6.092022">
        <ele>635.063424</ele>
        <time>2017-06-02T10:39:32.000Z</time>
      </trkpt>
      <trkpt lat="45.865623" lon="6.091903">
        <ele>635.356696</ele>
        <time>2017-06-02T10:39:36.000Z</time>
      </trkpt>
      <trkpt lat="45.865574" lon="6.091790">
        <ele>635.631552</ele>
        <time>2017-06-02T10:39:40.000Z</time>
      </trkpt>
      <trkpt lat="45.865530" lon="6.091661">
        <ele>635.928142</ele>
        <time>2017-06-02T10:39:44.000Z</time>
      </trkpt>
      <trkpt lat="45.865475" lon="6.091538">
        <ele>636.229959</ele>
        <time>2017-06-02T10:39:48.000Z</time>
      </trkpt>
      <trkpt lat="45.865417" lon="6.091409">
        <ele>636.547009</ele>
        <time>2017-06-02T10:39:52.000Z</time>
      </trkpt>
      <trkpt lat="45.865368" lon="6.091288">
        <ele>636.836020</ele>
        <time>2017-06-02T10:39:56.000Z</time>
      </trkpt>
      <trkpt lat="45.865307" lon="6.091163">
        <ele>637.151184</ele>
        <time>2017-06-02T10:40:00.000Z</time>
      </trkpt>
      <trkpt lat="45.865242" lon="6.091037">
        <ele>637.474958</ele>
        <time>2017-06-02T10:40:04.000Z</time>
      </trkpt>
      <trkpt lat="45.865180" lon="6.090899">
        <ele>637.814053</ele>
        <time>2017-06-02T10:40:08.000Z</time>
      </trkpt>
      <trkpt lat="45.865120" lon="6.090791">
        <ele>638.099321</ele>
        <time>2017-06-02T10:40:11.000Z</time>
      </trkpt>
      <trkpt lat="45.865063" lon="6.090666">
        <ele>638.407832</ele>
        <time>2017-06-02T10:40:14.000Z</time>
      </trkpt>
      <trkpt lat="45.865005" lon="6.090552">
        <ele>638.699349</ele>
        <time>2017-06-02T10:40:17.000Z</time>
      </trkpt>
      <trkpt lat="45.864950" lon="6.090435">
        <ele>638.990821</ele>
        <time>2017-06-02T10:40:20.000Z</time>
      </trkpt>
      <trkpt lat="45.864883" lon="6.090312">
        <ele>639.313259</ele>
        <time>2017-06-02T10:40:23.000Z</time>
      </trkpt>
      <trkpt lat="45.864822" lon="6.090183">
        <ele>639.630948</ele>
        <time>2017-06-02T10:40:26.000Z</time>
      </trkpt>
      <trkpt lat="45.864770" lon="6.090058">
        <ele>639.849460</ele>
        <time>2017-06-02T10:40:29.000Z</time>
      </trkpt>
      <trkpt lat="45.864716" lon="6.089925">
        <ele>640.080503</ele>
        <time>2017-06-02T10:40:32.000Z</time>
      </trkpt>
      <trkpt lat="45.864655" lon="6.089798">
        <ele>640.312033</ele>
        <time>2017-06-02T10:40:35.000Z</time>
      </trkpt>
      <trkpt lat="45.864600" lon="6.089652">
        <ele>640.561142</ele>
        <time>2017-06-02T10:40:38.000Z</time>
      </trkpt>
      <trkpt lat="45.864548" lon="6.089528">
        <ele>640.778368</ele>
        <time>2017-06-02T10:40:41.000Z</time>
      </trkpt>
      <trkpt lat="45.864490" lon="6.089401">
        <ele>641.006289</ele>
        <time>2017-06-02T10:40:44.000Z</time>
      </trkpt>
      <trkpt lat="45.864430" lon="6.089280">
        <ele>641.229209</ele>
        <time>2017-06-02T10:40:47.000Z</time>
      </trkpt>
      <trkpt lat="45.864370" lon="6.089162">
        <ele>641.448477</ele>
        <time>2017-06-02T10:40:50.000Z</time>
      </trkpt>
      <trkpt lat="45.864315" lon="6.089054">
        <ele>641.649272</ele>
        <time>2017-06-02T10:40:53.000Z</time>
      </trkpt>
      <trkpt lat="45.864258" lon="6.088938">
        <ele>641.862331</ele>
        <time>2017-06-02T10:40:56.000Z</time>
      </trkpt>
      <trkpt lat="45.864200" lon="6.088818">
        <ele>642.081545</ele>
        <time>2017-06-02T10:40:59.000Z</time>
      </trkpt>
      <trkpt lat="45.864143" lon="6.088693">
        <ele>642.305776</ele>
        <time>2017-06-02T10:41:02.000Z</time>
      </trkpt>
      <trkpt lat="45.864086" lon="6.088564">
        <ele>642.535053</ele>
        <time>2017-06-02T10:41:05.000Z</time>
      </trkpt>
      <trkpt lat="45.864020" lon="6.088445">
        <ele>642.763359</ele>
        <time>2017-06-02T10:41:08.000Z</time>
      </trkpt>
      <trkpt lat="45.863968" lon="6.088323">
        <ele>642.978021</ele>
        <time>2017-06-02T10:41:11.000Z</time>
      </trkpt>
      <trkpt lat="45.863914" lon="6.088197">
        <ele>643.200054</ele>
        <time>2017-06-02T10:41:14.000Z</time>
      </trkpt>
      <trkpt lat="45.863846" lon="6.088073">
        <ele>643.436919</ele>
        <time>2017-06-02T10:41:17.000Z</time>
      </trkpt>
      <trkpt lat="45.863777" lon="6.087939">
        <ele>643.865199</ele>
        <time>2017-06-02T10:41:20.000Z</time>
      </trkpt>
      <trkpt lat="45.863728" lon="6.087796">
        <ele>644.327239</ele>
        <time>2017-06-02T10:41:23.000Z</time>
      </trkpt>
      <trkpt lat="45.863697" lon="6.087632">
        <ele>644.819893</ele>
        <time>2017-06-02T10:41:26.000Z</time>
      </trkpt>
      <trkpt lat="45.863686" lon="6.087480">
        <ele>645.262927</ele>
        <time>2017-06-02T10:41:29.000Z</time>
      </trkpt>
      <trkpt lat="45.863710" lon="6.087331">
        <ele>645.706296</ele>
        <time>2017-06-02T10:41:32.000Z</time>
      </trkpt>
      <trkpt lat="45.863710" lon="6.087174">
        <ele>646.161451</ele>
        <time>2017-06-02T10:41:35.000Z</time>
      </trkpt>
      <trkpt lat="45.863625" lon="6.087071">
        <ele>646.624472</ele>
        <time>2017-06-02T10:41:38.000Z</time>
      </trkpt>
      <trkpt lat="45.863518" lon="6.087043">
        <ele>647.077265</ele>
        <time>2017-06-02T10:41:41.000Z</time>
      </trkpt>
      <trkpt lat="45.863422" lon="6.087063">
        <ele>647.481111</ele>
        <time>2017-06-02T10:41:44.000Z</time>
      </trkpt>
      <trkpt lat="45.863350" lon="6.086971">
        <ele>647.882342</ele>
        <time>2017-06-02T10:41:48.000Z</time>
      </trkpt>
      <trkpt lat="45.863266" lon="6.086878">
        <ele>648.323915</ele>
        <time>2017-06-02T10:41:56.000Z</time>
      </trkpt>
      <trkpt lat="45.863150" lon="6.086743">
        <ele>648.945521</ele>
        <time>2017-06-02T10:44:37.000Z</time>
      </trkpt>
      <trkpt lat="45.863106" lon="6.086625">
        <ele>649.333572</ele>
        <time>2017-06-02T10:44:41.000Z</time>
      </trkpt>
      <trkpt lat="45.863050" lon="6.086479">
        <ele>649.816802</ele>
        <time>2017-06-02T10:44:45.000Z</time>
      </trkpt>
      <trkpt lat="45.863003" lon="6.086366">
        <ele>650.198388</ele>
        <time>2017-06-02T10:44:49.000Z</time>
      </trkpt>
      <trkpt lat="45.862938" lon="6.086251">
        <ele>650.627785</ele>
        <time>2017-06-02T10:44:53.000Z</time>
      </trkpt>
      <trkpt lat="45.862885" lon="6.086120">
        <ele>651.120088</ele>
        <time>2017-06-02T10:44:57.000Z</time>
      </trkpt>
      <trkpt lat="45.862823" lon="6.085996">
        <ele>651.844991</ele>
        <time>2017-06-02T10:45:01.000Z</time>
      </trkpt>
      <trkpt lat="45.862760" lon="6.085894">
        <ele>652.492430</ele>
        <time>2017-06-02T10:45:05.000Z</time>
      </trkpt>
      <trkpt lat="45.862717" lon="6.085773">
        <ele>653.137521</ele>
        <time>2017-06-02T10:45:09.000Z</time>
      </trkpt>
      <trkpt lat="45.862650" lon="6.085646">
        <ele>653.894133</ele>
        <time>2017-06-02T10:45:14.000Z</time>
      </trkpt>
      <trkpt lat="45.862583" lon="6.085524">
        <ele>654.631958</ele>
        <time>2017-06-02T10:45:19.000Z</time>
      </trkpt>
      <trkpt lat="45.862507" lon="6.085416">
        <ele>655.361082</ele>
        <time>2017-06-02T10:45:24.000Z</time>
      </trkpt>
      <trkpt lat="45.862410" lon="6.085497">
        <ele>656.126251</ele>
        <time>2017-06-02T10:48:15.000Z</time>
      </trkpt>
      <trkpt lat="45.862347" lon="6.085599">
        <ele>656.773694</ele>
        <time>2017-06-02T10:48:19.000Z</time>
      </trkpt>
      <trkpt lat="45.862280" lon="6.085704">
        <ele>657.449982</ele>
        <time>2017-06-02T10:48:23.000Z</time>
      </trkpt>
      <trkpt lat="45.862210" lon="6.085825">
        <ele>658.196992</ele>
        <time>2017-06-02T10:48:27.000Z</time>
      </trkpt>
      <trkpt lat="45.862144" lon="6.085959">
        <ele>658.976404</ele>
        <time>2017-06-02T10:48:31.000Z</time>
      </trkpt>
      <trkpt lat="45.862080" lon="6.086082">
        <ele>659.705542</ele>
        <time>2017-06-02T10:48:35.000Z</time>
      </trkpt>
      <trkpt lat="45.862026" lon="6.086190">
        <ele>660.336916</ele>
        <time>2017-06-02T10:48:38.000Z</time>
      </trkpt>
      <trkpt lat="45.861954" lon="6.086325">
        <ele>661.144415</ele>
        <time>2017-06-02T10:48:42.000Z</time>
      </trkpt>
      <trkpt lat="45.861910" lon="6.086474">
        <ele>661.912975</ele>
        <time>2017-06-02T10:48:46.000Z</time>
      </trkpt>
      <trkpt lat="45.861885" lon="6.086624">
        <ele>662.645412</ele>
        <time>2017-06-02T10:48:50.000Z</time>
      </trkpt>
      <trkpt lat="45.861870" lon="6.086780">
        <ele>663.195466</ele>
        <time>2017-06-02T10:48:54.000Z</time>
      </trkpt>
      <trkpt lat="45.861835" lon="6.086920">
        <ele>662.932740</ele>
        <time>2017-06-02T10:48:58.000Z</time>
      </trkpt>
      <trkpt lat="45.861790" lon="6.087066">
        <ele>662.650739</ele>
        <time>2017-06-02T10:49:03.000Z</time>
      </trkpt>
      <trkpt lat="45.861740" lon="6.087187">
        <ele>662.402230</ele>
        <time>2017-06-02T10:49:07.000Z</time>
      </trkpt>
      <trkpt lat="45.861690" lon="6.087307">
        <ele>662.155239</ele>
        <time>2017-06-02T10:49:11.000Z</time>
      </trkpt>
      <trkpt lat="45.861640" lon="6.087425">
        <ele>661.911272</ele>
        <time>2017-06-02T10:49:15.000Z</time>
      </trkpt>
      <trkpt lat="45.861600" lon="6.087550">
        <ele>661.668297</ele>
        <time>2017-06-02T10:49:19.000Z</time>
      </trkpt>
      <trkpt lat="45.861614" lon="6.087716">
        <ele>661.372956</ele>
        <time>2017-06-02T10:49:23.000Z</time>
      </trkpt>
      <trkpt lat="45.861645" lon="6.087888">
        <ele>661.059151</ele>
        <time>2017-06-02T10:49:26.000Z</time>
      </trkpt>
      <trkpt lat="45.861670" lon="6.088024">
        <ele>660.810713</ele>
        <time>2017-06-02T10:49:28.000Z</time>
      </trkpt>
      <trkpt lat="45.861694" lon="6.088169">
        <ele>660.547472</ele>
        <time>2017-06-02T10:49:30.000Z</time>
      </trkpt>
      <trkpt lat="45.861690" lon="6.088330">
        <ele>660.262924</ele>
        <time>2017-06-02T10:49:32.000Z</time>
      </trkpt>
      <trkpt lat="45.861680" lon="6.088489">
        <ele>659.980947</ele>
        <time>2017-06-02T10:49:34.000Z</time>
      </trkpt>
      <trkpt lat="45.861664" lon="6.088649">
        <ele>659.695448</ele>
        <time>2017-06-02T10:49:36.000Z</time>
      </trkpt>
      <trkpt lat="45.861650" lon="6.088792">
        <ele>659.440390</ele>
        <time>2017-06-02T10:49:38.000Z</time>
      </trkpt>
      <trkpt lat="45.861600" lon="6.088918">
        <ele>659.184246</ele>
        <time>2017-06-02T10:49:41.000Z</time>
      </trkpt>
      <trkpt lat="45.861520" lon="6.089050">
        <ele>658.875172</ele>
        <time>2017-06-02T10:49:47.000Z</time>
      </trkpt>
      <trkpt lat="45.861410" lon="6.089094">
        <ele>658.640055</ele>
        <time>2017-06-02T10:49:50.000Z</time>
      </trkpt>
      <trkpt lat="45.861310" lon="6.089070">
        <ele>658.520767</ele>
        <time>2017-06-02T10:49:53.000Z</time>
      </trkpt>
      <trkpt lat="45.861210" lon="6.089062">
        <ele>658.402928</ele>
        <time>2017-06-02T10:49:56.000Z</time>
      </trkpt>
      <trkpt lat="45.861115" lon="6.089064">
        <ele>658.291142</ele>
        <time>2017-06-02T10:49:59.000Z</time>
      </trkpt>
      <trkpt lat="45.861015" lon="6.089081">
        <ele>658.172664</ele>
        <time>2017-06-02T10:50:02.000Z</time>
      </trkpt>
      <trkpt lat="45.860916" lon="6.089094">
        <ele>658.055698</ele>
        <time>2017-06-02T10:50:05.000Z</time>
      </trkpt>
      <trkpt lat="45.860825" lon="6.089107">
        <ele>657.948103</ele>
        <time>2017-06-02T10:50:08.000Z</time>
      </trkpt>
      <trkpt lat="45.860725" lon="6.089099">
        <ele>657.830264</ele>
        <time>2017-06-02T10:50:12.000Z</time>
      </trkpt>
      <trkpt lat="45.860638" lon="6.089127">
        <ele>657.725363</ele>
        <time>2017-06-02T10:50:15.000Z</time>
      </trkpt>
      <trkpt lat="45.860530" lon="6.089152">
        <ele>657.596654</ele>
        <time>2017-06-02T10:50:18.000Z</time>
      </trkpt>
      <trkpt lat="45.860428" lon="6.089198">
        <ele>657.470865</ele>
        <time>2017-06-02T10:50:21.000Z</time>
      </trkpt>
      <trkpt lat="45.860336" lon="6.089222">
        <ele>657.360849</ele>
        <time>2017-06-02T10:50:23.000Z</time>
      </trkpt>
      <trkpt lat="45.860237" lon="6.089242">
        <ele>657.243222</ele>
        <time>2017-06-02T10:50:25.000Z</time>
      </trkpt>
      <trkpt lat="45.860130" lon="6.089254">
        <ele>657.116946</ele>
        <time>2017-06-02T10:50:27.000Z</time>
      </trkpt>
      <trkpt lat="45.860035" lon="6.089248">
        <ele>657.005065</ele>
        <time>2017-06-02T10:50:29.000Z</time>
      </trkpt>
      <trkpt lat="45.859960" lon="6.089093">
        <ele>656.850415</ele>
        <time>2017-06-02T10:50:32.000Z</time>
      </trkpt>
      <trkpt lat="45.859917" lon="6.088980">
        <ele>656.744905</ele>
        <time>2017-06-02T10:50:34.000Z</time>
      </trkpt>
      <trkpt lat="45.859806" lon="6.088936">
        <ele>656.609421</ele>
        <time>2017-06-02T10:50:37.000Z</time>
      </trkpt>
      <trkpt lat="45.859690" lon="6.088974">
        <ele>656.649266</ele>
        <time>2017-06-02T10:50:40.000Z</time>
      </trkpt>
      <trkpt lat="45.859580" lon="6.089065">
        <ele>656.764385</ele>
        <time>2017-06-02T10:50:43.000Z</time>
      </trkpt>
      <trkpt lat="45.859478" lon="6.089064">
        <ele>656.856881</ele>
        <time>2017-06-02T10:50:46.000Z</time>
      </trkpt>
      <trkpt lat="45.859383" lon="6.089013">
        <ele>656.948852</ele>
        <time>2017-06-02T10:50:49.000Z</time>
      </trkpt>
      <trkpt lat="45.859276" lon="6.088977">
        <ele>657.048508</ele>
        <time>2017-06-02T10:50:52.000Z</time>
      </trkpt>
      <trkpt lat="45.859173" lon="6.088945">
        <ele>657.144071</ele>
        <time>2017-06-02T10:50:55.000Z</time>
      </trkpt>
      <trkpt lat="45.859070" lon="6.088930">
        <ele>657.237951</ele>
        <time>2017-06-02T10:50:58.000Z</time>
      </trkpt>
      <trkpt lat="45.858963" lon="6.088915">
        <ele>657.335441</ele>
        <time>2017-06-02T10:51:01.000Z</time>
      </trkpt>
      <trkpt lat="45.858864" lon="6.088908">
        <ele>657.425323</ele>
        <time>2017-06-02T10:51:04.000Z</time>
      </trkpt>
      <trkpt lat="45.858760" lon="6.088917">
        <ele>657.519803</ele>
        <time>2017-06-02T10:51:07.000Z</time>
      </trkpt>
      <trkpt lat="45.858643" lon="6.088945">
        <ele>657.627362</ele>
        <time>2017-06-02T10:51:11.000Z</time>
      </trkpt>
      <trkpt lat="45.858530" lon="6.088969">
        <ele>657.730947</ele>
        <time>2017-06-02T10:51:15.000Z</time>
      </trkpt>
      <trkpt lat="45.858418" lon="6.088989">
        <ele>657.833291</ele>
        <time>2017-06-02T10:51:19.000Z</time>
      </trkpt>
      <trkpt lat="45.858310" lon="6.089017">
        <ele>657.932810</ele>
        <time>2017-06-02T10:51:23.000Z</time>
      </trkpt>
      <trkpt lat="45.858208" lon="6.089048">
        <ele>658.027354</ele>
        <time>2017-06-02T10:51:27.000Z</time>
      </trkpt>
      <trkpt lat="45.858112" lon="6.089066">
        <ele>658.115146</ele>
        <time>2017-06-02T10:51:31.000Z</time>
      </trkpt>
      <trkpt lat="45.858010" lon="6.089096">
        <ele>658.249106</ele>
        <time>2017-06-02T10:51:35.000Z</time>
      </trkpt>
      <trkpt lat="45.857914" lon="6.089127">
        <ele>658.805933</ele>
        <time>2017-06-02T10:51:39.000Z</time>
      </trkpt>
      <trkpt lat="45.857807" lon="6.089149">
        <ele>659.417615</ele>
        <time>2017-06-02T10:51:44.000Z</time>
      </trkpt>
      <trkpt lat="45.857710" lon="6.089155">
        <ele>659.967041</ele>
        <time>2017-06-02T10:51:48.000Z</time>
      </trkpt>
      <trkpt lat="45.857616" lon="6.089173">
        <ele>660.503691</ele>
        <time>2017-06-02T10:51:52.000Z</time>
      </trkpt>
      <trkpt lat="45.857530" lon="6.089118">
        <ele>661.036450</ele>
        <time>2017-06-02T10:51:57.000Z</time>
      </trkpt>
      <trkpt lat="45.857470" lon="6.089000">
        <ele>661.612262</ele>
        <time>2017-06-02T10:52:02.000Z</time>
      </trkpt>
      <trkpt lat="45.857380" lon="6.088962">
        <ele>662.143130</ele>
        <time>2017-06-02T10:52:07.000Z</time>
      </trkpt>
      <trkpt lat="45.857285" lon="6.088984">
        <ele>662.687676</ele>
        <time>2017-06-02T10:52:12.000Z</time>
      </trkpt>
      <trkpt lat="45.857212" lon="6.089072">
        <ele>663.227063</ele>
        <time>2017-06-02T10:52:17.000Z</time>
      </trkpt>
      <trkpt lat="45.857130" lon="6.089158">
        <ele>663.801699</ele>
        <time>2017-06-02T10:52:22.000Z</time>
      </trkpt>
      <trkpt lat="45.857025" lon="6.089179">
        <ele>664.401624</ele>
        <time>2017-06-02T10:52:28.000Z</time>
      </trkpt>
      <trkpt lat="45.856934" lon="6.089155">
        <ele>664.925202</ele>
        <time>2017-06-02T10:52:33.000Z</time>
      </trkpt>
      <trkpt lat="45.856830" lon="6.089136">
        <ele>665.518476</ele>
        <time>2017-06-02T10:52:39.000Z</time>
      </trkpt>
      <trkpt lat="45.856724" lon="6.089164">
        <ele>666.128390</ele>
        <time>2017-06-02T10:52:45.000Z</time>
      </trkpt>
      <trkpt lat="45.856620" lon="6.089149">
        <ele>666.719881</ele>
        <time>2017-06-02T10:52:54.000Z</time>
      </trkpt>
      <trkpt lat="45.856525" lon="6.089121">
        <ele>667.268689</ele>
        <time>2017-06-02T10:53:03.000Z</time>
      </trkpt>
      <trkpt lat="45.856450" lon="6.089043">
        <ele>667.792747</ele>
        <time>2017-06-02T10:53:10.000Z</time>
      </trkpt>
      <trkpt lat="45.856358" lon="6.089054">
        <ele>668.315171</ele>
        <time>2017-06-02T10:53:15.000Z</time>
      </trkpt>
      <trkpt lat="45.856266" lon="6.089061">
        <ele>669.148253</ele>
        <time>2017-06-02T10:53:20.000Z</time>
      </trkpt>
      <trkpt lat="45.856163" lon="6.089073">
        <ele>670.132721</ele>
        <time>2017-06-02T10:53:26.000Z</time>
      </trkpt>
      <trkpt lat="45.856083" lon="6.089138">
        <ele>671.008414</ele>
        <time>2017-06-02T10:53:32.000Z</time>
      </trkpt>
      <trkpt lat="45.855995" lon="6.089102">
        <ele>671.880121</ele>
        <time>2017-06-02T10:53:38.000Z</time>
      </trkpt>
      <trkpt lat="45.855892" lon="6.089143">
        <ele>672.898374</ele>
        <time>2017-06-02T10:53:45.000Z</time>
      </trkpt>
      <trkpt lat="45.855812" lon="6.089207">
        <ele>673.770820</ele>
        <time>2017-06-02T10:53:51.000Z</time>
      </trkpt>
      <trkpt lat="45.855710" lon="6.089201">
        <ele>674.743351</ele>
        <time>2017-06-02T10:53:57.000Z</time>
      </trkpt>
      <trkpt lat="45.855620" lon="6.089224">
        <ele>675.614223</ele>
        <time>2017-06-02T10:54:02.000Z</time>
      </trkpt>
      <trkpt lat="45.855522" lon="6.089263">
        <ele>676.583030</ele>
        <time>2017-06-02T10:54:08.000Z</time>
      </trkpt>
      <trkpt lat="45.855423" lon="6.089301">
        <ele>677.559286</ele>
        <time>2017-06-02T10:54:14.000Z</time>
      </trkpt>
      <trkpt lat="45.855328" lon="6.089347">
        <ele>678.514395</ele>
        <time>2017-06-02T10:54:20.000Z</time>
      </trkpt>
      <trkpt lat="45.855236" lon="6.089324">
        <ele>679.404032</ele>
        <time>2017-06-02T10:54:26.000Z</time>
      </trkpt>
      <trkpt lat="45.855145" lon="6.089295">
        <ele>680.292052</ele>
        <time>2017-06-02T10:54:32.000Z</time>
      </trkpt>
      <trkpt lat="45.855057" lon="6.089232">
        <ele>681.228829</ele>
        <time>2017-06-02T10:54:38.000Z</time>
      </trkpt>
      <trkpt lat="45.854984" lon="6.089121">
        <ele>682.241778</ele>
        <time>2017-06-02T10:54:44.000Z</time>
      </trkpt>
      <trkpt lat="45.854942" lon="6.089004">
        <ele>683.115129</ele>
        <time>2017-06-02T10:54:50.000Z</time>
      </trkpt>
      <trkpt lat="45.854897" lon="6.088882">
        <ele>684.031121</ele>
        <time>2017-06-02T10:54:56.000Z</time>
      </trkpt>
      <trkpt lat="45.854890" lon="6.088733">
        <ele>685.021996</ele>
        <time>2017-06-02T10:55:05.000Z</time>
      </trkpt>
      <trkpt lat="45.854866" lon="6.088585">
        <ele>686.020558</ele>
        <time>2017-06-02T10:55:11.000Z</time>
      </trkpt>
      <trkpt lat="45.854870" lon="6.088448">
        <ele>686.913227</ele>
        <time>2017-06-02T10:55:17.000Z</time>
      </trkpt>
      <trkpt lat="45.854843" lon="6.088306">
        <ele>687.871493</ele>
        <time>2017-06-02T10:55:23.000Z</time>
      </trkpt>
      <trkpt lat="45.854800" lon="6.088163">
        <ele>688.885500</ele>
        <time>2017-06-02T10:55:29.000Z</time>
      </trkpt>
      <trkpt lat="45.854750" lon="6.088027">
        <ele>689.886657</ele>
        <time>2017-06-02T10:55:35.000Z</time>
      </trkpt>
      <trkpt lat="45.854670" lon="6.087950">
        <ele>690.786907</ele>
        <time>2017-06-02T10:55:41.000Z</time>
      </trkpt>
      <trkpt lat="45.854607" lon="6.087853">
        <ele>691.650355</ele>
        <time>2017-06-02T10:55:46.000Z</time>
      </trkpt>
      <trkpt lat="45.854538" lon="6.087739">
        <ele>692.633597</ele>
        <time>2017-06-02T10:55:52.000Z</time>
      </trkpt>
      <trkpt lat="45.854492" lon="6.087568">
        <ele>693.826983</ele>
        <time>2017-06-02T10:58:18.000Z</time>
      </trkpt>
      <trkpt lat="45.854458" lon="6.087424">
        <ele>694.816850</ele>
        <time>2017-06-02T10:58:23.000Z</time>
      </trkpt>
      <trkpt lat="45.854435" lon="6.087284">
        <ele>695.753284</ele>
        <time>2017-06-02T10:58:28.000Z</time>
      </trkpt>
      <trkpt lat="45.854446" lon="6.087140">
        <ele>696.696369</ele>
        <time>2017-06-02T10:58:33.000Z</time>
      </trkpt>
      <trkpt lat="45.854470" lon="6.087003">
        <ele>697.616041</ele>
        <time>2017-06-02T10:58:38.000Z</time>
      </trkpt>
      <trkpt lat="45.854492" lon="6.086860">
        <ele>698.569435</ele>
        <time>2017-06-02T10:58:43.000Z</time>
      </trkpt>
      <trkpt lat="45.854490" lon="6.086706">
        <ele>699.572173</ele>
        <time>2017-06-02T10:58:48.000Z</time>
      </trkpt>
      <trkpt lat="45.854465" lon="6.086558">
        <ele>700.563609</ele>
        <time>2017-06-02T10:58:53.000Z</time>
      </trkpt>
      <trkpt lat="45.854410" lon="6.086432">
        <ele>701.531676</ele>
        <time>2017-06-02T10:58:58.000Z</time>
      </trkpt>
      <trkpt lat="45.854355" lon="6.086324">
        <ele>702.383879</ele>
        <time>2017-06-02T10:59:02.000Z</time>
      </trkpt>
      <trkpt lat="45.854290" lon="6.086206">
        <ele>703.117790</ele>
        <time>2017-06-02T10:59:07.000Z</time>
      </trkpt>
      <trkpt lat="45.854220" lon="6.086093">
        <ele>703.855525</ele>
        <time>2017-06-02T10:59:12.000Z</time>
      </trkpt>
      <trkpt lat="45.854156" lon="6.085980">
        <ele>704.566026</ele>
        <time>2017-06-02T10:59:17.000Z</time>
      </trkpt>
      <trkpt lat="45.854088" lon="6.085872">
        <ele>705.276251</ele>
        <time>2017-06-02T10:59:22.000Z</time>
      </trkpt>
      <trkpt lat="45.854027" lon="6.085760">
        <ele>705.969837</ele>
        <time>2017-06-02T10:59:27.000Z</time>
      </trkpt>
      <trkpt lat="45.853970" lon="6.085651">
        <ele>706.634766</ele>
        <time>2017-06-02T10:59:32.000Z</time>
      </trkpt>
      <trkpt lat="45.853910" lon="6.085526">
        <ele>707.375339</ele>
        <time>2017-06-02T10:59:37.000Z</time>
      </trkpt>
      <trkpt lat="45.853840" lon="6.085409">
        <ele>708.127769</ele>
        <time>2017-06-02T10:59:42.000Z</time>
      </trkpt>
      <trkpt lat="45.853770" lon="6.085306">
        <ele>708.829806</ele>
        <time>2017-06-02T10:59:47.000Z</time>
      </trkpt>
      <trkpt lat="45.853700" lon="6.085205">
        <ele>709.524893</ele>
        <time>2017-06-02T10:59:52.000Z</time>
      </trkpt>
      <trkpt lat="45.853615" lon="6.085116">
        <ele>710.261742</ele>
        <time>2017-06-02T10:59:57.000Z</time>
      </trkpt>
      <trkpt lat="45.853540" lon="6.085032">
        <ele>710.927977</ele>
        <time>2017-06-02T11:00:02.000Z</time>
      </trkpt>
      <trkpt lat="45.853443" lon="6.084991">
        <ele>711.636206</ele>
        <time>2017-06-02T11:00:07.000Z</time>
      </trkpt>
      <trkpt lat="45.853350" lon="6.084956">
        <ele>712.309595</ele>
        <time>2017-06-02T11:00:12.000Z</time>
      </trkpt>
      <trkpt lat="45.853275" lon="6.084865">
        <ele>712.997363</ele>
        <time>2017-06-02T11:00:17.000Z</time>
      </trkpt>
      <trkpt lat="45.853172" lon="6.084805">
        <ele>713.775905</ele>
        <time>2017-06-02T11:00:22.000Z</time>
      </trkpt>
      <trkpt lat="45.853092" lon="6.084748">
        <ele>714.401437</ele>
        <time>2017-06-02T11:00:26.000Z</time>
      </trkpt>
      <trkpt lat="45.852980" lon="6.084704">
        <ele>715.142023</ele>
        <time>2017-06-02T11:00:31.000Z</time>
      </trkpt>
      <trkpt lat="45.852894" lon="6.084668">
        <ele>715.611668</ele>
        <time>2017-06-02T11:00:35.000Z</time>
      </trkpt>
      <trkpt lat="45.852787" lon="6.084622">
        <ele>716.197245</ele>
        <time>2017-06-02T11:00:40.000Z</time>
      </trkpt>
      <trkpt lat="45.852700" lon="6.084577">
        <ele>716.682056</ele>
        <time>2017-06-02T11:00:44.000Z</time>
      </trkpt>
      <trkpt lat="45.852596" lon="6.084522">
        <ele>717.263109</ele>
        <time>2017-06-02T11:00:49.000Z</time>
      </trkpt>
      <trkpt lat="45.852497" lon="6.084456">
        <ele>717.835361</ele>
        <time>2017-06-02T11:00:54.000Z</time>
      </trkpt>
      <trkpt lat="45.852410" lon="6.084415">
        <ele>718.315418</ele>
        <time>2017-06-02T11:00:59.000Z</time>
      </trkpt>
      <trkpt lat="45.852325" lon="6.084366">
        <ele>718.795627</ele>
        <time>2017-06-02T11:01:04.000Z</time>
      </trkpt>
      <trkpt lat="45.852226" lon="6.084322">
        <ele>719.338954</ele>
        <time>2017-06-02T11:01:09.000Z</time>
      </trkpt>
      <trkpt lat="45.852142" lon="6.084270">
        <ele>719.818533</ele>
        <time>2017-06-02T11:01:13.000Z</time>
      </trkpt>
      <trkpt lat="45.852043" lon="6.084219">
        <ele>720.369960</ele>
        <time>2017-06-02T11:01:18.000Z</time>
      </trkpt>
      <trkpt lat="45.851944" lon="6.084205">
        <ele>720.891498</ele>
        <time>2017-06-02T11:01:23.000Z</time>
      </trkpt>
      <trkpt lat="45.851852" lon="6.084221">
        <ele>721.377352</ele>
        <time>2017-06-02T11:01:27.000Z</time>
      </trkpt>
      <trkpt lat="45.851750" lon="6.084251">
        <ele>721.923213</ele>
        <time>2017-06-02T11:01:32.000Z</time>
      </trkpt>
      <trkpt lat="45.851654" lon="6.084311">
        <ele>722.472134</ele>
        <time>2017-06-02T11:01:37.000Z</time>
      </trkpt>
      <trkpt lat="45.851555" lon="6.084386">
        <ele>723.058986</ele>
        <time>2017-06-02T11:01:42.000Z</time>
      </trkpt>
      <trkpt lat="45.851463" lon="6.084460">
        <ele>723.611852</ele>
        <time>2017-06-02T11:01:47.000Z</time>
      </trkpt>
      <trkpt lat="45.851370" lon="6.084509">
        <ele>724.131218</ele>
        <time>2017-06-02T11:01:52.000Z</time>
      </trkpt>
      <trkpt lat="45.851270" lon="6.084518">
        <ele>724.612843</ele>
        <time>2017-06-02T11:01:57.000Z</time>
      </trkpt>
      <trkpt lat="45.851166" lon="6.084532">
        <ele>725.081061</ele>
        <time>2017-06-02T11:02:02.000Z</time>
      </trkpt>
      <trkpt lat="45.851063" lon="6.084522">
        <ele>725.543807</ele>
        <time>2017-06-02T11:02:07.000Z</time>
      </trkpt>
      <trkpt lat="45.850964" lon="6.084510">
        <ele>725.989147</ele>
        <time>2017-06-02T11:02:12.000Z</time>
      </trkpt>
      <trkpt lat="45.850860" lon="6.084506">
        <ele>726.455488</ele>
        <time>2017-06-02T11:02:17.000Z</time>
      </trkpt>
      <trkpt lat="45.850760" lon="6.084506">
        <ele>726.903732</ele>
        <time>2017-06-02T11:02:22.000Z</time>
      </trkpt>
      <trkpt lat="45.850655" lon="6.084503">
        <ele>727.374481</ele>
        <time>2017-06-02T11:02:27.000Z</time>
      </trkpt>
      <trkpt lat="45.850550" lon="6.084512">
        <ele>727.845975</ele>
        <time>2017-06-02T11:02:32.000Z</time>
      </trkpt>
      <trkpt lat="45.850440" lon="6.084508">
        <ele>728.339201</ele>
        <time>2017-06-02T11:02:37.000Z</time>
      </trkpt>
      <trkpt lat="45.850330" lon="6.084522">
        <ele>728.834203</ele>
        <time>2017-06-02T11:02:42.000Z</time>
      </trkpt>
      <trkpt lat="45.850240" lon="6.084526">
        <ele>729.237816</ele>
        <time>2017-06-02T11:02:46.000Z</time>
      </trkpt>
      <trkpt lat="45.850147" lon="6.084550">
        <ele>729.661364</ele>
        <time>2017-06-02T11:02:50.000Z</time>
      </trkpt>
      <trkpt lat="45.850040" lon="6.084564">
        <ele>730.142972</ele>
        <time>2017-06-02T11:02:55.000Z</time>
      </trkpt>
      <trkpt lat="45.849930" lon="6.084581">
        <ele>730.638889</ele>
        <time>2017-06-02T11:03:00.000Z</time>
      </trkpt>
      <trkpt lat="45.849827" lon="6.084608">
        <ele>731.108213</ele>
        <time>2017-06-02T11:03:05.000Z</time>
      </trkpt>
      <trkpt lat="45.849735" lon="6.084605">
        <ele>731.520704</ele>
        <time>2017-06-02T11:03:09.000Z</time>
      </trkpt>
      <trkpt lat="45.849630" lon="6.084621">
        <ele>731.994003</ele>
        <time>2017-06-02T11:03:14.000Z</time>
      </trkpt>
      <trkpt lat="45.849518" lon="6.084634">
        <ele>732.538202</ele>
        <time>2017-06-02T11:03:19.000Z</time>
      </trkpt>
      <trkpt lat="45.849415" lon="6.084653">
        <ele>733.239440</ele>
        <time>2017-06-02T11:03:24.000Z</time>
      </trkpt>
      <trkpt lat="45.849320" lon="6.084670">
        <ele>733.885903</ele>
        <time>2017-06-02T11:03:29.000Z</time>
      </trkpt>
      <trkpt lat="45.849216" lon="6.084689">
        <ele>734.593838</ele>
        <time>2017-06-02T11:03:34.000Z</time>
      </trkpt>
      <trkpt lat="45.849117" lon="6.084714">
        <ele>735.272610</ele>
        <time>2017-06-02T11:03:39.000Z</time>
      </trkpt>
      <trkpt lat="45.849020" lon="6.084763">
        <ele>735.966979</ele>
        <time>2017-06-02T11:03:44.000Z</time>
      </trkpt>
      <trkpt lat="45.848910" lon="6.084781">
        <ele>736.714576</ele>
        <time>2017-06-02T11:03:49.000Z</time>
      </trkpt>
      <trkpt lat="45.848816" lon="6.084795">
        <ele>737.352729</ele>
        <time>2017-06-02T11:03:53.000Z</time>
      </trkpt>
      <trkpt lat="45.848717" lon="6.084819">
        <ele>738.030702</ele>
        <time>2017-06-02T11:03:57.000Z</time>
      </trkpt>
      <trkpt lat="45.848610" lon="6.084854">
        <ele>738.771749</ele>
        <time>2017-06-02T11:04:02.000Z</time>
      </trkpt>
      <trkpt lat="45.848520" lon="6.084889">
        <ele>739.401387</ele>
        <time>2017-06-02T11:04:07.000Z</time>
      </trkpt>
      <trkpt lat="45.848410" lon="6.084888">
        <ele>740.144190</ele>
        <time>2017-06-02T11:04:12.000Z</time>
      </trkpt>
      <trkpt lat="45.848320" lon="6.084928">
        <ele>740.780383</ele>
        <time>2017-06-02T11:04:17.000Z</time>
      </trkpt>
      <trkpt lat="45.848220" lon="6.084892">
        <ele>741.476551</ele>
        <time>2017-06-02T11:04:22.000Z</time>
      </trkpt>
      <trkpt lat="45.848120" lon="6.084876">
        <ele>742.155994</ele>
        <time>2017-06-02T11:04:27.000Z</time>
      </trkpt>
      <trkpt lat="45.848020" lon="6.084866">
        <ele>742.832892</ele>
        <time>2017-06-02T11:04:32.000Z</time>
      </trkpt>
      <trkpt lat="45.847916" lon="6.084834">
        <ele>743.551113</ele>
        <time>2017-06-02T11:04:37.000Z</time>
      </trkpt>
      <trkpt lat="45.847805" lon="6.084806">
        <ele>744.312136</ele>
        <time>2017-06-02T11:04:42.000Z</time>
      </trkpt>
      <trkpt lat="45.847700" lon="6.084784">
        <ele>745.138518</ele>
        <time>2017-06-02T11:04:47.000Z</time>
      </trkpt>
      <trkpt lat="45.847600" lon="6.084785">
        <ele>745.973153</ele>
        <time>2017-06-02T11:04:52.000Z</time>
      </trkpt>
      <trkpt lat="45.847504" lon="6.084792">
        <ele>746.775417</ele>
        <time>2017-06-02T11:04:58.000Z</time>
      </trkpt>
      <trkpt lat="45.847412" lon="6.084769">
        <ele>747.554818</ele>
        <time>2017-06-02T11:05:05.000Z</time>
      </trkpt>
      <trkpt lat="45.847332" lon="6.084698">
        <ele>748.339799</ele>
        <time>2017-06-02T11:05:11.000Z</time>
      </trkpt>
      <trkpt lat="45.847230" lon="6.084680">
        <ele>749.197514</ele>
        <time>2017-06-02T11:05:18.000Z</time>
      </trkpt>
      <trkpt lat="45.847140" lon="6.084657">
        <ele>749.960476</ele>
        <time>2017-06-02T11:05:23.000Z</time>
      </trkpt>
      <trkpt lat="45.847050" lon="6.084636">
        <ele>750.721487</ele>
        <time>2017-06-02T11:05:28.000Z</time>
      </trkpt>
      <trkpt lat="45.846960" lon="6.084603">
        <ele>751.496754</ele>
        <time>2017-06-02T11:05:33.000Z</time>
      </trkpt>
      <trkpt lat="45.846867" lon="6.084580">
        <ele>752.284380</ele>
        <time>2017-06-02T11:05:38.000Z</time>
      </trkpt>
      <trkpt lat="45.846775" lon="6.084560">
        <ele>753.060980</ele>
        <time>2017-06-02T11:05:43.000Z</time>
      </trkpt>
      <trkpt lat="45.846676" lon="6.084536">
        <ele>753.898947</ele>
        <time>2017-06-02T11:05:48.000Z</time>
      </trkpt>
      <trkpt lat="45.846570" lon="6.084506">
        <ele>754.800667</ele>
        <time>2017-06-02T11:05:54.000Z</time>
      </trkpt>
      <trkpt lat="45.846474" lon="6.084490">
        <ele>755.607280</ele>
        <time>2017-06-02T11:05:59.000Z</time>
      </trkpt>
      <trkpt lat="45.846380" lon="6.084480">
        <ele>756.393969</ele>
        <time>2017-06-02T11:06:05.000Z</time>
      </trkpt>
      <trkpt lat="45.846280" lon="6.084518">
        <ele>757.257329</ele>
        <time>2017-06-02T11:06:11.000Z</time>
      </trkpt>
      <trkpt lat="45.846172" lon="6.084531">
        <ele>758.161876</ele>
        <time>2017-06-02T11:08:30.000Z</time>
      </trkpt>
      <trkpt lat="45.846077" lon="6.084515">
        <ele>758.960199</ele>
        <time>2017-06-02T11:08:35.000Z</time>
      </trkpt>
      <trkpt lat="45.845970" lon="6.084513">
        <ele>759.838464</ele>
        <time>2017-06-02T11:08:40.000Z</time>
      </trkpt>
      <trkpt lat="45.845880" lon="6.084506">
        <ele>760.550592</ele>
        <time>2017-06-02T11:08:44.000Z</time>
      </trkpt>
      <trkpt lat="45.845787" lon="6.084497">
        <ele>761.287048</ele>
        <time>2017-06-02T11:08:48.000Z</time>
      </trkpt>
      <trkpt lat="45.845688" lon="6.084477">
        <ele>762.076949</ele>
        <time>2017-06-02T11:08:52.000Z</time>
      </trkpt>
      <trkpt lat="45.845596" lon="6.084458">
        <ele>762.811320</ele>
        <time>2017-06-02T11:08:56.000Z</time>
      </trkpt>
      <trkpt lat="45.845505" lon="6.084441">
        <ele>763.536369</ele>
        <time>2017-06-02T11:09:00.000Z</time>
      </trkpt>
      <trkpt lat="45.845394" lon="6.084427">
        <ele>764.416752</ele>
        <time>2017-06-02T11:09:05.000Z</time>
      </trkpt>
      <trkpt lat="45.845287" lon="6.084409">
        <ele>765.267939</ele>
        <time>2017-06-02T11:09:10.000Z</time>
      </trkpt>
      <trkpt lat="45.845177" lon="6.084389">
        <ele>766.143986</ele>
        <time>2017-06-02T11:09:15.000Z</time>
      </trkpt>
      <trkpt lat="45.845066" lon="6.084374">
        <ele>767.024869</ele>
        <time>2017-06-02T11:09:20.000Z</time>
      </trkpt>
      <trkpt lat="45.844960" lon="6.084345">
        <ele>767.877443</ele>
        <time>2017-06-02T11:09:25.000Z</time>
      </trkpt>
      <trkpt lat="45.844864" lon="6.084299">
        <ele>768.677072</ele>
        <time>2017-06-02T11:09:30.000Z</time>
      </trkpt>
      <trkpt lat="45.844753" lon="6.084266">
        <ele>769.572687</ele>
        <time>2017-06-02T11:09:35.000Z</time>
      </trkpt>
      <trkpt lat="45.844650" lon="6.084232">
        <ele>770.407723</ele>
        <time>2017-06-02T11:09:40.000Z</time>
      </trkpt>
      <trkpt lat="45.844543" lon="6.084195">
        <ele>771.277306</ele>
        <time>2017-06-02T11:09:45.000Z</time>
      </trkpt>
      <trkpt lat="45.844440" lon="6.084157">
        <ele>772.117549</ele>
        <time>2017-06-02T11:09:50.000Z</time>
      </trkpt>
      <trkpt lat="45.844337" lon="6.084118">
        <ele>772.959180</ele>
        <time>2017-06-02T11:09:55.000Z</time>
      </trkpt>
      <trkpt lat="45.844242" lon="6.084083">
        <ele>773.734095</ele>
        <time>2017-06-02T11:10:00.000Z</time>
      </trkpt>
      <trkpt lat="45.844143" lon="6.084042">
        <ele>774.194177</ele>
        <time>2017-06-02T11:10:05.000Z</time>
      </trkpt>
      <trkpt lat="45.844036" lon="6.084005">
        <ele>774.659900</ele>
        <time>2017-06-02T11:10:10.000Z</time>
      </trkpt>
      <trkpt lat="45.843940" lon="6.083960">
        <ele>775.087234</ele>
        <time>2017-06-02T11:10:15.000Z</time>
      </trkpt>
      <trkpt lat="45.843857" lon="6.083883">
        <ele>775.505409</ele>
        <time>2017-06-02T11:10:20.000Z</time>
      </trkpt>
      <trkpt lat="45.843765" lon="6.083861">
        <ele>775.900072</ele>
        <time>2017-06-02T11:10:25.000Z</time>
      </trkpt>
      <trkpt lat="45.843666" lon="6.083849">
        <ele>776.320482</ele>
        <time>2017-06-02T11:10:30.000Z</time>
      </trkpt>
      <trkpt lat="45.843560" lon="6.083869">
        <ele>776.772880</ele>
        <time>2017-06-02T11:10:35.000Z</time>
      </trkpt>
      <trkpt lat="45.843480" lon="6.083953">
        <ele>777.192294</ele>
        <time>2017-06-02T11:10:40.000Z</time>
      </trkpt>
      <trkpt lat="45.843388" lon="6.084040">
        <ele>777.658473</ele>
        <time>2017-06-02T11:10:45.000Z</time>
      </trkpt>
      <trkpt lat="45.843310" lon="6.084149">
        <ele>778.119098</ele>
        <time>2017-06-02T11:10:50.000Z</time>
      </trkpt>
      <trkpt lat="45.843243" lon="6.084236">
        <ele>778.501392</ele>
        <time>2017-06-02T11:10:54.000Z</time>
      </trkpt>
      <trkpt lat="45.843174" lon="6.084323">
        <ele>778.890003</ele>
        <time>2017-06-02T11:10:58.000Z</time>
      </trkpt>
      <trkpt lat="45.843098" lon="6.084408">
        <ele>779.297684</ele>
        <time>2017-06-02T11:11:02.000Z</time>
      </trkpt>
      <trkpt lat="45.843030" lon="6.084495">
        <ele>779.683127</ele>
        <time>2017-06-02T11:11:06.000Z</time>
      </trkpt>
      <trkpt lat="45.842934" lon="6.084581">
        <ele>780.161965</ele>
        <time>2017-06-02T11:11:11.000Z</time>
      </trkpt>
      <trkpt lat="45.842846" lon="6.084677">
        <ele>780.629665</ele>
        <time>2017-06-02T11:11:16.000Z</time>
      </trkpt>
      <trkpt lat="45.842773" lon="6.084752">
        <ele>781.009531</ele>
        <time>2017-06-02T11:11:20.000Z</time>
      </trkpt>
      <trkpt lat="45.842690" lon="6.084843">
        <ele>781.443454</ele>
        <time>2017-06-02T11:11:25.000Z</time>
      </trkpt>
      <trkpt lat="45.842575" lon="6.084814">
        <ele>781.864937</ele>
        <time>2017-06-02T11:16:55.000Z</time>
      </trkpt>
      <trkpt lat="45.842484" lon="6.084822">
        <ele>782.194043</ele>
        <time>2017-06-02T11:17:00.000Z</time>
      </trkpt>
      <trkpt lat="45.842392" lon="6.084818">
        <ele>782.526296</ele>
        <time>2017-06-02T11:17:05.000Z</time>
      </trkpt>
      <trkpt lat="45.842297" lon="6.084816">
        <ele>782.869262</ele>
        <time>2017-06-02T11:17:10.000Z</time>
      </trkpt>
      <trkpt lat="45.842200" lon="6.084816">
        <ele>783.219412</ele>
        <time>2017-06-02T11:17:15.000Z</time>
      </trkpt>
      <trkpt lat="45.842094" lon="6.084818">
        <ele>783.602082</ele>
        <time>2017-06-02T11:17:21.000Z</time>
      </trkpt>
      <trkpt lat="45.842007" lon="6.084814">
        <ele>783.916295</ele>
        <time>2017-06-02T11:17:26.000Z</time>
      </trkpt>
      <trkpt lat="45.841908" lon="6.084803">
        <ele>784.274733</ele>
        <time>2017-06-02T11:17:32.000Z</time>
      </trkpt>
      <trkpt lat="45.841805" lon="6.084773">
        <ele>784.654117</ele>
        <time>2017-06-02T11:17:38.000Z</time>
      </trkpt>
      <trkpt lat="45.841732" lon="6.084687">
        <ele>784.995015</ele>
        <time>2017-06-02T11:17:43.000Z</time>
      </trkpt>
      <trkpt lat="45.841663" lon="6.084583">
        <ele>785.356177</ele>
        <time>2017-06-02T11:17:48.000Z</time>
      </trkpt>
      <trkpt lat="45.841602" lon="6.084456">
        <ele>785.744101</ele>
        <time>2017-06-02T11:17:52.000Z</time>
      </trkpt>
      <trkpt lat="45.841540" lon="6.084342">
        <ele>786.107797</ele>
        <time>2017-06-02T11:17:56.000Z</time>
      </trkpt>
      <trkpt lat="45.841476" lon="6.084240">
        <ele>786.453003</ele>
        <time>2017-06-02T11:18:00.000Z</time>
      </trkpt>
      <trkpt lat="45.841404" lon="6.084159">
        <ele>786.783218</ele>
        <time>2017-06-02T11:18:04.000Z</time>
      </trkpt>
      <trkpt lat="45.841320" lon="6.084086">
        <ele>787.137681</ele>
        <time>2017-06-02T11:18:08.000Z</time>
      </trkpt>
      <trkpt lat="45.841232" lon="6.084034">
        <ele>787.481205</ele>
        <time>2017-06-02T11:18:12.000Z</time>
      </trkpt>
      <trkpt lat="45.841137" lon="6.084004">
        <ele>787.832336</ele>
        <time>2017-06-02T11:18:16.000Z</time>
      </trkpt>
      <trkpt lat="45.841038" lon="6.083978">
        <ele>787.938822</ele>
        <time>2017-06-02T11:18:20.000Z</time>
      </trkpt>
      <trkpt lat="45.840930" lon="6.083972">
        <ele>788.001535</ele>
        <time>2017-06-02T11:18:24.000Z</time>
      </trkpt>
      <trkpt lat="45.840828" lon="6.083977">
        <ele>788.060754</ele>
        <time>2017-06-02T11:18:28.000Z</time>
      </trkpt>
      <trkpt lat="45.840736" lon="6.084037">
        <ele>788.119387</ele>
        <time>2017-06-02T11:18:33.000Z</time>
      </trkpt>
      <trkpt lat="45.840706" lon="6.084165">
        <ele>788.173978</ele>
        <time>2017-06-02T11:18:39.000Z</time>
      </trkpt>
      <trkpt lat="45.840614" lon="6.084145">
        <ele>788.227969</ele>
        <time>2017-06-02T11:18:45.000Z</time>
      </trkpt>
      <trkpt lat="45.840527" lon="6.084114">
        <ele>788.279982</ele>
        <time>2017-06-02T11:18:49.000Z</time>
      </trkpt>
      <trkpt lat="45.840435" lon="6.084067">
        <ele>788.336644</ele>
        <time>2017-06-02T11:18:53.000Z</time>
      </trkpt>
      <trkpt lat="45.840347" lon="6.084105">
        <ele>788.389965</ele>
        <time>2017-06-02T11:19:00.000Z</time>
      </trkpt>
      <trkpt lat="45.840218" lon="6.084112">
        <ele>788.464870</ele>
        <time>2017-06-02T11:57:14.000Z</time>
      </trkpt>
      <trkpt lat="45.840305" lon="6.084083">
        <ele>788.516694</ele>
        <time>2017-06-02T12:01:19.000Z</time>
      </trkpt>
      <trkpt lat="45.840397" lon="6.084011">
        <ele>788.577494</ele>
        <time>2017-06-02T12:01:24.000Z</time>
      </trkpt>
      <trkpt lat="45.840310" lon="6.083938">
        <ele>788.635967</ele>
        <time>2017-06-02T12:01:28.000Z</time>
      </trkpt>
      <trkpt lat="45.840218" lon="6.083941">
        <ele>788.689363</ele>
        <time>2017-06-02T12:01:33.000Z</time>
      </trkpt>
      <trkpt lat="45.840120" lon="6.083877">
        <ele>788.751835</ele>
        <time>2017-06-02T12:02:13.000Z</time>
      </trkpt>
      <trkpt lat="45.840027" lon="6.083793">
        <ele>788.815591</ele>
        <time>2017-06-02T12:02:18.000Z</time>
      </trkpt>
      <trkpt lat="45.839924" lon="6.083711">
        <ele>788.883933</ele>
        <time>2017-06-02T12:02:22.000Z</time>
      </trkpt>
      <trkpt lat="45.839820" lon="6.083641">
        <ele>788.798584</ele>
        <time>2017-06-02T12:02:25.000Z</time>
      </trkpt>
      <trkpt lat="45.839706" lon="6.083631">
        <ele>788.282718</ele>
        <time>2017-06-02T12:02:29.000Z</time>
      </trkpt>
      <trkpt lat="45.839610" lon="6.083580">
        <ele>787.820369</ele>
        <time>2017-06-02T12:02:33.000Z</time>
      </trkpt>
      <trkpt lat="45.839504" lon="6.083507">
        <ele>787.289345</ele>
        <time>2017-06-02T12:02:37.000Z</time>
      </trkpt>
      <trkpt lat="45.839400" lon="6.083416">
        <ele>786.739210</ele>
        <time>2017-06-02T12:02:40.000Z</time>
      </trkpt>
      <trkpt lat="45.839317" lon="6.083363">
        <ele>786.328901</ele>
        <time>2017-06-02T12:02:42.000Z</time>
      </trkpt>
      <trkpt lat="45.839233" lon="6.083290">
        <ele>785.885377</ele>
        <time>2017-06-02T12:02:44.000Z</time>
      </trkpt>
      <trkpt lat="45.839138" lon="6.083234">
        <ele>785.421516</ele>
        <time>2017-06-02T12:02:46.000Z</time>
      </trkpt>
      <trkpt lat="45.839054" lon="6.083171">
        <ele>784.993442</ele>
        <time>2017-06-02T12:02:48.000Z</time>
      </trkpt>
      <trkpt lat="45.838970" lon="6.083103">
        <ele>784.557859</ele>
        <time>2017-06-02T12:02:50.000Z</time>
      </trkpt>
      <trkpt lat="45.838890" lon="6.083040">
        <ele>784.145713</ele>
        <time>2017-06-02T12:02:52.000Z</time>
      </trkpt>
      <trkpt lat="45.838790" lon="6.082944">
        <ele>783.602334</ele>
        <time>2017-06-02T12:02:55.000Z</time>
      </trkpt>
      <trkpt lat="45.838710" lon="6.082864">
        <ele>783.161953</ele>
        <time>2017-06-02T12:02:59.000Z</time>
      </trkpt>
      <trkpt lat="45.838573" lon="6.082691">
        <ele>782.337786</ele>
        <time>2017-06-02T12:03:45.000Z</time>
      </trkpt>
      <trkpt lat="45.838505" lon="6.082598">
        <ele>781.913553</ele>
        <time>2017-06-02T12:03:48.000Z</time>
      </trkpt>
      <trkpt lat="45.838420" lon="6.082462">
        <ele>781.338627</ele>
        <time>2017-06-02T12:03:51.000Z</time>
      </trkpt>
      <trkpt lat="45.838352" lon="6.082369">
        <ele>780.914393</ele>
        <time>2017-06-02T12:03:53.000Z</time>
      </trkpt>
      <trkpt lat="45.838276" lon="6.082282">
        <ele>780.503604</ele>
        <time>2017-06-02T12:03:55.000Z</time>
      </trkpt>
      <trkpt lat="45.838196" lon="6.082198">
        <ele>780.093814</ele>
        <time>2017-06-02T12:03:57.000Z</time>
      </trkpt>
      <trkpt lat="45.838110" lon="6.082112">
        <ele>779.660486</ele>
        <time>2017-06-02T12:03:59.000Z</time>
      </trkpt>
      <trkpt lat="45.838010" lon="6.082025">
        <ele>779.177043</ele>
        <time>2017-06-02T12:04:01.000Z</time>
      </trkpt>
      <trkpt lat="45.837902" lon="6.081925">
        <ele>778.645699</ele>
        <time>2017-06-02T12:04:03.000Z</time>
      </trkpt>
      <trkpt lat="45.837788" lon="6.081832">
        <ele>778.103587</ele>
        <time>2017-06-02T12:04:05.000Z</time>
      </trkpt>
      <trkpt lat="45.837673" lon="6.081731">
        <ele>777.546204</ele>
        <time>2017-06-02T12:04:07.000Z</time>
      </trkpt>
      <trkpt lat="45.837570" lon="6.081631">
        <ele>777.032108</ele>
        <time>2017-06-02T12:04:09.000Z</time>
      </trkpt>
      <trkpt lat="45.837480" lon="6.081543">
        <ele>776.581892</ele>
        <time>2017-06-02T12:04:11.000Z</time>
      </trkpt>
      <trkpt lat="45.837402" lon="6.081451">
        <ele>776.164507</ele>
        <time>2017-06-02T12:04:13.000Z</time>
      </trkpt>
      <trkpt lat="45.837322" lon="6.081357">
        <ele>775.737076</ele>
        <time>2017-06-02T12:04:15.000Z</time>
      </trkpt>
      <trkpt lat="45.837250" lon="6.081265">
        <ele>775.338545</ele>
        <time>2017-06-02T12:04:17.000Z</time>
      </trkpt>
      <trkpt lat="45.837162" lon="6.081132">
        <ele>774.810228</ele>
        <time>2017-06-02T12:04:20.000Z</time>
      </trkpt>
      <trkpt lat="45.837080" lon="6.081035">
        <ele>774.370922</ele>
        <time>2017-06-02T12:04:23.000Z</time>
      </trkpt>
      <trkpt lat="45.837010" lon="6.080949">
        <ele>773.989985</ele>
        <time>2017-06-02T12:04:26.000Z</time>
      </trkpt>
      <trkpt lat="45.836940" lon="6.080858">
        <ele>773.599529</ele>
        <time>2017-06-02T12:04:29.000Z</time>
      </trkpt>
      <trkpt lat="45.836860" lon="6.080762">
        <ele>773.048863</ele>
        <time>2017-06-02T12:04:32.000Z</time>
      </trkpt>
      <trkpt lat="45.836780" lon="6.080659">
        <ele>772.345172</ele>
        <time>2017-06-02T12:04:35.000Z</time>
      </trkpt>
      <trkpt lat="45.836685" lon="6.080521">
        <ele>771.460147</ele>
        <time>2017-06-02T12:04:38.000Z</time>
      </trkpt>
      <trkpt lat="45.836613" lon="6.080439">
        <ele>770.858320</ele>
        <time>2017-06-02T12:04:40.000Z</time>
      </trkpt>
      <trkpt lat="45.836536" lon="6.080344">
        <ele>770.193470</ele>
        <time>2017-06-02T12:04:42.000Z</time>
      </trkpt>
      <trkpt lat="45.836452" lon="6.080237">
        <ele>769.458085</ele>
        <time>2017-06-02T12:04:44.000Z</time>
      </trkpt>
      <trkpt lat="45.836357" lon="6.080125">
        <ele>768.653101</ele>
        <time>2017-06-02T12:04:46.000Z</time>
      </trkpt>
      <trkpt lat="45.836273" lon="6.080006">
        <ele>767.880292</ele>
        <time>2017-06-02T12:04:48.000Z</time>
      </trkpt>
      <trkpt lat="45.836178" lon="6.079895">
        <ele>767.078194</ele>
        <time>2017-06-02T12:04:50.000Z</time>
      </trkpt>
      <trkpt lat="45.836086" lon="6.079781">
        <ele>766.282357</ele>
        <time>2017-06-02T12:04:52.000Z</time>
      </trkpt>
      <trkpt lat="45.836006" lon="6.079659">
        <ele>765.518055</ele>
        <time>2017-06-02T12:04:54.000Z</time>
      </trkpt>
      <trkpt lat="45.835903" lon="6.079533">
        <ele>764.631904</ele>
        <time>2017-06-02T12:04:56.000Z</time>
      </trkpt>
      <trkpt lat="45.835796" lon="6.079413">
        <ele>763.742770</ele>
        <time>2017-06-02T12:04:58.000Z</time>
      </trkpt>
      <trkpt lat="45.835686" lon="6.079298">
        <ele>762.851693</ele>
        <time>2017-06-02T12:05:00.000Z</time>
      </trkpt>
      <trkpt lat="45.835567" lon="6.079179">
        <ele>761.902028</ele>
        <time>2017-06-02T12:05:02.000Z</time>
      </trkpt>
      <trkpt lat="45.835453" lon="6.079048">
        <ele>761.181603</ele>
        <time>2017-06-02T12:05:04.000Z</time>
      </trkpt>
      <trkpt lat="45.835377" lon="6.078869">
        <ele>760.572133</ele>
        <time>2017-06-02T12:05:06.000Z</time>
      </trkpt>
      <trkpt lat="45.835342" lon="6.078661">
        <ele>759.949980</ele>
        <time>2017-06-02T12:05:08.000Z</time>
      </trkpt>
      <trkpt lat="45.835310" lon="6.078444">
        <ele>759.305070</ele>
        <time>2017-06-02T12:05:10.000Z</time>
      </trkpt>
      <trkpt lat="45.835243" lon="6.078222">
        <ele>758.601643</ele>
        <time>2017-06-02T12:05:12.000Z</time>
      </trkpt>
      <trkpt lat="45.835136" lon="6.078040">
        <ele>757.909250</ele>
        <time>2017-06-02T12:05:14.000Z</time>
      </trkpt>
      <trkpt lat="45.835000" lon="6.077884">
        <ele>757.182724</ele>
        <time>2017-06-02T12:05:16.000Z</time>
      </trkpt>
      <trkpt lat="45.834860" lon="6.077754">
        <ele>756.486875</ele>
        <time>2017-06-02T12:05:18.000Z</time>
      </trkpt>
      <trkpt lat="45.834720" lon="6.077677">
        <ele>755.861207</ele>
        <time>2017-06-02T12:05:20.000Z</time>
      </trkpt>
      <trkpt lat="45.834618" lon="6.077612">
        <ele>755.395477</ele>
        <time>2017-06-02T12:05:22.000Z</time>
      </trkpt>
      <trkpt lat="45.834530" lon="6.077545">
        <ele>754.979770</ele>
        <time>2017-06-02T12:05:24.000Z</time>
      </trkpt>
      <trkpt lat="45.834454" lon="6.077457">
        <ele>754.572269</ele>
        <time>2017-06-02T12:05:27.000Z</time>
      </trkpt>
      <trkpt lat="45.834377" lon="6.077342">
        <ele>754.108526</ele>
        <time>2017-06-02T12:05:30.000Z</time>
      </trkpt>
      <trkpt lat="45.834274" lon="6.077215">
        <ele>753.689172</ele>
        <time>2017-06-02T12:05:33.000Z</time>
      </trkpt>
      <trkpt lat="45.834206" lon="6.077131">
        <ele>753.415394</ele>
        <time>2017-06-02T12:05:35.000Z</time>
      </trkpt>
      <trkpt lat="45.834133" lon="6.077052">
        <ele>753.136404</ele>
        <time>2017-06-02T12:05:37.000Z</time>
      </trkpt>
      <trkpt lat="45.834053" lon="6.076976">
        <ele>752.843647</ele>
        <time>2017-06-02T12:05:39.000Z</time>
      </trkpt>
      <trkpt lat="45.833973" lon="6.076899">
        <ele>752.549711</ele>
        <time>2017-06-02T12:05:41.000Z</time>
      </trkpt>
      <trkpt lat="45.833880" lon="6.076826">
        <ele>752.226248</ele>
        <time>2017-06-02T12:05:43.000Z</time>
      </trkpt>
      <trkpt lat="45.833790" lon="6.076755">
        <ele>751.912856</ele>
        <time>2017-06-02T12:05:45.000Z</time>
      </trkpt>
      <trkpt lat="45.833675" lon="6.076684">
        <ele>751.530837</ele>
        <time>2017-06-02T12:05:48.000Z</time>
      </trkpt>
      <trkpt lat="45.833557" lon="6.076638">
        <ele>751.157708</ele>
        <time>2017-06-02T12:05:51.000Z</time>
      </trkpt>
      <trkpt lat="45.833450" lon="6.076621">
        <ele>750.829198</ele>
        <time>2017-06-02T12:05:54.000Z</time>
      </trkpt>
      <trkpt lat="45.833330" lon="6.076586">
        <ele>750.455527</ele>
        <time>2017-06-02T12:05:57.000Z</time>
      </trkpt>
      <trkpt lat="45.833230" lon="6.076567">
        <ele>750.147710</ele>
        <time>2017-06-02T12:05:59.000Z</time>
      </trkpt>
      <trkpt lat="45.833130" lon="6.076543">
        <ele>749.838318</ele>
        <time>2017-06-02T12:06:01.000Z</time>
      </trkpt>
      <trkpt lat="45.833023" lon="6.076519">
        <ele>749.507839</ele>
        <time>2017-06-02T12:06:03.000Z</time>
      </trkpt>
      <trkpt lat="45.832912" lon="6.076504">
        <ele>749.167619</ele>
        <time>2017-06-02T12:06:05.000Z</time>
      </trkpt>
      <trkpt lat="45.832794" lon="6.076494">
        <ele>748.806909</ele>
        <time>2017-06-02T12:06:07.000Z</time>
      </trkpt>
      <trkpt lat="45.832664" lon="6.076482">
        <ele>748.514161</ele>
        <time>2017-06-02T12:06:09.000Z</time>
      </trkpt>
      <trkpt lat="45.832530" lon="6.076467">
        <ele>748.327902</ele>
        <time>2017-06-02T12:06:11.000Z</time>
      </trkpt>
      <trkpt lat="45.832390" lon="6.076471">
        <ele>748.133854</ele>
        <time>2017-06-02T12:06:13.000Z</time>
      </trkpt>
      <trkpt lat="45.832245" lon="6.076492">
        <ele>747.931895</ele>
        <time>2017-06-02T12:06:15.000Z</time>
      </trkpt>
      <trkpt lat="45.832096" lon="6.076569">
        <ele>747.712436</ele>
        <time>2017-06-02T12:06:17.000Z</time>
      </trkpt>
      <trkpt lat="45.831955" lon="6.076660">
        <ele>747.498194</ele>
        <time>2017-06-02T12:06:19.000Z</time>
      </trkpt>
      <trkpt lat="45.831806" lon="6.076757">
        <ele>747.271464</ele>
        <time>2017-06-02T12:06:21.000Z</time>
      </trkpt>
      <trkpt lat="45.831650" lon="6.076809">
        <ele>747.049528</ele>
        <time>2017-06-02T12:06:23.000Z</time>
      </trkpt>
      <trkpt lat="45.831490" lon="6.076810">
        <ele>746.827800</ele>
        <time>2017-06-02T12:06:25.000Z</time>
      </trkpt>
      <trkpt lat="45.831326" lon="6.076763">
        <ele>746.596046</ele>
        <time>2017-06-02T12:06:27.000Z</time>
      </trkpt>
      <trkpt lat="45.831184" lon="6.076682">
        <ele>746.384291</ele>
        <time>2017-06-02T12:06:29.000Z</time>
      </trkpt>
      <trkpt lat="45.831074" lon="6.076578">
        <ele>746.201751</ele>
        <time>2017-06-02T12:06:31.000Z</time>
      </trkpt>
      <trkpt lat="45.830997" lon="6.076479">
        <ele>746.055109</ele>
        <time>2017-06-02T12:06:33.000Z</time>
      </trkpt>
      <trkpt lat="45.830925" lon="6.076391">
        <ele>745.915247</ele>
        <time>2017-06-02T12:06:35.000Z</time>
      </trkpt>
      <trkpt lat="45.830856" lon="6.076293">
        <ele>745.771680</ele>
        <time>2017-06-02T12:06:37.000Z</time>
      </trkpt>
      <trkpt lat="45.830790" lon="6.076195">
        <ele>745.631232</ele>
        <time>2017-06-02T12:06:39.000Z</time>
      </trkpt>
      <trkpt lat="45.830720" lon="6.076059">
        <ele>745.456998</ele>
        <time>2017-06-02T12:06:42.000Z</time>
      </trkpt>
      <trkpt lat="45.830630" lon="6.075929">
        <ele>745.268154</ele>
        <time>2017-06-02T12:06:45.000Z</time>
      </trkpt>
      <trkpt lat="45.830550" lon="6.075794">
        <ele>745.085532</ele>
        <time>2017-06-02T12:06:48.000Z</time>
      </trkpt>
      <trkpt lat="45.830450" lon="6.075669">
        <ele>744.889411</ele>
        <time>2017-06-02T12:06:51.000Z</time>
      </trkpt>
      <trkpt lat="45.830376" lon="6.075573">
        <ele>744.741887</ele>
        <time>2017-06-02T12:06:53.000Z</time>
      </trkpt>
      <trkpt lat="45.830310" lon="6.075471">
        <ele>744.598446</ele>
        <time>2017-06-02T12:06:55.000Z</time>
      </trkpt>
      <trkpt lat="45.830242" lon="6.075369">
        <ele>744.452976</ele>
        <time>2017-06-02T12:06:57.000Z</time>
      </trkpt>
      <trkpt lat="45.830177" lon="6.075269">
        <ele>744.312051</ele>
        <time>2017-06-02T12:06:59.000Z</time>
      </trkpt>
      <trkpt lat="45.830116" lon="6.075168">
        <ele>744.174316</ele>
        <time>2017-06-02T12:07:01.000Z</time>
      </trkpt>
      <trkpt lat="45.830050" lon="6.075069">
        <ele>744.033125</ele>
        <time>2017-06-02T12:07:03.000Z</time>
      </trkpt>
      <trkpt lat="45.829990" lon="6.074971">
        <ele>743.898691</ele>
        <time>2017-06-02T12:07:05.000Z</time>
      </trkpt>
      <trkpt lat="45.829930" lon="6.074874">
        <ele>743.765030</ele>
        <time>2017-06-02T12:07:07.000Z</time>
      </trkpt>
      <trkpt lat="45.829845" lon="6.074733">
        <ele>743.572900</ele>
        <time>2017-06-02T12:07:10.000Z</time>
      </trkpt>
      <trkpt lat="45.829784" lon="6.074631">
        <ele>743.426935</ele>
        <time>2017-06-02T12:07:12.000Z</time>
      </trkpt>
      <trkpt lat="45.829720" lon="6.074534">
        <ele>743.217982</ele>
        <time>2017-06-02T12:07:14.000Z</time>
      </trkpt>
      <trkpt lat="45.829655" lon="6.074446">
        <ele>743.017389</ele>
        <time>2017-06-02T12:07:16.000Z</time>
      </trkpt>
      <trkpt lat="45.829550" lon="6.074323">
        <ele>742.713131</ele>
        <time>2017-06-02T12:07:19.000Z</time>
      </trkpt>
      <trkpt lat="45.829433" lon="6.074218">
        <ele>742.403362</ele>
        <time>2017-06-02T12:07:22.000Z</time>
      </trkpt>
      <trkpt lat="45.829346" lon="6.074143">
        <ele>742.175537</ele>
        <time>2017-06-02T12:07:24.000Z</time>
      </trkpt>
      <trkpt lat="45.829247" lon="6.074059">
        <ele>741.917364</ele>
        <time>2017-06-02T12:07:26.000Z</time>
      </trkpt>
      <trkpt lat="45.829144" lon="6.073971">
        <ele>741.648276</ele>
        <time>2017-06-02T12:07:28.000Z</time>
      </trkpt>
      <trkpt lat="45.829037" lon="6.073885">
        <ele>741.372976</ele>
        <time>2017-06-02T12:07:30.000Z</time>
      </trkpt>
      <trkpt lat="45.828926" lon="6.073799">
        <ele>741.089807</ele>
        <time>2017-06-02T12:07:32.000Z</time>
      </trkpt>
      <trkpt lat="45.828810" lon="6.073707">
        <ele>740.792289</ele>
        <time>2017-06-02T12:07:34.000Z</time>
      </trkpt>
      <trkpt lat="45.828705" lon="6.073616">
        <ele>740.516937</ele>
        <time>2017-06-02T12:07:36.000Z</time>
      </trkpt>
      <trkpt lat="45.828590" lon="6.073541">
        <ele>740.233376</ele>
        <time>2017-06-02T12:07:38.000Z</time>
      </trkpt>
      <trkpt lat="45.828465" lon="6.073483">
        <ele>739.938471</ele>
        <time>2017-06-02T12:07:40.000Z</time>
      </trkpt>
      <trkpt lat="45.828330" lon="6.073464">
        <ele>739.633966</ele>
        <time>2017-06-02T12:07:42.000Z</time>
      </trkpt>
      <trkpt lat="45.828190" lon="6.073470">
        <ele>739.270836</ele>
        <time>2017-06-02T12:07:44.000Z</time>
      </trkpt>
      <trkpt lat="45.828050" lon="6.073484">
        <ele>738.788218</ele>
        <time>2017-06-02T12:07:46.000Z</time>
      </trkpt>
      <trkpt lat="45.827910" lon="6.073450">
        <ele>738.299923</ele>
        <time>2017-06-02T12:07:48.000Z</time>
      </trkpt>
      <trkpt lat="45.827766" lon="6.073379">
        <ele>737.776305</ele>
        <time>2017-06-02T12:07:50.000Z</time>
      </trkpt>
      <trkpt lat="45.827630" lon="6.073273">
        <ele>737.244084</ele>
        <time>2017-06-02T12:07:52.000Z</time>
      </trkpt>
      <trkpt lat="45.827484" lon="6.073188">
        <ele>736.702257</ele>
        <time>2017-06-02T12:07:54.000Z</time>
      </trkpt>
      <trkpt lat="45.827340" lon="6.073156">
        <ele>736.201149</ele>
        <time>2017-06-02T12:07:56.000Z</time>
      </trkpt>
      <trkpt lat="45.827194" lon="6.073158">
        <ele>735.699042</ele>
        <time>2017-06-02T12:07:58.000Z</time>
      </trkpt>
      <trkpt lat="45.827030" lon="6.073187">
        <ele>735.130792</ele>
        <time>2017-06-02T12:08:00.000Z</time>
      </trkpt>
      <trkpt lat="45.826862" lon="6.073215">
        <ele>734.549168</ele>
        <time>2017-06-02T12:08:02.000Z</time>
      </trkpt>
      <trkpt lat="45.826683" lon="6.073192">
        <ele>733.931137</ele>
        <time>2017-06-02T12:08:04.000Z</time>
      </trkpt>
      <trkpt lat="45.826520" lon="6.073134">
        <ele>733.353617</ele>
        <time>2017-06-02T12:08:06.000Z</time>
      </trkpt>
      <trkpt lat="45.826350" lon="6.073068">
        <ele>732.534118</ele>
        <time>2017-06-02T12:08:08.000Z</time>
      </trkpt>
      <trkpt lat="45.826187" lon="6.073004">
        <ele>731.692813</ele>
        <time>2017-06-02T12:08:10.000Z</time>
      </trkpt>
      <trkpt lat="45.826035" lon="6.072967">
        <ele>730.925286</ele>
        <time>2017-06-02T12:08:12.000Z</time>
      </trkpt>
      <trkpt lat="45.825886" lon="6.072934">
        <ele>730.174721</ele>
        <time>2017-06-02T12:08:14.000Z</time>
      </trkpt>
      <trkpt lat="45.825730" lon="6.072910">
        <ele>729.393640</ele>
        <time>2017-06-02T12:08:16.000Z</time>
      </trkpt>
      <trkpt lat="45.825577" lon="6.072881">
        <ele>728.625329</ele>
        <time>2017-06-02T12:08:18.000Z</time>
      </trkpt>
      <trkpt lat="45.825413" lon="6.072848">
        <ele>727.800883</ele>
        <time>2017-06-02T12:08:20.000Z</time>
      </trkpt>
      <trkpt lat="45.825256" lon="6.072826">
        <ele>727.015556</ele>
        <time>2017-06-02T12:08:22.000Z</time>
      </trkpt>
      <trkpt lat="45.825115" lon="6.072776">
        <ele>726.292486</ele>
        <time>2017-06-02T12:08:24.000Z</time>
      </trkpt>
      <trkpt lat="45.824974" lon="6.072707">
        <ele>725.550838</ele>
        <time>2017-06-02T12:08:26.000Z</time>
      </trkpt>
      <trkpt lat="45.824850" lon="6.072614">
        <ele>724.854289</ele>
        <time>2017-06-02T12:08:28.000Z</time>
      </trkpt>
      <trkpt lat="45.824740" lon="6.072492">
        <ele>724.113516</ele>
        <time>2017-06-02T12:08:30.000Z</time>
      </trkpt>
      <trkpt lat="45.824642" lon="6.072349">
        <ele>723.107631</ele>
        <time>2017-06-02T12:08:32.000Z</time>
      </trkpt>
      <trkpt lat="45.824560" lon="6.072179">
        <ele>722.070713</ele>
        <time>2017-06-02T12:08:34.000Z</time>
      </trkpt>
      <trkpt lat="45.824490" lon="6.071991">
        <ele>721.001690</ele>
        <time>2017-06-02T12:08:36.000Z</time>
      </trkpt>
      <trkpt lat="45.824432" lon="6.071808">
        <ele>719.993427</ele>
        <time>2017-06-02T12:08:38.000Z</time>
      </trkpt>
      <trkpt lat="45.824390" lon="6.071619">
        <ele>718.998509</ele>
        <time>2017-06-02T12:08:40.000Z</time>
      </trkpt>
      <trkpt lat="45.824364" lon="6.071422">
        <ele>717.992934</ele>
        <time>2017-06-02T12:08:42.000Z</time>
      </trkpt>
      <trkpt lat="45.824345" lon="6.071239">
        <ele>717.065005</ele>
        <time>2017-06-02T12:08:44.000Z</time>
      </trkpt>
      <trkpt lat="45.824318" lon="6.071087">
        <ele>716.278304</ele>
        <time>2017-06-02T12:08:46.000Z</time>
      </trkpt>
      <trkpt lat="45.824287" lon="6.070949">
        <ele>715.551122</ele>
        <time>2017-06-02T12:08:48.000Z</time>
      </trkpt>
      <trkpt lat="45.824272" lon="6.070818">
        <ele>714.885308</ele>
        <time>2017-06-02T12:08:50.000Z</time>
      </trkpt>
      <trkpt lat="45.824207" lon="6.070648">
        <ele>713.912802</ele>
        <time>2017-06-02T12:08:53.000Z</time>
      </trkpt>
      <trkpt lat="45.824150" lon="6.070541">
        <ele>713.237327</ele>
        <time>2017-06-02T12:08:55.000Z</time>
      </trkpt>
      <trkpt lat="45.824070" lon="6.070425">
        <ele>712.418815</ele>
        <time>2017-06-02T12:08:57.000Z</time>
      </trkpt>
      <trkpt lat="45.824000" lon="6.070316">
        <ele>711.675410</ele>
        <time>2017-06-02T12:08:59.000Z</time>
      </trkpt>
      <trkpt lat="45.823933" lon="6.070205">
        <ele>710.799266</ele>
        <time>2017-06-02T12:09:01.000Z</time>
      </trkpt>
      <trkpt lat="45.823864" lon="6.070072">
        <ele>709.668093</ele>
        <time>2017-06-02T12:09:03.000Z</time>
      </trkpt>
      <trkpt lat="45.823788" lon="6.069936">
        <ele>708.478813</ele>
        <time>2017-06-02T12:09:05.000Z</time>
      </trkpt>
      <trkpt lat="45.823715" lon="6.069800">
        <ele>707.307681</ele>
        <time>2017-06-02T12:09:07.000Z</time>
      </trkpt>
      <trkpt lat="45.823650" lon="6.069649">
        <ele>706.096851</ele>
        <time>2017-06-02T12:09:09.000Z</time>
      </trkpt>
      <trkpt lat="45.823593" lon="6.069491">
        <ele>704.883079</ele>
        <time>2017-06-02T12:09:11.000Z</time>
      </trkpt>
      <trkpt lat="45.823524" lon="6.069334">
        <ele>703.616788</ele>
        <time>2017-06-02T12:09:13.000Z</time>
      </trkpt>
      <trkpt lat="45.823456" lon="6.069196">
        <ele>702.463750</ele>
        <time>2017-06-02T12:09:15.000Z</time>
      </trkpt>
      <trkpt lat="45.823387" lon="6.069083">
        <ele>701.438772</ele>
        <time>2017-06-02T12:09:17.000Z</time>
      </trkpt>
      <trkpt lat="45.823307" lon="6.068982">
        <ele>700.395633</ele>
        <time>2017-06-02T12:09:19.000Z</time>
      </trkpt>
      <trkpt lat="45.823242" lon="6.068865">
        <ele>699.374834</ele>
        <time>2017-06-02T12:09:21.000Z</time>
      </trkpt>
      <trkpt lat="45.823196" lon="6.068743">
        <ele>698.428510</ele>
        <time>2017-06-02T12:09:23.000Z</time>
      </trkpt>
      <trkpt lat="45.823166" lon="6.068584">
        <ele>697.304726</ele>
        <time>2017-06-02T12:09:26.000Z</time>
      </trkpt>
      <trkpt lat="45.823196" lon="6.068393">
        <ele>695.968999</ele>
        <time>2017-06-02T12:09:29.000Z</time>
      </trkpt>
      <trkpt lat="45.823230" lon="6.068252">
        <ele>694.951111</ele>
        <time>2017-06-02T12:09:31.000Z</time>
      </trkpt>
      <trkpt lat="45.823277" lon="6.068134">
        <ele>694.023879</ele>
        <time>2017-06-02T12:09:33.000Z</time>
      </trkpt>
      <trkpt lat="45.823338" lon="6.068007">
        <ele>693.078009</ele>
        <time>2017-06-02T12:09:36.000Z</time>
      </trkpt>
      <trkpt lat="45.823395" lon="6.067842">
        <ele>692.000654</ele>
        <time>2017-06-02T12:09:39.000Z</time>
      </trkpt>
      <trkpt lat="45.823406" lon="6.067653">
        <ele>690.891142</ele>
        <time>2017-06-02T12:09:42.000Z</time>
      </trkpt>
      <trkpt lat="45.823380" lon="6.067523">
        <ele>690.099932</ele>
        <time>2017-06-02T12:09:44.000Z</time>
      </trkpt>
      <trkpt lat="45.823345" lon="6.067391">
        <ele>689.273714</ele>
        <time>2017-06-02T12:09:46.000Z</time>
      </trkpt>
      <trkpt lat="45.823300" lon="6.067261">
        <ele>688.424549</ele>
        <time>2017-06-02T12:09:48.000Z</time>
      </trkpt>
      <trkpt lat="45.823246" lon="6.067133">
        <ele>687.549213</ele>
        <time>2017-06-02T12:09:50.000Z</time>
      </trkpt>
      <trkpt lat="45.823210" lon="6.067001">
        <ele>686.719971</ele>
        <time>2017-06-02T12:09:52.000Z</time>
      </trkpt>
      <trkpt lat="45.823174" lon="6.066866">
        <ele>685.874361</ele>
        <time>2017-06-02T12:09:54.000Z</time>
      </trkpt>
      <trkpt lat="45.823135" lon="6.066731">
        <ele>685.019427</ele>
        <time>2017-06-02T12:09:56.000Z</time>
      </trkpt>
      <trkpt lat="45.823097" lon="6.066608">
        <ele>684.232324</ele>
        <time>2017-06-02T12:09:58.000Z</time>
      </trkpt>
      <trkpt lat="45.823063" lon="6.066478">
        <ele>683.420015</ele>
        <time>2017-06-02T12:10:00.000Z</time>
      </trkpt>
      <trkpt lat="45.823030" lon="6.066342">
        <ele>682.577551</ele>
        <time>2017-06-02T12:10:02.000Z</time>
      </trkpt>
      <trkpt lat="45.822990" lon="6.066205">
        <ele>681.708585</ele>
        <time>2017-06-02T12:10:04.000Z</time>
      </trkpt>
      <trkpt lat="45.822960" lon="6.066079">
        <ele>680.929636</ele>
        <time>2017-06-02T12:10:06.000Z</time>
      </trkpt>
      <trkpt lat="45.822900" lon="6.065921">
        <ele>679.876989</ele>
        <time>2017-06-02T12:10:09.000Z</time>
      </trkpt>
      <trkpt lat="45.822830" lon="6.065805">
        <ele>678.979309</ele>
        <time>2017-06-02T12:10:12.000Z</time>
      </trkpt>
      <trkpt lat="45.822735" lon="6.065698">
        <ele>678.260820</ele>
        <time>2017-06-02T12:10:15.000Z</time>
      </trkpt>
      <trkpt lat="45.822624" lon="6.065647">
        <ele>677.724422</ele>
        <time>2017-06-02T12:10:18.000Z</time>
      </trkpt>
      <trkpt lat="45.822525" lon="6.065657">
        <ele>677.267671</ele>
        <time>2017-06-02T12:10:23.000Z</time>
      </trkpt>
      <trkpt lat="45.822414" lon="6.065732">
        <ele>676.703021</ele>
        <time>2017-06-02T12:11:12.000Z</time>
      </trkpt>
      <trkpt lat="45.822320" lon="6.065813">
        <ele>676.198399</ele>
        <time>2017-06-02T12:11:16.000Z</time>
      </trkpt>
      <trkpt lat="45.822230" lon="6.065884">
        <ele>675.725728</ele>
        <time>2017-06-02T12:11:20.000Z</time>
      </trkpt>
      <trkpt lat="45.822147" lon="6.065935">
        <ele>675.310192</ele>
        <time>2017-06-02T12:11:23.000Z</time>
      </trkpt>
      <trkpt lat="45.822040" lon="6.065982">
        <ele>674.795195</ele>
        <time>2017-06-02T12:11:27.000Z</time>
      </trkpt>
      <trkpt lat="45.821950" lon="6.065978">
        <ele>674.380793</ele>
        <time>2017-06-02T12:11:30.000Z</time>
      </trkpt>
      <trkpt lat="45.821854" lon="6.065990">
        <ele>673.937303</ele>
        <time>2017-06-02T12:11:33.000Z</time>
      </trkpt>
      <trkpt lat="45.821747" lon="6.066020">
        <ele>673.435549</ele>
        <time>2017-06-02T12:11:37.000Z</time>
      </trkpt>
      <trkpt lat="45.821663" lon="6.066074">
        <ele>673.011937</ele>
        <time>2017-06-02T12:11:40.000Z</time>
      </trkpt>
      <trkpt lat="45.821580" lon="6.066168">
        <ele>672.525308</ele>
        <time>2017-06-02T12:11:43.000Z</time>
      </trkpt>
      <trkpt lat="45.821487" lon="6.066294">
        <ele>671.936661</ele>
        <time>2017-06-02T12:11:46.000Z</time>
      </trkpt>
      <trkpt lat="45.821407" lon="6.066417">
        <ele>671.397045</ele>
        <time>2017-06-02T12:11:49.000Z</time>
      </trkpt>
      <trkpt lat="45.821310" lon="6.066482">
        <ele>670.904346</ele>
        <time>2017-06-02T12:11:52.000Z</time>
      </trkpt>
      <trkpt lat="45.821198" lon="6.066498">
        <ele>670.386345</ele>
        <time>2017-06-02T12:11:55.000Z</time>
      </trkpt>
      <trkpt lat="45.821068" lon="6.066454">
        <ele>669.283118</ele>
        <time>2017-06-02T12:11:58.000Z</time>
      </trkpt>
      <trkpt lat="45.820970" lon="6.066391">
        <ele>668.365158</ele>
        <time>2017-06-02T12:12:00.000Z</time>
      </trkpt>
      <trkpt lat="45.820877" lon="6.066297">
        <ele>667.392742</ele>
        <time>2017-06-02T12:12:02.000Z</time>
      </trkpt>
      <trkpt lat="45.820816" lon="6.066197">
        <ele>666.601034</ele>
        <time>2017-06-02T12:12:04.000Z</time>
      </trkpt>
      <trkpt lat="45.820760" lon="6.066061">
        <ele>665.659984</ele>
        <time>2017-06-02T12:12:07.000Z</time>
      </trkpt>
      <trkpt lat="45.820705" lon="6.065956">
        <ele>664.877475</ele>
        <time>2017-06-02T12:12:10.000Z</time>
      </trkpt>
      <trkpt lat="45.820650" lon="6.065836">
        <ele>664.021846</ele>
        <time>2017-06-02T12:12:13.000Z</time>
      </trkpt>
      <trkpt lat="45.820568" lon="6.065710">
        <ele>662.994821</ele>
        <time>2017-06-02T12:12:16.000Z</time>
      </trkpt>
      <trkpt lat="45.820477" lon="6.065584">
        <ele>661.913823</ele>
        <time>2017-06-02T12:12:19.000Z</time>
      </trkpt>
      <trkpt lat="45.820370" lon="6.065475">
        <ele>660.792096</ele>
        <time>2017-06-02T12:12:22.000Z</time>
      </trkpt>
      <trkpt lat="45.820263" lon="6.065377">
        <ele>659.706987</ele>
        <time>2017-06-02T12:12:25.000Z</time>
      </trkpt>
      <trkpt lat="45.820168" lon="6.065299">
        <ele>658.771356</ele>
        <time>2017-06-02T12:12:28.000Z</time>
      </trkpt>
      <trkpt lat="45.820057" lon="6.065191">
        <ele>657.624929</ele>
        <time>2017-06-02T12:12:31.000Z</time>
      </trkpt>
      <trkpt lat="45.819990" lon="6.065093">
        <ele>656.807080</ele>
        <time>2017-06-02T12:12:33.000Z</time>
      </trkpt>
      <trkpt lat="45.819910" lon="6.064993">
        <ele>655.900121</ele>
        <time>2017-06-02T12:12:35.000Z</time>
      </trkpt>
      <trkpt lat="45.819817" lon="6.064881">
        <ele>654.901756</ele>
        <time>2017-06-02T12:12:37.000Z</time>
      </trkpt>
      <trkpt lat="45.819730" lon="6.064748">
        <ele>654.228504</ele>
        <time>2017-06-02T12:12:39.000Z</time>
      </trkpt>
      <trkpt lat="45.819660" lon="6.064607">
        <ele>653.589544</ele>
        <time>2017-06-02T12:12:41.000Z</time>
      </trkpt>
      <trkpt lat="45.819610" lon="6.064467">
        <ele>653.008917</ele>
        <time>2017-06-02T12:12:43.000Z</time>
      </trkpt>
      <trkpt lat="45.819560" lon="6.064310">
        <ele>652.371807</ele>
        <time>2017-06-02T12:12:45.000Z</time>
      </trkpt>
      <trkpt lat="45.819523" lon="6.064153">
        <ele>651.760098</ele>
        <time>2017-06-02T12:12:47.000Z</time>
      </trkpt>
      <trkpt lat="45.819473" lon="6.064012">
        <ele>651.176183</ele>
        <time>2017-06-02T12:12:49.000Z</time>
      </trkpt>
      <trkpt lat="45.819427" lon="6.063884">
        <ele>650.644631</ele>
        <time>2017-06-02T12:12:51.000Z</time>
      </trkpt>
      <trkpt lat="45.819380" lon="6.063764">
        <ele>650.136568</ele>
        <time>2017-06-02T12:12:53.000Z</time>
      </trkpt>
      <trkpt lat="45.819330" lon="6.063653">
        <ele>649.648748</ele>
        <time>2017-06-02T12:12:55.000Z</time>
      </trkpt>
      <trkpt lat="45.819267" lon="6.063535">
        <ele>649.100105</ele>
        <time>2017-06-02T12:12:57.000Z</time>
      </trkpt>
      <trkpt lat="45.819187" lon="6.063423">
        <ele>648.508164</ele>
        <time>2017-06-02T12:12:59.000Z</time>
      </trkpt>
      <trkpt lat="45.819096" lon="6.063311">
        <ele>647.873221</ele>
        <time>2017-06-02T12:13:01.000Z</time>
      </trkpt>
      <trkpt lat="45.818996" lon="6.063202">
        <ele>647.208137</ele>
        <time>2017-06-02T12:13:03.000Z</time>
      </trkpt>
      <trkpt lat="45.818893" lon="6.063102">
        <ele>646.549508</ele>
        <time>2017-06-02T12:13:05.000Z</time>
      </trkpt>
      <trkpt lat="45.818780" lon="6.063010">
        <ele>645.861429</ele>
        <time>2017-06-02T12:13:07.000Z</time>
      </trkpt>
      <trkpt lat="45.818650" lon="6.062936">
        <ele>645.234062</ele>
        <time>2017-06-02T12:13:09.000Z</time>
      </trkpt>
      <trkpt lat="45.818493" lon="6.062874">
        <ele>644.677354</ele>
        <time>2017-06-02T12:13:11.000Z</time>
      </trkpt>
      <trkpt lat="45.818400" lon="6.062858">
        <ele>644.357130</ele>
        <time>2017-06-02T12:13:12.000Z</time>
      </trkpt>
      <trkpt lat="45.818310" lon="6.062851">
        <ele>644.048987</ele>
        <time>2017-06-02T12:13:13.000Z</time>
      </trkpt>
      <trkpt lat="45.818220" lon="6.062847">
        <ele>643.741148</ele>
        <time>2017-06-02T12:13:14.000Z</time>
      </trkpt>
      <trkpt lat="45.818047" lon="6.062806">
        <ele>643.141684</ele>
        <time>2017-06-02T12:13:16.000Z</time>
      </trkpt>
      <trkpt lat="45.817880" lon="6.062770">
        <ele>642.564339</ele>
        <time>2017-06-02T12:13:18.000Z</time>
      </trkpt>
      <trkpt lat="45.817726" lon="6.062746">
        <ele>642.034749</ele>
        <time>2017-06-02T12:13:20.000Z</time>
      </trkpt>
      <trkpt lat="45.817604" lon="6.062725">
        <ele>641.614666</ele>
        <time>2017-06-02T12:13:22.000Z</time>
      </trkpt>
      <trkpt lat="45.817510" lon="6.062710">
        <ele>641.291318</ele>
        <time>2017-06-02T12:13:24.000Z</time>
      </trkpt>
      <trkpt lat="45.817413" lon="6.062681">
        <ele>640.952573</ele>
        <time>2017-06-02T12:13:27.000Z</time>
      </trkpt>
      <trkpt lat="45.817238" lon="6.062663">
        <ele>640.352750</ele>
        <time>2017-06-02T12:13:58.000Z</time>
      </trkpt>
      <trkpt lat="45.817104" lon="6.062630">
        <ele>639.887933</ele>
        <time>2017-06-02T12:14:01.000Z</time>
      </trkpt>
      <trkpt lat="45.817005" lon="6.062614">
        <ele>639.547332</ele>
        <time>2017-06-02T12:14:03.000Z</time>
      </trkpt>
      <trkpt lat="45.816900" lon="6.062599">
        <ele>639.274277</ele>
        <time>2017-06-02T12:14:05.000Z</time>
      </trkpt>
      <trkpt lat="45.816784" lon="6.062575">
        <ele>639.209309</ele>
        <time>2017-06-02T12:14:07.000Z</time>
      </trkpt>
      <trkpt lat="45.816670" lon="6.062553">
        <ele>639.145545</ele>
        <time>2017-06-02T12:14:09.000Z</time>
      </trkpt>
      <trkpt lat="45.816563" lon="6.062535">
        <ele>639.085825</ele>
        <time>2017-06-02T12:14:11.000Z</time>
      </trkpt>
      <trkpt lat="45.816456" lon="6.062514">
        <ele>639.025959</ele>
        <time>2017-06-02T12:14:13.000Z</time>
      </trkpt>
      <trkpt lat="45.816353" lon="6.062497">
        <ele>638.968485</ele>
        <time>2017-06-02T12:14:15.000Z</time>
      </trkpt>
      <trkpt lat="45.816242" lon="6.062480">
        <ele>638.906604</ele>
        <time>2017-06-02T12:14:17.000Z</time>
      </trkpt>
      <trkpt lat="45.816143" lon="6.062449">
        <ele>638.850433</ele>
        <time>2017-06-02T12:14:19.000Z</time>
      </trkpt>
      <trkpt lat="45.816036" lon="6.062428">
        <ele>638.790567</ele>
        <time>2017-06-02T12:14:21.000Z</time>
      </trkpt>
      <trkpt lat="45.815933" lon="6.062404">
        <ele>638.732722</ele>
        <time>2017-06-02T12:14:23.000Z</time>
      </trkpt>
      <trkpt lat="45.815830" lon="6.062387">
        <ele>638.675249</ele>
        <time>2017-06-02T12:14:25.000Z</time>
      </trkpt>
      <trkpt lat="45.815730" lon="6.062355">
        <ele>638.618453</ele>
        <time>2017-06-02T12:14:27.000Z</time>
      </trkpt>
      <trkpt lat="45.815628" lon="6.062316">
        <ele>638.559937</ele>
        <time>2017-06-02T12:14:29.000Z</time>
      </trkpt>
      <trkpt lat="45.815520" lon="6.062273">
        <ele>638.497806</ele>
        <time>2017-06-02T12:14:31.000Z</time>
      </trkpt>
      <trkpt lat="45.815422" lon="6.062230">
        <ele>638.440998</ele>
        <time>2017-06-02T12:14:33.000Z</time>
      </trkpt>
      <trkpt lat="45.815323" lon="6.062195">
        <ele>638.384477</ele>
        <time>2017-06-02T12:14:35.000Z</time>
      </trkpt>
      <trkpt lat="45.815220" lon="6.062170">
        <ele>638.326569</ele>
        <time>2017-06-02T12:14:37.000Z</time>
      </trkpt>
      <trkpt lat="45.815113" lon="6.062147">
        <ele>638.259685</ele>
        <time>2017-06-02T12:14:39.000Z</time>
      </trkpt>
      <trkpt lat="45.815006" lon="6.062146">
        <ele>638.185523</ele>
        <time>2017-06-02T12:14:41.000Z</time>
      </trkpt>
      <trkpt lat="45.814900" lon="6.062171">
        <ele>638.111071</ele>
        <time>2017-06-02T12:14:43.000Z</time>
      </trkpt>
      <trkpt lat="45.814796" lon="6.062216">
        <ele>638.035784</ele>
        <time>2017-06-02T12:14:45.000Z</time>
      </trkpt>
      <trkpt lat="45.814705" lon="6.062267">
        <ele>637.968072</ele>
        <time>2017-06-02T12:14:47.000Z</time>
      </trkpt>
      <trkpt lat="45.814606" lon="6.062332">
        <ele>637.892614</ele>
        <time>2017-06-02T12:14:49.000Z</time>
      </trkpt>
      <trkpt lat="45.814495" lon="6.062395">
        <ele>637.809881</ele>
        <time>2017-06-02T12:14:51.000Z</time>
      </trkpt>
      <trkpt lat="45.814384" lon="6.062442">
        <ele>637.729668</ele>
        <time>2017-06-02T12:14:53.000Z</time>
      </trkpt>
      <trkpt lat="45.814266" lon="6.062475">
        <ele>637.646346</ele>
        <time>2017-06-02T12:14:55.000Z</time>
      </trkpt>
      <trkpt lat="45.814160" lon="6.062483">
        <ele>637.572777</ele>
        <time>2017-06-02T12:14:57.000Z</time>
      </trkpt>
      <trkpt lat="45.814056" lon="6.062481">
        <ele>637.500690</ele>
        <time>2017-06-02T12:14:59.000Z</time>
      </trkpt>
      <trkpt lat="45.813950" lon="6.062471">
        <ele>637.427065</ele>
        <time>2017-06-02T12:15:01.000Z</time>
      </trkpt>
      <trkpt lat="45.813850" lon="6.062459">
        <ele>637.357514</ele>
        <time>2017-06-02T12:15:03.000Z</time>
      </trkpt>
      <trkpt lat="45.813750" lon="6.062449">
        <ele>637.288038</ele>
        <time>2017-06-02T12:15:05.000Z</time>
      </trkpt>
      <trkpt lat="45.813650" lon="6.062437">
        <ele>637.218488</ele>
        <time>2017-06-02T12:15:07.000Z</time>
      </trkpt>
      <trkpt lat="45.813553" lon="6.062430">
        <ele>637.151174</ele>
        <time>2017-06-02T12:15:09.000Z</time>
      </trkpt>
      <trkpt lat="45.813460" lon="6.062424">
        <ele>637.086652</ele>
        <time>2017-06-02T12:15:11.000Z</time>
      </trkpt>
      <trkpt lat="45.813370" lon="6.062414">
        <ele>637.004180</ele>
        <time>2017-06-02T12:15:13.000Z</time>
      </trkpt>
      <trkpt lat="45.813236" lon="6.062396">
        <ele>636.831868</ele>
        <time>2017-06-02T12:15:16.000Z</time>
      </trkpt>
      <trkpt lat="45.813114" lon="6.062367">
        <ele>636.673541</ele>
        <time>2017-06-02T12:15:19.000Z</time>
      </trkpt>
      <trkpt lat="45.813023" lon="6.062326">
        <ele>636.551423</ele>
        <time>2017-06-02T12:15:21.000Z</time>
      </trkpt>
      <trkpt lat="45.812920" lon="6.062266">
        <ele>636.409096</ele>
        <time>2017-06-02T12:15:23.000Z</time>
      </trkpt>
      <trkpt lat="45.812828" lon="6.062190">
        <ele>636.273178</ele>
        <time>2017-06-02T12:15:25.000Z</time>
      </trkpt>
      <trkpt lat="45.812737" lon="6.062106">
        <ele>636.134638</ele>
        <time>2017-06-02T12:15:27.000Z</time>
      </trkpt>
      <trkpt lat="45.812640" lon="6.062014">
        <ele>635.985764</ele>
        <time>2017-06-02T12:15:29.000Z</time>
      </trkpt>
      <trkpt lat="45.812565" lon="6.061890">
        <ele>635.839254</ele>
        <time>2017-06-02T12:15:31.000Z</time>
      </trkpt>
      <trkpt lat="45.812480" lon="6.061764">
        <ele>635.682774</ele>
        <time>2017-06-02T12:15:33.000Z</time>
      </trkpt>
      <trkpt lat="45.812366" lon="6.061687">
        <ele>635.521453</ele>
        <time>2017-06-02T12:15:35.000Z</time>
      </trkpt>
      <trkpt lat="45.812250" lon="6.061658">
        <ele>635.370699</ele>
        <time>2017-06-02T12:15:37.000Z</time>
      </trkpt>
      <trkpt lat="45.812150" lon="6.061641">
        <ele>635.241772</ele>
        <time>2017-06-02T12:15:39.000Z</time>
      </trkpt>
      <trkpt lat="45.812057" lon="6.061605">
        <ele>635.118445</ele>
        <time>2017-06-02T12:15:41.000Z</time>
      </trkpt>
      <trkpt lat="45.811940" lon="6.061516">
        <ele>634.948896</ele>
        <time>2017-06-02T12:15:44.000Z</time>
      </trkpt>
      <trkpt lat="45.811863" lon="6.061436">
        <ele>634.827177</ele>
        <time>2017-06-02T12:15:46.000Z</time>
      </trkpt>
      <trkpt lat="45.811768" lon="6.061351">
        <ele>634.869906</ele>
        <time>2017-06-02T12:15:49.000Z</time>
      </trkpt>
      <trkpt lat="45.811684" lon="6.061272">
        <ele>635.134020</ele>
        <time>2017-06-02T12:15:52.000Z</time>
      </trkpt>
      <trkpt lat="45.811607" lon="6.061194">
        <ele>635.381882</ele>
        <time>2017-06-02T12:15:57.000Z</time>
      </trkpt>
      <trkpt lat="45.811512" lon="6.061116">
        <ele>635.669708</ele>
        <time>2017-06-02T12:16:03.000Z</time>
      </trkpt>
      <trkpt lat="45.811417" lon="6.061066">
        <ele>635.935798</ele>
        <time>2017-06-02T12:16:07.000Z</time>
      </trkpt>
      <trkpt lat="45.811302" lon="6.061038">
        <ele>636.242524</ele>
        <time>2017-06-02T12:16:11.000Z</time>
      </trkpt>
      <trkpt lat="45.811195" lon="6.061052">
        <ele>636.525057</ele>
        <time>2017-06-02T12:16:14.000Z</time>
      </trkpt>
      <trkpt lat="45.811096" lon="6.061076">
        <ele>636.789076</ele>
        <time>2017-06-02T12:16:17.000Z</time>
      </trkpt>
      <trkpt lat="45.810993" lon="6.061154">
        <ele>637.095339</ele>
        <time>2017-06-02T12:16:20.000Z</time>
      </trkpt>
      <trkpt lat="45.810883" lon="6.061226">
        <ele>637.413276</ele>
        <time>2017-06-02T12:16:23.000Z</time>
      </trkpt>
      <trkpt lat="45.810780" lon="6.061290">
        <ele>637.708434</ele>
        <time>2017-06-02T12:16:26.000Z</time>
      </trkpt>
      <trkpt lat="45.810665" lon="6.061374">
        <ele>638.047774</ele>
        <time>2017-06-02T12:16:29.000Z</time>
      </trkpt>
      <trkpt lat="45.810555" lon="6.061425">
        <ele>638.351758</ele>
        <time>2017-06-02T12:16:32.000Z</time>
      </trkpt>
      <trkpt lat="45.810450" lon="6.061491">
        <ele>638.653203</ele>
        <time>2017-06-02T12:16:35.000Z</time>
      </trkpt>
      <trkpt lat="45.810364" lon="6.061572">
        <ele>638.923727</ele>
        <time>2017-06-02T12:16:38.000Z</time>
      </trkpt>
      <trkpt lat="45.810280" lon="6.061648">
        <ele>639.184868</ele>
        <time>2017-06-02T12:16:41.000Z</time>
      </trkpt>
      <trkpt lat="45.810192" lon="6.061713">
        <ele>639.445141</ele>
        <time>2017-06-02T12:16:44.000Z</time>
      </trkpt>
      <trkpt lat="45.810116" lon="6.061777">
        <ele>639.685451</ele>
        <time>2017-06-02T12:16:47.000Z</time>
      </trkpt>
      <trkpt lat="45.810017" lon="6.061872">
        <ele>640.011917</ele>
        <time>2017-06-02T12:16:50.000Z</time>
      </trkpt>
      <trkpt lat="45.809933" lon="6.061981">
        <ele>640.322372</ele>
        <time>2017-06-02T12:16:53.000Z</time>
      </trkpt>
      <trkpt lat="45.809822" lon="6.062037">
        <ele>640.644888</ele>
        <time>2017-06-02T12:16:56.000Z</time>
      </trkpt>
      <trkpt lat="45.809723" lon="6.062112">
        <ele>640.951758</ele>
        <time>2017-06-02T12:16:59.000Z</time>
      </trkpt>
      <trkpt lat="45.809605" lon="6.062169">
        <ele>641.293038</ele>
        <time>2017-06-02T12:17:02.000Z</time>
      </trkpt>
      <trkpt lat="45.809490" lon="6.062197">
        <ele>641.612761</ele>
        <time>2017-06-02T12:17:05.000Z</time>
      </trkpt>
      <trkpt lat="45.809406" lon="6.062141">
        <ele>641.866651</ele>
        <time>2017-06-02T12:17:07.000Z</time>
      </trkpt>
      <trkpt lat="45.809290" lon="6.062051">
        <ele>642.228126</ele>
        <time>2017-06-02T12:17:10.000Z</time>
      </trkpt>
      <trkpt lat="45.809208" lon="6.061982">
        <ele>642.488699</ele>
        <time>2017-06-02T12:17:12.000Z</time>
      </trkpt>
      <trkpt lat="45.809128" lon="6.061917">
        <ele>642.740704</ele>
        <time>2017-06-02T12:17:14.000Z</time>
      </trkpt>
      <trkpt lat="45.809006" lon="6.061824">
        <ele>643.119383</ele>
        <time>2017-06-02T12:17:17.000Z</time>
      </trkpt>
      <trkpt lat="45.808887" lon="6.061740">
        <ele>643.482909</ele>
        <time>2017-06-02T12:17:20.000Z</time>
      </trkpt>
      <trkpt lat="45.808765" lon="6.061657">
        <ele>643.853008</ele>
        <time>2017-06-02T12:17:23.000Z</time>
      </trkpt>
      <trkpt lat="45.808680" lon="6.061604">
        <ele>644.107048</ele>
        <time>2017-06-02T12:17:25.000Z</time>
      </trkpt>
      <trkpt lat="45.808582" lon="6.061509">
        <ele>644.394373</ele>
        <time>2017-06-02T12:17:28.000Z</time>
      </trkpt>
      <trkpt lat="45.808487" lon="6.061409">
        <ele>644.271601</ele>
        <time>2017-06-02T12:17:31.000Z</time>
      </trkpt>
      <trkpt lat="45.808400" lon="6.061333">
        <ele>644.165468</ele>
        <time>2017-06-02T12:17:34.000Z</time>
      </trkpt>
      <trkpt lat="45.808300" lon="6.061271">
        <ele>644.051959</ele>
        <time>2017-06-02T12:17:37.000Z</time>
      </trkpt>
      <trkpt lat="45.808197" lon="6.061211">
        <ele>643.936129</ele>
        <time>2017-06-02T12:17:40.000Z</time>
      </trkpt>
      <trkpt lat="45.808090" lon="6.061129">
        <ele>643.809730</ele>
        <time>2017-06-02T12:17:43.000Z</time>
      </trkpt>
      <trkpt lat="45.807983" lon="6.061051">
        <ele>643.684674</ele>
        <time>2017-06-02T12:17:46.000Z</time>
      </trkpt>
      <trkpt lat="45.807896" lon="6.060971">
        <ele>643.577001</ele>
        <time>2017-06-02T12:17:49.000Z</time>
      </trkpt>
      <trkpt lat="45.807796" lon="6.060901">
        <ele>643.461065</ele>
        <time>2017-06-02T12:17:52.000Z</time>
      </trkpt>
      <trkpt lat="45.807710" lon="6.060833">
        <ele>643.358748</ele>
        <time>2017-06-02T12:17:55.000Z</time>
      </trkpt>
      <trkpt lat="45.807625" lon="6.060754">
        <ele>643.253220</ele>
        <time>2017-06-02T12:17:58.000Z</time>
      </trkpt>
      <trkpt lat="45.807533" lon="6.060670">
        <ele>643.139593</ele>
        <time>2017-06-02T12:18:01.000Z</time>
      </trkpt>
      <trkpt lat="45.807434" lon="6.060580">
        <ele>643.017472</ele>
        <time>2017-06-02T12:18:04.000Z</time>
      </trkpt>
      <trkpt lat="45.807335" lon="6.060494">
        <ele>642.896882</ele>
        <time>2017-06-02T12:18:07.000Z</time>
      </trkpt>
      <trkpt lat="45.807220" lon="6.060405">
        <ele>642.760734</ele>
        <time>2017-06-02T12:18:10.000Z</time>
      </trkpt>
      <trkpt lat="45.807117" lon="6.060285">
        <ele>642.622480</ele>
        <time>2017-06-02T12:18:13.000Z</time>
      </trkpt>
      <trkpt lat="45.807014" lon="6.060165">
        <ele>642.495148</ele>
        <time>2017-06-02T12:18:16.000Z</time>
      </trkpt>
      <trkpt lat="45.806923" lon="6.060100">
        <ele>642.414261</ele>
        <time>2017-06-02T12:18:18.000Z</time>
      </trkpt>
      <trkpt lat="45.806835" lon="6.060046">
        <ele>642.338104</ele>
        <time>2017-06-02T12:18:20.000Z</time>
      </trkpt>
      <trkpt lat="45.806750" lon="6.060006">
        <ele>642.266924</ele>
        <time>2017-06-02T12:18:22.000Z</time>
      </trkpt>
      <trkpt lat="45.806633" lon="6.059935">
        <ele>642.165841</ele>
        <time>2017-06-02T12:18:25.000Z</time>
      </trkpt>
      <trkpt lat="45.806515" lon="6.059856">
        <ele>642.062228</ele>
        <time>2017-06-02T12:18:28.000Z</time>
      </trkpt>
      <trkpt lat="45.806396" lon="6.059760">
        <ele>641.953596</ele>
        <time>2017-06-02T12:18:31.000Z</time>
      </trkpt>
      <trkpt lat="45.806320" lon="6.059676">
        <ele>641.877257</ele>
        <time>2017-06-02T12:18:33.000Z</time>
      </trkpt>
      <trkpt lat="45.806225" lon="6.059612">
        <ele>641.793746</ele>
        <time>2017-06-02T12:18:35.000Z</time>
      </trkpt>
      <trkpt lat="45.806137" lon="6.059560">
        <ele>641.718017</ele>
        <time>2017-06-02T12:18:37.000Z</time>
      </trkpt>
      <trkpt lat="45.806046" lon="6.059511">
        <ele>641.640677</ele>
        <time>2017-06-02T12:18:39.000Z</time>
      </trkpt>
      <trkpt lat="45.805950" lon="6.059464">
        <ele>641.559964</ele>
        <time>2017-06-02T12:18:41.000Z</time>
      </trkpt>
      <trkpt lat="45.805847" lon="6.059431">
        <ele>641.475989</ele>
        <time>2017-06-02T12:18:43.000Z</time>
      </trkpt>
      <trkpt lat="45.805744" lon="6.059382">
        <ele>641.389644</ele>
        <time>2017-06-02T12:18:45.000Z</time>
      </trkpt>
      <trkpt lat="45.805645" lon="6.059329">
        <ele>641.305564</ele>
        <time>2017-06-02T12:18:47.000Z</time>
      </trkpt>
      <trkpt lat="45.805553" lon="6.059294">
        <ele>641.229830</ele>
        <time>2017-06-02T12:18:49.000Z</time>
      </trkpt>
      <trkpt lat="45.805458" lon="6.059240">
        <ele>641.148521</ele>
        <time>2017-06-02T12:18:51.000Z</time>
      </trkpt>
      <trkpt lat="45.805350" lon="6.059198">
        <ele>641.036175</ele>
        <time>2017-06-02T12:18:53.000Z</time>
      </trkpt>
      <trkpt lat="45.805240" lon="6.059147">
        <ele>640.890308</ele>
        <time>2017-06-02T12:18:55.000Z</time>
      </trkpt>
      <trkpt lat="45.805134" lon="6.059094">
        <ele>640.748665</ele>
        <time>2017-06-02T12:18:57.000Z</time>
      </trkpt>
      <trkpt lat="45.805027" lon="6.059041">
        <ele>640.605831</ele>
        <time>2017-06-02T12:18:59.000Z</time>
      </trkpt>
      <trkpt lat="45.804920" lon="6.058986">
        <ele>640.462412</ele>
        <time>2017-06-02T12:19:01.000Z</time>
      </trkpt>
      <trkpt lat="45.804813" lon="6.058938">
        <ele>640.320952</ele>
        <time>2017-06-02T12:19:03.000Z</time>
      </trkpt>
      <trkpt lat="45.804707" lon="6.058886">
        <ele>640.179596</ele>
        <time>2017-06-02T12:19:05.000Z</time>
      </trkpt>
      <trkpt lat="45.804600" lon="6.058828">
        <ele>640.035266</ele>
        <time>2017-06-02T12:19:07.000Z</time>
      </trkpt>
      <trkpt lat="45.804493" lon="6.058783">
        <ele>639.894571</ele>
        <time>2017-06-02T12:19:09.000Z</time>
      </trkpt>
      <trkpt lat="45.804386" lon="6.058738">
        <ele>639.753875</ele>
        <time>2017-06-02T12:19:11.000Z</time>
      </trkpt>
      <trkpt lat="45.804283" lon="6.058694">
        <ele>639.618270</ele>
        <time>2017-06-02T12:19:13.000Z</time>
      </trkpt>
      <trkpt lat="45.804170" lon="6.058648">
        <ele>639.470056</ele>
        <time>2017-06-02T12:19:15.000Z</time>
      </trkpt>
      <trkpt lat="45.804054" lon="6.058603">
        <ele>639.318430</ele>
        <time>2017-06-02T12:19:17.000Z</time>
      </trkpt>
      <trkpt lat="45.803936" lon="6.058547">
        <ele>639.161601</ele>
        <time>2017-06-02T12:19:19.000Z</time>
      </trkpt>
      <trkpt lat="45.803814" lon="6.058489">
        <ele>638.999427</ele>
        <time>2017-06-02T12:19:21.000Z</time>
      </trkpt>
      <trkpt lat="45.803688" lon="6.058431">
        <ele>638.832455</ele>
        <time>2017-06-02T12:19:23.000Z</time>
      </trkpt>
      <trkpt lat="45.803560" lon="6.058370">
        <ele>638.613086</ele>
        <time>2017-06-02T12:19:25.000Z</time>
      </trkpt>
      <trkpt lat="45.803430" lon="6.058314">
        <ele>638.391525</ele>
        <time>2017-06-02T12:19:27.000Z</time>
      </trkpt>
      <trkpt lat="45.803295" lon="6.058256">
        <ele>638.161492</ele>
        <time>2017-06-02T12:19:29.000Z</time>
      </trkpt>
      <trkpt lat="45.803173" lon="6.058192">
        <ele>637.949452</ele>
        <time>2017-06-02T12:19:31.000Z</time>
      </trkpt>
      <trkpt lat="45.803055" lon="6.058140">
        <ele>637.747956</ele>
        <time>2017-06-02T12:19:33.000Z</time>
      </trkpt>
      <trkpt lat="45.802883" lon="6.058067">
        <ele>637.455168</ele>
        <time>2017-06-02T12:19:36.000Z</time>
      </trkpt>
      <trkpt lat="45.802770" lon="6.058019">
        <ele>637.262800</ele>
        <time>2017-06-02T12:19:38.000Z</time>
      </trkpt>
      <trkpt lat="45.802654" lon="6.057979">
        <ele>637.068058</ele>
        <time>2017-06-02T12:19:40.000Z</time>
      </trkpt>
      <trkpt lat="45.802494" lon="6.057920">
        <ele>636.798398</ele>
        <time>2017-06-02T12:19:43.000Z</time>
      </trkpt>
      <trkpt lat="45.802380" lon="6.057880">
        <ele>636.606829</ele>
        <time>2017-06-02T12:19:45.000Z</time>
      </trkpt>
      <trkpt lat="45.802270" lon="6.057845">
        <ele>636.422911</ele>
        <time>2017-06-02T12:19:47.000Z</time>
      </trkpt>
      <trkpt lat="45.802086" lon="6.057793">
        <ele>636.116793</ele>
        <time>2017-06-02T12:19:50.000Z</time>
      </trkpt>
      <trkpt lat="45.801952" lon="6.057766">
        <ele>635.895917</ele>
        <time>2017-06-02T12:19:52.000Z</time>
      </trkpt>
      <trkpt lat="45.801820" lon="6.057735">
        <ele>635.814265</ele>
        <time>2017-06-02T12:19:54.000Z</time>
      </trkpt>
      <trkpt lat="45.801685" lon="6.057709">
        <ele>635.732469</ele>
        <time>2017-06-02T12:19:56.000Z</time>
      </trkpt>
      <trkpt lat="45.801560" lon="6.057677">
        <ele>635.656219</ele>
        <time>2017-06-02T12:19:58.000Z</time>
      </trkpt>
      <trkpt lat="45.801437" lon="6.057643">
        <ele>635.580998</ele>
        <time>2017-06-02T12:20:00.000Z</time>
      </trkpt>
      <trkpt lat="45.801315" lon="6.057622">
        <ele>635.507210</ele>
        <time>2017-06-02T12:20:02.000Z</time>
      </trkpt>
      <trkpt lat="45.801197" lon="6.057601">
        <ele>635.435807</ele>
        <time>2017-06-02T12:20:04.000Z</time>
      </trkpt>
      <trkpt lat="45.801080" lon="6.057572">
        <ele>635.364506</ele>
        <time>2017-06-02T12:20:06.000Z</time>
      </trkpt>
      <trkpt lat="45.800964" lon="6.057553">
        <ele>635.294395</ele>
        <time>2017-06-02T12:20:08.000Z</time>
      </trkpt>
      <trkpt lat="45.800797" lon="6.057516">
        <ele>635.192920</ele>
        <time>2017-06-02T12:20:11.000Z</time>
      </trkpt>
      <trkpt lat="45.800690" lon="6.057492">
        <ele>635.127885</ele>
        <time>2017-06-02T12:20:13.000Z</time>
      </trkpt>
      <trkpt lat="45.800587" lon="6.057466">
        <ele>635.065082</ele>
        <time>2017-06-02T12:20:15.000Z</time>
      </trkpt>
      <trkpt lat="45.800480" lon="6.057442">
        <ele>635.000047</ele>
        <time>2017-06-02T12:20:17.000Z</time>
      </trkpt>
      <trkpt lat="45.800373" lon="6.057420">
        <ele>634.935136</ele>
        <time>2017-06-02T12:20:19.000Z</time>
      </trkpt>
      <trkpt lat="45.800260" lon="6.057396">
        <ele>634.866539</ele>
        <time>2017-06-02T12:20:21.000Z</time>
      </trkpt>
      <trkpt lat="45.800137" lon="6.057389">
        <ele>634.811829</ele>
        <time>2017-06-02T12:20:23.000Z</time>
      </trkpt>
      <trkpt lat="45.800014" lon="6.057390">
        <ele>634.805230</ele>
        <time>2017-06-02T12:20:25.000Z</time>
      </trkpt>
      <trkpt lat="45.799896" lon="6.057404">
        <ele>634.798878</ele>
        <time>2017-06-02T12:20:27.000Z</time>
      </trkpt>
      <trkpt lat="45.799780" lon="6.057428">
        <ele>634.792591</ele>
        <time>2017-06-02T12:20:29.000Z</time>
      </trkpt>
      <trkpt lat="45.799680" lon="6.057456">
        <ele>634.787125</ele>
        <time>2017-06-02T12:20:31.000Z</time>
      </trkpt>
      <trkpt lat="45.799583" lon="6.057505">
        <ele>634.781608</ele>
        <time>2017-06-02T12:20:33.000Z</time>
      </trkpt>
      <trkpt lat="45.799496" lon="6.057550">
        <ele>634.776647</ele>
        <time>2017-06-02T12:20:35.000Z</time>
      </trkpt>
      <trkpt lat="45.799400" lon="6.057593">
        <ele>634.771251</ele>
        <time>2017-06-02T12:20:37.000Z</time>
      </trkpt>
      <trkpt lat="45.799313" lon="6.057647">
        <ele>634.766166</ele>
        <time>2017-06-02T12:20:39.000Z</time>
      </trkpt>
      <trkpt lat="45.799220" lon="6.057711">
        <ele>634.760632</ele>
        <time>2017-06-02T12:20:41.000Z</time>
      </trkpt>
      <trkpt lat="45.799120" lon="6.057756">
        <ele>634.755010</ele>
        <time>2017-06-02T12:20:43.000Z</time>
      </trkpt>
      <trkpt lat="45.798970" lon="6.057785">
        <ele>634.746890</ele>
        <time>2017-06-02T12:20:46.000Z</time>
      </trkpt>
      <trkpt lat="45.798860" lon="6.057762">
        <ele>634.740927</ele>
        <time>2017-06-02T12:20:48.000Z</time>
      </trkpt>
      <trkpt lat="45.798695" lon="6.057710">
        <ele>634.731864</ele>
        <time>2017-06-02T12:20:51.000Z</time>
      </trkpt>
      <trkpt lat="45.798588" lon="6.057680">
        <ele>634.726015</ele>
        <time>2017-06-02T12:20:53.000Z</time>
      </trkpt>
      <trkpt lat="45.798473" lon="6.057645">
        <ele>634.719708</ele>
        <time>2017-06-02T12:20:55.000Z</time>
      </trkpt>
      <trkpt lat="45.798370" lon="6.057598">
        <ele>634.660353</ele>
        <time>2017-06-02T12:20:57.000Z</time>
      </trkpt>
      <trkpt lat="45.798286" lon="6.057527">
        <ele>634.570563</ele>
        <time>2017-06-02T12:20:59.000Z</time>
      </trkpt>
      <trkpt lat="45.798195" lon="6.057465">
        <ele>634.477784</ele>
        <time>2017-06-02T12:21:02.000Z</time>
      </trkpt>
      <trkpt lat="45.798237" lon="6.057583">
        <ele>634.392719</ele>
        <time>2017-06-02T12:21:30.000Z</time>
      </trkpt>
      <trkpt lat="45.798360" lon="6.057606">
        <ele>634.278486</ele>
        <time>2017-06-02T12:21:33.000Z</time>
      </trkpt>
      <trkpt lat="45.798450" lon="6.057633">
        <ele>634.193810</ele>
        <time>2017-06-02T12:21:36.000Z</time>
      </trkpt>
      <trkpt lat="45.798550" lon="6.057677">
        <ele>634.097481</ele>
        <time>2017-06-02T12:21:40.000Z</time>
      </trkpt>
      <trkpt lat="45.798460" lon="6.057658">
        <ele>634.013705</ele>
        <time>2017-06-02T12:24:28.000Z</time>
      </trkpt>
      <trkpt lat="45.798355" lon="6.057602">
        <ele>633.910539</ele>
        <time>2017-06-02T12:24:34.000Z</time>
      </trkpt>
      <trkpt lat="45.798256" lon="6.057541">
        <ele>633.811311</ele>
        <time>2017-06-02T12:24:38.000Z</time>
      </trkpt>
      <trkpt lat="45.798170" lon="6.057493">
        <ele>633.726326</ele>
        <time>2017-06-02T12:24:41.000Z</time>
      </trkpt>
      <trkpt lat="45.798084" lon="6.057436">
        <ele>633.639080</ele>
        <time>2017-06-02T12:24:44.000Z</time>
      </trkpt>
      <trkpt lat="45.797990" lon="6.057375">
        <ele>633.544065</ele>
        <time>2017-06-02T12:24:47.000Z</time>
      </trkpt>
      <trkpt lat="45.797886" lon="6.057314">
        <ele>633.440590</ele>
        <time>2017-06-02T12:24:50.000Z</time>
      </trkpt>
      <trkpt lat="45.797787" lon="6.057244">
        <ele>633.338942</ele>
        <time>2017-06-02T12:24:53.000Z</time>
      </trkpt>
      <trkpt lat="45.797688" lon="6.057162">
        <ele>633.233660</ele>
        <time>2017-06-02T12:24:56.000Z</time>
      </trkpt>
      <trkpt lat="45.797565" lon="6.057109">
        <ele>633.115385</ele>
        <time>2017-06-02T12:24:59.000Z</time>
      </trkpt>
      <trkpt lat="45.797455" lon="6.057041">
        <ele>632.966057</ele>
        <time>2017-06-02T12:25:02.000Z</time>
      </trkpt>
      <trkpt lat="45.797337" lon="6.056965">
        <ele>632.763532</ele>
        <time>2017-06-02T12:25:05.000Z</time>
      </trkpt>
      <trkpt lat="45.797250" lon="6.056922">
        <ele>632.619455</ele>
        <time>2017-06-02T12:25:07.000Z</time>
      </trkpt>
      <trkpt lat="45.797165" lon="6.056870">
        <ele>632.474770</ele>
        <time>2017-06-02T12:25:09.000Z</time>
      </trkpt>
      <trkpt lat="45.797077" lon="6.056811">
        <ele>632.322678</ele>
        <time>2017-06-02T12:25:11.000Z</time>
      </trkpt>
      <trkpt lat="45.796980" lon="6.056751">
        <ele>632.157284</ele>
        <time>2017-06-02T12:25:13.000Z</time>
      </trkpt>
      <trkpt lat="45.796883" lon="6.056679">
        <ele>631.986278</ele>
        <time>2017-06-02T12:25:15.000Z</time>
      </trkpt>
      <trkpt lat="45.796780" lon="6.056618">
        <ele>631.811804</ele>
        <time>2017-06-02T12:25:17.000Z</time>
      </trkpt>
      <trkpt lat="45.796665" lon="6.056550">
        <ele>631.617046</ele>
        <time>2017-06-02T12:25:19.000Z</time>
      </trkpt>
      <trkpt lat="45.796562" lon="6.056479">
        <ele>631.438121</ele>
        <time>2017-06-02T12:25:21.000Z</time>
      </trkpt>
      <trkpt lat="45.796455" lon="6.056411">
        <ele>631.254882</ele>
        <time>2017-06-02T12:25:23.000Z</time>
      </trkpt>
      <trkpt lat="45.796345" lon="6.056336">
        <ele>631.064185</ele>
        <time>2017-06-02T12:25:25.000Z</time>
      </trkpt>
      <trkpt lat="45.796234" lon="6.056263">
        <ele>630.872993</ele>
        <time>2017-06-02T12:25:27.000Z</time>
      </trkpt>
      <trkpt lat="45.796112" lon="6.056199">
        <ele>630.669601</ele>
        <time>2017-06-02T12:25:29.000Z</time>
      </trkpt>
      <trkpt lat="45.795990" lon="6.056126">
        <ele>630.462629</ele>
        <time>2017-06-02T12:25:31.000Z</time>
      </trkpt>
      <trkpt lat="45.795883" lon="6.056058">
        <ele>630.279389</ele>
        <time>2017-06-02T12:25:33.000Z</time>
      </trkpt>
      <trkpt lat="45.795776" lon="6.056009">
        <ele>630.204910</ele>
        <time>2017-06-02T12:25:35.000Z</time>
      </trkpt>
      <trkpt lat="45.795666" lon="6.055979">
        <ele>630.155536</ele>
        <time>2017-06-02T12:25:37.000Z</time>
      </trkpt>
      <trkpt lat="45.795567" lon="6.055943">
        <ele>630.110500</ele>
        <time>2017-06-02T12:25:39.000Z</time>
      </trkpt>
      <trkpt lat="45.795475" lon="6.055903">
        <ele>630.068109</ele>
        <time>2017-06-02T12:25:41.000Z</time>
      </trkpt>
      <trkpt lat="45.795376" lon="6.055883">
        <ele>630.024023</ele>
        <time>2017-06-02T12:25:43.000Z</time>
      </trkpt>
      <trkpt lat="45.795288" lon="6.055865">
        <ele>629.984826</ele>
        <time>2017-06-02T12:25:45.000Z</time>
      </trkpt>
      <trkpt lat="45.795162" lon="6.055849">
        <ele>629.929048</ele>
        <time>2017-06-02T12:25:48.000Z</time>
      </trkpt>
      <trkpt lat="45.795040" lon="6.055811">
        <ele>629.873998</ele>
        <time>2017-06-02T12:25:51.000Z</time>
      </trkpt>
      <trkpt lat="45.794907" lon="6.055787">
        <ele>629.814888</ele>
        <time>2017-06-02T12:25:54.000Z</time>
      </trkpt>
      <trkpt lat="45.794815" lon="6.055765">
        <ele>629.773760</ele>
        <time>2017-06-02T12:25:56.000Z</time>
      </trkpt>
      <trkpt lat="45.794724" lon="6.055743">
        <ele>629.733067</ele>
        <time>2017-06-02T12:25:58.000Z</time>
      </trkpt>
      <trkpt lat="45.794590" lon="6.055726">
        <ele>629.673748</ele>
        <time>2017-06-02T12:26:01.000Z</time>
      </trkpt>
      <trkpt lat="45.794456" lon="6.055742">
        <ele>629.614455</ele>
        <time>2017-06-02T12:26:04.000Z</time>
      </trkpt>
      <trkpt lat="45.794327" lon="6.055746">
        <ele>629.557559</ele>
        <time>2017-06-02T12:26:07.000Z</time>
      </trkpt>
      <trkpt lat="45.794235" lon="6.055749">
        <ele>629.516980</ele>
        <time>2017-06-02T12:26:09.000Z</time>
      </trkpt>
      <trkpt lat="45.794110" lon="6.055763">
        <ele>629.461693</ele>
        <time>2017-06-02T12:26:12.000Z</time>
      </trkpt>
      <trkpt lat="45.793980" lon="6.055770">
        <ele>629.616458</ele>
        <time>2017-06-02T12:26:15.000Z</time>
      </trkpt>
      <trkpt lat="45.793850" lon="6.055759">
        <ele>629.817084</ele>
        <time>2017-06-02T12:26:18.000Z</time>
      </trkpt>
      <trkpt lat="45.793760" lon="6.055748">
        <ele>629.956240</ele>
        <time>2017-06-02T12:26:20.000Z</time>
      </trkpt>
      <trkpt lat="45.793663" lon="6.055718">
        <ele>630.109113</ele>
        <time>2017-06-02T12:26:22.000Z</time>
      </trkpt>
      <trkpt lat="45.793575" lon="6.055674">
        <ele>630.252688</ele>
        <time>2017-06-02T12:26:24.000Z</time>
      </trkpt>
      <trkpt lat="45.793495" lon="6.055608">
        <ele>630.394871</ele>
        <time>2017-06-02T12:26:26.000Z</time>
      </trkpt>
      <trkpt lat="45.793410" lon="6.055541">
        <ele>630.544296</ele>
        <time>2017-06-02T12:26:28.000Z</time>
      </trkpt>
      <trkpt lat="45.793330" lon="6.055471">
        <ele>630.688670</ele>
        <time>2017-06-02T12:26:30.000Z</time>
      </trkpt>
      <trkpt lat="45.793210" lon="6.055387">
        <ele>630.894386</ele>
        <time>2017-06-02T12:26:33.000Z</time>
      </trkpt>
      <trkpt lat="45.793095" lon="6.055326">
        <ele>631.083284</ele>
        <time>2017-06-02T12:26:36.000Z</time>
      </trkpt>
      <trkpt lat="45.792973" lon="6.055276">
        <ele>631.278760</ele>
        <time>2017-06-02T12:26:39.000Z</time>
      </trkpt>
      <trkpt lat="45.792840" lon="6.055262">
        <ele>631.484210</ele>
        <time>2017-06-02T12:26:42.000Z</time>
      </trkpt>
      <trkpt lat="45.792740" lon="6.055259">
        <ele>631.638303</ele>
        <time>2017-06-02T12:26:44.000Z</time>
      </trkpt>
      <trkpt lat="45.792650" lon="6.055255">
        <ele>631.777023</ele>
        <time>2017-06-02T12:26:46.000Z</time>
      </trkpt>
      <trkpt lat="45.792522" lon="6.055255">
        <ele>631.974220</ele>
        <time>2017-06-02T12:26:49.000Z</time>
      </trkpt>
      <trkpt lat="45.792416" lon="6.055257">
        <ele>632.137537</ele>
        <time>2017-06-02T12:26:52.000Z</time>
      </trkpt>
      <trkpt lat="45.792300" lon="6.055259">
        <ele>632.134374</ele>
        <time>2017-06-02T12:26:55.000Z</time>
      </trkpt>
      <trkpt lat="45.792180" lon="6.055306">
        <ele>631.954186</ele>
        <time>2017-06-02T12:26:58.000Z</time>
      </trkpt>
      <trkpt lat="45.792072" lon="6.055369">
        <ele>631.785299</ele>
        <time>2017-06-02T12:27:01.000Z</time>
      </trkpt>
      <trkpt lat="45.791977" lon="6.055413">
        <ele>631.640691</ele>
        <time>2017-06-02T12:27:04.000Z</time>
      </trkpt>
      <trkpt lat="45.791874" lon="6.055455">
        <ele>631.485580</ele>
        <time>2017-06-02T12:27:07.000Z</time>
      </trkpt>
      <trkpt lat="45.791756" lon="6.055517">
        <ele>631.303544</ele>
        <time>2017-06-02T12:27:10.000Z</time>
      </trkpt>
      <trkpt lat="45.791668" lon="6.055554">
        <ele>631.170709</ele>
        <time>2017-06-02T12:27:12.000Z</time>
      </trkpt>
      <trkpt lat="45.791542" lon="6.055587">
        <ele>630.985176</ele>
        <time>2017-06-02T12:27:15.000Z</time>
      </trkpt>
      <trkpt lat="45.791443" lon="6.055589">
        <ele>630.841758</ele>
        <time>2017-06-02T12:27:17.000Z</time>
      </trkpt>
      <trkpt lat="45.791344" lon="6.055583">
        <ele>630.698226</ele>
        <time>2017-06-02T12:27:19.000Z</time>
      </trkpt>
      <trkpt lat="45.791245" lon="6.055581">
        <ele>630.554808</ele>
        <time>2017-06-02T12:27:21.000Z</time>
      </trkpt>
      <trkpt lat="45.791140" lon="6.055575">
        <ele>630.402592</ele>
        <time>2017-06-02T12:27:23.000Z</time>
      </trkpt>
      <trkpt lat="45.791035" lon="6.055573">
        <ele>630.250483</ele>
        <time>2017-06-02T12:27:25.000Z</time>
      </trkpt>
      <trkpt lat="45.790936" lon="6.055563">
        <ele>630.106724</ele>
        <time>2017-06-02T12:27:27.000Z</time>
      </trkpt>
      <trkpt lat="45.790836" lon="6.055553">
        <ele>629.961519</ele>
        <time>2017-06-02T12:27:29.000Z</time>
      </trkpt>
      <trkpt lat="45.790740" lon="6.055529">
        <ele>629.820364</ele>
        <time>2017-06-02T12:27:31.000Z</time>
      </trkpt>
      <trkpt lat="45.790657" lon="6.055493">
        <ele>629.694758</ele>
        <time>2017-06-02T12:27:33.000Z</time>
      </trkpt>
      <trkpt lat="45.790546" lon="6.055435">
        <ele>629.689135</ele>
        <time>2017-06-02T12:27:36.000Z</time>
      </trkpt>
      <trkpt lat="45.790447" lon="6.055373">
        <ele>629.809632</ele>
        <time>2017-06-02T12:27:39.000Z</time>
      </trkpt>
      <trkpt lat="45.790363" lon="6.055318">
        <ele>629.912632</ele>
        <time>2017-06-02T12:27:42.000Z</time>
      </trkpt>
      <trkpt lat="45.790276" lon="6.055265">
        <ele>630.018066</ele>
        <time>2017-06-02T12:27:45.000Z</time>
      </trkpt>
      <trkpt lat="45.790180" lon="6.055207">
        <ele>630.134262</ele>
        <time>2017-06-02T12:27:48.000Z</time>
      </trkpt>
      <trkpt lat="45.790077" lon="6.055121">
        <ele>630.267204</ele>
        <time>2017-06-02T12:27:51.000Z</time>
      </trkpt>
      <trkpt lat="45.789980" lon="6.055064">
        <ele>630.384132</ele>
        <time>2017-06-02T12:27:54.000Z</time>
      </trkpt>
      <trkpt lat="45.789898" lon="6.054999">
        <ele>630.488639</ele>
        <time>2017-06-02T12:27:57.000Z</time>
      </trkpt>
      <trkpt lat="45.789814" lon="6.054947">
        <ele>630.590691</ele>
        <time>2017-06-02T12:28:00.000Z</time>
      </trkpt>
      <trkpt lat="45.789707" lon="6.054890">
        <ele>630.718011</ele>
        <time>2017-06-02T12:28:04.000Z</time>
      </trkpt>
      <trkpt lat="45.789600" lon="6.054825">
        <ele>630.847628</ele>
        <time>2017-06-02T12:28:08.000Z</time>
      </trkpt>
      <trkpt lat="45.789510" lon="6.054762">
        <ele>630.959337</ele>
        <time>2017-06-02T12:28:11.000Z</time>
      </trkpt>
      <trkpt lat="45.789413" lon="6.054702">
        <ele>631.077169</ele>
        <time>2017-06-02T12:28:14.000Z</time>
      </trkpt>
      <trkpt lat="45.789320" lon="6.054639">
        <ele>631.191895</ele>
        <time>2017-06-02T12:28:17.000Z</time>
      </trkpt>
      <trkpt lat="45.789234" lon="6.054571">
        <ele>631.301436</ele>
        <time>2017-06-02T12:28:20.000Z</time>
      </trkpt>
      <trkpt lat="45.789154" lon="6.054514">
        <ele>631.401077</ele>
        <time>2017-06-02T12:28:23.000Z</time>
      </trkpt>
      <trkpt lat="45.789040" lon="6.054481">
        <ele>631.530800</ele>
        <time>2017-06-02T12:28:27.000Z</time>
      </trkpt>
      <trkpt lat="45.788944" lon="6.054453">
        <ele>631.653414</ele>
        <time>2017-06-02T12:28:30.000Z</time>
      </trkpt>
      <trkpt lat="45.788837" lon="6.054474">
        <ele>631.870229</ele>
        <time>2017-06-02T12:28:33.000Z</time>
      </trkpt>
      <trkpt lat="45.788720" lon="6.054442">
        <ele>632.109352</ele>
        <time>2017-06-02T12:28:36.000Z</time>
      </trkpt>
      <trkpt lat="45.788590" lon="6.054455">
        <ele>632.370973</ele>
        <time>2017-06-02T12:28:39.000Z</time>
      </trkpt>
      <trkpt lat="45.788494" lon="6.054464">
        <ele>632.564114</ele>
        <time>2017-06-02T12:28:41.000Z</time>
      </trkpt>
      <trkpt lat="45.788383" lon="6.054478">
        <ele>632.787818</ele>
        <time>2017-06-02T12:28:43.000Z</time>
      </trkpt>
      <trkpt lat="45.788292" lon="6.054466">
        <ele>632.971280</ele>
        <time>2017-06-02T12:28:45.000Z</time>
      </trkpt>
      <trkpt lat="45.788155" lon="6.054448">
        <ele>633.247473</ele>
        <time>2017-06-02T12:28:48.000Z</time>
      </trkpt>
      <trkpt lat="45.788036" lon="6.054411">
        <ele>633.491928</ele>
        <time>2017-06-02T12:28:51.000Z</time>
      </trkpt>
      <trkpt lat="45.787920" lon="6.054371">
        <ele>633.731447</ele>
        <time>2017-06-02T12:28:54.000Z</time>
      </trkpt>
      <trkpt lat="45.787830" lon="6.054351">
        <ele>633.914287</ele>
        <time>2017-06-02T12:28:56.000Z</time>
      </trkpt>
      <trkpt lat="45.787740" lon="6.054307">
        <ele>634.105182</ele>
        <time>2017-06-02T12:28:58.000Z</time>
      </trkpt>
      <trkpt lat="45.787650" lon="6.054254">
        <ele>634.300507</ele>
        <time>2017-06-02T12:29:00.000Z</time>
      </trkpt>
      <trkpt lat="45.787548" lon="6.054267">
        <ele>634.506089</ele>
        <time>2017-06-02T12:29:02.000Z</time>
      </trkpt>
      <trkpt lat="45.787445" lon="6.054250">
        <ele>634.714237</ele>
        <time>2017-06-02T12:29:04.000Z</time>
      </trkpt>
      <trkpt lat="45.787308" lon="6.054241">
        <ele>634.989566</ele>
        <time>2017-06-02T12:29:07.000Z</time>
      </trkpt>
      <trkpt lat="45.787178" lon="6.054277">
        <ele>635.216552</ele>
        <time>2017-06-02T12:29:10.000Z</time>
      </trkpt>
      <trkpt lat="45.787052" lon="6.054329">
        <ele>634.993771</ele>
        <time>2017-06-02T12:29:13.000Z</time>
      </trkpt>
      <trkpt lat="45.786945" lon="6.054380">
        <ele>634.802183</ele>
        <time>2017-06-02T12:29:15.000Z</time>
      </trkpt>
      <trkpt lat="45.786840" lon="6.054419">
        <ele>634.617886</ele>
        <time>2017-06-02T12:29:17.000Z</time>
      </trkpt>
      <trkpt lat="45.786716" lon="6.054437">
        <ele>634.406115</ele>
        <time>2017-06-02T12:29:19.000Z</time>
      </trkpt>
      <trkpt lat="45.786600" lon="6.054427">
        <ele>634.208659</ele>
        <time>2017-06-02T12:29:21.000Z</time>
      </trkpt>
      <trkpt lat="45.786480" lon="6.054376">
        <ele>633.995995</ele>
        <time>2017-06-02T12:29:23.000Z</time>
      </trkpt>
      <trkpt lat="45.786360" lon="6.054345">
        <ele>633.788816</ele>
        <time>2017-06-02T12:29:25.000Z</time>
      </trkpt>
      <trkpt lat="45.786266" lon="6.054294">
        <ele>633.618047</ele>
        <time>2017-06-02T12:29:27.000Z</time>
      </trkpt>
      <trkpt lat="45.786160" lon="6.054265">
        <ele>633.434689</ele>
        <time>2017-06-02T12:29:29.000Z</time>
      </trkpt>
      <trkpt lat="45.786060" lon="6.054222">
        <ele>633.257301</ele>
        <time>2017-06-02T12:29:31.000Z</time>
      </trkpt>
      <trkpt lat="45.785957" lon="6.054178">
        <ele>633.074688</ele>
        <time>2017-06-02T12:29:33.000Z</time>
      </trkpt>
      <trkpt lat="45.785860" lon="6.054133">
        <ele>632.901461</ele>
        <time>2017-06-02T12:29:35.000Z</time>
      </trkpt>
      <trkpt lat="45.785760" lon="6.054091">
        <ele>632.724409</ele>
        <time>2017-06-02T12:29:37.000Z</time>
      </trkpt>
      <trkpt lat="45.785656" lon="6.054047">
        <ele>632.540168</ele>
        <time>2017-06-02T12:29:39.000Z</time>
      </trkpt>
      <trkpt lat="45.785560" lon="6.054001">
        <ele>632.368184</ele>
        <time>2017-06-02T12:29:41.000Z</time>
      </trkpt>
      <trkpt lat="45.785460" lon="6.053959">
        <ele>632.191132</ele>
        <time>2017-06-02T12:29:43.000Z</time>
      </trkpt>
      <trkpt lat="45.785360" lon="6.053927">
        <ele>632.255143</ele>
        <time>2017-06-02T12:29:45.000Z</time>
      </trkpt>
      <trkpt lat="45.785255" lon="6.053891">
        <ele>632.342731</ele>
        <time>2017-06-02T12:29:47.000Z</time>
      </trkpt>
      <trkpt lat="45.785164" lon="6.053841">
        <ele>632.421794</ele>
        <time>2017-06-02T12:29:49.000Z</time>
      </trkpt>
      <trkpt lat="45.785076" lon="6.053802">
        <ele>632.496521</ele>
        <time>2017-06-02T12:29:51.000Z</time>
      </trkpt>
      <trkpt lat="45.784977" lon="6.053789">
        <ele>632.577177</ele>
        <time>2017-06-02T12:29:53.000Z</time>
      </trkpt>
      <trkpt lat="45.784843" lon="6.053757">
        <ele>632.687390</ele>
        <time>2017-06-02T12:29:56.000Z</time>
      </trkpt>
      <trkpt lat="45.784748" lon="6.053743">
        <ele>632.764870</ele>
        <time>2017-06-02T12:29:58.000Z</time>
      </trkpt>
      <trkpt lat="45.784653" lon="6.053727">
        <ele>632.842475</ele>
        <time>2017-06-02T12:30:00.000Z</time>
      </trkpt>
      <trkpt lat="45.784560" lon="6.053708">
        <ele>632.918688</ele>
        <time>2017-06-02T12:30:02.000Z</time>
      </trkpt>
      <trkpt lat="45.784454" lon="6.053691">
        <ele>633.005223</ele>
        <time>2017-06-02T12:30:04.000Z</time>
      </trkpt>
      <trkpt lat="45.784355" lon="6.053670">
        <ele>633.086417</ele>
        <time>2017-06-02T12:30:06.000Z</time>
      </trkpt>
      <trkpt lat="45.784256" lon="6.053636">
        <ele>633.169008</ele>
        <time>2017-06-02T12:30:08.000Z</time>
      </trkpt>
      <trkpt lat="45.784153" lon="6.053601">
        <ele>633.254887</ele>
        <time>2017-06-02T12:30:10.000Z</time>
      </trkpt>
      <trkpt lat="45.784054" lon="6.053546">
        <ele>633.341024</ele>
        <time>2017-06-02T12:30:12.000Z</time>
      </trkpt>
      <trkpt lat="45.783960" lon="6.053515">
        <ele>633.419278</ele>
        <time>2017-06-02T12:30:14.000Z</time>
      </trkpt>
      <trkpt lat="45.783863" lon="6.053490">
        <ele>633.499236</ele>
        <time>2017-06-02T12:30:16.000Z</time>
      </trkpt>
      <trkpt lat="45.783770" lon="6.053448">
        <ele>633.578342</ele>
        <time>2017-06-02T12:30:18.000Z</time>
      </trkpt>
      <trkpt lat="45.783650" lon="6.053395">
        <ele>633.698712</ele>
        <time>2017-06-02T12:30:21.000Z</time>
      </trkpt>
      <trkpt lat="45.783527" lon="6.053368">
        <ele>633.843339</ele>
        <time>2017-06-02T12:30:24.000Z</time>
      </trkpt>
      <trkpt lat="45.783394" lon="6.053322">
        <ele>634.002358</ele>
        <time>2017-06-02T12:30:27.000Z</time>
      </trkpt>
      <trkpt lat="45.783300" lon="6.053291">
        <ele>634.114466</ele>
        <time>2017-06-02T12:30:29.000Z</time>
      </trkpt>
      <trkpt lat="45.783195" lon="6.053259">
        <ele>634.239233</ele>
        <time>2017-06-02T12:30:31.000Z</time>
      </trkpt>
      <trkpt lat="45.783096" lon="6.053248">
        <ele>634.354646</ele>
        <time>2017-06-02T12:30:33.000Z</time>
      </trkpt>
      <trkpt lat="45.783005" lon="6.053206">
        <ele>634.465759</ele>
        <time>2017-06-02T12:30:35.000Z</time>
      </trkpt>
      <trkpt lat="45.782880" lon="6.053178">
        <ele>634.612808</ele>
        <time>2017-06-02T12:30:38.000Z</time>
      </trkpt>
      <trkpt lat="45.782787" lon="6.053160">
        <ele>634.721882</ele>
        <time>2017-06-02T12:30:40.000Z</time>
      </trkpt>
      <trkpt lat="45.782654" lon="6.053128">
        <ele>634.878628</ele>
        <time>2017-06-02T12:30:43.000Z</time>
      </trkpt>
      <trkpt lat="45.782524" lon="6.053100">
        <ele>635.031422</ele>
        <time>2017-06-02T12:30:46.000Z</time>
      </trkpt>
      <trkpt lat="45.782410" lon="6.053070">
        <ele>635.166137</ele>
        <time>2017-06-02T12:30:49.000Z</time>
      </trkpt>
      <trkpt lat="45.782307" lon="6.053043">
        <ele>635.287837</ele>
        <time>2017-06-02T12:30:52.000Z</time>
      </trkpt>
      <trkpt lat="45.782220" lon="6.052998">
        <ele>635.395335</ele>
        <time>2017-06-02T12:30:55.000Z</time>
      </trkpt>
      <trkpt lat="45.782110" lon="6.052953">
        <ele>635.528289</ele>
        <time>2017-06-02T12:30:58.000Z</time>
      </trkpt>
      <trkpt lat="45.782000" lon="6.052916">
        <ele>635.659612</ele>
        <time>2017-06-02T12:31:01.000Z</time>
      </trkpt>
      <trkpt lat="45.781914" lon="6.052885">
        <ele>635.804963</ele>
        <time>2017-06-02T12:31:04.000Z</time>
      </trkpt>
      <trkpt lat="45.781820" lon="6.052862">
        <ele>636.050972</ele>
        <time>2017-06-02T12:31:07.000Z</time>
      </trkpt>
      <trkpt lat="45.781715" lon="6.052867">
        <ele>636.322003</ele>
        <time>2017-06-02T12:31:10.000Z</time>
      </trkpt>
      <trkpt lat="45.781616" lon="6.052876">
        <ele>636.577919</ele>
        <time>2017-06-02T12:31:13.000Z</time>
      </trkpt>
      <trkpt lat="45.781517" lon="6.052877">
        <ele>636.833328</ele>
        <time>2017-06-02T12:31:16.000Z</time>
      </trkpt>
      <trkpt lat="45.781414" lon="6.052880">
        <ele>637.099105</ele>
        <time>2017-06-02T12:31:19.000Z</time>
      </trkpt>
      <trkpt lat="45.781310" lon="6.052882">
        <ele>637.367431</ele>
        <time>2017-06-02T12:31:22.000Z</time>
      </trkpt>
      <trkpt lat="45.781208" lon="6.052881">
        <ele>637.630580</ele>
        <time>2017-06-02T12:31:25.000Z</time>
      </trkpt>
      <trkpt lat="45.781110" lon="6.052873">
        <ele>637.883812</ele>
        <time>2017-06-02T12:31:28.000Z</time>
      </trkpt>
      <trkpt lat="45.781010" lon="6.052864">
        <ele>638.142302</ele>
        <time>2017-06-02T12:31:31.000Z</time>
      </trkpt>
      <trkpt lat="45.780907" lon="6.052856">
        <ele>638.408414</ele>
        <time>2017-06-02T12:31:34.000Z</time>
      </trkpt>
      <trkpt lat="45.780807" lon="6.052840">
        <ele>638.667998</ele>
        <time>2017-06-02T12:31:37.000Z</time>
      </trkpt>
      <trkpt lat="45.780710" lon="6.052839">
        <ele>638.918247</ele>
        <time>2017-06-02T12:31:40.000Z</time>
      </trkpt>
      <trkpt lat="45.780613" lon="6.052827">
        <ele>639.169420</ele>
        <time>2017-06-02T12:31:43.000Z</time>
      </trkpt>
      <trkpt lat="45.780514" lon="6.052821">
        <ele>639.425051</ele>
        <time>2017-06-02T12:31:46.000Z</time>
      </trkpt>
      <trkpt lat="45.780422" lon="6.052813">
        <ele>639.662831</ele>
        <time>2017-06-02T12:31:49.000Z</time>
      </trkpt>
      <trkpt lat="45.780327" lon="6.052811">
        <ele>639.907941</ele>
        <time>2017-06-02T12:31:52.000Z</time>
      </trkpt>
      <trkpt lat="45.780235" lon="6.052806">
        <ele>640.145456</ele>
        <time>2017-06-02T12:31:55.000Z</time>
      </trkpt>
      <trkpt lat="45.780144" lon="6.052813">
        <ele>640.382288</ele>
        <time>2017-06-02T12:31:58.000Z</time>
      </trkpt>
      <trkpt lat="45.780050" lon="6.052812">
        <ele>640.658756</ele>
        <time>2017-06-02T12:32:02.000Z</time>
      </trkpt>
      <trkpt lat="45.779940" lon="6.052836">
        <ele>640.985996</ele>
        <time>2017-06-02T12:32:06.000Z</time>
      </trkpt>
      <trkpt lat="45.779850" lon="6.052878">
        <ele>641.264358</ele>
        <time>2017-06-02T12:32:09.000Z</time>
      </trkpt>
      <trkpt lat="45.779760" lon="6.052922">
        <ele>641.544016</ele>
        <time>2017-06-02T12:32:12.000Z</time>
      </trkpt>
      <trkpt lat="45.779660" lon="6.052965">
        <ele>641.851063</ele>
        <time>2017-06-02T12:32:15.000Z</time>
      </trkpt>
      <trkpt lat="45.779568" lon="6.053017">
        <ele>642.141904</ele>
        <time>2017-06-02T12:32:18.000Z</time>
      </trkpt>
      <trkpt lat="45.779484" lon="6.053069">
        <ele>642.410995</ele>
        <time>2017-06-02T12:32:21.000Z</time>
      </trkpt>
      <trkpt lat="45.779392" lon="6.053121">
        <ele>642.701836</ele>
        <time>2017-06-02T12:32:24.000Z</time>
      </trkpt>
      <trkpt lat="45.779305" lon="6.053162">
        <ele>642.971174</ele>
        <time>2017-06-02T12:32:27.000Z</time>
      </trkpt>
      <trkpt lat="45.779220" lon="6.053214">
        <ele>643.242968</ele>
        <time>2017-06-02T12:32:30.000Z</time>
      </trkpt>
      <trkpt lat="45.779114" lon="6.053267">
        <ele>643.573131</ele>
        <time>2017-06-02T12:32:34.000Z</time>
      </trkpt>
      <trkpt lat="45.779026" lon="6.053320">
        <ele>643.853849</ele>
        <time>2017-06-02T12:32:37.000Z</time>
      </trkpt>
      <trkpt lat="45.778927" lon="6.053364">
        <ele>644.158681</ele>
        <time>2017-06-02T12:32:40.000Z</time>
      </trkpt>
      <trkpt lat="45.778828" lon="6.053421">
        <ele>644.472443</ele>
        <time>2017-06-02T12:32:43.000Z</time>
      </trkpt>
      <trkpt lat="45.778710" lon="6.053473">
        <ele>644.835510</ele>
        <time>2017-06-02T12:32:46.000Z</time>
      </trkpt>
      <trkpt lat="45.778600" lon="6.053541">
        <ele>645.187814</ele>
        <time>2017-06-02T12:32:49.000Z</time>
      </trkpt>
      <trkpt lat="45.778480" lon="6.053612">
        <ele>645.569608</ele>
        <time>2017-06-02T12:32:52.000Z</time>
      </trkpt>
      <trkpt lat="45.778366" lon="6.053672">
        <ele>645.761394</ele>
        <time>2017-06-02T12:32:55.000Z</time>
      </trkpt>
      <trkpt lat="45.778244" lon="6.053738">
        <ele>645.908824</ele>
        <time>2017-06-02T12:32:58.000Z</time>
      </trkpt>
      <trkpt lat="45.778130" lon="6.053802">
        <ele>646.047245</ele>
        <time>2017-06-02T12:33:01.000Z</time>
      </trkpt>
      <trkpt lat="45.778015" lon="6.053872">
        <ele>646.188500</ele>
        <time>2017-06-02T12:33:04.000Z</time>
      </trkpt>
      <trkpt lat="45.777893" lon="6.053931">
        <ele>646.334073</ele>
        <time>2017-06-02T12:33:07.000Z</time>
      </trkpt>
      <trkpt lat="45.777775" lon="6.053986">
        <ele>646.474361</ele>
        <time>2017-06-02T12:33:10.000Z</time>
      </trkpt>
      <trkpt lat="45.777687" lon="6.054021">
        <ele>646.577614</ele>
        <time>2017-06-02T12:33:12.000Z</time>
      </trkpt>
      <trkpt lat="45.777600" lon="6.054064">
        <ele>646.681660</ele>
        <time>2017-06-02T12:33:14.000Z</time>
      </trkpt>
      <trkpt lat="45.777515" lon="6.054107">
        <ele>646.783571</ele>
        <time>2017-06-02T12:33:16.000Z</time>
      </trkpt>
      <trkpt lat="45.777420" lon="6.054153">
        <ele>646.896941</ele>
        <time>2017-06-02T12:33:18.000Z</time>
      </trkpt>
      <trkpt lat="45.777336" lon="6.054203">
        <ele>646.999774</ele>
        <time>2017-06-02T12:33:20.000Z</time>
      </trkpt>
      <trkpt lat="45.777250" lon="6.054257">
        <ele>647.105924</ele>
        <time>2017-06-02T12:33:22.000Z</time>
      </trkpt>
      <trkpt lat="45.777153" lon="6.054305">
        <ele>647.221945</ele>
        <time>2017-06-02T12:33:24.000Z</time>
      </trkpt>
      <trkpt lat="45.777060" lon="6.054346">
        <ele>647.331952</ele>
        <time>2017-06-02T12:33:26.000Z</time>
      </trkpt>
      <trkpt lat="45.776962" lon="6.054386">
        <ele>647.447157</ele>
        <time>2017-06-02T12:33:28.000Z</time>
      </trkpt>
      <trkpt lat="45.776875" lon="6.054435">
        <ele>647.552840</ele>
        <time>2017-06-02T12:33:30.000Z</time>
      </trkpt>
      <trkpt lat="45.776787" lon="6.054485">
        <ele>647.659864</ele>
        <time>2017-06-02T12:33:32.000Z</time>
      </trkpt>
      <trkpt lat="45.776700" lon="6.054535">
        <ele>647.812197</ele>
        <time>2017-06-02T12:33:34.000Z</time>
      </trkpt>
      <trkpt lat="45.776608" lon="6.054584">
        <ele>647.992581</ele>
        <time>2017-06-02T12:33:36.000Z</time>
      </trkpt>
      <trkpt lat="45.776516" lon="6.054627">
        <ele>648.170433</ele>
        <time>2017-06-02T12:33:38.000Z</time>
      </trkpt>
      <trkpt lat="45.776420" lon="6.054685">
        <ele>648.361905</ele>
        <time>2017-06-02T12:33:40.000Z</time>
      </trkpt>
      <trkpt lat="45.776333" lon="6.054727">
        <ele>648.530630</ele>
        <time>2017-06-02T12:33:42.000Z</time>
      </trkpt>
      <trkpt lat="45.776237" lon="6.054777">
        <ele>648.718357</ele>
        <time>2017-06-02T12:33:44.000Z</time>
      </trkpt>
      <trkpt lat="45.776146" lon="6.054829">
        <ele>648.898408</ele>
        <time>2017-06-02T12:33:46.000Z</time>
      </trkpt>
      <trkpt lat="45.776054" lon="6.054880">
        <ele>649.079701</ele>
        <time>2017-06-02T12:33:48.000Z</time>
      </trkpt>
      <trkpt lat="45.775955" lon="6.054931">
        <ele>649.273050</ele>
        <time>2017-06-02T12:33:50.000Z</time>
      </trkpt>
      <trkpt lat="45.775864" lon="6.054985">
        <ele>649.454065</ele>
        <time>2017-06-02T12:33:52.000Z</time>
      </trkpt>
      <trkpt lat="45.775770" lon="6.055027">
        <ele>649.635030</ele>
        <time>2017-06-02T12:33:54.000Z</time>
      </trkpt>
      <trkpt lat="45.775673" lon="6.055071">
        <ele>649.822024</ele>
        <time>2017-06-02T12:33:56.000Z</time>
      </trkpt>
      <trkpt lat="45.775578" lon="6.055119">
        <ele>650.007158</ele>
        <time>2017-06-02T12:33:58.000Z</time>
      </trkpt>
      <trkpt lat="45.775480" lon="6.055168">
        <ele>650.197918</ele>
        <time>2017-06-02T12:34:00.000Z</time>
      </trkpt>
      <trkpt lat="45.775390" lon="6.055220">
        <ele>650.376263</ele>
        <time>2017-06-02T12:34:02.000Z</time>
      </trkpt>
      <trkpt lat="45.775257" lon="6.055280">
        <ele>650.632530</ele>
        <time>2017-06-02T12:34:05.000Z</time>
      </trkpt>
      <trkpt lat="45.775166" lon="6.055327">
        <ele>650.810308</ele>
        <time>2017-06-02T12:34:07.000Z</time>
      </trkpt>
      <trkpt lat="45.775066" lon="6.055377">
        <ele>651.002406</ele>
        <time>2017-06-02T12:34:09.000Z</time>
      </trkpt>
      <trkpt lat="45.774970" lon="6.055428">
        <ele>651.125188</ele>
        <time>2017-06-02T12:34:11.000Z</time>
      </trkpt>
      <trkpt lat="45.774868" lon="6.055479">
        <ele>651.254742</ele>
        <time>2017-06-02T12:34:13.000Z</time>
      </trkpt>
      <trkpt lat="45.774773" lon="6.055525">
        <ele>651.374997</ele>
        <time>2017-06-02T12:34:15.000Z</time>
      </trkpt>
      <trkpt lat="45.774677" lon="6.055573">
        <ele>651.496930</ele>
        <time>2017-06-02T12:34:17.000Z</time>
      </trkpt>
      <trkpt lat="45.774582" lon="6.055613">
        <ele>651.615675</ele>
        <time>2017-06-02T12:34:19.000Z</time>
      </trkpt>
      <trkpt lat="45.774480" lon="6.055663">
        <ele>651.744956</ele>
        <time>2017-06-02T12:34:21.000Z</time>
      </trkpt>
      <trkpt lat="45.774376" lon="6.055698">
        <ele>651.873073</ele>
        <time>2017-06-02T12:34:23.000Z</time>
      </trkpt>
      <trkpt lat="45.774280" lon="6.055732">
        <ele>651.991666</ele>
        <time>2017-06-02T12:34:25.000Z</time>
      </trkpt>
      <trkpt lat="45.774180" lon="6.055756">
        <ele>652.113265</ele>
        <time>2017-06-02T12:34:27.000Z</time>
      </trkpt>
      <trkpt lat="45.774075" lon="6.055779">
        <ele>652.240652</ele>
        <time>2017-06-02T12:34:29.000Z</time>
      </trkpt>
      <trkpt lat="45.773975" lon="6.055807">
        <ele>652.362848</ele>
        <time>2017-06-02T12:34:31.000Z</time>
      </trkpt>
      <trkpt lat="45.773884" lon="6.055829">
        <ele>652.473525</ele>
        <time>2017-06-02T12:34:33.000Z</time>
      </trkpt>
      <trkpt lat="45.773760" lon="6.055856">
        <ele>652.623943</ele>
        <time>2017-06-02T12:34:36.000Z</time>
      </trkpt>
      <trkpt lat="45.773655" lon="6.055882">
        <ele>652.751733</ele>
        <time>2017-06-02T12:34:39.000Z</time>
      </trkpt>
      <trkpt lat="45.773540" lon="6.055911">
        <ele>652.891770</ele>
        <time>2017-06-02T12:34:42.000Z</time>
      </trkpt>
      <trkpt lat="45.773422" lon="6.055946">
        <ele>653.036284</ele>
        <time>2017-06-02T12:34:45.000Z</time>
      </trkpt>
      <trkpt lat="45.773323" lon="6.055983">
        <ele>653.140978</ele>
        <time>2017-06-02T12:34:48.000Z</time>
      </trkpt>
      <trkpt lat="45.773220" lon="6.056017">
        <ele>652.732822</ele>
        <time>2017-06-02T12:34:51.000Z</time>
      </trkpt>
      <trkpt lat="45.773120" lon="6.056068">
        <ele>652.322954</ele>
        <time>2017-06-02T12:34:54.000Z</time>
      </trkpt>
      <trkpt lat="45.773033" lon="6.056140">
        <ele>651.935035</ele>
        <time>2017-06-02T12:34:57.000Z</time>
      </trkpt>
      <trkpt lat="45.772940" lon="6.056186">
        <ele>651.555131</ele>
        <time>2017-06-02T12:35:00.000Z</time>
      </trkpt>
      <trkpt lat="45.772842" lon="6.056177">
        <ele>651.175915</ele>
        <time>2017-06-02T12:35:03.000Z</time>
      </trkpt>
      <trkpt lat="45.772717" lon="6.056167">
        <ele>650.692459</ele>
        <time>2017-06-02T12:35:06.000Z</time>
      </trkpt>
      <trkpt lat="45.772625" lon="6.056171">
        <ele>650.337025</ele>
        <time>2017-06-02T12:35:08.000Z</time>
      </trkpt>
      <trkpt lat="45.772522" lon="6.056181">
        <ele>649.938365</ele>
        <time>2017-06-02T12:35:10.000Z</time>
      </trkpt>
      <trkpt lat="45.772396" lon="6.056184">
        <ele>649.451732</ele>
        <time>2017-06-02T12:35:12.000Z</time>
      </trkpt>
      <trkpt lat="45.772240" lon="6.056164">
        <ele>648.846912</ele>
        <time>2017-06-02T12:35:14.000Z</time>
      </trkpt>
      <trkpt lat="45.772064" lon="6.056130">
        <ele>648.161121</ele>
        <time>2017-06-02T12:35:16.000Z</time>
      </trkpt>
      <trkpt lat="45.771973" lon="6.056115">
        <ele>647.807397</ele>
        <time>2017-06-02T12:35:17.000Z</time>
      </trkpt>
      <trkpt lat="45.771880" lon="6.056091">
        <ele>647.442493</ele>
        <time>2017-06-02T12:35:18.000Z</time>
      </trkpt>
      <trkpt lat="45.771790" lon="6.056068">
        <ele>647.089467</ele>
        <time>2017-06-02T12:35:19.000Z</time>
      </trkpt>
      <trkpt lat="45.771618" lon="6.056033">
        <ele>646.418608</ele>
        <time>2017-06-02T12:35:21.000Z</time>
      </trkpt>
      <trkpt lat="45.771446" lon="6.056000">
        <ele>645.377131</ele>
        <time>2017-06-02T12:35:23.000Z</time>
      </trkpt>
      <trkpt lat="45.771282" lon="6.055965">
        <ele>644.220530</ele>
        <time>2017-06-02T12:35:25.000Z</time>
      </trkpt>
      <trkpt lat="45.771133" lon="6.055928">
        <ele>643.165693</ele>
        <time>2017-06-02T12:35:27.000Z</time>
      </trkpt>
      <trkpt lat="45.770980" lon="6.055886">
        <ele>642.079040</ele>
        <time>2017-06-02T12:35:29.000Z</time>
      </trkpt>
      <trkpt lat="45.770820" lon="6.055852">
        <ele>640.950754</ele>
        <time>2017-06-02T12:35:31.000Z</time>
      </trkpt>
      <trkpt lat="45.770653" lon="6.055820">
        <ele>639.775473</ele>
        <time>2017-06-02T12:35:33.000Z</time>
      </trkpt>
      <trkpt lat="45.770477" lon="6.055790">
        <ele>638.539123</ele>
        <time>2017-06-02T12:35:35.000Z</time>
      </trkpt>
      <trkpt lat="45.770382" lon="6.055763">
        <ele>637.863547</ele>
        <time>2017-06-02T12:35:36.000Z</time>
      </trkpt>
      <trkpt lat="45.770287" lon="6.055742">
        <ele>637.193035</ele>
        <time>2017-06-02T12:35:37.000Z</time>
      </trkpt>
      <trkpt lat="45.770195" lon="6.055724">
        <ele>636.545333</ele>
        <time>2017-06-02T12:35:38.000Z</time>
      </trkpt>
      <trkpt lat="45.770020" lon="6.055683">
        <ele>635.308413</ele>
        <time>2017-06-02T12:35:40.000Z</time>
      </trkpt>
      <trkpt lat="45.769850" lon="6.055646">
        <ele>634.108976</ele>
        <time>2017-06-02T12:35:42.000Z</time>
      </trkpt>
      <trkpt lat="45.769688" lon="6.055621">
        <ele>633.284950</ele>
        <time>2017-06-02T12:35:44.000Z</time>
      </trkpt>
      <trkpt lat="45.769520" lon="6.055606">
        <ele>632.642620</ele>
        <time>2017-06-02T12:35:46.000Z</time>
      </trkpt>
      <trkpt lat="45.769363" lon="6.055609">
        <ele>632.043455</ele>
        <time>2017-06-02T12:35:48.000Z</time>
      </trkpt>
      <trkpt lat="45.769210" lon="6.055670">
        <ele>631.437450</ele>
        <time>2017-06-02T12:35:50.000Z</time>
      </trkpt>
      <trkpt lat="45.769060" lon="6.055776">
        <ele>630.799285</ele>
        <time>2017-06-02T12:35:52.000Z</time>
      </trkpt>
      <trkpt lat="45.768920" lon="6.055901">
        <ele>630.169902</ele>
        <time>2017-06-02T12:35:54.000Z</time>
      </trkpt>
      <trkpt lat="45.768845" lon="6.055975">
        <ele>629.822468</ele>
        <time>2017-06-02T12:35:55.000Z</time>
      </trkpt>
      <trkpt lat="45.768710" lon="6.056124">
        <ele>629.172317</ele>
        <time>2017-06-02T12:35:57.000Z</time>
      </trkpt>
      <trkpt lat="45.768590" lon="6.056293">
        <ele>628.530397</ele>
        <time>2017-06-02T12:35:59.000Z</time>
      </trkpt>
      <trkpt lat="45.768480" lon="6.056492">
        <ele>627.854530</ele>
        <time>2017-06-02T12:36:01.000Z</time>
      </trkpt>
      <trkpt lat="45.768417" lon="6.056592">
        <ele>627.495848</ele>
        <time>2017-06-02T12:36:02.000Z</time>
      </trkpt>
      <trkpt lat="45.768326" lon="6.056788">
        <ele>626.869119</ele>
        <time>2017-06-02T12:36:04.000Z</time>
      </trkpt>
      <trkpt lat="45.768276" lon="6.056962">
        <ele>626.455618</ele>
        <time>2017-06-02T12:36:06.000Z</time>
      </trkpt>
      <trkpt lat="45.768196" lon="6.057093">
        <ele>626.086256</ele>
        <time>2017-06-02T12:36:08.000Z</time>
      </trkpt>
      <trkpt lat="45.768047" lon="6.057167">
        <ele>625.606688</ele>
        <time>2017-06-02T12:36:10.000Z</time>
      </trkpt>
      <trkpt lat="45.767956" lon="6.057169">
        <ele>625.329902</ele>
        <time>2017-06-02T12:36:11.000Z</time>
      </trkpt>
      <trkpt lat="45.767864" lon="6.057150">
        <ele>625.047220</ele>
        <time>2017-06-02T12:36:12.000Z</time>
      </trkpt>
      <trkpt lat="45.767680" lon="6.057132">
        <ele>624.486330</ele>
        <time>2017-06-02T12:36:14.000Z</time>
      </trkpt>
      <trkpt lat="45.767520" lon="6.057182">
        <ele>623.988305</ele>
        <time>2017-06-02T12:36:16.000Z</time>
      </trkpt>
      <trkpt lat="45.767372" lon="6.057248">
        <ele>623.516926</ele>
        <time>2017-06-02T12:36:18.000Z</time>
      </trkpt>
      <trkpt lat="45.767216" lon="6.057295">
        <ele>623.032128</ele>
        <time>2017-06-02T12:36:20.000Z</time>
      </trkpt>
      <trkpt lat="45.767060" lon="6.057333">
        <ele>622.550894</ele>
        <time>2017-06-02T12:36:22.000Z</time>
      </trkpt>
      <trkpt lat="45.766920" lon="6.057377">
        <ele>622.115008</ele>
        <time>2017-06-02T12:36:24.000Z</time>
      </trkpt>
      <trkpt lat="45.766758" lon="6.057326">
        <ele>621.610587</ele>
        <time>2017-06-02T12:36:26.000Z</time>
      </trkpt>
      <trkpt lat="45.766617" lon="6.057232">
        <ele>620.858216</ele>
        <time>2017-06-02T12:36:28.000Z</time>
      </trkpt>
      <trkpt lat="45.766487" lon="6.057155">
        <ele>619.804671</ele>
        <time>2017-06-02T12:36:30.000Z</time>
      </trkpt>
      <trkpt lat="45.766350" lon="6.057103">
        <ele>618.743178</ele>
        <time>2017-06-02T12:36:32.000Z</time>
      </trkpt>
      <trkpt lat="45.766212" lon="6.057090">
        <ele>617.707325</ele>
        <time>2017-06-02T12:36:34.000Z</time>
      </trkpt>
      <trkpt lat="45.766090" lon="6.057104">
        <ele>616.790620</ele>
        <time>2017-06-02T12:36:36.000Z</time>
      </trkpt>
      <trkpt lat="45.765960" lon="6.057099">
        <ele>615.816566</ele>
        <time>2017-06-02T12:36:38.000Z</time>
      </trkpt>
      <trkpt lat="45.765823" lon="6.057042">
        <ele>614.748087</ele>
        <time>2017-06-02T12:36:40.000Z</time>
      </trkpt>
      <trkpt lat="45.765736" lon="6.056993">
        <ele>614.047964</ele>
        <time>2017-06-02T12:36:42.000Z</time>
      </trkpt>
      <trkpt lat="45.765620" lon="6.056976">
        <ele>613.174592</ele>
        <time>2017-06-02T12:36:45.000Z</time>
      </trkpt>
      <trkpt lat="45.765495" lon="6.057005">
        <ele>612.226157</ele>
        <time>2017-06-02T12:36:48.000Z</time>
      </trkpt>
      <trkpt lat="45.765392" lon="6.056995">
        <ele>611.452918</ele>
        <time>2017-06-02T12:36:51.000Z</time>
      </trkpt>
      <trkpt lat="45.765305" lon="6.056953">
        <ele>610.765325</ele>
        <time>2017-06-02T12:36:55.000Z</time>
      </trkpt>
      <trkpt lat="45.765194" lon="6.057005">
        <ele>609.890662</ele>
        <time>2017-06-02T12:38:07.000Z</time>
      </trkpt>
      <trkpt lat="45.765106" lon="6.057046">
        <ele>609.197600</ele>
        <time>2017-06-02T12:38:10.000Z</time>
      </trkpt>
      <trkpt lat="45.765010" lon="6.057102">
        <ele>608.421303</ele>
        <time>2017-06-02T12:38:13.000Z</time>
      </trkpt>
      <trkpt lat="45.764927" lon="6.057169">
        <ele>607.730538</ele>
        <time>2017-06-02T12:38:16.000Z</time>
      </trkpt>
      <trkpt lat="45.764850" lon="6.057244">
        <ele>607.139502</ele>
        <time>2017-06-02T12:38:19.000Z</time>
      </trkpt>
      <trkpt lat="45.764755" lon="6.057277">
        <ele>606.518907</ele>
        <time>2017-06-02T12:38:22.000Z</time>
      </trkpt>
      <trkpt lat="45.764660" lon="6.057239">
        <ele>605.892726</ele>
        <time>2017-06-02T12:38:26.000Z</time>
      </trkpt>
      <trkpt lat="45.764614" lon="6.057128">
        <ele>605.320904</ele>
        <time>2017-06-02T12:38:32.000Z</time>
      </trkpt>
      <trkpt lat="45.764572" lon="6.056996">
        <ele>604.678337</ele>
        <time>2017-06-02T12:38:38.000Z</time>
      </trkpt>
      <trkpt lat="45.764460" lon="6.056803">
        <ele>603.566447</ele>
        <time>2017-06-02T12:39:48.000Z</time>
      </trkpt>
      <trkpt lat="45.764412" lon="6.056690">
        <ele>602.980488</ele>
        <time>2017-06-02T12:39:51.000Z</time>
      </trkpt>
      <trkpt lat="45.764366" lon="6.056567">
        <ele>602.362375</ele>
        <time>2017-06-02T12:39:54.000Z</time>
      </trkpt>
      <trkpt lat="45.764313" lon="6.056444">
        <ele>601.722064</ele>
        <time>2017-06-02T12:39:57.000Z</time>
      </trkpt>
      <trkpt lat="45.764294" lon="6.056291">
        <ele>601.033770</ele>
        <time>2017-06-02T12:40:01.000Z</time>
      </trkpt>
      <trkpt lat="45.764236" lon="6.056170">
        <ele>600.383542</ele>
        <time>2017-06-02T12:40:05.000Z</time>
      </trkpt>
      <trkpt lat="45.764180" lon="6.056047">
        <ele>599.733019</ele>
        <time>2017-06-02T12:40:08.000Z</time>
      </trkpt>
      <trkpt lat="45.764110" lon="6.055917">
        <ele>599.005679</ele>
        <time>2017-06-02T12:40:11.000Z</time>
      </trkpt>
      <trkpt lat="45.764053" lon="6.055798">
        <ele>598.366345</ele>
        <time>2017-06-02T12:40:14.000Z</time>
      </trkpt>
      <trkpt lat="45.763992" lon="6.055684">
        <ele>597.730011</ele>
        <time>2017-06-02T12:40:18.000Z</time>
      </trkpt>
      <trkpt lat="45.764046" lon="6.055835">
        <ele>596.978472</ele>
        <time>2017-06-02T12:40:25.000Z</time>
      </trkpt>
      <trkpt lat="45.764103" lon="6.055957">
        <ele>596.448300</ele>
        <time>2017-06-02T12:40:28.000Z</time>
      </trkpt>
      <trkpt lat="45.764170" lon="6.056044">
        <ele>596.504774</ele>
        <time>2017-06-02T12:40:31.000Z</time>
      </trkpt>
      <trkpt lat="45.764297" lon="6.056145">
        <ele>596.595504</ele>
        <time>2017-06-02T12:42:56.000Z</time>
      </trkpt>
      <trkpt lat="45.764380" lon="6.056202">
        <ele>596.652997</ele>
        <time>2017-06-02T12:43:02.000Z</time>
      </trkpt>
      <trkpt lat="45.764460" lon="6.056280">
        <ele>596.713438</ele>
        <time>2017-06-02T12:43:12.000Z</time>
      </trkpt>
      <trkpt lat="45.764553" lon="6.056254">
        <ele>596.772630</ele>
        <time>2017-06-02T12:43:22.000Z</time>
      </trkpt>
      <trkpt lat="45.764650" lon="6.056257">
        <ele>596.833240</ele>
        <time>2017-06-02T12:43:46.000Z</time>
      </trkpt>
      <trkpt lat="45.764530" lon="6.056235">
        <ele>596.908815</ele>
        <time>2017-06-02T12:51:00.000Z</time>
      </trkpt>
      <trkpt lat="45.764430" lon="6.056257">
        <ele>596.972017</ele>
        <time>2017-06-02T12:51:06.000Z</time>
      </trkpt>
      <trkpt lat="45.764340" lon="6.056159">
        <ele>597.042622</ele>
        <time>2017-06-02T12:51:12.000Z</time>
      </trkpt>
      <trkpt lat="45.764275" lon="6.056043">
        <ele>597.107463</ele>
        <time>2017-06-02T12:51:16.000Z</time>
      </trkpt>
      <trkpt lat="45.764202" lon="6.055952">
        <ele>597.167898</ele>
        <time>2017-06-02T12:51:20.000Z</time>
      </trkpt>
      <trkpt lat="45.764137" lon="6.055861">
        <ele>597.224657</ele>
        <time>2017-06-02T12:51:24.000Z</time>
      </trkpt>
      <trkpt lat="45.764080" lon="6.055758">
        <ele>597.281953</ele>
        <time>2017-06-02T12:51:28.000Z</time>
      </trkpt>
      <trkpt lat="45.764023" lon="6.055655">
        <ele>597.339249</ele>
        <time>2017-06-02T12:51:33.000Z</time>
      </trkpt>
      <trkpt lat="45.763935" lon="6.055571">
        <ele>597.405296</ele>
        <time>2017-06-02T12:51:38.000Z</time>
      </trkpt>
      <trkpt lat="45.763870" lon="6.055448">
        <ele>597.472544</ele>
        <time>2017-06-02T12:51:43.000Z</time>
      </trkpt>
      <trkpt lat="45.763800" lon="6.055342">
        <ele>597.536154</ele>
        <time>2017-06-02T12:51:48.000Z</time>
      </trkpt>
      <trkpt lat="45.763780" lon="6.055203">
        <ele>597.862355</ele>
        <time>2017-06-02T12:51:53.000Z</time>
      </trkpt>
      <trkpt lat="45.763740" lon="6.055069">
        <ele>598.381513</ele>
        <time>2017-06-02T12:51:58.000Z</time>
      </trkpt>
      <trkpt lat="45.763676" lon="6.054964">
        <ele>598.878161</ele>
        <time>2017-06-02T12:52:03.000Z</time>
      </trkpt>
      <trkpt lat="45.763565" lon="6.054750">
        <ele>599.828023</ele>
        <time>2017-06-02T12:53:10.000Z</time>
      </trkpt>
      <trkpt lat="45.763508" lon="6.054631">
        <ele>600.342189</ele>
        <time>2017-06-02T12:53:14.000Z</time>
      </trkpt>
      <trkpt lat="45.763460" lon="6.054512">
        <ele>600.831813</ele>
        <time>2017-06-02T12:53:18.000Z</time>
      </trkpt>
      <trkpt lat="45.763405" lon="6.054382">
        <ele>601.373366</ele>
        <time>2017-06-02T12:53:22.000Z</time>
      </trkpt>
      <trkpt lat="45.763363" lon="6.054251">
        <ele>601.886900</ele>
        <time>2017-06-02T12:53:26.000Z</time>
      </trkpt>
      <trkpt lat="45.763317" lon="6.054112">
        <ele>602.434895</ele>
        <time>2017-06-02T12:53:30.000Z</time>
      </trkpt>
      <trkpt lat="45.763332" lon="6.053968">
        <ele>602.953504</ele>
        <time>2017-06-02T12:53:34.000Z</time>
      </trkpt>
      <trkpt lat="45.763336" lon="6.053838">
        <ele>603.417008</ele>
        <time>2017-06-02T12:53:38.000Z</time>
      </trkpt>
      <trkpt lat="45.763348" lon="6.053709">
        <ele>603.880567</ele>
        <time>2017-06-02T12:53:42.000Z</time>
      </trkpt>
      <trkpt lat="45.763380" lon="6.053577">
        <ele>604.378325</ele>
        <time>2017-06-02T12:53:46.000Z</time>
      </trkpt>
      <trkpt lat="45.763390" lon="6.053434">
        <ele>604.890237</ele>
        <time>2017-06-02T12:53:50.000Z</time>
      </trkpt>
      <trkpt lat="45.763405" lon="6.053306">
        <ele>605.352555</ele>
        <time>2017-06-02T12:53:54.000Z</time>
      </trkpt>
      <trkpt lat="45.763416" lon="6.053160">
        <ele>605.875624</ele>
        <time>2017-06-02T12:53:59.000Z</time>
      </trkpt>
      <trkpt lat="45.763412" lon="6.053010">
        <ele>606.410307</ele>
        <time>2017-06-02T12:54:04.000Z</time>
      </trkpt>
      <trkpt lat="45.763397" lon="6.052877">
        <ele>606.980137</ele>
        <time>2017-06-02T12:54:09.000Z</time>
      </trkpt>
      <trkpt lat="45.763405" lon="6.052744">
        <ele>607.749650</ele>
        <time>2017-06-02T12:54:14.000Z</time>
      </trkpt>
      <trkpt lat="45.763440" lon="6.052617">
        <ele>608.536784</ele>
        <time>2017-06-02T12:54:19.000Z</time>
      </trkpt>
      <trkpt lat="45.763493" lon="6.052508">
        <ele>609.302666</ele>
        <time>2017-06-02T12:54:24.000Z</time>
      </trkpt>
      <trkpt lat="45.763588" lon="6.052451">
        <ele>610.153638</ele>
        <time>2017-06-02T12:54:29.000Z</time>
      </trkpt>
      <trkpt lat="45.763683" lon="6.052426">
        <ele>610.951736</ele>
        <time>2017-06-02T12:54:34.000Z</time>
      </trkpt>
      <trkpt lat="45.763790" lon="6.052372">
        <ele>611.889066</ele>
        <time>2017-06-02T12:54:39.000Z</time>
      </trkpt>
      <trkpt lat="45.763880" lon="6.052316">
        <ele>612.699770</ele>
        <time>2017-06-02T12:54:43.000Z</time>
      </trkpt>
      <trkpt lat="45.763947" lon="6.052197">
        <ele>613.581265</ele>
        <time>2017-06-02T12:54:48.000Z</time>
      </trkpt>
      <trkpt lat="45.763996" lon="6.052080">
        <ele>614.367895</ele>
        <time>2017-06-02T12:54:53.000Z</time>
      </trkpt>
      <trkpt lat="45.763992" lon="6.051942">
        <ele>615.164063</ele>
        <time>2017-06-02T12:54:58.000Z</time>
      </trkpt>
      <trkpt lat="45.763977" lon="6.051816">
        <ele>615.900872</ele>
        <time>2017-06-02T12:55:03.000Z</time>
      </trkpt>
      <trkpt lat="45.763943" lon="6.051673">
        <ele>616.771735</ele>
        <time>2017-06-02T12:55:09.000Z</time>
      </trkpt>
      <trkpt lat="45.763910" lon="6.051526">
        <ele>617.661890</ele>
        <time>2017-06-02T12:55:14.000Z</time>
      </trkpt>
      <trkpt lat="45.763870" lon="6.051391">
        <ele>618.507361</ele>
        <time>2017-06-02T12:55:19.000Z</time>
      </trkpt>
      <trkpt lat="45.763847" lon="6.051232">
        <ele>619.443392</ele>
        <time>2017-06-02T12:55:24.000Z</time>
      </trkpt>
      <trkpt lat="45.763866" lon="6.051083">
        <ele>620.316514</ele>
        <time>2017-06-02T12:55:29.000Z</time>
      </trkpt>
      <trkpt lat="45.763905" lon="6.050954">
        <ele>621.126943</ele>
        <time>2017-06-02T12:55:34.000Z</time>
      </trkpt>
      <trkpt lat="45.763958" lon="6.050839">
        <ele>621.780666</ele>
        <time>2017-06-02T12:55:38.000Z</time>
      </trkpt>
      <trkpt lat="45.764004" lon="6.050714">
        <ele>622.230795</ele>
        <time>2017-06-02T12:55:43.000Z</time>
      </trkpt>
      <trkpt lat="45.764076" lon="6.050597">
        <ele>622.727714</ele>
        <time>2017-06-02T12:55:49.000Z</time>
      </trkpt>
      <trkpt lat="45.764150" lon="6.050493">
        <ele>623.200863</ele>
        <time>2017-06-02T12:55:53.000Z</time>
      </trkpt>
      <trkpt lat="45.764240" lon="6.050455">
        <ele>623.629223</ele>
        <time>2017-06-02T12:55:58.000Z</time>
      </trkpt>
      <trkpt lat="45.764340" lon="6.050406">
        <ele>624.111722</ele>
        <time>2017-06-02T12:56:02.000Z</time>
      </trkpt>
      <trkpt lat="45.764435" lon="6.050333">
        <ele>624.603845</ele>
        <time>2017-06-02T12:56:07.000Z</time>
      </trkpt>
      <trkpt lat="45.764480" lon="6.050212">
        <ele>625.040577</ele>
        <time>2017-06-02T12:56:12.000Z</time>
      </trkpt>
      <trkpt lat="45.764530" lon="6.050108">
        <ele>625.442862</ele>
        <time>2017-06-02T12:56:16.000Z</time>
      </trkpt>
      <trkpt lat="45.764557" lon="6.049953">
        <ele>625.951698</ele>
        <time>2017-06-02T12:56:21.000Z</time>
      </trkpt>
      <trkpt lat="45.764540" lon="6.049821">
        <ele>626.379224</ele>
        <time>2017-06-02T12:56:25.000Z</time>
      </trkpt>
      <trkpt lat="45.764507" lon="6.049698">
        <ele>626.798955</ele>
        <time>2017-06-02T12:56:29.000Z</time>
      </trkpt>
      <trkpt lat="45.764465" lon="6.049570">
        <ele>627.249483</ele>
        <time>2017-06-02T12:56:33.000Z</time>
      </trkpt>
      <trkpt lat="45.764423" lon="6.049449">
        <ele>627.679941</ele>
        <time>2017-06-02T12:56:37.000Z</time>
      </trkpt>
      <trkpt lat="45.764390" lon="6.049331">
        <ele>628.084849</ele>
        <time>2017-06-02T12:56:41.000Z</time>
      </trkpt>
      <trkpt lat="45.764347" lon="6.049210">
        <ele>628.517361</ele>
        <time>2017-06-02T12:56:45.000Z</time>
      </trkpt>
      <trkpt lat="45.764305" lon="6.049087">
        <ele>628.953532</ele>
        <time>2017-06-02T12:56:49.000Z</time>
      </trkpt>
      <trkpt lat="45.764270" lon="6.048937">
        <ele>629.457302</ele>
        <time>2017-06-02T12:56:54.000Z</time>
      </trkpt>
      <trkpt lat="45.764244" lon="6.048804">
        <ele>629.872973</ele>
        <time>2017-06-02T12:56:58.000Z</time>
      </trkpt>
      <trkpt lat="45.764220" lon="6.048678">
        <ele>630.160386</ele>
        <time>2017-06-02T12:57:02.000Z</time>
      </trkpt>
      <trkpt lat="45.764210" lon="6.048541">
        <ele>630.463501</ele>
        <time>2017-06-02T12:57:06.000Z</time>
      </trkpt>
      <trkpt lat="45.764233" lon="6.048407">
        <ele>630.767163</ele>
        <time>2017-06-02T12:57:10.000Z</time>
      </trkpt>
      <trkpt lat="45.764267" lon="6.048267">
        <ele>631.093367</ele>
        <time>2017-06-02T12:57:15.000Z</time>
      </trkpt>
      <trkpt lat="45.764317" lon="6.048128">
        <ele>631.437506</ele>
        <time>2017-06-02T12:57:21.000Z</time>
      </trkpt>
      <trkpt lat="45.764355" lon="6.048002">
        <ele>631.739569</ele>
        <time>2017-06-02T12:57:25.000Z</time>
      </trkpt>
      <trkpt lat="45.764378" lon="6.047844">
        <ele>632.094737</ele>
        <time>2017-06-02T12:57:30.000Z</time>
      </trkpt>
      <trkpt lat="45.764400" lon="6.047700">
        <ele>632.419119</ele>
        <time>2017-06-02T12:57:34.000Z</time>
      </trkpt>
      <trkpt lat="45.764393" lon="6.047539">
        <ele>632.774087</ele>
        <time>2017-06-02T12:57:38.000Z</time>
      </trkpt>
      <trkpt lat="45.764390" lon="6.047383">
        <ele>633.117495</ele>
        <time>2017-06-02T12:57:42.000Z</time>
      </trkpt>
      <trkpt lat="45.764380" lon="6.047236">
        <ele>633.442503</ele>
        <time>2017-06-02T12:57:46.000Z</time>
      </trkpt>
      <trkpt lat="45.764374" lon="6.047080">
        <ele>633.786302</ele>
        <time>2017-06-02T12:57:50.000Z</time>
      </trkpt>
      <trkpt lat="45.764350" lon="6.046921">
        <ele>634.144278</ele>
        <time>2017-06-02T12:57:54.000Z</time>
      </trkpt>
      <trkpt lat="45.764330" lon="6.046764">
        <ele>634.495470</ele>
        <time>2017-06-02T12:57:58.000Z</time>
      </trkpt>
      <trkpt lat="45.764300" lon="6.046605">
        <ele>634.857921</ele>
        <time>2017-06-02T12:58:02.000Z</time>
      </trkpt>
      <trkpt lat="45.764267" lon="6.046447">
        <ele>635.220848</ele>
        <time>2017-06-02T12:58:06.000Z</time>
      </trkpt>
      <trkpt lat="45.764236" lon="6.046289">
        <ele>635.539685</ele>
        <time>2017-06-02T12:58:10.000Z</time>
      </trkpt>
      <trkpt lat="45.764230" lon="6.046132">
        <ele>635.722456</ele>
        <time>2017-06-02T12:58:14.000Z</time>
      </trkpt>
      <trkpt lat="45.764200" lon="6.046008">
        <ele>635.875016</ele>
        <time>2017-06-02T12:58:17.000Z</time>
      </trkpt>
      <trkpt lat="45.764175" lon="6.045843">
        <ele>636.071284</ele>
        <time>2017-06-02T12:58:21.000Z</time>
      </trkpt>
      <trkpt lat="45.764200" lon="6.045680">
        <ele>636.265281</ele>
        <time>2017-06-02T12:58:25.000Z</time>
      </trkpt>
      <trkpt lat="45.764214" lon="6.045541">
        <ele>636.428530</ele>
        <time>2017-06-02T12:58:28.000Z</time>
      </trkpt>
      <trkpt lat="45.764187" lon="6.045384">
        <ele>636.616491</ele>
        <time>2017-06-02T12:58:32.000Z</time>
      </trkpt>
      <trkpt lat="45.764126" lon="6.045255">
        <ele>636.797643</ele>
        <time>2017-06-02T12:58:36.000Z</time>
      </trkpt>
      <trkpt lat="45.764076" lon="6.045113">
        <ele>636.982538</ele>
        <time>2017-06-02T12:58:40.000Z</time>
      </trkpt>
      <trkpt lat="45.764080" lon="6.044982">
        <ele>637.134959</ele>
        <time>2017-06-02T12:58:43.000Z</time>
      </trkpt>
      <trkpt lat="45.764095" lon="6.044843">
        <ele>637.298455</ele>
        <time>2017-06-02T12:58:46.000Z</time>
      </trkpt>
      <trkpt lat="45.764133" lon="6.044675">
        <ele>637.503748</ele>
        <time>2017-06-02T12:58:50.000Z</time>
      </trkpt>
      <trkpt lat="45.764168" lon="6.044551">
        <ele>637.659237</ele>
        <time>2017-06-02T12:58:53.000Z</time>
      </trkpt>
      <trkpt lat="45.764200" lon="6.044410">
        <ele>637.831591</ele>
        <time>2017-06-02T12:58:56.000Z</time>
      </trkpt>
      <trkpt lat="45.764210" lon="6.044256">
        <ele>638.011375</ele>
        <time>2017-06-02T12:58:59.000Z</time>
      </trkpt>
      <trkpt lat="45.764236" lon="6.044097">
        <ele>638.201206</ele>
        <time>2017-06-02T12:59:02.000Z</time>
      </trkpt>
      <trkpt lat="45.764256" lon="6.043932">
        <ele>638.395876</ele>
        <time>2017-06-02T12:59:05.000Z</time>
      </trkpt>
      <trkpt lat="45.764310" lon="6.043763">
        <ele>638.441310</ele>
        <time>2017-06-02T12:59:08.000Z</time>
      </trkpt>
      <trkpt lat="45.764343" lon="6.043581">
        <ele>638.355813</ele>
        <time>2017-06-02T12:59:11.000Z</time>
      </trkpt>
      <trkpt lat="45.764370" lon="6.043454">
        <ele>638.295449</ele>
        <time>2017-06-02T12:59:13.000Z</time>
      </trkpt>
      <trkpt lat="45.764404" lon="6.043333">
        <ele>638.236140</ele>
        <time>2017-06-02T12:59:15.000Z</time>
      </trkpt>
      <trkpt lat="45.764440" lon="6.043197">
        <ele>638.170005</ele>
        <time>2017-06-02T12:59:17.000Z</time>
      </trkpt>
      <trkpt lat="45.764484" lon="6.043062">
        <ele>638.102257</ele>
        <time>2017-06-02T12:59:19.000Z</time>
      </trkpt>
      <trkpt lat="45.764523" lon="6.042919">
        <ele>638.032449</ele>
        <time>2017-06-02T12:59:21.000Z</time>
      </trkpt>
      <trkpt lat="45.764560" lon="6.042799">
        <ele>637.972799</ele>
        <time>2017-06-02T12:59:23.000Z</time>
      </trkpt>
      <trkpt lat="45.764600" lon="6.042676">
        <ele>637.911098</ele>
        <time>2017-06-02T12:59:25.000Z</time>
      </trkpt>
      <trkpt lat="45.764660" lon="6.042514">
        <ele>637.827707</ele>
        <time>2017-06-02T12:59:28.000Z</time>
      </trkpt>
      <trkpt lat="45.764694" lon="6.042389">
        <ele>637.766707</ele>
        <time>2017-06-02T12:59:30.000Z</time>
      </trkpt>
      <trkpt lat="45.764744" lon="6.042225">
        <ele>637.685334</ele>
        <time>2017-06-02T12:59:33.000Z</time>
      </trkpt>
      <trkpt lat="45.764793" lon="6.042114">
        <ele>637.625611</ele>
        <time>2017-06-02T12:59:35.000Z</time>
      </trkpt>
      <trkpt lat="45.764830" lon="6.041997">
        <ele>637.567206</ele>
        <time>2017-06-02T12:59:37.000Z</time>
      </trkpt>
      <trkpt lat="45.764854" lon="6.041872">
        <ele>637.508261</ele>
        <time>2017-06-02T12:59:39.000Z</time>
      </trkpt>
      <trkpt lat="45.764904" lon="6.041696">
        <ele>637.421861</ele>
        <time>2017-06-02T12:59:42.000Z</time>
      </trkpt>
      <trkpt lat="45.764920" lon="6.041504">
        <ele>637.333946</ele>
        <time>2017-06-02T12:59:45.000Z</time>
      </trkpt>
      <trkpt lat="45.764927" lon="6.041365">
        <ele>637.017839</ele>
        <time>2017-06-02T12:59:47.000Z</time>
      </trkpt>
      <trkpt lat="45.764973" lon="6.041200">
        <ele>636.497550</ele>
        <time>2017-06-02T12:59:50.000Z</time>
      </trkpt>
      <trkpt lat="45.764988" lon="6.041073">
        <ele>636.120390</ele>
        <time>2017-06-02T12:59:52.000Z</time>
      </trkpt>
      <trkpt lat="45.765007" lon="6.040940">
        <ele>635.722871</ele>
        <time>2017-06-02T12:59:54.000Z</time>
      </trkpt>
      <trkpt lat="45.765038" lon="6.040800">
        <ele>635.292782</ele>
        <time>2017-06-02T12:59:56.000Z</time>
      </trkpt>
      <trkpt lat="45.765076" lon="6.040647">
        <ele>634.817238</ele>
        <time>2017-06-02T12:59:58.000Z</time>
      </trkpt>
      <trkpt lat="45.765125" lon="6.040477">
        <ele>634.278646</ele>
        <time>2017-06-02T13:00:00.000Z</time>
      </trkpt>
      <trkpt lat="45.765170" lon="6.040288">
        <ele>633.693891</ele>
        <time>2017-06-02T13:00:02.000Z</time>
      </trkpt>
      <trkpt lat="45.765213" lon="6.040090">
        <ele>633.086686</ele>
        <time>2017-06-02T13:00:04.000Z</time>
      </trkpt>
      <trkpt lat="45.765240" lon="6.039897">
        <ele>632.510314</ele>
        <time>2017-06-02T13:00:06.000Z</time>
      </trkpt>
      <trkpt lat="45.765278" lon="6.039705">
        <ele>631.925934</ele>
        <time>2017-06-02T13:00:08.000Z</time>
      </trkpt>
      <trkpt lat="45.765310" lon="6.039507">
        <ele>631.330819</ele>
        <time>2017-06-02T13:00:10.000Z</time>
      </trkpt>
      <trkpt lat="45.765316" lon="6.039302">
        <ele>630.730034</ele>
        <time>2017-06-02T13:00:12.000Z</time>
      </trkpt>
      <trkpt lat="45.765316" lon="6.039094">
        <ele>630.120993</ele>
        <time>2017-06-02T13:00:14.000Z</time>
      </trkpt>
      <trkpt lat="45.765293" lon="6.038853">
        <ele>629.190813</ele>
        <time>2017-06-02T13:00:16.000Z</time>
      </trkpt>
      <trkpt lat="45.765263" lon="6.038602">
        <ele>627.992132</ele>
        <time>2017-06-02T13:00:18.000Z</time>
      </trkpt>
      <trkpt lat="45.765244" lon="6.038476">
        <ele>627.385348</ele>
        <time>2017-06-02T13:00:19.000Z</time>
      </trkpt>
      <trkpt lat="45.765217" lon="6.038346">
        <ele>626.746889</ele>
        <time>2017-06-02T13:00:20.000Z</time>
      </trkpt>
      <trkpt lat="45.765210" lon="6.038213">
        <ele>626.119073</ele>
        <time>2017-06-02T13:00:21.000Z</time>
      </trkpt>
      <trkpt lat="45.765198" lon="6.038075">
        <ele>625.464475</ele>
        <time>2017-06-02T13:00:22.000Z</time>
      </trkpt>
      <trkpt lat="45.765190" lon="6.037946">
        <ele>624.854872</ele>
        <time>2017-06-02T13:00:23.000Z</time>
      </trkpt>
      <trkpt lat="45.765186" lon="6.037815">
        <ele>624.237659</ele>
        <time>2017-06-02T13:00:24.000Z</time>
      </trkpt>
      <trkpt lat="45.765182" lon="6.037683">
        <ele>623.615744</ele>
        <time>2017-06-02T13:00:25.000Z</time>
      </trkpt>
      <trkpt lat="45.765182" lon="6.037548">
        <ele>622.980293</ele>
        <time>2017-06-02T13:00:26.000Z</time>
      </trkpt>
      <trkpt lat="45.765180" lon="6.037413">
        <ele>622.344700</ele>
        <time>2017-06-02T13:00:27.000Z</time>
      </trkpt>
      <trkpt lat="45.765180" lon="6.037279">
        <ele>621.713956</ele>
        <time>2017-06-02T13:00:28.000Z</time>
      </trkpt>
      <trkpt lat="45.765180" lon="6.037146">
        <ele>621.087920</ele>
        <time>2017-06-02T13:00:29.000Z</time>
      </trkpt>
      <trkpt lat="45.765180" lon="6.037015">
        <ele>620.471297</ele>
        <time>2017-06-02T13:00:30.000Z</time>
      </trkpt>
      <trkpt lat="45.765175" lon="6.036878">
        <ele>619.825551</ele>
        <time>2017-06-02T13:00:31.000Z</time>
      </trkpt>
      <trkpt lat="45.765167" lon="6.036749">
        <ele>619.215948</ele>
        <time>2017-06-02T13:00:32.000Z</time>
      </trkpt>
      <trkpt lat="45.765160" lon="6.036619">
        <ele>618.602212</ele>
        <time>2017-06-02T13:00:33.000Z</time>
      </trkpt>
      <trkpt lat="45.765140" lon="6.036370">
        <ele>617.491652</ele>
        <time>2017-06-02T13:00:35.000Z</time>
      </trkpt>
      <trkpt lat="45.765114" lon="6.036127">
        <ele>616.718250</ele>
        <time>2017-06-02T13:00:37.000Z</time>
      </trkpt>
      <trkpt lat="45.765080" lon="6.035894">
        <ele>615.969382</ele>
        <time>2017-06-02T13:00:39.000Z</time>
      </trkpt>
      <trkpt lat="45.765045" lon="6.035654">
        <ele>615.198035</ele>
        <time>2017-06-02T13:00:41.000Z</time>
      </trkpt>
      <trkpt lat="45.765010" lon="6.035424">
        <ele>614.457453</ele>
        <time>2017-06-02T13:00:43.000Z</time>
      </trkpt>
      <trkpt lat="45.764980" lon="6.035194">
        <ele>613.721347</ele>
        <time>2017-06-02T13:00:45.000Z</time>
      </trkpt>
      <trkpt lat="45.764950" lon="6.034956">
        <ele>612.960488</ele>
        <time>2017-06-02T13:00:47.000Z</time>
      </trkpt>
      <trkpt lat="45.764942" lon="6.034707">
        <ele>612.176317</ele>
        <time>2017-06-02T13:00:49.000Z</time>
      </trkpt>
      <trkpt lat="45.764930" lon="6.034449">
        <ele>611.362861</ele>
        <time>2017-06-02T13:00:51.000Z</time>
      </trkpt>
      <trkpt lat="45.764930" lon="6.034319">
        <ele>610.953888</ele>
        <time>2017-06-02T13:00:52.000Z</time>
      </trkpt>
      <trkpt lat="45.764923" lon="6.034191">
        <ele>610.549971</ele>
        <time>2017-06-02T13:00:53.000Z</time>
      </trkpt>
      <trkpt lat="45.764908" lon="6.033941">
        <ele>609.760580</ele>
        <time>2017-06-02T13:00:55.000Z</time>
      </trkpt>
      <trkpt lat="45.764908" lon="6.033703">
        <ele>608.995116</ele>
        <time>2017-06-02T13:00:57.000Z</time>
      </trkpt>
      <trkpt lat="45.764900" lon="6.033474">
        <ele>608.250041</ele>
        <time>2017-06-02T13:00:59.000Z</time>
      </trkpt>
      <trkpt lat="45.764890" lon="6.033247">
        <ele>607.510928</ele>
        <time>2017-06-02T13:01:01.000Z</time>
      </trkpt>
      <trkpt lat="45.764877" lon="6.033028">
        <ele>606.796708</ele>
        <time>2017-06-02T13:01:03.000Z</time>
      </trkpt>
      <trkpt lat="45.764877" lon="6.032812">
        <ele>606.094809</ele>
        <time>2017-06-02T13:01:05.000Z</time>
      </trkpt>
      <trkpt lat="45.764877" lon="6.032608">
        <ele>605.431905</ele>
        <time>2017-06-02T13:01:07.000Z</time>
      </trkpt>
      <trkpt lat="45.764870" lon="6.032405">
        <ele>604.771444</ele>
        <time>2017-06-02T13:01:09.000Z</time>
      </trkpt>
      <trkpt lat="45.764870" lon="6.032195">
        <ele>604.089043</ele>
        <time>2017-06-02T13:01:11.000Z</time>
      </trkpt>
      <trkpt lat="45.764870" lon="6.031982">
        <ele>603.396892</ele>
        <time>2017-06-02T13:01:13.000Z</time>
      </trkpt>
      <trkpt lat="45.764877" lon="6.031767">
        <ele>602.697482</ele>
        <time>2017-06-02T13:01:15.000Z</time>
      </trkpt>
      <trkpt lat="45.764860" lon="6.031569">
        <ele>602.049220</ele>
        <time>2017-06-02T13:01:17.000Z</time>
      </trkpt>
      <trkpt lat="45.764828" lon="6.031372">
        <ele>601.391936</ele>
        <time>2017-06-02T13:01:19.000Z</time>
      </trkpt>
      <trkpt lat="45.764830" lon="6.031169">
        <ele>601.141399</ele>
        <time>2017-06-02T13:01:21.000Z</time>
      </trkpt>
      <trkpt lat="45.764843" lon="6.030980">
        <ele>601.141068</ele>
        <time>2017-06-02T13:01:23.000Z</time>
      </trkpt>
      <trkpt lat="45.764866" lon="6.030792">
        <ele>601.140735</ele>
        <time>2017-06-02T13:01:25.000Z</time>
      </trkpt>
      <trkpt lat="45.764920" lon="6.030638">
        <ele>601.140434</ele>
        <time>2017-06-02T13:01:27.000Z</time>
      </trkpt>
      <trkpt lat="45.764984" lon="6.030485">
        <ele>601.140123</ele>
        <time>2017-06-02T13:01:29.000Z</time>
      </trkpt>
      <trkpt lat="45.765030" lon="6.030334">
        <ele>601.139836</ele>
        <time>2017-06-02T13:01:31.000Z</time>
      </trkpt>
      <trkpt lat="45.765030" lon="6.030163">
        <ele>601.139538</ele>
        <time>2017-06-02T13:01:34.000Z</time>
      </trkpt>
      <trkpt lat="45.764996" lon="6.030017">
        <ele>601.139269</ele>
        <time>2017-06-02T13:01:37.000Z</time>
      </trkpt>
      <trkpt lat="45.764946" lon="6.029895">
        <ele>601.139023</ele>
        <time>2017-06-02T13:01:40.000Z</time>
      </trkpt>
      <trkpt lat="45.764877" lon="6.029793">
        <ele>601.138775</ele>
        <time>2017-06-02T13:01:43.000Z</time>
      </trkpt>
      <trkpt lat="45.764797" lon="6.029677">
        <ele>601.138491</ele>
        <time>2017-06-02T13:01:47.000Z</time>
      </trkpt>
      <trkpt lat="45.764730" lon="6.029585">
        <ele>601.138259</ele>
        <time>2017-06-02T13:01:51.000Z</time>
      </trkpt>
      <trkpt lat="45.764645" lon="6.029475">
        <ele>601.137972</ele>
        <time>2017-06-02T13:01:56.000Z</time>
      </trkpt>
      <trkpt lat="45.764565" lon="6.029368">
        <ele>601.137699</ele>
        <time>2017-06-02T13:02:00.000Z</time>
      </trkpt>
      <trkpt lat="45.764484" lon="6.029263">
        <ele>601.137426</ele>
        <time>2017-06-02T13:02:04.000Z</time>
      </trkpt>
      <trkpt lat="45.764400" lon="6.029144">
        <ele>601.137131</ele>
        <time>2017-06-02T13:02:08.000Z</time>
      </trkpt>
      <trkpt lat="45.764324" lon="6.029040">
        <ele>601.229961</ele>
        <time>2017-06-02T13:02:11.000Z</time>
      </trkpt>
      <trkpt lat="45.764236" lon="6.028929">
        <ele>601.336770</ele>
        <time>2017-06-02T13:02:15.000Z</time>
      </trkpt>
      <trkpt lat="45.764153" lon="6.028834">
        <ele>601.433550</ele>
        <time>2017-06-02T13:02:20.000Z</time>
      </trkpt>
      <trkpt lat="45.764084" lon="6.028756">
        <ele>601.513620</ele>
        <time>2017-06-02T13:02:25.000Z</time>
      </trkpt>
      <trkpt lat="45.764000" lon="6.028665">
        <ele>601.609560</ele>
        <time>2017-06-02T13:02:31.000Z</time>
      </trkpt>
      <trkpt lat="45.763940" lon="6.028571">
        <ele>601.690549</ele>
        <time>2017-06-02T13:02:36.000Z</time>
      </trkpt>
      <trkpt lat="45.763870" lon="6.028482">
        <ele>601.775807</ele>
        <time>2017-06-02T13:02:40.000Z</time>
      </trkpt>
      <trkpt lat="45.763783" lon="6.028374">
        <ele>601.880675</ele>
        <time>2017-06-02T13:02:44.000Z</time>
      </trkpt>
      <trkpt lat="45.763714" lon="6.028280">
        <ele>601.967412</ele>
        <time>2017-06-02T13:02:47.000Z</time>
      </trkpt>
      <trkpt lat="45.763650" lon="6.028158">
        <ele>602.064443</ele>
        <time>2017-06-02T13:02:50.000Z</time>
      </trkpt>
      <trkpt lat="45.763580" lon="6.028052">
        <ele>602.157224</ele>
        <time>2017-06-02T13:02:53.000Z</time>
      </trkpt>
      <trkpt lat="45.763477" lon="6.027955">
        <ele>602.269520</ele>
        <time>2017-06-02T13:02:57.000Z</time>
      </trkpt>
      <trkpt lat="45.763393" lon="6.027855">
        <ele>602.369014</ele>
        <time>2017-06-02T13:03:00.000Z</time>
      </trkpt>
      <trkpt lat="45.763325" lon="6.027773">
        <ele>602.449984</ele>
        <time>2017-06-02T13:03:02.000Z</time>
      </trkpt>
      <trkpt lat="45.763230" lon="6.027654">
        <ele>602.564942</ele>
        <time>2017-06-02T13:03:05.000Z</time>
      </trkpt>
      <trkpt lat="45.763140" lon="6.027537">
        <ele>602.675651</ele>
        <time>2017-06-02T13:03:08.000Z</time>
      </trkpt>
      <trkpt lat="45.763065" lon="6.027408">
        <ele>602.774712</ele>
        <time>2017-06-02T13:03:11.000Z</time>
      </trkpt>
      <trkpt lat="45.762985" lon="6.027268">
        <ele>602.750906</ele>
        <time>2017-06-02T13:03:14.000Z</time>
      </trkpt>
      <trkpt lat="45.762900" lon="6.027119">
        <ele>602.725586</ele>
        <time>2017-06-02T13:03:17.000Z</time>
      </trkpt>
      <trkpt lat="45.762817" lon="6.026984">
        <ele>602.701914</ele>
        <time>2017-06-02T13:03:20.000Z</time>
      </trkpt>
      <trkpt lat="45.762764" lon="6.026879">
        <ele>602.684865</ele>
        <time>2017-06-02T13:03:22.000Z</time>
      </trkpt>
      <trkpt lat="45.762688" lon="6.026722">
        <ele>602.659727</ele>
        <time>2017-06-02T13:03:25.000Z</time>
      </trkpt>
      <trkpt lat="45.762634" lon="6.026617">
        <ele>602.642566</ele>
        <time>2017-06-02T13:03:27.000Z</time>
      </trkpt>
      <trkpt lat="45.762560" lon="6.026466">
        <ele>602.618291</ele>
        <time>2017-06-02T13:03:30.000Z</time>
      </trkpt>
      <trkpt lat="45.762497" lon="6.026302">
        <ele>602.593662</ele>
        <time>2017-06-02T13:03:33.000Z</time>
      </trkpt>
      <trkpt lat="45.762440" lon="6.026158">
        <ele>602.571882</ele>
        <time>2017-06-02T13:03:36.000Z</time>
      </trkpt>
      <trkpt lat="45.762370" lon="6.026021">
        <ele>602.549543</ele>
        <time>2017-06-02T13:03:39.000Z</time>
      </trkpt>
      <trkpt lat="45.762300" lon="6.025870">
        <ele>602.525693</ele>
        <time>2017-06-02T13:03:42.000Z</time>
      </trkpt>
      <trkpt lat="45.762238" lon="6.025716">
        <ele>602.502302</ele>
        <time>2017-06-02T13:03:45.000Z</time>
      </trkpt>
      <trkpt lat="45.762177" lon="6.025546">
        <ele>602.477154</ele>
        <time>2017-06-02T13:03:48.000Z</time>
      </trkpt>
      <trkpt lat="45.762142" lon="6.025425">
        <ele>602.459922</ele>
        <time>2017-06-02T13:03:50.000Z</time>
      </trkpt>
      <trkpt lat="45.762100" lon="6.025290">
        <ele>602.440477</ele>
        <time>2017-06-02T13:03:52.000Z</time>
      </trkpt>
      <trkpt lat="45.762062" lon="6.025148">
        <ele>602.337722</ele>
        <time>2017-06-02T13:03:54.000Z</time>
      </trkpt>
      <trkpt lat="45.762030" lon="6.025001">
        <ele>602.215227</ele>
        <time>2017-06-02T13:03:56.000Z</time>
      </trkpt>
      <trkpt lat="45.762012" lon="6.024845">
        <ele>602.089448</ele>
        <time>2017-06-02T13:03:58.000Z</time>
      </trkpt>
      <trkpt lat="45.762000" lon="6.024699">
        <ele>601.972506</ele>
        <time>2017-06-02T13:04:00.000Z</time>
      </trkpt>
      <trkpt lat="45.762000" lon="6.024547">
        <ele>601.851594</ele>
        <time>2017-06-02T13:04:02.000Z</time>
      </trkpt>
      <trkpt lat="45.762005" lon="6.024396">
        <ele>601.731342</ele>
        <time>2017-06-02T13:04:04.000Z</time>
      </trkpt>
      <trkpt lat="45.762010" lon="6.024232">
        <ele>601.600760</ele>
        <time>2017-06-02T13:04:06.000Z</time>
      </trkpt>
      <trkpt lat="45.762005" lon="6.024075">
        <ele>601.475741</ele>
        <time>2017-06-02T13:04:08.000Z</time>
      </trkpt>
      <trkpt lat="45.762005" lon="6.023918">
        <ele>601.350852</ele>
        <time>2017-06-02T13:04:10.000Z</time>
      </trkpt>
      <trkpt lat="45.762012" lon="6.023768">
        <ele>601.231265</ele>
        <time>2017-06-02T13:04:12.000Z</time>
      </trkpt>
      <trkpt lat="45.762020" lon="6.023626">
        <ele>601.117940</ele>
        <time>2017-06-02T13:04:14.000Z</time>
      </trkpt>
      <trkpt lat="45.762020" lon="6.023476">
        <ele>600.998619</ele>
        <time>2017-06-02T13:04:16.000Z</time>
      </trkpt>
      <trkpt lat="45.762030" lon="6.023340">
        <ele>600.889836</ele>
        <time>2017-06-02T13:04:18.000Z</time>
      </trkpt>
      <trkpt lat="45.762040" lon="6.023194">
        <ele>600.773138</ele>
        <time>2017-06-02T13:04:20.000Z</time>
      </trkpt>
      <trkpt lat="45.762047" lon="6.023061">
        <ele>600.667040</ele>
        <time>2017-06-02T13:04:22.000Z</time>
      </trkpt>
      <trkpt lat="45.762062" lon="6.022915">
        <ele>600.549648</ele>
        <time>2017-06-02T13:04:25.000Z</time>
      </trkpt>
      <trkpt lat="45.762000" lon="6.023033">
        <ele>600.432139</ele>
        <time>2017-06-02T13:06:46.000Z</time>
      </trkpt>
      <trkpt lat="45.762005" lon="6.023172">
        <ele>600.396294</ele>
        <time>2017-06-02T13:06:49.000Z</time>
      </trkpt>
      <trkpt lat="45.761997" lon="6.023318">
        <ele>600.414879</ele>
        <time>2017-06-02T13:06:52.000Z</time>
      </trkpt>
      <trkpt lat="45.761993" lon="6.023454">
        <ele>600.432153</ele>
        <time>2017-06-02T13:06:55.000Z</time>
      </trkpt>
      <trkpt lat="45.761990" lon="6.023589">
        <ele>600.449293</ele>
        <time>2017-06-02T13:06:58.000Z</time>
      </trkpt>
      <trkpt lat="45.761980" lon="6.023730">
        <ele>600.467278</ele>
        <time>2017-06-02T13:07:01.000Z</time>
      </trkpt>
      <trkpt lat="45.761974" lon="6.023877">
        <ele>600.485965</ele>
        <time>2017-06-02T13:07:04.000Z</time>
      </trkpt>
      <trkpt lat="45.761963" lon="6.024028">
        <ele>600.505231</ele>
        <time>2017-06-02T13:07:07.000Z</time>
      </trkpt>
      <trkpt lat="45.761955" lon="6.024192">
        <ele>600.526093</ele>
        <time>2017-06-02T13:07:10.000Z</time>
      </trkpt>
      <trkpt lat="45.761936" lon="6.024344">
        <ele>600.545690</ele>
        <time>2017-06-02T13:07:13.000Z</time>
      </trkpt>
      <trkpt lat="45.761944" lon="6.024498">
        <ele>600.565286</ele>
        <time>2017-06-02T13:07:16.000Z</time>
      </trkpt>
      <trkpt lat="45.761880" lon="6.024607">
        <ele>600.583366</ele>
        <time>2017-06-02T13:07:20.000Z</time>
      </trkpt>
      <trkpt lat="45.761787" lon="6.024572">
        <ele>600.600856</ele>
        <time>2017-06-02T13:07:23.000Z</time>
      </trkpt>
      <trkpt lat="45.761703" lon="6.024519">
        <ele>600.617550</ele>
        <time>2017-06-02T13:07:26.000Z</time>
      </trkpt>
      <trkpt lat="45.761620" lon="6.024466">
        <ele>600.634078</ele>
        <time>2017-06-02T13:07:29.000Z</time>
      </trkpt>
      <trkpt lat="45.761528" lon="6.024414">
        <ele>600.652067</ele>
        <time>2017-06-02T13:07:32.000Z</time>
      </trkpt>
      <trkpt lat="45.761425" lon="6.024360">
        <ele>600.672017</ele>
        <time>2017-06-02T13:07:36.000Z</time>
      </trkpt>
      <trkpt lat="45.761322" lon="6.024291">
        <ele>600.692697</ele>
        <time>2017-06-02T13:07:40.000Z</time>
      </trkpt>
      <trkpt lat="45.761230" lon="6.024242">
        <ele>600.710550</ele>
        <time>2017-06-02T13:07:44.000Z</time>
      </trkpt>
      <trkpt lat="45.761150" lon="6.024189">
        <ele>601.097528</ele>
        <time>2017-06-02T13:07:48.000Z</time>
      </trkpt>
      <trkpt lat="45.761070" lon="6.024115">
        <ele>601.593754</ele>
        <time>2017-06-02T13:07:52.000Z</time>
      </trkpt>
      <trkpt lat="45.761005" lon="6.024002">
        <ele>602.126277</ele>
        <time>2017-06-02T13:07:56.000Z</time>
      </trkpt>
      <trkpt lat="45.760944" lon="6.023888">
        <ele>602.648667</ele>
        <time>2017-06-02T13:08:00.000Z</time>
      </trkpt>
      <trkpt lat="45.760900" lon="6.023747">
        <ele>603.210300</ele>
        <time>2017-06-02T13:08:04.000Z</time>
      </trkpt>
      <trkpt lat="45.760868" lon="6.023593">
        <ele>603.794561</ele>
        <time>2017-06-02T13:08:08.000Z</time>
      </trkpt>
      <trkpt lat="45.760857" lon="6.023435">
        <ele>604.371911</ele>
        <time>2017-06-02T13:08:12.000Z</time>
      </trkpt>
      <trkpt lat="45.760868" lon="6.023286">
        <ele>604.916708</ele>
        <time>2017-06-02T13:08:16.000Z</time>
      </trkpt>
      <trkpt lat="45.760900" lon="6.023141">
        <ele>605.469685</ele>
        <time>2017-06-02T13:08:20.000Z</time>
      </trkpt>
      <trkpt lat="45.760940" lon="6.022994">
        <ele>606.043401</ele>
        <time>2017-06-02T13:08:24.000Z</time>
      </trkpt>
      <trkpt lat="45.760970" lon="6.022849">
        <ele>606.593324</ele>
        <time>2017-06-02T13:08:28.000Z</time>
      </trkpt>
      <trkpt lat="45.760963" lon="6.022702">
        <ele>607.129066</ele>
        <time>2017-06-02T13:08:32.000Z</time>
      </trkpt>
      <trkpt lat="45.760933" lon="6.022563">
        <ele>607.658109</ele>
        <time>2017-06-02T13:08:36.000Z</time>
      </trkpt>
      <trkpt lat="45.760857" lon="6.022462">
        <ele>608.198258</ele>
        <time>2017-06-02T13:08:40.000Z</time>
      </trkpt>
      <trkpt lat="45.760765" lon="6.022362">
        <ele>608.800020</ele>
        <time>2017-06-02T13:08:44.000Z</time>
      </trkpt>
      <trkpt lat="45.760693" lon="6.022279">
        <ele>609.281572</ele>
        <time>2017-06-02T13:08:47.000Z</time>
      </trkpt>
      <trkpt lat="45.760624" lon="6.022157">
        <ele>609.852627</ele>
        <time>2017-06-02T13:08:51.000Z</time>
      </trkpt>
      <trkpt lat="45.760550" lon="6.022026">
        <ele>610.272449</ele>
        <time>2017-06-02T13:08:55.000Z</time>
      </trkpt>
      <trkpt lat="45.760487" lon="6.021926">
        <ele>610.512231</ele>
        <time>2017-06-02T13:08:58.000Z</time>
      </trkpt>
      <trkpt lat="45.760410" lon="6.021817">
        <ele>610.788285</ele>
        <time>2017-06-02T13:09:01.000Z</time>
      </trkpt>
      <trkpt lat="45.760330" lon="6.021709">
        <ele>611.068612</ele>
        <time>2017-06-02T13:09:04.000Z</time>
      </trkpt>
      <trkpt lat="45.760242" lon="6.021590">
        <ele>611.377216</ele>
        <time>2017-06-02T13:09:07.000Z</time>
      </trkpt>
      <trkpt lat="45.760147" lon="6.021483">
        <ele>611.685409</ele>
        <time>2017-06-02T13:09:10.000Z</time>
      </trkpt>
      <trkpt lat="45.760060" lon="6.021377">
        <ele>611.976673</ele>
        <time>2017-06-02T13:09:13.000Z</time>
      </trkpt>
      <trkpt lat="45.759980" lon="6.021256">
        <ele>612.273341</ele>
        <time>2017-06-02T13:09:16.000Z</time>
      </trkpt>
      <trkpt lat="45.759884" lon="6.021151">
        <ele>612.581372</ele>
        <time>2017-06-02T13:09:19.000Z</time>
      </trkpt>
      <trkpt lat="45.759792" lon="6.021068">
        <ele>612.858665</ele>
        <time>2017-06-02T13:09:22.000Z</time>
      </trkpt>
      <trkpt lat="45.759710" lon="6.020978">
        <ele>613.122112</ele>
        <time>2017-06-02T13:09:25.000Z</time>
      </trkpt>
      <trkpt lat="45.759620" lon="6.020870">
        <ele>613.421521</ele>
        <time>2017-06-02T13:09:28.000Z</time>
      </trkpt>
      <trkpt lat="45.759530" lon="6.020780">
        <ele>613.701447</ele>
        <time>2017-06-02T13:09:31.000Z</time>
      </trkpt>
      <trkpt lat="45.759440" lon="6.020672">
        <ele>614.000856</ele>
        <time>2017-06-02T13:09:34.000Z</time>
      </trkpt>
      <trkpt lat="45.759354" lon="6.020551">
        <ele>614.308254</ele>
        <time>2017-06-02T13:09:37.000Z</time>
      </trkpt>
      <trkpt lat="45.759290" lon="6.020457">
        <ele>614.541999</ele>
        <time>2017-06-02T13:09:39.000Z</time>
      </trkpt>
      <trkpt lat="45.759230" lon="6.020341">
        <ele>614.539325</ele>
        <time>2017-06-02T13:09:41.000Z</time>
      </trkpt>
      <trkpt lat="45.759167" lon="6.020232">
        <ele>614.261922</ele>
        <time>2017-06-02T13:09:43.000Z</time>
      </trkpt>
      <trkpt lat="45.759094" lon="6.020124">
        <ele>613.967217</ele>
        <time>2017-06-02T13:09:45.000Z</time>
      </trkpt>
      <trkpt lat="45.759007" lon="6.020007">
        <ele>613.632099</ele>
        <time>2017-06-02T13:09:47.000Z</time>
      </trkpt>
      <trkpt lat="45.758907" lon="6.019900">
        <ele>613.281551</ele>
        <time>2017-06-02T13:09:49.000Z</time>
      </trkpt>
      <trkpt lat="45.758793" lon="6.019806">
        <ele>612.912107</ele>
        <time>2017-06-02T13:09:51.000Z</time>
      </trkpt>
      <trkpt lat="45.758682" lon="6.019727">
        <ele>612.563977</ele>
        <time>2017-06-02T13:09:53.000Z</time>
      </trkpt>
      <trkpt lat="45.758564" lon="6.019652">
        <ele>612.201377</ele>
        <time>2017-06-02T13:09:55.000Z</time>
      </trkpt>
      <trkpt lat="45.758450" lon="6.019586">
        <ele>611.856006</ele>
        <time>2017-06-02T13:09:57.000Z</time>
      </trkpt>
      <trkpt lat="45.758335" lon="6.019527">
        <ele>611.512892</ele>
        <time>2017-06-02T13:09:59.000Z</time>
      </trkpt>
      <trkpt lat="45.758217" lon="6.019482">
        <ele>611.169889</ele>
        <time>2017-06-02T13:10:01.000Z</time>
      </trkpt>
      <trkpt lat="45.758110" lon="6.019437">
        <ele>610.856646</ele>
        <time>2017-06-02T13:10:03.000Z</time>
      </trkpt>
      <trkpt lat="45.758007" lon="6.019396">
        <ele>610.556361</ele>
        <time>2017-06-02T13:10:05.000Z</time>
      </trkpt>
      <trkpt lat="45.757896" lon="6.019355">
        <ele>610.234367</ele>
        <time>2017-06-02T13:10:07.000Z</time>
      </trkpt>
      <trkpt lat="45.757782" lon="6.019321">
        <ele>609.907273</ele>
        <time>2017-06-02T13:10:09.000Z</time>
      </trkpt>
      <trkpt lat="45.757680" lon="6.019287">
        <ele>609.614229</ele>
        <time>2017-06-02T13:10:11.000Z</time>
      </trkpt>
      <trkpt lat="45.757576" lon="6.019239">
        <ele>609.342684</ele>
        <time>2017-06-02T13:10:13.000Z</time>
      </trkpt>
      <trkpt lat="45.757473" lon="6.019179">
        <ele>609.066360</ele>
        <time>2017-06-02T13:10:15.000Z</time>
      </trkpt>
      <trkpt lat="45.757360" lon="6.019115">
        <ele>608.764386</ele>
        <time>2017-06-02T13:10:17.000Z</time>
      </trkpt>
      <trkpt lat="45.757248" lon="6.019038">
        <ele>608.455663</ele>
        <time>2017-06-02T13:10:19.000Z</time>
      </trkpt>
      <trkpt lat="45.757126" lon="6.018982">
        <ele>608.137282</ele>
        <time>2017-06-02T13:10:21.000Z</time>
      </trkpt>
      <trkpt lat="45.757000" lon="6.018915">
        <ele>607.803274</ele>
        <time>2017-06-02T13:10:23.000Z</time>
      </trkpt>
      <trkpt lat="45.756874" lon="6.018839">
        <ele>607.463521</ele>
        <time>2017-06-02T13:10:25.000Z</time>
      </trkpt>
      <trkpt lat="45.756756" lon="6.018759">
        <ele>607.139097</ele>
        <time>2017-06-02T13:10:27.000Z</time>
      </trkpt>
      <trkpt lat="45.756634" lon="6.018689">
        <ele>606.812493</ele>
        <time>2017-06-02T13:10:29.000Z</time>
      </trkpt>
      <trkpt lat="45.756516" lon="6.018616">
        <ele>606.493071</ele>
        <time>2017-06-02T13:10:31.000Z</time>
      </trkpt>
      <trkpt lat="45.756397" lon="6.018533">
        <ele>606.164155</ele>
        <time>2017-06-02T13:10:33.000Z</time>
      </trkpt>
      <trkpt lat="45.756283" lon="6.018454">
        <ele>605.849448</ele>
        <time>2017-06-02T13:10:35.000Z</time>
      </trkpt>
      <trkpt lat="45.756190" lon="6.018376">
        <ele>605.581646</ele>
        <time>2017-06-02T13:10:37.000Z</time>
      </trkpt>
      <trkpt lat="45.756096" lon="6.018320">
        <ele>605.328646</ele>
        <time>2017-06-02T13:10:39.000Z</time>
      </trkpt>
      <trkpt lat="45.756004" lon="6.018262">
        <ele>605.137932</ele>
        <time>2017-06-02T13:10:41.000Z</time>
      </trkpt>
      <trkpt lat="45.755913" lon="6.018217">
        <ele>605.090182</ele>
        <time>2017-06-02T13:10:43.000Z</time>
      </trkpt>
      <trkpt lat="45.755814" lon="6.018159">
        <ele>605.037130</ele>
        <time>2017-06-02T13:10:45.000Z</time>
      </trkpt>
      <trkpt lat="45.755726" lon="6.018090">
        <ele>604.987374</ele>
        <time>2017-06-02T13:10:47.000Z</time>
      </trkpt>
      <trkpt lat="45.755615" lon="6.018009">
        <ele>604.925589</ele>
        <time>2017-06-02T13:10:50.000Z</time>
      </trkpt>
      <trkpt lat="45.755540" lon="6.017924">
        <ele>604.878161</ele>
        <time>2017-06-02T13:10:52.000Z</time>
      </trkpt>
      <trkpt lat="45.755455" lon="6.017844">
        <ele>604.827719</ele>
        <time>2017-06-02T13:10:54.000Z</time>
      </trkpt>
      <trkpt lat="45.755370" lon="6.017768">
        <ele>604.778025</ele>
        <time>2017-06-02T13:10:56.000Z</time>
      </trkpt>
      <trkpt lat="45.755300" lon="6.017695">
        <ele>604.735083</ele>
        <time>2017-06-02T13:10:58.000Z</time>
      </trkpt>
      <trkpt lat="45.755210" lon="6.017625">
        <ele>604.684290</ele>
        <time>2017-06-02T13:11:00.000Z</time>
      </trkpt>
      <trkpt lat="45.755116" lon="6.017559">
        <ele>604.632369</ele>
        <time>2017-06-02T13:11:02.000Z</time>
      </trkpt>
      <trkpt lat="45.755010" lon="6.017515">
        <ele>604.577628</ele>
        <time>2017-06-02T13:11:04.000Z</time>
      </trkpt>
      <trkpt lat="45.754906" lon="6.017474">
        <ele>604.524125</ele>
        <time>2017-06-02T13:11:06.000Z</time>
      </trkpt>
      <trkpt lat="45.754803" lon="6.017442">
        <ele>604.471847</ele>
        <time>2017-06-02T13:11:08.000Z</time>
      </trkpt>
      <trkpt lat="45.754704" lon="6.017422">
        <ele>604.422254</ele>
        <time>2017-06-02T13:11:10.000Z</time>
      </trkpt>
      <trkpt lat="45.754610" lon="6.017402">
        <ele>604.375116</ele>
        <time>2017-06-02T13:11:12.000Z</time>
      </trkpt>
      <trkpt lat="45.754513" lon="6.017381">
        <ele>604.326455</ele>
        <time>2017-06-02T13:11:14.000Z</time>
      </trkpt>
      <trkpt lat="45.754420" lon="6.017359">
        <ele>604.279699</ele>
        <time>2017-06-02T13:11:16.000Z</time>
      </trkpt>
      <trkpt lat="45.754330" lon="6.017335">
        <ele>604.458357</ele>
        <time>2017-06-02T13:11:18.000Z</time>
      </trkpt>
      <trkpt lat="45.754234" lon="6.017313">
        <ele>604.822777</ele>
        <time>2017-06-02T13:11:20.000Z</time>
      </trkpt>
      <trkpt lat="45.754140" lon="6.017294">
        <ele>605.178616</ele>
        <time>2017-06-02T13:11:22.000Z</time>
      </trkpt>
      <trkpt lat="45.754044" lon="6.017262">
        <ele>605.548069</ele>
        <time>2017-06-02T13:11:24.000Z</time>
      </trkpt>
      <trkpt lat="45.753944" lon="6.017222">
        <ele>605.937237</ele>
        <time>2017-06-02T13:11:26.000Z</time>
      </trkpt>
      <trkpt lat="45.753857" lon="6.017179">
        <ele>606.282197</ele>
        <time>2017-06-02T13:11:28.000Z</time>
      </trkpt>
      <trkpt lat="45.753773" lon="6.017123">
        <ele>606.629462</ele>
        <time>2017-06-02T13:11:30.000Z</time>
      </trkpt>
      <trkpt lat="45.753670" lon="6.017013">
        <ele>607.110954</ele>
        <time>2017-06-02T13:11:33.000Z</time>
      </trkpt>
      <trkpt lat="45.753582" lon="6.016900">
        <ele>607.553848</ele>
        <time>2017-06-02T13:11:36.000Z</time>
      </trkpt>
      <trkpt lat="45.753487" lon="6.016794">
        <ele>608.005144</ele>
        <time>2017-06-02T13:11:39.000Z</time>
      </trkpt>
      <trkpt lat="45.753395" lon="6.016717">
        <ele>608.404497</ele>
        <time>2017-06-02T13:11:42.000Z</time>
      </trkpt>
      <trkpt lat="45.753290" lon="6.016666">
        <ele>608.820070</ele>
        <time>2017-06-02T13:11:45.000Z</time>
      </trkpt>
      <trkpt lat="45.753178" lon="6.016611">
        <ele>609.263855</ele>
        <time>2017-06-02T13:11:48.000Z</time>
      </trkpt>
      <trkpt lat="45.753070" lon="6.016588">
        <ele>609.673129</ele>
        <time>2017-06-02T13:11:51.000Z</time>
      </trkpt>
      <trkpt lat="45.752968" lon="6.016585">
        <ele>610.055549</ele>
        <time>2017-06-02T13:11:54.000Z</time>
      </trkpt>
      <trkpt lat="45.752872" lon="6.016585">
        <ele>610.415398</ele>
        <time>2017-06-02T13:11:57.000Z</time>
      </trkpt>
      <trkpt lat="45.752773" lon="6.016598">
        <ele>610.788046</ele>
        <time>2017-06-02T13:12:00.000Z</time>
      </trkpt>
      <trkpt lat="45.752680" lon="6.016606">
        <ele>611.214928</ele>
        <time>2017-06-02T13:12:03.000Z</time>
      </trkpt>
      <trkpt lat="45.752575" lon="6.016601">
        <ele>611.835707</ele>
        <time>2017-06-02T13:12:07.000Z</time>
      </trkpt>
      <trkpt lat="45.752470" lon="6.016582">
        <ele>612.461069</ele>
        <time>2017-06-02T13:12:11.000Z</time>
      </trkpt>
      <trkpt lat="45.752357" lon="6.016552">
        <ele>613.140136</ele>
        <time>2017-06-02T13:12:15.000Z</time>
      </trkpt>
      <trkpt lat="45.752260" lon="6.016528">
        <ele>613.721780</ele>
        <time>2017-06-02T13:12:19.000Z</time>
      </trkpt>
      <trkpt lat="45.752167" lon="6.016488">
        <ele>614.295523</ele>
        <time>2017-06-02T13:12:23.000Z</time>
      </trkpt>
      <trkpt lat="45.752075" lon="6.016435">
        <ele>614.881419</ele>
        <time>2017-06-02T13:12:27.000Z</time>
      </trkpt>
      <trkpt lat="45.751987" lon="6.016372">
        <ele>615.462672</ele>
        <time>2017-06-02T13:12:32.000Z</time>
      </trkpt>
      <trkpt lat="45.751896" lon="6.016305">
        <ele>616.067192</ele>
        <time>2017-06-02T13:12:37.000Z</time>
      </trkpt>
      <trkpt lat="45.751797" lon="6.016248">
        <ele>616.697617</ele>
        <time>2017-06-02T13:12:42.000Z</time>
      </trkpt>
      <trkpt lat="45.751717" lon="6.016188">
        <ele>617.231149</ele>
        <time>2017-06-02T13:12:46.000Z</time>
      </trkpt>
      <trkpt lat="45.751625" lon="6.016106">
        <ele>617.871327</ele>
        <time>2017-06-02T13:12:51.000Z</time>
      </trkpt>
      <trkpt lat="45.751553" lon="6.016008">
        <ele>618.458069</ele>
        <time>2017-06-02T13:12:56.000Z</time>
      </trkpt>
      <trkpt lat="45.751470" lon="6.015909">
        <ele>619.096149</ele>
        <time>2017-06-02T13:13:01.000Z</time>
      </trkpt>
      <trkpt lat="45.751408" lon="6.015813">
        <ele>619.635486</ele>
        <time>2017-06-02T13:13:05.000Z</time>
      </trkpt>
      <trkpt lat="45.751330" lon="6.015730">
        <ele>620.209538</ele>
        <time>2017-06-02T13:13:10.000Z</time>
      </trkpt>
      <trkpt lat="45.751263" lon="6.015642">
        <ele>620.746550</ele>
        <time>2017-06-02T13:13:15.000Z</time>
      </trkpt>
      <trkpt lat="45.751183" lon="6.015568">
        <ele>621.309177</ele>
        <time>2017-06-02T13:13:20.000Z</time>
      </trkpt>
      <trkpt lat="45.751102" lon="6.015481">
        <ele>621.946550</ele>
        <time>2017-06-02T13:13:25.000Z</time>
      </trkpt>
      <trkpt lat="45.751020" lon="6.015417">
        <ele>622.576531</ele>
        <time>2017-06-02T13:13:30.000Z</time>
      </trkpt>
      <trkpt lat="45.750930" lon="6.015339">
        <ele>623.286164</ele>
        <time>2017-06-02T13:13:35.000Z</time>
      </trkpt>
      <trkpt lat="45.750866" lon="6.015250">
        <ele>623.887849</ele>
        <time>2017-06-02T13:13:39.000Z</time>
      </trkpt>
      <trkpt lat="45.750790" lon="6.015167">
        <ele>624.532542</ele>
        <time>2017-06-02T13:13:43.000Z</time>
      </trkpt>
      <trkpt lat="45.750713" lon="6.015089">
        <ele>625.168742</ele>
        <time>2017-06-02T13:13:47.000Z</time>
      </trkpt>
      <trkpt lat="45.750637" lon="6.015015">
        <ele>625.788670</ele>
        <time>2017-06-02T13:13:51.000Z</time>
      </trkpt>
      <trkpt lat="45.750560" lon="6.014944">
        <ele>626.406435</ele>
        <time>2017-06-02T13:13:55.000Z</time>
      </trkpt>
      <trkpt lat="45.750492" lon="6.014854">
        <ele>627.030959</ele>
        <time>2017-06-02T13:13:59.000Z</time>
      </trkpt>
      <trkpt lat="45.750440" lon="6.014722">
        <ele>627.744607</ele>
        <time>2017-06-02T13:14:04.000Z</time>
      </trkpt>
      <trkpt lat="45.750454" lon="6.014587">
        <ele>628.387164</ele>
        <time>2017-06-02T13:14:08.000Z</time>
      </trkpt>
      <trkpt lat="45.750496" lon="6.014461">
        <ele>629.044576</ele>
        <time>2017-06-02T13:14:12.000Z</time>
      </trkpt>
      <trkpt lat="45.750538" lon="6.014342">
        <ele>629.672412</ele>
        <time>2017-06-02T13:14:16.000Z</time>
      </trkpt>
      <trkpt lat="45.750540" lon="6.014188">
        <ele>630.397563</ele>
        <time>2017-06-02T13:14:21.000Z</time>
      </trkpt>
      <trkpt lat="45.750523" lon="6.014051">
        <ele>631.052673</ele>
        <time>2017-06-02T13:14:25.000Z</time>
      </trkpt>
      <trkpt lat="45.750484" lon="6.013921">
        <ele>631.718875</ele>
        <time>2017-06-02T13:14:29.000Z</time>
      </trkpt>
      <trkpt lat="45.750410" lon="6.013807">
        <ele>632.451907</ele>
        <time>2017-06-02T13:14:33.000Z</time>
      </trkpt>
      <trkpt lat="45.750330" lon="6.013694">
        <ele>633.209777</ele>
        <time>2017-06-02T13:14:37.000Z</time>
      </trkpt>
      <trkpt lat="45.750256" lon="6.013576">
        <ele>633.805036</ele>
        <time>2017-06-02T13:14:41.000Z</time>
      </trkpt>
      <trkpt lat="45.750170" lon="6.013466">
        <ele>633.964053</ele>
        <time>2017-06-02T13:14:45.000Z</time>
      </trkpt>
      <trkpt lat="45.750103" lon="6.013376">
        <ele>634.090734</ele>
        <time>2017-06-02T13:14:48.000Z</time>
      </trkpt>
      <trkpt lat="45.750027" lon="6.013277">
        <ele>634.232414</ele>
        <time>2017-06-02T13:14:51.000Z</time>
      </trkpt>
      <trkpt lat="45.749958" lon="6.013183">
        <ele>634.363744</ele>
        <time>2017-06-02T13:14:54.000Z</time>
      </trkpt>
      <trkpt lat="45.749890" lon="6.013087">
        <ele>634.495422</ele>
        <time>2017-06-02T13:14:57.000Z</time>
      </trkpt>
      <trkpt lat="45.749820" lon="6.012999">
        <ele>634.623876</ele>
        <time>2017-06-02T13:15:00.000Z</time>
      </trkpt>
      <trkpt lat="45.749752" lon="6.012899">
        <ele>634.758284</ele>
        <time>2017-06-02T13:15:03.000Z</time>
      </trkpt>
      <trkpt lat="45.749680" lon="6.012801">
        <ele>634.895267</ele>
        <time>2017-06-02T13:15:06.000Z</time>
      </trkpt>
      <trkpt lat="45.749620" lon="6.012705">
        <ele>635.019325</ele>
        <time>2017-06-02T13:15:09.000Z</time>
      </trkpt>
      <trkpt lat="45.749554" lon="6.012612">
        <ele>635.147011</ele>
        <time>2017-06-02T13:15:12.000Z</time>
      </trkpt>
      <trkpt lat="45.749470" lon="6.012497">
        <ele>635.307268</ele>
        <time>2017-06-02T13:15:16.000Z</time>
      </trkpt>
      <trkpt lat="45.749393" lon="6.012381">
        <ele>635.461383</ele>
        <time>2017-06-02T13:15:20.000Z</time>
      </trkpt>
      <trkpt lat="45.749330" lon="6.012257">
        <ele>635.609033</ele>
        <time>2017-06-02T13:15:24.000Z</time>
      </trkpt>
      <trkpt lat="45.749252" lon="6.012182">
        <ele>635.738610</ele>
        <time>2017-06-02T13:15:28.000Z</time>
      </trkpt>
      <trkpt lat="45.749150" lon="6.012156">
        <ele>635.881527</ele>
        <time>2017-06-02T13:15:32.000Z</time>
      </trkpt>
      <trkpt lat="45.749058" lon="6.012123">
        <ele>636.012356</ele>
        <time>2017-06-02T13:15:36.000Z</time>
      </trkpt>
      <trkpt lat="45.748955" lon="6.012126">
        <ele>636.154473</ele>
        <time>2017-06-02T13:15:40.000Z</time>
      </trkpt>
      <trkpt lat="45.748850" lon="6.012161">
        <ele>636.447898</ele>
        <time>2017-06-02T13:15:43.000Z</time>
      </trkpt>
      <trkpt lat="45.748734" lon="6.012137">
        <ele>637.028044</ele>
        <time>2017-06-02T13:15:47.000Z</time>
      </trkpt>
      <trkpt lat="45.748615" lon="6.012142">
        <ele>637.617340</ele>
        <time>2017-06-02T13:15:51.000Z</time>
      </trkpt>
      <trkpt lat="45.748520" lon="6.012175">
        <ele>638.101201</ele>
        <time>2017-06-02T13:15:54.000Z</time>
      </trkpt>
      <trkpt lat="45.748405" lon="6.012227">
        <ele>638.698109</ele>
        <time>2017-06-02T13:15:57.000Z</time>
      </trkpt>
      <trkpt lat="45.748302" lon="6.012237">
        <ele>639.209121</ele>
        <time>2017-06-02T13:16:00.000Z</time>
      </trkpt>
      <trkpt lat="45.748203" lon="6.012259">
        <ele>639.705022</ele>
        <time>2017-06-02T13:16:03.000Z</time>
      </trkpt>
      <trkpt lat="45.748093" lon="6.012321">
        <ele>640.290116</ele>
        <time>2017-06-02T13:16:06.000Z</time>
      </trkpt>
      <trkpt lat="45.747986" lon="6.012374">
        <ele>640.850506</ele>
        <time>2017-06-02T13:16:09.000Z</time>
      </trkpt>
      <trkpt lat="45.747883" lon="6.012423">
        <ele>641.387709</ele>
        <time>2017-06-02T13:16:12.000Z</time>
      </trkpt>
      <trkpt lat="45.747776" lon="6.012469">
        <ele>641.940672</ele>
        <time>2017-06-02T13:16:15.000Z</time>
      </trkpt>
      <trkpt lat="45.747650" lon="6.012516">
        <ele>642.585147</ele>
        <time>2017-06-02T13:16:18.000Z</time>
      </trkpt>
      <trkpt lat="45.747528" lon="6.012531">
        <ele>643.191258</ele>
        <time>2017-06-02T13:16:21.000Z</time>
      </trkpt>
      <trkpt lat="45.747420" lon="6.012512">
        <ele>643.729864</ele>
        <time>2017-06-02T13:16:24.000Z</time>
      </trkpt>
      <trkpt lat="45.747303" lon="6.012476">
        <ele>644.322206</ele>
        <time>2017-06-02T13:16:27.000Z</time>
      </trkpt>
      <trkpt lat="45.747192" lon="6.012445">
        <ele>644.881987</ele>
        <time>2017-06-02T13:16:30.000Z</time>
      </trkpt>
      <trkpt lat="45.747066" lon="6.012398">
        <ele>645.303017</ele>
        <time>2017-06-02T13:16:33.000Z</time>
      </trkpt>
      <trkpt lat="45.746952" lon="6.012357">
        <ele>645.539083</ele>
        <time>2017-06-02T13:16:36.000Z</time>
      </trkpt>
      <trkpt lat="45.746834" lon="6.012313">
        <ele>645.783974</ele>
        <time>2017-06-02T13:16:39.000Z</time>
      </trkpt>
      <trkpt lat="45.746723" lon="6.012264">
        <ele>646.017253</ele>
        <time>2017-06-02T13:16:42.000Z</time>
      </trkpt>
      <trkpt lat="45.746610" lon="6.012191">
        <ele>646.266206</ele>
        <time>2017-06-02T13:16:45.000Z</time>
      </trkpt>
      <trkpt lat="45.746494" lon="6.012138">
        <ele>646.510744</ele>
        <time>2017-06-02T13:16:48.000Z</time>
      </trkpt>
      <trkpt lat="45.746380" lon="6.012066">
        <ele>646.760961</ele>
        <time>2017-06-02T13:16:51.000Z</time>
      </trkpt>
      <trkpt lat="45.746265" lon="6.011993">
        <ele>647.013582</ele>
        <time>2017-06-02T13:16:54.000Z</time>
      </trkpt>
      <trkpt lat="45.746155" lon="6.011908">
        <ele>647.264588</ele>
        <time>2017-06-02T13:16:57.000Z</time>
      </trkpt>
      <trkpt lat="45.746075" lon="6.011846">
        <ele>647.447258</ele>
        <time>2017-06-02T13:16:59.000Z</time>
      </trkpt>
      <trkpt lat="45.745995" lon="6.011782">
        <ele>647.631279</ele>
        <time>2017-06-02T13:17:01.000Z</time>
      </trkpt>
      <trkpt lat="45.745914" lon="6.011705">
        <ele>647.826507</ele>
        <time>2017-06-02T13:17:03.000Z</time>
      </trkpt>
      <trkpt lat="45.745840" lon="6.011621">
        <ele>648.016115</ele>
        <time>2017-06-02T13:17:05.000Z</time>
      </trkpt>
      <trkpt lat="45.745760" lon="6.011526">
        <ele>648.224793</ele>
        <time>2017-06-02T13:17:07.000Z</time>
      </trkpt>
      <trkpt lat="45.745690" lon="6.011437">
        <ele>648.412748</ele>
        <time>2017-06-02T13:17:09.000Z</time>
      </trkpt>
      <trkpt lat="45.745620" lon="6.011346">
        <ele>648.602575</ele>
        <time>2017-06-02T13:17:11.000Z</time>
      </trkpt>
      <trkpt lat="45.745520" lon="6.011224">
        <ele>648.708471</ele>
        <time>2017-06-02T13:17:14.000Z</time>
      </trkpt>
      <trkpt lat="45.745426" lon="6.011097">
        <ele>648.571709</ele>
        <time>2017-06-02T13:17:17.000Z</time>
      </trkpt>
      <trkpt lat="45.745350" lon="6.011015">
        <ele>648.471001</ele>
        <time>2017-06-02T13:17:19.000Z</time>
      </trkpt>
      <trkpt lat="45.745240" lon="6.010915">
        <ele>648.333100</ele>
        <time>2017-06-02T13:17:22.000Z</time>
      </trkpt>
      <trkpt lat="45.745155" lon="6.010856">
        <ele>648.233120</ele>
        <time>2017-06-02T13:17:24.000Z</time>
      </trkpt>
      <trkpt lat="45.745068" lon="6.010805">
        <ele>648.133614</ele>
        <time>2017-06-02T13:17:26.000Z</time>
      </trkpt>
      <trkpt lat="45.744940" lon="6.010747">
        <ele>647.991501</ele>
        <time>2017-06-02T13:17:29.000Z</time>
      </trkpt>
      <trkpt lat="45.744843" lon="6.010715">
        <ele>647.886132</ele>
        <time>2017-06-02T13:17:31.000Z</time>
      </trkpt>
      <trkpt lat="45.744755" lon="6.010696">
        <ele>647.791925</ele>
        <time>2017-06-02T13:17:33.000Z</time>
      </trkpt>
      <trkpt lat="45.744660" lon="6.010671">
        <ele>647.689677</ele>
        <time>2017-06-02T13:17:35.000Z</time>
      </trkpt>
      <trkpt lat="45.744568" lon="6.010636">
        <ele>647.588913</ele>
        <time>2017-06-02T13:17:37.000Z</time>
      </trkpt>
      <trkpt lat="45.744476" lon="6.010608">
        <ele>647.489350</ele>
        <time>2017-06-02T13:17:39.000Z</time>
      </trkpt>
      <trkpt lat="45.744390" lon="6.010577">
        <ele>647.395475</ele>
        <time>2017-06-02T13:17:41.000Z</time>
      </trkpt>
      <trkpt lat="45.744255" lon="6.010541">
        <ele>647.250112</ele>
        <time>2017-06-02T13:17:44.000Z</time>
      </trkpt>
      <trkpt lat="45.744125" lon="6.010498">
        <ele>647.108877</ele>
        <time>2017-06-02T13:17:47.000Z</time>
      </trkpt>
      <trkpt lat="45.744000" lon="6.010455">
        <ele>646.972793</ele>
        <time>2017-06-02T13:17:50.000Z</time>
      </trkpt>
      <trkpt lat="45.743870" lon="6.010406">
        <ele>646.846880</ele>
        <time>2017-06-02T13:17:53.000Z</time>
      </trkpt>
      <trkpt lat="45.743786" lon="6.010357">
        <ele>646.806178</ele>
        <time>2017-06-02T13:17:55.000Z</time>
      </trkpt>
      <trkpt lat="45.743670" lon="6.010301">
        <ele>646.751244</ele>
        <time>2017-06-02T13:17:58.000Z</time>
      </trkpt>
      <trkpt lat="45.743557" lon="6.010202">
        <ele>646.691804</ele>
        <time>2017-06-02T13:18:01.000Z</time>
      </trkpt>
      <trkpt lat="45.743480" lon="6.010127">
        <ele>646.650020</ele>
        <time>2017-06-02T13:18:03.000Z</time>
      </trkpt>
      <trkpt lat="45.743393" lon="6.010061">
        <ele>646.605842</ele>
        <time>2017-06-02T13:18:05.000Z</time>
      </trkpt>
      <trkpt lat="45.743305" lon="6.009995">
        <ele>646.561266</ele>
        <time>2017-06-02T13:18:07.000Z</time>
      </trkpt>
      <trkpt lat="45.743214" lon="6.009918">
        <ele>646.513838</ele>
        <time>2017-06-02T13:18:09.000Z</time>
      </trkpt>
      <trkpt lat="45.743114" lon="6.009837">
        <ele>646.462286</ele>
        <time>2017-06-02T13:18:11.000Z</time>
      </trkpt>
      <trkpt lat="45.743008" lon="6.009748">
        <ele>646.407150</ele>
        <time>2017-06-02T13:18:13.000Z</time>
      </trkpt>
      <trkpt lat="45.742900" lon="6.009639">
        <ele>646.347865</ele>
        <time>2017-06-02T13:18:15.000Z</time>
      </trkpt>
      <trkpt lat="45.742790" lon="6.009515">
        <ele>646.285054</ele>
        <time>2017-06-02T13:18:17.000Z</time>
      </trkpt>
      <trkpt lat="45.742695" lon="6.009375">
        <ele>646.223895</ele>
        <time>2017-06-02T13:18:19.000Z</time>
      </trkpt>
      <trkpt lat="45.742590" lon="6.009229">
        <ele>646.158234</ele>
        <time>2017-06-02T13:18:21.000Z</time>
      </trkpt>
      <trkpt lat="45.742493" lon="6.009087">
        <ele>646.096000</ele>
        <time>2017-06-02T13:18:23.000Z</time>
      </trkpt>
      <trkpt lat="45.742405" lon="6.008957">
        <ele>646.039363</ele>
        <time>2017-06-02T13:18:25.000Z</time>
      </trkpt>
      <trkpt lat="45.742313" lon="6.008831">
        <ele>645.982642</ele>
        <time>2017-06-02T13:18:27.000Z</time>
      </trkpt>
      <trkpt lat="45.742226" lon="6.008716">
        <ele>645.929887</ele>
        <time>2017-06-02T13:18:29.000Z</time>
      </trkpt>
      <trkpt lat="45.742146" lon="6.008609">
        <ele>645.881112</ele>
        <time>2017-06-02T13:18:31.000Z</time>
      </trkpt>
      <trkpt lat="45.742073" lon="6.008514">
        <ele>645.837160</ele>
        <time>2017-06-02T13:18:33.000Z</time>
      </trkpt>
      <trkpt lat="45.741990" lon="6.008408">
        <ele>645.787607</ele>
        <time>2017-06-02T13:18:36.000Z</time>
      </trkpt>
      <trkpt lat="45.741910" lon="6.008320">
        <ele>645.742656</ele>
        <time>2017-06-02T13:18:40.000Z</time>
      </trkpt>
      <trkpt lat="45.741800" lon="6.008256">
        <ele>645.689742</ele>
        <time>2017-06-02T13:24:14.000Z</time>
      </trkpt>
      <trkpt lat="45.741707" lon="6.008180">
        <ele>645.642025</ele>
        <time>2017-06-02T13:24:18.000Z</time>
      </trkpt>
      <trkpt lat="45.741627" lon="6.008098">
        <ele>645.598186</ele>
        <time>2017-06-02T13:24:21.000Z</time>
      </trkpt>
      <trkpt lat="45.741540" lon="6.008025">
        <ele>645.553251</ele>
        <time>2017-06-02T13:24:24.000Z</time>
      </trkpt>
      <trkpt lat="45.741436" lon="6.007940">
        <ele>645.499888</ele>
        <time>2017-06-02T13:24:27.000Z</time>
      </trkpt>
      <trkpt lat="45.741340" lon="6.007867">
        <ele>645.451450</ele>
        <time>2017-06-02T13:24:30.000Z</time>
      </trkpt>
      <trkpt lat="45.741238" lon="6.007787">
        <ele>645.399624</ele>
        <time>2017-06-02T13:24:33.000Z</time>
      </trkpt>
      <trkpt lat="45.741127" lon="6.007694">
        <ele>645.342315</ele>
        <time>2017-06-02T13:24:36.000Z</time>
      </trkpt>
      <trkpt lat="45.741020" lon="6.007603">
        <ele>645.286858</ele>
        <time>2017-06-02T13:24:39.000Z</time>
      </trkpt>
      <trkpt lat="45.740906" lon="6.007519">
        <ele>645.294471</ele>
        <time>2017-06-02T13:24:42.000Z</time>
      </trkpt>
      <trkpt lat="45.740795" lon="6.007445">
        <ele>645.413388</ele>
        <time>2017-06-02T13:24:45.000Z</time>
      </trkpt>
      <trkpt lat="45.740680" lon="6.007359">
        <ele>645.539390</ele>
        <time>2017-06-02T13:24:48.000Z</time>
      </trkpt>
      <trkpt lat="45.740562" lon="6.007275">
        <ele>645.667374</ele>
        <time>2017-06-02T13:24:51.000Z</time>
      </trkpt>
      <trkpt lat="45.740482" lon="6.007217">
        <ele>645.754462</ele>
        <time>2017-06-02T13:24:53.000Z</time>
      </trkpt>
      <trkpt lat="45.740400" lon="6.007157">
        <ele>645.843896</ele>
        <time>2017-06-02T13:24:55.000Z</time>
      </trkpt>
      <trkpt lat="45.740284" lon="6.007066">
        <ele>645.972354</ele>
        <time>2017-06-02T13:24:58.000Z</time>
      </trkpt>
      <trkpt lat="45.740180" lon="6.006964">
        <ele>646.094772</ele>
        <time>2017-06-02T13:25:01.000Z</time>
      </trkpt>
      <trkpt lat="45.740078" lon="6.006847">
        <ele>646.221685</ele>
        <time>2017-06-02T13:25:04.000Z</time>
      </trkpt>
      <trkpt lat="45.740010" lon="6.006754">
        <ele>646.312995</ele>
        <time>2017-06-02T13:25:06.000Z</time>
      </trkpt>
      <trkpt lat="45.739902" lon="6.006640">
        <ele>646.443293</ele>
        <time>2017-06-02T13:25:09.000Z</time>
      </trkpt>
      <trkpt lat="45.739826" lon="6.006561">
        <ele>646.534495</ele>
        <time>2017-06-02T13:25:11.000Z</time>
      </trkpt>
      <trkpt lat="45.739720" lon="6.006448">
        <ele>646.662827</ele>
        <time>2017-06-02T13:25:14.000Z</time>
      </trkpt>
      <trkpt lat="45.739616" lon="6.006343">
        <ele>646.786406</ele>
        <time>2017-06-02T13:25:17.000Z</time>
      </trkpt>
      <trkpt lat="45.739510" lon="6.006249">
        <ele>646.907492</ele>
        <time>2017-06-02T13:25:20.000Z</time>
      </trkpt>
      <trkpt lat="45.739403" lon="6.006165">
        <ele>647.008216</ele>
        <time>2017-06-02T13:25:23.000Z</time>
      </trkpt>
      <trkpt lat="45.739292" lon="6.006101">
        <ele>647.052721</ele>
        <time>2017-06-02T13:25:26.000Z</time>
      </trkpt>
      <trkpt lat="45.739174" lon="6.006060">
        <ele>647.097884</ele>
        <time>2017-06-02T13:25:29.000Z</time>
      </trkpt>
      <trkpt lat="45.739067" lon="6.006017">
        <ele>647.139219</ele>
        <time>2017-06-02T13:25:32.000Z</time>
      </trkpt>
      <trkpt lat="45.738950" lon="6.005961">
        <ele>647.185102</ele>
        <time>2017-06-02T13:25:35.000Z</time>
      </trkpt>
      <trkpt lat="45.738820" lon="6.005917">
        <ele>647.234787</ele>
        <time>2017-06-02T13:25:38.000Z</time>
      </trkpt>
      <trkpt lat="45.738728" lon="6.005879">
        <ele>647.270400</ele>
        <time>2017-06-02T13:25:40.000Z</time>
      </trkpt>
      <trkpt lat="45.738600" lon="6.005826">
        <ele>647.319959</ele>
        <time>2017-06-02T13:25:43.000Z</time>
      </trkpt>
      <trkpt lat="45.738510" lon="6.005788">
        <ele>647.354858</ele>
        <time>2017-06-02T13:25:45.000Z</time>
      </trkpt>
      <trkpt lat="45.738422" lon="6.005758">
        <ele>647.388504</ele>
        <time>2017-06-02T13:25:47.000Z</time>
      </trkpt>
      <trkpt lat="45.738330" lon="6.005718">
        <ele>647.424265</ele>
        <time>2017-06-02T13:25:49.000Z</time>
      </trkpt>
      <trkpt lat="45.738240" lon="6.005679">
        <ele>647.459238</ele>
        <time>2017-06-02T13:25:51.000Z</time>
      </trkpt>
      <trkpt lat="45.738144" lon="6.005640">
        <ele>647.496354</ele>
        <time>2017-06-02T13:25:53.000Z</time>
      </trkpt>
      <trkpt lat="45.738045" lon="6.005601">
        <ele>647.534544</ele>
        <time>2017-06-02T13:25:55.000Z</time>
      </trkpt>
      <trkpt lat="45.737953" lon="6.005558">
        <ele>647.570539</ele>
        <time>2017-06-02T13:25:57.000Z</time>
      </trkpt>
      <trkpt lat="45.737858" lon="6.005512">
        <ele>647.607838</ele>
        <time>2017-06-02T13:25:59.000Z</time>
      </trkpt>
      <trkpt lat="45.737774" lon="6.005469">
        <ele>647.641016</ele>
        <time>2017-06-02T13:26:01.000Z</time>
      </trkpt>
      <trkpt lat="45.737682" lon="6.005411">
        <ele>647.707685</ele>
        <time>2017-06-02T13:26:03.000Z</time>
      </trkpt>
      <trkpt lat="45.737595" lon="6.005350">
        <ele>647.830131</ele>
        <time>2017-06-02T13:26:05.000Z</time>
      </trkpt>
      <trkpt lat="45.737514" lon="6.005255">
        <ele>647.962460</ele>
        <time>2017-06-02T13:26:07.000Z</time>
      </trkpt>
      <trkpt lat="45.737442" lon="6.005157">
        <ele>648.088004</ele>
        <time>2017-06-02T13:26:09.000Z</time>
      </trkpt>
      <trkpt lat="45.737385" lon="6.005056">
        <ele>648.202606</ele>
        <time>2017-06-02T13:26:11.000Z</time>
      </trkpt>
      <trkpt lat="45.737328" lon="6.004950">
        <ele>648.320672</ele>
        <time>2017-06-02T13:26:13.000Z</time>
      </trkpt>
      <trkpt lat="45.737267" lon="6.004841">
        <ele>648.443943</ele>
        <time>2017-06-02T13:26:15.000Z</time>
      </trkpt>
      <trkpt lat="45.737198" lon="6.004735">
        <ele>648.571833</ele>
        <time>2017-06-02T13:26:17.000Z</time>
      </trkpt>
      <trkpt lat="45.737140" lon="6.004621">
        <ele>648.696306</ele>
        <time>2017-06-02T13:26:19.000Z</time>
      </trkpt>
      <trkpt lat="45.737080" lon="6.004514">
        <ele>648.817410</ele>
        <time>2017-06-02T13:26:21.000Z</time>
      </trkpt>
      <trkpt lat="45.737020" lon="6.004408">
        <ele>648.937828</ele>
        <time>2017-06-02T13:26:23.000Z</time>
      </trkpt>
      <trkpt lat="45.736950" lon="6.004298">
        <ele>649.069170</ele>
        <time>2017-06-02T13:26:25.000Z</time>
      </trkpt>
      <trkpt lat="45.736890" lon="6.004184">
        <ele>649.195148</ele>
        <time>2017-06-02T13:26:27.000Z</time>
      </trkpt>
      <trkpt lat="45.736824" lon="6.004083">
        <ele>649.317226</ele>
        <time>2017-06-02T13:26:29.000Z</time>
      </trkpt>
      <trkpt lat="45.736740" lon="6.003940">
        <ele>649.482138</ele>
        <time>2017-06-02T13:26:32.000Z</time>
      </trkpt>
      <trkpt lat="45.736675" lon="6.003840">
        <ele>649.602708</ele>
        <time>2017-06-02T13:26:34.000Z</time>
      </trkpt>
      <trkpt lat="45.736584" lon="6.003709">
        <ele>649.765785</ele>
        <time>2017-06-02T13:26:37.000Z</time>
      </trkpt>
      <trkpt lat="45.736485" lon="6.003590">
        <ele>649.929149</ele>
        <time>2017-06-02T13:26:40.000Z</time>
      </trkpt>
      <trkpt lat="45.736385" lon="6.003495">
        <ele>649.859922</ele>
        <time>2017-06-02T13:26:43.000Z</time>
      </trkpt>
      <trkpt lat="45.736275" lon="6.003422">
        <ele>649.772820</ele>
        <time>2017-06-02T13:26:46.000Z</time>
      </trkpt>
      <trkpt lat="45.736168" lon="6.003373">
        <ele>649.692108</ele>
        <time>2017-06-02T13:26:49.000Z</time>
      </trkpt>
      <trkpt lat="45.736065" lon="6.003325">
        <ele>649.614286</ele>
        <time>2017-06-02T13:26:52.000Z</time>
      </trkpt>
      <trkpt lat="45.735954" lon="6.003276">
        <ele>649.530832</ele>
        <time>2017-06-02T13:26:55.000Z</time>
      </trkpt>
      <trkpt lat="45.735840" lon="6.003214">
        <ele>649.443220</ele>
        <time>2017-06-02T13:26:58.000Z</time>
      </trkpt>
      <trkpt lat="45.735744" lon="6.003155">
        <ele>649.368165</ele>
        <time>2017-06-02T13:27:01.000Z</time>
      </trkpt>
      <trkpt lat="45.735650" lon="6.003101">
        <ele>649.295399</ele>
        <time>2017-06-02T13:27:04.000Z</time>
      </trkpt>
      <trkpt lat="45.735530" lon="6.003052">
        <ele>649.205745</ele>
        <time>2017-06-02T13:27:08.000Z</time>
      </trkpt>
      <trkpt lat="45.735435" lon="6.002995">
        <ele>649.131743</ele>
        <time>2017-06-02T13:27:11.000Z</time>
      </trkpt>
      <trkpt lat="45.735348" lon="6.002912">
        <ele>649.056642</ele>
        <time>2017-06-02T13:27:14.000Z</time>
      </trkpt>
      <trkpt lat="45.735275" lon="6.002798">
        <ele>648.979056</ele>
        <time>2017-06-02T13:27:17.000Z</time>
      </trkpt>
      <trkpt lat="45.735240" lon="6.002670">
        <ele>648.910114</ele>
        <time>2017-06-02T13:27:20.000Z</time>
      </trkpt>
      <trkpt lat="45.735256" lon="6.002510">
        <ele>648.829055</ele>
        <time>2017-06-02T13:27:24.000Z</time>
      </trkpt>
      <trkpt lat="45.735280" lon="6.002348">
        <ele>648.746003</ele>
        <time>2017-06-02T13:27:27.000Z</time>
      </trkpt>
      <trkpt lat="45.735302" lon="6.002209">
        <ele>648.674525</ele>
        <time>2017-06-02T13:27:29.000Z</time>
      </trkpt>
      <trkpt lat="45.735336" lon="6.002074">
        <ele>648.447668</ele>
        <time>2017-06-02T13:27:31.000Z</time>
      </trkpt>
      <trkpt lat="45.735367" lon="6.001914">
        <ele>648.078377</ele>
        <time>2017-06-02T13:27:33.000Z</time>
      </trkpt>
      <trkpt lat="45.735400" lon="6.001743">
        <ele>647.683808</ele>
        <time>2017-06-02T13:27:35.000Z</time>
      </trkpt>
      <trkpt lat="45.735443" lon="6.001549">
        <ele>647.231125</ele>
        <time>2017-06-02T13:27:37.000Z</time>
      </trkpt>
      <trkpt lat="45.735485" lon="6.001354">
        <ele>646.777271</ele>
        <time>2017-06-02T13:27:39.000Z</time>
      </trkpt>
      <trkpt lat="45.735540" lon="6.001142">
        <ele>646.274273</ele>
        <time>2017-06-02T13:27:41.000Z</time>
      </trkpt>
      <trkpt lat="45.735634" lon="6.000949">
        <ele>645.750877</ele>
        <time>2017-06-02T13:27:43.000Z</time>
      </trkpt>
      <trkpt lat="45.735740" lon="6.000765">
        <ele>645.220284</ele>
        <time>2017-06-02T13:27:45.000Z</time>
      </trkpt>
      <trkpt lat="45.735860" lon="6.000572">
        <ele>644.645452</ele>
        <time>2017-06-02T13:27:47.000Z</time>
      </trkpt>
      <trkpt lat="45.735973" lon="6.000388">
        <ele>644.100391</ele>
        <time>2017-06-02T13:27:49.000Z</time>
      </trkpt>
      <trkpt lat="45.736080" lon="6.000211">
        <ele>643.579632</ele>
        <time>2017-06-02T13:27:51.000Z</time>
      </trkpt>
      <trkpt lat="45.736187" lon="6.000054">
        <ele>643.091625</ele>
        <time>2017-06-02T13:27:53.000Z</time>
      </trkpt>
      <trkpt lat="45.736280" lon="5.999912">
        <ele>642.869378</ele>
        <time>2017-06-02T13:27:55.000Z</time>
      </trkpt>
      <trkpt lat="45.736366" lon="5.999797">
        <ele>642.800823</ele>
        <time>2017-06-02T13:27:57.000Z</time>
      </trkpt>
      <trkpt lat="45.736435" lon="5.999688">
        <ele>642.740968</ele>
        <time>2017-06-02T13:27:59.000Z</time>
      </trkpt>
      <trkpt lat="45.736500" lon="5.999597">
        <ele>642.688006</ele>
        <time>2017-06-02T13:28:01.000Z</time>
      </trkpt>
      <trkpt lat="45.736590" lon="5.999465">
        <ele>642.612948</ele>
        <time>2017-06-02T13:28:04.000Z</time>
      </trkpt>
      <trkpt lat="45.736680" lon="5.999323">
        <ele>642.534930</ele>
        <time>2017-06-02T13:28:07.000Z</time>
      </trkpt>
      <trkpt lat="45.736740" lon="5.999177">
        <ele>642.466015</ele>
        <time>2017-06-02T13:28:10.000Z</time>
      </trkpt>
      <trkpt lat="45.736805" lon="5.999029">
        <ele>642.394890</ele>
        <time>2017-06-02T13:28:13.000Z</time>
      </trkpt>
      <trkpt lat="45.736885" lon="5.998896">
        <ele>642.323475</ele>
        <time>2017-06-02T13:28:16.000Z</time>
      </trkpt>
      <trkpt lat="45.736940" lon="5.998751">
        <ele>642.256349</ele>
        <time>2017-06-02T13:28:19.000Z</time>
      </trkpt>
      <trkpt lat="45.736988" lon="5.998614">
        <ele>642.193998</ele>
        <time>2017-06-02T13:28:22.000Z</time>
      </trkpt>
      <trkpt lat="45.737038" lon="5.998465">
        <ele>642.126752</ele>
        <time>2017-06-02T13:28:26.000Z</time>
      </trkpt>
      <trkpt lat="45.737087" lon="5.998337">
        <ele>642.067371</ele>
        <time>2017-06-02T13:28:30.000Z</time>
      </trkpt>
      <trkpt lat="45.737140" lon="5.998216">
        <ele>642.009266</ele>
        <time>2017-06-02T13:28:33.000Z</time>
      </trkpt>
      <trkpt lat="45.737198" lon="5.998060">
        <ele>641.937373</ele>
        <time>2017-06-02T13:28:36.000Z</time>
      </trkpt>
      <trkpt lat="45.737250" lon="5.997923">
        <ele>641.873942</ele>
        <time>2017-06-02T13:28:38.000Z</time>
      </trkpt>
      <trkpt lat="45.737312" lon="5.997780">
        <ele>640.748781</ele>
        <time>2017-06-02T13:28:40.000Z</time>
      </trkpt>
      <trkpt lat="45.737380" lon="5.997642">
        <ele>639.525811</ele>
        <time>2017-06-02T13:28:42.000Z</time>
      </trkpt>
      <trkpt lat="45.737460" lon="5.997503">
        <ele>638.221489</ele>
        <time>2017-06-02T13:28:44.000Z</time>
      </trkpt>
      <trkpt lat="45.737537" lon="5.997369">
        <ele>636.964892</ele>
        <time>2017-06-02T13:28:46.000Z</time>
      </trkpt>
      <trkpt lat="45.737606" lon="5.997248">
        <ele>635.833690</ele>
        <time>2017-06-02T13:28:48.000Z</time>
      </trkpt>
      <trkpt lat="45.737680" lon="5.997143">
        <ele>634.753401</ele>
        <time>2017-06-02T13:28:50.000Z</time>
      </trkpt>
      <trkpt lat="45.737750" lon="5.997042">
        <ele>633.722935</ele>
        <time>2017-06-02T13:28:52.000Z</time>
      </trkpt>
      <trkpt lat="45.737810" lon="5.996945">
        <ele>632.784597</ele>
        <time>2017-06-02T13:28:54.000Z</time>
      </trkpt>
      <trkpt lat="45.737880" lon="5.996786">
        <ele>631.423632</ele>
        <time>2017-06-02T13:28:57.000Z</time>
      </trkpt>
      <trkpt lat="45.737926" lon="5.996614">
        <ele>630.090139</ele>
        <time>2017-06-02T13:29:00.000Z</time>
      </trkpt>
      <trkpt lat="45.737953" lon="5.996485">
        <ele>629.115145</ele>
        <time>2017-06-02T13:29:02.000Z</time>
      </trkpt>
      <trkpt lat="45.737990" lon="5.996364">
        <ele>628.158773</ele>
        <time>2017-06-02T13:29:04.000Z</time>
      </trkpt>
      <trkpt lat="45.738056" lon="5.996204">
        <ele>626.813260</ele>
        <time>2017-06-02T13:29:07.000Z</time>
      </trkpt>
      <trkpt lat="45.738102" lon="5.996093">
        <ele>625.878688</ele>
        <time>2017-06-02T13:29:10.000Z</time>
      </trkpt>
      <trkpt lat="45.738320" lon="5.995863">
        <ele>623.081974</ele>
        <time>2017-06-02T13:29:59.000Z</time>
      </trkpt>
      <trkpt lat="45.738450" lon="5.995771">
        <ele>621.700197</ele>
        <time>2017-06-02T13:30:01.000Z</time>
      </trkpt>
      <trkpt lat="45.738583" lon="5.995640">
        <ele>620.162110</ele>
        <time>2017-06-02T13:30:03.000Z</time>
      </trkpt>
      <trkpt lat="45.738693" lon="5.995458">
        <ele>618.560764</ele>
        <time>2017-06-02T13:30:05.000Z</time>
      </trkpt>
      <trkpt lat="45.738792" lon="5.995284">
        <ele>617.067608</ele>
        <time>2017-06-02T13:30:07.000Z</time>
      </trkpt>
      <trkpt lat="45.738903" lon="5.995134">
        <ele>615.613519</ele>
        <time>2017-06-02T13:30:09.000Z</time>
      </trkpt>
      <trkpt lat="45.739014" lon="5.995034">
        <ele>614.363965</ele>
        <time>2017-06-02T13:30:11.000Z</time>
      </trkpt>
      <trkpt lat="45.739120" lon="5.994969">
        <ele>613.265164</ele>
        <time>2017-06-02T13:30:13.000Z</time>
      </trkpt>
      <trkpt lat="45.739230" lon="5.994912">
        <ele>612.150420</ele>
        <time>2017-06-02T13:30:15.000Z</time>
      </trkpt>
      <trkpt lat="45.739340" lon="5.994854">
        <ele>611.033396</ele>
        <time>2017-06-02T13:30:17.000Z</time>
      </trkpt>
      <trkpt lat="45.739433" lon="5.994746">
        <ele>609.892564</ele>
        <time>2017-06-02T13:30:19.000Z</time>
      </trkpt>
      <trkpt lat="45.739510" lon="5.994594">
        <ele>608.643345</ele>
        <time>2017-06-02T13:30:21.000Z</time>
      </trkpt>
      <trkpt lat="45.739590" lon="5.994436">
        <ele>607.345036</ele>
        <time>2017-06-02T13:30:23.000Z</time>
      </trkpt>
      <trkpt lat="45.739670" lon="5.994287">
        <ele>606.094687</ele>
        <time>2017-06-02T13:30:25.000Z</time>
      </trkpt>
      <trkpt lat="45.739723" lon="5.994128">
        <ele>604.777350</ele>
        <time>2017-06-02T13:30:27.000Z</time>
      </trkpt>
      <trkpt lat="45.739780" lon="5.993990">
        <ele>603.575706</ele>
        <time>2017-06-02T13:30:29.000Z</time>
      </trkpt>
      <trkpt lat="45.739838" lon="5.993869">
        <ele>602.475724</ele>
        <time>2017-06-02T13:30:31.000Z</time>
      </trkpt>
      <trkpt lat="45.739906" lon="5.993758">
        <ele>601.368955</ele>
        <time>2017-06-02T13:30:33.000Z</time>
      </trkpt>
      <trkpt lat="45.739967" lon="5.993656">
        <ele>600.362381</ele>
        <time>2017-06-02T13:30:35.000Z</time>
      </trkpt>
      <trkpt lat="45.740050" lon="5.993523">
        <ele>599.025413</ele>
        <time>2017-06-02T13:30:38.000Z</time>
      </trkpt>
      <trkpt lat="45.740120" lon="5.993398">
        <ele>597.824463</ele>
        <time>2017-06-02T13:30:41.000Z</time>
      </trkpt>
      <trkpt lat="45.740196" lon="5.993261">
        <ele>596.513047</ele>
        <time>2017-06-02T13:30:44.000Z</time>
      </trkpt>
      <trkpt lat="45.740270" lon="5.993118">
        <ele>595.179045</ele>
        <time>2017-06-02T13:30:47.000Z</time>
      </trkpt>
      <trkpt lat="45.740337" lon="5.992980">
        <ele>593.919331</ele>
        <time>2017-06-02T13:30:50.000Z</time>
      </trkpt>
      <trkpt lat="45.740402" lon="5.992818">
        <ele>592.519067</ele>
        <time>2017-06-02T13:30:53.000Z</time>
      </trkpt>
      <trkpt lat="45.740437" lon="5.992680">
        <ele>591.418800</ele>
        <time>2017-06-02T13:30:55.000Z</time>
      </trkpt>
      <trkpt lat="45.740448" lon="5.992531">
        <ele>590.296042</ele>
        <time>2017-06-02T13:30:57.000Z</time>
      </trkpt>
      <trkpt lat="45.740470" lon="5.992367">
        <ele>589.044615</ele>
        <time>2017-06-02T13:30:59.000Z</time>
      </trkpt>
      <trkpt lat="45.740490" lon="5.992203">
        <ele>587.797064</ele>
        <time>2017-06-02T13:31:01.000Z</time>
      </trkpt>
      <trkpt lat="45.740500" lon="5.992049">
        <ele>586.674480</ele>
        <time>2017-06-02T13:31:03.000Z</time>
      </trkpt>
      <trkpt lat="45.740532" lon="5.991927">
        <ele>585.993234</ele>
        <time>2017-06-02T13:31:05.000Z</time>
      </trkpt>
      <trkpt lat="45.740585" lon="5.991768">
        <ele>585.072210</ele>
        <time>2017-06-02T13:31:08.000Z</time>
      </trkpt>
      <trkpt lat="45.740627" lon="5.991643">
        <ele>584.347056</ele>
        <time>2017-06-02T13:31:10.000Z</time>
      </trkpt>
      <trkpt lat="45.740690" lon="5.991483">
        <ele>583.386813</ele>
        <time>2017-06-02T13:31:12.000Z</time>
      </trkpt>
      <trkpt lat="45.740750" lon="5.991337">
        <ele>582.501195</ele>
        <time>2017-06-02T13:31:14.000Z</time>
      </trkpt>
      <trkpt lat="45.740803" lon="5.991202">
        <ele>581.691565</ele>
        <time>2017-06-02T13:31:16.000Z</time>
      </trkpt>
      <trkpt lat="45.740845" lon="5.991071">
        <ele>580.938033</ele>
        <time>2017-06-02T13:31:18.000Z</time>
      </trkpt>
      <trkpt lat="45.740856" lon="5.990874">
        <ele>579.905027</ele>
        <time>2017-06-02T13:31:21.000Z</time>
      </trkpt>
      <trkpt lat="45.740810" lon="5.990714">
        <ele>579.000526</ele>
        <time>2017-06-02T13:31:23.000Z</time>
      </trkpt>
      <trkpt lat="45.740726" lon="5.990568">
        <ele>578.011498</ele>
        <time>2017-06-02T13:31:25.000Z</time>
      </trkpt>
      <trkpt lat="45.740640" lon="5.990455">
        <ele>577.137579</ele>
        <time>2017-06-02T13:31:27.000Z</time>
      </trkpt>
      <trkpt lat="45.740555" lon="5.990352">
        <ele>576.303835</ele>
        <time>2017-06-02T13:31:29.000Z</time>
      </trkpt>
      <trkpt lat="45.740475" lon="5.990257">
        <ele>575.525648</ele>
        <time>2017-06-02T13:31:31.000Z</time>
      </trkpt>
      <trkpt lat="45.740390" lon="5.990178">
        <ele>574.766841</ele>
        <time>2017-06-02T13:31:33.000Z</time>
      </trkpt>
      <trkpt lat="45.740303" lon="5.990097">
        <ele>573.989777</ele>
        <time>2017-06-02T13:31:35.000Z</time>
      </trkpt>
      <trkpt lat="45.740210" lon="5.989998">
        <ele>573.210432</ele>
        <time>2017-06-02T13:31:37.000Z</time>
      </trkpt>
      <trkpt lat="45.740130" lon="5.989897">
        <ele>572.838668</ele>
        <time>2017-06-02T13:31:39.000Z</time>
      </trkpt>
      <trkpt lat="45.740047" lon="5.989827">
        <ele>572.502865</ele>
        <time>2017-06-02T13:31:41.000Z</time>
      </trkpt>
      <trkpt lat="45.739952" lon="5.989741">
        <ele>572.111061</ele>
        <time>2017-06-02T13:31:43.000Z</time>
      </trkpt>
      <trkpt lat="45.739870" lon="5.989648">
        <ele>571.746427</ele>
        <time>2017-06-02T13:31:45.000Z</time>
      </trkpt>
      <trkpt lat="45.739765" lon="5.989526">
        <ele>571.275084</ele>
        <time>2017-06-02T13:31:48.000Z</time>
      </trkpt>
      <trkpt lat="45.739685" lon="5.989462">
        <ele>570.955618</ele>
        <time>2017-06-02T13:31:50.000Z</time>
      </trkpt>
      <trkpt lat="45.739590" lon="5.989406">
        <ele>570.597448</ele>
        <time>2017-06-02T13:31:52.000Z</time>
      </trkpt>
      <trkpt lat="45.739500" lon="5.989338">
        <ele>570.242692</ele>
        <time>2017-06-02T13:31:54.000Z</time>
      </trkpt>
      <trkpt lat="45.739400" lon="5.989279">
        <ele>569.865622</ele>
        <time>2017-06-02T13:31:56.000Z</time>
      </trkpt>
      <trkpt lat="45.739300" lon="5.989239">
        <ele>569.503624</ele>
        <time>2017-06-02T13:31:58.000Z</time>
      </trkpt>
      <trkpt lat="45.739193" lon="5.989198">
        <ele>569.117439</ele>
        <time>2017-06-02T13:32:00.000Z</time>
      </trkpt>
      <trkpt lat="45.739110" lon="5.989147">
        <ele>568.802557</ele>
        <time>2017-06-02T13:32:02.000Z</time>
      </trkpt>
      <trkpt lat="45.739020" lon="5.989068">
        <ele>568.434552</ele>
        <time>2017-06-02T13:32:05.000Z</time>
      </trkpt>
      <trkpt lat="45.738922" lon="5.988995">
        <ele>568.049441</ele>
        <time>2017-06-02T13:32:08.000Z</time>
      </trkpt>
      <trkpt lat="45.739020" lon="5.988946">
        <ele>567.687540</ele>
        <time>2017-06-02T13:32:21.000Z</time>
      </trkpt>
      <trkpt lat="45.739067" lon="5.988815">
        <ele>567.329104</ele>
        <time>2017-06-02T13:32:24.000Z</time>
      </trkpt>
      <trkpt lat="45.739124" lon="5.988672">
        <ele>566.753354</ele>
        <time>2017-06-02T13:32:27.000Z</time>
      </trkpt>
      <trkpt lat="45.739178" lon="5.988506">
        <ele>565.418932</ele>
        <time>2017-06-02T13:32:30.000Z</time>
      </trkpt>
      <trkpt lat="45.739216" lon="5.988356">
        <ele>564.256245</ele>
        <time>2017-06-02T13:32:33.000Z</time>
      </trkpt>
      <trkpt lat="45.739250" lon="5.988221">
        <ele>563.210538</ele>
        <time>2017-06-02T13:32:36.000Z</time>
      </trkpt>
      <trkpt lat="45.739285" lon="5.988086">
        <ele>562.161241</ele>
        <time>2017-06-02T13:32:39.000Z</time>
      </trkpt>
      <trkpt lat="45.739310" lon="5.987922">
        <ele>560.938151</ele>
        <time>2017-06-02T13:32:42.000Z</time>
      </trkpt>
      <trkpt lat="45.739323" lon="5.987787">
        <ele>559.945211</ele>
        <time>2017-06-02T13:32:44.000Z</time>
      </trkpt>
      <trkpt lat="45.739320" lon="5.987644">
        <ele>558.902829</ele>
        <time>2017-06-02T13:32:46.000Z</time>
      </trkpt>
      <trkpt lat="45.739290" lon="5.987506">
        <ele>557.849701</ele>
        <time>2017-06-02T13:32:48.000Z</time>
      </trkpt>
      <trkpt lat="45.739223" lon="5.987362">
        <ele>556.588726</ele>
        <time>2017-06-02T13:32:50.000Z</time>
      </trkpt>
      <trkpt lat="45.739147" lon="5.987234">
        <ele>555.364271</ele>
        <time>2017-06-02T13:32:52.000Z</time>
      </trkpt>
      <trkpt lat="45.739082" lon="5.987071">
        <ele>553.996444</ele>
        <time>2017-06-02T13:32:54.000Z</time>
      </trkpt>
      <trkpt lat="45.739060" lon="5.986862">
        <ele>552.456422</ele>
        <time>2017-06-02T13:32:56.000Z</time>
      </trkpt>
      <trkpt lat="45.739060" lon="5.986664">
        <ele>551.013770</ele>
        <time>2017-06-02T13:32:58.000Z</time>
      </trkpt>
      <trkpt lat="45.739082" lon="5.986521">
        <ele>549.946841</ele>
        <time>2017-06-02T13:33:00.000Z</time>
      </trkpt>
      <trkpt lat="45.739130" lon="5.986407">
        <ele>548.976774</ele>
        <time>2017-06-02T13:33:02.000Z</time>
      </trkpt>
      <trkpt lat="45.739204" lon="5.986300">
        <ele>548.082035</ele>
        <time>2017-06-02T13:33:05.000Z</time>
      </trkpt>
      <trkpt lat="45.739277" lon="5.986204">
        <ele>547.630881</ele>
        <time>2017-06-02T13:33:09.000Z</time>
      </trkpt>
      <trkpt lat="45.739388" lon="5.986174">
        <ele>547.116569</ele>
        <time>2017-06-02T13:33:13.000Z</time>
      </trkpt>
      <trkpt lat="45.739494" lon="5.986193">
        <ele>546.630173</ele>
        <time>2017-06-02T13:33:16.000Z</time>
      </trkpt>
      <trkpt lat="45.739620" lon="5.986240">
        <ele>546.037355</ele>
        <time>2017-06-02T13:33:19.000Z</time>
      </trkpt>
      <trkpt lat="45.739710" lon="5.986263">
        <ele>545.621105</ele>
        <time>2017-06-02T13:33:21.000Z</time>
      </trkpt>
      <trkpt lat="45.739815" lon="5.986283">
        <ele>545.138818</ele>
        <time>2017-06-02T13:33:23.000Z</time>
      </trkpt>
      <trkpt lat="45.739918" lon="5.986302">
        <ele>544.665974</ele>
        <time>2017-06-02T13:33:25.000Z</time>
      </trkpt>
      <trkpt lat="45.740032" lon="5.986326">
        <ele>544.141342</ele>
        <time>2017-06-02T13:33:27.000Z</time>
      </trkpt>
      <trkpt lat="45.740150" lon="5.986345">
        <ele>543.600689</ele>
        <time>2017-06-02T13:33:29.000Z</time>
      </trkpt>
      <trkpt lat="45.740276" lon="5.986363">
        <ele>543.024148</ele>
        <time>2017-06-02T13:33:31.000Z</time>
      </trkpt>
      <trkpt lat="45.740406" lon="5.986384">
        <ele>542.428490</ele>
        <time>2017-06-02T13:33:33.000Z</time>
      </trkpt>
      <trkpt lat="45.740540" lon="5.986403">
        <ele>541.815388</ele>
        <time>2017-06-02T13:33:35.000Z</time>
      </trkpt>
      <trkpt lat="45.740685" lon="5.986432">
        <ele>541.148781</ele>
        <time>2017-06-02T13:33:37.000Z</time>
      </trkpt>
      <trkpt lat="45.740814" lon="5.986462">
        <ele>540.553740</ele>
        <time>2017-06-02T13:33:39.000Z</time>
      </trkpt>
      <trkpt lat="45.740930" lon="5.986486">
        <ele>540.024752</ele>
        <time>2017-06-02T13:33:41.000Z</time>
      </trkpt>
      <trkpt lat="45.741020" lon="5.986506">
        <ele>539.675900</ele>
        <time>2017-06-02T13:33:43.000Z</time>
      </trkpt>
      <trkpt lat="45.741135" lon="5.986520">
        <ele>539.233823</ele>
        <time>2017-06-02T13:33:46.000Z</time>
      </trkpt>
      <trkpt lat="45.741245" lon="5.986539">
        <ele>538.809435</ele>
        <time>2017-06-02T13:33:50.000Z</time>
      </trkpt>
      <trkpt lat="45.741367" lon="5.986556">
        <ele>538.339929</ele>
        <time>2017-06-02T13:33:54.000Z</time>
      </trkpt>
      <trkpt lat="45.741486" lon="5.986576">
        <ele>537.880993</ele>
        <time>2017-06-02T13:33:57.000Z</time>
      </trkpt>
      <trkpt lat="45.741623" lon="5.986593">
        <ele>537.354272</ele>
        <time>2017-06-02T13:34:00.000Z</time>
      </trkpt>
      <trkpt lat="45.741756" lon="5.986608">
        <ele>536.843261</ele>
        <time>2017-06-02T13:34:03.000Z</time>
      </trkpt>
      <trkpt lat="45.741863" lon="5.986601">
        <ele>536.432987</ele>
        <time>2017-06-02T13:34:05.000Z</time>
      </trkpt>
      <trkpt lat="45.741974" lon="5.986546">
        <ele>535.983116</ele>
        <time>2017-06-02T13:34:07.000Z</time>
      </trkpt>
      <trkpt lat="45.742073" lon="5.986472">
        <ele>535.555418</ele>
        <time>2017-06-02T13:34:09.000Z</time>
      </trkpt>
      <trkpt lat="45.742172" lon="5.986421">
        <ele>535.152452</ele>
        <time>2017-06-02T13:34:11.000Z</time>
      </trkpt>
      <trkpt lat="45.742268" lon="5.986365">
        <ele>534.755436</ele>
        <time>2017-06-02T13:34:13.000Z</time>
      </trkpt>
      <trkpt lat="45.742380" lon="5.986312">
        <ele>534.303648</ele>
        <time>2017-06-02T13:34:15.000Z</time>
      </trkpt>
      <trkpt lat="45.742493" lon="5.986267">
        <ele>533.854415</ele>
        <time>2017-06-02T13:34:17.000Z</time>
      </trkpt>
      <trkpt lat="45.742610" lon="5.986251">
        <ele>533.404228</ele>
        <time>2017-06-02T13:34:19.000Z</time>
      </trkpt>
      <trkpt lat="45.742718" lon="5.986233">
        <ele>532.991892</ele>
        <time>2017-06-02T13:34:21.000Z</time>
      </trkpt>
      <trkpt lat="45.742798" lon="5.986099">
        <ele>532.531808</ele>
        <time>2017-06-02T13:34:24.000Z</time>
      </trkpt>
      <trkpt lat="45.742800" lon="5.985957">
        <ele>532.161250</ele>
        <time>2017-06-02T13:34:26.000Z</time>
      </trkpt>
      <trkpt lat="45.742840" lon="5.985820">
        <ele>531.773792</ele>
        <time>2017-06-02T13:34:28.000Z</time>
      </trkpt>
      <trkpt lat="45.742900" lon="5.985665">
        <ele>531.311348</ele>
        <time>2017-06-02T13:34:30.000Z</time>
      </trkpt>
      <trkpt lat="45.742973" lon="5.985519">
        <ele>530.842756</ele>
        <time>2017-06-02T13:34:32.000Z</time>
      </trkpt>
      <trkpt lat="45.743053" lon="5.985386">
        <ele>530.384653</ele>
        <time>2017-06-02T13:34:34.000Z</time>
      </trkpt>
      <trkpt lat="45.743160" lon="5.985303">
        <ele>529.929780</ele>
        <time>2017-06-02T13:34:36.000Z</time>
      </trkpt>
      <trkpt lat="45.743290" lon="5.985280">
        <ele>529.440083</ele>
        <time>2017-06-02T13:34:38.000Z</time>
      </trkpt>
      <trkpt lat="45.743430" lon="5.985307">
        <ele>528.911973</ele>
        <time>2017-06-02T13:34:40.000Z</time>
      </trkpt>
      <trkpt lat="45.743560" lon="5.985351">
        <ele>528.412593</ele>
        <time>2017-06-02T13:34:42.000Z</time>
      </trkpt>
      <trkpt lat="45.743680" lon="5.985384">
        <ele>527.955785</ele>
        <time>2017-06-02T13:34:44.000Z</time>
      </trkpt>
      <trkpt lat="45.743797" lon="5.985395">
        <ele>527.517439</ele>
        <time>2017-06-02T13:34:46.000Z</time>
      </trkpt>
      <trkpt lat="45.743916" lon="5.985413">
        <ele>527.070085</ele>
        <time>2017-06-02T13:34:48.000Z</time>
      </trkpt>
      <trkpt lat="45.744030" lon="5.985433">
        <ele>526.640713</ele>
        <time>2017-06-02T13:34:50.000Z</time>
      </trkpt>
      <trkpt lat="45.744140" lon="5.985451">
        <ele>526.057673</ele>
        <time>2017-06-02T13:34:52.000Z</time>
      </trkpt>
      <trkpt lat="45.744232" lon="5.985381">
        <ele>525.353041</ele>
        <time>2017-06-02T13:34:55.000Z</time>
      </trkpt>
      <trkpt lat="45.744244" lon="5.985230">
        <ele>524.635602</ele>
        <time>2017-06-02T13:34:58.000Z</time>
      </trkpt>
      <trkpt lat="45.744194" lon="5.985046">
        <ele>523.703458</ele>
        <time>2017-06-02T13:35:00.000Z</time>
      </trkpt>
      <trkpt lat="45.744156" lon="5.984800">
        <ele>522.514046</ele>
        <time>2017-06-02T13:35:02.000Z</time>
      </trkpt>
      <trkpt lat="45.744140" lon="5.984671">
        <ele>521.895526</ele>
        <time>2017-06-02T13:35:03.000Z</time>
      </trkpt>
      <trkpt lat="45.744118" lon="5.984542">
        <ele>521.268629</ele>
        <time>2017-06-02T13:35:04.000Z</time>
      </trkpt>
      <trkpt lat="45.744076" lon="5.984302">
        <ele>520.100570</ele>
        <time>2017-06-02T13:35:06.000Z</time>
      </trkpt>
      <trkpt lat="45.744050" lon="5.984079">
        <ele>519.033251</ele>
        <time>2017-06-02T13:35:08.000Z</time>
      </trkpt>
      <trkpt lat="45.744034" lon="5.983865">
        <ele>518.017228</ele>
        <time>2017-06-02T13:35:10.000Z</time>
      </trkpt>
      <trkpt lat="45.744020" lon="5.983648">
        <ele>516.988455</ele>
        <time>2017-06-02T13:35:12.000Z</time>
      </trkpt>
      <trkpt lat="45.744030" lon="5.983431">
        <ele>515.961820</ele>
        <time>2017-06-02T13:35:14.000Z</time>
      </trkpt>
      <trkpt lat="45.744070" lon="5.983227">
        <ele>514.961495</ele>
        <time>2017-06-02T13:35:16.000Z</time>
      </trkpt>
      <trkpt lat="45.744137" lon="5.983024">
        <ele>513.897618</ele>
        <time>2017-06-02T13:35:18.000Z</time>
      </trkpt>
      <trkpt lat="45.744210" lon="5.982829">
        <ele>512.842193</ele>
        <time>2017-06-02T13:35:20.000Z</time>
      </trkpt>
      <trkpt lat="45.744290" lon="5.982640">
        <ele>511.787901</ele>
        <time>2017-06-02T13:35:22.000Z</time>
      </trkpt>
      <trkpt lat="45.744396" lon="5.982486">
        <ele>510.756239</ele>
        <time>2017-06-02T13:35:24.000Z</time>
      </trkpt>
      <trkpt lat="45.744545" lon="5.982383">
        <ele>509.625603</ele>
        <time>2017-06-02T13:35:26.000Z</time>
      </trkpt>
      <trkpt lat="45.744713" lon="5.982297">
        <ele>508.406349</ele>
        <time>2017-06-02T13:35:28.000Z</time>
      </trkpt>
      <trkpt lat="45.744800" lon="5.982258">
        <ele>507.783335</ele>
        <time>2017-06-02T13:35:29.000Z</time>
      </trkpt>
      <trkpt lat="45.744890" lon="5.982210">
        <ele>507.127012</ele>
        <time>2017-06-02T13:35:30.000Z</time>
      </trkpt>
      <trkpt lat="45.745045" lon="5.982124">
        <ele>505.991035</ele>
        <time>2017-06-02T13:35:32.000Z</time>
      </trkpt>
      <trkpt lat="45.745170" lon="5.982056">
        <ele>505.077238</ele>
        <time>2017-06-02T13:35:34.000Z</time>
      </trkpt>
      <trkpt lat="45.745266" lon="5.981996">
        <ele>504.361439</ele>
        <time>2017-06-02T13:35:36.000Z</time>
      </trkpt>
      <trkpt lat="45.745327" lon="5.981883">
        <ele>503.680066</ele>
        <time>2017-06-02T13:35:41.000Z</time>
      </trkpt>
      <trkpt lat="45.745274" lon="5.981731">
        <ele>502.869657</ele>
        <time>2017-06-02T13:35:45.000Z</time>
      </trkpt>
      <trkpt lat="45.745216" lon="5.981556">
        <ele>501.958087</ele>
        <time>2017-06-02T13:35:48.000Z</time>
      </trkpt>
      <trkpt lat="45.745174" lon="5.981430">
        <ele>501.565233</ele>
        <time>2017-06-02T13:35:50.000Z</time>
      </trkpt>
      <trkpt lat="45.745120" lon="5.981278">
        <ele>501.085369</ele>
        <time>2017-06-02T13:35:52.000Z</time>
      </trkpt>
      <trkpt lat="45.745070" lon="5.981110">
        <ele>500.571526</ele>
        <time>2017-06-02T13:35:54.000Z</time>
      </trkpt>
      <trkpt lat="45.745010" lon="5.980933">
        <ele>500.017910</ele>
        <time>2017-06-02T13:35:56.000Z</time>
      </trkpt>
      <trkpt lat="45.744953" lon="5.980743">
        <ele>499.436059</ele>
        <time>2017-06-02T13:35:58.000Z</time>
      </trkpt>
      <trkpt lat="45.744890" lon="5.980542">
        <ele>498.816141</ele>
        <time>2017-06-02T13:36:00.000Z</time>
      </trkpt>
      <trkpt lat="45.744816" lon="5.980354">
        <ele>498.208882</ele>
        <time>2017-06-02T13:36:02.000Z</time>
      </trkpt>
      <trkpt lat="45.744705" lon="5.980117">
        <ele>497.405852</ele>
        <time>2017-06-02T13:36:05.000Z</time>
      </trkpt>
      <trkpt lat="45.744602" lon="5.979973">
        <ele>496.825709</ele>
        <time>2017-06-02T13:36:07.000Z</time>
      </trkpt>
      <trkpt lat="45.744473" lon="5.979878">
        <ele>496.240980</ele>
        <time>2017-06-02T13:36:09.000Z</time>
      </trkpt>
      <trkpt lat="45.744263" lon="5.979793">
        <ele>495.361231</ele>
        <time>2017-06-02T13:36:12.000Z</time>
      </trkpt>
      <trkpt lat="45.744125" lon="5.979724">
        <ele>494.771982</ele>
        <time>2017-06-02T13:36:14.000Z</time>
      </trkpt>
      <trkpt lat="45.744015" lon="5.979610">
        <ele>494.143667</ele>
        <time>2017-06-02T13:36:16.000Z</time>
      </trkpt>
      <trkpt lat="45.743942" lon="5.979440">
        <ele>493.491086</ele>
        <time>2017-06-02T13:36:18.000Z</time>
      </trkpt>
      <trkpt lat="45.743904" lon="5.979242">
        <ele>492.819719</ele>
        <time>2017-06-02T13:36:20.000Z</time>
      </trkpt>
      <trkpt lat="45.743893" lon="5.979038">
        <ele>492.150780</ele>
        <time>2017-06-02T13:36:22.000Z</time>
      </trkpt>
      <trkpt lat="45.743890" lon="5.978827">
        <ele>491.460801</ele>
        <time>2017-06-02T13:36:24.000Z</time>
      </trkpt>
      <trkpt lat="45.743885" lon="5.978603">
        <ele>490.728088</ele>
        <time>2017-06-02T13:36:26.000Z</time>
      </trkpt>
      <trkpt lat="45.743880" lon="5.978379">
        <ele>489.995375</ele>
        <time>2017-06-02T13:36:28.000Z</time>
      </trkpt>
      <trkpt lat="45.743874" lon="5.978148">
        <ele>489.239628</ele>
        <time>2017-06-02T13:36:30.000Z</time>
      </trkpt>
      <trkpt lat="45.743835" lon="5.977789">
        <ele>488.051789</ele>
        <time>2017-06-02T13:36:33.000Z</time>
      </trkpt>
      <trkpt lat="45.743805" lon="5.977668">
        <ele>487.631970</ele>
        <time>2017-06-02T13:36:34.000Z</time>
      </trkpt>
      <trkpt lat="45.743736" lon="5.977449">
        <ele>486.846390</ele>
        <time>2017-06-02T13:36:36.000Z</time>
      </trkpt>
      <trkpt lat="45.743640" lon="5.977257">
        <ele>485.961055</ele>
        <time>2017-06-02T13:36:38.000Z</time>
      </trkpt>
      <trkpt lat="45.743520" lon="5.977083">
        <ele>484.757690</ele>
        <time>2017-06-02T13:36:40.000Z</time>
      </trkpt>
      <trkpt lat="45.743378" lon="5.976933">
        <ele>483.514182</ele>
        <time>2017-06-02T13:36:42.000Z</time>
      </trkpt>
      <trkpt lat="45.743248" lon="5.976792">
        <ele>482.364936</ele>
        <time>2017-06-02T13:36:44.000Z</time>
      </trkpt>
      <trkpt lat="45.743126" lon="5.976646">
        <ele>481.244521</ele>
        <time>2017-06-02T13:36:46.000Z</time>
      </trkpt>
      <trkpt lat="45.743010" lon="5.976490">
        <ele>480.123156</ele>
        <time>2017-06-02T13:36:48.000Z</time>
      </trkpt>
      <trkpt lat="45.742928" lon="5.976305">
        <ele>479.045067</ele>
        <time>2017-06-02T13:36:50.000Z</time>
      </trkpt>
      <trkpt lat="45.742874" lon="5.976121">
        <ele>478.063156</ele>
        <time>2017-06-02T13:36:52.000Z</time>
      </trkpt>
      <trkpt lat="45.742820" lon="5.975950">
        <ele>477.139861</ele>
        <time>2017-06-02T13:36:54.000Z</time>
      </trkpt>
      <trkpt lat="45.742733" lon="5.975801">
        <ele>476.184192</ele>
        <time>2017-06-02T13:36:56.000Z</time>
      </trkpt>
      <trkpt lat="45.742607" lon="5.975674">
        <ele>475.098325</ele>
        <time>2017-06-02T13:36:58.000Z</time>
      </trkpt>
      <trkpt lat="45.742374" lon="5.975503">
        <ele>473.203377</ele>
        <time>2017-06-02T13:37:01.000Z</time>
      </trkpt>
      <trkpt lat="45.742294" lon="5.975434">
        <ele>472.456095</ele>
        <time>2017-06-02T13:37:02.000Z</time>
      </trkpt>
      <trkpt lat="45.742165" lon="5.975264">
        <ele>471.053467</ele>
        <time>2017-06-02T13:37:04.000Z</time>
      </trkpt>
      <trkpt lat="45.742073" lon="5.975071">
        <ele>469.748060</ele>
        <time>2017-06-02T13:37:06.000Z</time>
      </trkpt>
      <trkpt lat="45.742004" lon="5.974889">
        <ele>468.591238</ele>
        <time>2017-06-02T13:37:08.000Z</time>
      </trkpt>
      <trkpt lat="45.741936" lon="5.974711">
        <ele>467.457859</ele>
        <time>2017-06-02T13:37:10.000Z</time>
      </trkpt>
      <trkpt lat="45.741867" lon="5.974533">
        <ele>466.320616</ele>
        <time>2017-06-02T13:37:12.000Z</time>
      </trkpt>
      <trkpt lat="45.741795" lon="5.974340">
        <ele>465.098315</ele>
        <time>2017-06-02T13:37:14.000Z</time>
      </trkpt>
      <trkpt lat="45.741710" lon="5.974135">
        <ele>463.766498</ele>
        <time>2017-06-02T13:37:16.000Z</time>
      </trkpt>
      <trkpt lat="45.741627" lon="5.973927">
        <ele>462.428264</ele>
        <time>2017-06-02T13:37:18.000Z</time>
      </trkpt>
      <trkpt lat="45.741547" lon="5.973705">
        <ele>461.032789</ele>
        <time>2017-06-02T13:37:20.000Z</time>
      </trkpt>
      <trkpt lat="45.741463" lon="5.973480">
        <ele>459.607586</ele>
        <time>2017-06-02T13:37:22.000Z</time>
      </trkpt>
      <trkpt lat="45.741383" lon="5.973252">
        <ele>458.364543</ele>
        <time>2017-06-02T13:37:24.000Z</time>
      </trkpt>
      <trkpt lat="45.741330" lon="5.973139">
        <ele>457.736990</ele>
        <time>2017-06-02T13:37:25.000Z</time>
      </trkpt>
      <trkpt lat="45.741287" lon="5.973024">
        <ele>457.135629</ele>
        <time>2017-06-02T13:37:26.000Z</time>
      </trkpt>
      <trkpt lat="45.741238" lon="5.972911">
        <ele>456.522419</ele>
        <time>2017-06-02T13:37:27.000Z</time>
      </trkpt>
      <trkpt lat="45.741180" lon="5.972806">
        <ele>455.905184</ele>
        <time>2017-06-02T13:37:28.000Z</time>
      </trkpt>
      <trkpt lat="45.741127" lon="5.972701">
        <ele>455.307880</ele>
        <time>2017-06-02T13:37:29.000Z</time>
      </trkpt>
      <trkpt lat="45.741030" lon="5.972514">
        <ele>454.233920</ele>
        <time>2017-06-02T13:37:31.000Z</time>
      </trkpt>
      <trkpt lat="45.740948" lon="5.972343">
        <ele>453.277587</ele>
        <time>2017-06-02T13:37:33.000Z</time>
      </trkpt>
      <trkpt lat="45.740870" lon="5.972160">
        <ele>452.289199</ele>
        <time>2017-06-02T13:37:35.000Z</time>
      </trkpt>
      <trkpt lat="45.740803" lon="5.971983">
        <ele>451.361058</ele>
        <time>2017-06-02T13:37:37.000Z</time>
      </trkpt>
      <trkpt lat="45.740734" lon="5.971793">
        <ele>450.373800</ele>
        <time>2017-06-02T13:37:39.000Z</time>
      </trkpt>
      <trkpt lat="45.740660" lon="5.971601">
        <ele>449.362809</ele>
        <time>2017-06-02T13:37:41.000Z</time>
      </trkpt>
      <trkpt lat="45.740600" lon="5.971447">
        <ele>448.549838</ele>
        <time>2017-06-02T13:37:43.000Z</time>
      </trkpt>
      <trkpt lat="45.740570" lon="5.971308">
        <ele>447.879192</ele>
        <time>2017-06-02T13:37:45.000Z</time>
      </trkpt>
      <trkpt lat="45.740578" lon="5.971148">
        <ele>447.297412</ele>
        <time>2017-06-02T13:37:47.000Z</time>
      </trkpt>
      <trkpt lat="45.740616" lon="5.970970">
        <ele>447.094741</ele>
        <time>2017-06-02T13:37:49.000Z</time>
      </trkpt>
      <trkpt lat="45.740660" lon="5.970789">
        <ele>446.886056</ele>
        <time>2017-06-02T13:37:51.000Z</time>
      </trkpt>
      <trkpt lat="45.740700" lon="5.970620">
        <ele>446.691756</ele>
        <time>2017-06-02T13:37:53.000Z</time>
      </trkpt>
      <trkpt lat="45.740738" lon="5.970460">
        <ele>446.507738</ele>
        <time>2017-06-02T13:37:55.000Z</time>
      </trkpt>
      <trkpt lat="45.740746" lon="5.970305">
        <ele>446.338514</ele>
        <time>2017-06-02T13:37:57.000Z</time>
      </trkpt>
      <trkpt lat="45.740685" lon="5.970188">
        <ele>446.179503</ele>
        <time>2017-06-02T13:37:59.000Z</time>
      </trkpt>
      <trkpt lat="45.740604" lon="5.970100">
        <ele>446.020919</ele>
        <time>2017-06-02T13:38:01.000Z</time>
      </trkpt>
      <trkpt lat="45.740500" lon="5.969979">
        <ele>445.811918</ele>
        <time>2017-06-02T13:38:04.000Z</time>
      </trkpt>
      <trkpt lat="45.740433" lon="5.969884">
        <ele>445.664865</ele>
        <time>2017-06-02T13:38:06.000Z</time>
      </trkpt>
      <trkpt lat="45.740360" lon="5.969765">
        <ele>445.492360</ele>
        <time>2017-06-02T13:38:08.000Z</time>
      </trkpt>
      <trkpt lat="45.740284" lon="5.969654">
        <ele>445.323054</ele>
        <time>2017-06-02T13:38:10.000Z</time>
      </trkpt>
      <trkpt lat="45.740208" lon="5.969526">
        <ele>445.140075</ele>
        <time>2017-06-02T13:38:12.000Z</time>
      </trkpt>
      <trkpt lat="45.740116" lon="5.969412">
        <ele>444.950320</ele>
        <time>2017-06-02T13:38:14.000Z</time>
      </trkpt>
      <trkpt lat="45.740036" lon="5.969284">
        <ele>444.763237</ele>
        <time>2017-06-02T13:38:16.000Z</time>
      </trkpt>
      <trkpt lat="45.739950" lon="5.969177">
        <ele>444.585547</ele>
        <time>2017-06-02T13:38:18.000Z</time>
      </trkpt>
      <trkpt lat="45.739838" lon="5.969089">
        <ele>444.503113</ele>
        <time>2017-06-02T13:38:20.000Z</time>
      </trkpt>
      <trkpt lat="45.739723" lon="5.969036">
        <ele>444.457783</ele>
        <time>2017-06-02T13:38:22.000Z</time>
      </trkpt>
      <trkpt lat="45.739600" lon="5.968985">
        <ele>444.409736</ele>
        <time>2017-06-02T13:38:24.000Z</time>
      </trkpt>
      <trkpt lat="45.739468" lon="5.968952">
        <ele>444.359457</ele>
        <time>2017-06-02T13:38:26.000Z</time>
      </trkpt>
      <trkpt lat="45.739323" lon="5.968916">
        <ele>444.304237</ele>
        <time>2017-06-02T13:38:28.000Z</time>
      </trkpt>
      <trkpt lat="45.739174" lon="5.968865">
        <ele>444.246754</ele>
        <time>2017-06-02T13:38:30.000Z</time>
      </trkpt>
      <trkpt lat="45.739033" lon="5.968809">
        <ele>444.191851</ele>
        <time>2017-06-02T13:38:32.000Z</time>
      </trkpt>
      <trkpt lat="45.738873" lon="5.968782">
        <ele>444.131399</ele>
        <time>2017-06-02T13:38:34.000Z</time>
      </trkpt>
      <trkpt lat="45.738712" lon="5.968781">
        <ele>444.070985</ele>
        <time>2017-06-02T13:38:36.000Z</time>
      </trkpt>
      <trkpt lat="45.738567" lon="5.968748">
        <ele>444.015894</ele>
        <time>2017-06-02T13:38:38.000Z</time>
      </trkpt>
      <trkpt lat="45.738453" lon="5.968671">
        <ele>443.968603</ele>
        <time>2017-06-02T13:38:40.000Z</time>
      </trkpt>
      <trkpt lat="45.738342" lon="5.968553">
        <ele>443.916739</ele>
        <time>2017-06-02T13:38:42.000Z</time>
      </trkpt>
      <trkpt lat="45.738247" lon="5.968428">
        <ele>443.868341</ele>
        <time>2017-06-02T13:38:44.000Z</time>
      </trkpt>
      <trkpt lat="45.738150" lon="5.968289">
        <ele>443.712633</ele>
        <time>2017-06-02T13:38:46.000Z</time>
      </trkpt>
      <trkpt lat="45.738056" lon="5.968144">
        <ele>443.549053</ele>
        <time>2017-06-02T13:38:48.000Z</time>
      </trkpt>
      <trkpt lat="45.737972" lon="5.968004">
        <ele>443.396448</ele>
        <time>2017-06-02T13:38:50.000Z</time>
      </trkpt>
      <trkpt lat="45.737880" lon="5.967861">
        <ele>443.235690</ele>
        <time>2017-06-02T13:38:52.000Z</time>
      </trkpt>
      <trkpt lat="45.737785" lon="5.967758">
        <ele>443.094597</ele>
        <time>2017-06-02T13:38:54.000Z</time>
      </trkpt>
      <trkpt lat="45.737694" lon="5.967697">
        <ele>442.975613</ele>
        <time>2017-06-02T13:38:56.000Z</time>
      </trkpt>
      <trkpt lat="45.737580" lon="5.967670">
        <ele>442.838768</ele>
        <time>2017-06-02T13:38:58.000Z</time>
      </trkpt>
      <trkpt lat="45.737453" lon="5.967683">
        <ele>442.687977</ele>
        <time>2017-06-02T13:39:00.000Z</time>
      </trkpt>
      <trkpt lat="45.737324" lon="5.967728">
        <ele>442.530737</ele>
        <time>2017-06-02T13:39:02.000Z</time>
      </trkpt>
      <trkpt lat="45.737198" lon="5.967770">
        <ele>442.377528</ele>
        <time>2017-06-02T13:39:04.000Z</time>
      </trkpt>
      <trkpt lat="45.737080" lon="5.967761">
        <ele>442.237581</ele>
        <time>2017-06-02T13:39:06.000Z</time>
      </trkpt>
      <trkpt lat="45.736965" lon="5.967695">
        <ele>442.090864</ele>
        <time>2017-06-02T13:39:08.000Z</time>
      </trkpt>
      <trkpt lat="45.736862" lon="5.967600">
        <ele>441.945789</ele>
        <time>2017-06-02T13:39:10.000Z</time>
      </trkpt>
      <trkpt lat="45.736760" lon="5.967477">
        <ele>441.787897</ele>
        <time>2017-06-02T13:39:12.000Z</time>
      </trkpt>
      <trkpt lat="45.736652" lon="5.967342">
        <ele>441.405426</ele>
        <time>2017-06-02T13:39:14.000Z</time>
      </trkpt>
      <trkpt lat="45.736550" lon="5.967198">
        <ele>440.927184</ele>
        <time>2017-06-02T13:39:16.000Z</time>
      </trkpt>
      <trkpt lat="45.736440" lon="5.967050">
        <ele>440.423220</ele>
        <time>2017-06-02T13:39:18.000Z</time>
      </trkpt>
      <trkpt lat="45.736330" lon="5.966909">
        <ele>439.930282</ele>
        <time>2017-06-02T13:39:20.000Z</time>
      </trkpt>
      <trkpt lat="45.736217" lon="5.966765">
        <ele>439.425212</ele>
        <time>2017-06-02T13:39:22.000Z</time>
      </trkpt>
      <trkpt lat="45.736115" lon="5.966613">
        <ele>438.933700</ele>
        <time>2017-06-02T13:39:24.000Z</time>
      </trkpt>
      <trkpt lat="45.736010" lon="5.966456">
        <ele>438.426841</ele>
        <time>2017-06-02T13:39:26.000Z</time>
      </trkpt>
      <trkpt lat="45.735924" lon="5.966283">
        <ele>437.931746</ele>
        <time>2017-06-02T13:39:28.000Z</time>
      </trkpt>
      <trkpt lat="45.735830" lon="5.966111">
        <ele>437.422525</ele>
        <time>2017-06-02T13:39:30.000Z</time>
      </trkpt>
      <trkpt lat="45.735710" lon="5.965965">
        <ele>436.896748</ele>
        <time>2017-06-02T13:39:32.000Z</time>
      </trkpt>
      <trkpt lat="45.735573" lon="5.965857">
        <ele>436.374515</ele>
        <time>2017-06-02T13:39:34.000Z</time>
      </trkpt>
      <trkpt lat="45.735424" lon="5.965798">
        <ele>435.858238</ele>
        <time>2017-06-02T13:39:36.000Z</time>
      </trkpt>
      <trkpt lat="45.735268" lon="5.965736">
        <ele>435.120305</ele>
        <time>2017-06-02T13:39:38.000Z</time>
      </trkpt>
      <trkpt lat="45.735134" lon="5.965633">
        <ele>434.368374</ele>
        <time>2017-06-02T13:39:40.000Z</time>
      </trkpt>
      <trkpt lat="45.734993" lon="5.965510">
        <ele>433.552098</ele>
        <time>2017-06-02T13:39:42.000Z</time>
      </trkpt>
      <trkpt lat="45.734856" lon="5.965371">
        <ele>432.722007</ele>
        <time>2017-06-02T13:39:44.000Z</time>
      </trkpt>
      <trkpt lat="45.734726" lon="5.965207">
        <ele>431.865510</ele>
        <time>2017-06-02T13:39:46.000Z</time>
      </trkpt>
      <trkpt lat="45.734650" lon="5.965129">
        <ele>431.403238</ele>
        <time>2017-06-02T13:39:47.000Z</time>
      </trkpt>
      <trkpt lat="45.734516" lon="5.964975">
        <ele>430.553810</ele>
        <time>2017-06-02T13:39:49.000Z</time>
      </trkpt>
      <trkpt lat="45.734447" lon="5.964888">
        <ele>430.099312</ele>
        <time>2017-06-02T13:39:50.000Z</time>
      </trkpt>
      <trkpt lat="45.734314" lon="5.964720">
        <ele>429.222556</ele>
        <time>2017-06-02T13:39:52.000Z</time>
      </trkpt>
      <trkpt lat="45.734250" lon="5.964621">
        <ele>428.756834</ele>
        <time>2017-06-02T13:39:53.000Z</time>
      </trkpt>
      <trkpt lat="45.734180" lon="5.964536">
        <ele>428.303105</ele>
        <time>2017-06-02T13:39:54.000Z</time>
      </trkpt>
      <trkpt lat="45.734050" lon="5.964363">
        <ele>427.425767</ele>
        <time>2017-06-02T13:39:56.000Z</time>
      </trkpt>
      <trkpt lat="45.733980" lon="5.964276">
        <ele>426.967544</ele>
        <time>2017-06-02T13:39:57.000Z</time>
      </trkpt>
      <trkpt lat="45.733880" lon="5.964111">
        <ele>426.291083</ele>
        <time>2017-06-02T13:39:59.000Z</time>
      </trkpt>
      <trkpt lat="45.733800" lon="5.963957">
        <ele>425.711472</ele>
        <time>2017-06-02T13:40:01.000Z</time>
      </trkpt>
      <trkpt lat="45.733730" lon="5.963792">
        <ele>425.128487</ele>
        <time>2017-06-02T13:40:03.000Z</time>
      </trkpt>
      <trkpt lat="45.733680" lon="5.963612">
        <ele>424.543560</ele>
        <time>2017-06-02T13:40:05.000Z</time>
      </trkpt>
      <trkpt lat="45.733640" lon="5.963423">
        <ele>423.947259</ele>
        <time>2017-06-02T13:40:07.000Z</time>
      </trkpt>
      <trkpt lat="45.733597" lon="5.963218">
        <ele>423.300960</ele>
        <time>2017-06-02T13:40:09.000Z</time>
      </trkpt>
      <trkpt lat="45.733566" lon="5.962998">
        <ele>422.623315</ele>
        <time>2017-06-02T13:40:11.000Z</time>
      </trkpt>
      <trkpt lat="45.733536" lon="5.962778">
        <ele>421.946513</ele>
        <time>2017-06-02T13:40:13.000Z</time>
      </trkpt>
      <trkpt lat="45.733486" lon="5.962547">
        <ele>421.216290</ele>
        <time>2017-06-02T13:40:15.000Z</time>
      </trkpt>
      <trkpt lat="45.733420" lon="5.962327">
        <ele>420.493289</ele>
        <time>2017-06-02T13:40:17.000Z</time>
      </trkpt>
      <trkpt lat="45.733353" lon="5.962135">
        <ele>419.845173</ele>
        <time>2017-06-02T13:40:19.000Z</time>
      </trkpt>
      <trkpt lat="45.733300" lon="5.961991">
        <ele>419.353650</ele>
        <time>2017-06-02T13:40:21.000Z</time>
      </trkpt>
      <trkpt lat="45.733215" lon="5.961868">
        <ele>418.833889</ele>
        <time>2017-06-02T13:40:24.000Z</time>
      </trkpt>
      <trkpt lat="45.733162" lon="5.961723">
        <ele>418.345986</ele>
        <time>2017-06-02T13:40:27.000Z</time>
      </trkpt>
      <trkpt lat="45.733124" lon="5.961539">
        <ele>417.774001</ele>
        <time>2017-06-02T13:40:30.000Z</time>
      </trkpt>
      <trkpt lat="45.733110" lon="5.961388">
        <ele>417.319935</ele>
        <time>2017-06-02T13:40:32.000Z</time>
      </trkpt>
      <trkpt lat="45.733097" lon="5.961222">
        <ele>416.822005</ele>
        <time>2017-06-02T13:40:34.000Z</time>
      </trkpt>
      <trkpt lat="45.733086" lon="5.961035">
        <ele>416.262605</ele>
        <time>2017-06-02T13:40:36.000Z</time>
      </trkpt>
      <trkpt lat="45.733070" lon="5.960847">
        <ele>415.698049</ele>
        <time>2017-06-02T13:40:38.000Z</time>
      </trkpt>
      <trkpt lat="45.733040" lon="5.960654">
        <ele>415.108647</ele>
        <time>2017-06-02T13:40:40.000Z</time>
      </trkpt>
      <trkpt lat="45.732994" lon="5.960455">
        <ele>414.483769</ele>
        <time>2017-06-02T13:40:42.000Z</time>
      </trkpt>
      <trkpt lat="45.732937" lon="5.960267">
        <ele>413.872778</ele>
        <time>2017-06-02T13:40:44.000Z</time>
      </trkpt>
      <trkpt lat="45.732864" lon="5.960080">
        <ele>413.234096</ele>
        <time>2017-06-02T13:40:46.000Z</time>
      </trkpt>
      <trkpt lat="45.732788" lon="5.959900">
        <ele>412.607008</ele>
        <time>2017-06-02T13:40:48.000Z</time>
      </trkpt>
      <trkpt lat="45.732693" lon="5.959743">
        <ele>411.987636</ele>
        <time>2017-06-02T13:40:50.000Z</time>
      </trkpt>
      <trkpt lat="45.732586" lon="5.959600">
        <ele>411.365101</ele>
        <time>2017-06-02T13:40:52.000Z</time>
      </trkpt>
      <trkpt lat="45.732470" lon="5.959477">
        <ele>410.896323</ele>
        <time>2017-06-02T13:40:54.000Z</time>
      </trkpt>
      <trkpt lat="45.732353" lon="5.959382">
        <ele>410.459480</ele>
        <time>2017-06-02T13:40:56.000Z</time>
      </trkpt>
      <trkpt lat="45.732230" lon="5.959302">
        <ele>410.020695</ele>
        <time>2017-06-02T13:40:58.000Z</time>
      </trkpt>
      <trkpt lat="45.732124" lon="5.959187">
        <ele>409.588790</ele>
        <time>2017-06-02T13:41:00.000Z</time>
      </trkpt>
      <trkpt lat="45.732050" lon="5.959022">
        <ele>409.144112</ele>
        <time>2017-06-02T13:41:02.000Z</time>
      </trkpt>
      <trkpt lat="45.732025" lon="5.958808">
        <ele>408.652152</ele>
        <time>2017-06-02T13:41:04.000Z</time>
      </trkpt>
      <trkpt lat="45.732040" lon="5.958590">
        <ele>408.155475</ele>
        <time>2017-06-02T13:41:06.000Z</time>
      </trkpt>
      <trkpt lat="45.732080" lon="5.958373">
        <ele>407.646594</ele>
        <time>2017-06-02T13:41:08.000Z</time>
      </trkpt>
      <trkpt lat="45.732117" lon="5.958139">
        <ele>407.102593</ele>
        <time>2017-06-02T13:41:10.000Z</time>
      </trkpt>
      <trkpt lat="45.732147" lon="5.957910">
        <ele>406.574306</ele>
        <time>2017-06-02T13:41:12.000Z</time>
      </trkpt>
      <trkpt lat="45.732166" lon="5.957701">
        <ele>406.096430</ele>
        <time>2017-06-02T13:41:14.000Z</time>
      </trkpt>
      <trkpt lat="45.732166" lon="5.957497">
        <ele>405.633893</ele>
        <time>2017-06-02T13:41:16.000Z</time>
      </trkpt>
      <trkpt lat="45.732140" lon="5.957305">
        <ele>405.196102</ele>
        <time>2017-06-02T13:41:18.000Z</time>
      </trkpt>
      <trkpt lat="45.732086" lon="5.957123">
        <ele>404.755177</ele>
        <time>2017-06-02T13:41:20.000Z</time>
      </trkpt>
      <trkpt lat="45.732002" lon="5.956952">
        <ele>404.288966</ele>
        <time>2017-06-02T13:41:22.000Z</time>
      </trkpt>
      <trkpt lat="45.731900" lon="5.956785">
        <ele>403.794202</ele>
        <time>2017-06-02T13:41:24.000Z</time>
      </trkpt>
      <trkpt lat="45.731804" lon="5.956595">
        <ele>403.271240</ele>
        <time>2017-06-02T13:41:26.000Z</time>
      </trkpt>
      <trkpt lat="45.731730" lon="5.956387">
        <ele>402.750717</ele>
        <time>2017-06-02T13:41:28.000Z</time>
      </trkpt>
      <trkpt lat="45.731693" lon="5.956155">
        <ele>402.220117</ele>
        <time>2017-06-02T13:41:30.000Z</time>
      </trkpt>
      <trkpt lat="45.731678" lon="5.955911">
        <ele>401.673984</ele>
        <time>2017-06-02T13:41:32.000Z</time>
      </trkpt>
      <trkpt lat="45.731686" lon="5.955660">
        <ele>401.113768</ele>
        <time>2017-06-02T13:41:34.000Z</time>
      </trkpt>
      <trkpt lat="45.731710" lon="5.955420">
        <ele>400.573197</ele>
        <time>2017-06-02T13:41:36.000Z</time>
      </trkpt>
      <trkpt lat="45.731728" lon="5.955171">
        <ele>400.015053</ele>
        <time>2017-06-02T13:41:38.000Z</time>
      </trkpt>
      <trkpt lat="45.731728" lon="5.954934">
        <ele>399.662364</ele>
        <time>2017-06-02T13:41:40.000Z</time>
      </trkpt>
      <trkpt lat="45.731700" lon="5.954700">
        <ele>399.444874</ele>
        <time>2017-06-02T13:41:42.000Z</time>
      </trkpt>
      <trkpt lat="45.731674" lon="5.954464">
        <ele>399.226002</ele>
        <time>2017-06-02T13:41:44.000Z</time>
      </trkpt>
      <trkpt lat="45.731650" lon="5.954238">
        <ele>399.016585</ele>
        <time>2017-06-02T13:41:46.000Z</time>
      </trkpt>
      <trkpt lat="45.731632" lon="5.954024">
        <ele>398.819125</ele>
        <time>2017-06-02T13:41:48.000Z</time>
      </trkpt>
      <trkpt lat="45.731610" lon="5.953824">
        <ele>398.633647</ele>
        <time>2017-06-02T13:41:50.000Z</time>
      </trkpt>
      <trkpt lat="45.731560" lon="5.953644">
        <ele>398.456175</ele>
        <time>2017-06-02T13:41:52.000Z</time>
      </trkpt>
      <trkpt lat="45.731470" lon="5.953476">
        <ele>398.262171</ele>
        <time>2017-06-02T13:41:54.000Z</time>
      </trkpt>
      <trkpt lat="45.731380" lon="5.953323">
        <ele>398.078877</ele>
        <time>2017-06-02T13:41:56.000Z</time>
      </trkpt>
      <trkpt lat="45.731290" lon="5.953171">
        <ele>397.896283</ele>
        <time>2017-06-02T13:41:58.000Z</time>
      </trkpt>
      <trkpt lat="45.731220" lon="5.952992">
        <ele>397.708322</ele>
        <time>2017-06-02T13:42:00.000Z</time>
      </trkpt>
      <trkpt lat="45.731170" lon="5.952798">
        <ele>397.518873</ele>
        <time>2017-06-02T13:42:02.000Z</time>
      </trkpt>
      <trkpt lat="45.731120" lon="5.952587">
        <ele>397.253900</ele>
        <time>2017-06-02T13:42:04.000Z</time>
      </trkpt>
      <trkpt lat="45.731068" lon="5.952373">
        <ele>396.931117</ele>
        <time>2017-06-02T13:42:06.000Z</time>
      </trkpt>
      <trkpt lat="45.731000" lon="5.952171">
        <ele>396.611655</ele>
        <time>2017-06-02T13:42:08.000Z</time>
      </trkpt>
      <trkpt lat="45.730946" lon="5.951952">
        <ele>396.280799</ele>
        <time>2017-06-02T13:42:10.000Z</time>
      </trkpt>
      <trkpt lat="45.730890" lon="5.951728">
        <ele>395.941864</ele>
        <time>2017-06-02T13:42:12.000Z</time>
      </trkpt>
      <trkpt lat="45.730830" lon="5.951504">
        <ele>395.600090</ele>
        <time>2017-06-02T13:42:14.000Z</time>
      </trkpt>
      <trkpt lat="45.730760" lon="5.951304">
        <ele>395.281382</ele>
        <time>2017-06-02T13:42:16.000Z</time>
      </trkpt>
      <trkpt lat="45.730663" lon="5.951129">
        <ele>394.963060</ele>
        <time>2017-06-02T13:42:18.000Z</time>
      </trkpt>
      <trkpt lat="45.730564" lon="5.950943">
        <ele>394.629863</ele>
        <time>2017-06-02T13:42:20.000Z</time>
      </trkpt>
      <trkpt lat="45.730490" lon="5.950740">
        <ele>394.303631</ele>
        <time>2017-06-02T13:42:22.000Z</time>
      </trkpt>
      <trkpt lat="45.730420" lon="5.950550">
        <ele>393.997589</ele>
        <time>2017-06-02T13:42:24.000Z</time>
      </trkpt>
      <trkpt lat="45.730312" lon="5.950398">
        <ele>393.750081</ele>
        <time>2017-06-02T13:42:26.000Z</time>
      </trkpt>
      <trkpt lat="45.730194" lon="5.950294">
        <ele>393.733897</ele>
        <time>2017-06-02T13:42:28.000Z</time>
      </trkpt>
      <trkpt lat="45.730053" lon="5.950246">
        <ele>393.716967</ele>
        <time>2017-06-02T13:42:30.000Z</time>
      </trkpt>
      <trkpt lat="45.729910" lon="5.950224">
        <ele>393.700166</ele>
        <time>2017-06-02T13:42:32.000Z</time>
      </trkpt>
      <trkpt lat="45.729782" lon="5.950160">
        <ele>393.684328</ele>
        <time>2017-06-02T13:42:34.000Z</time>
      </trkpt>
      <trkpt lat="45.729656" lon="5.950062">
        <ele>393.667580</ele>
        <time>2017-06-02T13:42:36.000Z</time>
      </trkpt>
      <trkpt lat="45.729560" lon="5.949909">
        <ele>393.650804</ele>
        <time>2017-06-02T13:42:38.000Z</time>
      </trkpt>
      <trkpt lat="45.729515" lon="5.949687">
        <ele>393.631954</ele>
        <time>2017-06-02T13:42:40.000Z</time>
      </trkpt>
      <trkpt lat="45.729473" lon="5.949443">
        <ele>393.611461</ele>
        <time>2017-06-02T13:42:42.000Z</time>
      </trkpt>
      <trkpt lat="45.729440" lon="5.949201">
        <ele>393.591354</ele>
        <time>2017-06-02T13:42:44.000Z</time>
      </trkpt>
      <trkpt lat="45.729393" lon="5.948965">
        <ele>393.571341</ele>
        <time>2017-06-02T13:42:46.000Z</time>
      </trkpt>
      <trkpt lat="45.729332" lon="5.948749">
        <ele>393.552341</ele>
        <time>2017-06-02T13:42:48.000Z</time>
      </trkpt>
      <trkpt lat="45.729263" lon="5.948544">
        <ele>393.493142</ele>
        <time>2017-06-02T13:42:50.000Z</time>
      </trkpt>
      <trkpt lat="45.729156" lon="5.948388">
        <ele>393.402215</ele>
        <time>2017-06-02T13:42:52.000Z</time>
      </trkpt>
      <trkpt lat="45.729034" lon="5.948295">
        <ele>393.319906</ele>
        <time>2017-06-02T13:42:54.000Z</time>
      </trkpt>
      <trkpt lat="45.728890" lon="5.948156">
        <ele>393.216488</ele>
        <time>2017-06-02T13:42:56.000Z</time>
      </trkpt>
      <trkpt lat="45.728740" lon="5.948052">
        <ele>393.117236</ele>
        <time>2017-06-02T13:42:58.000Z</time>
      </trkpt>
      <trkpt lat="45.728592" lon="5.947964">
        <ele>393.021798</ele>
        <time>2017-06-02T13:43:00.000Z</time>
      </trkpt>
      <trkpt lat="45.728450" lon="5.947864">
        <ele>392.927557</ele>
        <time>2017-06-02T13:43:02.000Z</time>
      </trkpt>
      <trkpt lat="45.728336" lon="5.947700">
        <ele>392.831333</ele>
        <time>2017-06-02T13:43:04.000Z</time>
      </trkpt>
      <trkpt lat="45.728252" lon="5.947492">
        <ele>392.731426</ele>
        <time>2017-06-02T13:43:06.000Z</time>
      </trkpt>
      <trkpt lat="45.728165" lon="5.947279">
        <ele>392.628824</ele>
        <time>2017-06-02T13:43:08.000Z</time>
      </trkpt>
      <trkpt lat="45.728096" lon="5.947072">
        <ele>392.533453</ele>
        <time>2017-06-02T13:43:10.000Z</time>
      </trkpt>
      <trkpt lat="45.728040" lon="5.946861">
        <ele>392.369050</ele>
        <time>2017-06-02T13:43:12.000Z</time>
      </trkpt>
      <trkpt lat="45.727950" lon="5.946692">
        <ele>392.090836</ele>
        <time>2017-06-02T13:43:14.000Z</time>
      </trkpt>
      <trkpt lat="45.727837" lon="5.946526">
        <ele>391.787363</ele>
        <time>2017-06-02T13:43:16.000Z</time>
      </trkpt>
      <trkpt lat="45.727707" lon="5.946425">
        <ele>391.510077</ele>
        <time>2017-06-02T13:43:18.000Z</time>
      </trkpt>
      <trkpt lat="45.727577" lon="5.946337">
        <ele>391.240488</ele>
        <time>2017-06-02T13:43:20.000Z</time>
      </trkpt>
      <trkpt lat="45.727448" lon="5.946262">
        <ele>390.979455</ele>
        <time>2017-06-02T13:43:22.000Z</time>
      </trkpt>
      <trkpt lat="45.727314" lon="5.946176">
        <ele>390.704147</ele>
        <time>2017-06-02T13:43:24.000Z</time>
      </trkpt>
      <trkpt lat="45.727196" lon="5.946059">
        <ele>390.435072</ele>
        <time>2017-06-02T13:43:26.000Z</time>
      </trkpt>
      <trkpt lat="45.727110" lon="5.945883">
        <ele>390.153883</ele>
        <time>2017-06-02T13:43:28.000Z</time>
      </trkpt>
      <trkpt lat="45.727085" lon="5.945660">
        <ele>389.858265</ele>
        <time>2017-06-02T13:43:30.000Z</time>
      </trkpt>
      <trkpt lat="45.727110" lon="5.945428">
        <ele>389.551010</ele>
        <time>2017-06-02T13:43:32.000Z</time>
      </trkpt>
      <trkpt lat="45.727150" lon="5.945190">
        <ele>389.230597</ele>
        <time>2017-06-02T13:43:34.000Z</time>
      </trkpt>
      <trkpt lat="45.727160" lon="5.944954">
        <ele>388.815884</ele>
        <time>2017-06-02T13:43:36.000Z</time>
      </trkpt>
      <trkpt lat="45.727146" lon="5.944715">
        <ele>388.317287</ele>
        <time>2017-06-02T13:43:38.000Z</time>
      </trkpt>
      <trkpt lat="45.727108" lon="5.944486">
        <ele>387.827959</ele>
        <time>2017-06-02T13:43:40.000Z</time>
      </trkpt>
      <trkpt lat="45.727047" lon="5.944262">
        <ele>387.328112</ele>
        <time>2017-06-02T13:43:42.000Z</time>
      </trkpt>
      <trkpt lat="45.726986" lon="5.944051">
        <ele>386.853341</ele>
        <time>2017-06-02T13:43:44.000Z</time>
      </trkpt>
      <trkpt lat="45.726933" lon="5.943851">
        <ele>386.408615</ele>
        <time>2017-06-02T13:43:46.000Z</time>
      </trkpt>
      <trkpt lat="45.726900" lon="5.943630">
        <ele>385.938789</ele>
        <time>2017-06-02T13:43:48.000Z</time>
      </trkpt>
      <trkpt lat="45.726906" lon="5.943398">
        <ele>385.456157</ele>
        <time>2017-06-02T13:43:50.000Z</time>
      </trkpt>
      <trkpt lat="45.726933" lon="5.943161">
        <ele>384.956944</ele>
        <time>2017-06-02T13:43:52.000Z</time>
      </trkpt>
      <trkpt lat="45.726990" lon="5.942923">
        <ele>384.433862</ele>
        <time>2017-06-02T13:43:54.000Z</time>
      </trkpt>
      <trkpt lat="45.727043" lon="5.942678">
        <ele>383.900642</ele>
        <time>2017-06-02T13:43:56.000Z</time>
      </trkpt>
      <trkpt lat="45.727077" lon="5.942447">
        <ele>383.274014</ele>
        <time>2017-06-02T13:43:58.000Z</time>
      </trkpt>
      <trkpt lat="45.727104" lon="5.942222">
        <ele>382.606261</ele>
        <time>2017-06-02T13:44:00.000Z</time>
      </trkpt>
      <trkpt lat="45.727100" lon="5.942008">
        <ele>381.980109</ele>
        <time>2017-06-02T13:44:02.000Z</time>
      </trkpt>
      <trkpt lat="45.727070" lon="5.941787">
        <ele>381.321600</ele>
        <time>2017-06-02T13:44:04.000Z</time>
      </trkpt>
      <trkpt lat="45.727020" lon="5.941568">
        <ele>380.647659</ele>
        <time>2017-06-02T13:44:06.000Z</time>
      </trkpt>
      <trkpt lat="45.726967" lon="5.941353">
        <ele>379.980749</ele>
        <time>2017-06-02T13:44:08.000Z</time>
      </trkpt>
      <trkpt lat="45.726902" lon="5.941121">
        <ele>379.249558</ele>
        <time>2017-06-02T13:44:10.000Z</time>
      </trkpt>
      <trkpt lat="45.726870" lon="5.940996">
        <ele>378.860136</ele>
        <time>2017-06-02T13:44:11.000Z</time>
      </trkpt>
      <trkpt lat="45.726795" lon="5.940760">
        <ele>378.101695</ele>
        <time>2017-06-02T13:44:13.000Z</time>
      </trkpt>
      <trkpt lat="45.726720" lon="5.940536">
        <ele>377.375051</ele>
        <time>2017-06-02T13:44:15.000Z</time>
      </trkpt>
      <trkpt lat="45.726658" lon="5.940298">
        <ele>376.632030</ele>
        <time>2017-06-02T13:44:17.000Z</time>
      </trkpt>
      <trkpt lat="45.726597" lon="5.940064">
        <ele>375.990210</ele>
        <time>2017-06-02T13:44:19.000Z</time>
      </trkpt>
      <trkpt lat="45.726530" lon="5.939837">
        <ele>375.478442</ele>
        <time>2017-06-02T13:44:21.000Z</time>
      </trkpt>
      <trkpt lat="45.726467" lon="5.939603">
        <ele>374.957654</ele>
        <time>2017-06-02T13:44:23.000Z</time>
      </trkpt>
      <trkpt lat="45.726450" lon="5.939354">
        <ele>374.438136</ele>
        <time>2017-06-02T13:44:25.000Z</time>
      </trkpt>
      <trkpt lat="45.726470" lon="5.939120">
        <ele>373.948605</ele>
        <time>2017-06-02T13:44:27.000Z</time>
      </trkpt>
      <trkpt lat="45.726520" lon="5.938896">
        <ele>373.460267</ele>
        <time>2017-06-02T13:44:29.000Z</time>
      </trkpt>
      <trkpt lat="45.726578" lon="5.938674">
        <ele>372.968056</ele>
        <time>2017-06-02T13:44:31.000Z</time>
      </trkpt>
      <trkpt lat="45.726630" lon="5.938458">
        <ele>372.493609</ele>
        <time>2017-06-02T13:44:33.000Z</time>
      </trkpt>
      <trkpt lat="45.726692" lon="5.938228">
        <ele>371.981642</ele>
        <time>2017-06-02T13:44:35.000Z</time>
      </trkpt>
      <trkpt lat="45.726720" lon="5.937997">
        <ele>371.494793</ele>
        <time>2017-06-02T13:44:37.000Z</time>
      </trkpt>
      <trkpt lat="45.726723" lon="5.937771">
        <ele>371.025419</ele>
        <time>2017-06-02T13:44:39.000Z</time>
      </trkpt>
      <trkpt lat="45.726673" lon="5.937547">
        <ele>370.579821</ele>
        <time>2017-06-02T13:44:41.000Z</time>
      </trkpt>
      <trkpt lat="45.726600" lon="5.937332">
        <ele>370.149631</ele>
        <time>2017-06-02T13:44:43.000Z</time>
      </trkpt>
      <trkpt lat="45.726513" lon="5.937131">
        <ele>369.724084</ele>
        <time>2017-06-02T13:44:45.000Z</time>
      </trkpt>
      <trkpt lat="45.726437" lon="5.936918">
        <ele>369.293662</ele>
        <time>2017-06-02T13:44:47.000Z</time>
      </trkpt>
      <trkpt lat="45.726350" lon="5.936705">
        <ele>368.849617</ele>
        <time>2017-06-02T13:44:49.000Z</time>
      </trkpt>
      <trkpt lat="45.726270" lon="5.936500">
        <ele>368.427027</ele>
        <time>2017-06-02T13:44:51.000Z</time>
      </trkpt>
      <trkpt lat="45.726180" lon="5.936307">
        <ele>368.009397</ele>
        <time>2017-06-02T13:44:53.000Z</time>
      </trkpt>
      <trkpt lat="45.726105" lon="5.936093">
        <ele>367.578533</ele>
        <time>2017-06-02T13:44:55.000Z</time>
      </trkpt>
      <trkpt lat="45.726030" lon="5.935908">
        <ele>367.193590</ele>
        <time>2017-06-02T13:44:57.000Z</time>
      </trkpt>
      <trkpt lat="45.725964" lon="5.935720">
        <ele>366.814943</ele>
        <time>2017-06-02T13:44:59.000Z</time>
      </trkpt>
      <trkpt lat="45.725950" lon="5.935504">
        <ele>366.424610</ele>
        <time>2017-06-02T13:45:01.000Z</time>
      </trkpt>
      <trkpt lat="45.725940" lon="5.935265">
        <ele>365.749033</ele>
        <time>2017-06-02T13:45:03.000Z</time>
      </trkpt>
      <trkpt lat="45.725952" lon="5.935135">
        <ele>365.259115</ele>
        <time>2017-06-02T13:45:04.000Z</time>
      </trkpt>
      <trkpt lat="45.725952" lon="5.934887">
        <ele>364.332566</ele>
        <time>2017-06-02T13:45:06.000Z</time>
      </trkpt>
      <trkpt lat="45.725925" lon="5.934638">
        <ele>363.391125</ele>
        <time>2017-06-02T13:45:08.000Z</time>
      </trkpt>
      <trkpt lat="45.725840" lon="5.934418">
        <ele>362.451697</ele>
        <time>2017-06-02T13:45:10.000Z</time>
      </trkpt>
      <trkpt lat="45.725727" lon="5.934242">
        <ele>361.558327</ele>
        <time>2017-06-02T13:45:12.000Z</time>
      </trkpt>
      <trkpt lat="45.725600" lon="5.934085">
        <ele>360.660533</ele>
        <time>2017-06-02T13:45:14.000Z</time>
      </trkpt>
      <trkpt lat="45.725475" lon="5.933946">
        <ele>359.813639</ele>
        <time>2017-06-02T13:45:16.000Z</time>
      </trkpt>
      <trkpt lat="45.725350" lon="5.933800">
        <ele>358.950459</ele>
        <time>2017-06-02T13:45:18.000Z</time>
      </trkpt>
      <trkpt lat="45.725224" lon="5.933646">
        <ele>358.064023</ele>
        <time>2017-06-02T13:45:20.000Z</time>
      </trkpt>
      <trkpt lat="45.725113" lon="5.933470">
        <ele>357.177858</ele>
        <time>2017-06-02T13:45:22.000Z</time>
      </trkpt>
      <trkpt lat="45.725020" lon="5.933272">
        <ele>356.374391</ele>
        <time>2017-06-02T13:45:24.000Z</time>
      </trkpt>
      <trkpt lat="45.724964" lon="5.933054">
        <ele>355.754194</ele>
        <time>2017-06-02T13:45:26.000Z</time>
      </trkpt>
      <trkpt lat="45.724922" lon="5.932828">
        <ele>355.129777</ele>
        <time>2017-06-02T13:45:28.000Z</time>
      </trkpt>
      <trkpt lat="45.724907" lon="5.932589">
        <ele>354.489092</ele>
        <time>2017-06-02T13:45:30.000Z</time>
      </trkpt>
      <trkpt lat="45.724900" lon="5.932354">
        <ele>353.861088</ele>
        <time>2017-06-02T13:45:32.000Z</time>
      </trkpt>
      <trkpt lat="45.724907" lon="5.932129">
        <ele>353.259759</ele>
        <time>2017-06-02T13:45:34.000Z</time>
      </trkpt>
      <trkpt lat="45.724910" lon="5.931909">
        <ele>352.672263</ele>
        <time>2017-06-02T13:45:36.000Z</time>
      </trkpt>
      <trkpt lat="45.724895" lon="5.931691">
        <ele>352.087399</ele>
        <time>2017-06-02T13:45:38.000Z</time>
      </trkpt>
      <trkpt lat="45.724857" lon="5.931475">
        <ele>351.492665</ele>
        <time>2017-06-02T13:45:40.000Z</time>
      </trkpt>
      <trkpt lat="45.724800" lon="5.931265">
        <ele>350.891091</ele>
        <time>2017-06-02T13:45:42.000Z</time>
      </trkpt>
      <trkpt lat="45.724728" lon="5.931068">
        <ele>350.297392</ele>
        <time>2017-06-02T13:45:44.000Z</time>
      </trkpt>
      <trkpt lat="45.724644" lon="5.930896">
        <ele>349.736946</ele>
        <time>2017-06-02T13:45:46.000Z</time>
      </trkpt>
      <trkpt lat="45.724564" lon="5.930730">
        <ele>349.664651</ele>
        <time>2017-06-02T13:45:48.000Z</time>
      </trkpt>
      <trkpt lat="45.724483" lon="5.930561">
        <ele>349.610230</ele>
        <time>2017-06-02T13:45:50.000Z</time>
      </trkpt>
      <trkpt lat="45.724407" lon="5.930400">
        <ele>349.558635</ele>
        <time>2017-06-02T13:45:52.000Z</time>
      </trkpt>
      <trkpt lat="45.724335" lon="5.930236">
        <ele>349.507205</ele>
        <time>2017-06-02T13:45:54.000Z</time>
      </trkpt>
      <trkpt lat="45.724277" lon="5.930069">
        <ele>349.457687</ele>
        <time>2017-06-02T13:45:56.000Z</time>
      </trkpt>
      <trkpt lat="45.724224" lon="5.929915">
        <ele>349.412107</ele>
        <time>2017-06-02T13:45:58.000Z</time>
      </trkpt>
      <trkpt lat="45.724180" lon="5.929765">
        <ele>349.368914</ele>
        <time>2017-06-02T13:46:00.000Z</time>
      </trkpt>
      <trkpt lat="45.724136" lon="5.929614">
        <ele>349.325475</ele>
        <time>2017-06-02T13:46:02.000Z</time>
      </trkpt>
      <trkpt lat="45.724100" lon="5.929461">
        <ele>349.282613</ele>
        <time>2017-06-02T13:46:04.000Z</time>
      </trkpt>
      <trkpt lat="45.724060" lon="5.929291">
        <ele>349.234988</ele>
        <time>2017-06-02T13:46:06.000Z</time>
      </trkpt>
      <trkpt lat="45.724037" lon="5.929117">
        <ele>349.187975</ele>
        <time>2017-06-02T13:46:08.000Z</time>
      </trkpt>
      <trkpt lat="45.724022" lon="5.928935">
        <ele>349.139324</ele>
        <time>2017-06-02T13:46:10.000Z</time>
      </trkpt>
      <trkpt lat="45.724003" lon="5.928755">
        <ele>349.090995</ele>
        <time>2017-06-02T13:46:12.000Z</time>
      </trkpt>
      <trkpt lat="45.724007" lon="5.928569">
        <ele>349.041594</ele>
        <time>2017-06-02T13:46:14.000Z</time>
      </trkpt>
      <trkpt lat="45.723990" lon="5.928383">
        <ele>348.688695</ele>
        <time>2017-06-02T13:46:16.000Z</time>
      </trkpt>
      <trkpt lat="45.723965" lon="5.928197">
        <ele>348.260804</ele>
        <time>2017-06-02T13:46:18.000Z</time>
      </trkpt>
      <trkpt lat="45.723920" lon="5.928021">
        <ele>347.837393</ele>
        <time>2017-06-02T13:46:20.000Z</time>
      </trkpt>
      <trkpt lat="45.723877" lon="5.927840">
        <ele>347.405486</ele>
        <time>2017-06-02T13:46:22.000Z</time>
      </trkpt>
      <trkpt lat="45.723820" lon="5.927665">
        <ele>346.969249</ele>
        <time>2017-06-02T13:46:24.000Z</time>
      </trkpt>
      <trkpt lat="45.723755" lon="5.927493">
        <ele>346.527423</ele>
        <time>2017-06-02T13:46:26.000Z</time>
      </trkpt>
      <trkpt lat="45.723682" lon="5.927329">
        <ele>346.088045</ele>
        <time>2017-06-02T13:46:28.000Z</time>
      </trkpt>
      <trkpt lat="45.723606" lon="5.927163">
        <ele>345.639602</ele>
        <time>2017-06-02T13:46:30.000Z</time>
      </trkpt>
      <trkpt lat="45.723530" lon="5.926992">
        <ele>345.181671</ele>
        <time>2017-06-02T13:46:32.000Z</time>
      </trkpt>
      <trkpt lat="45.723460" lon="5.926825">
        <ele>344.741637</ele>
        <time>2017-06-02T13:46:34.000Z</time>
      </trkpt>
      <trkpt lat="45.723396" lon="5.926661">
        <ele>344.317203</ele>
        <time>2017-06-02T13:46:36.000Z</time>
      </trkpt>
      <trkpt lat="45.723340" lon="5.926485">
        <ele>343.880267</ele>
        <time>2017-06-02T13:46:38.000Z</time>
      </trkpt>
      <trkpt lat="45.723290" lon="5.926301">
        <ele>343.434227</ele>
        <time>2017-06-02T13:46:40.000Z</time>
      </trkpt>
      <trkpt lat="45.723250" lon="5.926121">
        <ele>343.263012</ele>
        <time>2017-06-02T13:46:42.000Z</time>
      </trkpt>
      <trkpt lat="45.723217" lon="5.925940">
        <ele>343.368418</ele>
        <time>2017-06-02T13:46:44.000Z</time>
      </trkpt>
      <trkpt lat="45.723183" lon="5.925749">
        <ele>343.479481</ele>
        <time>2017-06-02T13:46:46.000Z</time>
      </trkpt>
      <trkpt lat="45.723152" lon="5.925568">
        <ele>343.584490</ele>
        <time>2017-06-02T13:46:48.000Z</time>
      </trkpt>
      <trkpt lat="45.723120" lon="5.925393">
        <ele>343.686421</ele>
        <time>2017-06-02T13:46:50.000Z</time>
      </trkpt>
      <trkpt lat="45.723076" lon="5.925220">
        <ele>343.790166</ele>
        <time>2017-06-02T13:46:52.000Z</time>
      </trkpt>
      <trkpt lat="45.723040" lon="5.925050">
        <ele>343.890263</ele>
        <time>2017-06-02T13:46:54.000Z</time>
      </trkpt>
      <trkpt lat="45.723003" lon="5.924887">
        <ele>343.986839</ele>
        <time>2017-06-02T13:46:56.000Z</time>
      </trkpt>
      <trkpt lat="45.722965" lon="5.924717">
        <ele>344.087416</ele>
        <time>2017-06-02T13:46:58.000Z</time>
      </trkpt>
      <trkpt lat="45.722927" lon="5.924550">
        <ele>344.186385</ele>
        <time>2017-06-02T13:47:00.000Z</time>
      </trkpt>
      <trkpt lat="45.722885" lon="5.924379">
        <ele>344.288526</ele>
        <time>2017-06-02T13:47:02.000Z</time>
      </trkpt>
      <trkpt lat="45.722736" lon="5.923966">
        <ele>344.550470</ele>
        <time>2017-06-02T13:47:07.000Z</time>
      </trkpt>
      <trkpt lat="45.722740" lon="5.923808">
        <ele>344.639555</ele>
        <time>2017-06-02T13:47:08.000Z</time>
      </trkpt>
      <trkpt lat="45.722710" lon="5.923636">
        <ele>344.620740</ele>
        <time>2017-06-02T13:47:10.000Z</time>
      </trkpt>
      <trkpt lat="45.722645" lon="5.923480">
        <ele>344.562729</ele>
        <time>2017-06-02T13:47:12.000Z</time>
      </trkpt>
      <trkpt lat="45.722565" lon="5.923330">
        <ele>344.502454</ele>
        <time>2017-06-02T13:47:14.000Z</time>
      </trkpt>
      <trkpt lat="45.722473" lon="5.923216">
        <ele>344.446813</ele>
        <time>2017-06-02T13:47:16.000Z</time>
      </trkpt>
      <trkpt lat="45.722374" lon="5.923133">
        <ele>344.394346</ele>
        <time>2017-06-02T13:47:18.000Z</time>
      </trkpt>
      <trkpt lat="45.722286" lon="5.923060">
        <ele>344.347833</ele>
        <time>2017-06-02T13:47:20.000Z</time>
      </trkpt>
      <trkpt lat="45.722183" lon="5.923004">
        <ele>344.297442</ele>
        <time>2017-06-02T13:47:22.000Z</time>
      </trkpt>
      <trkpt lat="45.722100" lon="5.922951">
        <ele>344.255877</ele>
        <time>2017-06-02T13:47:24.000Z</time>
      </trkpt>
      <trkpt lat="45.722020" lon="5.922838">
        <ele>344.204487</ele>
        <time>2017-06-02T13:47:29.000Z</time>
      </trkpt>
      <trkpt lat="45.721950" lon="5.922747">
        <ele>344.161250</ele>
        <time>2017-06-02T13:47:32.000Z</time>
      </trkpt>
      <trkpt lat="45.721830" lon="5.922726">
        <ele>344.105955</ele>
        <time>2017-06-02T13:47:35.000Z</time>
      </trkpt>
      <trkpt lat="45.721714" lon="5.922820">
        <ele>344.044995</ele>
        <time>2017-06-02T13:47:38.000Z</time>
      </trkpt>
      <trkpt lat="45.721607" lon="5.922912">
        <ele>343.987914</ele>
        <time>2017-06-02T13:47:41.000Z</time>
      </trkpt>
      <trkpt lat="45.721508" lon="5.922954">
        <ele>343.940688</ele>
        <time>2017-06-02T13:47:44.000Z</time>
      </trkpt>
      <trkpt lat="45.721394" lon="5.922979">
        <ele>343.887938</ele>
        <time>2017-06-02T13:48:43.000Z</time>
      </trkpt>
      <trkpt lat="45.721306" lon="5.923006">
        <ele>343.846775</ele>
        <time>2017-06-02T13:48:46.000Z</time>
      </trkpt>
      <trkpt lat="45.721184" lon="5.923029">
        <ele>343.703249</ele>
        <time>2017-06-02T13:48:49.000Z</time>
      </trkpt>
      <trkpt lat="45.721092" lon="5.923044">
        <ele>343.587742</ele>
        <time>2017-06-02T13:48:51.000Z</time>
      </trkpt>
      <trkpt lat="45.720997" lon="5.923060">
        <ele>343.468416</ele>
        <time>2017-06-02T13:48:53.000Z</time>
      </trkpt>
      <trkpt lat="45.720900" lon="5.923072">
        <ele>343.346961</ele>
        <time>2017-06-02T13:48:55.000Z</time>
      </trkpt>
      <trkpt lat="45.720800" lon="5.923070">
        <ele>343.222203</ele>
        <time>2017-06-02T13:48:57.000Z</time>
      </trkpt>
      <trkpt lat="45.720690" lon="5.923060">
        <ele>343.084705</ele>
        <time>2017-06-02T13:48:59.000Z</time>
      </trkpt>
      <trkpt lat="45.720577" lon="5.923030">
        <ele>342.941341</ele>
        <time>2017-06-02T13:49:01.000Z</time>
      </trkpt>
      <trkpt lat="45.720460" lon="5.922995">
        <ele>342.792238</ele>
        <time>2017-06-02T13:49:03.000Z</time>
      </trkpt>
      <trkpt lat="45.720340" lon="5.922950">
        <ele>342.637497</ele>
        <time>2017-06-02T13:49:05.000Z</time>
      </trkpt>
      <trkpt lat="45.720215" lon="5.922894">
        <ele>342.474115</ele>
        <time>2017-06-02T13:49:07.000Z</time>
      </trkpt>
      <trkpt lat="45.720090" lon="5.922839">
        <ele>342.310990</ele>
        <time>2017-06-02T13:49:09.000Z</time>
      </trkpt>
      <trkpt lat="45.719963" lon="5.922786">
        <ele>342.145974</ele>
        <time>2017-06-02T13:49:11.000Z</time>
      </trkpt>
      <trkpt lat="45.719830" lon="5.922748">
        <ele>341.976793</ele>
        <time>2017-06-02T13:49:13.000Z</time>
      </trkpt>
      <trkpt lat="45.719700" lon="5.922709">
        <ele>341.811103</ele>
        <time>2017-06-02T13:49:15.000Z</time>
      </trkpt>
      <trkpt lat="45.719574" lon="5.922658">
        <ele>341.647767</ele>
        <time>2017-06-02T13:49:17.000Z</time>
      </trkpt>
      <trkpt lat="45.719450" lon="5.922595">
        <ele>341.677843</ele>
        <time>2017-06-02T13:49:19.000Z</time>
      </trkpt>
      <trkpt lat="45.719337" lon="5.922533">
        <ele>341.784915</ele>
        <time>2017-06-02T13:49:21.000Z</time>
      </trkpt>
      <trkpt lat="45.719254" lon="5.922479">
        <ele>341.865578</ele>
        <time>2017-06-02T13:49:23.000Z</time>
      </trkpt>
      <trkpt lat="45.719246" lon="5.922623">
        <ele>341.954819</ele>
        <time>2017-06-02T13:49:47.000Z</time>
      </trkpt>
      <trkpt lat="45.719280" lon="5.922753">
        <ele>342.040579</ele>
        <time>2017-06-02T13:50:04.000Z</time>
      </trkpt>
      <trkpt lat="45.719193" lon="5.922738">
        <ele>342.118116</ele>
        <time>2017-06-02T13:50:13.000Z</time>
      </trkpt>
      <trkpt lat="45.719086" lon="5.922674">
        <ele>342.220718</ele>
        <time>2017-06-02T13:50:18.000Z</time>
      </trkpt>
      <trkpt lat="45.718970" lon="5.922624">
        <ele>342.327907</ele>
        <time>2017-06-02T13:50:22.000Z</time>
      </trkpt>
      <trkpt lat="45.718876" lon="5.922589">
        <ele>342.413846</ele>
        <time>2017-06-02T13:50:25.000Z</time>
      </trkpt>
      <trkpt lat="45.718780" lon="5.922592">
        <ele>342.498811</ele>
        <time>2017-06-02T13:50:28.000Z</time>
      </trkpt>
      <trkpt lat="45.718723" lon="5.922725">
        <ele>342.595221</ele>
        <time>2017-06-02T13:50:32.000Z</time>
      </trkpt>
      <trkpt lat="45.719130" lon="5.922993">
        <ele>342.991586</ele>
        <time>2017-06-02T14:13:53.000Z</time>
      </trkpt>
      <trkpt lat="45.718636" lon="5.922848">
        <ele>342.857805</ele>
        <time>2017-06-02T14:28:17.000Z</time>
      </trkpt>
      <trkpt lat="45.718548" lon="5.922909">
        <ele>342.742831</ele>
        <time>2017-06-02T14:28:21.000Z</time>
      </trkpt>
      <trkpt lat="45.718452" lon="5.922912">
        <ele>342.629906</ele>
        <time>2017-06-02T14:28:24.000Z</time>
      </trkpt>
      <trkpt lat="45.718346" lon="5.922894">
        <ele>342.504374</ele>
        <time>2017-06-02T14:28:27.000Z</time>
      </trkpt>
      <trkpt lat="45.718243" lon="5.922878">
        <ele>342.382533</ele>
        <time>2017-06-02T14:28:30.000Z</time>
      </trkpt>
      <trkpt lat="45.718124" lon="5.922886">
        <ele>342.242431</ele>
        <time>2017-06-02T14:28:33.000Z</time>
      </trkpt>
      <trkpt lat="45.717995" lon="5.922876">
        <ele>342.090501</ele>
        <time>2017-06-02T14:28:36.000Z</time>
      </trkpt>
      <trkpt lat="45.717876" lon="5.922867">
        <ele>341.950359</ele>
        <time>2017-06-02T14:28:39.000Z</time>
      </trkpt>
      <trkpt lat="45.717766" lon="5.922854">
        <ele>341.820556</ele>
        <time>2017-06-02T14:28:42.000Z</time>
      </trkpt>
      <trkpt lat="45.717663" lon="5.922828">
        <ele>341.697558</ele>
        <time>2017-06-02T14:28:45.000Z</time>
      </trkpt>
      <trkpt lat="45.717564" lon="5.922818">
        <ele>341.580843</ele>
        <time>2017-06-02T14:28:48.000Z</time>
      </trkpt>
      <trkpt lat="45.717476" lon="5.922793">
        <ele>341.475336</ele>
        <time>2017-06-02T14:28:51.000Z</time>
      </trkpt>
      <trkpt lat="45.717472" lon="5.922638">
        <ele>341.347979</ele>
        <time>2017-06-02T14:28:56.000Z</time>
      </trkpt>
      <trkpt lat="45.717520" lon="5.922516">
        <ele>341.232994</ele>
        <time>2017-06-02T14:29:00.000Z</time>
      </trkpt>
      <trkpt lat="45.717525" lon="5.922381">
        <ele>341.121990</ele>
        <time>2017-06-02T14:29:03.000Z</time>
      </trkpt>
      <trkpt lat="45.717490" lon="5.922229">
        <ele>340.926452</ele>
        <time>2017-06-02T14:29:06.000Z</time>
      </trkpt>
      <trkpt lat="45.717453" lon="5.922077">
        <ele>340.692097</ele>
        <time>2017-06-02T14:29:09.000Z</time>
      </trkpt>
      <trkpt lat="45.717396" lon="5.921961">
        <ele>340.485585</ele>
        <time>2017-06-02T14:29:12.000Z</time>
      </trkpt>
      <trkpt lat="45.717293" lon="5.921916">
        <ele>340.261041</ele>
        <time>2017-06-02T14:29:15.000Z</time>
      </trkpt>
      <trkpt lat="45.717167" lon="5.921945">
        <ele>339.994938</ele>
        <time>2017-06-02T14:29:18.000Z</time>
      </trkpt>
      <trkpt lat="45.717037" lon="5.921974">
        <ele>339.720597</ele>
        <time>2017-06-02T14:29:21.000Z</time>
      </trkpt>
      <trkpt lat="45.716946" lon="5.921998">
        <ele>339.527655</ele>
        <time>2017-06-02T14:29:23.000Z</time>
      </trkpt>
      <trkpt lat="45.716850" lon="5.922015">
        <ele>339.325954</ele>
        <time>2017-06-02T14:29:25.000Z</time>
      </trkpt>
      <trkpt lat="45.716755" lon="5.922002">
        <ele>339.126959</ele>
        <time>2017-06-02T14:29:27.000Z</time>
      </trkpt>
      <trkpt lat="45.716656" lon="5.921956">
        <ele>338.909935</ele>
        <time>2017-06-02T14:29:29.000Z</time>
      </trkpt>
      <trkpt lat="45.716557" lon="5.921906">
        <ele>338.691043</ele>
        <time>2017-06-02T14:29:31.000Z</time>
      </trkpt>
      <trkpt lat="45.716460" lon="5.921854">
        <ele>338.475077</ele>
        <time>2017-06-02T14:29:33.000Z</time>
      </trkpt>
      <trkpt lat="45.716370" lon="5.921814">
        <ele>338.278583</ele>
        <time>2017-06-02T14:29:35.000Z</time>
      </trkpt>
      <trkpt lat="45.716270" lon="5.921794">
        <ele>338.068042</ele>
        <time>2017-06-02T14:29:37.000Z</time>
      </trkpt>
      <trkpt lat="45.716183" lon="5.921765">
        <ele>337.881783</ele>
        <time>2017-06-02T14:29:39.000Z</time>
      </trkpt>
      <trkpt lat="45.716095" lon="5.921723">
        <ele>337.688366</ele>
        <time>2017-06-02T14:29:41.000Z</time>
      </trkpt>
      <trkpt lat="45.715980" lon="5.921641">
        <ele>337.420496</ele>
        <time>2017-06-02T14:29:44.000Z</time>
      </trkpt>
      <trkpt lat="45.715897" lon="5.921500">
        <ele>337.227981</ele>
        <time>2017-06-02T14:29:47.000Z</time>
      </trkpt>
      <trkpt lat="45.715874" lon="5.921324">
        <ele>337.083120</ele>
        <time>2017-06-02T14:29:50.000Z</time>
      </trkpt>
      <trkpt lat="45.715880" lon="5.921182">
        <ele>336.968028</ele>
        <time>2017-06-02T14:29:52.000Z</time>
      </trkpt>
      <trkpt lat="45.715900" lon="5.920998">
        <ele>336.817373</ele>
        <time>2017-06-02T14:29:55.000Z</time>
      </trkpt>
      <trkpt lat="45.715878" lon="5.920815">
        <ele>336.667143</ele>
        <time>2017-06-02T14:29:58.000Z</time>
      </trkpt>
      <trkpt lat="45.715828" lon="5.920644">
        <ele>336.517158</ele>
        <time>2017-06-02T14:30:01.000Z</time>
      </trkpt>
      <trkpt lat="45.715736" lon="5.920520">
        <ele>336.370775</ele>
        <time>2017-06-02T14:30:04.000Z</time>
      </trkpt>
      <trkpt lat="45.715652" lon="5.920457">
        <ele>336.260906</ele>
        <time>2017-06-02T14:30:06.000Z</time>
      </trkpt>
      <trkpt lat="45.715570" lon="5.920404">
        <ele>336.156665</ele>
        <time>2017-06-02T14:30:08.000Z</time>
      </trkpt>
      <trkpt lat="45.715480" lon="5.920363">
        <ele>336.047233</ele>
        <time>2017-06-02T14:30:10.000Z</time>
      </trkpt>
      <trkpt lat="45.715385" lon="5.920329">
        <ele>335.933771</ele>
        <time>2017-06-02T14:30:12.000Z</time>
      </trkpt>
      <trkpt lat="45.715294" lon="5.920292">
        <ele>335.824162</ele>
        <time>2017-06-02T14:30:14.000Z</time>
      </trkpt>
      <trkpt lat="45.715200" lon="5.920261">
        <ele>335.712394</ele>
        <time>2017-06-02T14:30:16.000Z</time>
      </trkpt>
      <trkpt lat="45.715100" lon="5.920243">
        <ele>335.595612</ele>
        <time>2017-06-02T14:30:18.000Z</time>
      </trkpt>
      <trkpt lat="45.714996" lon="5.920226">
        <ele>335.474324</ele>
        <time>2017-06-02T14:30:20.000Z</time>
      </trkpt>
      <trkpt lat="45.714886" lon="5.920226">
        <ele>335.346866</ele>
        <time>2017-06-02T14:30:22.000Z</time>
      </trkpt>
      <trkpt lat="45.714764" lon="5.920245">
        <ele>335.149142</ele>
        <time>2017-06-02T14:30:24.000Z</time>
      </trkpt>
      <trkpt lat="45.714638" lon="5.920270">
        <ele>334.762776</ele>
        <time>2017-06-02T14:30:26.000Z</time>
      </trkpt>
      <trkpt lat="45.714500" lon="5.920291">
        <ele>334.341257</ele>
        <time>2017-06-02T14:30:28.000Z</time>
      </trkpt>
      <trkpt lat="45.714363" lon="5.920293">
        <ele>333.925113</ele>
        <time>2017-06-02T14:30:30.000Z</time>
      </trkpt>
      <trkpt lat="45.714210" lon="5.920301">
        <ele>333.460083</ele>
        <time>2017-06-02T14:30:32.000Z</time>
      </trkpt>
      <trkpt lat="45.714066" lon="5.920332">
        <ele>333.017786</ele>
        <time>2017-06-02T14:30:34.000Z</time>
      </trkpt>
      <trkpt lat="45.713930" lon="5.920342">
        <ele>332.604157</ele>
        <time>2017-06-02T14:30:36.000Z</time>
      </trkpt>
      <trkpt lat="45.713783" lon="5.920356">
        <ele>332.156674</ele>
        <time>2017-06-02T14:30:38.000Z</time>
      </trkpt>
      <trkpt lat="45.713640" lon="5.920363">
        <ele>331.722074</ele>
        <time>2017-06-02T14:30:40.000Z</time>
      </trkpt>
      <trkpt lat="45.713490" lon="5.920369">
        <ele>331.266288</ele>
        <time>2017-06-02T14:30:42.000Z</time>
      </trkpt>
      <trkpt lat="45.713350" lon="5.920387">
        <ele>330.839344</ele>
        <time>2017-06-02T14:30:44.000Z</time>
      </trkpt>
      <trkpt lat="45.713192" lon="5.920394">
        <ele>330.359207</ele>
        <time>2017-06-02T14:30:46.000Z</time>
      </trkpt>
      <trkpt lat="45.713028" lon="5.920406">
        <ele>329.860425</ele>
        <time>2017-06-02T14:30:48.000Z</time>
      </trkpt>
      <trkpt lat="45.712875" lon="5.920419">
        <ele>329.560452</ele>
        <time>2017-06-02T14:30:50.000Z</time>
      </trkpt>
      <trkpt lat="45.712734" lon="5.920456">
        <ele>329.314327</ele>
        <time>2017-06-02T14:30:52.000Z</time>
      </trkpt>
      <trkpt lat="45.712605" lon="5.920559">
        <ele>329.060740</ele>
        <time>2017-06-02T14:30:54.000Z</time>
      </trkpt>
      <trkpt lat="45.712510" lon="5.920705">
        <ele>328.821482</ele>
        <time>2017-06-02T14:30:56.000Z</time>
      </trkpt>
      <trkpt lat="45.712420" lon="5.920867">
        <ele>328.573287</ele>
        <time>2017-06-02T14:30:58.000Z</time>
      </trkpt>
      <trkpt lat="45.712320" lon="5.920989">
        <ele>328.347735</ele>
        <time>2017-06-02T14:31:00.000Z</time>
      </trkpt>
      <trkpt lat="45.712208" lon="5.921048">
        <ele>328.142836</ele>
        <time>2017-06-02T14:31:02.000Z</time>
      </trkpt>
      <trkpt lat="45.712082" lon="5.921009">
        <ele>327.921502</ele>
        <time>2017-06-02T14:31:04.000Z</time>
      </trkpt>
      <trkpt lat="45.711970" lon="5.920935">
        <ele>327.709722</ele>
        <time>2017-06-02T14:31:06.000Z</time>
      </trkpt>
      <trkpt lat="45.711864" lon="5.920873">
        <ele>327.513128</ele>
        <time>2017-06-02T14:31:08.000Z</time>
      </trkpt>
      <trkpt lat="45.711754" lon="5.920816">
        <ele>327.312277</ele>
        <time>2017-06-02T14:31:10.000Z</time>
      </trkpt>
      <trkpt lat="45.711655" lon="5.920771">
        <ele>327.133940</ele>
        <time>2017-06-02T14:31:12.000Z</time>
      </trkpt>
      <trkpt lat="45.711555" lon="5.920709">
        <ele>326.946842</ele>
        <time>2017-06-02T14:31:14.000Z</time>
      </trkpt>
      <trkpt lat="45.711460" lon="5.920641">
        <ele>326.764490</ele>
        <time>2017-06-02T14:31:16.000Z</time>
      </trkpt>
      <trkpt lat="45.711370" lon="5.920580">
        <ele>326.623130</ele>
        <time>2017-06-02T14:31:18.000Z</time>
      </trkpt>
      <trkpt lat="45.711273" lon="5.920517">
        <ele>326.497854</ele>
        <time>2017-06-02T14:31:20.000Z</time>
      </trkpt>
      <trkpt lat="45.711178" lon="5.920460">
        <ele>326.376706</ele>
        <time>2017-06-02T14:31:22.000Z</time>
      </trkpt>
      <trkpt lat="45.711080" lon="5.920403">
        <ele>326.252295</ele>
        <time>2017-06-02T14:31:24.000Z</time>
      </trkpt>
      <trkpt lat="45.710987" lon="5.920346">
        <ele>326.133312</ele>
        <time>2017-06-02T14:31:26.000Z</time>
      </trkpt>
      <trkpt lat="45.710900" lon="5.920292">
        <ele>326.021786</ele>
        <time>2017-06-02T14:31:28.000Z</time>
      </trkpt>
      <trkpt lat="45.710808" lon="5.920246">
        <ele>325.907170</ele>
        <time>2017-06-02T14:31:30.000Z</time>
      </trkpt>
      <trkpt lat="45.710716" lon="5.920199">
        <ele>325.792282</ele>
        <time>2017-06-02T14:31:32.000Z</time>
      </trkpt>
      <trkpt lat="45.710617" lon="5.920185">
        <ele>325.675272</ele>
        <time>2017-06-02T14:31:34.000Z</time>
      </trkpt>
      <trkpt lat="45.710518" lon="5.920204">
        <ele>325.557788</ele>
        <time>2017-06-02T14:31:36.000Z</time>
      </trkpt>
      <trkpt lat="45.710430" lon="5.920281">
        <ele>325.436492</ele>
        <time>2017-06-02T14:31:38.000Z</time>
      </trkpt>
      <trkpt lat="45.710354" lon="5.920363">
        <ele>325.324571</ele>
        <time>2017-06-02T14:31:40.000Z</time>
      </trkpt>
      <trkpt lat="45.710278" lon="5.920437">
        <ele>325.216475</ele>
        <time>2017-06-02T14:31:42.000Z</time>
      </trkpt>
      <trkpt lat="45.710150" lon="5.920490">
        <ele>325.059756</ele>
        <time>2017-06-02T14:31:45.000Z</time>
      </trkpt>
      <trkpt lat="45.710022" lon="5.920431">
        <ele>324.901597</ele>
        <time>2017-06-02T14:31:48.000Z</time>
      </trkpt>
      <trkpt lat="45.709940" lon="5.920372">
        <ele>324.793660</ele>
        <time>2017-06-02T14:31:50.000Z</time>
      </trkpt>
      <trkpt lat="45.709860" lon="5.920288">
        <ele>324.676982</ele>
        <time>2017-06-02T14:31:52.000Z</time>
      </trkpt>
      <trkpt lat="45.709774" lon="5.920199">
        <ele>324.532396</ele>
        <time>2017-06-02T14:31:54.000Z</time>
      </trkpt>
      <trkpt lat="45.709690" lon="5.920086">
        <ele>324.261232</ele>
        <time>2017-06-02T14:31:56.000Z</time>
      </trkpt>
      <trkpt lat="45.709614" lon="5.919968">
        <ele>323.997487</ele>
        <time>2017-06-02T14:31:58.000Z</time>
      </trkpt>
      <trkpt lat="45.709550" lon="5.919837">
        <ele>323.734810</ele>
        <time>2017-06-02T14:32:00.000Z</time>
      </trkpt>
      <trkpt lat="45.709496" lon="5.919704">
        <ele>323.482040</ele>
        <time>2017-06-02T14:32:02.000Z</time>
      </trkpt>
      <trkpt lat="45.709457" lon="5.919547">
        <ele>323.208256</ele>
        <time>2017-06-02T14:32:04.000Z</time>
      </trkpt>
      <trkpt lat="45.709410" lon="5.919401">
        <ele>322.944117</ele>
        <time>2017-06-02T14:32:06.000Z</time>
      </trkpt>
      <trkpt lat="45.709362" lon="5.919262">
        <ele>322.689342</ele>
        <time>2017-06-02T14:32:08.000Z</time>
      </trkpt>
      <trkpt lat="45.709305" lon="5.919140">
        <ele>322.448169</ele>
        <time>2017-06-02T14:32:10.000Z</time>
      </trkpt>
      <trkpt lat="45.709220" lon="5.918994">
        <ele>322.135859</ele>
        <time>2017-06-02T14:32:13.000Z</time>
      </trkpt>
      <trkpt lat="45.709156" lon="5.918901">
        <ele>321.921330</ele>
        <time>2017-06-02T14:32:15.000Z</time>
      </trkpt>
      <trkpt lat="45.709072" lon="5.918753">
        <ele>321.607977</ele>
        <time>2017-06-02T14:32:18.000Z</time>
      </trkpt>
      <trkpt lat="45.708973" lon="5.918634">
        <ele>321.303865</ele>
        <time>2017-06-02T14:32:21.000Z</time>
      </trkpt>
      <trkpt lat="45.708866" lon="5.918529">
        <ele>320.998673</ele>
        <time>2017-06-02T14:32:24.000Z</time>
      </trkpt>
      <trkpt lat="45.708748" lon="5.918439">
        <ele>320.684114</ele>
        <time>2017-06-02T14:32:27.000Z</time>
      </trkpt>
      <trkpt lat="45.708664" lon="5.918393">
        <ele>320.472517</ele>
        <time>2017-06-02T14:32:29.000Z</time>
      </trkpt>
      <trkpt lat="45.708557" lon="5.918300">
        <ele>320.194212</ele>
        <time>2017-06-02T14:32:32.000Z</time>
      </trkpt>
      <trkpt lat="45.708460" lon="5.918169">
        <ele>319.911859</ele>
        <time>2017-06-02T14:32:35.000Z</time>
      </trkpt>
      <trkpt lat="45.708430" lon="5.918041">
        <ele>319.712197</ele>
        <time>2017-06-02T14:32:37.000Z</time>
      </trkpt>
      <trkpt lat="45.708440" lon="5.917906">
        <ele>319.511440</ele>
        <time>2017-06-02T14:32:39.000Z</time>
      </trkpt>
      <trkpt lat="45.708450" lon="5.917770">
        <ele>319.309212</ele>
        <time>2017-06-02T14:32:41.000Z</time>
      </trkpt>
      <trkpt lat="45.708470" lon="5.917597">
        <ele>319.049899</ele>
        <time>2017-06-02T14:32:44.000Z</time>
      </trkpt>
      <trkpt lat="45.708485" lon="5.917362">
        <ele>318.700934</ele>
        <time>2017-06-02T14:33:32.000Z</time>
      </trkpt>
      <trkpt lat="45.708500" lon="5.917184">
        <ele>318.435799</ele>
        <time>2017-06-02T14:33:36.000Z</time>
      </trkpt>
      <trkpt lat="45.708510" lon="5.917003">
        <ele>318.167301</ele>
        <time>2017-06-02T14:33:39.000Z</time>
      </trkpt>
      <trkpt lat="45.708523" lon="5.916872">
        <ele>317.971633</ele>
        <time>2017-06-02T14:33:41.000Z</time>
      </trkpt>
      <trkpt lat="45.708540" lon="5.916734">
        <ele>317.764409</ele>
        <time>2017-06-02T14:33:43.000Z</time>
      </trkpt>
      <trkpt lat="45.708546" lon="5.916592">
        <ele>317.554037</ele>
        <time>2017-06-02T14:33:45.000Z</time>
      </trkpt>
      <trkpt lat="45.708557" lon="5.916417">
        <ele>317.294202</ele>
        <time>2017-06-02T14:33:48.000Z</time>
      </trkpt>
      <trkpt lat="45.708572" lon="5.916264">
        <ele>317.065728</ele>
        <time>2017-06-02T14:33:51.000Z</time>
      </trkpt>
      <trkpt lat="45.708565" lon="5.916134">
        <ele>316.872915</ele>
        <time>2017-06-02T14:33:54.000Z</time>
      </trkpt>
      <trkpt lat="45.708492" lon="5.916035">
        <ele>316.660004</ele>
        <time>2017-06-02T14:33:57.000Z</time>
      </trkpt>
      <trkpt lat="45.708405" lon="5.915976">
        <ele>316.447425</ele>
        <time>2017-06-02T14:33:59.000Z</time>
      </trkpt>
      <trkpt lat="45.708320" lon="5.915918">
        <ele>316.224812</ele>
        <time>2017-06-02T14:34:01.000Z</time>
      </trkpt>
      <trkpt lat="45.708233" lon="5.915856">
        <ele>315.995056</ele>
        <time>2017-06-02T14:34:03.000Z</time>
      </trkpt>
      <trkpt lat="45.708140" lon="5.915793">
        <ele>315.751817</ele>
        <time>2017-06-02T14:34:05.000Z</time>
      </trkpt>
      <trkpt lat="45.708042" lon="5.915726">
        <ele>315.495065</ele>
        <time>2017-06-02T14:34:07.000Z</time>
      </trkpt>
      <trkpt lat="45.707954" lon="5.915656">
        <ele>315.257064</ele>
        <time>2017-06-02T14:34:09.000Z</time>
      </trkpt>
      <trkpt lat="45.707850" lon="5.915589">
        <ele>314.987441</ele>
        <time>2017-06-02T14:34:11.000Z</time>
      </trkpt>
      <trkpt lat="45.707750" lon="5.915517">
        <ele>314.722810</ele>
        <time>2017-06-02T14:34:13.000Z</time>
      </trkpt>
      <trkpt lat="45.707645" lon="5.915433">
        <ele>314.438448</ele>
        <time>2017-06-02T14:34:15.000Z</time>
      </trkpt>
      <trkpt lat="45.707535" lon="5.915357">
        <ele>314.149688</ele>
        <time>2017-06-02T14:34:17.000Z</time>
      </trkpt>
      <trkpt lat="45.707417" lon="5.915275">
        <ele>313.839588</ele>
        <time>2017-06-02T14:34:19.000Z</time>
      </trkpt>
      <trkpt lat="45.707302" lon="5.915195">
        <ele>313.537310</ele>
        <time>2017-06-02T14:34:21.000Z</time>
      </trkpt>
      <trkpt lat="45.707184" lon="5.915100">
        <ele>313.217255</ele>
        <time>2017-06-02T14:34:23.000Z</time>
      </trkpt>
      <trkpt lat="45.707070" lon="5.915020">
        <ele>312.917102</ele>
        <time>2017-06-02T14:34:25.000Z</time>
      </trkpt>
      <trkpt lat="45.706947" lon="5.914935">
        <ele>312.594203</ele>
        <time>2017-06-02T14:34:27.000Z</time>
      </trkpt>
      <trkpt lat="45.706830" lon="5.914853">
        <ele>312.286227</ele>
        <time>2017-06-02T14:34:29.000Z</time>
      </trkpt>
      <trkpt lat="45.706710" lon="5.914749">
        <ele>311.988191</ele>
        <time>2017-06-02T14:34:31.000Z</time>
      </trkpt>
      <trkpt lat="45.706596" lon="5.914651">
        <ele>311.706421</ele>
        <time>2017-06-02T14:34:33.000Z</time>
      </trkpt>
      <trkpt lat="45.706470" lon="5.914570">
        <ele>311.413738</ele>
        <time>2017-06-02T14:34:35.000Z</time>
      </trkpt>
      <trkpt lat="45.706345" lon="5.914495">
        <ele>311.126534</ele>
        <time>2017-06-02T14:34:37.000Z</time>
      </trkpt>
      <trkpt lat="45.706223" lon="5.914405">
        <ele>310.835709</ele>
        <time>2017-06-02T14:34:39.000Z</time>
      </trkpt>
      <trkpt lat="45.706100" lon="5.914318">
        <ele>310.544992</ele>
        <time>2017-06-02T14:34:41.000Z</time>
      </trkpt>
      <trkpt lat="45.705986" lon="5.914234">
        <ele>310.273305</ele>
        <time>2017-06-02T14:34:43.000Z</time>
      </trkpt>
      <trkpt lat="45.705890" lon="5.914156">
        <ele>310.039401</ele>
        <time>2017-06-02T14:34:45.000Z</time>
      </trkpt>
      <trkpt lat="45.705800" lon="5.914088">
        <ele>309.823759</ele>
        <time>2017-06-02T14:34:47.000Z</time>
      </trkpt>
      <trkpt lat="45.705720" lon="5.914028">
        <ele>309.632383</ele>
        <time>2017-06-02T14:34:49.000Z</time>
      </trkpt>
      <trkpt lat="45.705612" lon="5.913951">
        <ele>309.376718</ele>
        <time>2017-06-02T14:34:53.000Z</time>
      </trkpt>
      <trkpt lat="45.705524" lon="5.913884">
        <ele>309.165513</ele>
        <time>2017-06-02T14:34:56.000Z</time>
      </trkpt>
      <trkpt lat="45.705430" lon="5.913799">
        <ele>308.929922</ele>
        <time>2017-06-02T14:35:00.000Z</time>
      </trkpt>
      <trkpt lat="45.705340" lon="5.913729">
        <ele>308.712882</ele>
        <time>2017-06-02T14:35:04.000Z</time>
      </trkpt>
      <trkpt lat="45.705257" lon="5.913672">
        <ele>308.517812</ele>
        <time>2017-06-02T14:35:07.000Z</time>
      </trkpt>
      <trkpt lat="45.705154" lon="5.913591">
        <ele>308.284265</ele>
        <time>2017-06-02T14:35:10.000Z</time>
      </trkpt>
      <trkpt lat="45.705070" lon="5.913544">
        <ele>308.108070</ele>
        <time>2017-06-02T14:35:12.000Z</time>
      </trkpt>
      <trkpt lat="45.704975" lon="5.913480">
        <ele>307.902953</ele>
        <time>2017-06-02T14:35:14.000Z</time>
      </trkpt>
      <trkpt lat="45.704880" lon="5.913404">
        <ele>307.690349</ele>
        <time>2017-06-02T14:35:16.000Z</time>
      </trkpt>
      <trkpt lat="45.704777" lon="5.913335">
        <ele>307.468185</ele>
        <time>2017-06-02T14:35:18.000Z</time>
      </trkpt>
      <trkpt lat="45.704680" lon="5.913261">
        <ele>307.253457</ele>
        <time>2017-06-02T14:35:20.000Z</time>
      </trkpt>
      <trkpt lat="45.704594" lon="5.913182">
        <ele>307.053837</ele>
        <time>2017-06-02T14:35:22.000Z</time>
      </trkpt>
      <trkpt lat="45.704487" lon="5.913109">
        <ele>306.822275</ele>
        <time>2017-06-02T14:35:24.000Z</time>
      </trkpt>
      <trkpt lat="45.704380" lon="5.913060">
        <ele>306.602798</ele>
        <time>2017-06-02T14:35:26.000Z</time>
      </trkpt>
      <trkpt lat="45.704277" lon="5.913010">
        <ele>306.390317</ele>
        <time>2017-06-02T14:35:28.000Z</time>
      </trkpt>
      <trkpt lat="45.704174" lon="5.912945">
        <ele>306.170409</ele>
        <time>2017-06-02T14:35:30.000Z</time>
      </trkpt>
      <trkpt lat="45.704070" lon="5.912886">
        <ele>305.951858</ele>
        <time>2017-06-02T14:35:32.000Z</time>
      </trkpt>
      <trkpt lat="45.703970" lon="5.912828">
        <ele>305.741069</ele>
        <time>2017-06-02T14:35:34.000Z</time>
      </trkpt>
      <trkpt lat="45.703865" lon="5.912780">
        <ele>305.525729</ele>
        <time>2017-06-02T14:35:36.000Z</time>
      </trkpt>
      <trkpt lat="45.703760" lon="5.912744">
        <ele>305.314791</ele>
        <time>2017-06-02T14:35:38.000Z</time>
      </trkpt>
      <trkpt lat="45.703650" lon="5.912701">
        <ele>305.092019</ele>
        <time>2017-06-02T14:35:40.000Z</time>
      </trkpt>
      <trkpt lat="45.703545" lon="5.912663">
        <ele>304.841164</ele>
        <time>2017-06-02T14:35:42.000Z</time>
      </trkpt>
      <trkpt lat="45.703434" lon="5.912639">
        <ele>304.503153</ele>
        <time>2017-06-02T14:35:44.000Z</time>
      </trkpt>
      <trkpt lat="45.703330" lon="5.912624">
        <ele>304.188422</ele>
        <time>2017-06-02T14:35:46.000Z</time>
      </trkpt>
      <trkpt lat="45.703163" lon="5.912612">
        <ele>303.684950</ele>
        <time>2017-06-02T14:35:49.000Z</time>
      </trkpt>
      <trkpt lat="45.703060" lon="5.912604">
        <ele>303.374360</ele>
        <time>2017-06-02T14:35:51.000Z</time>
      </trkpt>
      <trkpt lat="45.702970" lon="5.912594">
        <ele>303.102554</ele>
        <time>2017-06-02T14:35:53.000Z</time>
      </trkpt>
      <trkpt lat="45.702877" lon="5.912490">
        <ele>302.747250</ele>
        <time>2017-06-02T14:35:57.000Z</time>
      </trkpt>
      <trkpt lat="45.702896" lon="5.912336">
        <ele>302.418399</ele>
        <time>2017-06-02T14:36:00.000Z</time>
      </trkpt>
      <trkpt lat="45.702915" lon="5.912203">
        <ele>302.132932</ele>
        <time>2017-06-02T14:36:02.000Z</time>
      </trkpt>
      <trkpt lat="45.702946" lon="5.912070">
        <ele>301.838091</ele>
        <time>2017-06-02T14:36:04.000Z</time>
      </trkpt>
      <trkpt lat="45.702970" lon="5.911922">
        <ele>301.518592</ele>
        <time>2017-06-02T14:36:06.000Z</time>
      </trkpt>
      <trkpt lat="45.702980" lon="5.911763">
        <ele>301.182890</ele>
        <time>2017-06-02T14:36:08.000Z</time>
      </trkpt>
      <trkpt lat="45.702980" lon="5.911511">
        <ele>300.652977</ele>
        <time>2017-06-02T14:36:11.000Z</time>
      </trkpt>
      <trkpt lat="45.702957" lon="5.911349">
        <ele>300.305351</ele>
        <time>2017-06-02T14:36:13.000Z</time>
      </trkpt>
      <trkpt lat="45.702946" lon="5.911190">
        <ele>299.969365</ele>
        <time>2017-06-02T14:36:15.000Z</time>
      </trkpt>
      <trkpt lat="45.702930" lon="5.911024">
        <ele>299.616987</ele>
        <time>2017-06-02T14:36:17.000Z</time>
      </trkpt>
      <trkpt lat="45.702920" lon="5.910858">
        <ele>299.540118</ele>
        <time>2017-06-02T14:36:19.000Z</time>
      </trkpt>
      <trkpt lat="45.702877" lon="5.910705">
        <ele>299.543804</ele>
        <time>2017-06-02T14:36:21.000Z</time>
      </trkpt>
      <trkpt lat="45.702830" lon="5.910562">
        <ele>299.547336</ele>
        <time>2017-06-02T14:36:23.000Z</time>
      </trkpt>
      <trkpt lat="45.702774" lon="5.910438">
        <ele>299.550637</ele>
        <time>2017-06-02T14:36:25.000Z</time>
      </trkpt>
      <trkpt lat="45.702705" lon="5.910330">
        <ele>299.553909</ele>
        <time>2017-06-02T14:36:27.000Z</time>
      </trkpt>
      <trkpt lat="45.702644" lon="5.910219">
        <ele>299.557066</ele>
        <time>2017-06-02T14:36:29.000Z</time>
      </trkpt>
      <trkpt lat="45.702595" lon="5.910092">
        <ele>299.560309</ele>
        <time>2017-06-02T14:36:31.000Z</time>
      </trkpt>
      <trkpt lat="45.702538" lon="5.909980">
        <ele>299.563406</ele>
        <time>2017-06-02T14:36:33.000Z</time>
      </trkpt>
      <trkpt lat="45.702440" lon="5.909863">
        <ele>299.567490</ele>
        <time>2017-06-02T14:36:36.000Z</time>
      </trkpt>
      <trkpt lat="45.702328" lon="5.909828">
        <ele>299.571159</ele>
        <time>2017-06-02T14:36:38.000Z</time>
      </trkpt>
      <trkpt lat="45.702240" lon="5.909782">
        <ele>299.574157</ele>
        <time>2017-06-02T14:36:40.000Z</time>
      </trkpt>
      <trkpt lat="45.702140" lon="5.909767">
        <ele>299.577375</ele>
        <time>2017-06-02T14:36:42.000Z</time>
      </trkpt>
      <trkpt lat="45.702053" lon="5.909708">
        <ele>299.580456</ele>
        <time>2017-06-02T14:36:44.000Z</time>
      </trkpt>
      <trkpt lat="45.701940" lon="5.909676">
        <ele>299.584142</ele>
        <time>2017-06-02T14:36:47.000Z</time>
      </trkpt>
      <trkpt lat="45.701855" lon="5.909769">
        <ele>299.587566</ele>
        <time>2017-06-02T14:36:50.000Z</time>
      </trkpt>
      <trkpt lat="45.701805" lon="5.909624">
        <ele>299.591181</ele>
        <time>2017-06-02T14:37:03.000Z</time>
      </trkpt>
      <trkpt lat="45.701810" lon="5.909447">
        <ele>299.566955</ele>
        <time>2017-06-02T14:37:07.000Z</time>
      </trkpt>
      <trkpt lat="45.701847" lon="5.909329">
        <ele>299.325985</ele>
        <time>2017-06-02T14:37:09.000Z</time>
      </trkpt>
      <trkpt lat="45.701824" lon="5.909160">
        <ele>299.005222</ele>
        <time>2017-06-02T14:37:12.000Z</time>
      </trkpt>
      <trkpt lat="45.701767" lon="5.909047">
        <ele>298.745539</ele>
        <time>2017-06-02T14:37:14.000Z</time>
      </trkpt>
      <trkpt lat="45.701720" lon="5.908936">
        <ele>298.503713</ele>
        <time>2017-06-02T14:37:16.000Z</time>
      </trkpt>
      <trkpt lat="45.701702" lon="5.908741">
        <ele>298.137274</ele>
        <time>2017-06-02T14:37:19.000Z</time>
      </trkpt>
      <trkpt lat="45.701725" lon="5.908594">
        <ele>297.856630</ele>
        <time>2017-06-02T14:37:21.000Z</time>
      </trkpt>
      <trkpt lat="45.701748" lon="5.908442">
        <ele>297.566888</ele>
        <time>2017-06-02T14:37:23.000Z</time>
      </trkpt>
      <trkpt lat="45.701775" lon="5.908292">
        <ele>297.278311</ele>
        <time>2017-06-02T14:37:25.000Z</time>
      </trkpt>
      <trkpt lat="45.701794" lon="5.908135">
        <ele>296.981467</ele>
        <time>2017-06-02T14:37:27.000Z</time>
      </trkpt>
      <trkpt lat="45.701813" lon="5.907983">
        <ele>296.693796</ele>
        <time>2017-06-02T14:37:29.000Z</time>
      </trkpt>
      <trkpt lat="45.701820" lon="5.907830">
        <ele>296.408151</ele>
        <time>2017-06-02T14:37:31.000Z</time>
      </trkpt>
      <trkpt lat="45.701840" lon="5.907680">
        <ele>296.123659</ele>
        <time>2017-06-02T14:37:33.000Z</time>
      </trkpt>
      <trkpt lat="45.701850" lon="5.907540">
        <ele>295.861484</ele>
        <time>2017-06-02T14:37:35.000Z</time>
      </trkpt>
      <trkpt lat="45.701862" lon="5.907399">
        <ele>295.596863</ele>
        <time>2017-06-02T14:37:37.000Z</time>
      </trkpt>
      <trkpt lat="45.701874" lon="5.907257">
        <ele>295.330392</ele>
        <time>2017-06-02T14:37:39.000Z</time>
      </trkpt>
      <trkpt lat="45.701880" lon="5.907116">
        <ele>295.067227</ele>
        <time>2017-06-02T14:37:41.000Z</time>
      </trkpt>
      <trkpt lat="45.701893" lon="5.906982">
        <ele>294.815193</ele>
        <time>2017-06-02T14:37:43.000Z</time>
      </trkpt>
      <trkpt lat="45.701912" lon="5.906798">
        <ele>294.714054</ele>
        <time>2017-06-02T14:37:46.000Z</time>
      </trkpt>
      <trkpt lat="45.701920" lon="5.906603">
        <ele>294.622187</ele>
        <time>2017-06-02T14:37:49.000Z</time>
      </trkpt>
      <trkpt lat="45.701930" lon="5.906457">
        <ele>294.553193</ele>
        <time>2017-06-02T14:37:51.000Z</time>
      </trkpt>
      <trkpt lat="45.701942" lon="5.906305">
        <ele>294.481251</ele>
        <time>2017-06-02T14:37:53.000Z</time>
      </trkpt>
      <trkpt lat="45.701958" lon="5.906148">
        <ele>294.406632</ele>
        <time>2017-06-02T14:37:55.000Z</time>
      </trkpt>
      <trkpt lat="45.701973" lon="5.905986">
        <ele>294.329776</ele>
        <time>2017-06-02T14:37:57.000Z</time>
      </trkpt>
      <trkpt lat="45.701990" lon="5.905831">
        <ele>294.255985</ele>
        <time>2017-06-02T14:37:59.000Z</time>
      </trkpt>
      <trkpt lat="45.701990" lon="5.905683">
        <ele>294.186381</ele>
        <time>2017-06-02T14:38:01.000Z</time>
      </trkpt>
      <trkpt lat="45.701992" lon="5.905533">
        <ele>294.115822</ele>
        <time>2017-06-02T14:38:03.000Z</time>
      </trkpt>
      <trkpt lat="45.702010" lon="5.905383">
        <ele>294.044243</ele>
        <time>2017-06-02T14:38:05.000Z</time>
      </trkpt>
      <trkpt lat="45.702030" lon="5.905230">
        <ele>293.971037</ele>
        <time>2017-06-02T14:38:07.000Z</time>
      </trkpt>
      <trkpt lat="45.702038" lon="5.905074">
        <ele>293.897472</ele>
        <time>2017-06-02T14:38:09.000Z</time>
      </trkpt>
      <trkpt lat="45.702040" lon="5.904916">
        <ele>293.823152</ele>
        <time>2017-06-02T14:38:11.000Z</time>
      </trkpt>
      <trkpt lat="45.702053" lon="5.904769">
        <ele>293.753466</ele>
        <time>2017-06-02T14:38:13.000Z</time>
      </trkpt>
      <trkpt lat="45.702060" lon="5.904624">
        <ele>293.685109</ele>
        <time>2017-06-02T14:38:15.000Z</time>
      </trkpt>
      <trkpt lat="45.702072" lon="5.904471">
        <ele>293.612700</ele>
        <time>2017-06-02T14:38:18.000Z</time>
      </trkpt>
      <trkpt lat="45.702103" lon="5.904338">
        <ele>293.506572</ele>
        <time>2017-06-02T14:38:23.000Z</time>
      </trkpt>
      <trkpt lat="45.702110" lon="5.904209">
        <ele>293.382910</ele>
        <time>2017-06-02T14:38:26.000Z</time>
      </trkpt>
      <trkpt lat="45.702126" lon="5.904047">
        <ele>293.226541</ele>
        <time>2017-06-02T14:38:29.000Z</time>
      </trkpt>
      <trkpt lat="45.702152" lon="5.903850">
        <ele>293.034928</ele>
        <time>2017-06-02T14:38:32.000Z</time>
      </trkpt>
      <trkpt lat="45.702168" lon="5.903712">
        <ele>292.901231</ele>
        <time>2017-06-02T14:38:34.000Z</time>
      </trkpt>
      <trkpt lat="45.702183" lon="5.903575">
        <ele>292.768696</ele>
        <time>2017-06-02T14:38:36.000Z</time>
      </trkpt>
      <trkpt lat="45.702194" lon="5.903423">
        <ele>292.622647</ele>
        <time>2017-06-02T14:38:38.000Z</time>
      </trkpt>
      <trkpt lat="45.702194" lon="5.903279">
        <ele>292.485021</ele>
        <time>2017-06-02T14:38:40.000Z</time>
      </trkpt>
      <trkpt lat="45.702198" lon="5.903134">
        <ele>292.346331</ele>
        <time>2017-06-02T14:38:42.000Z</time>
      </trkpt>
      <trkpt lat="45.702206" lon="5.902988">
        <ele>292.206365</ele>
        <time>2017-06-02T14:38:44.000Z</time>
      </trkpt>
      <trkpt lat="45.702225" lon="5.902831">
        <ele>292.054078</ele>
        <time>2017-06-02T14:38:46.000Z</time>
      </trkpt>
      <trkpt lat="45.702240" lon="5.902668">
        <ele>291.896947</ele>
        <time>2017-06-02T14:38:48.000Z</time>
      </trkpt>
      <trkpt lat="45.702250" lon="5.902499">
        <ele>291.734849</ele>
        <time>2017-06-02T14:38:50.000Z</time>
      </trkpt>
      <trkpt lat="45.702270" lon="5.902333">
        <ele>291.573854</ele>
        <time>2017-06-02T14:38:52.000Z</time>
      </trkpt>
      <trkpt lat="45.702286" lon="5.902164">
        <ele>291.410857</ele>
        <time>2017-06-02T14:38:54.000Z</time>
      </trkpt>
      <trkpt lat="45.702297" lon="5.902003">
        <ele>291.256250</ele>
        <time>2017-06-02T14:38:56.000Z</time>
      </trkpt>
      <trkpt lat="45.702305" lon="5.901842">
        <ele>291.137711</ele>
        <time>2017-06-02T14:38:58.000Z</time>
      </trkpt>
      <trkpt lat="45.702312" lon="5.901686">
        <ele>291.227822</ele>
        <time>2017-06-02T14:39:00.000Z</time>
      </trkpt>
      <trkpt lat="45.702320" lon="5.901532">
        <ele>291.316839</ele>
        <time>2017-06-02T14:39:02.000Z</time>
      </trkpt>
      <trkpt lat="45.702324" lon="5.901390">
        <ele>291.398761</ele>
        <time>2017-06-02T14:39:04.000Z</time>
      </trkpt>
      <trkpt lat="45.702316" lon="5.901197">
        <ele>291.510211</ele>
        <time>2017-06-02T14:39:07.000Z</time>
      </trkpt>
      <trkpt lat="45.702300" lon="5.901066">
        <ele>291.586872</ele>
        <time>2017-06-02T14:39:09.000Z</time>
      </trkpt>
      <trkpt lat="45.702282" lon="5.900920">
        <ele>291.672334</ele>
        <time>2017-06-02T14:39:12.000Z</time>
      </trkpt>
      <trkpt lat="45.702300" lon="5.900785">
        <ele>291.751560</ele>
        <time>2017-06-02T14:39:16.000Z</time>
      </trkpt>
      <trkpt lat="45.702360" lon="5.900673">
        <ele>291.832928</ele>
        <time>2017-06-02T14:39:19.000Z</time>
      </trkpt>
      <trkpt lat="45.702450" lon="5.900575">
        <ele>291.926254</ele>
        <time>2017-06-02T14:39:22.000Z</time>
      </trkpt>
      <trkpt lat="45.702538" lon="5.900454">
        <ele>292.026956</ele>
        <time>2017-06-02T14:39:25.000Z</time>
      </trkpt>
      <trkpt lat="45.702614" lon="5.900353">
        <ele>292.112540</ele>
        <time>2017-06-02T14:39:27.000Z</time>
      </trkpt>
      <trkpt lat="45.702686" lon="5.900262">
        <ele>292.191808</ele>
        <time>2017-06-02T14:39:29.000Z</time>
      </trkpt>
      <trkpt lat="45.702770" lon="5.900168">
        <ele>292.279804</ele>
        <time>2017-06-02T14:39:32.000Z</time>
      </trkpt>
      <trkpt lat="45.702850" lon="5.900084">
        <ele>292.361687</ele>
        <time>2017-06-02T14:39:39.000Z</time>
      </trkpt>
      <trkpt lat="45.702930" lon="5.899983">
        <ele>292.449720</ele>
        <time>2017-06-02T14:39:44.000Z</time>
      </trkpt>
      <trkpt lat="45.703014" lon="5.899890">
        <ele>292.537361</ele>
        <time>2017-06-02T14:39:48.000Z</time>
      </trkpt>
      <trkpt lat="45.703094" lon="5.899783">
        <ele>292.610596</ele>
        <time>2017-06-02T14:39:51.000Z</time>
      </trkpt>
      <trkpt lat="45.703182" lon="5.899658">
        <ele>292.619990</ele>
        <time>2017-06-02T14:39:54.000Z</time>
      </trkpt>
      <trkpt lat="45.703262" lon="5.899543">
        <ele>292.628580</ele>
        <time>2017-06-02T14:39:57.000Z</time>
      </trkpt>
      <trkpt lat="45.703342" lon="5.899470">
        <ele>292.635769</ele>
        <time>2017-06-02T14:40:01.000Z</time>
      </trkpt>
      <trkpt lat="45.703426" lon="5.899366">
        <ele>292.644185</ele>
        <time>2017-06-02T14:40:05.000Z</time>
      </trkpt>
      <trkpt lat="45.703510" lon="5.899273">
        <ele>292.652232</ele>
        <time>2017-06-02T14:40:08.000Z</time>
      </trkpt>
      <trkpt lat="45.703583" lon="5.899184">
        <ele>292.659497</ele>
        <time>2017-06-02T14:40:11.000Z</time>
      </trkpt>
      <trkpt lat="45.703630" lon="5.899069">
        <ele>292.666549</ele>
        <time>2017-06-02T14:40:15.000Z</time>
      </trkpt>
      <trkpt lat="45.703620" lon="5.898927">
        <ele>292.674103</ele>
        <time>2017-06-02T14:40:20.000Z</time>
      </trkpt>
      <trkpt lat="45.703568" lon="5.898769">
        <ele>292.683347</ele>
        <time>2017-06-02T14:40:24.000Z</time>
      </trkpt>
      <trkpt lat="45.703506" lon="5.898642">
        <ele>292.691548</ele>
        <time>2017-06-02T14:40:27.000Z</time>
      </trkpt>
      <trkpt lat="45.703438" lon="5.898491">
        <ele>292.701057</ele>
        <time>2017-06-02T14:40:30.000Z</time>
      </trkpt>
      <trkpt lat="45.703360" lon="5.898379">
        <ele>292.709428</ele>
        <time>2017-06-02T14:40:33.000Z</time>
      </trkpt>
      <trkpt lat="45.703280" lon="5.898268">
        <ele>292.717870</ele>
        <time>2017-06-02T14:40:36.000Z</time>
      </trkpt>
      <trkpt lat="45.703200" lon="5.898156">
        <ele>292.726349</ele>
        <time>2017-06-02T14:40:39.000Z</time>
      </trkpt>
      <trkpt lat="45.703090" lon="5.898068">
        <ele>292.735898</ele>
        <time>2017-06-02T14:40:42.000Z</time>
      </trkpt>
      <trkpt lat="45.703007" lon="5.898008">
        <ele>292.742944</ele>
        <time>2017-06-02T14:40:44.000Z</time>
      </trkpt>
      <trkpt lat="45.702910" lon="5.897948">
        <ele>292.724147</ele>
        <time>2017-06-02T14:40:48.000Z</time>
      </trkpt>
      <trkpt lat="45.702990" lon="5.898015">
        <ele>292.698598</ele>
        <time>2017-06-02T14:40:55.000Z</time>
      </trkpt>
      <trkpt lat="45.703090" lon="5.898063">
        <ele>292.669524</ele>
        <time>2017-06-02T14:40:59.000Z</time>
      </trkpt>
      <trkpt lat="45.703190" lon="5.898088">
        <ele>292.641539</ele>
        <time>2017-06-02T14:41:04.000Z</time>
      </trkpt>
      <trkpt lat="45.703130" lon="5.897952">
        <ele>292.610570</ele>
        <time>2017-06-02T14:41:10.000Z</time>
      </trkpt>
      <trkpt lat="45.703056" lon="5.897863">
        <ele>292.583929</ele>
        <time>2017-06-02T14:41:13.000Z</time>
      </trkpt>
      <trkpt lat="45.702990" lon="5.897755">
        <ele>292.556300</ele>
        <time>2017-06-02T14:41:16.000Z</time>
      </trkpt>
      <trkpt lat="45.702923" lon="5.897665">
        <ele>292.530975</ele>
        <time>2017-06-02T14:41:19.000Z</time>
      </trkpt>
      <trkpt lat="45.702847" lon="5.897556">
        <ele>292.501321</ele>
        <time>2017-06-02T14:41:22.000Z</time>
      </trkpt>
      <trkpt lat="45.702766" lon="5.897401">
        <ele>292.464051</ele>
        <time>2017-06-02T14:41:25.000Z</time>
      </trkpt>
      <trkpt lat="45.702680" lon="5.897261">
        <ele>292.428154</ele>
        <time>2017-06-02T14:41:28.000Z</time>
      </trkpt>
      <trkpt lat="45.702590" lon="5.897123">
        <ele>292.391803</ele>
        <time>2017-06-02T14:41:31.000Z</time>
      </trkpt>
      <trkpt lat="45.702530" lon="5.897020">
        <ele>292.365980</ele>
        <time>2017-06-02T14:41:33.000Z</time>
      </trkpt>
      <trkpt lat="45.702450" lon="5.896902">
        <ele>292.334319</ele>
        <time>2017-06-02T14:41:36.000Z</time>
      </trkpt>
      <trkpt lat="45.702370" lon="5.896769">
        <ele>292.300525</ele>
        <time>2017-06-02T14:41:39.000Z</time>
      </trkpt>
      <trkpt lat="45.702310" lon="5.896672">
        <ele>292.275578</ele>
        <time>2017-06-02T14:41:41.000Z</time>
      </trkpt>
      <trkpt lat="45.702236" lon="5.896531">
        <ele>292.227028</ele>
        <time>2017-06-02T14:41:44.000Z</time>
      </trkpt>
      <trkpt lat="45.702152" lon="5.896380">
        <ele>292.119569</ele>
        <time>2017-06-02T14:41:47.000Z</time>
      </trkpt>
      <trkpt lat="45.702090" lon="5.896261">
        <ele>292.036926</ele>
        <time>2017-06-02T14:41:49.000Z</time>
      </trkpt>
      <trkpt lat="45.702040" lon="5.896142">
        <ele>291.959622</ele>
        <time>2017-06-02T14:41:51.000Z</time>
      </trkpt>
      <trkpt lat="45.701977" lon="5.895978">
        <ele>291.855433</ele>
        <time>2017-06-02T14:41:54.000Z</time>
      </trkpt>
      <trkpt lat="45.701920" lon="5.895824">
        <ele>291.758415</ele>
        <time>2017-06-02T14:41:57.000Z</time>
      </trkpt>
      <trkpt lat="45.701855" lon="5.895668">
        <ele>291.657298</ele>
        <time>2017-06-02T14:42:00.000Z</time>
      </trkpt>
      <trkpt lat="45.701817" lon="5.895506">
        <ele>291.562171</ele>
        <time>2017-06-02T14:42:03.000Z</time>
      </trkpt>
      <trkpt lat="45.701767" lon="5.895348">
        <ele>291.465613</ele>
        <time>2017-06-02T14:42:06.000Z</time>
      </trkpt>
      <trkpt lat="45.701720" lon="5.895197">
        <ele>291.373589</ele>
        <time>2017-06-02T14:42:09.000Z</time>
      </trkpt>
      <trkpt lat="45.701675" lon="5.895042">
        <ele>291.280151</ele>
        <time>2017-06-02T14:42:12.000Z</time>
      </trkpt>
      <trkpt lat="45.701645" lon="5.894866">
        <ele>291.179305</ele>
        <time>2017-06-02T14:42:15.000Z</time>
      </trkpt>
      <trkpt lat="45.701668" lon="5.894743">
        <ele>291.108425</ele>
        <time>2017-06-02T14:42:40.000Z</time>
      </trkpt>
      <trkpt lat="45.701664" lon="5.894548">
        <ele>290.999832</ele>
        <time>2017-06-02T14:43:09.000Z</time>
      </trkpt>
      <trkpt lat="45.701607" lon="5.894421">
        <ele>290.915798</ele>
        <time>2017-06-02T14:43:17.000Z</time>
      </trkpt>
      <trkpt lat="45.701570" lon="5.894301">
        <ele>290.842780</ele>
        <time>2017-06-02T14:43:23.000Z</time>
      </trkpt>
      <trkpt lat="45.701527" lon="5.894172">
        <ele>290.797031</ele>
        <time>2017-06-02T14:43:30.000Z</time>
      </trkpt>
      <trkpt lat="45.701508" lon="5.894044">
        <ele>290.771081</ele>
        <time>2017-06-02T14:43:37.000Z</time>
      </trkpt>
      <trkpt lat="45.701473" lon="5.893891">
        <ele>290.739154</ele>
        <time>2017-06-02T14:43:43.000Z</time>
      </trkpt>
      <trkpt lat="45.701458" lon="5.893727">
        <ele>290.706354</ele>
        <time>2017-06-02T14:43:47.000Z</time>
      </trkpt>
      <trkpt lat="45.701450" lon="5.893597">
        <ele>290.680474</ele>
        <time>2017-06-02T14:43:50.000Z</time>
      </trkpt>
      <trkpt lat="45.701416" lon="5.893432">
        <ele>290.646359</ele>
        <time>2017-06-02T14:43:53.000Z</time>
      </trkpt>
      <trkpt lat="45.701390" lon="5.893303">
        <ele>290.619733</ele>
        <time>2017-06-02T14:43:55.000Z</time>
      </trkpt>
      <trkpt lat="45.701380" lon="5.893148">
        <ele>290.588864</ele>
        <time>2017-06-02T14:43:57.000Z</time>
      </trkpt>
      <trkpt lat="45.701363" lon="5.893005">
        <ele>290.560099</ele>
        <time>2017-06-02T14:43:59.000Z</time>
      </trkpt>
      <trkpt lat="45.701340" lon="5.892880">
        <ele>290.534464</ele>
        <time>2017-06-02T14:44:01.000Z</time>
      </trkpt>
      <trkpt lat="45.701324" lon="5.892751">
        <ele>290.508482</ele>
        <time>2017-06-02T14:44:03.000Z</time>
      </trkpt>
      <trkpt lat="45.701300" lon="5.892625">
        <ele>290.482583</ele>
        <time>2017-06-02T14:44:05.000Z</time>
      </trkpt>
      <trkpt lat="45.701283" lon="5.892489">
        <ele>290.455184</ele>
        <time>2017-06-02T14:44:07.000Z</time>
      </trkpt>
      <trkpt lat="45.701256" lon="5.892346">
        <ele>290.425808</ele>
        <time>2017-06-02T14:44:09.000Z</time>
      </trkpt>
      <trkpt lat="45.701230" lon="5.892215">
        <ele>290.398801</ele>
        <time>2017-06-02T14:44:11.000Z</time>
      </trkpt>
      <trkpt lat="45.701202" lon="5.892040">
        <ele>290.363198</ele>
        <time>2017-06-02T14:44:14.000Z</time>
      </trkpt>
      <trkpt lat="45.701170" lon="5.891916">
        <ele>290.336983</ele>
        <time>2017-06-02T14:44:19.000Z</time>
      </trkpt>
      <trkpt lat="45.701252" lon="5.891850">
        <ele>290.310273</ele>
        <time>2017-06-02T14:44:25.000Z</time>
      </trkpt>
      <trkpt lat="45.701355" lon="5.891815">
        <ele>290.261729</ele>
        <time>2017-06-02T14:44:29.000Z</time>
      </trkpt>
      <trkpt lat="45.701400" lon="5.891693">
        <ele>290.213986</ele>
        <time>2017-06-02T14:44:38.000Z</time>
      </trkpt>
      <trkpt lat="45.701430" lon="5.891567">
        <ele>290.167922</ele>
        <time>2017-06-02T14:44:42.000Z</time>
      </trkpt>
      <trkpt lat="45.701378" lon="5.891393">
        <ele>290.102430</ele>
        <time>2017-06-02T14:44:45.000Z</time>
      </trkpt>
      <trkpt lat="45.701363" lon="5.891258">
        <ele>290.055128</ele>
        <time>2017-06-02T14:44:47.000Z</time>
      </trkpt>
      <trkpt lat="45.701355" lon="5.891094">
        <ele>289.998240</ele>
        <time>2017-06-02T14:44:50.000Z</time>
      </trkpt>
      <trkpt lat="45.701330" lon="5.890926">
        <ele>289.938800</ele>
        <time>2017-06-02T14:44:53.000Z</time>
      </trkpt>
      <trkpt lat="45.701317" lon="5.890763">
        <ele>289.882030</ele>
        <time>2017-06-02T14:44:55.000Z</time>
      </trkpt>
      <trkpt lat="45.701313" lon="5.890610">
        <ele>289.829049</ele>
        <time>2017-06-02T14:44:57.000Z</time>
      </trkpt>
      <trkpt lat="45.701310" lon="5.890465">
        <ele>289.778851</ele>
        <time>2017-06-02T14:45:00.000Z</time>
      </trkpt>
      <trkpt lat="45.701294" lon="5.890329">
        <ele>289.731127</ele>
        <time>2017-06-02T14:45:03.000Z</time>
      </trkpt>
      <trkpt lat="45.701270" lon="5.890199">
        <ele>289.684597</ele>
        <time>2017-06-02T14:45:05.000Z</time>
      </trkpt>
      <trkpt lat="45.701267" lon="5.890039">
        <ele>289.629211</ele>
        <time>2017-06-02T14:45:07.000Z</time>
      </trkpt>
      <trkpt lat="45.701270" lon="5.889886">
        <ele>289.576247</ele>
        <time>2017-06-02T14:45:09.000Z</time>
      </trkpt>
      <trkpt lat="45.701270" lon="5.889746">
        <ele>289.527801</ele>
        <time>2017-06-02T14:45:11.000Z</time>
      </trkpt>
      <trkpt lat="45.701275" lon="5.889597">
        <ele>289.476182</ele>
        <time>2017-06-02T14:45:13.000Z</time>
      </trkpt>
      <trkpt lat="45.701267" lon="5.889442">
        <ele>289.422400</ele>
        <time>2017-06-02T14:45:15.000Z</time>
      </trkpt>
      <trkpt lat="45.701267" lon="5.889285">
        <ele>289.357304</ele>
        <time>2017-06-02T14:45:17.000Z</time>
      </trkpt>
      <trkpt lat="45.701267" lon="5.889126">
        <ele>289.289342</ele>
        <time>2017-06-02T14:45:19.000Z</time>
      </trkpt>
      <trkpt lat="45.701286" lon="5.888977">
        <ele>289.224601</ele>
        <time>2017-06-02T14:45:21.000Z</time>
      </trkpt>
      <trkpt lat="45.701294" lon="5.888843">
        <ele>289.167116</ele>
        <time>2017-06-02T14:45:23.000Z</time>
      </trkpt>
      <trkpt lat="45.701305" lon="5.888648">
        <ele>289.083494</ele>
        <time>2017-06-02T14:45:26.000Z</time>
      </trkpt>
      <trkpt lat="45.701317" lon="5.888518">
        <ele>289.027444</ele>
        <time>2017-06-02T14:45:28.000Z</time>
      </trkpt>
      <trkpt lat="45.701330" lon="5.888389">
        <ele>288.971734</ele>
        <time>2017-06-02T14:45:30.000Z</time>
      </trkpt>
      <trkpt lat="45.701332" lon="5.888242">
        <ele>288.908889</ele>
        <time>2017-06-02T14:45:32.000Z</time>
      </trkpt>
      <trkpt lat="45.701340" lon="5.888084">
        <ele>288.841177</ele>
        <time>2017-06-02T14:45:34.000Z</time>
      </trkpt>
      <trkpt lat="45.701344" lon="5.887950">
        <ele>288.783848</ele>
        <time>2017-06-02T14:45:36.000Z</time>
      </trkpt>
      <trkpt lat="45.701350" lon="5.887813">
        <ele>288.725175</ele>
        <time>2017-06-02T14:45:38.000Z</time>
      </trkpt>
      <trkpt lat="45.701363" lon="5.887681">
        <ele>288.668195</ele>
        <time>2017-06-02T14:45:40.000Z</time>
      </trkpt>
      <trkpt lat="45.701366" lon="5.887501">
        <ele>288.591235</ele>
        <time>2017-06-02T14:45:43.000Z</time>
      </trkpt>
      <trkpt lat="45.701380" lon="5.887317">
        <ele>288.512121</ele>
        <time>2017-06-02T14:45:46.000Z</time>
      </trkpt>
      <trkpt lat="45.701374" lon="5.887141">
        <ele>288.436803</ele>
        <time>2017-06-02T14:45:49.000Z</time>
      </trkpt>
      <trkpt lat="45.701380" lon="5.886946">
        <ele>288.353372</ele>
        <time>2017-06-02T14:45:52.000Z</time>
      </trkpt>
      <trkpt lat="45.701374" lon="5.886783">
        <ele>288.238506</ele>
        <time>2017-06-02T14:45:55.000Z</time>
      </trkpt>
      <trkpt lat="45.701380" lon="5.886620">
        <ele>288.061854</ele>
        <time>2017-06-02T14:45:57.000Z</time>
      </trkpt>
      <trkpt lat="45.701390" lon="5.886451">
        <ele>287.878297</ele>
        <time>2017-06-02T14:45:59.000Z</time>
      </trkpt>
      <trkpt lat="45.701393" lon="5.886314">
        <ele>287.729954</ele>
        <time>2017-06-02T14:46:01.000Z</time>
      </trkpt>
      <trkpt lat="45.701378" lon="5.886144">
        <ele>287.544508</ele>
        <time>2017-06-02T14:46:04.000Z</time>
      </trkpt>
      <trkpt lat="45.701397" lon="5.885958">
        <ele>287.341066</ele>
        <time>2017-06-02T14:46:07.000Z</time>
      </trkpt>
      <trkpt lat="45.701430" lon="5.885835">
        <ele>287.198464</ele>
        <time>2017-06-02T14:46:10.000Z</time>
      </trkpt>
      <trkpt lat="45.701534" lon="5.885837">
        <ele>287.037288</ele>
        <time>2017-06-02T14:46:17.000Z</time>
      </trkpt>
      <trkpt lat="45.701595" lon="5.885950">
        <ele>286.882719</ele>
        <time>2017-06-02T14:46:22.000Z</time>
      </trkpt>
      <trkpt lat="45.701633" lon="5.886100">
        <ele>286.710031</ele>
        <time>2017-06-02T14:46:27.000Z</time>
      </trkpt>
      <trkpt lat="45.701675" lon="5.886224">
        <ele>286.560882</ele>
        <time>2017-06-02T14:46:31.000Z</time>
      </trkpt>
      <trkpt lat="45.701706" lon="5.886360">
        <ele>286.406055</ele>
        <time>2017-06-02T14:46:36.000Z</time>
      </trkpt>
      <trkpt lat="45.701790" lon="5.886435">
        <ele>286.252652</ele>
        <time>2017-06-02T14:46:40.000Z</time>
      </trkpt>
      <trkpt lat="45.701910" lon="5.886514">
        <ele>286.047984</ele>
        <time>2017-06-02T14:47:06.000Z</time>
      </trkpt>
      <trkpt lat="45.701855" lon="5.886364">
        <ele>285.864633</ele>
        <time>2017-06-02T14:47:12.000Z</time>
      </trkpt>
      <trkpt lat="45.701782" lon="5.886227">
        <ele>285.678138</ele>
        <time>2017-06-02T14:47:16.000Z</time>
      </trkpt>
      <trkpt lat="45.701733" lon="5.886115">
        <ele>285.535107</ele>
        <time>2017-06-02T14:47:19.000Z</time>
      </trkpt>
      <trkpt lat="45.701702" lon="5.885977">
        <ele>285.500993</ele>
        <time>2017-06-02T14:47:22.000Z</time>
      </trkpt>
      <trkpt lat="45.701725" lon="5.885834">
        <ele>285.474289</ele>
        <time>2017-06-02T14:47:25.000Z</time>
      </trkpt>
      <trkpt lat="45.701824" lon="5.885753">
        <ele>285.444579</ele>
        <time>2017-06-02T14:47:28.000Z</time>
      </trkpt>
      <trkpt lat="45.701910" lon="5.885707">
        <ele>285.420658</ele>
        <time>2017-06-02T14:47:31.000Z</time>
      </trkpt>
      <trkpt lat="45.702007" lon="5.885719">
        <ele>285.395289</ele>
        <time>2017-06-02T14:47:35.000Z</time>
      </trkpt>
      <trkpt lat="45.702106" lon="5.885705">
        <ele>285.369367</ele>
        <time>2017-06-02T14:47:37.000Z</time>
      </trkpt>
      <trkpt lat="45.702200" lon="5.885641">
        <ele>285.342246</ele>
        <time>2017-06-02T14:47:39.000Z</time>
      </trkpt>
      <trkpt lat="45.702293" lon="5.885622">
        <ele>285.317768</ele>
        <time>2017-06-02T14:47:41.000Z</time>
      </trkpt>
      <trkpt lat="45.702404" lon="5.885662">
        <ele>285.287943</ele>
        <time>2017-06-02T14:47:44.000Z</time>
      </trkpt>
      <trkpt lat="45.702510" lon="5.885680">
        <ele>285.260130</ele>
        <time>2017-06-02T14:47:47.000Z</time>
      </trkpt>
      <trkpt lat="45.702600" lon="5.885696">
        <ele>285.236499</ele>
        <time>2017-06-02T14:47:50.000Z</time>
      </trkpt>
      <trkpt lat="45.702690" lon="5.885734">
        <ele>285.212050</ele>
        <time>2017-06-02T14:47:54.000Z</time>
      </trkpt>
      <trkpt lat="45.702797" lon="5.885791">
        <ele>285.182302</ele>
        <time>2017-06-02T14:47:58.000Z</time>
      </trkpt>
      <trkpt lat="45.702877" lon="5.885675">
        <ele>285.152636</ele>
        <time>2017-06-02T14:48:02.000Z</time>
      </trkpt>
      <trkpt lat="45.702880" lon="5.885518">
        <ele>285.124055</ele>
        <time>2017-06-02T14:48:05.000Z</time>
      </trkpt>
      <trkpt lat="45.702896" lon="5.885338">
        <ele>285.091035</ele>
        <time>2017-06-02T14:48:08.000Z</time>
      </trkpt>
      <trkpt lat="45.702910" lon="5.885194">
        <ele>285.064579</ele>
        <time>2017-06-02T14:48:11.000Z</time>
      </trkpt>
      <trkpt lat="45.702923" lon="5.885064">
        <ele>285.101075</ele>
        <time>2017-06-02T14:48:14.000Z</time>
      </trkpt>
      <trkpt lat="45.703003" lon="5.884966">
        <ele>285.174268</ele>
        <time>2017-06-02T14:48:18.000Z</time>
      </trkpt>
      <trkpt lat="45.703110" lon="5.884973">
        <ele>285.248734</ele>
        <time>2017-06-02T14:48:22.000Z</time>
      </trkpt>
      <trkpt lat="45.703200" lon="5.884938">
        <ele>285.313570</ele>
        <time>2017-06-02T14:48:26.000Z</time>
      </trkpt>
      <trkpt lat="45.703304" lon="5.884973">
        <ele>285.387843</ele>
        <time>2017-06-02T14:48:31.000Z</time>
      </trkpt>
      <trkpt lat="45.703380" lon="5.885078">
        <ele>285.461264</ele>
        <time>2017-06-02T14:48:35.000Z</time>
      </trkpt>
      <trkpt lat="45.703465" lon="5.885194">
        <ele>285.542898</ele>
        <time>2017-06-02T14:48:39.000Z</time>
      </trkpt>
      <trkpt lat="45.703537" lon="5.885271">
        <ele>285.605373</ele>
        <time>2017-06-02T14:48:42.000Z</time>
      </trkpt>
      <trkpt lat="45.703613" lon="5.885344">
        <ele>285.668996</ele>
        <time>2017-06-02T14:48:45.000Z</time>
      </trkpt>
      <trkpt lat="45.703697" lon="5.885399">
        <ele>285.733210</ele>
        <time>2017-06-02T14:48:48.000Z</time>
      </trkpt>
      <trkpt lat="45.703780" lon="5.885490">
        <ele>285.805886</ele>
        <time>2017-06-02T14:48:52.000Z</time>
      </trkpt>
      <trkpt lat="45.703865" lon="5.885566">
        <ele>285.875554</ele>
        <time>2017-06-02T14:48:56.000Z</time>
      </trkpt>
      <trkpt lat="45.703945" lon="5.885634">
        <ele>285.940232</ele>
        <time>2017-06-02T14:49:00.000Z</time>
      </trkpt>
      <trkpt lat="45.704030" lon="5.885724">
        <ele>286.013726</ele>
        <time>2017-06-02T14:49:04.000Z</time>
      </trkpt>
      <trkpt lat="45.704132" lon="5.885790">
        <ele>286.091543</ele>
        <time>2017-06-02T14:49:08.000Z</time>
      </trkpt>
      <trkpt lat="45.704220" lon="5.885877">
        <ele>286.165887</ele>
        <time>2017-06-02T14:49:13.000Z</time>
      </trkpt>
      <trkpt lat="45.704290" lon="5.885999">
        <ele>286.242547</ele>
        <time>2017-06-02T14:49:17.000Z</time>
      </trkpt>
      <trkpt lat="45.704388" lon="5.886043">
        <ele>286.302374</ele>
        <time>2017-06-02T14:49:20.000Z</time>
      </trkpt>
      <trkpt lat="45.704490" lon="5.886079">
        <ele>286.242387</ele>
        <time>2017-06-02T14:49:23.000Z</time>
      </trkpt>
      <trkpt lat="45.704597" lon="5.886119">
        <ele>286.179239</ele>
        <time>2017-06-02T14:49:26.000Z</time>
      </trkpt>
      <trkpt lat="45.704693" lon="5.886167">
        <ele>286.121175</ele>
        <time>2017-06-02T14:49:29.000Z</time>
      </trkpt>
      <trkpt lat="45.704790" lon="5.886225">
        <ele>286.061151</ele>
        <time>2017-06-02T14:49:32.000Z</time>
      </trkpt>
      <trkpt lat="45.704876" lon="5.886263">
        <ele>286.009758</ele>
        <time>2017-06-02T14:49:35.000Z</time>
      </trkpt>
      <trkpt lat="45.704956" lon="5.886338">
        <ele>285.955157</ele>
        <time>2017-06-02T14:49:38.000Z</time>
      </trkpt>
      <trkpt lat="45.705025" lon="5.886460">
        <ele>285.892553</ele>
        <time>2017-06-02T14:49:42.000Z</time>
      </trkpt>
      <trkpt lat="45.705112" lon="5.886385">
        <ele>285.834566</ele>
        <time>2017-06-02T14:49:47.000Z</time>
      </trkpt>
      <trkpt lat="45.705116" lon="5.886248">
        <ele>285.779886</ele>
        <time>2017-06-02T14:49:52.000Z</time>
      </trkpt>
      <trkpt lat="45.705166" lon="5.886130">
        <ele>285.724846</ele>
        <time>2017-06-02T14:49:59.000Z</time>
      </trkpt>
      <trkpt lat="45.705270" lon="5.886167">
        <ele>285.663655</ele>
        <time>2017-06-02T14:50:04.000Z</time>
      </trkpt>
      <trkpt lat="45.705360" lon="5.886167">
        <ele>285.612263</ele>
        <time>2017-06-02T14:50:08.000Z</time>
      </trkpt>
      <trkpt lat="45.705463" lon="5.886172">
        <ele>285.553414</ele>
        <time>2017-06-02T14:50:13.000Z</time>
      </trkpt>
      <trkpt lat="45.705550" lon="5.886226">
        <ele>285.499268</ele>
        <time>2017-06-02T14:50:19.000Z</time>
      </trkpt>
      <trkpt lat="45.705643" lon="5.886207">
        <ele>285.445626</ele>
        <time>2017-06-02T14:53:19.000Z</time>
      </trkpt>
      <trkpt lat="45.705727" lon="5.886294">
        <ele>285.386428</ele>
        <time>2017-06-02T14:53:24.000Z</time>
      </trkpt>
      <trkpt lat="45.705753" lon="5.886443">
        <ele>285.325185</ele>
        <time>2017-06-02T14:53:28.000Z</time>
      </trkpt>
      <trkpt lat="45.705776" lon="5.886581">
        <ele>285.221565</ele>
        <time>2017-06-02T14:53:32.000Z</time>
      </trkpt>
      <trkpt lat="45.705788" lon="5.886738">
        <ele>284.910016</ele>
        <time>2017-06-02T14:53:36.000Z</time>
      </trkpt>
      <trkpt lat="45.705822" lon="5.886874">
        <ele>284.625069</ele>
        <time>2017-06-02T14:53:39.000Z</time>
      </trkpt>
      <trkpt lat="45.705894" lon="5.886986">
        <ele>284.324780</ele>
        <time>2017-06-02T14:53:43.000Z</time>
      </trkpt>
      <trkpt lat="45.705975" lon="5.887085">
        <ele>284.023969</ele>
        <time>2017-06-02T14:53:46.000Z</time>
      </trkpt>
      <trkpt lat="45.706028" lon="5.887201">
        <ele>283.750524</ele>
        <time>2017-06-02T14:53:52.000Z</time>
      </trkpt>
      <trkpt lat="45.706070" lon="5.887339">
        <ele>283.453577</ele>
        <time>2017-06-02T14:56:03.000Z</time>
      </trkpt>
      <trkpt lat="45.705994" lon="5.887262">
        <ele>283.190600</ele>
        <time>2017-06-02T14:56:22.000Z</time>
      </trkpt>
      <trkpt lat="45.706010" lon="5.887104">
        <ele>282.875669</ele>
        <time>2017-06-02T15:09:24.000Z</time>
      </trkpt>
      <trkpt lat="45.705940" lon="5.887007">
        <ele>282.600517</ele>
        <time>2017-06-02T15:09:28.000Z</time>
      </trkpt>
      <trkpt lat="45.705853" lon="5.886917">
        <ele>282.297349</ele>
        <time>2017-06-02T15:09:32.000Z</time>
      </trkpt>
      <trkpt lat="45.705837" lon="5.886785">
        <ele>282.033072</ele>
        <time>2017-06-02T15:09:35.000Z</time>
      </trkpt>
      <trkpt lat="45.705833" lon="5.886656">
        <ele>281.778355</ele>
        <time>2017-06-02T15:09:39.000Z</time>
      </trkpt>
      <trkpt lat="45.705800" lon="5.886486">
        <ele>281.430298</ele>
        <time>2017-06-02T15:09:43.000Z</time>
      </trkpt>
      <trkpt lat="45.705750" lon="5.886365">
        <ele>281.152957</ele>
        <time>2017-06-02T15:09:46.000Z</time>
      </trkpt>
      <trkpt lat="45.705715" lon="5.886246">
        <ele>280.898246</ele>
        <time>2017-06-02T15:09:49.000Z</time>
      </trkpt>
      <trkpt lat="45.705654" lon="5.886138">
        <ele>280.624246</ele>
        <time>2017-06-02T15:09:52.000Z</time>
      </trkpt>
      <trkpt lat="45.705555" lon="5.886038">
        <ele>280.282027</ele>
        <time>2017-06-02T15:09:56.000Z</time>
      </trkpt>
      <trkpt lat="45.705475" lon="5.885974">
        <ele>280.215967</ele>
        <time>2017-06-02T15:09:59.000Z</time>
      </trkpt>
      <trkpt lat="45.705370" lon="5.885943">
        <ele>280.243488</ele>
        <time>2017-06-02T15:10:02.000Z</time>
      </trkpt>
      <trkpt lat="45.705265" lon="5.885942">
        <ele>280.270443</ele>
        <time>2017-06-02T15:10:05.000Z</time>
      </trkpt>
      <trkpt lat="45.705150" lon="5.885946">
        <ele>280.299973</ele>
        <time>2017-06-02T15:10:08.000Z</time>
      </trkpt>
      <trkpt lat="45.705040" lon="5.886001">
        <ele>280.329883</ele>
        <time>2017-06-02T15:10:11.000Z</time>
      </trkpt>
      <trkpt lat="45.704970" lon="5.886104">
        <ele>280.355649</ele>
        <time>2017-06-02T15:10:14.000Z</time>
      </trkpt>
      <trkpt lat="45.704887" lon="5.886159">
        <ele>280.379127</ele>
        <time>2017-06-02T15:10:18.000Z</time>
      </trkpt>
      <trkpt lat="45.704796" lon="5.886108">
        <ele>280.404213</ele>
        <time>2017-06-02T15:10:21.000Z</time>
      </trkpt>
      <trkpt lat="45.704723" lon="5.886033">
        <ele>280.427277</ele>
        <time>2017-06-02T15:10:24.000Z</time>
      </trkpt>
      <trkpt lat="45.704643" lon="5.885966">
        <ele>280.451068</ele>
        <time>2017-06-02T15:10:28.000Z</time>
      </trkpt>
      <trkpt lat="45.704556" lon="5.885917">
        <ele>280.475067</ele>
        <time>2017-06-02T15:10:32.000Z</time>
      </trkpt>
      <trkpt lat="45.704456" lon="5.885865">
        <ele>280.502378</ele>
        <time>2017-06-02T15:10:36.000Z</time>
      </trkpt>
      <trkpt lat="45.704360" lon="5.885799">
        <ele>280.529716</ele>
        <time>2017-06-02T15:10:41.000Z</time>
      </trkpt>
      <trkpt lat="45.704227" lon="5.885804">
        <ele>280.563870</ele>
        <time>2017-06-02T15:10:45.000Z</time>
      </trkpt>
      <trkpt lat="45.704120" lon="5.885810">
        <ele>280.591359</ele>
        <time>2017-06-02T15:10:48.000Z</time>
      </trkpt>
      <trkpt lat="45.704020" lon="5.885732">
        <ele>280.620591</ele>
        <time>2017-06-02T15:10:52.000Z</time>
      </trkpt>
      <trkpt lat="45.703915" lon="5.885663">
        <ele>280.650248</ele>
        <time>2017-06-02T15:10:56.000Z</time>
      </trkpt>
      <trkpt lat="45.703827" lon="5.885592">
        <ele>280.718838</ele>
        <time>2017-06-02T15:11:00.000Z</time>
      </trkpt>
      <trkpt lat="45.703740" lon="5.885535">
        <ele>280.815435</ele>
        <time>2017-06-02T15:11:04.000Z</time>
      </trkpt>
      <trkpt lat="45.703667" lon="5.885462">
        <ele>280.905332</ele>
        <time>2017-06-02T15:11:07.000Z</time>
      </trkpt>
      <trkpt lat="45.703580" lon="5.885397">
        <ele>281.004408</ele>
        <time>2017-06-02T15:11:10.000Z</time>
      </trkpt>
      <trkpt lat="45.703480" lon="5.885318">
        <ele>281.119718</ele>
        <time>2017-06-02T15:11:14.000Z</time>
      </trkpt>
      <trkpt lat="45.703415" lon="5.885186">
        <ele>281.233601</ele>
        <time>2017-06-02T15:11:18.000Z</time>
      </trkpt>
      <trkpt lat="45.703323" lon="5.885099">
        <ele>281.344916</ele>
        <time>2017-06-02T15:11:22.000Z</time>
      </trkpt>
      <trkpt lat="45.703240" lon="5.885033">
        <ele>281.440770</ele>
        <time>2017-06-02T15:11:26.000Z</time>
      </trkpt>
      <trkpt lat="45.703140" lon="5.885018">
        <ele>281.542286</ele>
        <time>2017-06-02T15:11:31.000Z</time>
      </trkpt>
      <trkpt lat="45.703080" lon="5.885113">
        <ele>281.632600</ele>
        <time>2017-06-02T15:11:34.000Z</time>
      </trkpt>
      <trkpt lat="45.703000" lon="5.885230">
        <ele>281.748055</ele>
        <time>2017-06-02T15:11:38.000Z</time>
      </trkpt>
      <trkpt lat="45.702900" lon="5.885282">
        <ele>281.855470</ele>
        <time>2017-06-02T15:11:42.000Z</time>
      </trkpt>
      <trkpt lat="45.702840" lon="5.885401">
        <ele>281.958960</ele>
        <time>2017-06-02T15:11:46.000Z</time>
      </trkpt>
      <trkpt lat="45.702790" lon="5.885557">
        <ele>282.079987</ele>
        <time>2017-06-02T15:11:49.000Z</time>
      </trkpt>
      <trkpt lat="45.702778" lon="5.885685">
        <ele>282.171051</ele>
        <time>2017-06-02T15:11:51.000Z</time>
      </trkpt>
      <trkpt lat="45.702694" lon="5.885738">
        <ele>282.263729</ele>
        <time>2017-06-02T15:11:55.000Z</time>
      </trkpt>
      <trkpt lat="45.702580" lon="5.885721">
        <ele>282.379449</ele>
        <time>2017-06-02T15:12:00.000Z</time>
      </trkpt>
      <trkpt lat="45.702473" lon="5.885702">
        <ele>282.477604</ele>
        <time>2017-06-02T15:12:03.000Z</time>
      </trkpt>
      <trkpt lat="45.702385" lon="5.885670">
        <ele>282.477604</ele>
        <time>2017-06-02T15:12:06.000Z</time>
      </trkpt>
      <trkpt lat="45.702293" lon="5.885636">
        <ele>282.477604</ele>
        <time>2017-06-02T15:12:09.000Z</time>
      </trkpt>
      <trkpt lat="45.702187" lon="5.885631">
        <ele>282.477604</ele>
        <time>2017-06-02T15:12:12.000Z</time>
      </trkpt>
      <trkpt lat="45.702090" lon="5.885681">
        <ele>282.477604</ele>
        <time>2017-06-02T15:12:15.000Z</time>
      </trkpt>
      <trkpt lat="45.701977" lon="5.885696">
        <ele>282.477604</ele>
        <time>2017-06-02T15:12:18.000Z</time>
      </trkpt>
      <trkpt lat="45.701866" lon="5.885701">
        <ele>282.477604</ele>
        <time>2017-06-02T15:12:22.000Z</time>
      </trkpt>
      <trkpt lat="45.701782" lon="5.885754">
        <ele>282.477604</ele>
        <time>2017-06-02T15:12:25.000Z</time>
      </trkpt>
      <trkpt lat="45.701690" lon="5.885845">
        <ele>282.477604</ele>
        <time>2017-06-02T15:12:29.000Z</time>
      </trkpt>
      <trkpt lat="45.701622" lon="5.885989">
        <ele>282.477604</ele>
        <time>2017-06-02T15:12:34.000Z</time>
      </trkpt>
      <trkpt lat="45.701614" lon="5.886136">
        <ele>282.477604</ele>
        <time>2017-06-02T15:12:37.000Z</time>
      </trkpt>
      <trkpt lat="45.701664" lon="5.886266">
        <ele>282.477604</ele>
        <time>2017-06-02T15:12:40.000Z</time>
      </trkpt>
      <trkpt lat="45.701710" lon="5.886386">
        <ele>282.477604</ele>
        <time>2017-06-02T15:12:43.000Z</time>
      </trkpt>
      <trkpt lat="45.701794" lon="5.886505">
        <ele>282.477604</ele>
        <time>2017-06-02T15:12:47.000Z</time>
      </trkpt>
      <trkpt lat="45.701786" lon="5.886643">
        <ele>282.477604</ele>
        <time>2017-06-02T15:12:51.000Z</time>
      </trkpt>
    </trkseg>
  </trk>
</gpx>